<?xml version='1.0' encoding='UTF-8'?><gpx version="1.1" creator="JPX - https://github.com/jenetics/jpx" xmlns="http://www.topografix.com/GPX/1/1"><trk><trkseg><trkpt lat="43.3555545" lon="3.2392201"><ele>78.66666666666666</ele><time>2026-04-04T07:20:58.445Z</time></trkpt><trkpt lat="43.3555238" lon="3.2391422"><ele>78.33333333333333</ele><time>2026-04-04T07:20:59.445Z</time></trkpt><trkpt lat="43.3554852" lon="3.239065"><ele>78.0</ele><time>2026-04-04T07:21:00.444Z</time></trkpt><trkpt lat="43.3554442" lon="3.2389981"><ele>77.66666666666667</ele><time>2026-04-04T07:21:01.445Z</time></trkpt><trkpt lat="43.3553694" lon="3.23887"><ele>77.33333333333334</ele><time>2026-04-04T07:21:03.444Z</time></trkpt><trkpt lat="43.3553121" lon="3.2387509"><ele>77.0</ele><time>2026-04-04T07:21:05.445Z</time></trkpt><trkpt lat="43.3553821" lon="3.2386954"><ele>77.0</ele><time>2026-04-04T07:21:08.444Z</time></trkpt><trkpt lat="43.3554438" lon="3.2387408"><ele>77.0</ele><time>2026-04-04T07:21:09.444Z</time></trkpt><trkpt lat="43.3555074" lon="3.2388279"><ele>77.0</ele><time>2026-04-04T07:21:10.445Z</time></trkpt><trkpt lat="43.3555825" lon="3.2389487"><ele>77.0</ele><time>2026-04-04T07:21:11.445Z</time></trkpt><trkpt lat="43.355666" lon="3.2390874"><ele>77.0</ele><time>2026-04-04T07:21:12.446Z</time></trkpt><trkpt lat="43.3557501" lon="3.2392341"><ele>77.4</ele><time>2026-04-04T07:21:13.445Z</time></trkpt><trkpt lat="43.3558168" lon="3.2393651"><ele>77.80000000000001</ele><time>2026-04-04T07:21:14.444Z</time></trkpt><trkpt lat="43.3558737" lon="3.2394774"><ele>78.2</ele><time>2026-04-04T07:21:15.444Z</time></trkpt><trkpt lat="43.3559284" lon="3.2395755"><ele>78.60000000000001</ele><time>2026-04-04T07:21:16.444Z</time></trkpt><trkpt lat="43.3559664" lon="3.2396589"><ele>79.0</ele><time>2026-04-04T07:21:17.445Z</time></trkpt><trkpt lat="43.3559958" lon="3.2397824"><ele>79.0</ele><time>2026-04-04T07:21:19.444Z</time></trkpt><trkpt lat="43.3559846" lon="3.2398846"><ele>79.0</ele><time>2026-04-04T07:21:21.444Z</time></trkpt><trkpt lat="43.3559712" lon="3.2400547"><ele>79.0</ele><time>2026-04-04T07:21:23.445Z</time></trkpt><trkpt lat="43.3559843" lon="3.2401433"><ele>79.0</ele><time>2026-04-04T07:21:24.444Z</time></trkpt><trkpt lat="43.3560226" lon="3.2402175"><ele>79.0</ele><time>2026-04-04T07:21:25.444Z</time></trkpt><trkpt lat="43.3560814" lon="3.2402711"><ele>79.0</ele><time>2026-04-04T07:21:26.445Z</time></trkpt><trkpt lat="43.3561581" lon="3.2403059"><ele>79.0</ele><time>2026-04-04T07:21:27.444Z</time></trkpt><trkpt lat="43.3562408" lon="3.2403223"><ele>79.0</ele><time>2026-04-04T07:21:28.445Z</time></trkpt><trkpt lat="43.356323" lon="3.2403125"><ele>79.0</ele><time>2026-04-04T07:21:29.444Z</time></trkpt><trkpt lat="43.3564079" lon="3.2402805"><ele>79.0</ele><time>2026-04-04T07:21:30.446Z</time></trkpt><trkpt lat="43.3564946" lon="3.2402447"><ele>79.0</ele><time>2026-04-04T07:21:31.444Z</time></trkpt><trkpt lat="43.3565877" lon="3.2402098"><ele>79.0</ele><time>2026-04-04T07:21:32.445Z</time></trkpt><trkpt lat="43.356684" lon="3.2401636"><ele>79.2</ele><time>2026-04-04T07:21:33.444Z</time></trkpt><trkpt lat="43.3567809" lon="3.240115"><ele>79.4</ele><time>2026-04-04T07:21:34.444Z</time></trkpt><trkpt lat="43.3568857" lon="3.2400781"><ele>79.6</ele><time>2026-04-04T07:21:35.444Z</time></trkpt><trkpt lat="43.356997" lon="3.2400524"><ele>79.8</ele><time>2026-04-04T07:21:36.445Z</time></trkpt><trkpt lat="43.3571181" lon="3.2400285"><ele>80.0</ele><time>2026-04-04T07:21:37.444Z</time></trkpt><trkpt lat="43.3572453" lon="3.240006"><ele>80.0</ele><time>2026-04-04T07:21:38.443Z</time></trkpt><trkpt lat="43.3573747" lon="3.2399839"><ele>80.0</ele><time>2026-04-04T07:21:39.446Z</time></trkpt><trkpt lat="43.3574976" lon="3.2399594"><ele>80.0</ele><time>2026-04-04T07:21:40.447Z</time></trkpt><trkpt lat="43.3576213" lon="3.2399379"><ele>80.0</ele><time>2026-04-04T07:21:41.444Z</time></trkpt><trkpt lat="43.3577344" lon="3.2399107"><ele>80.0</ele><time>2026-04-04T07:21:42.444Z</time></trkpt><trkpt lat="43.3578511" lon="3.2398947"><ele>80.0</ele><time>2026-04-04T07:21:43.445Z</time></trkpt><trkpt lat="43.3579667" lon="3.2398924"><ele>80.0</ele><time>2026-04-04T07:21:44.444Z</time></trkpt><trkpt lat="43.3580889" lon="3.2399036"><ele>80.0</ele><time>2026-04-04T07:21:45.443Z</time></trkpt><trkpt lat="43.3582132" lon="3.2399356"><ele>79.8</ele><time>2026-04-04T07:21:46.443Z</time></trkpt><trkpt lat="43.3583373" lon="3.2399727"><ele>79.6</ele><time>2026-04-04T07:21:47.444Z</time></trkpt><trkpt lat="43.3584482" lon="3.2400227"><ele>79.4</ele><time>2026-04-04T07:21:48.444Z</time></trkpt><trkpt lat="43.3585509" lon="3.2400668"><ele>79.2</ele><time>2026-04-04T07:21:49.444Z</time></trkpt><trkpt lat="43.3586458" lon="3.240086"><ele>79.0</ele><time>2026-04-04T07:21:50.444Z</time></trkpt><trkpt lat="43.3587372" lon="3.2400655"><ele>79.0</ele><time>2026-04-04T07:21:51.444Z</time></trkpt><trkpt lat="43.3588258" lon="3.2400115"><ele>79.0</ele><time>2026-04-04T07:21:52.444Z</time></trkpt><trkpt lat="43.3589094" lon="3.2399461"><ele>79.0</ele><time>2026-04-04T07:21:53.444Z</time></trkpt><trkpt lat="43.3589951" lon="3.2398865"><ele>79.0</ele><time>2026-04-04T07:21:54.443Z</time></trkpt><trkpt lat="43.3590721" lon="3.2398374"><ele>79.0</ele><time>2026-04-04T07:21:55.444Z</time></trkpt><trkpt lat="43.3591655" lon="3.2397869"><ele>79.2</ele><time>2026-04-04T07:21:57.446Z</time></trkpt><trkpt lat="43.3592241" lon="3.2397285"><ele>79.4</ele><time>2026-04-04T07:21:59.442Z</time></trkpt><trkpt lat="43.3592724" lon="3.239575"><ele>79.6</ele><time>2026-04-04T07:22:01.442Z</time></trkpt><trkpt lat="43.3592862" lon="3.2394597"><ele>79.8</ele><time>2026-04-04T07:22:02.446Z</time></trkpt><trkpt lat="43.3593002" lon="3.2393253"><ele>80.0</ele><time>2026-04-04T07:22:03.443Z</time></trkpt><trkpt lat="43.3593156" lon="3.2391791"><ele>80.0</ele><time>2026-04-04T07:22:04.446Z</time></trkpt><trkpt lat="43.359328" lon="3.2390326"><ele>80.0</ele><time>2026-04-04T07:22:05.446Z</time></trkpt><trkpt lat="43.3593463" lon="3.2388918"><ele>80.0</ele><time>2026-04-04T07:22:06.445Z</time></trkpt><trkpt lat="43.3593683" lon="3.23876"><ele>80.0</ele><time>2026-04-04T07:22:07.448Z</time></trkpt><trkpt lat="43.3593917" lon="3.23864"><ele>80.0</ele><time>2026-04-04T07:22:08.444Z</time></trkpt><trkpt lat="43.3594083" lon="3.23854"><ele>81.2</ele><time>2026-04-04T07:22:09.443Z</time></trkpt><trkpt lat="43.35943" lon="3.238425"><ele>82.4</ele><time>2026-04-04T07:22:11.444Z</time></trkpt><trkpt lat="43.3594717" lon="3.23829"><ele>83.6</ele><time>2026-04-04T07:22:15.444Z</time></trkpt><trkpt lat="43.3595" lon="3.23814"><ele>84.8</ele><time>2026-04-04T07:22:17.444Z</time></trkpt><trkpt lat="43.3594467" lon="3.23805"><ele>86.0</ele><time>2026-04-04T07:22:19.444Z</time></trkpt><trkpt lat="43.3593083" lon="3.2380683"><ele>86.0</ele><time>2026-04-04T07:22:21.444Z</time></trkpt><trkpt lat="43.359215" lon="3.238075"><ele>86.0</ele><time>2026-04-04T07:22:22.444Z</time></trkpt><trkpt lat="43.359105" lon="3.238065"><ele>86.0</ele><time>2026-04-04T07:22:23.447Z</time></trkpt><trkpt lat="43.3589917" lon="3.23804"><ele>86.0</ele><time>2026-04-04T07:22:24.443Z</time></trkpt><trkpt lat="43.35887" lon="3.238005"><ele>86.0</ele><time>2026-04-04T07:22:25.444Z</time></trkpt><trkpt lat="43.35875" lon="3.2379633"><ele>86.75</ele><time>2026-04-04T07:22:26.443Z</time></trkpt><trkpt lat="43.358625" lon="3.2379167"><ele>87.5</ele><time>2026-04-04T07:22:27.444Z</time></trkpt><trkpt lat="43.3585" lon="3.2378683"><ele>88.25</ele><time>2026-04-04T07:22:28.444Z</time></trkpt><trkpt lat="43.358375" lon="3.23781"><ele>89.0</ele><time>2026-04-04T07:22:29.444Z</time></trkpt><trkpt lat="43.3582567" lon="3.2377533"><ele>89.0</ele><time>2026-04-04T07:22:30.443Z</time></trkpt><trkpt lat="43.3581417" lon="3.2376933"><ele>89.0</ele><time>2026-04-04T07:22:31.447Z</time></trkpt><trkpt lat="43.358025" lon="3.237635"><ele>89.0</ele><time>2026-04-04T07:22:32.447Z</time></trkpt><trkpt lat="43.3579117" lon="3.2375717"><ele>89.0</ele><time>2026-04-04T07:22:33.445Z</time></trkpt><trkpt lat="43.357805" lon="3.237505"><ele>89.0</ele><time>2026-04-04T07:22:34.446Z</time></trkpt><trkpt lat="43.3577067" lon="3.2374333"><ele>89.0</ele><time>2026-04-04T07:22:35.449Z</time></trkpt><trkpt lat="43.3576167" lon="3.2373467"><ele>89.0</ele><time>2026-04-04T07:22:36.447Z</time></trkpt><trkpt lat="43.3575283" lon="3.237255"><ele>89.0</ele><time>2026-04-04T07:22:37.447Z</time></trkpt><trkpt lat="43.3574417" lon="3.237165"><ele>89.0</ele><time>2026-04-04T07:22:38.446Z</time></trkpt><trkpt lat="43.3573517" lon="3.2370717"><ele>89.0</ele><time>2026-04-04T07:22:39.443Z</time></trkpt><trkpt lat="43.35726" lon="3.2369733"><ele>89.0</ele><time>2026-04-04T07:22:40.444Z</time></trkpt><trkpt lat="43.35717" lon="3.2368767"><ele>89.0</ele><time>2026-04-04T07:22:41.444Z</time></trkpt><trkpt lat="43.35708" lon="3.2367617"><ele>89.0</ele><time>2026-04-04T07:22:42.443Z</time></trkpt><trkpt lat="43.356995" lon="3.2366417"><ele>88.75</ele><time>2026-04-04T07:22:43.446Z</time></trkpt><trkpt lat="43.35691" lon="3.2365133"><ele>88.5</ele><time>2026-04-04T07:22:44.447Z</time></trkpt><trkpt lat="43.3568317" lon="3.2363767"><ele>88.25</ele><time>2026-04-04T07:22:45.447Z</time></trkpt><trkpt lat="43.356755" lon="3.2362467"><ele>88.0</ele><time>2026-04-04T07:22:46.444Z</time></trkpt><trkpt lat="43.3566783" lon="3.2361217"><ele>88.0</ele><time>2026-04-04T07:22:47.445Z</time></trkpt><trkpt lat="43.3566033" lon="3.2359967"><ele>88.0</ele><time>2026-04-04T07:22:48.444Z</time></trkpt><trkpt lat="43.3565267" lon="3.2358717"><ele>88.0</ele><time>2026-04-04T07:22:49.445Z</time></trkpt><trkpt lat="43.35645" lon="3.23575"><ele>88.0</ele><time>2026-04-04T07:22:50.445Z</time></trkpt><trkpt lat="43.35638" lon="3.23562"><ele>87.5</ele><time>2026-04-04T07:22:51.444Z</time></trkpt><trkpt lat="43.356305" lon="3.2354833"><ele>87.0</ele><time>2026-04-04T07:22:52.444Z</time></trkpt><trkpt lat="43.356235" lon="3.235355"><ele>86.5</ele><time>2026-04-04T07:22:53.446Z</time></trkpt><trkpt lat="43.3561633" lon="3.2352267"><ele>86.0</ele><time>2026-04-04T07:22:54.446Z</time></trkpt><trkpt lat="43.3560883" lon="3.2350967"><ele>86.0</ele><time>2026-04-04T07:22:55.447Z</time></trkpt><trkpt lat="43.3560183" lon="3.234975"><ele>86.0</ele><time>2026-04-04T07:22:56.443Z</time></trkpt><trkpt lat="43.3559467" lon="3.2348483"><ele>86.0</ele><time>2026-04-04T07:22:57.448Z</time></trkpt><trkpt lat="43.3558767" lon="3.234715"><ele>86.0</ele><time>2026-04-04T07:22:58.447Z</time></trkpt><trkpt lat="43.3557983" lon="3.2345833"><ele>86.25</ele><time>2026-04-04T07:22:59.443Z</time></trkpt><trkpt lat="43.3557183" lon="3.2344517"><ele>86.5</ele><time>2026-04-04T07:23:00.444Z</time></trkpt><trkpt lat="43.3556367" lon="3.234315"><ele>86.75</ele><time>2026-04-04T07:23:01.444Z</time></trkpt><trkpt lat="43.3555567" lon="3.2341783"><ele>87.0</ele><time>2026-04-04T07:23:02.444Z</time></trkpt><trkpt lat="43.3554883" lon="3.2340467"><ele>86.19999999999999</ele><time>2026-04-04T07:23:03.444Z</time></trkpt><trkpt lat="43.35543" lon="3.23393"><ele>85.4</ele><time>2026-04-04T07:23:04.443Z</time></trkpt><trkpt lat="43.3553917" lon="3.2338233"><ele>84.6</ele><time>2026-04-04T07:23:05.444Z</time></trkpt><trkpt lat="43.355355" lon="3.2337017"><ele>83.80000000000001</ele><time>2026-04-04T07:23:06.446Z</time></trkpt><trkpt lat="43.3553067" lon="3.2335583"><ele>83.0</ele><time>2026-04-04T07:23:07.447Z</time></trkpt><trkpt lat="43.355255" lon="3.2333967"><ele>83.0</ele><time>2026-04-04T07:23:08.443Z</time></trkpt><trkpt lat="43.3552" lon="3.2332267"><ele>83.0</ele><time>2026-04-04T07:23:09.445Z</time></trkpt><trkpt lat="43.3551383" lon="3.233035"><ele>83.0</ele><time>2026-04-04T07:23:10.444Z</time></trkpt><trkpt lat="43.3550733" lon="3.2328333"><ele>83.0</ele><time>2026-04-04T07:23:11.444Z</time></trkpt><trkpt lat="43.3550133" lon="3.2326233"><ele>83.0</ele><time>2026-04-04T07:23:12.444Z</time></trkpt><trkpt lat="43.35496" lon="3.2324067"><ele>83.0</ele><time>2026-04-04T07:23:13.445Z</time></trkpt><trkpt lat="43.3549233" lon="3.2321817"><ele>83.0</ele><time>2026-04-04T07:23:14.445Z</time></trkpt><trkpt lat="43.3548933" lon="3.2319683"><ele>82.75</ele><time>2026-04-04T07:23:15.447Z</time></trkpt><trkpt lat="43.3548667" lon="3.23177"><ele>82.5</ele><time>2026-04-04T07:23:16.445Z</time></trkpt><trkpt lat="43.35484" lon="3.2315783"><ele>82.25</ele><time>2026-04-04T07:23:17.444Z</time></trkpt><trkpt lat="43.35481" lon="3.2313817"><ele>82.0</ele><time>2026-04-04T07:23:18.445Z</time></trkpt><trkpt lat="43.35478" lon="3.2311933"><ele>82.5</ele><time>2026-04-04T07:23:19.443Z</time></trkpt><trkpt lat="43.3547517" lon="3.2310217"><ele>83.0</ele><time>2026-04-04T07:23:20.444Z</time></trkpt><trkpt lat="43.3547283" lon="3.2308517"><ele>83.5</ele><time>2026-04-04T07:23:21.443Z</time></trkpt><trkpt lat="43.35471" lon="3.23069"><ele>84.0</ele><time>2026-04-04T07:23:22.444Z</time></trkpt><trkpt lat="43.35469" lon="3.2305217"><ele>83.4</ele><time>2026-04-04T07:23:23.444Z</time></trkpt><trkpt lat="43.354665" lon="3.2303517"><ele>82.80000000000001</ele><time>2026-04-04T07:23:24.444Z</time></trkpt><trkpt lat="43.354645" lon="3.2301967"><ele>82.19999999999999</ele><time>2026-04-04T07:23:25.444Z</time></trkpt><trkpt lat="43.3546283" lon="3.2300533"><ele>81.6</ele><time>2026-04-04T07:23:26.444Z</time></trkpt><trkpt lat="43.3546117" lon="3.2299183"><ele>81.0</ele><time>2026-04-04T07:23:27.443Z</time></trkpt><trkpt lat="43.3545917" lon="3.22978"><ele>81.0</ele><time>2026-04-04T07:23:28.446Z</time></trkpt><trkpt lat="43.354565" lon="3.229635"><ele>81.0</ele><time>2026-04-04T07:23:29.443Z</time></trkpt><trkpt lat="43.3545383" lon="3.22948"><ele>81.0</ele><time>2026-04-04T07:23:30.447Z</time></trkpt><trkpt lat="43.3545083" lon="3.2293183"><ele>81.0</ele><time>2026-04-04T07:23:31.446Z</time></trkpt><trkpt lat="43.3544833" lon="3.2291517"><ele>81.0</ele><time>2026-04-04T07:23:32.444Z</time></trkpt><trkpt lat="43.3544567" lon="3.22898"><ele>81.0</ele><time>2026-04-04T07:23:33.444Z</time></trkpt><trkpt lat="43.3544333" lon="3.228805"><ele>81.0</ele><time>2026-04-04T07:23:34.444Z</time></trkpt><trkpt lat="43.35441" lon="3.2286317"><ele>81.0</ele><time>2026-04-04T07:23:35.445Z</time></trkpt><trkpt lat="43.3543917" lon="3.2284567"><ele>81.25</ele><time>2026-04-04T07:23:36.445Z</time></trkpt><trkpt lat="43.35437" lon="3.2282817"><ele>81.5</ele><time>2026-04-04T07:23:37.445Z</time></trkpt><trkpt lat="43.354345" lon="3.2281067"><ele>81.75</ele><time>2026-04-04T07:23:38.444Z</time></trkpt><trkpt lat="43.3543217" lon="3.2279383"><ele>82.0</ele><time>2026-04-04T07:23:39.444Z</time></trkpt><trkpt lat="43.3542967" lon="3.2277767"><ele>82.0</ele><time>2026-04-04T07:23:40.445Z</time></trkpt><trkpt lat="43.35427" lon="3.2276233"><ele>82.0</ele><time>2026-04-04T07:23:41.445Z</time></trkpt><trkpt lat="43.3542483" lon="3.2274767"><ele>82.0</ele><time>2026-04-04T07:23:42.445Z</time></trkpt><trkpt lat="43.35423" lon="3.2273317"><ele>82.0</ele><time>2026-04-04T07:23:43.445Z</time></trkpt><trkpt lat="43.3542133" lon="3.2271933"><ele>82.0</ele><time>2026-04-04T07:23:44.445Z</time></trkpt><trkpt lat="43.3541867" lon="3.2270533"><ele>81.8</ele><time>2026-04-04T07:23:45.444Z</time></trkpt><trkpt lat="43.354155" lon="3.2269167"><ele>81.6</ele><time>2026-04-04T07:23:46.445Z</time></trkpt><trkpt lat="43.3541117" lon="3.226785"><ele>81.39999999999999</ele><time>2026-04-04T07:23:47.444Z</time></trkpt><trkpt lat="43.3540583" lon="3.2266583"><ele>81.19999999999999</ele><time>2026-04-04T07:23:48.446Z</time></trkpt><trkpt lat="43.3540083" lon="3.2265283"><ele>81.0</ele><time>2026-04-04T07:23:49.45Z</time></trkpt><trkpt lat="43.353965" lon="3.2263917"><ele>81.0</ele><time>2026-04-04T07:23:50.447Z</time></trkpt><trkpt lat="43.3539233" lon="3.2262533"><ele>81.0</ele><time>2026-04-04T07:23:51.444Z</time></trkpt><trkpt lat="43.3538867" lon="3.2261133"><ele>81.0</ele><time>2026-04-04T07:23:52.444Z</time></trkpt><trkpt lat="43.3538467" lon="3.2259817"><ele>81.0</ele><time>2026-04-04T07:23:53.445Z</time></trkpt><trkpt lat="43.353805" lon="3.2258583"><ele>81.0</ele><time>2026-04-04T07:23:54.444Z</time></trkpt><trkpt lat="43.35376" lon="3.2257433"><ele>80.66666666666667</ele><time>2026-04-04T07:23:55.445Z</time></trkpt><trkpt lat="43.353715" lon="3.2256333"><ele>80.33333333333333</ele><time>2026-04-04T07:23:56.445Z</time></trkpt><trkpt lat="43.3536667" lon="3.22553"><ele>80.0</ele><time>2026-04-04T07:23:57.444Z</time></trkpt><trkpt lat="43.3536183" lon="3.2254333"><ele>79.66666666666666</ele><time>2026-04-04T07:23:58.445Z</time></trkpt><trkpt lat="43.3535683" lon="3.2253317"><ele>79.33333333333333</ele><time>2026-04-04T07:23:59.445Z</time></trkpt><trkpt lat="43.3535183" lon="3.225235"><ele>79.0</ele><time>2026-04-04T07:24:00.443Z</time></trkpt><trkpt lat="43.35347" lon="3.2251333"><ele>79.0</ele><time>2026-04-04T07:24:01.444Z</time></trkpt><trkpt lat="43.35343" lon="3.2250183"><ele>79.0</ele><time>2026-04-04T07:24:02.444Z</time></trkpt><trkpt lat="43.3534" lon="3.2248983"><ele>79.0</ele><time>2026-04-04T07:24:03.444Z</time></trkpt><trkpt lat="43.3534067" lon="3.2247667"><ele>79.0</ele><time>2026-04-04T07:24:04.444Z</time></trkpt><trkpt lat="43.3534283" lon="3.22465"><ele>79.0</ele><time>2026-04-04T07:24:05.444Z</time></trkpt><trkpt lat="43.3534717" lon="3.2245467"><ele>78.60000000000001</ele><time>2026-04-04T07:24:06.444Z</time></trkpt><trkpt lat="43.3535317" lon="3.22445"><ele>78.2</ele><time>2026-04-04T07:24:07.444Z</time></trkpt><trkpt lat="43.3536133" lon="3.2243667"><ele>77.80000000000001</ele><time>2026-04-04T07:24:08.446Z</time></trkpt><trkpt lat="43.3536967" lon="3.2242883"><ele>77.4</ele><time>2026-04-04T07:24:09.444Z</time></trkpt><trkpt lat="43.35378" lon="3.2242117"><ele>77.0</ele><time>2026-04-04T07:24:10.443Z</time></trkpt><trkpt lat="43.3538717" lon="3.2241367"><ele>77.5</ele><time>2026-04-04T07:24:11.445Z</time></trkpt><trkpt lat="43.3539583" lon="3.2240483"><ele>78.0</ele><time>2026-04-04T07:24:12.445Z</time></trkpt><trkpt lat="43.35404" lon="3.2239433"><ele>78.5</ele><time>2026-04-04T07:24:13.444Z</time></trkpt><trkpt lat="43.3541167" lon="3.2238233"><ele>79.0</ele><time>2026-04-04T07:24:14.443Z</time></trkpt><trkpt lat="43.3541933" lon="3.2237017"><ele>79.0</ele><time>2026-04-04T07:24:15.444Z</time></trkpt><trkpt lat="43.3542833" lon="3.2235617"><ele>79.0</ele><time>2026-04-04T07:24:16.443Z</time></trkpt><trkpt lat="43.3543833" lon="3.2234083"><ele>79.0</ele><time>2026-04-04T07:24:17.444Z</time></trkpt><trkpt lat="43.3544883" lon="3.2232367"><ele>79.0</ele><time>2026-04-04T07:24:18.446Z</time></trkpt><trkpt lat="43.35459" lon="3.2230683"><ele>78.75</ele><time>2026-04-04T07:24:19.444Z</time></trkpt><trkpt lat="43.354695" lon="3.2229083"><ele>78.5</ele><time>2026-04-04T07:24:20.444Z</time></trkpt><trkpt lat="43.3548" lon="3.2227667"><ele>78.25</ele><time>2026-04-04T07:24:21.443Z</time></trkpt><trkpt lat="43.3548917" lon="3.2226433"><ele>78.0</ele><time>2026-04-04T07:24:22.447Z</time></trkpt><trkpt lat="43.3549833" lon="3.2225317"><ele>78.4</ele><time>2026-04-04T07:24:23.444Z</time></trkpt><trkpt lat="43.3550667" lon="3.2224233"><ele>78.8</ele><time>2026-04-04T07:24:24.444Z</time></trkpt><trkpt lat="43.3551417" lon="3.2223267"><ele>79.2</ele><time>2026-04-04T07:24:25.445Z</time></trkpt><trkpt lat="43.3552217" lon="3.2222383"><ele>79.6</ele><time>2026-04-04T07:24:26.444Z</time></trkpt><trkpt lat="43.3553" lon="3.2221433"><ele>80.0</ele><time>2026-04-04T07:24:27.443Z</time></trkpt><trkpt lat="43.35538" lon="3.2220533"><ele>79.2</ele><time>2026-04-04T07:24:28.445Z</time></trkpt><trkpt lat="43.3554533" lon="3.2219567"><ele>78.4</ele><time>2026-04-04T07:24:29.444Z</time></trkpt><trkpt lat="43.35551" lon="3.2218467"><ele>77.6</ele><time>2026-04-04T07:24:30.444Z</time></trkpt><trkpt lat="43.3555633" lon="3.22173"><ele>76.8</ele><time>2026-04-04T07:24:31.444Z</time></trkpt><trkpt lat="43.35562" lon="3.2216117"><ele>76.0</ele><time>2026-04-04T07:24:32.444Z</time></trkpt><trkpt lat="43.3556883" lon="3.2214933"><ele>75.0</ele><time>2026-04-04T07:24:33.443Z</time></trkpt><trkpt lat="43.3557717" lon="3.2213817"><ele>74.0</ele><time>2026-04-04T07:24:34.444Z</time></trkpt><trkpt lat="43.3558567" lon="3.2212617"><ele>73.0</ele><time>2026-04-04T07:24:35.445Z</time></trkpt><trkpt lat="43.3559417" lon="3.2211433"><ele>72.0</ele><time>2026-04-04T07:24:36.444Z</time></trkpt><trkpt lat="43.3560317" lon="3.221025"><ele>72.0</ele><time>2026-04-04T07:24:37.444Z</time></trkpt><trkpt lat="43.3561217" lon="3.2209017"><ele>72.0</ele><time>2026-04-04T07:24:38.447Z</time></trkpt><trkpt lat="43.3562117" lon="3.220775"><ele>72.0</ele><time>2026-04-04T07:24:39.444Z</time></trkpt><trkpt lat="43.3563033" lon="3.22065"><ele>72.0</ele><time>2026-04-04T07:24:40.443Z</time></trkpt><trkpt lat="43.3563917" lon="3.22053"><ele>72.5</ele><time>2026-04-04T07:24:41.443Z</time></trkpt><trkpt lat="43.3564767" lon="3.2204133"><ele>73.0</ele><time>2026-04-04T07:24:42.446Z</time></trkpt><trkpt lat="43.35656" lon="3.2202983"><ele>73.5</ele><time>2026-04-04T07:24:43.444Z</time></trkpt><trkpt lat="43.35664" lon="3.2201883"><ele>74.0</ele><time>2026-04-04T07:24:44.448Z</time></trkpt><trkpt lat="43.3567183" lon="3.22008"><ele>74.0</ele><time>2026-04-04T07:24:45.443Z</time></trkpt><trkpt lat="43.3567933" lon="3.2199717"><ele>74.0</ele><time>2026-04-04T07:24:46.444Z</time></trkpt><trkpt lat="43.3568633" lon="3.2198717"><ele>74.0</ele><time>2026-04-04T07:24:47.446Z</time></trkpt><trkpt lat="43.35693" lon="3.2197833"><ele>74.0</ele><time>2026-04-04T07:24:48.445Z</time></trkpt><trkpt lat="43.3569933" lon="3.2196933"><ele>74.0</ele><time>2026-04-04T07:24:49.444Z</time></trkpt><trkpt lat="43.35706" lon="3.2196167"><ele>74.66666666666667</ele><time>2026-04-04T07:24:50.445Z</time></trkpt><trkpt lat="43.357115" lon="3.2195467"><ele>75.33333333333334</ele><time>2026-04-04T07:24:51.445Z</time></trkpt><trkpt lat="43.3571683" lon="3.219475"><ele>76.0</ele><time>2026-04-04T07:24:52.444Z</time></trkpt><trkpt lat="43.3572183" lon="3.21941"><ele>76.66666666666667</ele><time>2026-04-04T07:24:53.444Z</time></trkpt><trkpt lat="43.3573167" lon="3.2193267"><ele>77.33333333333333</ele><time>2026-04-04T07:24:55.446Z</time></trkpt><trkpt lat="43.3573783" lon="3.2192983"><ele>78.0</ele><time>2026-04-04T07:24:57.447Z</time></trkpt><trkpt lat="43.3574683" lon="3.2192567"><ele>78.0</ele><time>2026-04-04T07:25:14.446Z</time></trkpt><trkpt lat="43.3575433" lon="3.21921"><ele>78.0</ele><time>2026-04-04T07:25:15.448Z</time></trkpt><trkpt lat="43.3576317" lon="3.2191567"><ele>78.0</ele><time>2026-04-04T07:25:16.445Z</time></trkpt><trkpt lat="43.3577583" lon="3.2190883"><ele>78.0</ele><time>2026-04-04T07:25:17.444Z</time></trkpt><trkpt lat="43.3579083" lon="3.219015"><ele>80.0</ele><time>2026-04-04T07:25:18.444Z</time></trkpt><trkpt lat="43.3580717" lon="3.2189383"><ele>82.0</ele><time>2026-04-04T07:25:19.443Z</time></trkpt><trkpt lat="43.3582483" lon="3.218865"><ele>84.0</ele><time>2026-04-04T07:25:20.444Z</time></trkpt><trkpt lat="43.3584417" lon="3.2187967"><ele>84.0</ele><time>2026-04-04T07:25:21.444Z</time></trkpt><trkpt lat="43.35865" lon="3.218735"><ele>84.0</ele><time>2026-04-04T07:25:22.444Z</time></trkpt><trkpt lat="43.358875" lon="3.2186817"><ele>84.0</ele><time>2026-04-04T07:25:23.447Z</time></trkpt><trkpt lat="43.3591067" lon="3.21862"><ele>82.5</ele><time>2026-04-04T07:25:24.444Z</time></trkpt><trkpt lat="43.3593467" lon="3.2185583"><ele>81.0</ele><time>2026-04-04T07:25:25.447Z</time></trkpt><trkpt lat="43.3595883" lon="3.2184933"><ele>78.5</ele><time>2026-04-04T07:25:26.447Z</time></trkpt><trkpt lat="43.359825" lon="3.2184267"><ele>76.0</ele><time>2026-04-04T07:25:27.444Z</time></trkpt><trkpt lat="43.3600517" lon="3.2183633"><ele>76.0</ele><time>2026-04-04T07:25:28.444Z</time></trkpt><trkpt lat="43.3602683" lon="3.2183033"><ele>76.0</ele><time>2026-04-04T07:25:29.446Z</time></trkpt><trkpt lat="43.3604833" lon="3.21825"><ele>76.0</ele><time>2026-04-04T07:25:30.447Z</time></trkpt><trkpt lat="43.360695" lon="3.2181983"><ele>75.33333333333333</ele><time>2026-04-04T07:25:31.447Z</time></trkpt><trkpt lat="43.3609017" lon="3.2181367"><ele>74.66666666666667</ele><time>2026-04-04T07:25:32.446Z</time></trkpt><trkpt lat="43.361115" lon="3.2180783"><ele>74.0</ele><time>2026-04-04T07:25:33.447Z</time></trkpt><trkpt lat="43.3613333" lon="3.2180217"><ele>73.0</ele><time>2026-04-04T07:25:34.444Z</time></trkpt><trkpt lat="43.361555" lon="3.2179583"><ele>72.0</ele><time>2026-04-04T07:25:35.445Z</time></trkpt><trkpt lat="43.3617717" lon="3.217885"><ele>72.0</ele><time>2026-04-04T07:25:36.444Z</time></trkpt><trkpt lat="43.3619833" lon="3.2177967"><ele>72.0</ele><time>2026-04-04T07:25:37.445Z</time></trkpt><trkpt lat="43.362185" lon="3.2176883"><ele>72.0</ele><time>2026-04-04T07:25:38.443Z</time></trkpt><trkpt lat="43.36238" lon="3.21756"><ele>71.33333333333333</ele><time>2026-04-04T07:25:39.444Z</time></trkpt><trkpt lat="43.362565" lon="3.2174083"><ele>70.66666666666666</ele><time>2026-04-04T07:25:40.448Z</time></trkpt><trkpt lat="43.36274" lon="3.2172333"><ele>70.0</ele><time>2026-04-04T07:25:41.443Z</time></trkpt><trkpt lat="43.3629083" lon="3.21704"><ele>69.33333333333333</ele><time>2026-04-04T07:25:42.444Z</time></trkpt><trkpt lat="43.3630567" lon="3.216825"><ele>68.66666666666667</ele><time>2026-04-04T07:25:43.445Z</time></trkpt><trkpt lat="43.3631967" lon="3.2165983"><ele>68.0</ele><time>2026-04-04T07:25:44.444Z</time></trkpt><trkpt lat="43.36332" lon="3.2163567"><ele>67.0</ele><time>2026-04-04T07:25:45.446Z</time></trkpt><trkpt lat="43.3634383" lon="3.2161133"><ele>66.0</ele><time>2026-04-04T07:25:46.444Z</time></trkpt><trkpt lat="43.3635483" lon="3.2158717"><ele>65.0</ele><time>2026-04-04T07:25:47.444Z</time></trkpt><trkpt lat="43.3636567" lon="3.21563"><ele>65.0</ele><time>2026-04-04T07:25:48.444Z</time></trkpt><trkpt lat="43.36377" lon="3.21539"><ele>65.0</ele><time>2026-04-04T07:25:49.444Z</time></trkpt><trkpt lat="43.3638767" lon="3.2151433"><ele>65.0</ele><time>2026-04-04T07:25:50.446Z</time></trkpt><trkpt lat="43.363985" lon="3.2149033"><ele>64.0</ele><time>2026-04-04T07:25:51.446Z</time></trkpt><trkpt lat="43.3640917" lon="3.2146617"><ele>63.0</ele><time>2026-04-04T07:25:52.444Z</time></trkpt><trkpt lat="43.364205" lon="3.2144167"><ele>62.0</ele><time>2026-04-04T07:25:53.445Z</time></trkpt><trkpt lat="43.364315" lon="3.2141733"><ele>61.333333333333336</ele><time>2026-04-04T07:25:54.444Z</time></trkpt><trkpt lat="43.36442" lon="3.2139333"><ele>60.66666666666667</ele><time>2026-04-04T07:25:55.444Z</time></trkpt><trkpt lat="43.3645267" lon="3.213695"><ele>60.0</ele><time>2026-04-04T07:25:56.444Z</time></trkpt><trkpt lat="43.364635" lon="3.2134617"><ele>60.33333333333333</ele><time>2026-04-04T07:25:57.444Z</time></trkpt><trkpt lat="43.3647433" lon="3.2132283"><ele>60.666666666666664</ele><time>2026-04-04T07:25:58.444Z</time></trkpt><trkpt lat="43.3648483" lon="3.213"><ele>61.0</ele><time>2026-04-04T07:25:59.445Z</time></trkpt><trkpt lat="43.3649567" lon="3.2127733"><ele>61.33333333333333</ele><time>2026-04-04T07:26:00.446Z</time></trkpt><trkpt lat="43.365065" lon="3.2125517"><ele>61.66666666666667</ele><time>2026-04-04T07:26:01.447Z</time></trkpt><trkpt lat="43.3651683" lon="3.2123333"><ele>62.0</ele><time>2026-04-04T07:26:02.443Z</time></trkpt><trkpt lat="43.3652683" lon="3.2121217"><ele>62.66666666666667</ele><time>2026-04-04T07:26:03.446Z</time></trkpt><trkpt lat="43.36537" lon="3.2119133"><ele>63.33333333333333</ele><time>2026-04-04T07:26:04.444Z</time></trkpt><trkpt lat="43.3654717" lon="3.2117067"><ele>64.0</ele><time>2026-04-04T07:26:05.445Z</time></trkpt><trkpt lat="43.365565" lon="3.2115067"><ele>64.75</ele><time>2026-04-04T07:26:06.443Z</time></trkpt><trkpt lat="43.36565" lon="3.2113233"><ele>65.5</ele><time>2026-04-04T07:26:07.445Z</time></trkpt><trkpt lat="43.3657317" lon="3.2111583"><ele>66.25</ele><time>2026-04-04T07:26:08.444Z</time></trkpt><trkpt lat="43.36581" lon="3.2110167"><ele>67.0</ele><time>2026-04-04T07:26:09.443Z</time></trkpt><trkpt lat="43.3658867" lon="3.2109033"><ele>67.0</ele><time>2026-04-04T07:26:10.445Z</time></trkpt><trkpt lat="43.3659817" lon="3.21082"><ele>67.0</ele><time>2026-04-04T07:26:11.444Z</time></trkpt><trkpt lat="43.3660917" lon="3.2107433"><ele>67.0</ele><time>2026-04-04T07:26:12.445Z</time></trkpt><trkpt lat="43.36622" lon="3.2106467"><ele>67.0</ele><time>2026-04-04T07:26:13.445Z</time></trkpt><trkpt lat="43.36636" lon="3.2105217"><ele>67.66666666666666</ele><time>2026-04-04T07:26:14.444Z</time></trkpt><trkpt lat="43.366525" lon="3.2103917"><ele>68.33333333333333</ele><time>2026-04-04T07:26:15.444Z</time></trkpt><trkpt lat="43.3666983" lon="3.2102833"><ele>69.0</ele><time>2026-04-04T07:26:16.447Z</time></trkpt><trkpt lat="43.3668833" lon="3.2101933"><ele>69.0</ele><time>2026-04-04T07:26:17.444Z</time></trkpt><trkpt lat="43.36706" lon="3.2101167"><ele>69.0</ele><time>2026-04-04T07:26:18.445Z</time></trkpt><trkpt lat="43.3672183" lon="3.2100683"><ele>69.0</ele><time>2026-04-04T07:26:19.445Z</time></trkpt><trkpt lat="43.3673533" lon="3.2100283"><ele>69.4</ele><time>2026-04-04T07:26:20.444Z</time></trkpt><trkpt lat="43.3674683" lon="3.2100117"><ele>69.80000000000001</ele><time>2026-04-04T07:26:21.444Z</time></trkpt><trkpt lat="43.36758" lon="3.2100217"><ele>70.19999999999999</ele><time>2026-04-04T07:26:22.443Z</time></trkpt><trkpt lat="43.3676867" lon="3.21005"><ele>70.6</ele><time>2026-04-04T07:26:23.444Z</time></trkpt><trkpt lat="43.367795" lon="3.2100583"><ele>71.0</ele><time>2026-04-04T07:26:24.444Z</time></trkpt><trkpt lat="43.3678983" lon="3.2100233"><ele>71.0</ele><time>2026-04-04T07:26:25.444Z</time></trkpt><trkpt lat="43.368015" lon="3.2099633"><ele>71.0</ele><time>2026-04-04T07:26:26.445Z</time></trkpt><trkpt lat="43.3681433" lon="3.2099117"><ele>71.0</ele><time>2026-04-04T07:26:27.445Z</time></trkpt><trkpt lat="43.3682867" lon="3.2098767"><ele>71.0</ele><time>2026-04-04T07:26:28.444Z</time></trkpt><trkpt lat="43.3684433" lon="3.20986"><ele>71.33333333333334</ele><time>2026-04-04T07:26:29.444Z</time></trkpt><trkpt lat="43.3686" lon="3.2098433"><ele>71.66666666666667</ele><time>2026-04-04T07:26:30.447Z</time></trkpt><trkpt lat="43.3687667" lon="3.2098233"><ele>72.0</ele><time>2026-04-04T07:26:31.445Z</time></trkpt><trkpt lat="43.3689417" lon="3.2098017"><ele>73.0</ele><time>2026-04-04T07:26:32.444Z</time></trkpt><trkpt lat="43.369115" lon="3.2097783"><ele>74.0</ele><time>2026-04-04T07:26:33.444Z</time></trkpt><trkpt lat="43.3692833" lon="3.2097567"><ele>75.0</ele><time>2026-04-04T07:26:34.444Z</time></trkpt><trkpt lat="43.3694433" lon="3.2097367"><ele>75.0</ele><time>2026-04-04T07:26:35.444Z</time></trkpt><trkpt lat="43.3696017" lon="3.2097167"><ele>75.0</ele><time>2026-04-04T07:26:36.444Z</time></trkpt><trkpt lat="43.3697583" lon="3.2096967"><ele>75.0</ele><time>2026-04-04T07:26:37.445Z</time></trkpt><trkpt lat="43.36992" lon="3.2096783"><ele>75.33333333333333</ele><time>2026-04-04T07:26:38.445Z</time></trkpt><trkpt lat="43.3700833" lon="3.2096517"><ele>75.66666666666666</ele><time>2026-04-04T07:26:39.444Z</time></trkpt><trkpt lat="43.3702467" lon="3.2096117"><ele>76.0</ele><time>2026-04-04T07:26:40.444Z</time></trkpt><trkpt lat="43.370415" lon="3.2095683"><ele>76.33333333333333</ele><time>2026-04-04T07:26:41.444Z</time></trkpt><trkpt lat="43.370585" lon="3.2095117"><ele>76.66666666666667</ele><time>2026-04-04T07:26:42.445Z</time></trkpt><trkpt lat="43.3707533" lon="3.209445"><ele>77.0</ele><time>2026-04-04T07:26:43.445Z</time></trkpt><trkpt lat="43.3709167" lon="3.2093617"><ele>77.0</ele><time>2026-04-04T07:26:44.444Z</time></trkpt><trkpt lat="43.3710767" lon="3.209265"><ele>77.0</ele><time>2026-04-04T07:26:45.444Z</time></trkpt><trkpt lat="43.3712317" lon="3.209155"><ele>77.0</ele><time>2026-04-04T07:26:46.444Z</time></trkpt><trkpt lat="43.3713867" lon="3.2090333"><ele>77.0</ele><time>2026-04-04T07:26:47.447Z</time></trkpt><trkpt lat="43.37154" lon="3.2089083"><ele>77.0</ele><time>2026-04-04T07:26:48.444Z</time></trkpt><trkpt lat="43.371695" lon="3.2087867"><ele>77.0</ele><time>2026-04-04T07:26:49.444Z</time></trkpt><trkpt lat="43.3718517" lon="3.208665"><ele>77.0</ele><time>2026-04-04T07:26:50.444Z</time></trkpt><trkpt lat="43.3720117" lon="3.20854"><ele>77.0</ele><time>2026-04-04T07:26:51.443Z</time></trkpt><trkpt lat="43.37217" lon="3.20842"><ele>77.0</ele><time>2026-04-04T07:26:52.444Z</time></trkpt><trkpt lat="43.372325" lon="3.2083033"><ele>77.0</ele><time>2026-04-04T07:26:53.444Z</time></trkpt><trkpt lat="43.37248" lon="3.2081783"><ele>77.0</ele><time>2026-04-04T07:26:54.444Z</time></trkpt><trkpt lat="43.3726383" lon="3.2080567"><ele>77.0</ele><time>2026-04-04T07:26:55.444Z</time></trkpt><trkpt lat="43.3728" lon="3.2079367"><ele>77.66666666666667</ele><time>2026-04-04T07:26:56.444Z</time></trkpt><trkpt lat="43.3729617" lon="3.2078117"><ele>78.33333333333333</ele><time>2026-04-04T07:26:57.443Z</time></trkpt><trkpt lat="43.3731317" lon="3.2076867"><ele>79.0</ele><time>2026-04-04T07:26:58.444Z</time></trkpt><trkpt lat="43.3733017" lon="3.2075567"><ele>79.33333333333333</ele><time>2026-04-04T07:26:59.444Z</time></trkpt><trkpt lat="43.3734683" lon="3.207425"><ele>79.66666666666667</ele><time>2026-04-04T07:27:00.445Z</time></trkpt><trkpt lat="43.3736367" lon="3.2072967"><ele>80.0</ele><time>2026-04-04T07:27:01.444Z</time></trkpt><trkpt lat="43.3738033" lon="3.20717"><ele>80.66666666666667</ele><time>2026-04-04T07:27:02.444Z</time></trkpt><trkpt lat="43.3739683" lon="3.2070433"><ele>81.33333333333333</ele><time>2026-04-04T07:27:03.443Z</time></trkpt><trkpt lat="43.37413" lon="3.2069133"><ele>82.0</ele><time>2026-04-04T07:27:04.444Z</time></trkpt><trkpt lat="43.3742933" lon="3.206785"><ele>82.0</ele><time>2026-04-04T07:27:05.444Z</time></trkpt><trkpt lat="43.3744517" lon="3.2066617"><ele>82.0</ele><time>2026-04-04T07:27:06.447Z</time></trkpt><trkpt lat="43.3746033" lon="3.2065483"><ele>82.0</ele><time>2026-04-04T07:27:07.444Z</time></trkpt><trkpt lat="43.374745" lon="3.2064433"><ele>82.6</ele><time>2026-04-04T07:27:08.444Z</time></trkpt><trkpt lat="43.3748717" lon="3.2063483"><ele>83.19999999999999</ele><time>2026-04-04T07:27:09.443Z</time></trkpt><trkpt lat="43.3749717" lon="3.2062717"><ele>83.8</ele><time>2026-04-04T07:27:10.445Z</time></trkpt><trkpt lat="43.375045" lon="3.2062183"><ele>84.4</ele><time>2026-04-04T07:27:11.444Z</time></trkpt><trkpt lat="43.37514" lon="3.2061567"><ele>85.0</ele><time>2026-04-04T07:27:13.444Z</time></trkpt><trkpt lat="43.3752083" lon="3.20609"><ele>85.0</ele><time>2026-04-04T07:27:15.444Z</time></trkpt><trkpt lat="43.3752017" lon="3.2059567"><ele>85.0</ele><time>2026-04-04T07:27:17.444Z</time></trkpt><trkpt lat="43.3751367" lon="3.2058567"><ele>85.0</ele><time>2026-04-04T07:27:18.445Z</time></trkpt><trkpt lat="43.3750833" lon="3.2057783"><ele>85.0</ele><time>2026-04-04T07:27:19.443Z</time></trkpt><trkpt lat="43.375025" lon="3.2057033"><ele>85.0</ele><time>2026-04-04T07:27:20.444Z</time></trkpt><trkpt lat="43.3749633" lon="3.20563"><ele>85.0</ele><time>2026-04-04T07:27:21.443Z</time></trkpt><trkpt lat="43.3748967" lon="3.2055567"><ele>85.4</ele><time>2026-04-04T07:27:22.444Z</time></trkpt><trkpt lat="43.3748217" lon="3.20548"><ele>85.8</ele><time>2026-04-04T07:27:23.444Z</time></trkpt><trkpt lat="43.374735" lon="3.2053983"><ele>86.19999999999999</ele><time>2026-04-04T07:27:24.444Z</time></trkpt><trkpt lat="43.3746467" lon="3.20531"><ele>86.6</ele><time>2026-04-04T07:27:25.445Z</time></trkpt><trkpt lat="43.3745483" lon="3.20522"><ele>87.0</ele><time>2026-04-04T07:27:26.445Z</time></trkpt><trkpt lat="43.3744417" lon="3.2051233"><ele>87.0</ele><time>2026-04-04T07:27:27.444Z</time></trkpt><trkpt lat="43.3743367" lon="3.2050167"><ele>87.0</ele><time>2026-04-04T07:27:28.447Z</time></trkpt><trkpt lat="43.3742317" lon="3.2048983"><ele>87.0</ele><time>2026-04-04T07:27:29.447Z</time></trkpt><trkpt lat="43.3741267" lon="3.2047683"><ele>87.0</ele><time>2026-04-04T07:27:30.448Z</time></trkpt><trkpt lat="43.37401" lon="3.2046383"><ele>85.66666666666667</ele><time>2026-04-04T07:27:31.447Z</time></trkpt><trkpt lat="43.3738867" lon="3.204515"><ele>84.33333333333334</ele><time>2026-04-04T07:27:32.447Z</time></trkpt><trkpt lat="43.3737567" lon="3.20441"><ele>83.0</ele><time>2026-04-04T07:27:33.448Z</time></trkpt><trkpt lat="43.3736217" lon="3.204315"><ele>83.0</ele><time>2026-04-04T07:27:34.447Z</time></trkpt><trkpt lat="43.3734867" lon="3.2042317"><ele>83.0</ele><time>2026-04-04T07:27:35.447Z</time></trkpt><trkpt lat="43.3733617" lon="3.2041433"><ele>83.0</ele><time>2026-04-04T07:27:36.447Z</time></trkpt><trkpt lat="43.3732467" lon="3.2040367"><ele>83.0</ele><time>2026-04-04T07:27:37.447Z</time></trkpt><trkpt lat="43.3731383" lon="3.203905"><ele>82.75</ele><time>2026-04-04T07:27:38.447Z</time></trkpt><trkpt lat="43.373035" lon="3.2037617"><ele>82.5</ele><time>2026-04-04T07:27:39.447Z</time></trkpt><trkpt lat="43.3729383" lon="3.2036033"><ele>82.25</ele><time>2026-04-04T07:27:40.447Z</time></trkpt><trkpt lat="43.3728517" lon="3.2034367"><ele>82.0</ele><time>2026-04-04T07:27:41.447Z</time></trkpt><trkpt lat="43.372775" lon="3.2032583"><ele>81.25</ele><time>2026-04-04T07:27:42.448Z</time></trkpt><trkpt lat="43.3727" lon="3.2030783"><ele>80.5</ele><time>2026-04-04T07:27:43.447Z</time></trkpt><trkpt lat="43.3726267" lon="3.2029033"><ele>79.75</ele><time>2026-04-04T07:27:44.447Z</time></trkpt><trkpt lat="43.3725583" lon="3.202735"><ele>79.0</ele><time>2026-04-04T07:27:45.447Z</time></trkpt><trkpt lat="43.3724967" lon="3.2025817"><ele>79.0</ele><time>2026-04-04T07:27:46.447Z</time></trkpt><trkpt lat="43.372435" lon="3.20245"><ele>79.0</ele><time>2026-04-04T07:27:47.444Z</time></trkpt><trkpt lat="43.3723733" lon="3.202335"><ele>79.0</ele><time>2026-04-04T07:27:48.444Z</time></trkpt><trkpt lat="43.3723183" lon="3.2022417"><ele>79.0</ele><time>2026-04-04T07:27:49.445Z</time></trkpt><trkpt lat="43.3722733" lon="3.2021567"><ele>79.0</ele><time>2026-04-04T07:27:50.444Z</time></trkpt><trkpt lat="43.3722517" lon="3.2020117"><ele>79.0</ele><time>2026-04-04T07:27:52.444Z</time></trkpt><trkpt lat="43.3722917" lon="3.2019367"><ele>79.0</ele><time>2026-04-04T07:27:53.444Z</time></trkpt><trkpt lat="43.3723483" lon="3.2018283"><ele>79.0</ele><time>2026-04-04T07:27:54.445Z</time></trkpt><trkpt lat="43.3724133" lon="3.2016983"><ele>79.0</ele><time>2026-04-04T07:27:55.445Z</time></trkpt><trkpt lat="43.37248" lon="3.201545"><ele>79.0</ele><time>2026-04-04T07:27:56.444Z</time></trkpt><trkpt lat="43.3725567" lon="3.201385"><ele>77.66666666666666</ele><time>2026-04-04T07:27:57.444Z</time></trkpt><trkpt lat="43.3726433" lon="3.2012217"><ele>76.33333333333333</ele><time>2026-04-04T07:27:58.447Z</time></trkpt><trkpt lat="43.3727383" lon="3.201065"><ele>75.0</ele><time>2026-04-04T07:27:59.448Z</time></trkpt><trkpt lat="43.3728483" lon="3.20091"><ele>75.0</ele><time>2026-04-04T07:28:00.447Z</time></trkpt><trkpt lat="43.3729617" lon="3.2007633"><ele>75.0</ele><time>2026-04-04T07:28:01.444Z</time></trkpt><trkpt lat="43.3730817" lon="3.2006333"><ele>75.0</ele><time>2026-04-04T07:28:02.444Z</time></trkpt><trkpt lat="43.3732117" lon="3.2005217"><ele>74.66666666666667</ele><time>2026-04-04T07:28:03.444Z</time></trkpt><trkpt lat="43.3733417" lon="3.2004183"><ele>74.33333333333334</ele><time>2026-04-04T07:28:04.444Z</time></trkpt><trkpt lat="43.37348" lon="3.2003267"><ele>74.0</ele><time>2026-04-04T07:28:05.444Z</time></trkpt><trkpt lat="43.3736217" lon="3.20024"><ele>74.0</ele><time>2026-04-04T07:28:06.444Z</time></trkpt><trkpt lat="43.3737683" lon="3.2001633"><ele>74.0</ele><time>2026-04-04T07:28:07.444Z</time></trkpt><trkpt lat="43.3739117" lon="3.2000933"><ele>74.0</ele><time>2026-04-04T07:28:08.444Z</time></trkpt><trkpt lat="43.3740433" lon="3.2000383"><ele>74.0</ele><time>2026-04-04T07:28:09.444Z</time></trkpt><trkpt lat="43.37417" lon="3.2000067"><ele>74.5</ele><time>2026-04-04T07:28:10.447Z</time></trkpt><trkpt lat="43.3742967" lon="3.1999817"><ele>75.0</ele><time>2026-04-04T07:28:11.447Z</time></trkpt><trkpt lat="43.374425" lon="3.199965"><ele>75.5</ele><time>2026-04-04T07:28:12.444Z</time></trkpt><trkpt lat="43.3745617" lon="3.1999467"><ele>76.0</ele><time>2026-04-04T07:28:13.444Z</time></trkpt><trkpt lat="43.3747017" lon="3.1999117"><ele>74.75</ele><time>2026-04-04T07:28:14.444Z</time></trkpt><trkpt lat="43.374845" lon="3.1998583"><ele>73.5</ele><time>2026-04-04T07:28:15.444Z</time></trkpt><trkpt lat="43.3749883" lon="3.19979"><ele>72.25</ele><time>2026-04-04T07:28:16.445Z</time></trkpt><trkpt lat="43.3751217" lon="3.1997217"><ele>71.0</ele><time>2026-04-04T07:28:17.444Z</time></trkpt><trkpt lat="43.375245" lon="3.19968"><ele>70.0</ele><time>2026-04-04T07:28:18.444Z</time></trkpt><trkpt lat="43.3753683" lon="3.1996667"><ele>69.0</ele><time>2026-04-04T07:28:19.444Z</time></trkpt><trkpt lat="43.3754933" lon="3.1996683"><ele>68.0</ele><time>2026-04-04T07:28:20.445Z</time></trkpt><trkpt lat="43.3756117" lon="3.1996533"><ele>67.0</ele><time>2026-04-04T07:28:21.444Z</time></trkpt><trkpt lat="43.375725" lon="3.1996133"><ele>67.0</ele><time>2026-04-04T07:28:22.444Z</time></trkpt><trkpt lat="43.37583" lon="3.199545"><ele>67.0</ele><time>2026-04-04T07:28:23.444Z</time></trkpt><trkpt lat="43.3759183" lon="3.199455"><ele>67.0</ele><time>2026-04-04T07:28:24.444Z</time></trkpt><trkpt lat="43.3760117" lon="3.1993517"><ele>67.0</ele><time>2026-04-04T07:28:25.444Z</time></trkpt><trkpt lat="43.3761033" lon="3.19924"><ele>67.0</ele><time>2026-04-04T07:28:26.444Z</time></trkpt><trkpt lat="43.3762017" lon="3.19912"><ele>67.0</ele><time>2026-04-04T07:28:27.444Z</time></trkpt><trkpt lat="43.3762967" lon="3.1989883"><ele>67.0</ele><time>2026-04-04T07:28:28.444Z</time></trkpt><trkpt lat="43.3763917" lon="3.1988583"><ele>67.0</ele><time>2026-04-04T07:28:29.444Z</time></trkpt><trkpt lat="43.3764817" lon="3.1987267"><ele>68.0</ele><time>2026-04-04T07:28:30.443Z</time></trkpt><trkpt lat="43.3765717" lon="3.1986017"><ele>69.0</ele><time>2026-04-04T07:28:31.444Z</time></trkpt><trkpt lat="43.376645" lon="3.1984683"><ele>70.0</ele><time>2026-04-04T07:28:32.444Z</time></trkpt><trkpt lat="43.3767133" lon="3.19835"><ele>71.0</ele><time>2026-04-04T07:28:33.444Z</time></trkpt><trkpt lat="43.37678" lon="3.1982617"><ele>71.0</ele><time>2026-04-04T07:28:34.444Z</time></trkpt><trkpt lat="43.3768433" lon="3.198175"><ele>71.0</ele><time>2026-04-04T07:28:35.446Z</time></trkpt><trkpt lat="43.3768983" lon="3.1980783"><ele>71.0</ele><time>2026-04-04T07:28:36.444Z</time></trkpt><trkpt lat="43.376925" lon="3.1979483"><ele>71.0</ele><time>2026-04-04T07:28:37.446Z</time></trkpt><trkpt lat="43.376935" lon="3.1978083"><ele>71.0</ele><time>2026-04-04T07:28:38.445Z</time></trkpt><trkpt lat="43.3769333" lon="3.1976583"><ele>70.39999999999999</ele><time>2026-04-04T07:28:39.444Z</time></trkpt><trkpt lat="43.3769467" lon="3.1975083"><ele>69.8</ele><time>2026-04-04T07:28:40.448Z</time></trkpt><trkpt lat="43.3769733" lon="3.1973683"><ele>69.19999999999999</ele><time>2026-04-04T07:28:41.447Z</time></trkpt><trkpt lat="43.377005" lon="3.1972433"><ele>68.6</ele><time>2026-04-04T07:28:42.444Z</time></trkpt><trkpt lat="43.377035" lon="3.197135"><ele>68.0</ele><time>2026-04-04T07:28:43.446Z</time></trkpt><trkpt lat="43.37706" lon="3.19704"><ele>67.6</ele><time>2026-04-04T07:28:44.444Z</time></trkpt><trkpt lat="43.3770817" lon="3.1969567"><ele>67.19999999999999</ele><time>2026-04-04T07:28:45.448Z</time></trkpt><trkpt lat="43.3771033" lon="3.196875"><ele>66.8</ele><time>2026-04-04T07:28:46.444Z</time></trkpt><trkpt lat="43.3771433" lon="3.1967167"><ele>66.39999999999999</ele><time>2026-04-04T07:28:48.444Z</time></trkpt><trkpt lat="43.3771833" lon="3.1965467"><ele>66.0</ele><time>2026-04-04T07:28:50.445Z</time></trkpt><trkpt lat="43.37721" lon="3.196445"><ele>66.0</ele><time>2026-04-04T07:28:51.444Z</time></trkpt><trkpt lat="43.37724" lon="3.1963217"><ele>66.0</ele><time>2026-04-04T07:28:52.445Z</time></trkpt><trkpt lat="43.3772733" lon="3.196185"><ele>66.0</ele><time>2026-04-04T07:28:53.445Z</time></trkpt><trkpt lat="43.3773117" lon="3.1960367"><ele>66.0</ele><time>2026-04-04T07:28:54.444Z</time></trkpt><trkpt lat="43.3773517" lon="3.1958817"><ele>66.0</ele><time>2026-04-04T07:28:55.445Z</time></trkpt><trkpt lat="43.3773917" lon="3.195715"><ele>65.25</ele><time>2026-04-04T07:28:56.444Z</time></trkpt><trkpt lat="43.37744" lon="3.1955483"><ele>64.5</ele><time>2026-04-04T07:28:57.444Z</time></trkpt><trkpt lat="43.377495" lon="3.1953717"><ele>63.75</ele><time>2026-04-04T07:28:58.444Z</time></trkpt><trkpt lat="43.3775567" lon="3.1952017"><ele>63.0</ele><time>2026-04-04T07:28:59.446Z</time></trkpt><trkpt lat="43.3776167" lon="3.1950183"><ele>63.0</ele><time>2026-04-04T07:29:00.447Z</time></trkpt><trkpt lat="43.3776733" lon="3.1948383"><ele>63.0</ele><time>2026-04-04T07:29:01.444Z</time></trkpt><trkpt lat="43.37773" lon="3.1946517"><ele>63.0</ele><time>2026-04-04T07:29:02.445Z</time></trkpt><trkpt lat="43.3777883" lon="3.194465"><ele>63.0</ele><time>2026-04-04T07:29:03.446Z</time></trkpt><trkpt lat="43.37785" lon="3.19427"><ele>63.5</ele><time>2026-04-04T07:29:04.447Z</time></trkpt><trkpt lat="43.3779067" lon="3.1940817"><ele>64.0</ele><time>2026-04-04T07:29:05.447Z</time></trkpt><trkpt lat="43.3779633" lon="3.193905"><ele>64.5</ele><time>2026-04-04T07:29:06.444Z</time></trkpt><trkpt lat="43.37802" lon="3.1937283"><ele>65.0</ele><time>2026-04-04T07:29:07.445Z</time></trkpt><trkpt lat="43.37807" lon="3.19355"><ele>65.0</ele><time>2026-04-04T07:29:08.447Z</time></trkpt><trkpt lat="43.37812" lon="3.193365"><ele>65.0</ele><time>2026-04-04T07:29:09.444Z</time></trkpt><trkpt lat="43.3781633" lon="3.193175"><ele>65.0</ele><time>2026-04-04T07:29:10.444Z</time></trkpt><trkpt lat="43.378205" lon="3.1929767"><ele>65.0</ele><time>2026-04-04T07:29:11.446Z</time></trkpt><trkpt lat="43.378255" lon="3.1927717"><ele>64.0</ele><time>2026-04-04T07:29:12.444Z</time></trkpt><trkpt lat="43.37831" lon="3.19257"><ele>63.0</ele><time>2026-04-04T07:29:13.445Z</time></trkpt><trkpt lat="43.3783617" lon="3.1923733"><ele>62.0</ele><time>2026-04-04T07:29:14.445Z</time></trkpt><trkpt lat="43.37841" lon="3.1921833"><ele>61.5</ele><time>2026-04-04T07:29:15.445Z</time></trkpt><trkpt lat="43.3784567" lon="3.192005"><ele>61.0</ele><time>2026-04-04T07:29:16.444Z</time></trkpt><trkpt lat="43.3784967" lon="3.1918167"><ele>60.5</ele><time>2026-04-04T07:29:17.444Z</time></trkpt><trkpt lat="43.3785367" lon="3.1916217"><ele>60.0</ele><time>2026-04-04T07:29:18.444Z</time></trkpt><trkpt lat="43.3785867" lon="3.1914317"><ele>59.66666666666667</ele><time>2026-04-04T07:29:19.444Z</time></trkpt><trkpt lat="43.3786483" lon="3.1912433"><ele>59.333333333333336</ele><time>2026-04-04T07:29:20.444Z</time></trkpt><trkpt lat="43.37872" lon="3.1910617"><ele>59.0</ele><time>2026-04-04T07:29:21.445Z</time></trkpt><trkpt lat="43.3787917" lon="3.1908767"><ele>59.0</ele><time>2026-04-04T07:29:22.445Z</time></trkpt><trkpt lat="43.3788483" lon="3.1906917"><ele>59.0</ele><time>2026-04-04T07:29:23.444Z</time></trkpt><trkpt lat="43.3788883" lon="3.1904967"><ele>59.0</ele><time>2026-04-04T07:29:24.444Z</time></trkpt><trkpt lat="43.378915" lon="3.1902967"><ele>59.0</ele><time>2026-04-04T07:29:25.447Z</time></trkpt><trkpt lat="43.378935" lon="3.1900967"><ele>60.0</ele><time>2026-04-04T07:29:26.447Z</time></trkpt><trkpt lat="43.3789533" lon="3.1898867"><ele>61.0</ele><time>2026-04-04T07:29:27.445Z</time></trkpt><trkpt lat="43.3789667" lon="3.189675"><ele>62.0</ele><time>2026-04-04T07:29:28.444Z</time></trkpt><trkpt lat="43.37898" lon="3.18946"><ele>62.0</ele><time>2026-04-04T07:29:29.444Z</time></trkpt><trkpt lat="43.3789967" lon="3.1892433"><ele>62.0</ele><time>2026-04-04T07:29:30.447Z</time></trkpt><trkpt lat="43.379015" lon="3.1890317"><ele>62.0</ele><time>2026-04-04T07:29:31.444Z</time></trkpt><trkpt lat="43.379035" lon="3.1888217"><ele>61.66666666666667</ele><time>2026-04-04T07:29:32.444Z</time></trkpt><trkpt lat="43.379055" lon="3.1886167"><ele>61.33333333333333</ele><time>2026-04-04T07:29:33.444Z</time></trkpt><trkpt lat="43.3790767" lon="3.188405"><ele>61.0</ele><time>2026-04-04T07:29:34.446Z</time></trkpt><trkpt lat="43.3791033" lon="3.1882033"><ele>60.25</ele><time>2026-04-04T07:29:35.444Z</time></trkpt><trkpt lat="43.3791317" lon="3.188005"><ele>59.5</ele><time>2026-04-04T07:29:36.443Z</time></trkpt><trkpt lat="43.379155" lon="3.1878167"><ele>58.75</ele><time>2026-04-04T07:29:37.444Z</time></trkpt><trkpt lat="43.3791683" lon="3.18765"><ele>58.0</ele><time>2026-04-04T07:29:38.443Z</time></trkpt><trkpt lat="43.379175" lon="3.1875117"><ele>58.0</ele><time>2026-04-04T07:29:39.442Z</time></trkpt><trkpt lat="43.37919" lon="3.1874"><ele>58.0</ele><time>2026-04-04T07:29:40.443Z</time></trkpt><trkpt lat="43.3792217" lon="3.187275"><ele>58.0</ele><time>2026-04-04T07:29:42.443Z</time></trkpt><trkpt lat="43.379335" lon="3.1872483"><ele>58.0</ele><time>2026-04-04T07:29:44.443Z</time></trkpt><trkpt lat="43.37944" lon="3.1872533"><ele>58.0</ele><time>2026-04-04T07:29:45.443Z</time></trkpt><trkpt lat="43.379565" lon="3.1872617"><ele>57.5</ele><time>2026-04-04T07:29:46.444Z</time></trkpt><trkpt lat="43.3796917" lon="3.1872533"><ele>57.0</ele><time>2026-04-04T07:29:47.444Z</time></trkpt><trkpt lat="43.3798233" lon="3.1872433"><ele>56.5</ele><time>2026-04-04T07:29:48.445Z</time></trkpt><trkpt lat="43.37996" lon="3.1872317"><ele>56.0</ele><time>2026-04-04T07:29:49.444Z</time></trkpt><trkpt lat="43.3800967" lon="3.1872183"><ele>56.0</ele><time>2026-04-04T07:29:50.443Z</time></trkpt><trkpt lat="43.380235" lon="3.1872"><ele>56.0</ele><time>2026-04-04T07:29:51.446Z</time></trkpt><trkpt lat="43.380375" lon="3.187185"><ele>56.0</ele><time>2026-04-04T07:29:52.443Z</time></trkpt><trkpt lat="43.3805183" lon="3.18717"><ele>56.0</ele><time>2026-04-04T07:29:53.446Z</time></trkpt><trkpt lat="43.3806667" lon="3.18716"><ele>57.5</ele><time>2026-04-04T07:29:54.443Z</time></trkpt><trkpt lat="43.3808117" lon="3.1871583"><ele>59.0</ele><time>2026-04-04T07:29:55.444Z</time></trkpt><trkpt lat="43.3809583" lon="3.1871717"><ele>60.5</ele><time>2026-04-04T07:29:56.446Z</time></trkpt><trkpt lat="43.3811017" lon="3.187195"><ele>62.0</ele><time>2026-04-04T07:29:57.444Z</time></trkpt><trkpt lat="43.3812483" lon="3.187225"><ele>63.5</ele><time>2026-04-04T07:29:58.444Z</time></trkpt><trkpt lat="43.381395" lon="3.1872583"><ele>65.0</ele><time>2026-04-04T07:29:59.442Z</time></trkpt><trkpt lat="43.3815417" lon="3.1872917"><ele>66.5</ele><time>2026-04-04T07:30:00.443Z</time></trkpt><trkpt lat="43.3816883" lon="3.1873183"><ele>68.0</ele><time>2026-04-04T07:30:01.443Z</time></trkpt><trkpt lat="43.3818233" lon="3.1873383"><ele>68.8</ele><time>2026-04-04T07:30:02.443Z</time></trkpt><trkpt lat="43.3819417" lon="3.18736"><ele>69.6</ele><time>2026-04-04T07:30:03.443Z</time></trkpt><trkpt lat="43.38204" lon="3.1873867"><ele>70.4</ele><time>2026-04-04T07:30:04.444Z</time></trkpt><trkpt lat="43.38212" lon="3.1874183"><ele>71.2</ele><time>2026-04-04T07:30:05.444Z</time></trkpt><trkpt lat="43.3821883" lon="3.18746"><ele>72.0</ele><time>2026-04-04T07:30:06.442Z</time></trkpt><trkpt lat="43.382255" lon="3.1875167"><ele>74.2</ele><time>2026-04-04T07:30:07.443Z</time></trkpt><trkpt lat="43.3823117" lon="3.1875967"><ele>76.4</ele><time>2026-04-04T07:30:08.442Z</time></trkpt><trkpt lat="43.3823483" lon="3.1876983"><ele>78.60000000000001</ele><time>2026-04-04T07:30:09.443Z</time></trkpt><trkpt lat="43.3823833" lon="3.1878333"><ele>80.80000000000001</ele><time>2026-04-04T07:30:10.443Z</time></trkpt><trkpt lat="43.38242" lon="3.18796"><ele>83.0</ele><time>2026-04-04T07:30:11.444Z</time></trkpt><trkpt lat="43.38248" lon="3.188075"><ele>84.0</ele><time>2026-04-04T07:30:12.444Z</time></trkpt><trkpt lat="43.3825567" lon="3.188185"><ele>85.0</ele><time>2026-04-04T07:30:13.444Z</time></trkpt><trkpt lat="43.3826333" lon="3.1883033"><ele>86.0</ele><time>2026-04-04T07:30:14.443Z</time></trkpt><trkpt lat="43.3827217" lon="3.1884117"><ele>87.0</ele><time>2026-04-04T07:30:15.443Z</time></trkpt><trkpt lat="43.3828133" lon="3.1885117"><ele>87.0</ele><time>2026-04-04T07:30:16.444Z</time></trkpt><trkpt lat="43.382905" lon="3.1886033"><ele>87.0</ele><time>2026-04-04T07:30:17.443Z</time></trkpt><trkpt lat="43.3830067" lon="3.18868"><ele>87.0</ele><time>2026-04-04T07:30:18.443Z</time></trkpt><trkpt lat="43.3831183" lon="3.1887617"><ele>87.0</ele><time>2026-04-04T07:30:19.443Z</time></trkpt><trkpt lat="43.3832167" lon="3.1888367"><ele>87.0</ele><time>2026-04-04T07:30:20.443Z</time></trkpt><trkpt lat="43.3833033" lon="3.188915"><ele>87.0</ele><time>2026-04-04T07:30:21.444Z</time></trkpt><trkpt lat="43.38337" lon="3.1889933"><ele>87.0</ele><time>2026-04-04T07:30:22.443Z</time></trkpt><trkpt lat="43.3834083" lon="3.18916"><ele>87.0</ele><time>2026-04-04T07:30:24.446Z</time></trkpt><trkpt lat="43.3834" lon="3.1892667"><ele>87.0</ele><time>2026-04-04T07:30:25.443Z</time></trkpt><trkpt lat="43.3833633" lon="3.18938"><ele>87.5</ele><time>2026-04-04T07:30:26.444Z</time></trkpt><trkpt lat="43.38329" lon="3.1895217"><ele>88.0</ele><time>2026-04-04T07:30:27.443Z</time></trkpt><trkpt lat="43.3831783" lon="3.1896667"><ele>88.5</ele><time>2026-04-04T07:30:28.444Z</time></trkpt><trkpt lat="43.3830633" lon="3.1898183"><ele>89.0</ele><time>2026-04-04T07:30:29.444Z</time></trkpt><trkpt lat="43.38294" lon="3.1899717"><ele>89.0</ele><time>2026-04-04T07:30:30.443Z</time></trkpt><trkpt lat="43.3828317" lon="3.19012"><ele>89.0</ele><time>2026-04-04T07:30:31.444Z</time></trkpt><trkpt lat="43.3827317" lon="3.1902617"><ele>89.0</ele><time>2026-04-04T07:30:32.443Z</time></trkpt><trkpt lat="43.382645" lon="3.1903883"><ele>89.0</ele><time>2026-04-04T07:30:33.443Z</time></trkpt><trkpt lat="43.3825783" lon="3.1905033"><ele>89.0</ele><time>2026-04-04T07:30:34.444Z</time></trkpt><trkpt lat="43.3825367" lon="3.19061"><ele>89.0</ele><time>2026-04-04T07:30:35.444Z</time></trkpt><trkpt lat="43.3825133" lon="3.1907133"><ele>89.0</ele><time>2026-04-04T07:30:36.443Z</time></trkpt><trkpt lat="43.3825" lon="3.1908083"><ele>89.0</ele><time>2026-04-04T07:30:37.444Z</time></trkpt><trkpt lat="43.38256" lon="3.1909583"><ele>89.0</ele><time>2026-04-04T07:30:39.444Z</time></trkpt><trkpt lat="43.3826267" lon="3.19103"><ele>89.0</ele><time>2026-04-04T07:30:40.443Z</time></trkpt><trkpt lat="43.3826733" lon="3.1911183"><ele>90.0</ele><time>2026-04-04T07:30:41.444Z</time></trkpt><trkpt lat="43.3827033" lon="3.19121"><ele>91.0</ele><time>2026-04-04T07:30:42.445Z</time></trkpt><trkpt lat="43.3827417" lon="3.1913033"><ele>92.0</ele><time>2026-04-04T07:30:43.443Z</time></trkpt><trkpt lat="43.382765" lon="3.1913933"><ele>93.0</ele><time>2026-04-04T07:30:44.444Z</time></trkpt><trkpt lat="43.38277" lon="3.1915033"><ele>94.0</ele><time>2026-04-04T07:30:45.443Z</time></trkpt><trkpt lat="43.3827267" lon="3.1916133"><ele>95.0</ele><time>2026-04-04T07:30:46.443Z</time></trkpt><trkpt lat="43.382655" lon="3.1917667"><ele>95.75</ele><time>2026-04-04T07:30:47.443Z</time></trkpt><trkpt lat="43.3825483" lon="3.1919433"><ele>96.5</ele><time>2026-04-04T07:30:48.443Z</time></trkpt><trkpt lat="43.3824767" lon="3.1920983"><ele>97.25</ele><time>2026-04-04T07:30:49.443Z</time></trkpt><trkpt lat="43.38242" lon="3.1922667"><ele>98.0</ele><time>2026-04-04T07:30:50.443Z</time></trkpt><trkpt lat="43.3823867" lon="3.19244"><ele>98.4</ele><time>2026-04-04T07:30:51.443Z</time></trkpt><trkpt lat="43.3823717" lon="3.19262"><ele>98.80000000000001</ele><time>2026-04-04T07:30:52.443Z</time></trkpt><trkpt lat="43.382365" lon="3.19278"><ele>99.2</ele><time>2026-04-04T07:30:53.443Z</time></trkpt><trkpt lat="43.3823667" lon="3.1929117"><ele>99.6</ele><time>2026-04-04T07:30:54.443Z</time></trkpt><trkpt lat="43.382385" lon="3.1930083"><ele>100.0</ele><time>2026-04-04T07:30:55.444Z</time></trkpt><trkpt lat="43.3824167" lon="3.19309"><ele>100.0</ele><time>2026-04-04T07:30:56.443Z</time></trkpt><trkpt lat="43.38247" lon="3.193165"><ele>100.0</ele><time>2026-04-04T07:30:57.444Z</time></trkpt><trkpt lat="43.3825383" lon="3.1932267"><ele>100.0</ele><time>2026-04-04T07:30:58.443Z</time></trkpt><trkpt lat="43.3826383" lon="3.1932783"><ele>100.0</ele><time>2026-04-04T07:30:59.444Z</time></trkpt><trkpt lat="43.38275" lon="3.193325"><ele>100.0</ele><time>2026-04-04T07:31:00.443Z</time></trkpt><trkpt lat="43.3828667" lon="3.1933767"><ele>99.8</ele><time>2026-04-04T07:31:01.444Z</time></trkpt><trkpt lat="43.3829817" lon="3.1934333"><ele>99.6</ele><time>2026-04-04T07:31:02.444Z</time></trkpt><trkpt lat="43.3830867" lon="3.1934883"><ele>99.4</ele><time>2026-04-04T07:31:03.442Z</time></trkpt><trkpt lat="43.3831733" lon="3.1935417"><ele>99.2</ele><time>2026-04-04T07:31:04.443Z</time></trkpt><trkpt lat="43.38325" lon="3.1935733"><ele>99.0</ele><time>2026-04-04T07:31:05.443Z</time></trkpt><trkpt lat="43.3833233" lon="3.1935917"><ele>99.0</ele><time>2026-04-04T07:31:06.444Z</time></trkpt><trkpt lat="43.38342" lon="3.1935917"><ele>99.0</ele><time>2026-04-04T07:31:07.443Z</time></trkpt><trkpt lat="43.38354" lon="3.193575"><ele>99.0</ele><time>2026-04-04T07:31:08.446Z</time></trkpt><trkpt lat="43.38367" lon="3.1935467"><ele>99.0</ele><time>2026-04-04T07:31:09.446Z</time></trkpt><trkpt lat="43.383795" lon="3.1935017"><ele>98.5</ele><time>2026-04-04T07:31:10.443Z</time></trkpt><trkpt lat="43.3839067" lon="3.1934283"><ele>98.0</ele><time>2026-04-04T07:31:11.443Z</time></trkpt><trkpt lat="43.3840217" lon="3.193335"><ele>97.5</ele><time>2026-04-04T07:31:12.443Z</time></trkpt><trkpt lat="43.3841283" lon="3.1932383"><ele>97.0</ele><time>2026-04-04T07:31:13.447Z</time></trkpt><trkpt lat="43.3842283" lon="3.1931433"><ele>98.0</ele><time>2026-04-04T07:31:14.442Z</time></trkpt><trkpt lat="43.384325" lon="3.1930483"><ele>99.0</ele><time>2026-04-04T07:31:15.444Z</time></trkpt><trkpt lat="43.3844217" lon="3.1929717"><ele>100.0</ele><time>2026-04-04T07:31:16.443Z</time></trkpt><trkpt lat="43.38451" lon="3.1929217"><ele>101.0</ele><time>2026-04-04T07:31:17.444Z</time></trkpt><trkpt lat="43.3845933" lon="3.192905"><ele>102.0</ele><time>2026-04-04T07:31:18.443Z</time></trkpt><trkpt lat="43.3846783" lon="3.1929117"><ele>98.8</ele><time>2026-04-04T07:31:19.444Z</time></trkpt><trkpt lat="43.38475" lon="3.19292"><ele>95.6</ele><time>2026-04-04T07:31:20.443Z</time></trkpt><trkpt lat="43.384825" lon="3.1929183"><ele>92.39999999999999</ele><time>2026-04-04T07:31:21.443Z</time></trkpt><trkpt lat="43.3849033" lon="3.1928867"><ele>89.19999999999999</ele><time>2026-04-04T07:31:22.442Z</time></trkpt><trkpt lat="43.3849933" lon="3.192825"><ele>86.0</ele><time>2026-04-04T07:31:23.446Z</time></trkpt><trkpt lat="43.3851083" lon="3.1927433"><ele>86.0</ele><time>2026-04-04T07:31:24.446Z</time></trkpt><trkpt lat="43.3852417" lon="3.19266"><ele>86.0</ele><time>2026-04-04T07:31:25.443Z</time></trkpt><trkpt lat="43.385375" lon="3.1925867"><ele>86.0</ele><time>2026-04-04T07:31:26.443Z</time></trkpt><trkpt lat="43.3855033" lon="3.19253"><ele>86.0</ele><time>2026-04-04T07:31:27.443Z</time></trkpt><trkpt lat="43.3856233" lon="3.19249"><ele>86.0</ele><time>2026-04-04T07:31:28.443Z</time></trkpt><trkpt lat="43.3857517" lon="3.19245"><ele>86.0</ele><time>2026-04-04T07:31:29.444Z</time></trkpt><trkpt lat="43.3858717" lon="3.192425"><ele>86.0</ele><time>2026-04-04T07:31:30.443Z</time></trkpt><trkpt lat="43.3859733" lon="3.192405"><ele>86.0</ele><time>2026-04-04T07:31:31.445Z</time></trkpt><trkpt lat="43.3860633" lon="3.1924217"><ele>86.0</ele><time>2026-04-04T07:31:32.443Z</time></trkpt><trkpt lat="43.3861633" lon="3.1924417"><ele>86.0</ele><time>2026-04-04T07:31:33.444Z</time></trkpt><trkpt lat="43.3862717" lon="3.192455"><ele>86.0</ele><time>2026-04-04T07:31:34.443Z</time></trkpt><trkpt lat="43.38639" lon="3.1924683"><ele>86.0</ele><time>2026-04-04T07:31:35.443Z</time></trkpt><trkpt lat="43.38652" lon="3.1924933"><ele>86.0</ele><time>2026-04-04T07:31:36.442Z</time></trkpt><trkpt lat="43.38666" lon="3.1925183"><ele>83.5</ele><time>2026-04-04T07:31:37.447Z</time></trkpt><trkpt lat="43.3868" lon="3.1925367"><ele>81.0</ele><time>2026-04-04T07:31:38.442Z</time></trkpt><trkpt lat="43.38694" lon="3.1925617"><ele>78.5</ele><time>2026-04-04T07:31:39.442Z</time></trkpt><trkpt lat="43.3870783" lon="3.192595"><ele>76.0</ele><time>2026-04-04T07:31:40.443Z</time></trkpt><trkpt lat="43.3872183" lon="3.1926383"><ele>74.75</ele><time>2026-04-04T07:31:41.444Z</time></trkpt><trkpt lat="43.3873667" lon="3.1926817"><ele>73.5</ele><time>2026-04-04T07:31:42.443Z</time></trkpt><trkpt lat="43.3875067" lon="3.1927183"><ele>72.25</ele><time>2026-04-04T07:31:43.443Z</time></trkpt><trkpt lat="43.3876267" lon="3.1927467"><ele>71.0</ele><time>2026-04-04T07:31:44.443Z</time></trkpt><trkpt lat="43.3877417" lon="3.19276"><ele>71.0</ele><time>2026-04-04T07:31:45.442Z</time></trkpt><trkpt lat="43.3878617" lon="3.1927583"><ele>71.0</ele><time>2026-04-04T07:31:46.443Z</time></trkpt><trkpt lat="43.3879967" lon="3.1927433"><ele>71.0</ele><time>2026-04-04T07:31:47.446Z</time></trkpt><trkpt lat="43.3881417" lon="3.1927283"><ele>71.0</ele><time>2026-04-04T07:31:48.444Z</time></trkpt><trkpt lat="43.3882933" lon="3.1927233"><ele>68.66666666666667</ele><time>2026-04-04T07:31:49.446Z</time></trkpt><trkpt lat="43.3884517" lon="3.1927317"><ele>66.33333333333333</ele><time>2026-04-04T07:31:50.446Z</time></trkpt><trkpt lat="43.3886167" lon="3.1927483"><ele>64.0</ele><time>2026-04-04T07:31:51.447Z</time></trkpt><trkpt lat="43.3887817" lon="3.1927717"><ele>63.33333333333333</ele><time>2026-04-04T07:31:52.445Z</time></trkpt><trkpt lat="43.388945" lon="3.1928033"><ele>62.66666666666667</ele><time>2026-04-04T07:31:53.446Z</time></trkpt><trkpt lat="43.389105" lon="3.1928383"><ele>62.0</ele><time>2026-04-04T07:31:54.442Z</time></trkpt><trkpt lat="43.3892617" lon="3.1928667"><ele>62.0</ele><time>2026-04-04T07:31:55.443Z</time></trkpt><trkpt lat="43.3894117" lon="3.1929"><ele>62.0</ele><time>2026-04-04T07:31:56.443Z</time></trkpt><trkpt lat="43.3895633" lon="3.19294"><ele>62.0</ele><time>2026-04-04T07:31:57.442Z</time></trkpt><trkpt lat="43.3897117" lon="3.1929817"><ele>60.75</ele><time>2026-04-04T07:31:58.444Z</time></trkpt><trkpt lat="43.389855" lon="3.1930117"><ele>59.5</ele><time>2026-04-04T07:31:59.443Z</time></trkpt><trkpt lat="43.3900067" lon="3.1930167"><ele>58.25</ele><time>2026-04-04T07:32:00.444Z</time></trkpt><trkpt lat="43.3901583" lon="3.193005"><ele>57.0</ele><time>2026-04-04T07:32:01.442Z</time></trkpt><trkpt lat="43.390305" lon="3.1929817"><ele>57.0</ele><time>2026-04-04T07:32:02.444Z</time></trkpt><trkpt lat="43.390455" lon="3.19294"><ele>57.0</ele><time>2026-04-04T07:32:03.443Z</time></trkpt><trkpt lat="43.3906083" lon="3.19288"><ele>57.0</ele><time>2026-04-04T07:32:04.443Z</time></trkpt><trkpt lat="43.3907583" lon="3.1928033"><ele>57.33333333333333</ele><time>2026-04-04T07:32:05.444Z</time></trkpt><trkpt lat="43.3909017" lon="3.1927317"><ele>57.666666666666664</ele><time>2026-04-04T07:32:06.446Z</time></trkpt><trkpt lat="43.3910517" lon="3.1926717"><ele>58.0</ele><time>2026-04-04T07:32:07.446Z</time></trkpt><trkpt lat="43.391195" lon="3.1926267"><ele>58.0</ele><time>2026-04-04T07:32:08.444Z</time></trkpt><trkpt lat="43.39134" lon="3.19259"><ele>58.0</ele><time>2026-04-04T07:32:09.442Z</time></trkpt><trkpt lat="43.3914867" lon="3.1925683"><ele>58.0</ele><time>2026-04-04T07:32:10.447Z</time></trkpt><trkpt lat="43.3916317" lon="3.1925433"><ele>58.0</ele><time>2026-04-04T07:32:11.442Z</time></trkpt><trkpt lat="43.3917817" lon="3.1925117"><ele>58.0</ele><time>2026-04-04T07:32:12.443Z</time></trkpt><trkpt lat="43.391935" lon="3.19248"><ele>58.0</ele><time>2026-04-04T07:32:13.443Z</time></trkpt><trkpt lat="43.3920867" lon="3.19245"><ele>58.0</ele><time>2026-04-04T07:32:14.442Z</time></trkpt><trkpt lat="43.39223" lon="3.1924233"><ele>58.2</ele><time>2026-04-04T07:32:15.443Z</time></trkpt><trkpt lat="43.39235" lon="3.1924067"><ele>58.4</ele><time>2026-04-04T07:32:16.443Z</time></trkpt><trkpt lat="43.3924467" lon="3.192405"><ele>58.60000000000001</ele><time>2026-04-04T07:32:17.443Z</time></trkpt><trkpt lat="43.39252" lon="3.1924133"><ele>58.800000000000004</ele><time>2026-04-04T07:32:18.443Z</time></trkpt><trkpt lat="43.3926367" lon="3.192405"><ele>59.0</ele><time>2026-04-04T07:32:20.443Z</time></trkpt><trkpt lat="43.3926917" lon="3.19236"><ele>58.2</ele><time>2026-04-04T07:32:21.443Z</time></trkpt><trkpt lat="43.3927633" lon="3.1922867"><ele>57.400000000000006</ele><time>2026-04-04T07:32:22.443Z</time></trkpt><trkpt lat="43.3928467" lon="3.1922167"><ele>56.6</ele><time>2026-04-04T07:32:23.447Z</time></trkpt><trkpt lat="43.3929567" lon="3.19217"><ele>55.8</ele><time>2026-04-04T07:32:24.444Z</time></trkpt><trkpt lat="43.3930883" lon="3.1921717"><ele>55.0</ele><time>2026-04-04T07:32:25.443Z</time></trkpt><trkpt lat="43.393225" lon="3.1922217"><ele>55.0</ele><time>2026-04-04T07:32:26.444Z</time></trkpt><trkpt lat="43.393385" lon="3.19232"><ele>55.0</ele><time>2026-04-04T07:32:27.444Z</time></trkpt><trkpt lat="43.3935517" lon="3.192465"><ele>55.0</ele><time>2026-04-04T07:32:28.445Z</time></trkpt><trkpt lat="43.393705" lon="3.1926"><ele>55.75</ele><time>2026-04-04T07:32:29.444Z</time></trkpt><trkpt lat="43.3938383" lon="3.192735"><ele>56.5</ele><time>2026-04-04T07:32:30.443Z</time></trkpt><trkpt lat="43.3939517" lon="3.1928783"><ele>57.25</ele><time>2026-04-04T07:32:31.443Z</time></trkpt><trkpt lat="43.3940367" lon="3.19301"><ele>58.0</ele><time>2026-04-04T07:32:32.444Z</time></trkpt><trkpt lat="43.3940933" lon="3.1931233"><ele>58.4</ele><time>2026-04-04T07:32:33.443Z</time></trkpt><trkpt lat="43.3941333" lon="3.1932133"><ele>58.8</ele><time>2026-04-04T07:32:34.442Z</time></trkpt><trkpt lat="43.394175" lon="3.1933317"><ele>59.2</ele><time>2026-04-04T07:32:36.442Z</time></trkpt><trkpt lat="43.3942867" lon="3.193425"><ele>59.6</ele><time>2026-04-04T07:32:38.444Z</time></trkpt><trkpt lat="43.3943867" lon="3.1934467"><ele>60.0</ele><time>2026-04-04T07:32:39.443Z</time></trkpt><trkpt lat="43.3945083" lon="3.19347"><ele>60.0</ele><time>2026-04-04T07:32:40.445Z</time></trkpt><trkpt lat="43.3946433" lon="3.19351"><ele>60.0</ele><time>2026-04-04T07:32:41.446Z</time></trkpt><trkpt lat="43.39479" lon="3.1935567"><ele>60.0</ele><time>2026-04-04T07:32:42.447Z</time></trkpt><trkpt lat="43.3949467" lon="3.1936"><ele>60.0</ele><time>2026-04-04T07:32:43.447Z</time></trkpt><trkpt lat="43.3951017" lon="3.19365"><ele>60.33333333333333</ele><time>2026-04-04T07:32:44.445Z</time></trkpt><trkpt lat="43.39526" lon="3.193705"><ele>60.666666666666664</ele><time>2026-04-04T07:32:45.442Z</time></trkpt><trkpt lat="43.39542" lon="3.19376"><ele>61.0</ele><time>2026-04-04T07:32:46.446Z</time></trkpt><trkpt lat="43.395585" lon="3.1938067"><ele>62.666666666666664</ele><time>2026-04-04T07:32:47.445Z</time></trkpt><trkpt lat="43.3957533" lon="3.1938433"><ele>64.33333333333333</ele><time>2026-04-04T07:32:48.443Z</time></trkpt><trkpt lat="43.395925" lon="3.19387"><ele>66.0</ele><time>2026-04-04T07:32:49.443Z</time></trkpt><trkpt lat="43.3960983" lon="3.1938883"><ele>66.0</ele><time>2026-04-04T07:32:50.442Z</time></trkpt><trkpt lat="43.3962617" lon="3.193905"><ele>66.0</ele><time>2026-04-04T07:32:51.445Z</time></trkpt><trkpt lat="43.3964133" lon="3.1939217"><ele>66.0</ele><time>2026-04-04T07:32:52.444Z</time></trkpt><trkpt lat="43.3965633" lon="3.1939317"><ele>67.0</ele><time>2026-04-04T07:32:53.446Z</time></trkpt><trkpt lat="43.3967083" lon="3.1939233"><ele>68.0</ele><time>2026-04-04T07:32:54.445Z</time></trkpt><trkpt lat="43.39685" lon="3.1938733"><ele>69.0</ele><time>2026-04-04T07:32:55.446Z</time></trkpt><trkpt lat="43.3969867" lon="3.19381"><ele>70.0</ele><time>2026-04-04T07:32:56.446Z</time></trkpt><trkpt lat="43.3971267" lon="3.1937467"><ele>71.5</ele><time>2026-04-04T07:32:57.442Z</time></trkpt><trkpt lat="43.3972683" lon="3.19368"><ele>73.0</ele><time>2026-04-04T07:32:58.443Z</time></trkpt><trkpt lat="43.39741" lon="3.1936217"><ele>74.5</ele><time>2026-04-04T07:32:59.443Z</time></trkpt><trkpt lat="43.3975483" lon="3.1935667"><ele>76.0</ele><time>2026-04-04T07:33:00.444Z</time></trkpt><trkpt lat="43.397685" lon="3.1935083"><ele>76.0</ele><time>2026-04-04T07:33:01.444Z</time></trkpt><trkpt lat="43.3978117" lon="3.1934333"><ele>76.0</ele><time>2026-04-04T07:33:02.443Z</time></trkpt><trkpt lat="43.3979317" lon="3.1933783"><ele>76.0</ele><time>2026-04-04T07:33:03.442Z</time></trkpt><trkpt lat="43.398035" lon="3.193325"><ele>76.0</ele><time>2026-04-04T07:33:04.443Z</time></trkpt><trkpt lat="43.39813" lon="3.1932783"><ele>76.0</ele><time>2026-04-04T07:33:05.443Z</time></trkpt><trkpt lat="43.398215" lon="3.1932367"><ele>76.0</ele><time>2026-04-04T07:33:06.443Z</time></trkpt><trkpt lat="43.39829" lon="3.19319"><ele>76.0</ele><time>2026-04-04T07:33:07.444Z</time></trkpt><trkpt lat="43.3983517" lon="3.193135"><ele>76.0</ele><time>2026-04-04T07:33:08.445Z</time></trkpt><trkpt lat="43.3983917" lon="3.1930083"><ele>76.0</ele><time>2026-04-04T07:33:10.446Z</time></trkpt><trkpt lat="43.3983367" lon="3.192845"><ele>76.0</ele><time>2026-04-04T07:33:12.447Z</time></trkpt><trkpt lat="43.3983" lon="3.192725"><ele>76.0</ele><time>2026-04-04T07:33:13.445Z</time></trkpt><trkpt lat="43.398275" lon="3.1925733"><ele>76.0</ele><time>2026-04-04T07:33:14.445Z</time></trkpt><trkpt lat="43.398245" lon="3.1924333"><ele>76.0</ele><time>2026-04-04T07:33:15.447Z</time></trkpt><trkpt lat="43.39823" lon="3.1923233"><ele>76.0</ele><time>2026-04-04T07:33:16.444Z</time></trkpt><trkpt lat="43.3982283" lon="3.1922217"><ele>75.16666666666666</ele><time>2026-04-04T07:33:17.447Z</time></trkpt><trkpt lat="43.3982467" lon="3.1921367"><ele>74.33333333333333</ele><time>2026-04-04T07:33:18.443Z</time></trkpt><trkpt lat="43.398295" lon="3.19206"><ele>73.5</ele><time>2026-04-04T07:33:19.443Z</time></trkpt><trkpt lat="43.3983483" lon="3.191975"><ele>72.66666666666667</ele><time>2026-04-04T07:33:20.443Z</time></trkpt><trkpt lat="43.3984167" lon="3.1918817"><ele>71.83333333333334</ele><time>2026-04-04T07:33:21.442Z</time></trkpt><trkpt lat="43.3984933" lon="3.1917567"><ele>71.0</ele><time>2026-04-04T07:33:22.443Z</time></trkpt><trkpt lat="43.3986583" lon="3.1916283"><ele>71.0</ele><time>2026-04-04T07:33:23.444Z</time></trkpt><trkpt lat="43.3987817" lon="3.1914967"><ele>71.0</ele><time>2026-04-04T07:33:24.443Z</time></trkpt><trkpt lat="43.3989067" lon="3.19136"><ele>71.0</ele><time>2026-04-04T07:33:25.444Z</time></trkpt><trkpt lat="43.39902" lon="3.1912133"><ele>71.0</ele><time>2026-04-04T07:33:26.446Z</time></trkpt><trkpt lat="43.39913" lon="3.1910783"><ele>71.0</ele><time>2026-04-04T07:33:27.442Z</time></trkpt><trkpt lat="43.39923" lon="3.1909617"><ele>71.0</ele><time>2026-04-04T07:33:28.443Z</time></trkpt><trkpt lat="43.3993233" lon="3.1908467"><ele>71.0</ele><time>2026-04-04T07:33:29.443Z</time></trkpt><trkpt lat="43.3994167" lon="3.1907367"><ele>70.5</ele><time>2026-04-04T07:33:30.444Z</time></trkpt><trkpt lat="43.3995117" lon="3.1906167"><ele>70.0</ele><time>2026-04-04T07:33:31.444Z</time></trkpt><trkpt lat="43.3996183" lon="3.1904917"><ele>69.5</ele><time>2026-04-04T07:33:32.442Z</time></trkpt><trkpt lat="43.3997283" lon="3.1903717"><ele>69.0</ele><time>2026-04-04T07:33:33.443Z</time></trkpt><trkpt lat="43.399845" lon="3.190255"><ele>69.0</ele><time>2026-04-04T07:33:34.443Z</time></trkpt><trkpt lat="43.3999683" lon="3.1901667"><ele>69.0</ele><time>2026-04-04T07:33:35.446Z</time></trkpt><trkpt lat="43.4000917" lon="3.190095"><ele>69.0</ele><time>2026-04-04T07:33:36.444Z</time></trkpt><trkpt lat="43.400215" lon="3.1900517"><ele>69.0</ele><time>2026-04-04T07:33:37.443Z</time></trkpt><trkpt lat="43.4003333" lon="3.1900433"><ele>69.0</ele><time>2026-04-04T07:33:38.444Z</time></trkpt><trkpt lat="43.4004383" lon="3.1900667"><ele>69.0</ele><time>2026-04-04T07:33:39.443Z</time></trkpt><trkpt lat="43.400535" lon="3.1901"><ele>69.0</ele><time>2026-04-04T07:33:40.443Z</time></trkpt><trkpt lat="43.4006183" lon="3.1901067"><ele>69.0</ele><time>2026-04-04T07:33:41.443Z</time></trkpt><trkpt lat="43.4007033" lon="3.190085"><ele>69.0</ele><time>2026-04-04T07:33:42.443Z</time></trkpt><trkpt lat="43.40079" lon="3.19003"><ele>69.0</ele><time>2026-04-04T07:33:43.443Z</time></trkpt><trkpt lat="43.4008633" lon="3.1899067"><ele>69.0</ele><time>2026-04-04T07:33:44.443Z</time></trkpt><trkpt lat="43.4009333" lon="3.1897417"><ele>69.0</ele><time>2026-04-04T07:33:45.443Z</time></trkpt><trkpt lat="43.4010117" lon="3.189585"><ele>69.0</ele><time>2026-04-04T07:33:46.444Z</time></trkpt><trkpt lat="43.4010833" lon="3.1894267"><ele>69.0</ele><time>2026-04-04T07:33:47.443Z</time></trkpt><trkpt lat="43.4011417" lon="3.1892533"><ele>69.0</ele><time>2026-04-04T07:33:48.443Z</time></trkpt><trkpt lat="43.4011917" lon="3.1890717"><ele>69.0</ele><time>2026-04-04T07:33:49.444Z</time></trkpt><trkpt lat="43.4012433" lon="3.1888933"><ele>69.0</ele><time>2026-04-04T07:33:50.444Z</time></trkpt><trkpt lat="43.40129" lon="3.18871"><ele>68.5</ele><time>2026-04-04T07:33:51.443Z</time></trkpt><trkpt lat="43.4013317" lon="3.18852"><ele>68.0</ele><time>2026-04-04T07:33:52.445Z</time></trkpt><trkpt lat="43.4013717" lon="3.18833"><ele>67.5</ele><time>2026-04-04T07:33:53.447Z</time></trkpt><trkpt lat="43.4014117" lon="3.1881383"><ele>67.0</ele><time>2026-04-04T07:33:54.443Z</time></trkpt><trkpt lat="43.4014533" lon="3.18795"><ele>65.8</ele><time>2026-04-04T07:33:55.444Z</time></trkpt><trkpt lat="43.40149" lon="3.187775"><ele>64.6</ele><time>2026-04-04T07:33:56.443Z</time></trkpt><trkpt lat="43.4015167" lon="3.1876133"><ele>63.39999999999999</ele><time>2026-04-04T07:33:57.443Z</time></trkpt><trkpt lat="43.40154" lon="3.1874767"><ele>62.199999999999996</ele><time>2026-04-04T07:33:58.443Z</time></trkpt><trkpt lat="43.4015567" lon="3.1873733"><ele>61.0</ele><time>2026-04-04T07:33:59.445Z</time></trkpt><trkpt lat="43.4015867" lon="3.1872433"><ele>60.166666666666664</ele><time>2026-04-04T07:34:01.444Z</time></trkpt><trkpt lat="43.4016217" lon="3.187135"><ele>59.33333333333333</ele><time>2026-04-04T07:34:08.443Z</time></trkpt><trkpt lat="43.401595" lon="3.1869833"><ele>58.5</ele><time>2026-04-04T07:34:10.444Z</time></trkpt><trkpt lat="43.40159" lon="3.18688"><ele>57.66666666666667</ele><time>2026-04-04T07:34:11.446Z</time></trkpt><trkpt lat="43.4016" lon="3.18677"><ele>56.833333333333336</ele><time>2026-04-04T07:34:12.443Z</time></trkpt><trkpt lat="43.4016233" lon="3.18666"><ele>56.0</ele><time>2026-04-04T07:34:13.443Z</time></trkpt><trkpt lat="43.4016717" lon="3.18655"><ele>55.75</ele><time>2026-04-04T07:34:14.447Z</time></trkpt><trkpt lat="43.4017533" lon="3.18645"><ele>55.5</ele><time>2026-04-04T07:34:15.443Z</time></trkpt><trkpt lat="43.4018517" lon="3.186345"><ele>55.25</ele><time>2026-04-04T07:34:16.443Z</time></trkpt><trkpt lat="43.4019533" lon="3.1862367"><ele>55.0</ele><time>2026-04-04T07:34:17.443Z</time></trkpt><trkpt lat="43.40206" lon="3.1861117"><ele>55.25</ele><time>2026-04-04T07:34:18.443Z</time></trkpt><trkpt lat="43.40217" lon="3.1859733"><ele>55.5</ele><time>2026-04-04T07:34:19.444Z</time></trkpt><trkpt lat="43.4022783" lon="3.185835"><ele>55.75</ele><time>2026-04-04T07:34:20.443Z</time></trkpt><trkpt lat="43.4023783" lon="3.1857033"><ele>56.0</ele><time>2026-04-04T07:34:21.443Z</time></trkpt><trkpt lat="43.4024667" lon="3.1855967"><ele>55.4</ele><time>2026-04-04T07:34:22.444Z</time></trkpt><trkpt lat="43.40255" lon="3.1855267"><ele>54.8</ele><time>2026-04-04T07:34:23.444Z</time></trkpt><trkpt lat="43.40263" lon="3.1854817"><ele>54.199999999999996</ele><time>2026-04-04T07:34:24.443Z</time></trkpt><trkpt lat="43.4027067" lon="3.1854617"><ele>53.599999999999994</ele><time>2026-04-04T07:34:25.443Z</time></trkpt><trkpt lat="43.4027933" lon="3.1854883"><ele>53.0</ele><time>2026-04-04T07:34:26.443Z</time></trkpt><trkpt lat="43.4028867" lon="3.185555"><ele>53.0</ele><time>2026-04-04T07:34:27.444Z</time></trkpt><trkpt lat="43.4029783" lon="3.185635"><ele>53.0</ele><time>2026-04-04T07:34:28.443Z</time></trkpt><trkpt lat="43.40307" lon="3.185655"><ele>53.0</ele><time>2026-04-04T07:34:29.443Z</time></trkpt><trkpt lat="43.4031667" lon="3.1856483"><ele>53.0</ele><time>2026-04-04T07:34:30.444Z</time></trkpt><trkpt lat="43.4032583" lon="3.1856083"><ele>53.0</ele><time>2026-04-04T07:34:31.443Z</time></trkpt><trkpt lat="43.4033517" lon="3.1855317"><ele>53.75</ele><time>2026-04-04T07:34:32.443Z</time></trkpt><trkpt lat="43.4034483" lon="3.185425"><ele>54.5</ele><time>2026-04-04T07:34:33.444Z</time></trkpt><trkpt lat="43.40355" lon="3.1853067"><ele>55.25</ele><time>2026-04-04T07:34:34.443Z</time></trkpt><trkpt lat="43.4036567" lon="3.185185"><ele>56.0</ele><time>2026-04-04T07:34:35.444Z</time></trkpt><trkpt lat="43.40377" lon="3.1850667"><ele>55.66666666666667</ele><time>2026-04-04T07:34:36.444Z</time></trkpt><trkpt lat="43.4038917" lon="3.18495"><ele>55.33333333333333</ele><time>2026-04-04T07:34:37.446Z</time></trkpt><trkpt lat="43.40402" lon="3.1848367"><ele>55.0</ele><time>2026-04-04T07:34:38.444Z</time></trkpt><trkpt lat="43.4041467" lon="3.1847267"><ele>54.0</ele><time>2026-04-04T07:34:39.446Z</time></trkpt><trkpt lat="43.4042817" lon="3.18463"><ele>53.0</ele><time>2026-04-04T07:34:40.444Z</time></trkpt><trkpt lat="43.404425" lon="3.184545"><ele>52.0</ele><time>2026-04-04T07:34:41.445Z</time></trkpt><trkpt lat="43.40457" lon="3.1844667"><ele>52.33333333333333</ele><time>2026-04-04T07:34:42.446Z</time></trkpt><trkpt lat="43.4047117" lon="3.184395"><ele>52.66666666666667</ele><time>2026-04-04T07:34:43.443Z</time></trkpt><trkpt lat="43.404855" lon="3.184315"><ele>53.0</ele><time>2026-04-04T07:34:44.447Z</time></trkpt><trkpt lat="43.4050033" lon="3.18423"><ele>53.0</ele><time>2026-04-04T07:34:45.446Z</time></trkpt><trkpt lat="43.40515" lon="3.1841467"><ele>53.0</ele><time>2026-04-04T07:34:46.443Z</time></trkpt><trkpt lat="43.405295" lon="3.1840633"><ele>53.0</ele><time>2026-04-04T07:34:47.445Z</time></trkpt><trkpt lat="43.4054433" lon="3.1839767"><ele>52.0</ele><time>2026-04-04T07:34:48.445Z</time></trkpt><trkpt lat="43.4055867" lon="3.1838933"><ele>51.0</ele><time>2026-04-04T07:34:49.443Z</time></trkpt><trkpt lat="43.40573" lon="3.1838133"><ele>50.0</ele><time>2026-04-04T07:34:50.444Z</time></trkpt><trkpt lat="43.4058633" lon="3.183745"><ele>50.0</ele><time>2026-04-04T07:34:51.442Z</time></trkpt><trkpt lat="43.4059867" lon="3.1836833"><ele>50.0</ele><time>2026-04-04T07:34:52.444Z</time></trkpt><trkpt lat="43.406105" lon="3.1836117"><ele>50.0</ele><time>2026-04-04T07:34:53.446Z</time></trkpt><trkpt lat="43.4062217" lon="3.183525"><ele>50.0</ele><time>2026-04-04T07:34:54.443Z</time></trkpt><trkpt lat="43.4063367" lon="3.1834133"><ele>50.0</ele><time>2026-04-04T07:34:55.447Z</time></trkpt><trkpt lat="43.406445" lon="3.18329"><ele>50.0</ele><time>2026-04-04T07:34:56.443Z</time></trkpt><trkpt lat="43.406555" lon="3.18316"><ele>50.0</ele><time>2026-04-04T07:34:57.442Z</time></trkpt><trkpt lat="43.4066667" lon="3.183025"><ele>50.0</ele><time>2026-04-04T07:34:58.443Z</time></trkpt><trkpt lat="43.4067733" lon="3.1828783"><ele>50.0</ele><time>2026-04-04T07:34:59.446Z</time></trkpt><trkpt lat="43.4068767" lon="3.1827267"><ele>50.0</ele><time>2026-04-04T07:35:00.446Z</time></trkpt><trkpt lat="43.406985" lon="3.1825717"><ele>50.0</ele><time>2026-04-04T07:35:01.443Z</time></trkpt><trkpt lat="43.4070983" lon="3.1824167"><ele>50.66666666666667</ele><time>2026-04-04T07:35:02.445Z</time></trkpt><trkpt lat="43.4072233" lon="3.18227"><ele>51.33333333333333</ele><time>2026-04-04T07:35:03.443Z</time></trkpt><trkpt lat="43.4073467" lon="3.18212"><ele>52.0</ele><time>2026-04-04T07:35:04.444Z</time></trkpt><trkpt lat="43.4074683" lon="3.1819717"><ele>52.0</ele><time>2026-04-04T07:35:05.446Z</time></trkpt><trkpt lat="43.4075933" lon="3.1818283"><ele>52.0</ele><time>2026-04-04T07:35:06.446Z</time></trkpt><trkpt lat="43.4077317" lon="3.1816967"><ele>52.0</ele><time>2026-04-04T07:35:07.445Z</time></trkpt><trkpt lat="43.4078783" lon="3.1815767"><ele>52.0</ele><time>2026-04-04T07:35:08.446Z</time></trkpt><trkpt lat="43.4080317" lon="3.1814617"><ele>52.0</ele><time>2026-04-04T07:35:09.445Z</time></trkpt><trkpt lat="43.408185" lon="3.1813533"><ele>52.0</ele><time>2026-04-04T07:35:10.442Z</time></trkpt><trkpt lat="43.4083383" lon="3.181245"><ele>52.0</ele><time>2026-04-04T07:35:11.444Z</time></trkpt><trkpt lat="43.4084783" lon="3.18114"><ele>52.0</ele><time>2026-04-04T07:35:12.445Z</time></trkpt><trkpt lat="43.4086017" lon="3.18104"><ele>52.0</ele><time>2026-04-04T07:35:13.443Z</time></trkpt><trkpt lat="43.408705" lon="3.1809267"><ele>52.0</ele><time>2026-04-04T07:35:14.446Z</time></trkpt><trkpt lat="43.408795" lon="3.1807867"><ele>52.25</ele><time>2026-04-04T07:35:15.445Z</time></trkpt><trkpt lat="43.4088867" lon="3.180655"><ele>52.5</ele><time>2026-04-04T07:35:16.442Z</time></trkpt><trkpt lat="43.408995" lon="3.1805533"><ele>52.75</ele><time>2026-04-04T07:35:17.445Z</time></trkpt><trkpt lat="43.4091183" lon="3.1804733"><ele>53.0</ele><time>2026-04-04T07:35:18.443Z</time></trkpt><trkpt lat="43.409265" lon="3.18041"><ele>53.0</ele><time>2026-04-04T07:35:19.445Z</time></trkpt><trkpt lat="43.409395" lon="3.18034"><ele>53.0</ele><time>2026-04-04T07:35:20.446Z</time></trkpt><trkpt lat="43.409505" lon="3.180255"><ele>53.0</ele><time>2026-04-04T07:35:21.442Z</time></trkpt><trkpt lat="43.4095983" lon="3.18015"><ele>53.0</ele><time>2026-04-04T07:35:22.443Z</time></trkpt><trkpt lat="43.409665" lon="3.1800133"><ele>53.0</ele><time>2026-04-04T07:35:23.446Z</time></trkpt><trkpt lat="43.4097167" lon="3.17988"><ele>53.0</ele><time>2026-04-04T07:35:24.446Z</time></trkpt><trkpt lat="43.40976" lon="3.1797567"><ele>53.0</ele><time>2026-04-04T07:35:25.447Z</time></trkpt><trkpt lat="43.4098067" lon="3.17965"><ele>53.0</ele><time>2026-04-04T07:35:26.446Z</time></trkpt><trkpt lat="43.4098467" lon="3.1795533"><ele>53.0</ele><time>2026-04-04T07:35:27.442Z</time></trkpt><trkpt lat="43.409885" lon="3.1794633"><ele>53.00000000000001</ele><time>2026-04-04T07:35:28.446Z</time></trkpt><trkpt lat="43.4099217" lon="3.1793767"><ele>53.0</ele><time>2026-04-04T07:35:29.443Z</time></trkpt><trkpt lat="43.4099567" lon="3.1792933"><ele>53.0</ele><time>2026-04-04T07:35:30.444Z</time></trkpt><trkpt lat="43.40999" lon="3.1792133"><ele>53.0</ele><time>2026-04-04T07:35:31.443Z</time></trkpt><trkpt lat="43.4100617" lon="3.17904"><ele>53.00000000000001</ele><time>2026-04-04T07:35:33.443Z</time></trkpt><trkpt lat="43.410105" lon="3.1789283"><ele>53.0</ele><time>2026-04-04T07:35:34.443Z</time></trkpt><trkpt lat="43.4101567" lon="3.1788017"><ele>52.25</ele><time>2026-04-04T07:35:35.444Z</time></trkpt><trkpt lat="43.4102183" lon="3.17866"><ele>51.5</ele><time>2026-04-04T07:35:36.444Z</time></trkpt><trkpt lat="43.41029" lon="3.17851"><ele>50.75</ele><time>2026-04-04T07:35:37.443Z</time></trkpt><trkpt lat="43.41037" lon="3.1783467"><ele>50.0</ele><time>2026-04-04T07:35:38.445Z</time></trkpt><trkpt lat="43.41045" lon="3.178175"><ele>50.66666666666667</ele><time>2026-04-04T07:35:39.443Z</time></trkpt><trkpt lat="43.410535" lon="3.178"><ele>51.33333333333333</ele><time>2026-04-04T07:35:40.445Z</time></trkpt><trkpt lat="43.4106267" lon="3.1778167"><ele>52.0</ele><time>2026-04-04T07:35:41.445Z</time></trkpt><trkpt lat="43.4107233" lon="3.1776317"><ele>52.0</ele><time>2026-04-04T07:35:42.446Z</time></trkpt><trkpt lat="43.4108167" lon="3.1774517"><ele>52.0</ele><time>2026-04-04T07:35:43.444Z</time></trkpt><trkpt lat="43.410905" lon="3.17727"><ele>52.0</ele><time>2026-04-04T07:35:44.447Z</time></trkpt><trkpt lat="43.4110017" lon="3.1770767"><ele>51.666666666666664</ele><time>2026-04-04T07:35:45.444Z</time></trkpt><trkpt lat="43.411095" lon="3.1768933"><ele>51.33333333333333</ele><time>2026-04-04T07:35:46.444Z</time></trkpt><trkpt lat="43.41118" lon="3.1767183"><ele>51.0</ele><time>2026-04-04T07:35:47.443Z</time></trkpt><trkpt lat="43.4112583" lon="3.17656"><ele>51.75</ele><time>2026-04-04T07:35:48.443Z</time></trkpt><trkpt lat="43.4113283" lon="3.17642"><ele>52.5</ele><time>2026-04-04T07:35:49.443Z</time></trkpt><trkpt lat="43.4113867" lon="3.17629"><ele>53.25</ele><time>2026-04-04T07:35:50.443Z</time></trkpt><trkpt lat="43.4114267" lon="3.1761533"><ele>54.0</ele><time>2026-04-04T07:35:51.442Z</time></trkpt><trkpt lat="43.4114433" lon="3.1759967"><ele>54.0</ele><time>2026-04-04T07:35:52.445Z</time></trkpt><trkpt lat="43.411445" lon="3.1758133"><ele>54.0</ele><time>2026-04-04T07:35:53.445Z</time></trkpt><trkpt lat="43.411445" lon="3.1756167"><ele>54.0</ele><time>2026-04-04T07:35:54.442Z</time></trkpt><trkpt lat="43.4114583" lon="3.175415"><ele>54.0</ele><time>2026-04-04T07:35:55.446Z</time></trkpt><trkpt lat="43.411485" lon="3.1752017"><ele>53.66666666666667</ele><time>2026-04-04T07:35:56.443Z</time></trkpt><trkpt lat="43.4115267" lon="3.17499"><ele>53.333333333333336</ele><time>2026-04-04T07:35:57.443Z</time></trkpt><trkpt lat="43.4115767" lon="3.1747733"><ele>53.0</ele><time>2026-04-04T07:35:58.443Z</time></trkpt><trkpt lat="43.41163" lon="3.1745583"><ele>52.333333333333336</ele><time>2026-04-04T07:35:59.443Z</time></trkpt><trkpt lat="43.4116883" lon="3.1743433"><ele>51.66666666666667</ele><time>2026-04-04T07:36:00.445Z</time></trkpt><trkpt lat="43.41175" lon="3.1741283"><ele>51.0</ele><time>2026-04-04T07:36:01.443Z</time></trkpt><trkpt lat="43.4118167" lon="3.17392"><ele>50.75</ele><time>2026-04-04T07:36:02.445Z</time></trkpt><trkpt lat="43.4118833" lon="3.1737183"><ele>50.5</ele><time>2026-04-04T07:36:03.444Z</time></trkpt><trkpt lat="43.4119517" lon="3.1735333"><ele>50.25</ele><time>2026-04-04T07:36:04.443Z</time></trkpt><trkpt lat="43.4120233" lon="3.1733717"><ele>50.0</ele><time>2026-04-04T07:36:05.443Z</time></trkpt><trkpt lat="43.4120967" lon="3.173225"><ele>50.4</ele><time>2026-04-04T07:36:06.443Z</time></trkpt><trkpt lat="43.412165" lon="3.1730917"><ele>50.8</ele><time>2026-04-04T07:36:07.444Z</time></trkpt><trkpt lat="43.4122267" lon="3.1729767"><ele>51.2</ele><time>2026-04-04T07:36:08.443Z</time></trkpt><trkpt lat="43.4122817" lon="3.1728733"><ele>51.6</ele><time>2026-04-04T07:36:09.443Z</time></trkpt><trkpt lat="43.41233" lon="3.1727767"><ele>52.0</ele><time>2026-04-04T07:36:10.443Z</time></trkpt><trkpt lat="43.4123733" lon="3.1726867"><ele>51.99999999999999</ele><time>2026-04-04T07:36:11.444Z</time></trkpt><trkpt lat="43.4124" lon="3.1726017"><ele>52.0</ele><time>2026-04-04T07:36:12.444Z</time></trkpt><trkpt lat="43.4124233" lon="3.17252"><ele>52.0</ele><time>2026-04-04T07:36:13.444Z</time></trkpt><trkpt lat="43.4124433" lon="3.1724367"><ele>52.0</ele><time>2026-04-04T07:36:14.443Z</time></trkpt><trkpt lat="43.4124783" lon="3.1722833"><ele>51.99999999999999</ele><time>2026-04-04T07:36:16.443Z</time></trkpt><trkpt lat="43.412505" lon="3.17214"><ele>52.0</ele><time>2026-04-04T07:36:18.443Z</time></trkpt><trkpt lat="43.41253" lon="3.172005"><ele>52.49999999999999</ele><time>2026-04-04T07:36:20.443Z</time></trkpt><trkpt lat="43.412555" lon="3.1718567"><ele>53.0</ele><time>2026-04-04T07:36:22.443Z</time></trkpt><trkpt lat="43.412585" lon="3.17176"><ele>53.5</ele><time>2026-04-04T07:36:24.443Z</time></trkpt><trkpt lat="43.412635" lon="3.1717067"><ele>54.0</ele><time>2026-04-04T07:36:26.443Z</time></trkpt><trkpt lat="43.4126733" lon="3.1716117"><ele>54.49999999999999</ele><time>2026-04-04T07:36:29.446Z</time></trkpt><trkpt lat="43.4126483" lon="3.1715033"><ele>55.0</ele><time>2026-04-04T07:36:31.444Z</time></trkpt><trkpt lat="43.4126417" lon="3.1713267"><ele>53.5</ele><time>2026-04-04T07:36:33.444Z</time></trkpt><trkpt lat="43.41265" lon="3.17121"><ele>52.0</ele><time>2026-04-04T07:36:34.443Z</time></trkpt><trkpt lat="43.41267" lon="3.1710483"><ele>50.5</ele><time>2026-04-04T07:36:35.443Z</time></trkpt><trkpt lat="43.41272" lon="3.1708783"><ele>49.0</ele><time>2026-04-04T07:36:36.444Z</time></trkpt><trkpt lat="43.4127667" lon="3.1707117"><ele>49.25</ele><time>2026-04-04T07:36:37.443Z</time></trkpt><trkpt lat="43.4128133" lon="3.170545"><ele>49.5</ele><time>2026-04-04T07:36:38.443Z</time></trkpt><trkpt lat="43.4128617" lon="3.1703833"><ele>49.75</ele><time>2026-04-04T07:36:39.442Z</time></trkpt><trkpt lat="43.4129167" lon="3.1702367"><ele>50.0</ele><time>2026-04-04T07:36:40.442Z</time></trkpt><trkpt lat="43.41299" lon="3.1700967"><ele>50.0</ele><time>2026-04-04T07:36:41.446Z</time></trkpt><trkpt lat="43.4130767" lon="3.1699583"><ele>50.0</ele><time>2026-04-04T07:36:42.443Z</time></trkpt><trkpt lat="43.4131683" lon="3.1698133"><ele>50.0</ele><time>2026-04-04T07:36:43.446Z</time></trkpt><trkpt lat="43.4132717" lon="3.1696617"><ele>50.0</ele><time>2026-04-04T07:36:44.446Z</time></trkpt><trkpt lat="43.4133767" lon="3.1695067"><ele>48.66666666666667</ele><time>2026-04-04T07:36:45.445Z</time></trkpt><trkpt lat="43.4134817" lon="3.1693567"><ele>47.333333333333336</ele><time>2026-04-04T07:36:46.445Z</time></trkpt><trkpt lat="43.413595" lon="3.169205"><ele>46.0</ele><time>2026-04-04T07:36:47.445Z</time></trkpt><trkpt lat="43.413705" lon="3.1690533"><ele>45.333333333333336</ele><time>2026-04-04T07:36:48.444Z</time></trkpt><trkpt lat="43.4138133" lon="3.1689"><ele>44.666666666666664</ele><time>2026-04-04T07:36:49.444Z</time></trkpt><trkpt lat="43.4139183" lon="3.1687483"><ele>44.0</ele><time>2026-04-04T07:36:50.446Z</time></trkpt><trkpt lat="43.4140183" lon="3.1686083"><ele>45.5</ele><time>2026-04-04T07:36:51.443Z</time></trkpt><trkpt lat="43.4141167" lon="3.1684933"><ele>47.0</ele><time>2026-04-04T07:36:52.443Z</time></trkpt><trkpt lat="43.4142133" lon="3.168405"><ele>48.5</ele><time>2026-04-04T07:36:53.443Z</time></trkpt><trkpt lat="43.4143083" lon="3.1683317"><ele>50.0</ele><time>2026-04-04T07:36:54.443Z</time></trkpt><trkpt lat="43.4144083" lon="3.168265"><ele>50.0</ele><time>2026-04-04T07:36:55.446Z</time></trkpt><trkpt lat="43.4145133" lon="3.168195"><ele>50.0</ele><time>2026-04-04T07:36:56.446Z</time></trkpt><trkpt lat="43.4146167" lon="3.16813"><ele>50.0</ele><time>2026-04-04T07:36:57.442Z</time></trkpt><trkpt lat="43.414715" lon="3.1680733"><ele>50.0</ele><time>2026-04-04T07:36:58.443Z</time></trkpt><trkpt lat="43.4148167" lon="3.1680333"><ele>50.0</ele><time>2026-04-04T07:36:59.443Z</time></trkpt><trkpt lat="43.4149083" lon="3.1680133"><ele>49.333333333333336</ele><time>2026-04-04T07:37:00.443Z</time></trkpt><trkpt lat="43.41499" lon="3.1680083"><ele>48.66666666666667</ele><time>2026-04-04T07:37:01.445Z</time></trkpt><trkpt lat="43.4150917" lon="3.1680217"><ele>48.0</ele><time>2026-04-04T07:37:03.445Z</time></trkpt><trkpt lat="43.4151717" lon="3.16803"><ele>47.333333333333336</ele><time>2026-04-04T07:37:05.443Z</time></trkpt><trkpt lat="43.4152583" lon="3.16804"><ele>46.66666666666667</ele><time>2026-04-04T07:37:07.443Z</time></trkpt><trkpt lat="43.4153417" lon="3.1680483"><ele>46.0</ele><time>2026-04-04T07:37:09.442Z</time></trkpt><trkpt lat="43.415425" lon="3.16805"><ele>46.333333333333336</ele><time>2026-04-04T07:37:11.443Z</time></trkpt><trkpt lat="43.4155283" lon="3.1680483"><ele>46.66666666666667</ele><time>2026-04-04T07:37:13.443Z</time></trkpt><trkpt lat="43.4155933" lon="3.16805"><ele>47.0</ele><time>2026-04-04T07:37:14.443Z</time></trkpt><trkpt lat="43.4156683" lon="3.1680567"><ele>47.333333333333336</ele><time>2026-04-04T07:37:15.442Z</time></trkpt><trkpt lat="43.4157533" lon="3.168065"><ele>47.666666666666664</ele><time>2026-04-04T07:37:16.442Z</time></trkpt><trkpt lat="43.415845" lon="3.1680733"><ele>48.0</ele><time>2026-04-04T07:37:17.444Z</time></trkpt><trkpt lat="43.4159367" lon="3.1680833"><ele>48.0</ele><time>2026-04-04T07:37:18.443Z</time></trkpt><trkpt lat="43.4160233" lon="3.168095"><ele>48.0</ele><time>2026-04-04T07:37:19.444Z</time></trkpt><trkpt lat="43.4161067" lon="3.1681117"><ele>48.0</ele><time>2026-04-04T07:37:20.443Z</time></trkpt><trkpt lat="43.4161833" lon="3.1681367"><ele>48.0</ele><time>2026-04-04T07:37:21.443Z</time></trkpt><trkpt lat="43.4162533" lon="3.16817"><ele>48.0</ele><time>2026-04-04T07:37:22.443Z</time></trkpt><trkpt lat="43.4163167" lon="3.1682067"><ele>48.0</ele><time>2026-04-04T07:37:23.446Z</time></trkpt><trkpt lat="43.4164233" lon="3.1682867"><ele>48.333333333333336</ele><time>2026-04-04T07:37:25.443Z</time></trkpt><trkpt lat="43.41654" lon="3.16834"><ele>48.66666666666667</ele><time>2026-04-04T07:37:27.443Z</time></trkpt><trkpt lat="43.4166083" lon="3.168355"><ele>49.0</ele><time>2026-04-04T07:37:28.443Z</time></trkpt><trkpt lat="43.416685" lon="3.1683717"><ele>49.333333333333336</ele><time>2026-04-04T07:37:29.447Z</time></trkpt><trkpt lat="43.4167683" lon="3.1683967"><ele>49.66666666666667</ele><time>2026-04-04T07:37:30.444Z</time></trkpt><trkpt lat="43.416855" lon="3.1684283"><ele>50.0</ele><time>2026-04-04T07:37:31.443Z</time></trkpt><trkpt lat="43.41694" lon="3.168455"><ele>50.0</ele><time>2026-04-04T07:37:32.443Z</time></trkpt><trkpt lat="43.4170283" lon="3.1684833"><ele>50.0</ele><time>2026-04-04T07:37:33.442Z</time></trkpt><trkpt lat="43.4171183" lon="3.1685117"><ele>50.0</ele><time>2026-04-04T07:37:34.446Z</time></trkpt><trkpt lat="43.4172083" lon="3.1685367"><ele>50.0</ele><time>2026-04-04T07:37:35.442Z</time></trkpt><trkpt lat="43.4172983" lon="3.1685583"><ele>50.0</ele><time>2026-04-04T07:37:36.442Z</time></trkpt><trkpt lat="43.417385" lon="3.16858"><ele>50.50000000000001</ele><time>2026-04-04T07:37:37.443Z</time></trkpt><trkpt lat="43.4174733" lon="3.1686033"><ele>51.0</ele><time>2026-04-04T07:37:38.444Z</time></trkpt><trkpt lat="43.41756" lon="3.168625"><ele>51.5</ele><time>2026-04-04T07:37:39.444Z</time></trkpt><trkpt lat="43.4176467" lon="3.1686483"><ele>52.0</ele><time>2026-04-04T07:37:40.445Z</time></trkpt><trkpt lat="43.4177333" lon="3.16867"><ele>52.50000000000001</ele><time>2026-04-04T07:37:41.446Z</time></trkpt><trkpt lat="43.4178217" lon="3.1686817"><ele>53.0</ele><time>2026-04-04T07:37:42.447Z</time></trkpt><trkpt lat="43.4179083" lon="3.1686817"><ele>53.833333333333336</ele><time>2026-04-04T07:37:43.446Z</time></trkpt><trkpt lat="43.4179917" lon="3.1686817"><ele>54.66666666666667</ele><time>2026-04-04T07:37:44.443Z</time></trkpt><trkpt lat="43.41808" lon="3.1686983"><ele>55.5</ele><time>2026-04-04T07:37:45.446Z</time></trkpt><trkpt lat="43.4181683" lon="3.1687217"><ele>56.33333333333333</ele><time>2026-04-04T07:37:46.445Z</time></trkpt><trkpt lat="43.4182567" lon="3.168745"><ele>57.166666666666664</ele><time>2026-04-04T07:37:47.444Z</time></trkpt><trkpt lat="43.4183333" lon="3.16876"><ele>58.0</ele><time>2026-04-04T07:37:48.443Z</time></trkpt><trkpt lat="43.418435" lon="3.16878"><ele>57.99999999999999</ele><time>2026-04-04T07:37:50.444Z</time></trkpt><trkpt lat="43.4185267" lon="3.1688217"><ele>58.0</ele><time>2026-04-04T07:38:23.446Z</time></trkpt><trkpt lat="43.4186417" lon="3.168825"><ele>58.0</ele><time>2026-04-04T07:38:25.443Z</time></trkpt><trkpt lat="43.4187133" lon="3.168815"><ele>58.0</ele><time>2026-04-04T07:38:26.444Z</time></trkpt><trkpt lat="43.418785" lon="3.1688017"><ele>57.99999999999999</ele><time>2026-04-04T07:38:27.444Z</time></trkpt><trkpt lat="43.4188583" lon="3.16879"><ele>58.0</ele><time>2026-04-04T07:38:28.443Z</time></trkpt><trkpt lat="43.4189367" lon="3.1687767"><ele>58.49999999999999</ele><time>2026-04-04T07:38:29.444Z</time></trkpt><trkpt lat="43.4190167" lon="3.1687533"><ele>59.0</ele><time>2026-04-04T07:38:30.446Z</time></trkpt><trkpt lat="43.4191" lon="3.1687383"><ele>59.5</ele><time>2026-04-04T07:38:31.443Z</time></trkpt><trkpt lat="43.4191833" lon="3.1687217"><ele>60.0</ele><time>2026-04-04T07:38:32.444Z</time></trkpt><trkpt lat="43.4192683" lon="3.1687083"><ele>60.49999999999999</ele><time>2026-04-04T07:38:33.443Z</time></trkpt><trkpt lat="43.4193483" lon="3.1686933"><ele>61.0</ele><time>2026-04-04T07:38:34.443Z</time></trkpt><trkpt lat="43.4194183" lon="3.16868"><ele>61.0</ele><time>2026-04-04T07:38:35.444Z</time></trkpt><trkpt lat="43.41952" lon="3.1686667"><ele>60.99999999999999</ele><time>2026-04-04T07:38:37.446Z</time></trkpt><trkpt lat="43.4195983" lon="3.16868"><ele>60.99999999999999</ele><time>2026-04-04T07:38:39.445Z</time></trkpt><trkpt lat="43.4196783" lon="3.1687717"><ele>61.0</ele><time>2026-04-04T07:38:41.443Z</time></trkpt><trkpt lat="43.4197367" lon="3.1688467"><ele>61.0</ele><time>2026-04-04T07:38:42.443Z</time></trkpt><trkpt lat="43.419805" lon="3.168935"><ele>61.8</ele><time>2026-04-04T07:38:43.444Z</time></trkpt><trkpt lat="43.4198867" lon="3.1690267"><ele>62.599999999999994</ele><time>2026-04-04T07:38:44.443Z</time></trkpt><trkpt lat="43.419965" lon="3.1691217"><ele>63.4</ele><time>2026-04-04T07:38:45.444Z</time></trkpt><trkpt lat="43.420055" lon="3.1692333"><ele>64.2</ele><time>2026-04-04T07:38:46.443Z</time></trkpt><trkpt lat="43.42013" lon="3.1693383"><ele>65.0</ele><time>2026-04-04T07:38:47.444Z</time></trkpt><trkpt lat="43.4202033" lon="3.1694333"><ele>65.0</ele><time>2026-04-04T07:38:48.444Z</time></trkpt><trkpt lat="43.4202767" lon="3.1695183"><ele>65.0</ele><time>2026-04-04T07:38:49.443Z</time></trkpt><trkpt lat="43.4203467" lon="3.1695867"><ele>65.0</ele><time>2026-04-04T07:38:50.444Z</time></trkpt><trkpt lat="43.420405" lon="3.1696433"><ele>65.0</ele><time>2026-04-04T07:38:51.442Z</time></trkpt><trkpt lat="43.4204567" lon="3.1697"><ele>65.0</ele><time>2026-04-04T07:38:52.444Z</time></trkpt><trkpt lat="43.4205083" lon="3.169755"><ele>65.0</ele><time>2026-04-04T07:38:53.444Z</time></trkpt><trkpt lat="43.4205583" lon="3.1698183"><ele>66.16666666666667</ele><time>2026-04-04T07:38:54.443Z</time></trkpt><trkpt lat="43.4206067" lon="3.1698833"><ele>67.33333333333334</ele><time>2026-04-04T07:38:55.443Z</time></trkpt><trkpt lat="43.4206567" lon="3.1699533"><ele>68.5</ele><time>2026-04-04T07:38:56.446Z</time></trkpt><trkpt lat="43.4207033" lon="3.1700183"><ele>69.66666666666667</ele><time>2026-04-04T07:38:57.443Z</time></trkpt><trkpt lat="43.4207933" lon="3.1700917"><ele>70.83333333333333</ele><time>2026-04-04T07:38:59.443Z</time></trkpt><trkpt lat="43.4208983" lon="3.1700683"><ele>72.0</ele><time>2026-04-04T07:39:01.444Z</time></trkpt><trkpt lat="43.4209583" lon="3.1700017"><ele>72.0</ele><time>2026-04-04T07:39:02.444Z</time></trkpt><trkpt lat="43.4210217" lon="3.16992"><ele>72.0</ele><time>2026-04-04T07:39:03.443Z</time></trkpt><trkpt lat="43.4210833" lon="3.1698383"><ele>72.0</ele><time>2026-04-04T07:39:04.444Z</time></trkpt><trkpt lat="43.4211517" lon="3.1697733"><ele>72.0</ele><time>2026-04-04T07:39:05.443Z</time></trkpt><trkpt lat="43.42122" lon="3.1697017"><ele>72.0</ele><time>2026-04-04T07:39:06.443Z</time></trkpt><trkpt lat="43.4212867" lon="3.1696317"><ele>72.0</ele><time>2026-04-04T07:39:07.443Z</time></trkpt><trkpt lat="43.4213517" lon="3.1695667"><ele>72.0</ele><time>2026-04-04T07:39:08.443Z</time></trkpt><trkpt lat="43.42143" lon="3.1695133"><ele>72.0</ele><time>2026-04-04T07:39:09.444Z</time></trkpt><trkpt lat="43.421505" lon="3.169465"><ele>72.0</ele><time>2026-04-04T07:39:10.443Z</time></trkpt><trkpt lat="43.4215717" lon="3.1694117"><ele>72.0</ele><time>2026-04-04T07:39:11.443Z</time></trkpt><trkpt lat="43.42162" lon="3.16934"><ele>72.0</ele><time>2026-04-04T07:39:12.444Z</time></trkpt><trkpt lat="43.4216733" lon="3.1692717"><ele>72.0</ele><time>2026-04-04T07:39:13.444Z</time></trkpt><trkpt lat="43.4217133" lon="3.1691917"><ele>72.0</ele><time>2026-04-04T07:39:14.443Z</time></trkpt><trkpt lat="43.4217517" lon="3.1691017"><ele>72.0</ele><time>2026-04-04T07:39:15.442Z</time></trkpt><trkpt lat="43.42178" lon="3.1690133"><ele>72.0</ele><time>2026-04-04T07:39:16.444Z</time></trkpt><trkpt lat="43.4218" lon="3.16892"><ele>72.0</ele><time>2026-04-04T07:39:17.446Z</time></trkpt><trkpt lat="43.421845" lon="3.1687733"><ele>72.0</ele><time>2026-04-04T07:39:19.444Z</time></trkpt><trkpt lat="43.4219333" lon="3.1686633"><ele>72.0</ele><time>2026-04-04T07:39:21.445Z</time></trkpt><trkpt lat="43.4219933" lon="3.1686217"><ele>72.0</ele><time>2026-04-04T07:39:22.443Z</time></trkpt><trkpt lat="43.4220467" lon="3.16857"><ele>72.0</ele><time>2026-04-04T07:39:23.444Z</time></trkpt><trkpt lat="43.4221017" lon="3.168525"><ele>72.0</ele><time>2026-04-04T07:39:24.443Z</time></trkpt><trkpt lat="43.42216" lon="3.1684333"><ele>72.0</ele><time>2026-04-04T07:39:26.449Z</time></trkpt><trkpt lat="43.4221833" lon="3.16832"><ele>72.0</ele><time>2026-04-04T07:39:45.443Z</time></trkpt><trkpt lat="43.422235" lon="3.168185"><ele>72.4</ele><time>2026-04-04T07:39:47.442Z</time></trkpt><trkpt lat="43.4222667" lon="3.1680917"><ele>72.80000000000001</ele><time>2026-04-04T07:39:48.442Z</time></trkpt><trkpt lat="43.4223" lon="3.167985"><ele>73.2</ele><time>2026-04-04T07:39:49.443Z</time></trkpt><trkpt lat="43.4223483" lon="3.1678783"><ele>73.60000000000001</ele><time>2026-04-04T07:39:50.444Z</time></trkpt><trkpt lat="43.4224217" lon="3.1677767"><ele>74.0</ele><time>2026-04-04T07:39:51.442Z</time></trkpt><trkpt lat="43.4224917" lon="3.1676767"><ele>74.0</ele><time>2026-04-04T07:39:52.444Z</time></trkpt><trkpt lat="43.4225583" lon="3.1675867"><ele>74.0</ele><time>2026-04-04T07:39:53.443Z</time></trkpt><trkpt lat="43.4226467" lon="3.1675167"><ele>74.0</ele><time>2026-04-04T07:39:54.443Z</time></trkpt><trkpt lat="43.422755" lon="3.1674567"><ele>74.0</ele><time>2026-04-04T07:39:55.443Z</time></trkpt><trkpt lat="43.4228617" lon="3.1673733"><ele>74.0</ele><time>2026-04-04T07:39:56.444Z</time></trkpt><trkpt lat="43.4229667" lon="3.1672817"><ele>73.25</ele><time>2026-04-04T07:39:57.443Z</time></trkpt><trkpt lat="43.4230633" lon="3.1671683"><ele>72.5</ele><time>2026-04-04T07:39:58.443Z</time></trkpt><trkpt lat="43.4231633" lon="3.167035"><ele>71.75</ele><time>2026-04-04T07:39:59.444Z</time></trkpt><trkpt lat="43.4232683" lon="3.16688"><ele>71.0</ele><time>2026-04-04T07:40:00.444Z</time></trkpt><trkpt lat="43.4233733" lon="3.1667167"><ele>71.0</ele><time>2026-04-04T07:40:01.444Z</time></trkpt><trkpt lat="43.42348" lon="3.1665433"><ele>71.0</ele><time>2026-04-04T07:40:02.443Z</time></trkpt><trkpt lat="43.4235867" lon="3.166335"><ele>71.0</ele><time>2026-04-04T07:40:03.443Z</time></trkpt><trkpt lat="43.4237067" lon="3.1661483"><ele>69.0</ele><time>2026-04-04T07:40:04.443Z</time></trkpt><trkpt lat="43.4238333" lon="3.1659583"><ele>67.0</ele><time>2026-04-04T07:40:05.444Z</time></trkpt><trkpt lat="43.4239683" lon="3.1657667"><ele>65.0</ele><time>2026-04-04T07:40:06.446Z</time></trkpt><trkpt lat="43.4241133" lon="3.1655817"><ele>63.333333333333336</ele><time>2026-04-04T07:40:07.447Z</time></trkpt><trkpt lat="43.4242583" lon="3.1654117"><ele>61.66666666666667</ele><time>2026-04-04T07:40:08.446Z</time></trkpt><trkpt lat="43.4244117" lon="3.1652383"><ele>60.0</ele><time>2026-04-04T07:40:09.442Z</time></trkpt><trkpt lat="43.4245633" lon="3.1650633"><ele>61.0</ele><time>2026-04-04T07:40:10.446Z</time></trkpt><trkpt lat="43.424715" lon="3.1648883"><ele>62.0</ele><time>2026-04-04T07:40:11.443Z</time></trkpt><trkpt lat="43.4248667" lon="3.1647167"><ele>63.0</ele><time>2026-04-04T07:40:12.446Z</time></trkpt><trkpt lat="43.4250167" lon="3.1645383"><ele>61.0</ele><time>2026-04-04T07:40:13.446Z</time></trkpt><trkpt lat="43.4251633" lon="3.1643567"><ele>59.0</ele><time>2026-04-04T07:40:14.446Z</time></trkpt><trkpt lat="43.4253067" lon="3.1641733"><ele>57.0</ele><time>2026-04-04T07:40:15.445Z</time></trkpt><trkpt lat="43.4254517" lon="3.16399"><ele>57.33333333333333</ele><time>2026-04-04T07:40:16.448Z</time></trkpt><trkpt lat="43.4255933" lon="3.163805"><ele>57.666666666666664</ele><time>2026-04-04T07:40:17.443Z</time></trkpt><trkpt lat="43.4257367" lon="3.16362"><ele>58.0</ele><time>2026-04-04T07:40:18.443Z</time></trkpt><trkpt lat="43.4258733" lon="3.16342"><ele>58.0</ele><time>2026-04-04T07:40:19.443Z</time></trkpt><trkpt lat="43.426" lon="3.16321"><ele>58.0</ele><time>2026-04-04T07:40:20.443Z</time></trkpt><trkpt lat="43.4261183" lon="3.1629933"><ele>58.0</ele><time>2026-04-04T07:40:21.443Z</time></trkpt><trkpt lat="43.426235" lon="3.162775"><ele>58.33333333333333</ele><time>2026-04-04T07:40:22.443Z</time></trkpt><trkpt lat="43.426355" lon="3.1625567"><ele>58.66666666666667</ele><time>2026-04-04T07:40:23.443Z</time></trkpt><trkpt lat="43.426475" lon="3.1623383"><ele>59.0</ele><time>2026-04-04T07:40:24.444Z</time></trkpt><trkpt lat="43.426595" lon="3.1621233"><ele>57.66666666666667</ele><time>2026-04-04T07:40:25.443Z</time></trkpt><trkpt lat="43.42671" lon="3.1619167"><ele>56.33333333333333</ele><time>2026-04-04T07:40:26.443Z</time></trkpt><trkpt lat="43.4268233" lon="3.1617117"><ele>55.0</ele><time>2026-04-04T07:40:27.442Z</time></trkpt><trkpt lat="43.4269317" lon="3.16151"><ele>54.666666666666664</ele><time>2026-04-04T07:40:28.443Z</time></trkpt><trkpt lat="43.4270367" lon="3.1613"><ele>54.33333333333333</ele><time>2026-04-04T07:40:29.446Z</time></trkpt><trkpt lat="43.4271417" lon="3.1610867"><ele>54.0</ele><time>2026-04-04T07:40:30.446Z</time></trkpt><trkpt lat="43.427245" lon="3.1608717"><ele>54.66666666666667</ele><time>2026-04-04T07:40:31.444Z</time></trkpt><trkpt lat="43.42735" lon="3.16065"><ele>55.333333333333336</ele><time>2026-04-04T07:40:32.444Z</time></trkpt><trkpt lat="43.4274483" lon="3.1604217"><ele>56.0</ele><time>2026-04-04T07:40:33.443Z</time></trkpt><trkpt lat="43.4275367" lon="3.1601967"><ele>56.0</ele><time>2026-04-04T07:40:34.446Z</time></trkpt><trkpt lat="43.4276083" lon="3.1599717"><ele>56.0</ele><time>2026-04-04T07:40:35.445Z</time></trkpt><trkpt lat="43.42767" lon="3.159745"><ele>56.0</ele><time>2026-04-04T07:40:36.446Z</time></trkpt><trkpt lat="43.4277183" lon="3.1595167"><ele>55.66666666666667</ele><time>2026-04-04T07:40:37.442Z</time></trkpt><trkpt lat="43.4277433" lon="3.15928"><ele>55.33333333333333</ele><time>2026-04-04T07:40:38.444Z</time></trkpt><trkpt lat="43.4277333" lon="3.1590333"><ele>55.0</ele><time>2026-04-04T07:40:39.442Z</time></trkpt><trkpt lat="43.4277017" lon="3.1587867"><ele>55.0</ele><time>2026-04-04T07:40:40.445Z</time></trkpt><trkpt lat="43.4276567" lon="3.1585367"><ele>55.0</ele><time>2026-04-04T07:40:41.442Z</time></trkpt><trkpt lat="43.4276083" lon="3.1582833"><ele>55.0</ele><time>2026-04-04T07:40:42.444Z</time></trkpt><trkpt lat="43.4275667" lon="3.15803"><ele>55.0</ele><time>2026-04-04T07:40:43.444Z</time></trkpt><trkpt lat="43.4275233" lon="3.1577733"><ele>55.0</ele><time>2026-04-04T07:40:44.444Z</time></trkpt><trkpt lat="43.4274733" lon="3.157515"><ele>55.0</ele><time>2026-04-04T07:40:45.442Z</time></trkpt><trkpt lat="43.4274083" lon="3.1572667"><ele>54.666666666666664</ele><time>2026-04-04T07:40:46.443Z</time></trkpt><trkpt lat="43.4273333" lon="3.157035"><ele>54.33333333333333</ele><time>2026-04-04T07:40:47.444Z</time></trkpt><trkpt lat="43.427245" lon="3.1568133"><ele>54.0</ele><time>2026-04-04T07:40:48.442Z</time></trkpt><trkpt lat="43.4271467" lon="3.1566"><ele>52.66666666666667</ele><time>2026-04-04T07:40:49.443Z</time></trkpt><trkpt lat="43.4270583" lon="3.1564"><ele>51.333333333333336</ele><time>2026-04-04T07:40:50.444Z</time></trkpt><trkpt lat="43.4269933" lon="3.156205"><ele>50.0</ele><time>2026-04-04T07:40:51.443Z</time></trkpt><trkpt lat="43.42695" lon="3.15602"><ele>50.0</ele><time>2026-04-04T07:40:52.443Z</time></trkpt><trkpt lat="43.4269233" lon="3.155845"><ele>50.0</ele><time>2026-04-04T07:40:53.443Z</time></trkpt><trkpt lat="43.4269117" lon="3.1556783"><ele>50.0</ele><time>2026-04-04T07:40:54.444Z</time></trkpt><trkpt lat="43.4269" lon="3.155515"><ele>50.0</ele><time>2026-04-04T07:40:55.443Z</time></trkpt><trkpt lat="43.4268967" lon="3.1553583"><ele>49.0</ele><time>2026-04-04T07:40:56.443Z</time></trkpt><trkpt lat="43.4268967" lon="3.1552083"><ele>48.0</ele><time>2026-04-04T07:40:57.444Z</time></trkpt><trkpt lat="43.4269017" lon="3.1550633"><ele>47.0</ele><time>2026-04-04T07:40:58.444Z</time></trkpt><trkpt lat="43.4269117" lon="3.154935"><ele>46.0</ele><time>2026-04-04T07:40:59.443Z</time></trkpt><trkpt lat="43.4269267" lon="3.15482"><ele>45.0</ele><time>2026-04-04T07:41:00.443Z</time></trkpt><trkpt lat="43.42697" lon="3.1547217"><ele>44.25</ele><time>2026-04-04T07:41:01.443Z</time></trkpt><trkpt lat="43.4270417" lon="3.1546367"><ele>43.5</ele><time>2026-04-04T07:41:02.443Z</time></trkpt><trkpt lat="43.427135" lon="3.1545483"><ele>42.75</ele><time>2026-04-04T07:41:03.442Z</time></trkpt><trkpt lat="43.4272417" lon="3.1544483"><ele>42.0</ele><time>2026-04-04T07:41:04.443Z</time></trkpt><trkpt lat="43.4273617" lon="3.1543383"><ele>42.0</ele><time>2026-04-04T07:41:05.444Z</time></trkpt><trkpt lat="43.42749" lon="3.1542217"><ele>42.0</ele><time>2026-04-04T07:41:06.444Z</time></trkpt><trkpt lat="43.42763" lon="3.1540967"><ele>42.0</ele><time>2026-04-04T07:41:07.444Z</time></trkpt><trkpt lat="43.4277733" lon="3.1539633"><ele>40.666666666666664</ele><time>2026-04-04T07:41:08.444Z</time></trkpt><trkpt lat="43.4279267" lon="3.1538233"><ele>39.33333333333333</ele><time>2026-04-04T07:41:09.443Z</time></trkpt><trkpt lat="43.42808" lon="3.15368"><ele>38.0</ele><time>2026-04-04T07:41:10.444Z</time></trkpt><trkpt lat="43.4282433" lon="3.1535367"><ele>37.666666666666664</ele><time>2026-04-04T07:41:11.445Z</time></trkpt><trkpt lat="43.4284133" lon="3.1533933"><ele>37.333333333333336</ele><time>2026-04-04T07:41:12.443Z</time></trkpt><trkpt lat="43.4285833" lon="3.15325"><ele>37.0</ele><time>2026-04-04T07:41:13.444Z</time></trkpt><trkpt lat="43.428745" lon="3.1531067"><ele>37.66666666666667</ele><time>2026-04-04T07:41:14.443Z</time></trkpt><trkpt lat="43.4289033" lon="3.1529617"><ele>38.333333333333336</ele><time>2026-04-04T07:41:15.443Z</time></trkpt><trkpt lat="43.4290567" lon="3.1528183"><ele>39.0</ele><time>2026-04-04T07:41:16.443Z</time></trkpt><trkpt lat="43.4292017" lon="3.1526817"><ele>39.0</ele><time>2026-04-04T07:41:17.444Z</time></trkpt><trkpt lat="43.42934" lon="3.1525533"><ele>39.0</ele><time>2026-04-04T07:41:18.443Z</time></trkpt><trkpt lat="43.42947" lon="3.152435"><ele>39.0</ele><time>2026-04-04T07:41:19.445Z</time></trkpt><trkpt lat="43.4295983" lon="3.15233"><ele>41.0</ele><time>2026-04-04T07:41:20.443Z</time></trkpt><trkpt lat="43.4297183" lon="3.1522317"><ele>43.0</ele><time>2026-04-04T07:41:21.443Z</time></trkpt><trkpt lat="43.4298183" lon="3.152135"><ele>45.0</ele><time>2026-04-04T07:41:22.445Z</time></trkpt><trkpt lat="43.4299033" lon="3.152055"><ele>47.0</ele><time>2026-04-04T07:41:23.444Z</time></trkpt><trkpt lat="43.429975" lon="3.1519883"><ele>47.0</ele><time>2026-04-04T07:41:24.443Z</time></trkpt><trkpt lat="43.4300383" lon="3.15194"><ele>47.0</ele><time>2026-04-04T07:41:25.443Z</time></trkpt><trkpt lat="43.4301033" lon="3.1519383"><ele>47.0</ele><time>2026-04-04T07:41:27.445Z</time></trkpt><trkpt lat="43.4300383" lon="3.152075"><ele>47.0</ele><time>2026-04-04T07:41:29.444Z</time></trkpt><trkpt lat="43.4300333" lon="3.1521833"><ele>47.0</ele><time>2026-04-04T07:41:31.443Z</time></trkpt><trkpt lat="43.4301067" lon="3.152255"><ele>47.0</ele><time>2026-04-04T07:41:33.443Z</time></trkpt><trkpt lat="43.4301717" lon="3.1522883"><ele>47.0</ele><time>2026-04-04T07:41:34.445Z</time></trkpt><trkpt lat="43.4302567" lon="3.15233"><ele>47.0</ele><time>2026-04-04T07:41:35.446Z</time></trkpt><trkpt lat="43.4303617" lon="3.1523783"><ele>47.0</ele><time>2026-04-04T07:41:36.444Z</time></trkpt><trkpt lat="43.4304833" lon="3.1524383"><ele>47.0</ele><time>2026-04-04T07:41:37.445Z</time></trkpt><trkpt lat="43.4305983" lon="3.1525"><ele>47.400000000000006</ele><time>2026-04-04T07:41:38.442Z</time></trkpt><trkpt lat="43.43071" lon="3.1525567"><ele>47.800000000000004</ele><time>2026-04-04T07:41:39.443Z</time></trkpt><trkpt lat="43.4308217" lon="3.1526067"><ele>48.2</ele><time>2026-04-04T07:41:40.444Z</time></trkpt><trkpt lat="43.43092" lon="3.1526533"><ele>48.6</ele><time>2026-04-04T07:41:41.443Z</time></trkpt><trkpt lat="43.4310033" lon="3.1527117"><ele>49.0</ele><time>2026-04-04T07:41:42.443Z</time></trkpt><trkpt lat="43.4310733" lon="3.1528033"><ele>49.0</ele><time>2026-04-04T07:41:43.444Z</time></trkpt><trkpt lat="43.4311417" lon="3.1529267"><ele>49.0</ele><time>2026-04-04T07:41:44.444Z</time></trkpt><trkpt lat="43.43121" lon="3.1530533"><ele>49.0</ele><time>2026-04-04T07:41:45.443Z</time></trkpt><trkpt lat="43.431275" lon="3.1531717"><ele>49.0</ele><time>2026-04-04T07:41:46.442Z</time></trkpt><trkpt lat="43.4313517" lon="3.1532767"><ele>49.0</ele><time>2026-04-04T07:41:47.447Z</time></trkpt><trkpt lat="43.4314367" lon="3.1533783"><ele>49.25</ele><time>2026-04-04T07:41:48.446Z</time></trkpt><trkpt lat="43.4315317" lon="3.1534733"><ele>49.5</ele><time>2026-04-04T07:41:49.443Z</time></trkpt><trkpt lat="43.431635" lon="3.1535767"><ele>49.75</ele><time>2026-04-04T07:41:50.443Z</time></trkpt><trkpt lat="43.43174" lon="3.15369"><ele>50.0</ele><time>2026-04-04T07:41:51.443Z</time></trkpt><trkpt lat="43.43185" lon="3.15381"><ele>50.0</ele><time>2026-04-04T07:41:52.442Z</time></trkpt><trkpt lat="43.431965" lon="3.1539333"><ele>50.0</ele><time>2026-04-04T07:41:53.445Z</time></trkpt><trkpt lat="43.432075" lon="3.15406"><ele>50.0</ele><time>2026-04-04T07:41:54.444Z</time></trkpt><trkpt lat="43.4321817" lon="3.1541883"><ele>50.0</ele><time>2026-04-04T07:41:55.444Z</time></trkpt><trkpt lat="43.4322883" lon="3.154315"><ele>49.5</ele><time>2026-04-04T07:41:56.444Z</time></trkpt><trkpt lat="43.4323933" lon="3.15442"><ele>49.0</ele><time>2026-04-04T07:41:57.443Z</time></trkpt><trkpt lat="43.4324917" lon="3.1545033"><ele>48.5</ele><time>2026-04-04T07:41:58.444Z</time></trkpt><trkpt lat="43.4325833" lon="3.1545883"><ele>48.0</ele><time>2026-04-04T07:41:59.444Z</time></trkpt><trkpt lat="43.4326683" lon="3.1546817"><ele>48.0</ele><time>2026-04-04T07:42:00.446Z</time></trkpt><trkpt lat="43.43276" lon="3.1547817"><ele>48.0</ele><time>2026-04-04T07:42:01.444Z</time></trkpt><trkpt lat="43.43286" lon="3.15489"><ele>48.0</ele><time>2026-04-04T07:42:02.446Z</time></trkpt><trkpt lat="43.4329617" lon="3.155"><ele>48.0</ele><time>2026-04-04T07:42:03.442Z</time></trkpt><trkpt lat="43.43306" lon="3.1551083"><ele>47.599999999999994</ele><time>2026-04-04T07:42:04.445Z</time></trkpt><trkpt lat="43.433145" lon="3.155215"><ele>47.199999999999996</ele><time>2026-04-04T07:42:05.444Z</time></trkpt><trkpt lat="43.4332183" lon="3.155325"><ele>46.8</ele><time>2026-04-04T07:42:06.448Z</time></trkpt><trkpt lat="43.43328" lon="3.1554333"><ele>46.4</ele><time>2026-04-04T07:42:07.445Z</time></trkpt><trkpt lat="43.4333383" lon="3.15555"><ele>46.0</ele><time>2026-04-04T07:42:08.443Z</time></trkpt><trkpt lat="43.4333983" lon="3.1556817"><ele>45.5</ele><time>2026-04-04T07:42:09.443Z</time></trkpt><trkpt lat="43.433475" lon="3.1558117"><ele>45.0</ele><time>2026-04-04T07:42:10.444Z</time></trkpt><trkpt lat="43.43356" lon="3.15594"><ele>44.5</ele><time>2026-04-04T07:42:11.445Z</time></trkpt><trkpt lat="43.4336517" lon="3.156075"><ele>44.0</ele><time>2026-04-04T07:42:12.443Z</time></trkpt><trkpt lat="43.4337483" lon="3.15621"><ele>44.25</ele><time>2026-04-04T07:42:13.443Z</time></trkpt><trkpt lat="43.4338383" lon="3.1563483"><ele>44.5</ele><time>2026-04-04T07:42:14.444Z</time></trkpt><trkpt lat="43.4339283" lon="3.1564817"><ele>44.75</ele><time>2026-04-04T07:42:15.444Z</time></trkpt><trkpt lat="43.4340083" lon="3.1566167"><ele>45.0</ele><time>2026-04-04T07:42:16.443Z</time></trkpt><trkpt lat="43.4340783" lon="3.1567483"><ele>45.0</ele><time>2026-04-04T07:42:17.444Z</time></trkpt><trkpt lat="43.4341433" lon="3.1568667"><ele>45.0</ele><time>2026-04-04T07:42:18.444Z</time></trkpt><trkpt lat="43.4342083" lon="3.1569767"><ele>45.0</ele><time>2026-04-04T07:42:19.444Z</time></trkpt><trkpt lat="43.4342733" lon="3.1570733"><ele>45.0</ele><time>2026-04-04T07:42:20.443Z</time></trkpt><trkpt lat="43.4343383" lon="3.1571633"><ele>45.0</ele><time>2026-04-04T07:42:21.444Z</time></trkpt><trkpt lat="43.434405" lon="3.1572633"><ele>44.75</ele><time>2026-04-04T07:42:22.443Z</time></trkpt><trkpt lat="43.4344683" lon="3.157375"><ele>44.5</ele><time>2026-04-04T07:42:23.444Z</time></trkpt><trkpt lat="43.43453" lon="3.1575017"><ele>44.25</ele><time>2026-04-04T07:42:24.444Z</time></trkpt><trkpt lat="43.4346133" lon="3.1576283"><ele>44.0</ele><time>2026-04-04T07:42:25.443Z</time></trkpt><trkpt lat="43.434705" lon="3.1577383"><ele>44.6</ele><time>2026-04-04T07:42:26.443Z</time></trkpt><trkpt lat="43.4348067" lon="3.1578333"><ele>45.2</ele><time>2026-04-04T07:42:27.444Z</time></trkpt><trkpt lat="43.43491" lon="3.15791"><ele>45.800000000000004</ele><time>2026-04-04T07:42:28.445Z</time></trkpt><trkpt lat="43.4350067" lon="3.1579683"><ele>46.400000000000006</ele><time>2026-04-04T07:42:29.445Z</time></trkpt><trkpt lat="43.4350933" lon="3.1580083"><ele>47.0</ele><time>2026-04-04T07:42:30.446Z</time></trkpt><trkpt lat="43.43518" lon="3.15803"><ele>47.0</ele><time>2026-04-04T07:42:31.444Z</time></trkpt><trkpt lat="43.4352717" lon="3.1580367"><ele>47.0</ele><time>2026-04-04T07:42:32.444Z</time></trkpt><trkpt lat="43.4353767" lon="3.1580517"><ele>47.0</ele><time>2026-04-04T07:42:33.444Z</time></trkpt><trkpt lat="43.4354867" lon="3.15807"><ele>47.0</ele><time>2026-04-04T07:42:34.445Z</time></trkpt><trkpt lat="43.4356033" lon="3.1580867"><ele>47.0</ele><time>2026-04-04T07:42:35.443Z</time></trkpt><trkpt lat="43.4357317" lon="3.1580883"><ele>47.25</ele><time>2026-04-04T07:42:36.444Z</time></trkpt><trkpt lat="43.435875" lon="3.1580633"><ele>47.5</ele><time>2026-04-04T07:42:37.444Z</time></trkpt><trkpt lat="43.4360183" lon="3.1580067"><ele>47.75</ele><time>2026-04-04T07:42:38.444Z</time></trkpt><trkpt lat="43.4361567" lon="3.1579233"><ele>48.0</ele><time>2026-04-04T07:42:39.443Z</time></trkpt><trkpt lat="43.4362867" lon="3.157835"><ele>48.25</ele><time>2026-04-04T07:42:40.446Z</time></trkpt><trkpt lat="43.4364067" lon="3.1577717"><ele>48.5</ele><time>2026-04-04T07:42:41.446Z</time></trkpt><trkpt lat="43.436525" lon="3.1577383"><ele>48.75</ele><time>2026-04-04T07:42:42.445Z</time></trkpt><trkpt lat="43.43664" lon="3.157745"><ele>49.0</ele><time>2026-04-04T07:42:43.446Z</time></trkpt><trkpt lat="43.4367633" lon="3.157785"><ele>49.0</ele><time>2026-04-04T07:42:44.446Z</time></trkpt><trkpt lat="43.436895" lon="3.15783"><ele>49.0</ele><time>2026-04-04T07:42:45.446Z</time></trkpt><trkpt lat="43.4370183" lon="3.157855"><ele>49.0</ele><time>2026-04-04T07:42:46.446Z</time></trkpt><trkpt lat="43.437135" lon="3.157855"><ele>49.0</ele><time>2026-04-04T07:42:47.445Z</time></trkpt><trkpt lat="43.43726" lon="3.15783"><ele>49.75</ele><time>2026-04-04T07:42:48.447Z</time></trkpt><trkpt lat="43.4373933" lon="3.15778"><ele>50.5</ele><time>2026-04-04T07:42:49.446Z</time></trkpt><trkpt lat="43.4375367" lon="3.1577267"><ele>51.25</ele><time>2026-04-04T07:42:50.445Z</time></trkpt><trkpt lat="43.4376817" lon="3.15768"><ele>52.0</ele><time>2026-04-04T07:42:51.445Z</time></trkpt><trkpt lat="43.437825" lon="3.1576383"><ele>52.0</ele><time>2026-04-04T07:42:52.445Z</time></trkpt><trkpt lat="43.4379667" lon="3.1575967"><ele>52.0</ele><time>2026-04-04T07:42:53.446Z</time></trkpt><trkpt lat="43.4381117" lon="3.1575633"><ele>52.0</ele><time>2026-04-04T07:42:54.446Z</time></trkpt><trkpt lat="43.4382533" lon="3.15754"><ele>52.0</ele><time>2026-04-04T07:42:55.446Z</time></trkpt><trkpt lat="43.4383833" lon="3.157525"><ele>53.0</ele><time>2026-04-04T07:42:56.443Z</time></trkpt><trkpt lat="43.4384967" lon="3.1575183"><ele>54.0</ele><time>2026-04-04T07:42:57.444Z</time></trkpt><trkpt lat="43.438605" lon="3.157515"><ele>55.0</ele><time>2026-04-04T07:42:58.446Z</time></trkpt><trkpt lat="43.4387067" lon="3.1575133"><ele>56.0</ele><time>2026-04-04T07:42:59.446Z</time></trkpt><trkpt lat="43.4387917" lon="3.1575033"><ele>57.0</ele><time>2026-04-04T07:43:00.445Z</time></trkpt><trkpt lat="43.4388683" lon="3.1574983"><ele>57.333333333333336</ele><time>2026-04-04T07:43:01.444Z</time></trkpt><trkpt lat="43.4389433" lon="3.1574967"><ele>57.66666666666667</ele><time>2026-04-04T07:43:02.443Z</time></trkpt><trkpt lat="43.439015" lon="3.1574933"><ele>58.0</ele><time>2026-04-04T07:43:03.443Z</time></trkpt><trkpt lat="43.4390933" lon="3.1574817"><ele>58.333333333333336</ele><time>2026-04-04T07:43:04.443Z</time></trkpt><trkpt lat="43.4391783" lon="3.1574633"><ele>58.66666666666667</ele><time>2026-04-04T07:43:05.443Z</time></trkpt><trkpt lat="43.4392717" lon="3.1574383"><ele>59.0</ele><time>2026-04-04T07:43:06.445Z</time></trkpt><trkpt lat="43.43937" lon="3.1574017"><ele>59.0</ele><time>2026-04-04T07:43:07.444Z</time></trkpt><trkpt lat="43.4394733" lon="3.1573583"><ele>59.00000000000001</ele><time>2026-04-04T07:43:08.443Z</time></trkpt><trkpt lat="43.4395833" lon="3.1573167"><ele>59.00000000000001</ele><time>2026-04-04T07:43:09.443Z</time></trkpt><trkpt lat="43.4396917" lon="3.1572817"><ele>59.0</ele><time>2026-04-04T07:43:10.445Z</time></trkpt><trkpt lat="43.43978" lon="3.157265"><ele>59.0</ele><time>2026-04-04T07:43:11.445Z</time></trkpt><trkpt lat="43.4398883" lon="3.1572733"><ele>59.5</ele><time>2026-04-04T07:43:13.444Z</time></trkpt><trkpt lat="43.439935" lon="3.157365"><ele>60.0</ele><time>2026-04-04T07:43:15.443Z</time></trkpt><trkpt lat="43.4398933" lon="3.1576067"><ele>60.5</ele><time>2026-04-04T07:43:17.446Z</time></trkpt><trkpt lat="43.4398767" lon="3.1577633"><ele>61.0</ele><time>2026-04-04T07:43:18.447Z</time></trkpt><trkpt lat="43.43984" lon="3.15796"><ele>61.0</ele><time>2026-04-04T07:43:19.444Z</time></trkpt><trkpt lat="43.439805" lon="3.1581583"><ele>61.0</ele><time>2026-04-04T07:43:20.442Z</time></trkpt><trkpt lat="43.43976" lon="3.1583617"><ele>61.0</ele><time>2026-04-04T07:43:21.442Z</time></trkpt><trkpt lat="43.4397033" lon="3.1585683"><ele>60.25</ele><time>2026-04-04T07:43:22.443Z</time></trkpt><trkpt lat="43.4396467" lon="3.15877"><ele>59.5</ele><time>2026-04-04T07:43:23.443Z</time></trkpt><trkpt lat="43.4396017" lon="3.1589433"><ele>58.75</ele><time>2026-04-04T07:43:24.444Z</time></trkpt><trkpt lat="43.439565" lon="3.1590883"><ele>58.0</ele><time>2026-04-04T07:43:25.443Z</time></trkpt><trkpt lat="43.4395517" lon="3.159195"><ele>56.99999999999999</ele><time>2026-04-04T07:43:26.445Z</time></trkpt><trkpt lat="43.4395517" lon="3.1592933"><ele>56.0</ele><time>2026-04-04T07:43:27.443Z</time></trkpt><trkpt lat="43.439575" lon="3.15938"><ele>55.0</ele><time>2026-04-04T07:43:28.444Z</time></trkpt><trkpt lat="43.4396167" lon="3.159465"><ele>54.0</ele><time>2026-04-04T07:43:29.444Z</time></trkpt><trkpt lat="43.4396783" lon="3.1595833"><ele>52.99999999999999</ele><time>2026-04-04T07:43:31.445Z</time></trkpt><trkpt lat="43.4397067" lon="3.1596667"><ele>52.0</ele><time>2026-04-04T07:43:37.445Z</time></trkpt><trkpt lat="43.439685" lon="3.1598033"><ele>52.166666666666664</ele><time>2026-04-04T07:43:39.443Z</time></trkpt><trkpt lat="43.4396767" lon="3.1598983"><ele>52.33333333333333</ele><time>2026-04-04T07:43:40.444Z</time></trkpt><trkpt lat="43.4396667" lon="3.1599933"><ele>52.5</ele><time>2026-04-04T07:43:41.443Z</time></trkpt><trkpt lat="43.4396533" lon="3.1600817"><ele>52.66666666666667</ele><time>2026-04-04T07:43:42.444Z</time></trkpt><trkpt lat="43.4396333" lon="3.1601667"><ele>52.833333333333336</ele><time>2026-04-04T07:43:43.445Z</time></trkpt><trkpt lat="43.4395833" lon="3.1603183"><ele>53.0</ele><time>2026-04-04T07:43:45.442Z</time></trkpt><trkpt lat="43.439525" lon="3.1604233"><ele>52.8</ele><time>2026-04-04T07:43:47.443Z</time></trkpt><trkpt lat="43.4395583" lon="3.1603417"><ele>52.599999999999994</ele><time>2026-04-04T07:43:52.447Z</time></trkpt><trkpt lat="43.4395883" lon="3.1601833"><ele>52.400000000000006</ele><time>2026-04-04T07:43:54.446Z</time></trkpt><trkpt lat="43.4396167" lon="3.1600617"><ele>52.2</ele><time>2026-04-04T07:43:55.446Z</time></trkpt><trkpt lat="43.4396333" lon="3.1599217"><ele>52.0</ele><time>2026-04-04T07:43:56.443Z</time></trkpt><trkpt lat="43.4396467" lon="3.1597783"><ele>52.0</ele><time>2026-04-04T07:43:57.446Z</time></trkpt><trkpt lat="43.439665" lon="3.159655"><ele>52.0</ele><time>2026-04-04T07:43:58.444Z</time></trkpt><trkpt lat="43.4396867" lon="3.159545"><ele>52.0</ele><time>2026-04-04T07:43:59.446Z</time></trkpt><trkpt lat="43.4397333" lon="3.159465"><ele>52.0</ele><time>2026-04-04T07:44:01.443Z</time></trkpt><trkpt lat="43.439835" lon="3.1595967"><ele>52.0</ele><time>2026-04-04T07:44:03.444Z</time></trkpt><trkpt lat="43.4399183" lon="3.159695"><ele>52.0</ele><time>2026-04-04T07:44:04.445Z</time></trkpt><trkpt lat="43.4400167" lon="3.1598117"><ele>52.0</ele><time>2026-04-04T07:44:05.443Z</time></trkpt><trkpt lat="43.4401333" lon="3.1599367"><ele>52.0</ele><time>2026-04-04T07:44:06.445Z</time></trkpt><trkpt lat="43.4402683" lon="3.1600617"><ele>52.0</ele><time>2026-04-04T07:44:07.447Z</time></trkpt><trkpt lat="43.4404033" lon="3.1601717"><ele>53.25</ele><time>2026-04-04T07:44:08.444Z</time></trkpt><trkpt lat="43.4405317" lon="3.1602683"><ele>54.5</ele><time>2026-04-04T07:44:09.444Z</time></trkpt><trkpt lat="43.4406617" lon="3.160365"><ele>55.75</ele><time>2026-04-04T07:44:10.443Z</time></trkpt><trkpt lat="43.440795" lon="3.16046"><ele>57.0</ele><time>2026-04-04T07:44:11.445Z</time></trkpt><trkpt lat="43.4409333" lon="3.1605617"><ele>57.0</ele><time>2026-04-04T07:44:12.443Z</time></trkpt><trkpt lat="43.441075" lon="3.16068"><ele>57.0</ele><time>2026-04-04T07:44:13.445Z</time></trkpt><trkpt lat="43.4412133" lon="3.1608"><ele>57.0</ele><time>2026-04-04T07:44:14.445Z</time></trkpt><trkpt lat="43.4413483" lon="3.1609083"><ele>56.75</ele><time>2026-04-04T07:44:15.442Z</time></trkpt><trkpt lat="43.441475" lon="3.1610133"><ele>56.5</ele><time>2026-04-04T07:44:16.443Z</time></trkpt><trkpt lat="43.4415967" lon="3.16112"><ele>56.25</ele><time>2026-04-04T07:44:17.444Z</time></trkpt><trkpt lat="43.4417267" lon="3.16124"><ele>56.0</ele><time>2026-04-04T07:44:18.446Z</time></trkpt><trkpt lat="43.441865" lon="3.161355"><ele>56.0</ele><time>2026-04-04T07:44:19.444Z</time></trkpt><trkpt lat="43.4420017" lon="3.1614683"><ele>56.0</ele><time>2026-04-04T07:44:20.443Z</time></trkpt><trkpt lat="43.4421333" lon="3.1615833"><ele>56.0</ele><time>2026-04-04T07:44:21.443Z</time></trkpt><trkpt lat="43.4422617" lon="3.1617033"><ele>56.333333333333336</ele><time>2026-04-04T07:44:22.444Z</time></trkpt><trkpt lat="43.4423917" lon="3.1618217"><ele>56.66666666666667</ele><time>2026-04-04T07:44:23.444Z</time></trkpt><trkpt lat="43.44253" lon="3.1619383"><ele>57.0</ele><time>2026-04-04T07:44:24.443Z</time></trkpt><trkpt lat="43.44267" lon="3.1620517"><ele>57.0</ele><time>2026-04-04T07:44:25.444Z</time></trkpt><trkpt lat="43.4428083" lon="3.1621533"><ele>57.0</ele><time>2026-04-04T07:44:26.447Z</time></trkpt><trkpt lat="43.4429533" lon="3.1622417"><ele>57.0</ele><time>2026-04-04T07:44:27.446Z</time></trkpt><trkpt lat="43.443105" lon="3.16232"><ele>56.33333333333333</ele><time>2026-04-04T07:44:28.446Z</time></trkpt><trkpt lat="43.4432567" lon="3.1623883"><ele>55.666666666666664</ele><time>2026-04-04T07:44:29.446Z</time></trkpt><trkpt lat="43.4434117" lon="3.16246"><ele>55.0</ele><time>2026-04-04T07:44:30.446Z</time></trkpt><trkpt lat="43.4435683" lon="3.1625267"><ele>55.0</ele><time>2026-04-04T07:44:31.443Z</time></trkpt><trkpt lat="43.443725" lon="3.1625867"><ele>55.0</ele><time>2026-04-04T07:44:32.446Z</time></trkpt><trkpt lat="43.4438833" lon="3.1626483"><ele>55.0</ele><time>2026-04-04T07:44:33.444Z</time></trkpt><trkpt lat="43.4440367" lon="3.1627133"><ele>55.25</ele><time>2026-04-04T07:44:34.444Z</time></trkpt><trkpt lat="43.444185" lon="3.1627783"><ele>55.5</ele><time>2026-04-04T07:44:35.447Z</time></trkpt><trkpt lat="43.444315" lon="3.1628383"><ele>55.75</ele><time>2026-04-04T07:44:36.447Z</time></trkpt><trkpt lat="43.444425" lon="3.1628883"><ele>56.0</ele><time>2026-04-04T07:44:37.446Z</time></trkpt><trkpt lat="43.4445167" lon="3.1629267"><ele>56.0</ele><time>2026-04-04T07:44:38.444Z</time></trkpt><trkpt lat="43.4445867" lon="3.162955"><ele>55.99999999999999</ele><time>2026-04-04T07:44:39.445Z</time></trkpt><trkpt lat="43.4446833" lon="3.1629817"><ele>55.99999999999999</ele><time>2026-04-04T07:44:41.445Z</time></trkpt><trkpt lat="43.444805" lon="3.1630417"><ele>56.0</ele><time>2026-04-04T07:44:43.444Z</time></trkpt><trkpt lat="43.4448867" lon="3.163085"><ele>56.0</ele><time>2026-04-04T07:44:44.446Z</time></trkpt><trkpt lat="43.4449817" lon="3.1631317"><ele>56.0</ele><time>2026-04-04T07:44:45.445Z</time></trkpt><trkpt lat="43.44509" lon="3.163175"><ele>56.0</ele><time>2026-04-04T07:44:46.444Z</time></trkpt><trkpt lat="43.44521" lon="3.1632217"><ele>56.0</ele><time>2026-04-04T07:44:47.444Z</time></trkpt><trkpt lat="43.4453417" lon="3.16327"><ele>56.0</ele><time>2026-04-04T07:44:48.444Z</time></trkpt><trkpt lat="43.4454833" lon="3.1633233"><ele>55.75</ele><time>2026-04-04T07:44:49.448Z</time></trkpt><trkpt lat="43.4456283" lon="3.1633833"><ele>55.5</ele><time>2026-04-04T07:44:50.443Z</time></trkpt><trkpt lat="43.4457633" lon="3.163435"><ele>55.25</ele><time>2026-04-04T07:44:51.444Z</time></trkpt><trkpt lat="43.4458883" lon="3.1634783"><ele>55.0</ele><time>2026-04-04T07:44:52.443Z</time></trkpt><trkpt lat="43.446" lon="3.1635267"><ele>55.0</ele><time>2026-04-04T07:44:53.446Z</time></trkpt><trkpt lat="43.4460917" lon="3.1635933"><ele>55.0</ele><time>2026-04-04T07:44:54.444Z</time></trkpt><trkpt lat="43.4461767" lon="3.163685"><ele>55.0</ele><time>2026-04-04T07:44:55.443Z</time></trkpt><trkpt lat="43.44627" lon="3.1638017"><ele>55.0</ele><time>2026-04-04T07:44:56.446Z</time></trkpt><trkpt lat="43.4463667" lon="3.1639267"><ele>54.8</ele><time>2026-04-04T07:44:57.446Z</time></trkpt><trkpt lat="43.4464667" lon="3.16404"><ele>54.6</ele><time>2026-04-04T07:44:58.447Z</time></trkpt><trkpt lat="43.4465583" lon="3.164125"><ele>54.400000000000006</ele><time>2026-04-04T07:44:59.446Z</time></trkpt><trkpt lat="43.4466467" lon="3.1641783"><ele>54.2</ele><time>2026-04-04T07:45:00.443Z</time></trkpt><trkpt lat="43.446745" lon="3.1642067"><ele>54.0</ele><time>2026-04-04T07:45:01.446Z</time></trkpt><trkpt lat="43.44686" lon="3.1642133"><ele>54.0</ele><time>2026-04-04T07:45:02.443Z</time></trkpt><trkpt lat="43.446965" lon="3.1642217"><ele>54.00000000000001</ele><time>2026-04-04T07:45:03.444Z</time></trkpt><trkpt lat="43.4470567" lon="3.16426"><ele>54.00000000000001</ele><time>2026-04-04T07:45:04.444Z</time></trkpt><trkpt lat="43.447135" lon="3.164335"><ele>54.0</ele><time>2026-04-04T07:45:05.444Z</time></trkpt><trkpt lat="43.447205" lon="3.1644417"><ele>54.0</ele><time>2026-04-04T07:45:06.443Z</time></trkpt><trkpt lat="43.447275" lon="3.1645817"><ele>54.0</ele><time>2026-04-04T07:45:07.443Z</time></trkpt><trkpt lat="43.4473517" lon="3.164705"><ele>54.00000000000001</ele><time>2026-04-04T07:45:08.443Z</time></trkpt><trkpt lat="43.44743" lon="3.1648133"><ele>54.00000000000001</ele><time>2026-04-04T07:45:09.443Z</time></trkpt><trkpt lat="43.4475033" lon="3.1649117"><ele>54.0</ele><time>2026-04-04T07:45:10.444Z</time></trkpt><trkpt lat="43.447575" lon="3.165005"><ele>54.0</ele><time>2026-04-04T07:45:11.446Z</time></trkpt><trkpt lat="43.4476367" lon="3.165095"><ele>53.833333333333336</ele><time>2026-04-04T07:45:12.446Z</time></trkpt><trkpt lat="43.4476883" lon="3.1651867"><ele>53.66666666666667</ele><time>2026-04-04T07:45:13.446Z</time></trkpt><trkpt lat="43.4477333" lon="3.1652867"><ele>53.5</ele><time>2026-04-04T07:45:14.446Z</time></trkpt><trkpt lat="43.4477717" lon="3.1654017"><ele>53.333333333333336</ele><time>2026-04-04T07:45:15.443Z</time></trkpt><trkpt lat="43.4478083" lon="3.165515"><ele>53.16666666666667</ele><time>2026-04-04T07:45:16.447Z</time></trkpt><trkpt lat="43.4478517" lon="3.1656067"><ele>53.0</ele><time>2026-04-04T07:45:17.442Z</time></trkpt><trkpt lat="43.4479017" lon="3.1656867"><ele>53.0</ele><time>2026-04-04T07:45:18.444Z</time></trkpt><trkpt lat="43.4479567" lon="3.165745"><ele>53.0</ele><time>2026-04-04T07:45:19.443Z</time></trkpt><trkpt lat="43.4480667" lon="3.1657917"><ele>53.0</ele><time>2026-04-04T07:45:21.445Z</time></trkpt><trkpt lat="43.4482" lon="3.165725"><ele>53.0</ele><time>2026-04-04T07:45:23.443Z</time></trkpt><trkpt lat="43.448305" lon="3.1656833"><ele>53.0</ele><time>2026-04-04T07:45:24.444Z</time></trkpt><trkpt lat="43.4484233" lon="3.1656433"><ele>53.25</ele><time>2026-04-04T07:45:25.447Z</time></trkpt><trkpt lat="43.4485517" lon="3.165595"><ele>53.5</ele><time>2026-04-04T07:45:26.446Z</time></trkpt><trkpt lat="43.4486733" lon="3.1655517"><ele>53.75</ele><time>2026-04-04T07:45:27.444Z</time></trkpt><trkpt lat="43.4487967" lon="3.1655083"><ele>54.0</ele><time>2026-04-04T07:45:28.445Z</time></trkpt><trkpt lat="43.448925" lon="3.16547"><ele>54.0</ele><time>2026-04-04T07:45:29.444Z</time></trkpt><trkpt lat="43.4490467" lon="3.1654467"><ele>54.00000000000001</ele><time>2026-04-04T07:45:30.445Z</time></trkpt><trkpt lat="43.44916" lon="3.1654383"><ele>54.00000000000001</ele><time>2026-04-04T07:45:31.443Z</time></trkpt><trkpt lat="43.4492667" lon="3.16544"><ele>54.0</ele><time>2026-04-04T07:45:32.443Z</time></trkpt><trkpt lat="43.4493683" lon="3.1654533"><ele>54.0</ele><time>2026-04-04T07:45:33.443Z</time></trkpt><trkpt lat="43.449475" lon="3.1654733"><ele>54.0</ele><time>2026-04-04T07:45:34.445Z</time></trkpt><trkpt lat="43.44959" lon="3.1654933"><ele>54.0</ele><time>2026-04-04T07:45:35.444Z</time></trkpt><trkpt lat="43.4497033" lon="3.165525"><ele>54.0</ele><time>2026-04-04T07:45:36.444Z</time></trkpt><trkpt lat="43.44982" lon="3.1655683"><ele>54.0</ele><time>2026-04-04T07:45:37.446Z</time></trkpt><trkpt lat="43.4499417" lon="3.1656167"><ele>54.5</ele><time>2026-04-04T07:45:38.445Z</time></trkpt><trkpt lat="43.4500717" lon="3.165675"><ele>55.0</ele><time>2026-04-04T07:45:39.444Z</time></trkpt><trkpt lat="43.4502" lon="3.1657167"><ele>55.5</ele><time>2026-04-04T07:45:40.447Z</time></trkpt><trkpt lat="43.4503333" lon="3.16576"><ele>56.0</ele><time>2026-04-04T07:45:41.443Z</time></trkpt><trkpt lat="43.4504633" lon="3.1658017"><ele>56.25</ele><time>2026-04-04T07:45:42.443Z</time></trkpt><trkpt lat="43.45059" lon="3.1658617"><ele>56.5</ele><time>2026-04-04T07:45:43.443Z</time></trkpt><trkpt lat="43.4507133" lon="3.16594"><ele>56.75</ele><time>2026-04-04T07:45:44.444Z</time></trkpt><trkpt lat="43.45085" lon="3.1660217"><ele>57.0</ele><time>2026-04-04T07:45:45.445Z</time></trkpt><trkpt lat="43.4509933" lon="3.1660917"><ele>57.0</ele><time>2026-04-04T07:45:46.443Z</time></trkpt><trkpt lat="43.451145" lon="3.1661567"><ele>57.0</ele><time>2026-04-04T07:45:47.444Z</time></trkpt><trkpt lat="43.4512933" lon="3.1662283"><ele>57.0</ele><time>2026-04-04T07:45:48.444Z</time></trkpt><trkpt lat="43.45144" lon="3.1663017"><ele>57.66666666666667</ele><time>2026-04-04T07:45:49.444Z</time></trkpt><trkpt lat="43.4515833" lon="3.1663817"><ele>58.333333333333336</ele><time>2026-04-04T07:45:50.444Z</time></trkpt><trkpt lat="43.4517283" lon="3.166465"><ele>59.0</ele><time>2026-04-04T07:45:51.444Z</time></trkpt><trkpt lat="43.4518733" lon="3.1665483"><ele>59.25</ele><time>2026-04-04T07:45:52.445Z</time></trkpt><trkpt lat="43.452015" lon="3.16663"><ele>59.5</ele><time>2026-04-04T07:45:53.443Z</time></trkpt><trkpt lat="43.4521483" lon="3.1667017"><ele>59.75</ele><time>2026-04-04T07:45:54.444Z</time></trkpt><trkpt lat="43.4522767" lon="3.1667633"><ele>60.0</ele><time>2026-04-04T07:45:55.444Z</time></trkpt><trkpt lat="43.4524033" lon="3.1668217"><ele>60.5</ele><time>2026-04-04T07:45:56.445Z</time></trkpt><trkpt lat="43.4525283" lon="3.1668767"><ele>61.0</ele><time>2026-04-04T07:45:57.443Z</time></trkpt><trkpt lat="43.4526533" lon="3.166935"><ele>61.5</ele><time>2026-04-04T07:45:58.445Z</time></trkpt><trkpt lat="43.4527767" lon="3.1669967"><ele>62.0</ele><time>2026-04-04T07:45:59.444Z</time></trkpt><trkpt lat="43.4529067" lon="3.1670583"><ele>62.25</ele><time>2026-04-04T07:46:00.445Z</time></trkpt><trkpt lat="43.4530383" lon="3.1671167"><ele>62.5</ele><time>2026-04-04T07:46:01.443Z</time></trkpt><trkpt lat="43.4531767" lon="3.1671833"><ele>62.75</ele><time>2026-04-04T07:46:02.446Z</time></trkpt><trkpt lat="43.4533167" lon="3.1672567"><ele>63.0</ele><time>2026-04-04T07:46:03.443Z</time></trkpt><trkpt lat="43.45346" lon="3.1673317"><ele>63.33333333333333</ele><time>2026-04-04T07:46:04.444Z</time></trkpt><trkpt lat="43.4536033" lon="3.1674017"><ele>63.666666666666664</ele><time>2026-04-04T07:46:05.444Z</time></trkpt><trkpt lat="43.4537483" lon="3.1674767"><ele>64.0</ele><time>2026-04-04T07:46:06.443Z</time></trkpt><trkpt lat="43.4538967" lon="3.1675517"><ele>64.0</ele><time>2026-04-04T07:46:07.443Z</time></trkpt><trkpt lat="43.454045" lon="3.1676217"><ele>64.0</ele><time>2026-04-04T07:46:08.444Z</time></trkpt><trkpt lat="43.4541983" lon="3.1676817"><ele>64.0</ele><time>2026-04-04T07:46:09.445Z</time></trkpt><trkpt lat="43.4543617" lon="3.1677333"><ele>64.0</ele><time>2026-04-04T07:46:10.444Z</time></trkpt><trkpt lat="43.45453" lon="3.1677767"><ele>64.0</ele><time>2026-04-04T07:46:11.445Z</time></trkpt><trkpt lat="43.4547" lon="3.1678133"><ele>64.0</ele><time>2026-04-04T07:46:12.443Z</time></trkpt><trkpt lat="43.4548717" lon="3.1678483"><ele>64.0</ele><time>2026-04-04T07:46:13.445Z</time></trkpt><trkpt lat="43.4550433" lon="3.1678817"><ele>64.0</ele><time>2026-04-04T07:46:14.443Z</time></trkpt><trkpt lat="43.4552133" lon="3.1679167"><ele>64.0</ele><time>2026-04-04T07:46:15.444Z</time></trkpt><trkpt lat="43.4553833" lon="3.1679583"><ele>64.0</ele><time>2026-04-04T07:46:16.443Z</time></trkpt><trkpt lat="43.4555483" lon="3.1680117"><ele>64.0</ele><time>2026-04-04T07:46:17.442Z</time></trkpt><trkpt lat="43.455715" lon="3.1680667"><ele>64.0</ele><time>2026-04-04T07:46:18.444Z</time></trkpt><trkpt lat="43.45588" lon="3.1681267"><ele>64.66666666666666</ele><time>2026-04-04T07:46:19.444Z</time></trkpt><trkpt lat="43.4560417" lon="3.168195"><ele>65.33333333333333</ele><time>2026-04-04T07:46:20.443Z</time></trkpt><trkpt lat="43.4562033" lon="3.1682733"><ele>66.0</ele><time>2026-04-04T07:46:21.444Z</time></trkpt><trkpt lat="43.4563667" lon="3.16836"><ele>66.0</ele><time>2026-04-04T07:46:22.444Z</time></trkpt><trkpt lat="43.4565283" lon="3.1684433"><ele>66.0</ele><time>2026-04-04T07:46:23.447Z</time></trkpt><trkpt lat="43.45669" lon="3.1685283"><ele>66.0</ele><time>2026-04-04T07:46:24.443Z</time></trkpt><trkpt lat="43.45685" lon="3.1686167"><ele>66.0</ele><time>2026-04-04T07:46:25.444Z</time></trkpt><trkpt lat="43.4570083" lon="3.1686883"><ele>66.0</ele><time>2026-04-04T07:46:26.443Z</time></trkpt><trkpt lat="43.45717" lon="3.16874"><ele>66.0</ele><time>2026-04-04T07:46:27.444Z</time></trkpt><trkpt lat="43.457335" lon="3.168765"><ele>66.66666666666667</ele><time>2026-04-04T07:46:28.444Z</time></trkpt><trkpt lat="43.457505" lon="3.1687783"><ele>67.33333333333334</ele><time>2026-04-04T07:46:29.445Z</time></trkpt><trkpt lat="43.457675" lon="3.1687883"><ele>68.0</ele><time>2026-04-04T07:46:30.445Z</time></trkpt><trkpt lat="43.457845" lon="3.1688017"><ele>68.66666666666667</ele><time>2026-04-04T07:46:31.444Z</time></trkpt><trkpt lat="43.458015" lon="3.1688183"><ele>69.33333333333333</ele><time>2026-04-04T07:46:32.446Z</time></trkpt><trkpt lat="43.458185" lon="3.168835"><ele>70.0</ele><time>2026-04-04T07:46:33.445Z</time></trkpt><trkpt lat="43.4583467" lon="3.16885"><ele>70.0</ele><time>2026-04-04T07:46:34.445Z</time></trkpt><trkpt lat="43.4584983" lon="3.1688667"><ele>70.0</ele><time>2026-04-04T07:46:35.443Z</time></trkpt><trkpt lat="43.4586433" lon="3.1688983"><ele>70.0</ele><time>2026-04-04T07:46:36.443Z</time></trkpt><trkpt lat="43.4587917" lon="3.16896"><ele>70.33333333333333</ele><time>2026-04-04T07:46:37.445Z</time></trkpt><trkpt lat="43.4589417" lon="3.169055"><ele>70.66666666666667</ele><time>2026-04-04T07:46:38.444Z</time></trkpt><trkpt lat="43.45909" lon="3.1691717"><ele>71.0</ele><time>2026-04-04T07:46:39.445Z</time></trkpt><trkpt lat="43.4592333" lon="3.1692983"><ele>71.0</ele><time>2026-04-04T07:46:40.445Z</time></trkpt><trkpt lat="43.45937" lon="3.1694317"><ele>71.0</ele><time>2026-04-04T07:46:41.444Z</time></trkpt><trkpt lat="43.45951" lon="3.1695583"><ele>71.0</ele><time>2026-04-04T07:46:42.443Z</time></trkpt><trkpt lat="43.4596567" lon="3.1696817"><ele>71.0</ele><time>2026-04-04T07:46:43.444Z</time></trkpt><trkpt lat="43.4598067" lon="3.1697967"><ele>71.0</ele><time>2026-04-04T07:46:44.445Z</time></trkpt><trkpt lat="43.4599617" lon="3.1698967"><ele>71.0</ele><time>2026-04-04T07:46:45.443Z</time></trkpt><trkpt lat="43.460125" lon="3.1699817"><ele>71.0</ele><time>2026-04-04T07:46:46.443Z</time></trkpt><trkpt lat="43.460285" lon="3.17007"><ele>71.0</ele><time>2026-04-04T07:46:47.443Z</time></trkpt><trkpt lat="43.4604483" lon="3.1701567"><ele>71.0</ele><time>2026-04-04T07:46:48.444Z</time></trkpt><trkpt lat="43.4606083" lon="3.1702433"><ele>70.66666666666667</ele><time>2026-04-04T07:46:49.445Z</time></trkpt><trkpt lat="43.4607683" lon="3.1703317"><ele>70.33333333333333</ele><time>2026-04-04T07:46:50.443Z</time></trkpt><trkpt lat="43.4609267" lon="3.17042"><ele>70.0</ele><time>2026-04-04T07:46:51.443Z</time></trkpt><trkpt lat="43.4610833" lon="3.1705083"><ele>70.0</ele><time>2026-04-04T07:46:52.444Z</time></trkpt><trkpt lat="43.4612417" lon="3.1705983"><ele>70.0</ele><time>2026-04-04T07:46:53.445Z</time></trkpt><trkpt lat="43.4614017" lon="3.17069"><ele>70.0</ele><time>2026-04-04T07:46:54.443Z</time></trkpt><trkpt lat="43.4615617" lon="3.17078"><ele>70.33333333333333</ele><time>2026-04-04T07:46:55.444Z</time></trkpt><trkpt lat="43.4617217" lon="3.1708667"><ele>70.66666666666667</ele><time>2026-04-04T07:46:56.447Z</time></trkpt><trkpt lat="43.4618817" lon="3.1709433"><ele>71.0</ele><time>2026-04-04T07:46:57.443Z</time></trkpt><trkpt lat="43.4620417" lon="3.1710183"><ele>71.0</ele><time>2026-04-04T07:46:58.445Z</time></trkpt><trkpt lat="43.4621967" lon="3.1710883"><ele>71.0</ele><time>2026-04-04T07:46:59.445Z</time></trkpt><trkpt lat="43.4623517" lon="3.1711583"><ele>71.0</ele><time>2026-04-04T07:47:00.446Z</time></trkpt><trkpt lat="43.4625067" lon="3.1712217"><ele>71.0</ele><time>2026-04-04T07:47:01.444Z</time></trkpt><trkpt lat="43.46265" lon="3.1712783"><ele>71.0</ele><time>2026-04-04T07:47:02.445Z</time></trkpt><trkpt lat="43.462785" lon="3.1713283"><ele>71.0</ele><time>2026-04-04T07:47:03.442Z</time></trkpt><trkpt lat="43.4629033" lon="3.1713867"><ele>71.0</ele><time>2026-04-04T07:47:04.442Z</time></trkpt><trkpt lat="43.4630067" lon="3.171465"><ele>71.5</ele><time>2026-04-04T07:47:05.443Z</time></trkpt><trkpt lat="43.4630983" lon="3.17157"><ele>72.0</ele><time>2026-04-04T07:47:06.443Z</time></trkpt><trkpt lat="43.4631883" lon="3.1716917"><ele>72.5</ele><time>2026-04-04T07:47:07.443Z</time></trkpt><trkpt lat="43.4632883" lon="3.17182"><ele>73.0</ele><time>2026-04-04T07:47:08.444Z</time></trkpt><trkpt lat="43.4633933" lon="3.1719667"><ele>73.0</ele><time>2026-04-04T07:47:09.444Z</time></trkpt><trkpt lat="43.4635033" lon="3.172125"><ele>73.0</ele><time>2026-04-04T07:47:10.443Z</time></trkpt><trkpt lat="43.4636167" lon="3.17229"><ele>73.0</ele><time>2026-04-04T07:47:11.444Z</time></trkpt><trkpt lat="43.4637267" lon="3.172455"><ele>74.33333333333333</ele><time>2026-04-04T07:47:12.443Z</time></trkpt><trkpt lat="43.46384" lon="3.1726267"><ele>75.66666666666667</ele><time>2026-04-04T07:47:13.445Z</time></trkpt><trkpt lat="43.4639533" lon="3.172805"><ele>77.0</ele><time>2026-04-04T07:47:14.442Z</time></trkpt><trkpt lat="43.4640683" lon="3.1729817"><ele>77.0</ele><time>2026-04-04T07:47:15.443Z</time></trkpt><trkpt lat="43.4641783" lon="3.1731483"><ele>77.0</ele><time>2026-04-04T07:47:16.443Z</time></trkpt><trkpt lat="43.46429" lon="3.173305"><ele>77.0</ele><time>2026-04-04T07:47:17.443Z</time></trkpt><trkpt lat="43.4644017" lon="3.17346"><ele>76.33333333333334</ele><time>2026-04-04T07:47:18.443Z</time></trkpt><trkpt lat="43.464515" lon="3.1736117"><ele>75.66666666666667</ele><time>2026-04-04T07:47:19.443Z</time></trkpt><trkpt lat="43.4646283" lon="3.1737633"><ele>75.0</ele><time>2026-04-04T07:47:20.443Z</time></trkpt><trkpt lat="43.464735" lon="3.1739167"><ele>76.66666666666667</ele><time>2026-04-04T07:47:21.445Z</time></trkpt><trkpt lat="43.4648367" lon="3.1740717"><ele>78.33333333333334</ele><time>2026-04-04T07:47:22.443Z</time></trkpt><trkpt lat="43.464935" lon="3.17423"><ele>80.0</ele><time>2026-04-04T07:47:23.444Z</time></trkpt><trkpt lat="43.4650317" lon="3.17439"><ele>80.0</ele><time>2026-04-04T07:47:24.444Z</time></trkpt><trkpt lat="43.4651267" lon="3.174555"><ele>80.0</ele><time>2026-04-04T07:47:25.445Z</time></trkpt><trkpt lat="43.4652217" lon="3.1747183"><ele>80.0</ele><time>2026-04-04T07:47:26.447Z</time></trkpt><trkpt lat="43.46532" lon="3.174885"><ele>80.75</ele><time>2026-04-04T07:47:27.444Z</time></trkpt><trkpt lat="43.4654133" lon="3.175055"><ele>81.5</ele><time>2026-04-04T07:47:28.443Z</time></trkpt><trkpt lat="43.4655033" lon="3.1752217"><ele>82.25</ele><time>2026-04-04T07:47:29.448Z</time></trkpt><trkpt lat="43.4655917" lon="3.1753767"><ele>83.0</ele><time>2026-04-04T07:47:30.447Z</time></trkpt><trkpt lat="43.465675" lon="3.1755217"><ele>84.0</ele><time>2026-04-04T07:47:31.444Z</time></trkpt><trkpt lat="43.4657517" lon="3.1756567"><ele>85.0</ele><time>2026-04-04T07:47:32.446Z</time></trkpt><trkpt lat="43.4658233" lon="3.175785"><ele>86.0</ele><time>2026-04-04T07:47:33.446Z</time></trkpt><trkpt lat="43.4658967" lon="3.175915"><ele>87.0</ele><time>2026-04-04T07:47:34.445Z</time></trkpt><trkpt lat="43.4659717" lon="3.17605"><ele>87.0</ele><time>2026-04-04T07:47:35.442Z</time></trkpt><trkpt lat="43.4660467" lon="3.1761917"><ele>87.0</ele><time>2026-04-04T07:47:36.444Z</time></trkpt><trkpt lat="43.4661283" lon="3.1763367"><ele>87.0</ele><time>2026-04-04T07:47:37.444Z</time></trkpt><trkpt lat="43.466215" lon="3.17648"><ele>87.0</ele><time>2026-04-04T07:47:38.443Z</time></trkpt><trkpt lat="43.4663017" lon="3.1766217"><ele>89.25</ele><time>2026-04-04T07:47:39.443Z</time></trkpt><trkpt lat="43.4663883" lon="3.1767617"><ele>91.5</ele><time>2026-04-04T07:47:40.445Z</time></trkpt><trkpt lat="43.466475" lon="3.1768917"><ele>93.75</ele><time>2026-04-04T07:47:41.446Z</time></trkpt><trkpt lat="43.4665683" lon="3.1770117"><ele>96.0</ele><time>2026-04-04T07:47:42.446Z</time></trkpt><trkpt lat="43.4666617" lon="3.1771267"><ele>96.0</ele><time>2026-04-04T07:47:43.446Z</time></trkpt><trkpt lat="43.466755" lon="3.177245"><ele>96.0</ele><time>2026-04-04T07:47:44.442Z</time></trkpt><trkpt lat="43.4668483" lon="3.1773583"><ele>96.0</ele><time>2026-04-04T07:47:45.443Z</time></trkpt><trkpt lat="43.466945" lon="3.1774583"><ele>96.0</ele><time>2026-04-04T07:47:46.443Z</time></trkpt><trkpt lat="43.4670317" lon="3.1775583"><ele>96.19999999999999</ele><time>2026-04-04T07:47:47.442Z</time></trkpt><trkpt lat="43.4671067" lon="3.1776517"><ele>96.39999999999999</ele><time>2026-04-04T07:47:48.442Z</time></trkpt><trkpt lat="43.4671667" lon="3.177745"><ele>96.6</ele><time>2026-04-04T07:47:49.442Z</time></trkpt><trkpt lat="43.4672117" lon="3.1778433"><ele>96.8</ele><time>2026-04-04T07:47:50.444Z</time></trkpt><trkpt lat="43.4672467" lon="3.1779533"><ele>97.0</ele><time>2026-04-04T07:47:51.443Z</time></trkpt><trkpt lat="43.46727" lon="3.178075"><ele>98.0</ele><time>2026-04-04T07:47:52.444Z</time></trkpt><trkpt lat="43.4673" lon="3.1782"><ele>99.0</ele><time>2026-04-04T07:47:53.444Z</time></trkpt><trkpt lat="43.4673433" lon="3.178335"><ele>100.0</ele><time>2026-04-04T07:47:54.443Z</time></trkpt><trkpt lat="43.4673967" lon="3.1784717"><ele>101.0</ele><time>2026-04-04T07:47:55.443Z</time></trkpt><trkpt lat="43.4674517" lon="3.1786067"><ele>102.0</ele><time>2026-04-04T07:47:56.442Z</time></trkpt><trkpt lat="43.4675117" lon="3.1787417"><ele>102.0</ele><time>2026-04-04T07:47:57.442Z</time></trkpt><trkpt lat="43.4675967" lon="3.1788533"><ele>102.0</ele><time>2026-04-04T07:47:58.443Z</time></trkpt><trkpt lat="43.4676817" lon="3.17896"><ele>102.0</ele><time>2026-04-04T07:47:59.444Z</time></trkpt><trkpt lat="43.46776" lon="3.179065"><ele>102.0</ele><time>2026-04-04T07:48:00.443Z</time></trkpt><trkpt lat="43.4678333" lon="3.17917"><ele>102.0</ele><time>2026-04-04T07:48:01.444Z</time></trkpt><trkpt lat="43.4679" lon="3.1792783"><ele>102.6</ele><time>2026-04-04T07:48:02.444Z</time></trkpt><trkpt lat="43.4679583" lon="3.17939"><ele>103.19999999999999</ele><time>2026-04-04T07:48:03.444Z</time></trkpt><trkpt lat="43.4680233" lon="3.1794933"><ele>103.8</ele><time>2026-04-04T07:48:04.443Z</time></trkpt><trkpt lat="43.4680817" lon="3.1795933"><ele>104.4</ele><time>2026-04-04T07:48:05.443Z</time></trkpt><trkpt lat="43.4681467" lon="3.179675"><ele>105.0</ele><time>2026-04-04T07:48:06.443Z</time></trkpt><trkpt lat="43.4682033" lon="3.1797567"><ele>105.0</ele><time>2026-04-04T07:48:07.443Z</time></trkpt><trkpt lat="43.46826" lon="3.1798283"><ele>105.0</ele><time>2026-04-04T07:48:08.443Z</time></trkpt><trkpt lat="43.468355" lon="3.179925"><ele>105.0</ele><time>2026-04-04T07:48:10.444Z</time></trkpt><trkpt lat="43.4684183" lon="3.179935"><ele>105.0</ele><time>2026-04-04T07:48:11.444Z</time></trkpt><trkpt lat="43.4684833" lon="3.179915"><ele>105.0</ele><time>2026-04-04T07:48:12.444Z</time></trkpt><trkpt lat="43.4685483" lon="3.17988"><ele>105.0</ele><time>2026-04-04T07:48:13.444Z</time></trkpt><trkpt lat="43.4686083" lon="3.1798367"><ele>105.0</ele><time>2026-04-04T07:48:14.443Z</time></trkpt><trkpt lat="43.4686733" lon="3.1798083"><ele>105.0</ele><time>2026-04-04T07:48:15.443Z</time></trkpt><trkpt lat="43.4687383" lon="3.1797983"><ele>105.0</ele><time>2026-04-04T07:48:16.448Z</time></trkpt><trkpt lat="43.4688083" lon="3.1798"><ele>105.0</ele><time>2026-04-04T07:48:17.445Z</time></trkpt><trkpt lat="43.4688883" lon="3.1798317"><ele>105.0</ele><time>2026-04-04T07:48:18.446Z</time></trkpt><trkpt lat="43.468975" lon="3.17991"><ele>105.0</ele><time>2026-04-04T07:48:19.446Z</time></trkpt><trkpt lat="43.4690617" lon="3.179995"><ele>104.0</ele><time>2026-04-04T07:48:20.443Z</time></trkpt><trkpt lat="43.4691417" lon="3.1800783"><ele>103.0</ele><time>2026-04-04T07:48:21.445Z</time></trkpt><trkpt lat="43.4692117" lon="3.18016"><ele>102.0</ele><time>2026-04-04T07:48:22.443Z</time></trkpt><trkpt lat="43.4692783" lon="3.1802317"><ele>101.0</ele><time>2026-04-04T07:48:23.443Z</time></trkpt><trkpt lat="43.4693417" lon="3.1803233"><ele>100.0</ele><time>2026-04-04T07:48:24.444Z</time></trkpt><trkpt lat="43.46941" lon="3.1804167"><ele>100.0</ele><time>2026-04-04T07:48:25.443Z</time></trkpt><trkpt lat="43.4694833" lon="3.1805167"><ele>100.0</ele><time>2026-04-04T07:48:26.444Z</time></trkpt><trkpt lat="43.4695617" lon="3.1806167"><ele>100.0</ele><time>2026-04-04T07:48:27.444Z</time></trkpt><trkpt lat="43.46964" lon="3.180715"><ele>100.0</ele><time>2026-04-04T07:48:28.444Z</time></trkpt><trkpt lat="43.4697167" lon="3.180815"><ele>100.0</ele><time>2026-04-04T07:48:29.446Z</time></trkpt><trkpt lat="43.469795" lon="3.1809117"><ele>100.8</ele><time>2026-04-04T07:48:30.445Z</time></trkpt><trkpt lat="43.4698783" lon="3.1810067"><ele>101.6</ele><time>2026-04-04T07:48:31.445Z</time></trkpt><trkpt lat="43.46996" lon="3.1811017"><ele>102.4</ele><time>2026-04-04T07:48:32.442Z</time></trkpt><trkpt lat="43.4700367" lon="3.1812083"><ele>103.2</ele><time>2026-04-04T07:48:33.442Z</time></trkpt><trkpt lat="43.4701117" lon="3.18132"><ele>104.0</ele><time>2026-04-04T07:48:34.444Z</time></trkpt><trkpt lat="43.47019" lon="3.1814333"><ele>104.2</ele><time>2026-04-04T07:48:35.443Z</time></trkpt><trkpt lat="43.4702717" lon="3.1815233"><ele>104.4</ele><time>2026-04-04T07:48:36.443Z</time></trkpt><trkpt lat="43.470375" lon="3.1816067"><ele>104.6</ele><time>2026-04-04T07:48:37.444Z</time></trkpt><trkpt lat="43.4704667" lon="3.1816867"><ele>104.8</ele><time>2026-04-04T07:48:38.443Z</time></trkpt><trkpt lat="43.4705517" lon="3.1817783"><ele>105.0</ele><time>2026-04-04T07:48:39.444Z</time></trkpt><trkpt lat="43.4706367" lon="3.1818717"><ele>105.25</ele><time>2026-04-04T07:48:40.442Z</time></trkpt><trkpt lat="43.4707233" lon="3.18196"><ele>105.5</ele><time>2026-04-04T07:48:41.443Z</time></trkpt><trkpt lat="43.4708217" lon="3.1820317"><ele>105.75</ele><time>2026-04-04T07:48:42.444Z</time></trkpt><trkpt lat="43.4709283" lon="3.182085"><ele>106.0</ele><time>2026-04-04T07:48:43.445Z</time></trkpt><trkpt lat="43.47104" lon="3.182135"><ele>106.0</ele><time>2026-04-04T07:48:44.443Z</time></trkpt><trkpt lat="43.4711517" lon="3.1821817"><ele>106.0</ele><time>2026-04-04T07:48:45.443Z</time></trkpt><trkpt lat="43.4712633" lon="3.1822367"><ele>106.0</ele><time>2026-04-04T07:48:46.442Z</time></trkpt><trkpt lat="43.471375" lon="3.1822933"><ele>106.0</ele><time>2026-04-04T07:48:47.443Z</time></trkpt><trkpt lat="43.47149" lon="3.1823483"><ele>107.5</ele><time>2026-04-04T07:48:48.443Z</time></trkpt><trkpt lat="43.4716067" lon="3.1823967"><ele>109.0</ele><time>2026-04-04T07:48:49.447Z</time></trkpt><trkpt lat="43.471725" lon="3.1824517"><ele>110.5</ele><time>2026-04-04T07:48:50.446Z</time></trkpt><trkpt lat="43.4718483" lon="3.1825083"><ele>112.0</ele><time>2026-04-04T07:48:51.446Z</time></trkpt><trkpt lat="43.4719767" lon="3.1825733"><ele>112.5</ele><time>2026-04-04T07:48:52.446Z</time></trkpt><trkpt lat="43.4721067" lon="3.1826417"><ele>113.0</ele><time>2026-04-04T07:48:53.447Z</time></trkpt><trkpt lat="43.4722383" lon="3.1827067"><ele>113.5</ele><time>2026-04-04T07:48:54.447Z</time></trkpt><trkpt lat="43.4723733" lon="3.1827683"><ele>114.0</ele><time>2026-04-04T07:48:55.443Z</time></trkpt><trkpt lat="43.4725133" lon="3.18283"><ele>114.0</ele><time>2026-04-04T07:48:56.447Z</time></trkpt><trkpt lat="43.4726617" lon="3.1828783"><ele>114.0</ele><time>2026-04-04T07:48:57.446Z</time></trkpt><trkpt lat="43.4728183" lon="3.182905"><ele>114.0</ele><time>2026-04-04T07:48:58.444Z</time></trkpt><trkpt lat="43.4729817" lon="3.18291"><ele>114.33333333333334</ele><time>2026-04-04T07:48:59.444Z</time></trkpt><trkpt lat="43.4731467" lon="3.1828917"><ele>114.66666666666667</ele><time>2026-04-04T07:49:00.446Z</time></trkpt><trkpt lat="43.473305" lon="3.182855"><ele>115.0</ele><time>2026-04-04T07:49:01.443Z</time></trkpt><trkpt lat="43.4734567" lon="3.1828167"><ele>115.0</ele><time>2026-04-04T07:49:02.443Z</time></trkpt><trkpt lat="43.4735983" lon="3.18278"><ele>115.0</ele><time>2026-04-04T07:49:03.443Z</time></trkpt><trkpt lat="43.47373" lon="3.1827467"><ele>115.0</ele><time>2026-04-04T07:49:04.443Z</time></trkpt><trkpt lat="43.4738517" lon="3.1827167"><ele>115.0</ele><time>2026-04-04T07:49:05.444Z</time></trkpt><trkpt lat="43.473955" lon="3.1826917"><ele>115.6</ele><time>2026-04-04T07:49:06.443Z</time></trkpt><trkpt lat="43.4740317" lon="3.1826783"><ele>116.2</ele><time>2026-04-04T07:49:07.444Z</time></trkpt><trkpt lat="43.4741217" lon="3.1827283"><ele>116.80000000000001</ele><time>2026-04-04T07:49:09.443Z</time></trkpt><trkpt lat="43.474145" lon="3.1828183"><ele>117.4</ele><time>2026-04-04T07:49:10.443Z</time></trkpt><trkpt lat="43.4741633" lon="3.1829617"><ele>118.0</ele><time>2026-04-04T07:49:11.443Z</time></trkpt><trkpt lat="43.474195" lon="3.183135"><ele>117.4</ele><time>2026-04-04T07:49:12.443Z</time></trkpt><trkpt lat="43.4742317" lon="3.183315"><ele>116.80000000000001</ele><time>2026-04-04T07:49:13.443Z</time></trkpt><trkpt lat="43.4742617" lon="3.18348"><ele>116.2</ele><time>2026-04-04T07:49:14.444Z</time></trkpt><trkpt lat="43.4742833" lon="3.1835983"><ele>115.6</ele><time>2026-04-04T07:49:15.443Z</time></trkpt><trkpt lat="43.4742933" lon="3.1836967"><ele>115.0</ele><time>2026-04-04T07:49:16.444Z</time></trkpt><trkpt lat="43.4742317" lon="3.1838433"><ele>115.0</ele><time>2026-04-04T07:49:18.443Z</time></trkpt><trkpt lat="43.4741917" lon="3.1839883"><ele>115.0</ele><time>2026-04-04T07:49:20.444Z</time></trkpt><trkpt lat="43.47425" lon="3.1841417"><ele>115.0</ele><time>2026-04-04T07:49:22.443Z</time></trkpt><trkpt lat="43.4742967" lon="3.18423"><ele>115.0</ele><time>2026-04-04T07:49:23.443Z</time></trkpt><trkpt lat="43.4743633" lon="3.1843383"><ele>115.0</ele><time>2026-04-04T07:49:24.443Z</time></trkpt><trkpt lat="43.47447" lon="3.1844867"><ele>116.0</ele><time>2026-04-04T07:49:25.445Z</time></trkpt><trkpt lat="43.4745717" lon="3.1846517"><ele>117.0</ele><time>2026-04-04T07:49:26.45Z</time></trkpt><trkpt lat="43.4746733" lon="3.1848083"><ele>118.0</ele><time>2026-04-04T07:49:27.442Z</time></trkpt><trkpt lat="43.4747717" lon="3.1849783"><ele>120.0</ele><time>2026-04-04T07:49:28.446Z</time></trkpt><trkpt lat="43.474865" lon="3.1851517"><ele>122.0</ele><time>2026-04-04T07:49:29.446Z</time></trkpt><trkpt lat="43.4749583" lon="3.1853167"><ele>124.0</ele><time>2026-04-04T07:49:30.445Z</time></trkpt><trkpt lat="43.4750567" lon="3.1854767"><ele>124.0</ele><time>2026-04-04T07:49:31.443Z</time></trkpt><trkpt lat="43.47515" lon="3.1856267"><ele>124.0</ele><time>2026-04-04T07:49:32.443Z</time></trkpt><trkpt lat="43.4752333" lon="3.1857667"><ele>124.0</ele><time>2026-04-04T07:49:33.445Z</time></trkpt><trkpt lat="43.4753017" lon="3.1859083"><ele>124.0</ele><time>2026-04-04T07:49:34.443Z</time></trkpt><trkpt lat="43.4753617" lon="3.1860633"><ele>124.75</ele><time>2026-04-04T07:49:35.443Z</time></trkpt><trkpt lat="43.4754183" lon="3.1862317"><ele>125.5</ele><time>2026-04-04T07:49:36.444Z</time></trkpt><trkpt lat="43.475475" lon="3.18641"><ele>126.25</ele><time>2026-04-04T07:49:37.444Z</time></trkpt><trkpt lat="43.4755417" lon="3.1865883"><ele>127.0</ele><time>2026-04-04T07:49:38.443Z</time></trkpt><trkpt lat="43.4756133" lon="3.1867617"><ele>128.0</ele><time>2026-04-04T07:49:39.444Z</time></trkpt><trkpt lat="43.4756733" lon="3.1869117"><ele>129.0</ele><time>2026-04-04T07:49:40.443Z</time></trkpt><trkpt lat="43.4757133" lon="3.1870233"><ele>130.0</ele><time>2026-04-04T07:49:41.444Z</time></trkpt><trkpt lat="43.4757433" lon="3.1871033"><ele>131.0</ele><time>2026-04-04T07:49:42.443Z</time></trkpt><trkpt lat="43.4758033" lon="3.18714"><ele>132.0</ele><time>2026-04-04T07:49:44.443Z</time></trkpt><trkpt lat="43.475895" lon="3.1870567"><ele>132.0</ele><time>2026-04-04T07:49:46.443Z</time></trkpt><trkpt lat="43.4759683" lon="3.1869733"><ele>132.0</ele><time>2026-04-04T07:49:47.443Z</time></trkpt><trkpt lat="43.47607" lon="3.1868533"><ele>132.0</ele><time>2026-04-04T07:49:48.443Z</time></trkpt><trkpt lat="43.4761867" lon="3.1866767"><ele>132.0</ele><time>2026-04-04T07:49:49.444Z</time></trkpt><trkpt lat="43.47629" lon="3.18649"><ele>131.66666666666666</ele><time>2026-04-04T07:49:50.446Z</time></trkpt><trkpt lat="43.4763817" lon="3.186295"><ele>131.33333333333331</ele><time>2026-04-04T07:49:51.446Z</time></trkpt><trkpt lat="43.47647" lon="3.1860933"><ele>131.0</ele><time>2026-04-04T07:49:52.447Z</time></trkpt><trkpt lat="43.4765617" lon="3.1859267"><ele>131.0</ele><time>2026-04-04T07:49:53.442Z</time></trkpt><trkpt lat="43.4766567" lon="3.1857817"><ele>131.0</ele><time>2026-04-04T07:49:54.444Z</time></trkpt><trkpt lat="43.4767567" lon="3.185635"><ele>131.0</ele><time>2026-04-04T07:49:55.444Z</time></trkpt><trkpt lat="43.47686" lon="3.1854733"><ele>131.0</ele><time>2026-04-04T07:49:56.446Z</time></trkpt><trkpt lat="43.4769717" lon="3.18531"><ele>131.33333333333331</ele><time>2026-04-04T07:49:57.446Z</time></trkpt><trkpt lat="43.477085" lon="3.1851467"><ele>131.66666666666666</ele><time>2026-04-04T07:49:58.446Z</time></trkpt><trkpt lat="43.4771883" lon="3.18499"><ele>132.0</ele><time>2026-04-04T07:49:59.445Z</time></trkpt><trkpt lat="43.47729" lon="3.1848367"><ele>132.0</ele><time>2026-04-04T07:50:00.446Z</time></trkpt><trkpt lat="43.477385" lon="3.1846883"><ele>132.0</ele><time>2026-04-04T07:50:01.443Z</time></trkpt><trkpt lat="43.4774717" lon="3.1845517"><ele>132.0</ele><time>2026-04-04T07:50:02.446Z</time></trkpt><trkpt lat="43.4775533" lon="3.184425"><ele>132.0</ele><time>2026-04-04T07:50:03.446Z</time></trkpt><trkpt lat="43.4776267" lon="3.1842917"><ele>132.0</ele><time>2026-04-04T07:50:04.446Z</time></trkpt><trkpt lat="43.4777017" lon="3.1841433"><ele>132.0</ele><time>2026-04-04T07:50:05.447Z</time></trkpt><trkpt lat="43.4777883" lon="3.18399"><ele>132.0</ele><time>2026-04-04T07:50:06.446Z</time></trkpt><trkpt lat="43.4778817" lon="3.1838417"><ele>132.0</ele><time>2026-04-04T07:50:07.447Z</time></trkpt><trkpt lat="43.4779767" lon="3.1836883"><ele>132.0</ele><time>2026-04-04T07:50:08.442Z</time></trkpt><trkpt lat="43.478065" lon="3.1835233"><ele>132.0</ele><time>2026-04-04T07:50:09.446Z</time></trkpt><trkpt lat="43.478155" lon="3.183355"><ele>132.0</ele><time>2026-04-04T07:50:10.442Z</time></trkpt><trkpt lat="43.4782383" lon="3.1831967"><ele>132.0</ele><time>2026-04-04T07:50:11.443Z</time></trkpt><trkpt lat="43.4783183" lon="3.1830267"><ele>130.66666666666666</ele><time>2026-04-04T07:50:12.446Z</time></trkpt><trkpt lat="43.4783883" lon="3.1828467"><ele>129.33333333333331</ele><time>2026-04-04T07:50:13.446Z</time></trkpt><trkpt lat="43.4784633" lon="3.18265"><ele>128.0</ele><time>2026-04-04T07:50:14.446Z</time></trkpt><trkpt lat="43.4785367" lon="3.18246"><ele>127.5</ele><time>2026-04-04T07:50:15.445Z</time></trkpt><trkpt lat="43.4786067" lon="3.1822833"><ele>127.0</ele><time>2026-04-04T07:50:16.445Z</time></trkpt><trkpt lat="43.4786817" lon="3.1821117"><ele>126.5</ele><time>2026-04-04T07:50:17.445Z</time></trkpt><trkpt lat="43.478755" lon="3.1819567"><ele>126.0</ele><time>2026-04-04T07:50:18.447Z</time></trkpt><trkpt lat="43.478815" lon="3.18182"><ele>126.0</ele><time>2026-04-04T07:50:19.446Z</time></trkpt><trkpt lat="43.4788583" lon="3.1817083"><ele>126.0</ele><time>2026-04-04T07:50:20.445Z</time></trkpt><trkpt lat="43.4788883" lon="3.1816183"><ele>126.0</ele><time>2026-04-04T07:50:21.446Z</time></trkpt><trkpt lat="43.4789367" lon="3.1815183"><ele>126.0</ele><time>2026-04-04T07:50:23.442Z</time></trkpt><trkpt lat="43.4790433" lon="3.1814533"><ele>126.0</ele><time>2026-04-04T07:50:25.445Z</time></trkpt><trkpt lat="43.479125" lon="3.18142"><ele>125.66666666666666</ele><time>2026-04-04T07:50:26.444Z</time></trkpt><trkpt lat="43.4792483" lon="3.181385"><ele>125.33333333333333</ele><time>2026-04-04T07:50:27.447Z</time></trkpt><trkpt lat="43.4794367" lon="3.181365"><ele>125.0</ele><time>2026-04-04T07:50:28.446Z</time></trkpt><trkpt lat="43.4796217" lon="3.1813267"><ele>125.0</ele><time>2026-04-04T07:50:29.445Z</time></trkpt><trkpt lat="43.479825" lon="3.18129"><ele>125.0</ele><time>2026-04-04T07:50:30.448Z</time></trkpt><trkpt lat="43.4800283" lon="3.18124"><ele>125.0</ele><time>2026-04-04T07:50:31.443Z</time></trkpt><trkpt lat="43.4802433" lon="3.1811717"><ele>122.5</ele><time>2026-04-04T07:50:32.443Z</time></trkpt><trkpt lat="43.4804683" lon="3.18109"><ele>120.0</ele><time>2026-04-04T07:50:33.444Z</time></trkpt><trkpt lat="43.4806883" lon="3.1810083"><ele>120.0</ele><time>2026-04-04T07:50:34.444Z</time></trkpt><trkpt lat="43.480905" lon="3.180925"><ele>120.0</ele><time>2026-04-04T07:50:35.446Z</time></trkpt><trkpt lat="43.4811133" lon="3.18083"><ele>120.0</ele><time>2026-04-04T07:50:36.444Z</time></trkpt><trkpt lat="43.4813217" lon="3.1807217"><ele>120.0</ele><time>2026-04-04T07:50:37.446Z</time></trkpt><trkpt lat="43.481535" lon="3.1806117"><ele>120.0</ele><time>2026-04-04T07:50:38.443Z</time></trkpt><trkpt lat="43.4817483" lon="3.1804983"><ele>120.0</ele><time>2026-04-04T07:50:39.445Z</time></trkpt><trkpt lat="43.48196" lon="3.1803767"><ele>120.0</ele><time>2026-04-04T07:50:40.446Z</time></trkpt><trkpt lat="43.4821733" lon="3.18025"><ele>119.0</ele><time>2026-04-04T07:50:41.442Z</time></trkpt><trkpt lat="43.4823833" lon="3.1801167"><ele>118.0</ele><time>2026-04-04T07:50:42.446Z</time></trkpt><trkpt lat="43.4825833" lon="3.1799717"><ele>118.0</ele><time>2026-04-04T07:50:43.443Z</time></trkpt><trkpt lat="43.48278" lon="3.1798133"><ele>118.0</ele><time>2026-04-04T07:50:44.443Z</time></trkpt><trkpt lat="43.48297" lon="3.1796433"><ele>116.66666666666667</ele><time>2026-04-04T07:50:45.443Z</time></trkpt><trkpt lat="43.4831517" lon="3.1794667"><ele>115.33333333333334</ele><time>2026-04-04T07:50:46.445Z</time></trkpt><trkpt lat="43.4833267" lon="3.1792917"><ele>114.0</ele><time>2026-04-04T07:50:47.443Z</time></trkpt><trkpt lat="43.4835" lon="3.1791267"><ele>114.66666666666666</ele><time>2026-04-04T07:50:48.446Z</time></trkpt><trkpt lat="43.483685" lon="3.1789833"><ele>115.33333333333333</ele><time>2026-04-04T07:50:49.447Z</time></trkpt><trkpt lat="43.4838783" lon="3.178865"><ele>116.0</ele><time>2026-04-04T07:50:50.445Z</time></trkpt><trkpt lat="43.4840867" lon="3.1787733"><ele>114.66666666666666</ele><time>2026-04-04T07:50:51.445Z</time></trkpt><trkpt lat="43.4842983" lon="3.17869"><ele>113.33333333333334</ele><time>2026-04-04T07:50:52.447Z</time></trkpt><trkpt lat="43.4845117" lon="3.1786067"><ele>112.0</ele><time>2026-04-04T07:50:53.446Z</time></trkpt><trkpt lat="43.484725" lon="3.178515"><ele>111.0</ele><time>2026-04-04T07:50:54.447Z</time></trkpt><trkpt lat="43.4849367" lon="3.1784117"><ele>110.0</ele><time>2026-04-04T07:50:55.446Z</time></trkpt><trkpt lat="43.48514" lon="3.1782917"><ele>109.0</ele><time>2026-04-04T07:50:56.446Z</time></trkpt><trkpt lat="43.4853417" lon="3.178165"><ele>109.5</ele><time>2026-04-04T07:50:57.445Z</time></trkpt><trkpt lat="43.4855483" lon="3.1780383"><ele>110.0</ele><time>2026-04-04T07:50:58.446Z</time></trkpt><trkpt lat="43.48576" lon="3.17792"><ele>110.0</ele><time>2026-04-04T07:50:59.445Z</time></trkpt><trkpt lat="43.485975" lon="3.1778117"><ele>110.0</ele><time>2026-04-04T07:51:00.448Z</time></trkpt><trkpt lat="43.4861917" lon="3.1777117"><ele>110.5</ele><time>2026-04-04T07:51:01.446Z</time></trkpt><trkpt lat="43.4864117" lon="3.177625"><ele>111.0</ele><time>2026-04-04T07:51:02.445Z</time></trkpt><trkpt lat="43.4866367" lon="3.1775517"><ele>111.0</ele><time>2026-04-04T07:51:03.445Z</time></trkpt><trkpt lat="43.486865" lon="3.177485"><ele>111.0</ele><time>2026-04-04T07:51:04.447Z</time></trkpt><trkpt lat="43.4870933" lon="3.1774183"><ele>111.0</ele><time>2026-04-04T07:51:05.445Z</time></trkpt><trkpt lat="43.4873217" lon="3.1773533"><ele>111.0</ele><time>2026-04-04T07:51:06.448Z</time></trkpt><trkpt lat="43.48755" lon="3.1772883"><ele>110.0</ele><time>2026-04-04T07:51:07.445Z</time></trkpt><trkpt lat="43.4877767" lon="3.1772283"><ele>109.0</ele><time>2026-04-04T07:51:08.443Z</time></trkpt><trkpt lat="43.488005" lon="3.177185"><ele>109.0</ele><time>2026-04-04T07:51:09.447Z</time></trkpt><trkpt lat="43.4882383" lon="3.177175"><ele>109.0</ele><time>2026-04-04T07:51:10.443Z</time></trkpt><trkpt lat="43.48847" lon="3.1771933"><ele>109.0</ele><time>2026-04-04T07:51:11.443Z</time></trkpt><trkpt lat="43.4887033" lon="3.177235"><ele>109.0</ele><time>2026-04-04T07:51:12.446Z</time></trkpt><trkpt lat="43.4889333" lon="3.1772833"><ele>106.5</ele><time>2026-04-04T07:51:13.443Z</time></trkpt><trkpt lat="43.489165" lon="3.1773233"><ele>104.0</ele><time>2026-04-04T07:51:14.443Z</time></trkpt><trkpt lat="43.4894017" lon="3.1773433"><ele>104.0</ele><time>2026-04-04T07:51:15.443Z</time></trkpt><trkpt lat="43.4896367" lon="3.1773467"><ele>104.0</ele><time>2026-04-04T07:51:16.443Z</time></trkpt><trkpt lat="43.4898683" lon="3.1773367"><ele>104.0</ele><time>2026-04-04T07:51:17.443Z</time></trkpt><trkpt lat="43.4901" lon="3.177315"><ele>104.0</ele><time>2026-04-04T07:51:18.445Z</time></trkpt><trkpt lat="43.4903317" lon="3.177275"><ele>106.5</ele><time>2026-04-04T07:51:19.443Z</time></trkpt><trkpt lat="43.49056" lon="3.1772133"><ele>109.0</ele><time>2026-04-04T07:51:20.442Z</time></trkpt><trkpt lat="43.4907817" lon="3.1771367"><ele>109.0</ele><time>2026-04-04T07:51:21.443Z</time></trkpt><trkpt lat="43.491005" lon="3.1770533"><ele>109.0</ele><time>2026-04-04T07:51:22.443Z</time></trkpt><trkpt lat="43.4912283" lon="3.1769633"><ele>110.0</ele><time>2026-04-04T07:51:23.443Z</time></trkpt><trkpt lat="43.4914483" lon="3.1768683"><ele>111.0</ele><time>2026-04-04T07:51:24.444Z</time></trkpt><trkpt lat="43.4916667" lon="3.17677"><ele>111.0</ele><time>2026-04-04T07:51:25.444Z</time></trkpt><trkpt lat="43.49188" lon="3.1766633"><ele>111.0</ele><time>2026-04-04T07:51:26.443Z</time></trkpt><trkpt lat="43.492085" lon="3.1765483"><ele>111.0</ele><time>2026-04-04T07:51:27.443Z</time></trkpt><trkpt lat="43.4922883" lon="3.1764217"><ele>112.66666666666666</ele><time>2026-04-04T07:51:28.443Z</time></trkpt><trkpt lat="43.4924833" lon="3.17629"><ele>114.33333333333333</ele><time>2026-04-04T07:51:29.443Z</time></trkpt><trkpt lat="43.4926817" lon="3.1761683"><ele>116.0</ele><time>2026-04-04T07:51:30.446Z</time></trkpt><trkpt lat="43.4928883" lon="3.17607"><ele>115.66666666666666</ele><time>2026-04-04T07:51:31.443Z</time></trkpt><trkpt lat="43.4931" lon="3.1759917"><ele>115.33333333333334</ele><time>2026-04-04T07:51:32.444Z</time></trkpt><trkpt lat="43.4933117" lon="3.17593"><ele>115.0</ele><time>2026-04-04T07:51:33.443Z</time></trkpt><trkpt lat="43.4935233" lon="3.175875"><ele>115.0</ele><time>2026-04-04T07:51:34.443Z</time></trkpt><trkpt lat="43.49374" lon="3.1758183"><ele>115.0</ele><time>2026-04-04T07:51:35.446Z</time></trkpt><trkpt lat="43.4939567" lon="3.17576"><ele>115.0</ele><time>2026-04-04T07:51:36.443Z</time></trkpt><trkpt lat="43.4941733" lon="3.1757017"><ele>114.66666666666667</ele><time>2026-04-04T07:51:37.444Z</time></trkpt><trkpt lat="43.494385" lon="3.17564"><ele>114.33333333333334</ele><time>2026-04-04T07:51:38.446Z</time></trkpt><trkpt lat="43.4945933" lon="3.1755733"><ele>114.0</ele><time>2026-04-04T07:51:39.443Z</time></trkpt><trkpt lat="43.4947967" lon="3.1754933"><ele>115.33333333333334</ele><time>2026-04-04T07:51:40.443Z</time></trkpt><trkpt lat="43.4950017" lon="3.175405"><ele>116.66666666666667</ele><time>2026-04-04T07:51:41.443Z</time></trkpt><trkpt lat="43.4952033" lon="3.1753167"><ele>118.0</ele><time>2026-04-04T07:51:42.444Z</time></trkpt><trkpt lat="43.4954017" lon="3.1752233"><ele>119.66666666666667</ele><time>2026-04-04T07:51:43.443Z</time></trkpt><trkpt lat="43.4956" lon="3.1751317"><ele>121.33333333333334</ele><time>2026-04-04T07:51:44.443Z</time></trkpt><trkpt lat="43.495795" lon="3.1750367"><ele>123.0</ele><time>2026-04-04T07:51:45.443Z</time></trkpt><trkpt lat="43.4959883" lon="3.1749383"><ele>123.0</ele><time>2026-04-04T07:51:46.444Z</time></trkpt><trkpt lat="43.496175" lon="3.174835"><ele>123.0</ele><time>2026-04-04T07:51:47.444Z</time></trkpt><trkpt lat="43.49635" lon="3.1747267"><ele>123.0</ele><time>2026-04-04T07:51:48.444Z</time></trkpt><trkpt lat="43.4965083" lon="3.174615"><ele>125.33333333333334</ele><time>2026-04-04T07:51:49.444Z</time></trkpt><trkpt lat="43.496655" lon="3.1745017"><ele>127.66666666666667</ele><time>2026-04-04T07:51:50.443Z</time></trkpt><trkpt lat="43.4967983" lon="3.1743867"><ele>130.0</ele><time>2026-04-04T07:51:51.443Z</time></trkpt><trkpt lat="43.496935" lon="3.17428"><ele>130.0</ele><time>2026-04-04T07:51:52.443Z</time></trkpt><trkpt lat="43.4970667" lon="3.1741783"><ele>130.0</ele><time>2026-04-04T07:51:53.444Z</time></trkpt><trkpt lat="43.497195" lon="3.1740817"><ele>130.0</ele><time>2026-04-04T07:51:54.446Z</time></trkpt><trkpt lat="43.49733" lon="3.173995"><ele>130.0</ele><time>2026-04-04T07:51:55.444Z</time></trkpt><trkpt lat="43.497465" lon="3.17391"><ele>132.33333333333334</ele><time>2026-04-04T07:51:56.443Z</time></trkpt><trkpt lat="43.4976033" lon="3.17383"><ele>134.66666666666666</ele><time>2026-04-04T07:51:57.444Z</time></trkpt><trkpt lat="43.497745" lon="3.1737533"><ele>137.0</ele><time>2026-04-04T07:51:58.445Z</time></trkpt><trkpt lat="43.4978883" lon="3.1736883"><ele>138.0</ele><time>2026-04-04T07:51:59.443Z</time></trkpt><trkpt lat="43.4980317" lon="3.1736367"><ele>139.0</ele><time>2026-04-04T07:52:00.444Z</time></trkpt><trkpt lat="43.4981717" lon="3.173595"><ele>140.0</ele><time>2026-04-04T07:52:01.445Z</time></trkpt><trkpt lat="43.4983067" lon="3.1735567"><ele>141.0</ele><time>2026-04-04T07:52:02.443Z</time></trkpt><trkpt lat="43.4984367" lon="3.173525"><ele>141.0</ele><time>2026-04-04T07:52:03.444Z</time></trkpt><trkpt lat="43.4985617" lon="3.173495"><ele>141.0</ele><time>2026-04-04T07:52:04.443Z</time></trkpt><trkpt lat="43.498685" lon="3.1734667"><ele>141.0</ele><time>2026-04-04T07:52:05.444Z</time></trkpt><trkpt lat="43.4988117" lon="3.1734417"><ele>141.0</ele><time>2026-04-04T07:52:06.443Z</time></trkpt><trkpt lat="43.4989383" lon="3.173415"><ele>142.25</ele><time>2026-04-04T07:52:07.445Z</time></trkpt><trkpt lat="43.49907" lon="3.17339"><ele>143.5</ele><time>2026-04-04T07:52:08.443Z</time></trkpt><trkpt lat="43.499195" lon="3.1733617"><ele>144.75</ele><time>2026-04-04T07:52:09.443Z</time></trkpt><trkpt lat="43.4993117" lon="3.173335"><ele>146.0</ele><time>2026-04-04T07:52:10.444Z</time></trkpt><trkpt lat="43.499405" lon="3.1733133"><ele>146.0</ele><time>2026-04-04T07:52:11.444Z</time></trkpt><trkpt lat="43.4994833" lon="3.1733017"><ele>146.0</ele><time>2026-04-04T07:52:12.443Z</time></trkpt><trkpt lat="43.4995967" lon="3.1732967"><ele>146.0</ele><time>2026-04-04T07:52:14.446Z</time></trkpt><trkpt lat="43.499725" lon="3.1732733"><ele>146.0</ele><time>2026-04-04T07:52:16.443Z</time></trkpt><trkpt lat="43.4998083" lon="3.1732433"><ele>146.0</ele><time>2026-04-04T07:52:17.444Z</time></trkpt><trkpt lat="43.49991" lon="3.1732"><ele>147.5</ele><time>2026-04-04T07:52:18.446Z</time></trkpt><trkpt lat="43.50002" lon="3.1731533"><ele>149.0</ele><time>2026-04-04T07:52:19.444Z</time></trkpt><trkpt lat="43.500135" lon="3.173115"><ele>150.5</ele><time>2026-04-04T07:52:20.443Z</time></trkpt><trkpt lat="43.5002483" lon="3.1730783"><ele>152.0</ele><time>2026-04-04T07:52:21.444Z</time></trkpt><trkpt lat="43.5003633" lon="3.1730367"><ele>153.0</ele><time>2026-04-04T07:52:22.444Z</time></trkpt><trkpt lat="43.5004733" lon="3.1729867"><ele>154.0</ele><time>2026-04-04T07:52:23.447Z</time></trkpt><trkpt lat="43.5005833" lon="3.172935"><ele>155.0</ele><time>2026-04-04T07:52:24.443Z</time></trkpt><trkpt lat="43.5006933" lon="3.1728833"><ele>156.0</ele><time>2026-04-04T07:52:25.444Z</time></trkpt><trkpt lat="43.500805" lon="3.172835"><ele>156.0</ele><time>2026-04-04T07:52:26.443Z</time></trkpt><trkpt lat="43.5009233" lon="3.1727833"><ele>156.0</ele><time>2026-04-04T07:52:27.444Z</time></trkpt><trkpt lat="43.5010467" lon="3.1727367"><ele>156.0</ele><time>2026-04-04T07:52:28.443Z</time></trkpt><trkpt lat="43.5011733" lon="3.172695"><ele>156.0</ele><time>2026-04-04T07:52:29.443Z</time></trkpt><trkpt lat="43.501305" lon="3.1726617"><ele>157.0</ele><time>2026-04-04T07:52:30.447Z</time></trkpt><trkpt lat="43.5014417" lon="3.1726367"><ele>158.0</ele><time>2026-04-04T07:52:31.444Z</time></trkpt><trkpt lat="43.5015883" lon="3.1726183"><ele>159.0</ele><time>2026-04-04T07:52:32.446Z</time></trkpt><trkpt lat="43.5017467" lon="3.1726067"><ele>160.0</ele><time>2026-04-04T07:52:33.443Z</time></trkpt><trkpt lat="43.5019117" lon="3.17259"><ele>160.0</ele><time>2026-04-04T07:52:34.446Z</time></trkpt><trkpt lat="43.50208" lon="3.1725633"><ele>160.0</ele><time>2026-04-04T07:52:35.447Z</time></trkpt><trkpt lat="43.502245" lon="3.1725233"><ele>160.0</ele><time>2026-04-04T07:52:36.445Z</time></trkpt><trkpt lat="43.50241" lon="3.172465"><ele>160.66666666666669</ele><time>2026-04-04T07:52:37.443Z</time></trkpt><trkpt lat="43.5025817" lon="3.172375"><ele>161.33333333333334</ele><time>2026-04-04T07:52:38.445Z</time></trkpt><trkpt lat="43.5027517" lon="3.17226"><ele>162.0</ele><time>2026-04-04T07:52:39.446Z</time></trkpt><trkpt lat="43.5029283" lon="3.1721383"><ele>164.33333333333334</ele><time>2026-04-04T07:52:40.445Z</time></trkpt><trkpt lat="43.503115" lon="3.1720333"><ele>166.66666666666669</ele><time>2026-04-04T07:52:41.446Z</time></trkpt><trkpt lat="43.5033167" lon="3.1719467"><ele>169.0</ele><time>2026-04-04T07:52:42.443Z</time></trkpt><trkpt lat="43.50352" lon="3.1718783"><ele>169.0</ele><time>2026-04-04T07:52:43.444Z</time></trkpt><trkpt lat="43.50372" lon="3.1718233"><ele>169.0</ele><time>2026-04-04T07:52:44.445Z</time></trkpt><trkpt lat="43.5039183" lon="3.17177"><ele>169.0</ele><time>2026-04-04T07:52:45.445Z</time></trkpt><trkpt lat="43.5041133" lon="3.1717133"><ele>170.0</ele><time>2026-04-04T07:52:46.445Z</time></trkpt><trkpt lat="43.504305" lon="3.171645"><ele>171.0</ele><time>2026-04-04T07:52:47.443Z</time></trkpt><trkpt lat="43.504495" lon="3.1715617"><ele>172.0</ele><time>2026-04-04T07:52:48.443Z</time></trkpt><trkpt lat="43.504675" lon="3.171475"><ele>172.33333333333334</ele><time>2026-04-04T07:52:49.444Z</time></trkpt><trkpt lat="43.5048533" lon="3.1714067"><ele>172.66666666666666</ele><time>2026-04-04T07:52:50.443Z</time></trkpt><trkpt lat="43.5050383" lon="3.1713583"><ele>173.0</ele><time>2026-04-04T07:52:51.443Z</time></trkpt><trkpt lat="43.5052317" lon="3.1713283"><ele>171.66666666666666</ele><time>2026-04-04T07:52:52.443Z</time></trkpt><trkpt lat="43.5054317" lon="3.1713117"><ele>170.33333333333334</ele><time>2026-04-04T07:52:53.443Z</time></trkpt><trkpt lat="43.505635" lon="3.1712933"><ele>169.0</ele><time>2026-04-04T07:52:54.444Z</time></trkpt><trkpt lat="43.505835" lon="3.1712583"><ele>169.0</ele><time>2026-04-04T07:52:55.444Z</time></trkpt><trkpt lat="43.5060367" lon="3.171205"><ele>169.0</ele><time>2026-04-04T07:52:56.443Z</time></trkpt><trkpt lat="43.5062383" lon="3.1711333"><ele>169.0</ele><time>2026-04-04T07:52:57.444Z</time></trkpt><trkpt lat="43.5064367" lon="3.1710583"><ele>168.33333333333334</ele><time>2026-04-04T07:52:58.444Z</time></trkpt><trkpt lat="43.5066333" lon="3.170985"><ele>167.66666666666666</ele><time>2026-04-04T07:52:59.447Z</time></trkpt><trkpt lat="43.50683" lon="3.1709067"><ele>167.0</ele><time>2026-04-04T07:53:00.445Z</time></trkpt><trkpt lat="43.5070233" lon="3.1708183"><ele>167.33333333333331</ele><time>2026-04-04T07:53:01.444Z</time></trkpt><trkpt lat="43.5072183" lon="3.170725"><ele>167.66666666666666</ele><time>2026-04-04T07:53:02.443Z</time></trkpt><trkpt lat="43.50741" lon="3.1706283"><ele>168.0</ele><time>2026-04-04T07:53:03.443Z</time></trkpt><trkpt lat="43.5076017" lon="3.170535"><ele>167.33333333333334</ele><time>2026-04-04T07:53:04.445Z</time></trkpt><trkpt lat="43.5077917" lon="3.1704417"><ele>166.66666666666669</ele><time>2026-04-04T07:53:05.445Z</time></trkpt><trkpt lat="43.5079817" lon="3.1703467"><ele>166.0</ele><time>2026-04-04T07:53:06.444Z</time></trkpt><trkpt lat="43.5081717" lon="3.1702467"><ele>166.0</ele><time>2026-04-04T07:53:07.444Z</time></trkpt><trkpt lat="43.50836" lon="3.1701467"><ele>166.0</ele><time>2026-04-04T07:53:08.443Z</time></trkpt><trkpt lat="43.508545" lon="3.1700483"><ele>166.0</ele><time>2026-04-04T07:53:09.443Z</time></trkpt><trkpt lat="43.5087283" lon="3.1699467"><ele>165.66666666666669</ele><time>2026-04-04T07:53:10.446Z</time></trkpt><trkpt lat="43.50891" lon="3.1698467"><ele>165.33333333333334</ele><time>2026-04-04T07:53:11.444Z</time></trkpt><trkpt lat="43.5090867" lon="3.16975"><ele>165.0</ele><time>2026-04-04T07:53:12.443Z</time></trkpt><trkpt lat="43.50927" lon="3.169655"><ele>165.0</ele><time>2026-04-04T07:53:13.443Z</time></trkpt><trkpt lat="43.509455" lon="3.1695567"><ele>165.0</ele><time>2026-04-04T07:53:14.443Z</time></trkpt><trkpt lat="43.5096417" lon="3.1694517"><ele>165.0</ele><time>2026-04-04T07:53:15.443Z</time></trkpt><trkpt lat="43.509825" lon="3.1693383"><ele>165.0</ele><time>2026-04-04T07:53:16.444Z</time></trkpt><trkpt lat="43.5100083" lon="3.1692283"><ele>165.0</ele><time>2026-04-04T07:53:17.443Z</time></trkpt><trkpt lat="43.5101933" lon="3.1691183"><ele>165.0</ele><time>2026-04-04T07:53:18.443Z</time></trkpt><trkpt lat="43.510385" lon="3.1690067"><ele>165.0</ele><time>2026-04-04T07:53:19.443Z</time></trkpt><trkpt lat="43.51058" lon="3.1689083"><ele>165.0</ele><time>2026-04-04T07:53:20.443Z</time></trkpt><trkpt lat="43.510775" lon="3.168825"><ele>165.0</ele><time>2026-04-04T07:53:21.443Z</time></trkpt><trkpt lat="43.510975" lon="3.16876"><ele>165.0</ele><time>2026-04-04T07:53:22.443Z</time></trkpt><trkpt lat="43.511175" lon="3.1687167"><ele>165.0</ele><time>2026-04-04T07:53:23.443Z</time></trkpt><trkpt lat="43.5113733" lon="3.1687033"><ele>165.0</ele><time>2026-04-04T07:53:24.446Z</time></trkpt><trkpt lat="43.5115717" lon="3.1686983"><ele>165.66666666666666</ele><time>2026-04-04T07:53:25.447Z</time></trkpt><trkpt lat="43.51177" lon="3.1686783"><ele>166.33333333333331</ele><time>2026-04-04T07:53:26.446Z</time></trkpt><trkpt lat="43.5119667" lon="3.1686233"><ele>167.0</ele><time>2026-04-04T07:53:27.445Z</time></trkpt><trkpt lat="43.5121617" lon="3.16853"><ele>167.0</ele><time>2026-04-04T07:53:28.445Z</time></trkpt><trkpt lat="43.5123433" lon="3.1684033"><ele>167.0</ele><time>2026-04-04T07:53:29.445Z</time></trkpt><trkpt lat="43.5125183" lon="3.1682583"><ele>167.0</ele><time>2026-04-04T07:53:30.445Z</time></trkpt><trkpt lat="43.5127033" lon="3.1681217"><ele>167.0</ele><time>2026-04-04T07:53:31.444Z</time></trkpt><trkpt lat="43.512895" lon="3.1680033"><ele>167.0</ele><time>2026-04-04T07:53:32.446Z</time></trkpt><trkpt lat="43.513095" lon="3.1678983"><ele>167.0</ele><time>2026-04-04T07:53:33.443Z</time></trkpt><trkpt lat="43.5132967" lon="3.1677983"><ele>169.66666666666666</ele><time>2026-04-04T07:53:34.443Z</time></trkpt><trkpt lat="43.5134933" lon="3.1676967"><ele>172.33333333333334</ele><time>2026-04-04T07:53:35.446Z</time></trkpt><trkpt lat="43.5136917" lon="3.1675967"><ele>175.0</ele><time>2026-04-04T07:53:36.444Z</time></trkpt><trkpt lat="43.5138883" lon="3.1674983"><ele>175.33333333333334</ele><time>2026-04-04T07:53:37.444Z</time></trkpt><trkpt lat="43.514085" lon="3.1674017"><ele>175.66666666666666</ele><time>2026-04-04T07:53:38.444Z</time></trkpt><trkpt lat="43.5142833" lon="3.1673167"><ele>176.0</ele><time>2026-04-04T07:53:39.443Z</time></trkpt><trkpt lat="43.5144767" lon="3.16725"><ele>177.0</ele><time>2026-04-04T07:53:40.444Z</time></trkpt><trkpt lat="43.5146633" lon="3.1672117"><ele>178.0</ele><time>2026-04-04T07:53:41.446Z</time></trkpt><trkpt lat="43.5148533" lon="3.1672083"><ele>179.0</ele><time>2026-04-04T07:53:42.449Z</time></trkpt><trkpt lat="43.5150433" lon="3.1672217"><ele>179.0</ele><time>2026-04-04T07:53:43.446Z</time></trkpt><trkpt lat="43.51524" lon="3.16722"><ele>179.0</ele><time>2026-04-04T07:53:44.443Z</time></trkpt><trkpt lat="43.5154367" lon="3.1671883"><ele>179.0</ele><time>2026-04-04T07:53:45.445Z</time></trkpt><trkpt lat="43.515635" lon="3.1671283"><ele>179.33333333333331</ele><time>2026-04-04T07:53:46.445Z</time></trkpt><trkpt lat="43.51583" lon="3.167045"><ele>179.66666666666666</ele><time>2026-04-04T07:53:47.443Z</time></trkpt><trkpt lat="43.51602" lon="3.1669517"><ele>180.0</ele><time>2026-04-04T07:53:48.445Z</time></trkpt><trkpt lat="43.5162033" lon="3.1668583"><ele>180.66666666666666</ele><time>2026-04-04T07:53:49.444Z</time></trkpt><trkpt lat="43.51638" lon="3.16677"><ele>181.33333333333331</ele><time>2026-04-04T07:53:50.445Z</time></trkpt><trkpt lat="43.5165533" lon="3.1666867"><ele>182.0</ele><time>2026-04-04T07:53:51.444Z</time></trkpt><trkpt lat="43.5167117" lon="3.1665983"><ele>182.25</ele><time>2026-04-04T07:53:52.444Z</time></trkpt><trkpt lat="43.5168467" lon="3.1665"><ele>182.5</ele><time>2026-04-04T07:53:53.444Z</time></trkpt><trkpt lat="43.5169667" lon="3.166385"><ele>182.75</ele><time>2026-04-04T07:53:54.444Z</time></trkpt><trkpt lat="43.5170783" lon="3.1662667"><ele>183.0</ele><time>2026-04-04T07:53:55.445Z</time></trkpt><trkpt lat="43.5171883" lon="3.16615"><ele>181.0</ele><time>2026-04-04T07:53:56.445Z</time></trkpt><trkpt lat="43.5173" lon="3.166035"><ele>179.0</ele><time>2026-04-04T07:53:57.445Z</time></trkpt><trkpt lat="43.51741" lon="3.1659183"><ele>177.0</ele><time>2026-04-04T07:53:58.444Z</time></trkpt><trkpt lat="43.5175083" lon="3.1658067"><ele>175.0</ele><time>2026-04-04T07:53:59.445Z</time></trkpt><trkpt lat="43.5176" lon="3.1657"><ele>176.0</ele><time>2026-04-04T07:54:00.445Z</time></trkpt><trkpt lat="43.5176967" lon="3.1655967"><ele>177.0</ele><time>2026-04-04T07:54:01.446Z</time></trkpt><trkpt lat="43.517795" lon="3.16549"><ele>178.0</ele><time>2026-04-04T07:54:02.442Z</time></trkpt><trkpt lat="43.5178867" lon="3.1653867"><ele>179.0</ele><time>2026-04-04T07:54:03.444Z</time></trkpt><trkpt lat="43.5179833" lon="3.1652917"><ele>176.75</ele><time>2026-04-04T07:54:04.443Z</time></trkpt><trkpt lat="43.5180833" lon="3.1652"><ele>174.5</ele><time>2026-04-04T07:54:05.444Z</time></trkpt><trkpt lat="43.5181883" lon="3.1651167"><ele>172.25</ele><time>2026-04-04T07:54:06.443Z</time></trkpt><trkpt lat="43.5182983" lon="3.1650333"><ele>170.0</ele><time>2026-04-04T07:54:07.444Z</time></trkpt><trkpt lat="43.51841" lon="3.1649583"><ele>170.0</ele><time>2026-04-04T07:54:08.443Z</time></trkpt><trkpt lat="43.5185233" lon="3.1648883"><ele>170.0</ele><time>2026-04-04T07:54:09.443Z</time></trkpt><trkpt lat="43.5186433" lon="3.1648217"><ele>170.0</ele><time>2026-04-04T07:54:10.444Z</time></trkpt><trkpt lat="43.51876" lon="3.1647517"><ele>170.0</ele><time>2026-04-04T07:54:11.443Z</time></trkpt><trkpt lat="43.5188783" lon="3.16468"><ele>170.0</ele><time>2026-04-04T07:54:12.444Z</time></trkpt><trkpt lat="43.518995" lon="3.1646117"><ele>170.0</ele><time>2026-04-04T07:54:13.443Z</time></trkpt><trkpt lat="43.5191067" lon="3.16454"><ele>170.0</ele><time>2026-04-04T07:54:14.445Z</time></trkpt><trkpt lat="43.5192133" lon="3.1644733"><ele>170.0</ele><time>2026-04-04T07:54:15.445Z</time></trkpt><trkpt lat="43.5193117" lon="3.164415"><ele>170.0</ele><time>2026-04-04T07:54:16.444Z</time></trkpt><trkpt lat="43.5194067" lon="3.1643617"><ele>170.0</ele><time>2026-04-04T07:54:17.444Z</time></trkpt><trkpt lat="43.5195" lon="3.164305"><ele>170.0</ele><time>2026-04-04T07:54:18.444Z</time></trkpt><trkpt lat="43.51958" lon="3.16424"><ele>170.0</ele><time>2026-04-04T07:54:19.444Z</time></trkpt><trkpt lat="43.5196517" lon="3.1641617"><ele>170.0</ele><time>2026-04-04T07:54:20.442Z</time></trkpt><trkpt lat="43.51972" lon="3.1640717"><ele>170.0</ele><time>2026-04-04T07:54:21.443Z</time></trkpt><trkpt lat="43.5197867" lon="3.1639783"><ele>170.0</ele><time>2026-04-04T07:54:22.443Z</time></trkpt><trkpt lat="43.5198467" lon="3.1638833"><ele>170.0</ele><time>2026-04-04T07:54:23.444Z</time></trkpt><trkpt lat="43.5199" lon="3.1637917"><ele>170.0</ele><time>2026-04-04T07:54:24.445Z</time></trkpt><trkpt lat="43.5199483" lon="3.1637067"><ele>170.0</ele><time>2026-04-04T07:54:25.446Z</time></trkpt><trkpt lat="43.5199933" lon="3.163625"><ele>170.0</ele><time>2026-04-04T07:54:26.445Z</time></trkpt><trkpt lat="43.5200367" lon="3.16355"><ele>170.0</ele><time>2026-04-04T07:54:27.449Z</time></trkpt><trkpt lat="43.5200817" lon="3.1634833"><ele>170.0</ele><time>2026-04-04T07:54:28.445Z</time></trkpt><trkpt lat="43.52015" lon="3.16339"><ele>170.0</ele><time>2026-04-04T07:54:30.447Z</time></trkpt><trkpt lat="43.5201867" lon="3.1632533"><ele>170.0</ele><time>2026-04-04T07:54:33.443Z</time></trkpt><trkpt lat="43.5201783" lon="3.163155"><ele>170.0</ele><time>2026-04-04T07:54:34.443Z</time></trkpt><trkpt lat="43.52016" lon="3.1630233"><ele>170.0</ele><time>2026-04-04T07:54:35.446Z</time></trkpt><trkpt lat="43.520135" lon="3.162865"><ele>169.6</ele><time>2026-04-04T07:54:36.446Z</time></trkpt><trkpt lat="43.5201133" lon="3.162715"><ele>169.2</ele><time>2026-04-04T07:54:37.443Z</time></trkpt><trkpt lat="43.5200967" lon="3.1625933"><ele>168.8</ele><time>2026-04-04T07:54:38.443Z</time></trkpt><trkpt lat="43.5200817" lon="3.1624917"><ele>168.4</ele><time>2026-04-04T07:54:39.444Z</time></trkpt><trkpt lat="43.520105" lon="3.1623933"><ele>168.0</ele><time>2026-04-04T07:54:41.444Z</time></trkpt><trkpt lat="43.52023" lon="3.1623617"><ele>168.4</ele><time>2026-04-04T07:54:43.444Z</time></trkpt><trkpt lat="43.5203217" lon="3.1623517"><ele>168.8</ele><time>2026-04-04T07:54:44.443Z</time></trkpt><trkpt lat="43.5204183" lon="3.1623333"><ele>169.2</ele><time>2026-04-04T07:54:45.444Z</time></trkpt><trkpt lat="43.5205267" lon="3.1623117"><ele>169.6</ele><time>2026-04-04T07:54:46.444Z</time></trkpt><trkpt lat="43.5206517" lon="3.1622883"><ele>170.0</ele><time>2026-04-04T07:54:47.444Z</time></trkpt><trkpt lat="43.5207917" lon="3.16227"><ele>170.0</ele><time>2026-04-04T07:54:48.443Z</time></trkpt><trkpt lat="43.5209167" lon="3.1622467"><ele>170.0</ele><time>2026-04-04T07:54:49.444Z</time></trkpt><trkpt lat="43.5210233" lon="3.162225"><ele>170.0</ele><time>2026-04-04T07:54:50.444Z</time></trkpt><trkpt lat="43.5211167" lon="3.1622033"><ele>170.0</ele><time>2026-04-04T07:54:51.443Z</time></trkpt><trkpt lat="43.521195" lon="3.1621733"><ele>170.0</ele><time>2026-04-04T07:54:52.444Z</time></trkpt><trkpt lat="43.5212717" lon="3.1621283"><ele>171.16666666666666</ele><time>2026-04-04T07:54:53.443Z</time></trkpt><trkpt lat="43.5213367" lon="3.1620583"><ele>172.33333333333331</ele><time>2026-04-04T07:54:54.444Z</time></trkpt><trkpt lat="43.5213883" lon="3.161955"><ele>173.5</ele><time>2026-04-04T07:54:55.446Z</time></trkpt><trkpt lat="43.5214133" lon="3.1618317"><ele>174.66666666666666</ele><time>2026-04-04T07:54:56.446Z</time></trkpt><trkpt lat="43.5214583" lon="3.16173"><ele>175.83333333333334</ele><time>2026-04-04T07:54:57.446Z</time></trkpt><trkpt lat="43.5215117" lon="3.1616417"><ele>177.0</ele><time>2026-04-04T07:54:58.445Z</time></trkpt><trkpt lat="43.5215817" lon="3.1615667"><ele>175.75</ele><time>2026-04-04T07:54:59.442Z</time></trkpt><trkpt lat="43.5216667" lon="3.1615083"><ele>174.5</ele><time>2026-04-04T07:55:00.444Z</time></trkpt><trkpt lat="43.521775" lon="3.161455"><ele>173.25</ele><time>2026-04-04T07:55:01.445Z</time></trkpt><trkpt lat="43.5218983" lon="3.1613983"><ele>172.0</ele><time>2026-04-04T07:55:02.446Z</time></trkpt><trkpt lat="43.5220267" lon="3.1613417"><ele>172.5</ele><time>2026-04-04T07:55:03.445Z</time></trkpt><trkpt lat="43.52216" lon="3.1612833"><ele>173.0</ele><time>2026-04-04T07:55:04.445Z</time></trkpt><trkpt lat="43.522285" lon="3.1612333"><ele>173.5</ele><time>2026-04-04T07:55:05.445Z</time></trkpt><trkpt lat="43.5224133" lon="3.1611867"><ele>174.0</ele><time>2026-04-04T07:55:06.445Z</time></trkpt><trkpt lat="43.5225433" lon="3.1611417"><ele>174.0</ele><time>2026-04-04T07:55:07.446Z</time></trkpt><trkpt lat="43.52267" lon="3.1611067"><ele>174.0</ele><time>2026-04-04T07:55:08.446Z</time></trkpt><trkpt lat="43.5227933" lon="3.1610783"><ele>174.0</ele><time>2026-04-04T07:55:09.443Z</time></trkpt><trkpt lat="43.5229067" lon="3.1610467"><ele>174.0</ele><time>2026-04-04T07:55:10.449Z</time></trkpt><trkpt lat="43.52301" lon="3.161005"><ele>174.83333333333334</ele><time>2026-04-04T07:55:11.442Z</time></trkpt><trkpt lat="43.5230933" lon="3.1609567"><ele>175.66666666666666</ele><time>2026-04-04T07:55:12.443Z</time></trkpt><trkpt lat="43.5231583" lon="3.1609217"><ele>176.5</ele><time>2026-04-04T07:55:13.446Z</time></trkpt><trkpt lat="43.5232467" lon="3.16089"><ele>177.33333333333331</ele><time>2026-04-04T07:55:15.445Z</time></trkpt><trkpt lat="43.523315" lon="3.16088"><ele>178.16666666666666</ele><time>2026-04-04T07:55:17.445Z</time></trkpt><trkpt lat="43.523405" lon="3.1608683"><ele>179.0</ele><time>2026-04-04T07:55:19.446Z</time></trkpt><trkpt lat="43.52348" lon="3.160845"><ele>179.0</ele><time>2026-04-04T07:55:20.449Z</time></trkpt><trkpt lat="43.5235667" lon="3.1608017"><ele>179.0</ele><time>2026-04-04T07:55:21.447Z</time></trkpt><trkpt lat="43.52366" lon="3.160765"><ele>179.0</ele><time>2026-04-04T07:55:22.446Z</time></trkpt><trkpt lat="43.5237617" lon="3.1607383"><ele>179.0</ele><time>2026-04-04T07:55:23.445Z</time></trkpt><trkpt lat="43.5238467" lon="3.160715"><ele>179.0</ele><time>2026-04-04T07:55:24.445Z</time></trkpt><trkpt lat="43.5239217" lon="3.1606783"><ele>178.79999999999998</ele><time>2026-04-04T07:55:25.446Z</time></trkpt><trkpt lat="43.5239917" lon="3.16062"><ele>178.6</ele><time>2026-04-04T07:55:26.445Z</time></trkpt><trkpt lat="43.5240533" lon="3.1605333"><ele>178.4</ele><time>2026-04-04T07:55:27.445Z</time></trkpt><trkpt lat="43.5241233" lon="3.1604183"><ele>178.2</ele><time>2026-04-04T07:55:28.446Z</time></trkpt><trkpt lat="43.52419" lon="3.1602917"><ele>178.0</ele><time>2026-04-04T07:55:29.446Z</time></trkpt><trkpt lat="43.5242567" lon="3.1601733"><ele>178.0</ele><time>2026-04-04T07:55:30.445Z</time></trkpt><trkpt lat="43.5243267" lon="3.16007"><ele>178.0</ele><time>2026-04-04T07:55:31.447Z</time></trkpt><trkpt lat="43.524415" lon="3.1599767"><ele>178.0</ele><time>2026-04-04T07:55:32.445Z</time></trkpt><trkpt lat="43.524505" lon="3.1598967"><ele>178.0</ele><time>2026-04-04T07:55:33.447Z</time></trkpt><trkpt lat="43.5245983" lon="3.1598317"><ele>178.0</ele><time>2026-04-04T07:55:34.446Z</time></trkpt><trkpt lat="43.5247083" lon="3.159785"><ele>180.0</ele><time>2026-04-04T07:55:35.446Z</time></trkpt><trkpt lat="43.5248283" lon="3.1597667"><ele>182.0</ele><time>2026-04-04T07:55:36.445Z</time></trkpt><trkpt lat="43.5249667" lon="3.1597717"><ele>184.0</ele><time>2026-04-04T07:55:37.446Z</time></trkpt><trkpt lat="43.52511" lon="3.15977"><ele>186.0</ele><time>2026-04-04T07:55:38.445Z</time></trkpt><trkpt lat="43.5252617" lon="3.1597633"><ele>186.25</ele><time>2026-04-04T07:55:39.446Z</time></trkpt><trkpt lat="43.525405" lon="3.15975"><ele>186.5</ele><time>2026-04-04T07:55:40.445Z</time></trkpt><trkpt lat="43.5255267" lon="3.1597133"><ele>186.75</ele><time>2026-04-04T07:55:41.445Z</time></trkpt><trkpt lat="43.5256483" lon="3.1596567"><ele>187.0</ele><time>2026-04-04T07:55:42.447Z</time></trkpt><trkpt lat="43.525765" lon="3.159575"><ele>187.0</ele><time>2026-04-04T07:55:43.446Z</time></trkpt><trkpt lat="43.52587" lon="3.15947"><ele>187.0</ele><time>2026-04-04T07:55:44.447Z</time></trkpt><trkpt lat="43.52597" lon="3.1593467"><ele>187.0</ele><time>2026-04-04T07:55:45.446Z</time></trkpt><trkpt lat="43.5260817" lon="3.1592167"><ele>187.0</ele><time>2026-04-04T07:55:46.446Z</time></trkpt><trkpt lat="43.5261983" lon="3.159095"><ele>188.5</ele><time>2026-04-04T07:55:47.446Z</time></trkpt><trkpt lat="43.52631" lon="3.15898"><ele>190.0</ele><time>2026-04-04T07:55:48.446Z</time></trkpt><trkpt lat="43.5264167" lon="3.1588617"><ele>191.5</ele><time>2026-04-04T07:55:49.446Z</time></trkpt><trkpt lat="43.52652" lon="3.15874"><ele>193.0</ele><time>2026-04-04T07:55:50.446Z</time></trkpt><trkpt lat="43.5266233" lon="3.1586117"><ele>193.0</ele><time>2026-04-04T07:55:51.445Z</time></trkpt><trkpt lat="43.526735" lon="3.158485"><ele>193.0</ele><time>2026-04-04T07:55:52.445Z</time></trkpt><trkpt lat="43.5268633" lon="3.158365"><ele>193.0</ele><time>2026-04-04T07:55:53.446Z</time></trkpt><trkpt lat="43.52699" lon="3.15825"><ele>194.0</ele><time>2026-04-04T07:55:54.445Z</time></trkpt><trkpt lat="43.52712" lon="3.1581317"><ele>195.0</ele><time>2026-04-04T07:55:55.445Z</time></trkpt><trkpt lat="43.527245" lon="3.158"><ele>196.0</ele><time>2026-04-04T07:55:56.444Z</time></trkpt><trkpt lat="43.5273617" lon="3.1578683"><ele>196.0</ele><time>2026-04-04T07:55:57.442Z</time></trkpt><trkpt lat="43.5274783" lon="3.1577667"><ele>196.0</ele><time>2026-04-04T07:55:58.446Z</time></trkpt><trkpt lat="43.52761" lon="3.157695"><ele>196.0</ele><time>2026-04-04T07:55:59.446Z</time></trkpt><trkpt lat="43.527755" lon="3.1576317"><ele>196.0</ele><time>2026-04-04T07:56:00.446Z</time></trkpt><trkpt lat="43.527905" lon="3.15757"><ele>194.66666666666666</ele><time>2026-04-04T07:56:01.444Z</time></trkpt><trkpt lat="43.528055" lon="3.1574967"><ele>193.33333333333331</ele><time>2026-04-04T07:56:02.443Z</time></trkpt><trkpt lat="43.5282067" lon="3.157425"><ele>192.0</ele><time>2026-04-04T07:56:03.443Z</time></trkpt><trkpt lat="43.5283617" lon="3.1573633"><ele>192.75</ele><time>2026-04-04T07:56:04.445Z</time></trkpt><trkpt lat="43.52852" lon="3.1573117"><ele>193.5</ele><time>2026-04-04T07:56:05.443Z</time></trkpt><trkpt lat="43.5286583" lon="3.1572617"><ele>194.25</ele><time>2026-04-04T07:56:06.444Z</time></trkpt><trkpt lat="43.5287583" lon="3.1572067"><ele>195.0</ele><time>2026-04-04T07:56:07.443Z</time></trkpt><trkpt lat="43.5288367" lon="3.1571367"><ele>195.0</ele><time>2026-04-04T07:56:08.443Z</time></trkpt><trkpt lat="43.528895" lon="3.1570483"><ele>195.0</ele><time>2026-04-04T07:56:09.444Z</time></trkpt><trkpt lat="43.5289467" lon="3.15694"><ele>195.0</ele><time>2026-04-04T07:56:10.446Z</time></trkpt><trkpt lat="43.5289967" lon="3.1568083"><ele>195.0</ele><time>2026-04-04T07:56:11.445Z</time></trkpt><trkpt lat="43.5290483" lon="3.1566567"><ele>195.0</ele><time>2026-04-04T07:56:12.445Z</time></trkpt><trkpt lat="43.5291017" lon="3.1564917"><ele>196.75</ele><time>2026-04-04T07:56:13.443Z</time></trkpt><trkpt lat="43.5291583" lon="3.156315"><ele>198.5</ele><time>2026-04-04T07:56:14.445Z</time></trkpt><trkpt lat="43.5292117" lon="3.156135"><ele>200.25</ele><time>2026-04-04T07:56:15.446Z</time></trkpt><trkpt lat="43.529275" lon="3.1559583"><ele>202.0</ele><time>2026-04-04T07:56:16.446Z</time></trkpt><trkpt lat="43.52934" lon="3.1557967"><ele>202.75</ele><time>2026-04-04T07:56:17.443Z</time></trkpt><trkpt lat="43.529415" lon="3.15564"><ele>203.5</ele><time>2026-04-04T07:56:18.444Z</time></trkpt><trkpt lat="43.5295033" lon="3.1554983"><ele>204.25</ele><time>2026-04-04T07:56:19.444Z</time></trkpt><trkpt lat="43.5296" lon="3.1553683"><ele>205.0</ele><time>2026-04-04T07:56:20.444Z</time></trkpt><trkpt lat="43.5297" lon="3.1552367"><ele>205.0</ele><time>2026-04-04T07:56:21.446Z</time></trkpt><trkpt lat="43.5298017" lon="3.155105"><ele>205.0</ele><time>2026-04-04T07:56:22.445Z</time></trkpt><trkpt lat="43.529905" lon="3.1549633"><ele>205.0</ele><time>2026-04-04T07:56:23.446Z</time></trkpt><trkpt lat="43.53001" lon="3.1548167"><ele>205.0</ele><time>2026-04-04T07:56:24.445Z</time></trkpt><trkpt lat="43.5301117" lon="3.1546633"><ele>205.25</ele><time>2026-04-04T07:56:25.444Z</time></trkpt><trkpt lat="43.5302067" lon="3.154505"><ele>205.5</ele><time>2026-04-04T07:56:26.443Z</time></trkpt><trkpt lat="43.5302933" lon="3.1543633"><ele>205.75</ele><time>2026-04-04T07:56:27.445Z</time></trkpt><trkpt lat="43.5303683" lon="3.1542333"><ele>206.0</ele><time>2026-04-04T07:56:28.443Z</time></trkpt><trkpt lat="43.5304283" lon="3.1541117"><ele>206.8</ele><time>2026-04-04T07:56:29.444Z</time></trkpt><trkpt lat="43.53046" lon="3.15399"><ele>207.60000000000002</ele><time>2026-04-04T07:56:30.446Z</time></trkpt><trkpt lat="43.53046" lon="3.1538633"><ele>208.4</ele><time>2026-04-04T07:56:31.444Z</time></trkpt><trkpt lat="43.5304517" lon="3.1537183"><ele>209.2</ele><time>2026-04-04T07:56:32.442Z</time></trkpt><trkpt lat="43.5304317" lon="3.1535483"><ele>210.0</ele><time>2026-04-04T07:56:33.443Z</time></trkpt><trkpt lat="43.5304067" lon="3.1533633"><ele>207.0</ele><time>2026-04-04T07:56:34.443Z</time></trkpt><trkpt lat="43.5303733" lon="3.15316"><ele>204.0</ele><time>2026-04-04T07:56:35.444Z</time></trkpt><trkpt lat="43.53034" lon="3.1529467"><ele>201.0</ele><time>2026-04-04T07:56:36.444Z</time></trkpt><trkpt lat="43.5303133" lon="3.1527317"><ele>201.0</ele><time>2026-04-04T07:56:37.444Z</time></trkpt><trkpt lat="43.530295" lon="3.15252"><ele>201.0</ele><time>2026-04-04T07:56:38.443Z</time></trkpt><trkpt lat="43.5302767" lon="3.1523233"><ele>201.0</ele><time>2026-04-04T07:56:39.444Z</time></trkpt><trkpt lat="43.530245" lon="3.1521383"><ele>201.0</ele><time>2026-04-04T07:56:40.442Z</time></trkpt><trkpt lat="43.53021" lon="3.151965"><ele>201.0</ele><time>2026-04-04T07:56:41.442Z</time></trkpt><trkpt lat="43.530185" lon="3.1518067"><ele>201.0</ele><time>2026-04-04T07:56:42.443Z</time></trkpt><trkpt lat="43.530175" lon="3.1516667"><ele>201.0</ele><time>2026-04-04T07:56:43.444Z</time></trkpt><trkpt lat="43.530185" lon="3.15155"><ele>201.0</ele><time>2026-04-04T07:56:44.444Z</time></trkpt><trkpt lat="43.530205" lon="3.15146"><ele>201.0</ele><time>2026-04-04T07:56:45.444Z</time></trkpt><trkpt lat="43.5302333" lon="3.1513683"><ele>201.0</ele><time>2026-04-04T07:56:46.443Z</time></trkpt><trkpt lat="43.53029" lon="3.1512817"><ele>200.75</ele><time>2026-04-04T07:56:47.447Z</time></trkpt><trkpt lat="43.5303867" lon="3.151185"><ele>200.5</ele><time>2026-04-04T07:56:48.446Z</time></trkpt><trkpt lat="43.530485" lon="3.1510733"><ele>200.25</ele><time>2026-04-04T07:56:49.443Z</time></trkpt><trkpt lat="43.5305683" lon="3.15095"><ele>200.0</ele><time>2026-04-04T07:56:50.444Z</time></trkpt><trkpt lat="43.530635" lon="3.1508133"><ele>197.5</ele><time>2026-04-04T07:56:51.444Z</time></trkpt><trkpt lat="43.53069" lon="3.1506683"><ele>195.0</ele><time>2026-04-04T07:56:52.444Z</time></trkpt><trkpt lat="43.5307517" lon="3.1505367"><ele>192.5</ele><time>2026-04-04T07:56:53.445Z</time></trkpt><trkpt lat="43.5308283" lon="3.1504233"><ele>190.0</ele><time>2026-04-04T07:56:54.444Z</time></trkpt><trkpt lat="43.5309233" lon="3.150325"><ele>190.0</ele><time>2026-04-04T07:56:55.445Z</time></trkpt><trkpt lat="43.5310283" lon="3.1502367"><ele>190.0</ele><time>2026-04-04T07:56:56.446Z</time></trkpt><trkpt lat="43.5311417" lon="3.1501533"><ele>190.0</ele><time>2026-04-04T07:56:57.447Z</time></trkpt><trkpt lat="43.5312517" lon="3.1500783"><ele>190.0</ele><time>2026-04-04T07:56:58.447Z</time></trkpt><trkpt lat="43.5313417" lon="3.150025"><ele>190.4</ele><time>2026-04-04T07:56:59.447Z</time></trkpt><trkpt lat="43.5314133" lon="3.14998"><ele>190.8</ele><time>2026-04-04T07:57:00.446Z</time></trkpt><trkpt lat="43.5314717" lon="3.1499367"><ele>191.2</ele><time>2026-04-04T07:57:01.443Z</time></trkpt><trkpt lat="43.531405" lon="3.14983"><ele>191.6</ele><time>2026-04-04T07:57:05.444Z</time></trkpt><trkpt lat="43.5312983" lon="3.1498083"><ele>192.0</ele><time>2026-04-04T07:57:06.443Z</time></trkpt><trkpt lat="43.5311617" lon="3.1497933"><ele>190.8</ele><time>2026-04-04T07:57:07.444Z</time></trkpt><trkpt lat="43.5310833" lon="3.1497567"><ele>189.6</ele><time>2026-04-04T07:57:08.443Z</time></trkpt><trkpt lat="43.5311183" lon="3.1496733"><ele>188.4</ele><time>2026-04-04T07:57:13.444Z</time></trkpt><trkpt lat="43.5312567" lon="3.149705"><ele>187.20000000000002</ele><time>2026-04-04T07:57:15.443Z</time></trkpt><trkpt lat="43.5313617" lon="3.149735"><ele>186.0</ele><time>2026-04-04T07:57:16.445Z</time></trkpt><trkpt lat="43.531505" lon="3.149785"><ele>186.0</ele><time>2026-04-04T07:57:17.444Z</time></trkpt><trkpt lat="43.5316533" lon="3.1498333"><ele>186.0</ele><time>2026-04-04T07:57:18.444Z</time></trkpt><trkpt lat="43.5318017" lon="3.1498817"><ele>186.0</ele><time>2026-04-04T07:57:19.443Z</time></trkpt><trkpt lat="43.5319533" lon="3.14997"><ele>187.0</ele><time>2026-04-04T07:57:20.443Z</time></trkpt><trkpt lat="43.53207" lon="3.1500683"><ele>188.0</ele><time>2026-04-04T07:57:21.444Z</time></trkpt><trkpt lat="43.5321633" lon="3.1502033"><ele>189.0</ele><time>2026-04-04T07:57:22.446Z</time></trkpt><trkpt lat="43.5322383" lon="3.15035"><ele>190.0</ele><time>2026-04-04T07:57:23.443Z</time></trkpt><trkpt lat="43.5323067" lon="3.1505"><ele>190.0</ele><time>2026-04-04T07:57:24.444Z</time></trkpt><trkpt lat="43.532365" lon="3.150625"><ele>190.0</ele><time>2026-04-04T07:57:25.444Z</time></trkpt><trkpt lat="43.532425" lon="3.1507167"><ele>190.0</ele><time>2026-04-04T07:57:26.447Z</time></trkpt><trkpt lat="43.532495" lon="3.15079"><ele>190.0</ele><time>2026-04-04T07:57:27.447Z</time></trkpt><trkpt lat="43.5325883" lon="3.150845"><ele>190.0</ele><time>2026-04-04T07:57:28.446Z</time></trkpt><trkpt lat="43.5326917" lon="3.1508833"><ele>190.4</ele><time>2026-04-04T07:57:29.447Z</time></trkpt><trkpt lat="43.53279" lon="3.1508983"><ele>190.8</ele><time>2026-04-04T07:57:30.446Z</time></trkpt><trkpt lat="43.532875" lon="3.150905"><ele>191.2</ele><time>2026-04-04T07:57:31.446Z</time></trkpt><trkpt lat="43.5329533" lon="3.1509133"><ele>191.6</ele><time>2026-04-04T07:57:32.443Z</time></trkpt><trkpt lat="43.5330583" lon="3.150925"><ele>192.0</ele><time>2026-04-04T07:57:34.447Z</time></trkpt><trkpt lat="43.533145" lon="3.15086"><ele>192.2</ele><time>2026-04-04T07:57:44.446Z</time></trkpt><trkpt lat="43.53327" lon="3.1508067"><ele>192.39999999999998</ele><time>2026-04-04T07:57:46.444Z</time></trkpt><trkpt lat="43.5333417" lon="3.1508"><ele>192.60000000000002</ele><time>2026-04-04T07:57:47.445Z</time></trkpt><trkpt lat="43.5334233" lon="3.1508067"><ele>192.8</ele><time>2026-04-04T07:57:48.444Z</time></trkpt><trkpt lat="43.5335133" lon="3.15083"><ele>193.0</ele><time>2026-04-04T07:57:49.444Z</time></trkpt><trkpt lat="43.53361" lon="3.1508667"><ele>193.0</ele><time>2026-04-04T07:57:50.443Z</time></trkpt><trkpt lat="43.5337083" lon="3.150935"><ele>193.0</ele><time>2026-04-04T07:57:51.444Z</time></trkpt><trkpt lat="43.5337883" lon="3.1510067"><ele>193.0</ele><time>2026-04-04T07:57:52.444Z</time></trkpt><trkpt lat="43.533845" lon="3.1510933"><ele>193.0</ele><time>2026-04-04T07:57:53.444Z</time></trkpt><trkpt lat="43.533895" lon="3.1511983"><ele>193.0</ele><time>2026-04-04T07:57:54.447Z</time></trkpt><trkpt lat="43.53393" lon="3.151315"><ele>194.60000000000002</ele><time>2026-04-04T07:57:55.446Z</time></trkpt><trkpt lat="43.5339667" lon="3.1514267"><ele>196.20000000000002</ele><time>2026-04-04T07:57:56.446Z</time></trkpt><trkpt lat="43.53402" lon="3.151535"><ele>197.8</ele><time>2026-04-04T07:57:57.446Z</time></trkpt><trkpt lat="43.5340883" lon="3.1516333"><ele>199.4</ele><time>2026-04-04T07:57:58.444Z</time></trkpt><trkpt lat="43.534175" lon="3.1517333"><ele>201.0</ele><time>2026-04-04T07:57:59.447Z</time></trkpt><trkpt lat="43.5342667" lon="3.151845"><ele>201.5</ele><time>2026-04-04T07:58:00.446Z</time></trkpt><trkpt lat="43.5343667" lon="3.1519617"><ele>202.0</ele><time>2026-04-04T07:58:01.445Z</time></trkpt><trkpt lat="43.534465" lon="3.15209"><ele>202.5</ele><time>2026-04-04T07:58:02.446Z</time></trkpt><trkpt lat="43.5345633" lon="3.1522483"><ele>203.0</ele><time>2026-04-04T07:58:03.445Z</time></trkpt><trkpt lat="43.5346617" lon="3.152385"><ele>204.5</ele><time>2026-04-04T07:58:04.446Z</time></trkpt><trkpt lat="43.5347667" lon="3.1525333"><ele>206.0</ele><time>2026-04-04T07:58:05.446Z</time></trkpt><trkpt lat="43.534875" lon="3.1526767"><ele>207.5</ele><time>2026-04-04T07:58:06.446Z</time></trkpt><trkpt lat="43.534975" lon="3.1528033"><ele>209.0</ele><time>2026-04-04T07:58:07.447Z</time></trkpt><trkpt lat="43.53506" lon="3.152905"><ele>209.0</ele><time>2026-04-04T07:58:08.445Z</time></trkpt><trkpt lat="43.53514" lon="3.1529917"><ele>209.0</ele><time>2026-04-04T07:58:09.444Z</time></trkpt><trkpt lat="43.53522" lon="3.153075"><ele>209.0</ele><time>2026-04-04T07:58:10.448Z</time></trkpt><trkpt lat="43.5353" lon="3.1531283"><ele>209.0</ele><time>2026-04-04T07:58:11.446Z</time></trkpt><trkpt lat="43.5354083" lon="3.1531533"><ele>209.0</ele><time>2026-04-04T07:58:12.446Z</time></trkpt><trkpt lat="43.5355233" lon="3.153165"><ele>212.0</ele><time>2026-04-04T07:58:13.447Z</time></trkpt><trkpt lat="43.5356433" lon="3.153175"><ele>215.0</ele><time>2026-04-04T07:58:14.446Z</time></trkpt><trkpt lat="43.5357683" lon="3.1531867"><ele>218.0</ele><time>2026-04-04T07:58:15.446Z</time></trkpt><trkpt lat="43.5359" lon="3.1532"><ele>221.0</ele><time>2026-04-04T07:58:16.443Z</time></trkpt><trkpt lat="43.5360317" lon="3.1532133"><ele>221.5</ele><time>2026-04-04T07:58:17.443Z</time></trkpt><trkpt lat="43.5361667" lon="3.15323"><ele>222.0</ele><time>2026-04-04T07:58:18.445Z</time></trkpt><trkpt lat="43.5362967" lon="3.1532433"><ele>222.5</ele><time>2026-04-04T07:58:19.443Z</time></trkpt><trkpt lat="43.536415" lon="3.1532367"><ele>223.0</ele><time>2026-04-04T07:58:20.443Z</time></trkpt><trkpt lat="43.5365167" lon="3.1531933"><ele>226.5</ele><time>2026-04-04T07:58:21.444Z</time></trkpt><trkpt lat="43.53661" lon="3.1531133"><ele>230.0</ele><time>2026-04-04T07:58:22.444Z</time></trkpt><trkpt lat="43.5367083" lon="3.15302"><ele>233.5</ele><time>2026-04-04T07:58:23.446Z</time></trkpt><trkpt lat="43.5368133" lon="3.152935"><ele>237.0</ele><time>2026-04-04T07:58:24.446Z</time></trkpt><trkpt lat="43.536925" lon="3.15285"><ele>237.0</ele><time>2026-04-04T07:58:25.446Z</time></trkpt><trkpt lat="43.5370367" lon="3.1527583"><ele>237.0</ele><time>2026-04-04T07:58:26.446Z</time></trkpt><trkpt lat="43.5371517" lon="3.1526683"><ele>237.0</ele><time>2026-04-04T07:58:27.446Z</time></trkpt><trkpt lat="43.5372733" lon="3.152585"><ele>237.0</ele><time>2026-04-04T07:58:28.444Z</time></trkpt><trkpt lat="43.5373933" lon="3.1525067"><ele>239.75</ele><time>2026-04-04T07:58:29.444Z</time></trkpt><trkpt lat="43.5375183" lon="3.1524433"><ele>242.5</ele><time>2026-04-04T07:58:30.447Z</time></trkpt><trkpt lat="43.5376383" lon="3.1523967"><ele>245.25</ele><time>2026-04-04T07:58:31.446Z</time></trkpt><trkpt lat="43.5377533" lon="3.152355"><ele>248.0</ele><time>2026-04-04T07:58:32.443Z</time></trkpt><trkpt lat="43.5378733" lon="3.1523067"><ele>249.75</ele><time>2026-04-04T07:58:33.444Z</time></trkpt><trkpt lat="43.5379933" lon="3.1522383"><ele>251.5</ele><time>2026-04-04T07:58:34.443Z</time></trkpt><trkpt lat="43.538115" lon="3.15216"><ele>253.25</ele><time>2026-04-04T07:58:35.443Z</time></trkpt><trkpt lat="43.5382433" lon="3.1520883"><ele>255.0</ele><time>2026-04-04T07:58:36.444Z</time></trkpt><trkpt lat="43.5383767" lon="3.1520167"><ele>255.0</ele><time>2026-04-04T07:58:37.444Z</time></trkpt><trkpt lat="43.53851" lon="3.15193"><ele>255.0</ele><time>2026-04-04T07:58:38.444Z</time></trkpt><trkpt lat="43.5386383" lon="3.15182"><ele>255.0</ele><time>2026-04-04T07:58:39.443Z</time></trkpt><trkpt lat="43.5387683" lon="3.1516933"><ele>255.0</ele><time>2026-04-04T07:58:40.445Z</time></trkpt><trkpt lat="43.5388983" lon="3.151555"><ele>255.0</ele><time>2026-04-04T07:58:41.446Z</time></trkpt><trkpt lat="43.5390317" lon="3.15142"><ele>255.0</ele><time>2026-04-04T07:58:42.443Z</time></trkpt><trkpt lat="43.5391517" lon="3.1512917"><ele>255.0</ele><time>2026-04-04T07:58:43.443Z</time></trkpt><trkpt lat="43.539265" lon="3.1511567"><ele>255.0</ele><time>2026-04-04T07:58:44.443Z</time></trkpt><trkpt lat="43.539365" lon="3.15102"><ele>255.0</ele><time>2026-04-04T07:58:45.443Z</time></trkpt><trkpt lat="43.539455" lon="3.150905"><ele>255.0</ele><time>2026-04-04T07:58:46.444Z</time></trkpt><trkpt lat="43.539535" lon="3.1508133"><ele>257.2</ele><time>2026-04-04T07:58:47.443Z</time></trkpt><trkpt lat="43.5396183" lon="3.1507583"><ele>259.4</ele><time>2026-04-04T07:58:48.443Z</time></trkpt><trkpt lat="43.5396967" lon="3.1507333"><ele>261.6</ele><time>2026-04-04T07:58:49.444Z</time></trkpt><trkpt lat="43.5397833" lon="3.15074"><ele>263.8</ele><time>2026-04-04T07:58:50.443Z</time></trkpt><trkpt lat="43.5398917" lon="3.1507867"><ele>266.0</ele><time>2026-04-04T07:58:51.445Z</time></trkpt><trkpt lat="43.5400233" lon="3.15087"><ele>266.0</ele><time>2026-04-04T07:58:52.444Z</time></trkpt><trkpt lat="43.5401417" lon="3.1509317"><ele>266.0</ele><time>2026-04-04T07:58:53.444Z</time></trkpt><trkpt lat="43.54026" lon="3.1509533"><ele>266.0</ele><time>2026-04-04T07:58:54.443Z</time></trkpt><trkpt lat="43.54039" lon="3.1509367"><ele>266.0</ele><time>2026-04-04T07:58:55.444Z</time></trkpt><trkpt lat="43.5405283" lon="3.1508883"><ele>266.25</ele><time>2026-04-04T07:58:56.444Z</time></trkpt><trkpt lat="43.5406733" lon="3.15083"><ele>266.5</ele><time>2026-04-04T07:58:57.444Z</time></trkpt><trkpt lat="43.5408083" lon="3.150785"><ele>266.75</ele><time>2026-04-04T07:58:58.444Z</time></trkpt><trkpt lat="43.5409433" lon="3.1507433"><ele>267.0</ele><time>2026-04-04T07:58:59.443Z</time></trkpt><trkpt lat="43.5410867" lon="3.15069"><ele>267.0</ele><time>2026-04-04T07:59:00.446Z</time></trkpt><trkpt lat="43.54124" lon="3.1506333"><ele>267.0</ele><time>2026-04-04T07:59:01.443Z</time></trkpt><trkpt lat="43.5413967" lon="3.15058"><ele>267.0</ele><time>2026-04-04T07:59:02.443Z</time></trkpt><trkpt lat="43.5415517" lon="3.1505233"><ele>267.0</ele><time>2026-04-04T07:59:03.443Z</time></trkpt><trkpt lat="43.5416967" lon="3.150455"><ele>267.0</ele><time>2026-04-04T07:59:04.447Z</time></trkpt><trkpt lat="43.5418417" lon="3.150375"><ele>267.0</ele><time>2026-04-04T07:59:05.443Z</time></trkpt><trkpt lat="43.5419867" lon="3.15028"><ele>269.0</ele><time>2026-04-04T07:59:06.443Z</time></trkpt><trkpt lat="43.5421233" lon="3.1501833"><ele>271.0</ele><time>2026-04-04T07:59:07.444Z</time></trkpt><trkpt lat="43.5422317" lon="3.1501067"><ele>273.0</ele><time>2026-04-04T07:59:08.444Z</time></trkpt><trkpt lat="43.5423233" lon="3.150055"><ele>275.0</ele><time>2026-04-04T07:59:09.444Z</time></trkpt><trkpt lat="43.5424167" lon="3.1500367"><ele>275.0</ele><time>2026-04-04T07:59:10.444Z</time></trkpt><trkpt lat="43.5425133" lon="3.1500417"><ele>275.0</ele><time>2026-04-04T07:59:11.447Z</time></trkpt><trkpt lat="43.5426167" lon="3.150045"><ele>275.0</ele><time>2026-04-04T07:59:12.443Z</time></trkpt><trkpt lat="43.542725" lon="3.150025"><ele>275.0</ele><time>2026-04-04T07:59:13.443Z</time></trkpt><trkpt lat="43.5428483" lon="3.1499883"><ele>275.0</ele><time>2026-04-04T07:59:14.443Z</time></trkpt><trkpt lat="43.54297" lon="3.1499583"><ele>276.5</ele><time>2026-04-04T07:59:15.444Z</time></trkpt><trkpt lat="43.5430967" lon="3.1499483"><ele>278.0</ele><time>2026-04-04T07:59:16.443Z</time></trkpt><trkpt lat="43.5432217" lon="3.14994"><ele>279.5</ele><time>2026-04-04T07:59:17.444Z</time></trkpt><trkpt lat="43.5433433" lon="3.1499217"><ele>281.0</ele><time>2026-04-04T07:59:18.445Z</time></trkpt><trkpt lat="43.543475" lon="3.1498833"><ele>283.25</ele><time>2026-04-04T07:59:19.445Z</time></trkpt><trkpt lat="43.5436133" lon="3.149835"><ele>285.5</ele><time>2026-04-04T07:59:20.443Z</time></trkpt><trkpt lat="43.5437417" lon="3.149785"><ele>287.75</ele><time>2026-04-04T07:59:21.443Z</time></trkpt><trkpt lat="43.543855" lon="3.1497417"><ele>290.0</ele><time>2026-04-04T07:59:22.445Z</time></trkpt><trkpt lat="43.5439567" lon="3.1496833"><ele>290.0</ele><time>2026-04-04T07:59:23.445Z</time></trkpt><trkpt lat="43.544045" lon="3.149595"><ele>290.0</ele><time>2026-04-04T07:59:24.443Z</time></trkpt><trkpt lat="43.54413" lon="3.1494817"><ele>290.0</ele><time>2026-04-04T07:59:25.444Z</time></trkpt><trkpt lat="43.544215" lon="3.1493517"><ele>290.0</ele><time>2026-04-04T07:59:26.443Z</time></trkpt><trkpt lat="43.5443017" lon="3.1492083"><ele>290.0</ele><time>2026-04-04T07:59:27.447Z</time></trkpt><trkpt lat="43.544395" lon="3.1490783"><ele>290.0</ele><time>2026-04-04T07:59:28.446Z</time></trkpt><trkpt lat="43.5444833" lon="3.1489567"><ele>290.0</ele><time>2026-04-04T07:59:29.447Z</time></trkpt><trkpt lat="43.5445567" lon="3.1488367"><ele>290.0</ele><time>2026-04-04T07:59:30.445Z</time></trkpt><trkpt lat="43.5446283" lon="3.1487117"><ele>289.5</ele><time>2026-04-04T07:59:31.444Z</time></trkpt><trkpt lat="43.544715" lon="3.148575"><ele>289.0</ele><time>2026-04-04T07:59:32.444Z</time></trkpt><trkpt lat="43.544815" lon="3.1484183"><ele>288.5</ele><time>2026-04-04T07:59:33.444Z</time></trkpt><trkpt lat="43.5449217" lon="3.14825"><ele>288.0</ele><time>2026-04-04T07:59:34.447Z</time></trkpt><trkpt lat="43.54503" lon="3.14809"><ele>287.0</ele><time>2026-04-04T07:59:35.446Z</time></trkpt><trkpt lat="43.5451367" lon="3.1479517"><ele>286.0</ele><time>2026-04-04T07:59:36.446Z</time></trkpt><trkpt lat="43.54525" lon="3.14782"><ele>285.0</ele><time>2026-04-04T07:59:37.447Z</time></trkpt><trkpt lat="43.5453583" lon="3.147695"><ele>284.0</ele><time>2026-04-04T07:59:38.444Z</time></trkpt><trkpt lat="43.5454517" lon="3.14757"><ele>284.0</ele><time>2026-04-04T07:59:39.443Z</time></trkpt><trkpt lat="43.5455267" lon="3.14744"><ele>284.0</ele><time>2026-04-04T07:59:40.443Z</time></trkpt><trkpt lat="43.5455783" lon="3.1472983"><ele>284.0</ele><time>2026-04-04T07:59:41.444Z</time></trkpt><trkpt lat="43.545615" lon="3.1471483"><ele>284.0</ele><time>2026-04-04T07:59:42.444Z</time></trkpt><trkpt lat="43.5456417" lon="3.1469867"><ele>286.4</ele><time>2026-04-04T07:59:43.445Z</time></trkpt><trkpt lat="43.5456667" lon="3.146835"><ele>288.79999999999995</ele><time>2026-04-04T07:59:44.443Z</time></trkpt><trkpt lat="43.5456933" lon="3.1467"><ele>291.20000000000005</ele><time>2026-04-04T07:59:45.447Z</time></trkpt><trkpt lat="43.5457283" lon="3.14659"><ele>293.6</ele><time>2026-04-04T07:59:46.444Z</time></trkpt><trkpt lat="43.5457817" lon="3.14649"><ele>296.0</ele><time>2026-04-04T07:59:47.444Z</time></trkpt><trkpt lat="43.5458517" lon="3.1463933"><ele>297.8</ele><time>2026-04-04T07:59:48.444Z</time></trkpt><trkpt lat="43.5459317" lon="3.1462933"><ele>299.6</ele><time>2026-04-04T07:59:49.444Z</time></trkpt><trkpt lat="43.5460067" lon="3.146195"><ele>301.4</ele><time>2026-04-04T07:59:50.446Z</time></trkpt><trkpt lat="43.5460717" lon="3.1461033"><ele>303.2</ele><time>2026-04-04T07:59:51.444Z</time></trkpt><trkpt lat="43.5461217" lon="3.1460083"><ele>305.0</ele><time>2026-04-04T07:59:52.446Z</time></trkpt><trkpt lat="43.5461567" lon="3.145905"><ele>305.0</ele><time>2026-04-04T07:59:53.444Z</time></trkpt><trkpt lat="43.5461683" lon="3.1458"><ele>305.0</ele><time>2026-04-04T07:59:54.443Z</time></trkpt><trkpt lat="43.5461383" lon="3.14569"><ele>305.0</ele><time>2026-04-04T07:59:55.444Z</time></trkpt><trkpt lat="43.54609" lon="3.1455733"><ele>305.0</ele><time>2026-04-04T07:59:56.446Z</time></trkpt><trkpt lat="43.5460233" lon="3.145445"><ele>305.0</ele><time>2026-04-04T07:59:57.447Z</time></trkpt><trkpt lat="43.5459517" lon="3.1453033"><ele>306.5</ele><time>2026-04-04T07:59:58.446Z</time></trkpt><trkpt lat="43.5458833" lon="3.1451617"><ele>308.0</ele><time>2026-04-04T07:59:59.442Z</time></trkpt><trkpt lat="43.5458183" lon="3.145025"><ele>309.5</ele><time>2026-04-04T08:00:00.443Z</time></trkpt><trkpt lat="43.54575" lon="3.14488"><ele>311.0</ele><time>2026-04-04T08:00:01.444Z</time></trkpt><trkpt lat="43.5456833" lon="3.1447167"><ele>312.25</ele><time>2026-04-04T08:00:02.443Z</time></trkpt><trkpt lat="43.545615" lon="3.144545"><ele>313.5</ele><time>2026-04-04T08:00:03.444Z</time></trkpt><trkpt lat="43.5455417" lon="3.1443567"><ele>314.75</ele><time>2026-04-04T08:00:04.447Z</time></trkpt><trkpt lat="43.545495" lon="3.1441783"><ele>316.0</ele><time>2026-04-04T08:00:05.444Z</time></trkpt><trkpt lat="43.54547" lon="3.1439967"><ele>318.0</ele><time>2026-04-04T08:00:06.443Z</time></trkpt><trkpt lat="43.5454533" lon="3.143795"><ele>320.0</ele><time>2026-04-04T08:00:07.444Z</time></trkpt><trkpt lat="43.5454317" lon="3.1435917"><ele>322.0</ele><time>2026-04-04T08:00:08.444Z</time></trkpt><trkpt lat="43.5454183" lon="3.1434083"><ele>324.0</ele><time>2026-04-04T08:00:09.443Z</time></trkpt><trkpt lat="43.5454183" lon="3.143245"><ele>325.5</ele><time>2026-04-04T08:00:10.445Z</time></trkpt><trkpt lat="43.54544" lon="3.1430883"><ele>327.0</ele><time>2026-04-04T08:00:11.445Z</time></trkpt><trkpt lat="43.5454717" lon="3.1429017"><ele>328.5</ele><time>2026-04-04T08:00:12.447Z</time></trkpt><trkpt lat="43.545505" lon="3.1427"><ele>330.0</ele><time>2026-04-04T08:00:13.446Z</time></trkpt><trkpt lat="43.5455467" lon="3.1425283"><ele>330.0</ele><time>2026-04-04T08:00:14.446Z</time></trkpt><trkpt lat="43.5456117" lon="3.1423833"><ele>330.0</ele><time>2026-04-04T08:00:15.446Z</time></trkpt><trkpt lat="43.5456917" lon="3.1422367"><ele>330.0</ele><time>2026-04-04T08:00:16.443Z</time></trkpt><trkpt lat="43.5457917" lon="3.1420783"><ele>330.0</ele><time>2026-04-04T08:00:17.444Z</time></trkpt><trkpt lat="43.5459083" lon="3.1418967"><ele>331.0</ele><time>2026-04-04T08:00:18.444Z</time></trkpt><trkpt lat="43.5460333" lon="3.1417117"><ele>332.0</ele><time>2026-04-04T08:00:19.445Z</time></trkpt><trkpt lat="43.5461517" lon="3.14153"><ele>333.0</ele><time>2026-04-04T08:00:20.444Z</time></trkpt><trkpt lat="43.5462483" lon="3.1413517"><ele>333.0</ele><time>2026-04-04T08:00:21.442Z</time></trkpt><trkpt lat="43.5463267" lon="3.14117"><ele>333.0</ele><time>2026-04-04T08:00:22.443Z</time></trkpt><trkpt lat="43.5463983" lon="3.1409733"><ele>333.0</ele><time>2026-04-04T08:00:23.444Z</time></trkpt><trkpt lat="43.5464683" lon="3.1407633"><ele>335.0</ele><time>2026-04-04T08:00:24.443Z</time></trkpt><trkpt lat="43.5465333" lon="3.1405283"><ele>337.0</ele><time>2026-04-04T08:00:25.444Z</time></trkpt><trkpt lat="43.5466017" lon="3.140285"><ele>339.0</ele><time>2026-04-04T08:00:26.443Z</time></trkpt><trkpt lat="43.5466767" lon="3.140045"><ele>338.25</ele><time>2026-04-04T08:00:27.444Z</time></trkpt><trkpt lat="43.5467417" lon="3.1398367"><ele>337.5</ele><time>2026-04-04T08:00:28.446Z</time></trkpt><trkpt lat="43.546795" lon="3.1396567"><ele>336.75</ele><time>2026-04-04T08:00:29.442Z</time></trkpt><trkpt lat="43.54685" lon="3.139485"><ele>336.0</ele><time>2026-04-04T08:00:30.443Z</time></trkpt><trkpt lat="43.5468983" lon="3.1393333"><ele>336.0</ele><time>2026-04-04T08:00:31.446Z</time></trkpt><trkpt lat="43.5469567" lon="3.13919"><ele>336.0</ele><time>2026-04-04T08:00:32.446Z</time></trkpt><trkpt lat="43.5470333" lon="3.1390467"><ele>336.0</ele><time>2026-04-04T08:00:33.446Z</time></trkpt><trkpt lat="43.5471333" lon="3.1388967"><ele>336.0</ele><time>2026-04-04T08:00:34.446Z</time></trkpt><trkpt lat="43.5472517" lon="3.1387283"><ele>333.6666666666667</ele><time>2026-04-04T08:00:35.443Z</time></trkpt><trkpt lat="43.5473733" lon="3.138555"><ele>331.33333333333337</ele><time>2026-04-04T08:00:36.444Z</time></trkpt><trkpt lat="43.5474833" lon="3.1383917"><ele>329.0</ele><time>2026-04-04T08:00:37.444Z</time></trkpt><trkpt lat="43.547575" lon="3.1382467"><ele>328.0</ele><time>2026-04-04T08:00:38.449Z</time></trkpt><trkpt lat="43.547645" lon="3.1381317"><ele>327.0</ele><time>2026-04-04T08:00:39.444Z</time></trkpt><trkpt lat="43.5477" lon="3.1380383"><ele>326.0</ele><time>2026-04-04T08:00:40.446Z</time></trkpt><trkpt lat="43.5477433" lon="3.1379633"><ele>325.0</ele><time>2026-04-04T08:00:41.446Z</time></trkpt><trkpt lat="43.54778" lon="3.1378917"><ele>324.0</ele><time>2026-04-04T08:00:42.446Z</time></trkpt><trkpt lat="43.5477367" lon="3.13781"><ele>323.0</ele><time>2026-04-04T08:05:54.447Z</time></trkpt><trkpt lat="43.5476933" lon="3.137635"><ele>323.0</ele><time>2026-04-04T08:05:56.443Z</time></trkpt><trkpt lat="43.5476667" lon="3.1375233"><ele>323.0</ele><time>2026-04-04T08:05:57.445Z</time></trkpt><trkpt lat="43.54765" lon="3.1374017"><ele>323.0</ele><time>2026-04-04T08:05:58.444Z</time></trkpt><trkpt lat="43.5476417" lon="3.1372667"><ele>323.0</ele><time>2026-04-04T08:05:59.444Z</time></trkpt><trkpt lat="43.5476467" lon="3.1371267"><ele>323.0</ele><time>2026-04-04T08:06:00.446Z</time></trkpt><trkpt lat="43.5476567" lon="3.136985"><ele>322.79999999999995</ele><time>2026-04-04T08:06:01.446Z</time></trkpt><trkpt lat="43.5476667" lon="3.136845"><ele>322.6</ele><time>2026-04-04T08:06:02.445Z</time></trkpt><trkpt lat="43.5476767" lon="3.1367083"><ele>322.4</ele><time>2026-04-04T08:06:03.444Z</time></trkpt><trkpt lat="43.5476717" lon="3.13658"><ele>322.20000000000005</ele><time>2026-04-04T08:06:04.444Z</time></trkpt><trkpt lat="43.5476417" lon="3.1364633"><ele>322.0</ele><time>2026-04-04T08:06:05.446Z</time></trkpt><trkpt lat="43.5476" lon="3.13636"><ele>323.6</ele><time>2026-04-04T08:06:06.444Z</time></trkpt><trkpt lat="43.5475317" lon="3.1362733"><ele>325.20000000000005</ele><time>2026-04-04T08:06:07.444Z</time></trkpt><trkpt lat="43.54745" lon="3.1362067"><ele>326.8</ele><time>2026-04-04T08:06:08.446Z</time></trkpt><trkpt lat="43.5473533" lon="3.1361667"><ele>328.4</ele><time>2026-04-04T08:06:09.446Z</time></trkpt><trkpt lat="43.54725" lon="3.13613"><ele>330.0</ele><time>2026-04-04T08:06:10.447Z</time></trkpt><trkpt lat="43.5471467" lon="3.1360917"><ele>330.0</ele><time>2026-04-04T08:06:11.443Z</time></trkpt><trkpt lat="43.54705" lon="3.1360467"><ele>330.0</ele><time>2026-04-04T08:06:12.447Z</time></trkpt><trkpt lat="43.546965" lon="3.1359867"><ele>330.0</ele><time>2026-04-04T08:06:13.445Z</time></trkpt><trkpt lat="43.5468983" lon="3.13591"><ele>330.0</ele><time>2026-04-04T08:06:14.445Z</time></trkpt><trkpt lat="43.5468567" lon="3.13581"><ele>330.0</ele><time>2026-04-04T08:06:15.446Z</time></trkpt><trkpt lat="43.5468483" lon="3.1356917"><ele>330.0</ele><time>2026-04-04T08:06:16.446Z</time></trkpt><trkpt lat="43.5468967" lon="3.1355733"><ele>330.0</ele><time>2026-04-04T08:06:17.446Z</time></trkpt><trkpt lat="43.546915" lon="3.135455"><ele>330.0</ele><time>2026-04-04T08:06:18.446Z</time></trkpt><trkpt lat="43.54701" lon="3.135305"><ele>330.0</ele><time>2026-04-04T08:06:19.444Z</time></trkpt><trkpt lat="43.54708" lon="3.1351767"><ele>330.0</ele><time>2026-04-04T08:06:20.446Z</time></trkpt><trkpt lat="43.5471367" lon="3.1350517"><ele>330.0</ele><time>2026-04-04T08:06:21.445Z</time></trkpt><trkpt lat="43.547195" lon="3.1349317"><ele>330.0</ele><time>2026-04-04T08:06:22.443Z</time></trkpt><trkpt lat="43.547235" lon="3.1348183"><ele>330.0</ele><time>2026-04-04T08:06:23.444Z</time></trkpt><trkpt lat="43.54728" lon="3.1347233"><ele>330.0</ele><time>2026-04-04T08:06:24.447Z</time></trkpt><trkpt lat="43.547315" lon="3.1346467"><ele>330.0</ele><time>2026-04-04T08:06:25.446Z</time></trkpt><trkpt lat="43.5473633" lon="3.1345883"><ele>330.0</ele><time>2026-04-04T08:06:27.443Z</time></trkpt><trkpt lat="43.54742" lon="3.1345483"><ele>329.5</ele><time>2026-04-04T08:06:29.446Z</time></trkpt><trkpt lat="43.5475" lon="3.1344717"><ele>329.0</ele><time>2026-04-04T08:06:31.445Z</time></trkpt><trkpt lat="43.54755" lon="3.1344117"><ele>328.5</ele><time>2026-04-04T08:06:32.445Z</time></trkpt><trkpt lat="43.5476033" lon="3.13435"><ele>328.0</ele><time>2026-04-04T08:06:33.444Z</time></trkpt><trkpt lat="43.5476733" lon="3.1342983"><ele>327.5</ele><time>2026-04-04T08:06:34.447Z</time></trkpt><trkpt lat="43.5477383" lon="3.13425"><ele>327.0</ele><time>2026-04-04T08:06:35.444Z</time></trkpt><trkpt lat="43.5477933" lon="3.1341967"><ele>327.0</ele><time>2026-04-04T08:06:36.447Z</time></trkpt><trkpt lat="43.5478467" lon="3.1341417"><ele>327.0</ele><time>2026-04-04T08:06:37.445Z</time></trkpt><trkpt lat="43.5478983" lon="3.1340733"><ele>327.0</ele><time>2026-04-04T08:06:38.444Z</time></trkpt><trkpt lat="43.5479483" lon="3.1340117"><ele>327.0</ele><time>2026-04-04T08:06:39.444Z</time></trkpt><trkpt lat="43.548" lon="3.1339583"><ele>327.0</ele><time>2026-04-04T08:06:40.444Z</time></trkpt><trkpt lat="43.5480633" lon="3.133925"><ele>327.0</ele><time>2026-04-04T08:06:41.445Z</time></trkpt><trkpt lat="43.5481733" lon="3.13386"><ele>330.25</ele><time>2026-04-04T08:06:43.446Z</time></trkpt><trkpt lat="43.5482867" lon="3.1338283"><ele>333.5</ele><time>2026-04-04T08:06:45.445Z</time></trkpt><trkpt lat="43.548395" lon="3.1338333"><ele>336.75</ele><time>2026-04-04T08:06:47.445Z</time></trkpt><trkpt lat="43.5484983" lon="3.133835"><ele>340.0</ele><time>2026-04-04T08:06:49.444Z</time></trkpt><trkpt lat="43.5486217" lon="3.133785"><ele>340.0</ele><time>2026-04-04T08:06:51.445Z</time></trkpt><trkpt lat="43.5487083" lon="3.1337567"><ele>340.0</ele><time>2026-04-04T08:06:52.444Z</time></trkpt><trkpt lat="43.5487967" lon="3.133735"><ele>340.0</ele><time>2026-04-04T08:06:53.446Z</time></trkpt><trkpt lat="43.54888" lon="3.1337233"><ele>340.0</ele><time>2026-04-04T08:06:54.444Z</time></trkpt><trkpt lat="43.5489583" lon="3.133715"><ele>340.0</ele><time>2026-04-04T08:06:55.444Z</time></trkpt><trkpt lat="43.5490383" lon="3.1337067"><ele>340.0</ele><time>2026-04-04T08:06:56.444Z</time></trkpt><trkpt lat="43.5491067" lon="3.1336967"><ele>341.0</ele><time>2026-04-04T08:06:57.445Z</time></trkpt><trkpt lat="43.5491767" lon="3.1336783"><ele>342.0</ele><time>2026-04-04T08:06:58.444Z</time></trkpt><trkpt lat="43.5492517" lon="3.1336483"><ele>343.0</ele><time>2026-04-04T08:06:59.443Z</time></trkpt><trkpt lat="43.5493233" lon="3.133625"><ele>344.0</ele><time>2026-04-04T08:07:00.444Z</time></trkpt><trkpt lat="43.5493883" lon="3.1336"><ele>345.0</ele><time>2026-04-04T08:07:01.445Z</time></trkpt><trkpt lat="43.54945" lon="3.1335767"><ele>346.0</ele><time>2026-04-04T08:07:02.444Z</time></trkpt><trkpt lat="43.5495183" lon="3.1335467"><ele>347.0</ele><time>2026-04-04T08:07:03.444Z</time></trkpt><trkpt lat="43.5495917" lon="3.1335117"><ele>348.83333333333337</ele><time>2026-04-04T08:07:04.445Z</time></trkpt><trkpt lat="43.5496567" lon="3.133485"><ele>350.6666666666667</ele><time>2026-04-04T08:07:05.444Z</time></trkpt><trkpt lat="43.5497483" lon="3.133445"><ele>352.5</ele><time>2026-04-04T08:07:06.444Z</time></trkpt><trkpt lat="43.54982" lon="3.1334133"><ele>354.3333333333333</ele><time>2026-04-04T08:07:07.444Z</time></trkpt><trkpt lat="43.5498833" lon="3.1333717"><ele>356.16666666666663</ele><time>2026-04-04T08:07:08.443Z</time></trkpt><trkpt lat="43.5499833" lon="3.1332817"><ele>358.0</ele><time>2026-04-04T08:07:10.445Z</time></trkpt><trkpt lat="43.5500883" lon="3.1332317"><ele>358.0</ele><time>2026-04-04T08:07:12.444Z</time></trkpt><trkpt lat="43.550205" lon="3.133225"><ele>358.0</ele><time>2026-04-04T08:07:14.444Z</time></trkpt><trkpt lat="43.550295" lon="3.1333"><ele>358.0</ele><time>2026-04-04T08:07:16.445Z</time></trkpt><trkpt lat="43.5503733" lon="3.1333"><ele>358.0</ele><time>2026-04-04T08:07:17.445Z</time></trkpt><trkpt lat="43.550465" lon="3.1332567"><ele>358.0</ele><time>2026-04-04T08:07:19.446Z</time></trkpt><trkpt lat="43.55052" lon="3.13313"><ele>361.4</ele><time>2026-04-04T08:07:21.444Z</time></trkpt><trkpt lat="43.55058" lon="3.1329767"><ele>364.79999999999995</ele><time>2026-04-04T08:07:23.444Z</time></trkpt><trkpt lat="43.5506217" lon="3.132895"><ele>368.2</ele><time>2026-04-04T08:07:24.445Z</time></trkpt><trkpt lat="43.5506683" lon="3.1328183"><ele>371.6</ele><time>2026-04-04T08:07:25.444Z</time></trkpt><trkpt lat="43.5507383" lon="3.13274"><ele>375.0</ele><time>2026-04-04T08:07:26.446Z</time></trkpt><trkpt lat="43.5508133" lon="3.1326433"><ele>375.0</ele><time>2026-04-04T08:07:27.444Z</time></trkpt><trkpt lat="43.55089" lon="3.1325433"><ele>375.0</ele><time>2026-04-04T08:07:28.446Z</time></trkpt><trkpt lat="43.55096" lon="3.13243"><ele>375.0</ele><time>2026-04-04T08:07:29.444Z</time></trkpt><trkpt lat="43.5510383" lon="3.132315"><ele>375.0</ele><time>2026-04-04T08:07:30.444Z</time></trkpt><trkpt lat="43.5511067" lon="3.1322067"><ele>375.0</ele><time>2026-04-04T08:07:31.445Z</time></trkpt><trkpt lat="43.5511567" lon="3.1320883"><ele>377.5</ele><time>2026-04-04T08:07:32.443Z</time></trkpt><trkpt lat="43.551205" lon="3.13197"><ele>380.0</ele><time>2026-04-04T08:07:33.443Z</time></trkpt><trkpt lat="43.551245" lon="3.13185"><ele>382.5</ele><time>2026-04-04T08:07:34.444Z</time></trkpt><trkpt lat="43.5512717" lon="3.1317383"><ele>385.0</ele><time>2026-04-04T08:07:35.444Z</time></trkpt><trkpt lat="43.5513" lon="3.131655"><ele>387.5</ele><time>2026-04-04T08:07:36.446Z</time></trkpt><trkpt lat="43.55139" lon="3.1315883"><ele>390.0</ele><time>2026-04-04T08:07:38.443Z</time></trkpt><trkpt lat="43.5514817" lon="3.13155"><ele>390.8</ele><time>2026-04-04T08:07:40.443Z</time></trkpt><trkpt lat="43.5515517" lon="3.131545"><ele>391.6</ele><time>2026-04-04T08:07:42.444Z</time></trkpt><trkpt lat="43.5516317" lon="3.1316317"><ele>392.4</ele><time>2026-04-04T08:07:44.444Z</time></trkpt><trkpt lat="43.5517267" lon="3.1316733"><ele>393.2</ele><time>2026-04-04T08:07:46.444Z</time></trkpt><trkpt lat="43.55184" lon="3.1316883"><ele>394.0</ele><time>2026-04-04T08:07:48.447Z</time></trkpt><trkpt lat="43.5519483" lon="3.1316817"><ele>394.83333333333337</ele><time>2026-04-04T08:07:50.443Z</time></trkpt><trkpt lat="43.5520517" lon="3.1316667"><ele>395.6666666666667</ele><time>2026-04-04T08:07:52.444Z</time></trkpt><trkpt lat="43.5521417" lon="3.1317117"><ele>396.5</ele><time>2026-04-04T08:07:54.444Z</time></trkpt><trkpt lat="43.5522083" lon="3.1317433"><ele>397.33333333333337</ele><time>2026-04-04T08:07:56.443Z</time></trkpt><trkpt lat="43.5522583" lon="3.131665"><ele>398.1666666666667</ele><time>2026-04-04T08:07:59.444Z</time></trkpt><trkpt lat="43.5522433" lon="3.131565"><ele>399.0</ele><time>2026-04-04T08:08:01.445Z</time></trkpt><trkpt lat="43.55224" lon="3.1314317"><ele>400.5</ele><time>2026-04-04T08:08:03.444Z</time></trkpt><trkpt lat="43.552285" lon="3.1313117"><ele>402.0</ele><time>2026-04-04T08:08:05.444Z</time></trkpt><trkpt lat="43.5523567" lon="3.131205"><ele>403.5</ele><time>2026-04-04T08:08:07.444Z</time></trkpt><trkpt lat="43.55239" lon="3.131105"><ele>405.0</ele><time>2026-04-04T08:08:09.444Z</time></trkpt><trkpt lat="43.552365" lon="3.1309983"><ele>406.5</ele><time>2026-04-04T08:08:11.443Z</time></trkpt><trkpt lat="43.552315" lon="3.1309417"><ele>408.0</ele><time>2026-04-04T08:08:12.447Z</time></trkpt><trkpt lat="43.5522517" lon="3.1308717"><ele>408.0</ele><time>2026-04-04T08:08:13.444Z</time></trkpt><trkpt lat="43.55219" lon="3.130805"><ele>408.0</ele><time>2026-04-04T08:08:14.443Z</time></trkpt><trkpt lat="43.5521267" lon="3.1307367"><ele>408.0</ele><time>2026-04-04T08:08:15.444Z</time></trkpt><trkpt lat="43.5520683" lon="3.1306633"><ele>408.0</ele><time>2026-04-04T08:08:16.444Z</time></trkpt><trkpt lat="43.55201" lon="3.1305967"><ele>408.0</ele><time>2026-04-04T08:08:17.443Z</time></trkpt><trkpt lat="43.55195" lon="3.130535"><ele>408.0</ele><time>2026-04-04T08:08:18.444Z</time></trkpt><trkpt lat="43.5518917" lon="3.130485"><ele>411.0</ele><time>2026-04-04T08:08:19.445Z</time></trkpt><trkpt lat="43.55179" lon="3.1303967"><ele>414.0</ele><time>2026-04-04T08:08:21.448Z</time></trkpt><trkpt lat="43.5517367" lon="3.1302967"><ele>417.0</ele><time>2026-04-04T08:08:23.443Z</time></trkpt><trkpt lat="43.551755" lon="3.1301883"><ele>420.0</ele><time>2026-04-04T08:08:40.444Z</time></trkpt><trkpt lat="43.5517317" lon="3.1300767"><ele>423.0</ele><time>2026-04-04T08:08:44.443Z</time></trkpt><trkpt lat="43.55174" lon="3.1299683"><ele>426.0</ele><time>2026-04-04T08:08:46.443Z</time></trkpt><trkpt lat="43.55176" lon="3.12985"><ele>429.0</ele><time>2026-04-04T08:08:48.445Z</time></trkpt><trkpt lat="43.5517783" lon="3.1297367"><ele>431.99999999999994</ele><time>2026-04-04T08:08:50.445Z</time></trkpt><trkpt lat="43.55182" lon="3.129625"><ele>435.0</ele><time>2026-04-04T08:08:52.443Z</time></trkpt><trkpt lat="43.5518683" lon="3.1294967"><ele>438.0</ele><time>2026-04-04T08:08:54.444Z</time></trkpt><trkpt lat="43.5519433" lon="3.1294017"><ele>438.0</ele><time>2026-04-04T08:08:56.444Z</time></trkpt><trkpt lat="43.5520317" lon="3.12933"><ele>438.0</ele><time>2026-04-04T08:08:58.446Z</time></trkpt><trkpt lat="43.5520783" lon="3.1292267"><ele>438.0</ele><time>2026-04-04T08:09:00.444Z</time></trkpt><trkpt lat="43.5521283" lon="3.1291317"><ele>438.0</ele><time>2026-04-04T08:09:02.444Z</time></trkpt><trkpt lat="43.552175" lon="3.1290367"><ele>438.0</ele><time>2026-04-04T08:09:04.444Z</time></trkpt><trkpt lat="43.5522117" lon="3.1289433"><ele>438.0</ele><time>2026-04-04T08:09:06.445Z</time></trkpt><trkpt lat="43.5522017" lon="3.1288567"><ele>438.6666666666667</ele><time>2026-04-04T08:09:18.444Z</time></trkpt><trkpt lat="43.5522367" lon="3.1287717"><ele>439.33333333333337</ele><time>2026-04-04T08:09:38.445Z</time></trkpt><trkpt lat="43.5522867" lon="3.128605"><ele>440.0</ele><time>2026-04-04T08:09:40.444Z</time></trkpt><trkpt lat="43.5523133" lon="3.1285033"><ele>440.6666666666667</ele><time>2026-04-04T08:09:41.445Z</time></trkpt><trkpt lat="43.5523333" lon="3.1284083"><ele>441.33333333333337</ele><time>2026-04-04T08:09:42.444Z</time></trkpt><trkpt lat="43.5523633" lon="3.1283233"><ele>442.0</ele><time>2026-04-04T08:09:43.445Z</time></trkpt><trkpt lat="43.5524083" lon="3.1282367"><ele>443.33333333333337</ele><time>2026-04-04T08:09:44.445Z</time></trkpt><trkpt lat="43.5524567" lon="3.1281583"><ele>444.6666666666667</ele><time>2026-04-04T08:09:45.448Z</time></trkpt><trkpt lat="43.5525233" lon="3.1280967"><ele>446.0</ele><time>2026-04-04T08:09:46.445Z</time></trkpt><trkpt lat="43.5525783" lon="3.1280333"><ele>447.33333333333337</ele><time>2026-04-04T08:09:47.444Z</time></trkpt><trkpt lat="43.55263" lon="3.127915"><ele>448.6666666666667</ele><time>2026-04-04T08:09:49.444Z</time></trkpt><trkpt lat="43.5525283" lon="3.1278833"><ele>450.0</ele><time>2026-04-04T08:09:52.445Z</time></trkpt><trkpt lat="43.5523833" lon="3.12792"><ele>450.0</ele><time>2026-04-04T08:09:54.447Z</time></trkpt><trkpt lat="43.5522983" lon="3.12793"><ele>450.0</ele><time>2026-04-04T08:09:55.444Z</time></trkpt><trkpt lat="43.5522267" lon="3.1279283"><ele>450.0</ele><time>2026-04-04T08:09:56.445Z</time></trkpt><trkpt lat="43.5521617" lon="3.127935"><ele>450.0</ele><time>2026-04-04T08:09:57.445Z</time></trkpt><trkpt lat="43.5520883" lon="3.1279083"><ele>450.0</ele><time>2026-04-04T08:09:59.445Z</time></trkpt><trkpt lat="43.55217" lon="3.12781"><ele>450.0</ele><time>2026-04-04T08:10:01.446Z</time></trkpt><trkpt lat="43.5522717" lon="3.1277417"><ele>450.0</ele><time>2026-04-04T08:10:02.447Z</time></trkpt><trkpt lat="43.55236" lon="3.1276667"><ele>450.0</ele><time>2026-04-04T08:10:03.447Z</time></trkpt><trkpt lat="43.5524317" lon="3.1275767"><ele>450.0</ele><time>2026-04-04T08:10:04.448Z</time></trkpt><trkpt lat="43.5524933" lon="3.1274783"><ele>450.0</ele><time>2026-04-04T08:10:05.448Z</time></trkpt><trkpt lat="43.5525417" lon="3.1273867"><ele>450.0</ele><time>2026-04-04T08:10:06.447Z</time></trkpt><trkpt lat="43.55257" lon="3.1272967"><ele>450.0</ele><time>2026-04-04T08:10:07.446Z</time></trkpt><trkpt lat="43.5525717" lon="3.1272083"><ele>450.8</ele><time>2026-04-04T08:10:08.447Z</time></trkpt><trkpt lat="43.55257" lon="3.1270567"><ele>451.6</ele><time>2026-04-04T08:10:10.446Z</time></trkpt><trkpt lat="43.5525917" lon="3.1269083"><ele>452.4</ele><time>2026-04-04T08:10:12.447Z</time></trkpt><trkpt lat="43.5526367" lon="3.126745"><ele>453.2</ele><time>2026-04-04T08:10:14.444Z</time></trkpt><trkpt lat="43.5526667" lon="3.126645"><ele>454.0</ele><time>2026-04-04T08:10:15.444Z</time></trkpt><trkpt lat="43.552705" lon="3.1265317"><ele>454.25</ele><time>2026-04-04T08:10:16.446Z</time></trkpt><trkpt lat="43.5527517" lon="3.1264117"><ele>454.5</ele><time>2026-04-04T08:10:17.445Z</time></trkpt><trkpt lat="43.5527967" lon="3.126275"><ele>454.75</ele><time>2026-04-04T08:10:18.444Z</time></trkpt><trkpt lat="43.5528367" lon="3.126125"><ele>455.0</ele><time>2026-04-04T08:10:19.446Z</time></trkpt><trkpt lat="43.55287" lon="3.1259517"><ele>460.5</ele><time>2026-04-04T08:10:20.444Z</time></trkpt><trkpt lat="43.552905" lon="3.1257717"><ele>466.0</ele><time>2026-04-04T08:10:21.444Z</time></trkpt><trkpt lat="43.5529467" lon="3.1255833"><ele>471.5</ele><time>2026-04-04T08:10:22.444Z</time></trkpt><trkpt lat="43.5529917" lon="3.1253883"><ele>477.0</ele><time>2026-04-04T08:10:23.445Z</time></trkpt><trkpt lat="43.553035" lon="3.1252017"><ele>477.25</ele><time>2026-04-04T08:10:24.445Z</time></trkpt><trkpt lat="43.5530833" lon="3.1250133"><ele>477.5</ele><time>2026-04-04T08:10:25.445Z</time></trkpt><trkpt lat="43.55313" lon="3.124835"><ele>477.75</ele><time>2026-04-04T08:10:26.444Z</time></trkpt><trkpt lat="43.5531683" lon="3.1246817"><ele>478.0</ele><time>2026-04-04T08:10:27.445Z</time></trkpt><trkpt lat="43.5531933" lon="3.1245617"><ele>478.33333333333337</ele><time>2026-04-04T08:10:28.444Z</time></trkpt><trkpt lat="43.55322" lon="3.124465"><ele>478.6666666666667</ele><time>2026-04-04T08:10:29.446Z</time></trkpt><trkpt lat="43.5532533" lon="3.1243867"><ele>479.0</ele><time>2026-04-04T08:10:30.448Z</time></trkpt><trkpt lat="43.5533217" lon="3.1243567"><ele>479.33333333333337</ele><time>2026-04-04T08:10:32.445Z</time></trkpt><trkpt lat="43.5533583" lon="3.12452"><ele>479.6666666666667</ele><time>2026-04-04T08:10:34.445Z</time></trkpt><trkpt lat="43.5533683" lon="3.1246333"><ele>480.0</ele><time>2026-04-04T08:10:35.444Z</time></trkpt><trkpt lat="43.5533783" lon="3.1247717"><ele>479.6</ele><time>2026-04-04T08:10:36.445Z</time></trkpt><trkpt lat="43.553395" lon="3.1249233"><ele>479.2</ele><time>2026-04-04T08:10:37.445Z</time></trkpt><trkpt lat="43.55343" lon="3.1250733"><ele>478.79999999999995</ele><time>2026-04-04T08:10:38.445Z</time></trkpt><trkpt lat="43.5534767" lon="3.125215"><ele>478.4</ele><time>2026-04-04T08:10:39.45Z</time></trkpt><trkpt lat="43.5535333" lon="3.1253467"><ele>478.0</ele><time>2026-04-04T08:10:40.444Z</time></trkpt><trkpt lat="43.55359" lon="3.1254733"><ele>478.00000000000006</ele><time>2026-04-04T08:10:41.445Z</time></trkpt><trkpt lat="43.5536567" lon="3.12558"><ele>478.0</ele><time>2026-04-04T08:10:42.447Z</time></trkpt><trkpt lat="43.5537333" lon="3.1256667"><ele>478.0</ele><time>2026-04-04T08:10:43.446Z</time></trkpt><trkpt lat="43.553815" lon="3.1257217"><ele>478.0</ele><time>2026-04-04T08:10:44.447Z</time></trkpt><trkpt lat="43.5538933" lon="3.12575"><ele>478.00000000000006</ele><time>2026-04-04T08:10:45.447Z</time></trkpt><trkpt lat="43.5539633" lon="3.1257633"><ele>478.0</ele><time>2026-04-04T08:10:46.446Z</time></trkpt><trkpt lat="43.5540317" lon="3.1257767"><ele>480.1666666666667</ele><time>2026-04-04T08:10:47.445Z</time></trkpt><trkpt lat="43.55414" lon="3.1258017"><ele>482.33333333333337</ele><time>2026-04-04T08:10:49.445Z</time></trkpt><trkpt lat="43.55423" lon="3.1258133"><ele>484.5</ele><time>2026-04-04T08:10:51.444Z</time></trkpt><trkpt lat="43.5542933" lon="3.1257767"><ele>486.66666666666663</ele><time>2026-04-04T08:10:53.446Z</time></trkpt><trkpt lat="43.5543133" lon="3.125685"><ele>488.8333333333333</ele><time>2026-04-04T08:10:56.447Z</time></trkpt><trkpt lat="43.55425" lon="3.1256033"><ele>491.0</ele><time>2026-04-04T08:10:58.445Z</time></trkpt><trkpt lat="43.5541717" lon="3.1254717"><ele>492.66666666666663</ele><time>2026-04-04T08:11:00.446Z</time></trkpt><trkpt lat="43.554145" lon="3.125375"><ele>494.3333333333333</ele><time>2026-04-04T08:11:01.448Z</time></trkpt><trkpt lat="43.554125" lon="3.1252617"><ele>496.0</ele><time>2026-04-04T08:11:02.447Z</time></trkpt><trkpt lat="43.5541117" lon="3.1251417"><ele>497.66666666666663</ele><time>2026-04-04T08:11:03.445Z</time></trkpt><trkpt lat="43.5540967" lon="3.1250183"><ele>499.3333333333333</ele><time>2026-04-04T08:11:04.444Z</time></trkpt><trkpt lat="43.55408" lon="3.1248867"><ele>501.0</ele><time>2026-04-04T08:11:05.444Z</time></trkpt><trkpt lat="43.554075" lon="3.12475"><ele>501.8</ele><time>2026-04-04T08:11:06.444Z</time></trkpt><trkpt lat="43.5540833" lon="3.12461"><ele>502.6</ele><time>2026-04-04T08:11:07.448Z</time></trkpt><trkpt lat="43.5541017" lon="3.1244867"><ele>503.4</ele><time>2026-04-04T08:11:08.448Z</time></trkpt><trkpt lat="43.554135" lon="3.1243667"><ele>504.2</ele><time>2026-04-04T08:11:09.447Z</time></trkpt><trkpt lat="43.5541733" lon="3.1242417"><ele>505.0</ele><time>2026-04-04T08:11:10.447Z</time></trkpt><trkpt lat="43.55422" lon="3.1241233"><ele>506.1666666666667</ele><time>2026-04-04T08:11:11.443Z</time></trkpt><trkpt lat="43.5542717" lon="3.1240133"><ele>507.33333333333337</ele><time>2026-04-04T08:11:12.447Z</time></trkpt><trkpt lat="43.55433" lon="3.1239233"><ele>508.5</ele><time>2026-04-04T08:11:13.446Z</time></trkpt><trkpt lat="43.554395" lon="3.1238533"><ele>509.66666666666663</ele><time>2026-04-04T08:11:14.444Z</time></trkpt><trkpt lat="43.5544667" lon="3.1238017"><ele>510.8333333333333</ele><time>2026-04-04T08:11:15.445Z</time></trkpt><trkpt lat="43.5545433" lon="3.1237733"><ele>512.0</ele><time>2026-04-04T08:11:16.444Z</time></trkpt><trkpt lat="43.5546217" lon="3.12376"><ele>511.99999999999994</ele><time>2026-04-04T08:11:17.445Z</time></trkpt><trkpt lat="43.55471" lon="3.1237683"><ele>512.0</ele><time>2026-04-04T08:11:18.445Z</time></trkpt><trkpt lat="43.554795" lon="3.1237817"><ele>512.0</ele><time>2026-04-04T08:11:19.445Z</time></trkpt><trkpt lat="43.5548767" lon="3.1237817"><ele>512.0</ele><time>2026-04-04T08:11:20.444Z</time></trkpt><trkpt lat="43.5549517" lon="3.12376"><ele>511.99999999999994</ele><time>2026-04-04T08:11:21.445Z</time></trkpt><trkpt lat="43.55502" lon="3.1237117"><ele>512.0</ele><time>2026-04-04T08:11:22.444Z</time></trkpt><trkpt lat="43.5550833" lon="3.1236433"><ele>511.99999999999994</ele><time>2026-04-04T08:11:23.445Z</time></trkpt><trkpt lat="43.5551433" lon="3.1235617"><ele>512.0</ele><time>2026-04-04T08:11:24.444Z</time></trkpt><trkpt lat="43.5551967" lon="3.1234733"><ele>512.0</ele><time>2026-04-04T08:11:25.445Z</time></trkpt><trkpt lat="43.5552417" lon="3.1233783"><ele>512.0</ele><time>2026-04-04T08:11:26.444Z</time></trkpt><trkpt lat="43.5552717" lon="3.123275"><ele>511.99999999999994</ele><time>2026-04-04T08:11:27.444Z</time></trkpt><trkpt lat="43.5552833" lon="3.1231617"><ele>512.0</ele><time>2026-04-04T08:11:28.446Z</time></trkpt><trkpt lat="43.5552817" lon="3.1230383"><ele>511.99999999999994</ele><time>2026-04-04T08:11:29.446Z</time></trkpt><trkpt lat="43.5552783" lon="3.1229133"><ele>512.0</ele><time>2026-04-04T08:11:30.446Z</time></trkpt><trkpt lat="43.5552733" lon="3.12279"><ele>512.0</ele><time>2026-04-04T08:11:31.447Z</time></trkpt><trkpt lat="43.5552667" lon="3.1226683"><ele>512.0</ele><time>2026-04-04T08:11:32.444Z</time></trkpt><trkpt lat="43.555265" lon="3.1225517"><ele>511.99999999999994</ele><time>2026-04-04T08:11:33.443Z</time></trkpt><trkpt lat="43.5552667" lon="3.122445"><ele>512.0</ele><time>2026-04-04T08:11:34.444Z</time></trkpt><trkpt lat="43.55528" lon="3.1223483"><ele>510.49999999999994</ele><time>2026-04-04T08:11:35.444Z</time></trkpt><trkpt lat="43.555305" lon="3.1222583"><ele>509.0</ele><time>2026-04-04T08:11:36.447Z</time></trkpt><trkpt lat="43.5553533" lon="3.1221817"><ele>507.5</ele><time>2026-04-04T08:11:37.446Z</time></trkpt><trkpt lat="43.5554183" lon="3.12212"><ele>506.0</ele><time>2026-04-04T08:11:38.447Z</time></trkpt><trkpt lat="43.555495" lon="3.122055"><ele>504.49999999999994</ele><time>2026-04-04T08:11:39.444Z</time></trkpt><trkpt lat="43.5555917" lon="3.1219917"><ele>503.0</ele><time>2026-04-04T08:11:40.447Z</time></trkpt><trkpt lat="43.555695" lon="3.1219267"><ele>509.25</ele><time>2026-04-04T08:11:41.444Z</time></trkpt><trkpt lat="43.5557933" lon="3.12185"><ele>515.5</ele><time>2026-04-04T08:11:42.444Z</time></trkpt><trkpt lat="43.5558983" lon="3.1217667"><ele>521.75</ele><time>2026-04-04T08:11:43.444Z</time></trkpt><trkpt lat="43.5560217" lon="3.1216817"><ele>528.0</ele><time>2026-04-04T08:11:44.445Z</time></trkpt><trkpt lat="43.5561483" lon="3.12161"><ele>532.75</ele><time>2026-04-04T08:11:45.448Z</time></trkpt><trkpt lat="43.556275" lon="3.1215533"><ele>537.5</ele><time>2026-04-04T08:11:46.448Z</time></trkpt><trkpt lat="43.5563933" lon="3.1214967"><ele>542.25</ele><time>2026-04-04T08:11:47.443Z</time></trkpt><trkpt lat="43.556505" lon="3.1214233"><ele>547.0</ele><time>2026-04-04T08:11:48.444Z</time></trkpt><trkpt lat="43.5565933" lon="3.1213117"><ele>547.0</ele><time>2026-04-04T08:11:49.444Z</time></trkpt><trkpt lat="43.5566683" lon="3.1211717"><ele>547.0</ele><time>2026-04-04T08:11:50.445Z</time></trkpt><trkpt lat="43.55673" lon="3.121005"><ele>547.0</ele><time>2026-04-04T08:11:51.445Z</time></trkpt><trkpt lat="43.55678" lon="3.12082"><ele>547.0</ele><time>2026-04-04T08:11:52.445Z</time></trkpt><trkpt lat="43.556825" lon="3.1206217"><ele>547.3333333333334</ele><time>2026-04-04T08:11:53.445Z</time></trkpt><trkpt lat="43.5568667" lon="3.120405"><ele>547.6666666666666</ele><time>2026-04-04T08:11:54.444Z</time></trkpt><trkpt lat="43.5569067" lon="3.1201733"><ele>548.0</ele><time>2026-04-04T08:11:55.445Z</time></trkpt><trkpt lat="43.55695" lon="3.1199433"><ele>545.3333333333333</ele><time>2026-04-04T08:11:56.444Z</time></trkpt><trkpt lat="43.5570067" lon="3.1197367"><ele>542.6666666666666</ele><time>2026-04-04T08:11:57.444Z</time></trkpt><trkpt lat="43.55707" lon="3.1195383"><ele>540.0</ele><time>2026-04-04T08:11:58.444Z</time></trkpt><trkpt lat="43.5571217" lon="3.1193317"><ele>551.6666666666666</ele><time>2026-04-04T08:11:59.447Z</time></trkpt><trkpt lat="43.5571783" lon="3.1191283"><ele>563.3333333333333</ele><time>2026-04-04T08:12:00.444Z</time></trkpt><trkpt lat="43.5572383" lon="3.11892"><ele>575.0</ele><time>2026-04-04T08:12:01.444Z</time></trkpt><trkpt lat="43.557305" lon="3.1187133"><ele>575.0</ele><time>2026-04-04T08:12:02.443Z</time></trkpt><trkpt lat="43.557375" lon="3.11851"><ele>575.0</ele><time>2026-04-04T08:12:03.444Z</time></trkpt><trkpt lat="43.5574533" lon="3.1183183"><ele>575.0</ele><time>2026-04-04T08:12:04.445Z</time></trkpt><trkpt lat="43.5575317" lon="3.1181483"><ele>575.6</ele><time>2026-04-04T08:12:05.445Z</time></trkpt><trkpt lat="43.5576067" lon="3.1180083"><ele>576.2</ele><time>2026-04-04T08:12:06.443Z</time></trkpt><trkpt lat="43.5576883" lon="3.11789"><ele>576.8</ele><time>2026-04-04T08:12:07.444Z</time></trkpt><trkpt lat="43.5577583" lon="3.1177717"><ele>577.4</ele><time>2026-04-04T08:12:08.444Z</time></trkpt><trkpt lat="43.557805" lon="3.1176633"><ele>578.0</ele><time>2026-04-04T08:12:09.443Z</time></trkpt><trkpt lat="43.5578283" lon="3.11755"><ele>578.0</ele><time>2026-04-04T08:12:10.444Z</time></trkpt><trkpt lat="43.5578267" lon="3.1174317"><ele>578.0</ele><time>2026-04-04T08:12:11.445Z</time></trkpt><trkpt lat="43.5578117" lon="3.117325"><ele>578.0</ele><time>2026-04-04T08:12:12.445Z</time></trkpt><trkpt lat="43.5578033" lon="3.1172367"><ele>578.0</ele><time>2026-04-04T08:12:13.445Z</time></trkpt><trkpt lat="43.5578167" lon="3.1171433"><ele>578.0</ele><time>2026-04-04T08:12:15.446Z</time></trkpt><trkpt lat="43.5578767" lon="3.1171783"><ele>578.0</ele><time>2026-04-04T08:12:17.444Z</time></trkpt><trkpt lat="43.5579333" lon="3.117285"><ele>585.75</ele><time>2026-04-04T08:12:19.445Z</time></trkpt><trkpt lat="43.557965" lon="3.11742"><ele>593.5</ele><time>2026-04-04T08:12:20.444Z</time></trkpt><trkpt lat="43.558" lon="3.1175967"><ele>601.25</ele><time>2026-04-04T08:12:21.445Z</time></trkpt><trkpt lat="43.5580267" lon="3.11777"><ele>609.0</ele><time>2026-04-04T08:12:22.445Z</time></trkpt><trkpt lat="43.5580267" lon="3.117965"><ele>609.0</ele><time>2026-04-04T08:12:23.445Z</time></trkpt><trkpt lat="43.558015" lon="3.118175"><ele>609.0</ele><time>2026-04-04T08:12:24.444Z</time></trkpt><trkpt lat="43.5579983" lon="3.1183983"><ele>609.0</ele><time>2026-04-04T08:12:25.444Z</time></trkpt><trkpt lat="43.5579817" lon="3.118615"><ele>609.25</ele><time>2026-04-04T08:12:26.443Z</time></trkpt><trkpt lat="43.5579767" lon="3.1188133"><ele>609.5</ele><time>2026-04-04T08:12:27.444Z</time></trkpt><trkpt lat="43.5579867" lon="3.11901"><ele>609.75</ele><time>2026-04-04T08:12:28.446Z</time></trkpt><trkpt lat="43.5580133" lon="3.119195"><ele>610.0</ele><time>2026-04-04T08:12:29.444Z</time></trkpt><trkpt lat="43.5580617" lon="3.119365"><ele>611.75</ele><time>2026-04-04T08:12:30.447Z</time></trkpt><trkpt lat="43.5581133" lon="3.119525"><ele>613.5</ele><time>2026-04-04T08:12:31.446Z</time></trkpt><trkpt lat="43.55817" lon="3.11967"><ele>615.25</ele><time>2026-04-04T08:12:32.444Z</time></trkpt><trkpt lat="43.5582417" lon="3.1197817"><ele>617.0</ele><time>2026-04-04T08:12:33.444Z</time></trkpt><trkpt lat="43.5583283" lon="3.1198783"><ele>615.5</ele><time>2026-04-04T08:12:34.447Z</time></trkpt><trkpt lat="43.558425" lon="3.1199583"><ele>614.0</ele><time>2026-04-04T08:12:35.444Z</time></trkpt><trkpt lat="43.5585283" lon="3.120025"><ele>612.5</ele><time>2026-04-04T08:12:36.444Z</time></trkpt><trkpt lat="43.5586417" lon="3.1201"><ele>611.0</ele><time>2026-04-04T08:12:37.445Z</time></trkpt><trkpt lat="43.5587633" lon="3.120185"><ele>614.4</ele><time>2026-04-04T08:12:38.444Z</time></trkpt><trkpt lat="43.558875" lon="3.1202567"><ele>617.8</ele><time>2026-04-04T08:12:39.445Z</time></trkpt><trkpt lat="43.5589783" lon="3.1203233"><ele>621.1999999999999</ele><time>2026-04-04T08:12:40.444Z</time></trkpt><trkpt lat="43.5590517" lon="3.1203533"><ele>624.6</ele><time>2026-04-04T08:12:41.445Z</time></trkpt><trkpt lat="43.5591217" lon="3.120355"><ele>628.0</ele><time>2026-04-04T08:12:42.444Z</time></trkpt><trkpt lat="43.559185" lon="3.1203067"><ele>628.0</ele><time>2026-04-04T08:12:44.448Z</time></trkpt><trkpt lat="43.5591483" lon="3.1201917"><ele>628.0</ele><time>2026-04-04T08:12:47.446Z</time></trkpt><trkpt lat="43.559065" lon="3.120095"><ele>628.0</ele><time>2026-04-04T08:12:48.446Z</time></trkpt><trkpt lat="43.5589717" lon="3.119985"><ele>628.0</ele><time>2026-04-04T08:12:49.446Z</time></trkpt><trkpt lat="43.5589217" lon="3.11987"><ele>628.0</ele><time>2026-04-04T08:12:50.447Z</time></trkpt><trkpt lat="43.5588883" lon="3.11968"><ele>632.0</ele><time>2026-04-04T08:12:51.446Z</time></trkpt><trkpt lat="43.5588617" lon="3.1194883"><ele>636.0</ele><time>2026-04-04T08:12:52.446Z</time></trkpt><trkpt lat="43.558865" lon="3.119285"><ele>640.0</ele><time>2026-04-04T08:12:53.445Z</time></trkpt><trkpt lat="43.5588583" lon="3.119105"><ele>644.0</ele><time>2026-04-04T08:12:54.446Z</time></trkpt><trkpt lat="43.5588783" lon="3.118915"><ele>645.3333333333333</ele><time>2026-04-04T08:12:55.445Z</time></trkpt><trkpt lat="43.5589467" lon="3.1186833"><ele>646.6666666666666</ele><time>2026-04-04T08:12:56.445Z</time></trkpt><trkpt lat="43.55901" lon="3.1184667"><ele>648.0</ele><time>2026-04-04T08:12:57.445Z</time></trkpt><trkpt lat="43.5590583" lon="3.1181767"><ele>645.0</ele><time>2026-04-04T08:12:58.446Z</time></trkpt><trkpt lat="43.559115" lon="3.1179483"><ele>642.0</ele><time>2026-04-04T08:12:59.445Z</time></trkpt><trkpt lat="43.5591433" lon="3.1177267"><ele>639.0</ele><time>2026-04-04T08:13:00.446Z</time></trkpt><trkpt lat="43.55915" lon="3.11755"><ele>638.5</ele><time>2026-04-04T08:13:01.447Z</time></trkpt><trkpt lat="43.5591533" lon="3.1173717"><ele>638.0</ele><time>2026-04-04T08:13:02.443Z</time></trkpt><trkpt lat="43.559155" lon="3.117205"><ele>637.5</ele><time>2026-04-04T08:13:03.443Z</time></trkpt><trkpt lat="43.5591567" lon="3.1170433"><ele>637.0</ele><time>2026-04-04T08:13:04.446Z</time></trkpt><trkpt lat="43.5591483" lon="3.1168883"><ele>637.0</ele><time>2026-04-04T08:13:05.447Z</time></trkpt><trkpt lat="43.5591333" lon="3.1167333"><ele>637.0</ele><time>2026-04-04T08:13:06.446Z</time></trkpt><trkpt lat="43.559115" lon="3.116605"><ele>637.0</ele><time>2026-04-04T08:13:07.447Z</time></trkpt><trkpt lat="43.5590967" lon="3.1165033"><ele>637.0</ele><time>2026-04-04T08:13:08.446Z</time></trkpt><trkpt lat="43.5590683" lon="3.1163667"><ele>637.0</ele><time>2026-04-04T08:13:10.446Z</time></trkpt><trkpt lat="43.55905" lon="3.1162817"><ele>637.0</ele><time>2026-04-04T08:13:12.446Z</time></trkpt><trkpt lat="43.5591117" lon="3.116405"><ele>637.0</ele><time>2026-04-04T08:22:24.446Z</time></trkpt><trkpt lat="43.5591683" lon="3.11655"><ele>637.0</ele><time>2026-04-04T08:22:26.443Z</time></trkpt><trkpt lat="43.5592067" lon="3.11664"><ele>637.0</ele><time>2026-04-04T08:22:27.446Z</time></trkpt><trkpt lat="43.5592583" lon="3.1167333"><ele>637.0</ele><time>2026-04-04T08:22:28.446Z</time></trkpt><trkpt lat="43.559315" lon="3.1168383"><ele>637.0</ele><time>2026-04-04T08:22:29.447Z</time></trkpt><trkpt lat="43.559375" lon="3.116955"><ele>637.0</ele><time>2026-04-04T08:22:30.446Z</time></trkpt><trkpt lat="43.5594317" lon="3.1170667"><ele>637.0</ele><time>2026-04-04T08:22:31.446Z</time></trkpt><trkpt lat="43.5594967" lon="3.11716"><ele>637.0</ele><time>2026-04-04T08:22:32.444Z</time></trkpt><trkpt lat="43.5595717" lon="3.117235"><ele>637.0</ele><time>2026-04-04T08:22:33.444Z</time></trkpt><trkpt lat="43.5596667" lon="3.1172883"><ele>636.25</ele><time>2026-04-04T08:22:34.444Z</time></trkpt><trkpt lat="43.5597833" lon="3.1173417"><ele>635.5</ele><time>2026-04-04T08:22:35.447Z</time></trkpt><trkpt lat="43.5599017" lon="3.117395"><ele>634.75</ele><time>2026-04-04T08:22:36.446Z</time></trkpt><trkpt lat="43.5600267" lon="3.1174533"><ele>634.0</ele><time>2026-04-04T08:22:37.445Z</time></trkpt><trkpt lat="43.560155" lon="3.117525"><ele>634.0</ele><time>2026-04-04T08:22:38.443Z</time></trkpt><trkpt lat="43.5602867" lon="3.1176033"><ele>634.0</ele><time>2026-04-04T08:22:39.444Z</time></trkpt><trkpt lat="43.5604317" lon="3.117675"><ele>634.0</ele><time>2026-04-04T08:22:40.447Z</time></trkpt><trkpt lat="43.56057" lon="3.1177233"><ele>634.0</ele><time>2026-04-04T08:22:41.447Z</time></trkpt><trkpt lat="43.5606983" lon="3.117735"><ele>630.0</ele><time>2026-04-04T08:22:42.443Z</time></trkpt><trkpt lat="43.56083" lon="3.1177267"><ele>626.0</ele><time>2026-04-04T08:22:43.445Z</time></trkpt><trkpt lat="43.5609683" lon="3.11772"><ele>622.0</ele><time>2026-04-04T08:22:44.443Z</time></trkpt><trkpt lat="43.561105" lon="3.117715"><ele>618.0</ele><time>2026-04-04T08:22:45.444Z</time></trkpt><trkpt lat="43.5612367" lon="3.11771"><ele>618.0</ele><time>2026-04-04T08:22:46.444Z</time></trkpt><trkpt lat="43.5613517" lon="3.117705"><ele>618.0</ele><time>2026-04-04T08:22:47.444Z</time></trkpt><trkpt lat="43.561455" lon="3.1176883"><ele>618.0</ele><time>2026-04-04T08:22:48.444Z</time></trkpt><trkpt lat="43.5615483" lon="3.1176433"><ele>618.0</ele><time>2026-04-04T08:22:49.445Z</time></trkpt><trkpt lat="43.5616483" lon="3.1175667"><ele>618.0</ele><time>2026-04-04T08:22:50.444Z</time></trkpt><trkpt lat="43.5617433" lon="3.1174767"><ele>610.8333333333334</ele><time>2026-04-04T08:22:51.445Z</time></trkpt><trkpt lat="43.56183" lon="3.117395"><ele>603.6666666666666</ele><time>2026-04-04T08:22:52.443Z</time></trkpt><trkpt lat="43.5618917" lon="3.1173383"><ele>596.5</ele><time>2026-04-04T08:22:53.446Z</time></trkpt><trkpt lat="43.56194" lon="3.11727"><ele>589.3333333333333</ele><time>2026-04-04T08:22:55.448Z</time></trkpt><trkpt lat="43.5618783" lon="3.117235"><ele>582.1666666666666</ele><time>2026-04-04T08:22:57.447Z</time></trkpt><trkpt lat="43.5617867" lon="3.11726"><ele>575.0</ele><time>2026-04-04T08:22:59.447Z</time></trkpt><trkpt lat="43.5617167" lon="3.1173083"><ele>575.0</ele><time>2026-04-04T08:23:00.447Z</time></trkpt><trkpt lat="43.561625" lon="3.1173717"><ele>575.0</ele><time>2026-04-04T08:23:01.444Z</time></trkpt><trkpt lat="43.5615317" lon="3.1174083"><ele>575.0</ele><time>2026-04-04T08:23:02.443Z</time></trkpt><trkpt lat="43.5614333" lon="3.1174217"><ele>575.0</ele><time>2026-04-04T08:23:03.444Z</time></trkpt><trkpt lat="43.5613183" lon="3.11743"><ele>575.0</ele><time>2026-04-04T08:23:04.446Z</time></trkpt><trkpt lat="43.5612" lon="3.1174083"><ele>575.0</ele><time>2026-04-04T08:23:05.446Z</time></trkpt><trkpt lat="43.56108" lon="3.1173817"><ele>575.0</ele><time>2026-04-04T08:23:06.446Z</time></trkpt><trkpt lat="43.5609517" lon="3.11735"><ele>575.0</ele><time>2026-04-04T08:23:07.447Z</time></trkpt><trkpt lat="43.5608233" lon="3.1173167"><ele>575.0</ele><time>2026-04-04T08:23:08.446Z</time></trkpt><trkpt lat="43.5607067" lon="3.117265"><ele>575.0</ele><time>2026-04-04T08:23:09.446Z</time></trkpt><trkpt lat="43.5606017" lon="3.117195"><ele>575.0</ele><time>2026-04-04T08:23:10.444Z</time></trkpt><trkpt lat="43.56051" lon="3.1170983"><ele>575.0</ele><time>2026-04-04T08:23:11.443Z</time></trkpt><trkpt lat="43.560425" lon="3.1169833"><ele>575.0</ele><time>2026-04-04T08:23:12.443Z</time></trkpt><trkpt lat="43.5603367" lon="3.11685"><ele>581.25</ele><time>2026-04-04T08:23:13.444Z</time></trkpt><trkpt lat="43.5602433" lon="3.1167033"><ele>587.5</ele><time>2026-04-04T08:23:14.443Z</time></trkpt><trkpt lat="43.5601617" lon="3.1165667"><ele>593.75</ele><time>2026-04-04T08:23:15.444Z</time></trkpt><trkpt lat="43.5601017" lon="3.116435"><ele>600.0</ele><time>2026-04-04T08:23:16.445Z</time></trkpt><trkpt lat="43.56006" lon="3.116295"><ele>600.0</ele><time>2026-04-04T08:23:17.444Z</time></trkpt><trkpt lat="43.5600517" lon="3.1161383"><ele>600.0</ele><time>2026-04-04T08:23:18.443Z</time></trkpt><trkpt lat="43.5600717" lon="3.1160017"><ele>600.0</ele><time>2026-04-04T08:23:19.445Z</time></trkpt><trkpt lat="43.5601217" lon="3.115855"><ele>600.0</ele><time>2026-04-04T08:23:20.445Z</time></trkpt><trkpt lat="43.5601817" lon="3.115705"><ele>598.6</ele><time>2026-04-04T08:23:21.443Z</time></trkpt><trkpt lat="43.5602267" lon="3.115565"><ele>597.2</ele><time>2026-04-04T08:23:22.443Z</time></trkpt><trkpt lat="43.5602633" lon="3.11542"><ele>595.8</ele><time>2026-04-04T08:23:23.444Z</time></trkpt><trkpt lat="43.560285" lon="3.1152767"><ele>594.4</ele><time>2026-04-04T08:23:24.446Z</time></trkpt><trkpt lat="43.5602933" lon="3.115145"><ele>593.0</ele><time>2026-04-04T08:23:25.447Z</time></trkpt><trkpt lat="43.5602967" lon="3.1150367"><ele>593.0</ele><time>2026-04-04T08:23:26.446Z</time></trkpt><trkpt lat="43.5602817" lon="3.1149383"><ele>593.0</ele><time>2026-04-04T08:23:27.447Z</time></trkpt><trkpt lat="43.560245" lon="3.1148417"><ele>593.0</ele><time>2026-04-04T08:23:28.446Z</time></trkpt><trkpt lat="43.560185" lon="3.114735"><ele>593.0</ele><time>2026-04-04T08:23:29.446Z</time></trkpt><trkpt lat="43.5601317" lon="3.1146383"><ele>593.0</ele><time>2026-04-04T08:23:30.444Z</time></trkpt><trkpt lat="43.5600733" lon="3.1145483"><ele>593.0</ele><time>2026-04-04T08:23:31.446Z</time></trkpt><trkpt lat="43.5600217" lon="3.1144567"><ele>590.8</ele><time>2026-04-04T08:23:32.445Z</time></trkpt><trkpt lat="43.559975" lon="3.114365"><ele>588.5999999999999</ele><time>2026-04-04T08:23:33.447Z</time></trkpt><trkpt lat="43.5599283" lon="3.1142433"><ele>586.4000000000001</ele><time>2026-04-04T08:23:34.446Z</time></trkpt><trkpt lat="43.5599233" lon="3.1141317"><ele>584.2</ele><time>2026-04-04T08:23:35.445Z</time></trkpt><trkpt lat="43.55997" lon="3.1140167"><ele>582.0</ele><time>2026-04-04T08:23:36.445Z</time></trkpt><trkpt lat="43.56004" lon="3.113915"><ele>580.3333333333334</ele><time>2026-04-04T08:23:37.449Z</time></trkpt><trkpt lat="43.560095" lon="3.1138267"><ele>578.6666666666666</ele><time>2026-04-04T08:23:38.444Z</time></trkpt><trkpt lat="43.56013" lon="3.1137517"><ele>577.0</ele><time>2026-04-04T08:23:39.445Z</time></trkpt><trkpt lat="43.56015" lon="3.11365"><ele>575.3333333333333</ele><time>2026-04-04T08:23:41.446Z</time></trkpt><trkpt lat="43.5601233" lon="3.1135317"><ele>573.6666666666666</ele><time>2026-04-04T08:23:43.448Z</time></trkpt><trkpt lat="43.5600833" lon="3.1134483"><ele>572.0</ele><time>2026-04-04T08:23:44.447Z</time></trkpt><trkpt lat="43.5600283" lon="3.1133367"><ele>567.2</ele><time>2026-04-04T08:23:45.446Z</time></trkpt><trkpt lat="43.559995" lon="3.1132283"><ele>562.4000000000001</ele><time>2026-04-04T08:23:46.444Z</time></trkpt><trkpt lat="43.559975" lon="3.113105"><ele>557.5999999999999</ele><time>2026-04-04T08:23:47.445Z</time></trkpt><trkpt lat="43.5599683" lon="3.11298"><ele>552.8</ele><time>2026-04-04T08:23:48.446Z</time></trkpt><trkpt lat="43.5599583" lon="3.112855"><ele>548.0</ele><time>2026-04-04T08:23:49.444Z</time></trkpt><trkpt lat="43.5599467" lon="3.1127217"><ele>548.0</ele><time>2026-04-04T08:23:50.447Z</time></trkpt><trkpt lat="43.5599183" lon="3.1126067"><ele>548.0</ele><time>2026-04-04T08:23:51.447Z</time></trkpt><trkpt lat="43.5598767" lon="3.112505"><ele>548.0</ele><time>2026-04-04T08:23:52.446Z</time></trkpt><trkpt lat="43.5598217" lon="3.1124183"><ele>548.0</ele><time>2026-04-04T08:23:53.447Z</time></trkpt><trkpt lat="43.5597667" lon="3.1123567"><ele>548.0</ele><time>2026-04-04T08:23:54.447Z</time></trkpt><trkpt lat="43.5597033" lon="3.112315"><ele>548.0</ele><time>2026-04-04T08:23:55.444Z</time></trkpt><trkpt lat="43.5596233" lon="3.1122833"><ele>548.6</ele><time>2026-04-04T08:23:56.445Z</time></trkpt><trkpt lat="43.5595267" lon="3.1122683"><ele>549.1999999999999</ele><time>2026-04-04T08:23:57.447Z</time></trkpt><trkpt lat="43.559415" lon="3.1122783"><ele>549.8</ele><time>2026-04-04T08:23:58.445Z</time></trkpt><trkpt lat="43.5592967" lon="3.1123067"><ele>550.4</ele><time>2026-04-04T08:23:59.445Z</time></trkpt><trkpt lat="43.5591917" lon="3.1123333"><ele>551.0</ele><time>2026-04-04T08:24:00.444Z</time></trkpt><trkpt lat="43.559105" lon="3.1123517"><ele>551.0</ele><time>2026-04-04T08:24:01.445Z</time></trkpt><trkpt lat="43.5590317" lon="3.112365"><ele>551.0</ele><time>2026-04-04T08:24:02.444Z</time></trkpt><trkpt lat="43.5589283" lon="3.1122883"><ele>551.0</ele><time>2026-04-04T08:24:04.444Z</time></trkpt><trkpt lat="43.5589117" lon="3.112185"><ele>551.0</ele><time>2026-04-04T08:24:05.445Z</time></trkpt><trkpt lat="43.55891" lon="3.11203"><ele>551.0</ele><time>2026-04-04T08:24:06.447Z</time></trkpt><trkpt lat="43.558915" lon="3.1118567"><ele>551.0</ele><time>2026-04-04T08:24:07.447Z</time></trkpt><trkpt lat="43.5589017" lon="3.1117067"><ele>551.0</ele><time>2026-04-04T08:24:08.446Z</time></trkpt><trkpt lat="43.5588667" lon="3.1115783"><ele>551.0</ele><time>2026-04-04T08:24:09.446Z</time></trkpt><trkpt lat="43.558815" lon="3.11145"><ele>551.0</ele><time>2026-04-04T08:24:10.443Z</time></trkpt><trkpt lat="43.5587683" lon="3.1113417"><ele>551.0</ele><time>2026-04-04T08:24:11.448Z</time></trkpt><trkpt lat="43.5587317" lon="3.11124"><ele>551.1666666666666</ele><time>2026-04-04T08:24:12.447Z</time></trkpt><trkpt lat="43.5587117" lon="3.1111317"><ele>551.3333333333333</ele><time>2026-04-04T08:24:13.444Z</time></trkpt><trkpt lat="43.558705" lon="3.1110333"><ele>551.5</ele><time>2026-04-04T08:24:14.445Z</time></trkpt><trkpt lat="43.5586967" lon="3.11093"><ele>551.6666666666666</ele><time>2026-04-04T08:24:15.447Z</time></trkpt><trkpt lat="43.5587817" lon="3.1108317"><ele>551.8333333333334</ele><time>2026-04-04T08:24:16.447Z</time></trkpt><trkpt lat="43.558855" lon="3.110735"><ele>552.0</ele><time>2026-04-04T08:24:17.444Z</time></trkpt><trkpt lat="43.5589283" lon="3.1106467"><ele>555.6666666666666</ele><time>2026-04-04T08:24:18.445Z</time></trkpt><trkpt lat="43.5589683" lon="3.1105333"><ele>559.3333333333334</ele><time>2026-04-04T08:24:19.446Z</time></trkpt><trkpt lat="43.559005" lon="3.110415"><ele>563.0</ele><time>2026-04-04T08:24:20.445Z</time></trkpt><trkpt lat="43.559045" lon="3.1103133"><ele>566.6666666666667</ele><time>2026-04-04T08:24:21.446Z</time></trkpt><trkpt lat="43.5590883" lon="3.110225"><ele>570.3333333333334</ele><time>2026-04-04T08:24:22.446Z</time></trkpt><trkpt lat="43.55917" lon="3.1101483"><ele>574.0</ele><time>2026-04-04T08:24:23.443Z</time></trkpt><trkpt lat="43.5592467" lon="3.1100667"><ele>574.0</ele><time>2026-04-04T08:24:24.447Z</time></trkpt><trkpt lat="43.5593283" lon="3.1099617"><ele>574.0</ele><time>2026-04-04T08:24:25.444Z</time></trkpt><trkpt lat="43.5594417" lon="3.1098483"><ele>574.0</ele><time>2026-04-04T08:24:26.444Z</time></trkpt><trkpt lat="43.55957" lon="3.10973"><ele>574.0</ele><time>2026-04-04T08:24:27.445Z</time></trkpt><trkpt lat="43.559645" lon="3.1096417"><ele>569.2</ele><time>2026-04-04T08:24:28.446Z</time></trkpt><trkpt lat="43.559705" lon="3.10956"><ele>564.4</ele><time>2026-04-04T08:24:29.447Z</time></trkpt><trkpt lat="43.5597533" lon="3.1094683"><ele>559.6</ele><time>2026-04-04T08:24:30.447Z</time></trkpt><trkpt lat="43.5598067" lon="3.1093517"><ele>554.8</ele><time>2026-04-04T08:24:31.448Z</time></trkpt><trkpt lat="43.5598333" lon="3.1092233"><ele>550.0</ele><time>2026-04-04T08:24:32.444Z</time></trkpt><trkpt lat="43.5598383" lon="3.1090633"><ele>550.0</ele><time>2026-04-04T08:24:33.445Z</time></trkpt><trkpt lat="43.5598267" lon="3.1089033"><ele>550.0</ele><time>2026-04-04T08:24:34.445Z</time></trkpt><trkpt lat="43.559795" lon="3.108745"><ele>550.0</ele><time>2026-04-04T08:24:35.448Z</time></trkpt><trkpt lat="43.5597433" lon="3.1086033"><ele>550.0</ele><time>2026-04-04T08:24:36.445Z</time></trkpt><trkpt lat="43.5596883" lon="3.1084917"><ele>550.0</ele><time>2026-04-04T08:24:37.448Z</time></trkpt><trkpt lat="43.5596367" lon="3.1084017"><ele>550.0</ele><time>2026-04-04T08:24:38.443Z</time></trkpt><trkpt lat="43.5595983" lon="3.1083167"><ele>550.0</ele><time>2026-04-04T08:24:39.444Z</time></trkpt><trkpt lat="43.5595683" lon="3.1082333"><ele>550.0</ele><time>2026-04-04T08:24:40.444Z</time></trkpt><trkpt lat="43.5595917" lon="3.1081317"><ele>550.0</ele><time>2026-04-04T08:24:42.445Z</time></trkpt><trkpt lat="43.5597517" lon="3.1080967"><ele>550.0</ele><time>2026-04-04T08:24:44.444Z</time></trkpt><trkpt lat="43.5598617" lon="3.108105"><ele>555.0</ele><time>2026-04-04T08:24:45.445Z</time></trkpt><trkpt lat="43.55995" lon="3.1080883"><ele>560.0</ele><time>2026-04-04T08:24:46.444Z</time></trkpt><trkpt lat="43.5600383" lon="3.1080483"><ele>565.0</ele><time>2026-04-04T08:24:47.446Z</time></trkpt><trkpt lat="43.5601217" lon="3.1080017"><ele>570.0</ele><time>2026-04-04T08:24:48.443Z</time></trkpt><trkpt lat="43.5602033" lon="3.1079667"><ele>575.0</ele><time>2026-04-04T08:24:49.443Z</time></trkpt><trkpt lat="43.5602817" lon="3.1079433"><ele>580.0</ele><time>2026-04-04T08:24:50.442Z</time></trkpt><trkpt lat="43.56038" lon="3.1079517"><ele>580.0</ele><time>2026-04-04T08:24:51.447Z</time></trkpt><trkpt lat="43.56048" lon="3.1079933"><ele>580.0</ele><time>2026-04-04T08:24:52.444Z</time></trkpt><trkpt lat="43.5605549" lon="3.1080716"><ele>580.0</ele><time>2026-04-04T08:24:53.446Z</time></trkpt><trkpt lat="43.5606228" lon="3.1081731"><ele>580.0</ele><time>2026-04-04T08:24:54.444Z</time></trkpt><trkpt lat="43.5606934" lon="3.1082788"><ele>580.0</ele><time>2026-04-04T08:24:55.443Z</time></trkpt><trkpt lat="43.5607684" lon="3.1083542"><ele>574.5</ele><time>2026-04-04T08:24:56.442Z</time></trkpt><trkpt lat="43.5608348" lon="3.1084309"><ele>569.0</ele><time>2026-04-04T08:24:57.444Z</time></trkpt><trkpt lat="43.560892" lon="3.1084775"><ele>563.5</ele><time>2026-04-04T08:24:58.444Z</time></trkpt><trkpt lat="43.5610004" lon="3.1084949"><ele>558.0</ele><time>2026-04-04T08:25:00.446Z</time></trkpt><trkpt lat="43.5610728" lon="3.1084794"><ele>552.5</ele><time>2026-04-04T08:25:01.447Z</time></trkpt><trkpt lat="43.5611666" lon="3.1084748"><ele>547.0</ele><time>2026-04-04T08:25:02.446Z</time></trkpt><trkpt lat="43.561289" lon="3.1084916"><ele>546.0</ele><time>2026-04-04T08:25:03.445Z</time></trkpt><trkpt lat="43.5614171" lon="3.1085202"><ele>545.0</ele><time>2026-04-04T08:25:04.443Z</time></trkpt><trkpt lat="43.561535" lon="3.1085636"><ele>544.0</ele><time>2026-04-04T08:25:05.447Z</time></trkpt><trkpt lat="43.561643" lon="3.1086232"><ele>543.0</ele><time>2026-04-04T08:25:06.443Z</time></trkpt><trkpt lat="43.5617298" lon="3.1086895"><ele>543.0</ele><time>2026-04-04T08:25:07.443Z</time></trkpt><trkpt lat="43.5617953" lon="3.1087589"><ele>543.0</ele><time>2026-04-04T08:25:08.442Z</time></trkpt><trkpt lat="43.5618517" lon="3.1088087"><ele>543.0</ele><time>2026-04-04T08:25:09.443Z</time></trkpt><trkpt lat="43.5619708" lon="3.1088436"><ele>543.0</ele><time>2026-04-04T08:25:11.443Z</time></trkpt><trkpt lat="43.5620404" lon="3.1088371"><ele>543.0</ele><time>2026-04-04T08:25:12.446Z</time></trkpt><trkpt lat="43.5621124" lon="3.1088295"><ele>543.0</ele><time>2026-04-04T08:25:13.444Z</time></trkpt><trkpt lat="43.5621786" lon="3.1088159"><ele>539.5</ele><time>2026-04-04T08:25:14.444Z</time></trkpt><trkpt lat="43.5622434" lon="3.1087907"><ele>536.0</ele><time>2026-04-04T08:25:15.446Z</time></trkpt><trkpt lat="43.5623062" lon="3.1087278"><ele>532.5</ele><time>2026-04-04T08:25:16.443Z</time></trkpt><trkpt lat="43.5623649" lon="3.1086402"><ele>529.0</ele><time>2026-04-04T08:25:17.442Z</time></trkpt><trkpt lat="43.5624085" lon="3.1085376"><ele>525.5</ele><time>2026-04-04T08:25:18.444Z</time></trkpt><trkpt lat="43.5624479" lon="3.1084336"><ele>522.0</ele><time>2026-04-04T08:25:19.443Z</time></trkpt><trkpt lat="43.5624853" lon="3.108333"><ele>519.8000000000001</ele><time>2026-04-04T08:25:20.443Z</time></trkpt><trkpt lat="43.5625311" lon="3.1082429"><ele>517.6</ele><time>2026-04-04T08:25:21.444Z</time></trkpt><trkpt lat="43.5625915" lon="3.108158"><ele>515.4000000000001</ele><time>2026-04-04T08:25:22.444Z</time></trkpt><trkpt lat="43.562663" lon="3.1080817"><ele>513.2</ele><time>2026-04-04T08:25:23.443Z</time></trkpt><trkpt lat="43.5627593" lon="3.1080113"><ele>511.0</ele><time>2026-04-04T08:25:24.443Z</time></trkpt><trkpt lat="43.5628977" lon="3.1079435"><ele>511.0</ele><time>2026-04-04T08:25:25.445Z</time></trkpt><trkpt lat="43.5630389" lon="3.1078754"><ele>511.0</ele><time>2026-04-04T08:25:26.442Z</time></trkpt><trkpt lat="43.5631513" lon="3.1078179"><ele>511.0</ele><time>2026-04-04T08:25:27.444Z</time></trkpt><trkpt lat="43.5632485" lon="3.1077708"><ele>511.0</ele><time>2026-04-04T08:25:28.445Z</time></trkpt><trkpt lat="43.5633366" lon="3.1077416"><ele>511.0</ele><time>2026-04-04T08:25:29.444Z</time></trkpt><trkpt lat="43.563428" lon="3.1077314"><ele>511.0</ele><time>2026-04-04T08:25:30.444Z</time></trkpt><trkpt lat="43.5635156" lon="3.1077331"><ele>511.0</ele><time>2026-04-04T08:25:31.445Z</time></trkpt><trkpt lat="43.5635942" lon="3.1077474"><ele>511.0</ele><time>2026-04-04T08:25:32.443Z</time></trkpt><trkpt lat="43.5636604" lon="3.1077571"><ele>511.0</ele><time>2026-04-04T08:25:33.443Z</time></trkpt><trkpt lat="43.5637839" lon="3.1077246"><ele>506.0</ele><time>2026-04-04T08:25:35.445Z</time></trkpt><trkpt lat="43.5638462" lon="3.1075971"><ele>501.0</ele><time>2026-04-04T08:25:37.446Z</time></trkpt><trkpt lat="43.5637951" lon="3.10742"><ele>496.0</ele><time>2026-04-04T08:25:39.444Z</time></trkpt><trkpt lat="43.5637467" lon="3.1073079"><ele>491.0</ele><time>2026-04-04T08:25:40.445Z</time></trkpt><trkpt lat="43.5636772" lon="3.1071606"><ele>491.0</ele><time>2026-04-04T08:25:41.444Z</time></trkpt><trkpt lat="43.5635855" lon="3.1069921"><ele>491.0</ele><time>2026-04-04T08:25:42.443Z</time></trkpt><trkpt lat="43.5635052" lon="3.1068621"><ele>491.0</ele><time>2026-04-04T08:25:43.445Z</time></trkpt><trkpt lat="43.5634285" lon="3.1067718"><ele>491.0</ele><time>2026-04-04T08:25:44.443Z</time></trkpt><trkpt lat="43.5633419" lon="3.1067157"><ele>491.0</ele><time>2026-04-04T08:25:45.443Z</time></trkpt><trkpt lat="43.5632413" lon="3.1066709"><ele>491.0</ele><time>2026-04-04T08:25:46.443Z</time></trkpt><trkpt lat="43.5631176" lon="3.1066145"><ele>491.0</ele><time>2026-04-04T08:25:47.444Z</time></trkpt><trkpt lat="43.5629748" lon="3.1065519"><ele>491.0</ele><time>2026-04-04T08:25:48.443Z</time></trkpt><trkpt lat="43.5628279" lon="3.1064845"><ele>493.20000000000005</ele><time>2026-04-04T08:25:49.446Z</time></trkpt><trkpt lat="43.5626994" lon="3.1064329"><ele>495.40000000000003</ele><time>2026-04-04T08:25:50.448Z</time></trkpt><trkpt lat="43.5625958" lon="3.106388"><ele>497.6</ele><time>2026-04-04T08:25:51.443Z</time></trkpt><trkpt lat="43.5625174" lon="3.1063425"><ele>499.8</ele><time>2026-04-04T08:25:52.444Z</time></trkpt><trkpt lat="43.5624501" lon="3.1062881"><ele>502.0</ele><time>2026-04-04T08:25:53.445Z</time></trkpt><trkpt lat="43.5623978" lon="3.1062131"><ele>502.00000000000006</ele><time>2026-04-04T08:25:54.446Z</time></trkpt><trkpt lat="43.562358" lon="3.1061249"><ele>502.0</ele><time>2026-04-04T08:25:55.445Z</time></trkpt><trkpt lat="43.5623304" lon="3.1060401"><ele>502.0</ele><time>2026-04-04T08:25:56.445Z</time></trkpt><trkpt lat="43.5623234" lon="3.1059328"><ele>502.0</ele><time>2026-04-04T08:25:57.445Z</time></trkpt><trkpt lat="43.5623609" lon="3.1058087"><ele>502.00000000000006</ele><time>2026-04-04T08:25:58.445Z</time></trkpt><trkpt lat="43.5624112" lon="3.105691"><ele>502.0</ele><time>2026-04-04T08:25:59.445Z</time></trkpt><trkpt lat="43.5624901" lon="3.1055734"><ele>503.0</ele><time>2026-04-04T08:26:00.444Z</time></trkpt><trkpt lat="43.5625416" lon="3.1054615"><ele>504.00000000000006</ele><time>2026-04-04T08:26:01.444Z</time></trkpt><trkpt lat="43.5625878" lon="3.1053425"><ele>505.00000000000006</ele><time>2026-04-04T08:26:02.443Z</time></trkpt><trkpt lat="43.5626179" lon="3.1052101"><ele>506.0</ele><time>2026-04-04T08:26:03.447Z</time></trkpt><trkpt lat="43.5626513" lon="3.1050728"><ele>507.0</ele><time>2026-04-04T08:26:04.444Z</time></trkpt><trkpt lat="43.5626777" lon="3.1049343"><ele>508.8</ele><time>2026-04-04T08:26:05.444Z</time></trkpt><trkpt lat="43.5626927" lon="3.1047889"><ele>510.6</ele><time>2026-04-04T08:26:06.444Z</time></trkpt><trkpt lat="43.5627189" lon="3.1046488"><ele>512.4000000000001</ele><time>2026-04-04T08:26:07.444Z</time></trkpt><trkpt lat="43.5627566" lon="3.1045274"><ele>514.2</ele><time>2026-04-04T08:26:08.444Z</time></trkpt><trkpt lat="43.5628196" lon="3.1044137"><ele>516.0</ele><time>2026-04-04T08:26:09.446Z</time></trkpt><trkpt lat="43.5628957" lon="3.1043016"><ele>509.0</ele><time>2026-04-04T08:26:10.445Z</time></trkpt><trkpt lat="43.5629651" lon="3.1041919"><ele>502.0</ele><time>2026-04-04T08:26:11.442Z</time></trkpt><trkpt lat="43.5630272" lon="3.1040836"><ele>495.0</ele><time>2026-04-04T08:26:12.443Z</time></trkpt><trkpt lat="43.5630712" lon="3.1039807"><ele>488.0</ele><time>2026-04-04T08:26:13.447Z</time></trkpt><trkpt lat="43.5630926" lon="3.1038806"><ele>481.0</ele><time>2026-04-04T08:26:14.442Z</time></trkpt><trkpt lat="43.5630995" lon="3.1037808"><ele>474.0</ele><time>2026-04-04T08:26:15.446Z</time></trkpt><trkpt lat="43.5630944" lon="3.1036759"><ele>474.0</ele><time>2026-04-04T08:26:16.444Z</time></trkpt><trkpt lat="43.5630928" lon="3.1035655"><ele>474.0</ele><time>2026-04-04T08:26:17.446Z</time></trkpt><trkpt lat="43.563097" lon="3.103454"><ele>474.0</ele><time>2026-04-04T08:26:18.447Z</time></trkpt><trkpt lat="43.5631095" lon="3.1033435"><ele>474.0</ele><time>2026-04-04T08:26:19.444Z</time></trkpt><trkpt lat="43.5631523" lon="3.1032542"><ele>474.0</ele><time>2026-04-04T08:26:20.444Z</time></trkpt><trkpt lat="43.5632159" lon="3.1031727"><ele>474.0</ele><time>2026-04-04T08:26:21.446Z</time></trkpt><trkpt lat="43.5632741" lon="3.1030866"><ele>475.1666666666667</ele><time>2026-04-04T08:26:22.446Z</time></trkpt><trkpt lat="43.5633351" lon="3.1030015"><ele>476.33333333333337</ele><time>2026-04-04T08:26:23.443Z</time></trkpt><trkpt lat="43.5633914" lon="3.1029209"><ele>477.5</ele><time>2026-04-04T08:26:24.446Z</time></trkpt><trkpt lat="43.5634509" lon="3.1028558"><ele>478.6666666666667</ele><time>2026-04-04T08:26:25.443Z</time></trkpt><trkpt lat="43.5635387" lon="3.102819"><ele>479.83333333333337</ele><time>2026-04-04T08:26:26.444Z</time></trkpt><trkpt lat="43.5636348" lon="3.1028132"><ele>481.0</ele><time>2026-04-04T08:26:27.443Z</time></trkpt><trkpt lat="43.5637255" lon="3.1028483"><ele>481.0</ele><time>2026-04-04T08:26:28.444Z</time></trkpt><trkpt lat="43.563808" lon="3.1028974"><ele>481.0</ele><time>2026-04-04T08:26:29.444Z</time></trkpt><trkpt lat="43.5638765" lon="3.1029374"><ele>481.0</ele><time>2026-04-04T08:26:30.446Z</time></trkpt><trkpt lat="43.5639618" lon="3.1029473"><ele>481.0</ele><time>2026-04-04T08:26:31.443Z</time></trkpt><trkpt lat="43.5640804" lon="3.1028845"><ele>481.0</ele><time>2026-04-04T08:26:33.444Z</time></trkpt><trkpt lat="43.5641507" lon="3.1028391"><ele>481.00000000000006</ele><time>2026-04-04T08:26:34.444Z</time></trkpt><trkpt lat="43.5642314" lon="3.1028095"><ele>481.0</ele><time>2026-04-04T08:26:35.445Z</time></trkpt><trkpt lat="43.5643134" lon="3.1027997"><ele>481.0</ele><time>2026-04-04T08:26:36.444Z</time></trkpt><trkpt lat="43.5643881" lon="3.1028307"><ele>481.0</ele><time>2026-04-04T08:26:37.447Z</time></trkpt><trkpt lat="43.5644557" lon="3.102888"><ele>481.00000000000006</ele><time>2026-04-04T08:26:38.442Z</time></trkpt><trkpt lat="43.5645225" lon="3.1029417"><ele>481.0</ele><time>2026-04-04T08:26:39.446Z</time></trkpt><trkpt lat="43.5646351" lon="3.1029566"><ele>476.8</ele><time>2026-04-04T08:26:41.445Z</time></trkpt><trkpt lat="43.5647197" lon="3.1028335"><ele>472.6</ele><time>2026-04-04T08:26:43.446Z</time></trkpt><trkpt lat="43.5647739" lon="3.1027488"><ele>468.4</ele><time>2026-04-04T08:26:44.448Z</time></trkpt><trkpt lat="43.5648512" lon="3.1026714"><ele>464.2</ele><time>2026-04-04T08:26:45.446Z</time></trkpt><trkpt lat="43.5649289" lon="3.1026093"><ele>460.0</ele><time>2026-04-04T08:26:46.446Z</time></trkpt><trkpt lat="43.5650012" lon="3.102552"><ele>460.00000000000006</ele><time>2026-04-04T08:26:47.444Z</time></trkpt><trkpt lat="43.5650681" lon="3.1024934"><ele>460.0</ele><time>2026-04-04T08:26:48.444Z</time></trkpt><trkpt lat="43.5651311" lon="3.1024334"><ele>460.0</ele><time>2026-04-04T08:26:49.445Z</time></trkpt><trkpt lat="43.5651944" lon="3.1023821"><ele>460.0</ele><time>2026-04-04T08:26:50.444Z</time></trkpt><trkpt lat="43.5652564" lon="3.1023517"><ele>460.00000000000006</ele><time>2026-04-04T08:26:51.444Z</time></trkpt><trkpt lat="43.5653278" lon="3.1023376"><ele>460.0</ele><time>2026-04-04T08:26:52.446Z</time></trkpt><trkpt lat="43.5654182" lon="3.1023496"><ele>460.0</ele><time>2026-04-04T08:26:53.446Z</time></trkpt><trkpt lat="43.5655104" lon="3.1023788"><ele>460.0</ele><time>2026-04-04T08:26:54.444Z</time></trkpt><trkpt lat="43.5656057" lon="3.1024566"><ele>460.0</ele><time>2026-04-04T08:26:55.447Z</time></trkpt><trkpt lat="43.5656829" lon="3.1025735"><ele>460.0</ele><time>2026-04-04T08:26:56.445Z</time></trkpt><trkpt lat="43.5657564" lon="3.1026762"><ele>460.0</ele><time>2026-04-04T08:26:57.445Z</time></trkpt><trkpt lat="43.5658222" lon="3.1027411"><ele>460.0</ele><time>2026-04-04T08:26:58.446Z</time></trkpt><trkpt lat="43.5659335" lon="3.1027815"><ele>460.0</ele><time>2026-04-04T08:27:00.445Z</time></trkpt><trkpt lat="43.5660328" lon="3.1027346"><ele>460.0</ele><time>2026-04-04T08:27:02.446Z</time></trkpt><trkpt lat="43.5660782" lon="3.1025855"><ele>460.0</ele><time>2026-04-04T08:27:04.444Z</time></trkpt><trkpt lat="43.5660796" lon="3.1024697"><ele>460.0</ele><time>2026-04-04T08:27:05.443Z</time></trkpt><trkpt lat="43.5660882" lon="3.1023339"><ele>460.0</ele><time>2026-04-04T08:27:06.444Z</time></trkpt><trkpt lat="43.5661" lon="3.102195"><ele>460.0</ele><time>2026-04-04T08:27:07.443Z</time></trkpt><trkpt lat="43.566125" lon="3.1020617"><ele>460.0</ele><time>2026-04-04T08:27:08.444Z</time></trkpt><trkpt lat="43.5661517" lon="3.1019283"><ele>460.0</ele><time>2026-04-04T08:27:09.445Z</time></trkpt><trkpt lat="43.5661917" lon="3.10179"><ele>460.0</ele><time>2026-04-04T08:27:10.443Z</time></trkpt><trkpt lat="43.56623" lon="3.101655"><ele>460.50000000000006</ele><time>2026-04-04T08:27:11.443Z</time></trkpt><trkpt lat="43.5662667" lon="3.10153"><ele>461.0</ele><time>2026-04-04T08:27:12.444Z</time></trkpt><trkpt lat="43.566315" lon="3.10143"><ele>461.5</ele><time>2026-04-04T08:27:13.444Z</time></trkpt><trkpt lat="43.5663717" lon="3.1013333"><ele>462.0</ele><time>2026-04-04T08:27:14.443Z</time></trkpt><trkpt lat="43.5664367" lon="3.101265"><ele>462.50000000000006</ele><time>2026-04-04T08:27:15.444Z</time></trkpt><trkpt lat="43.5665133" lon="3.10124"><ele>463.0</ele><time>2026-04-04T08:27:16.444Z</time></trkpt><trkpt lat="43.5666233" lon="3.1012833"><ele>463.0</ele><time>2026-04-04T08:27:17.443Z</time></trkpt><trkpt lat="43.5667283" lon="3.1013583"><ele>462.99999999999994</ele><time>2026-04-04T08:27:18.445Z</time></trkpt><trkpt lat="43.5668067" lon="3.1014067"><ele>462.99999999999994</ele><time>2026-04-04T08:27:19.445Z</time></trkpt><trkpt lat="43.566885" lon="3.1014483"><ele>463.0</ele><time>2026-04-04T08:27:20.443Z</time></trkpt><trkpt lat="43.5669783" lon="3.101495"><ele>463.0</ele><time>2026-04-04T08:27:21.444Z</time></trkpt><trkpt lat="43.5670883" lon="3.101525"><ele>462.0</ele><time>2026-04-04T08:27:22.443Z</time></trkpt><trkpt lat="43.567205" lon="3.1015567"><ele>461.0</ele><time>2026-04-04T08:27:23.443Z</time></trkpt><trkpt lat="43.5673367" lon="3.1015917"><ele>460.0</ele><time>2026-04-04T08:27:24.443Z</time></trkpt><trkpt lat="43.56746" lon="3.1016283"><ele>459.0</ele><time>2026-04-04T08:27:25.447Z</time></trkpt><trkpt lat="43.56758" lon="3.101675"><ele>452.4</ele><time>2026-04-04T08:27:26.444Z</time></trkpt><trkpt lat="43.56769" lon="3.1017233"><ele>445.79999999999995</ele><time>2026-04-04T08:27:27.444Z</time></trkpt><trkpt lat="43.5677933" lon="3.10178"><ele>439.20000000000005</ele><time>2026-04-04T08:27:28.446Z</time></trkpt><trkpt lat="43.5678833" lon="3.1018433"><ele>432.6</ele><time>2026-04-04T08:27:29.444Z</time></trkpt><trkpt lat="43.5679567" lon="3.10191"><ele>426.0</ele><time>2026-04-04T08:27:30.444Z</time></trkpt><trkpt lat="43.5680183" lon="3.1019717"><ele>424.0</ele><time>2026-04-04T08:27:31.444Z</time></trkpt><trkpt lat="43.5680783" lon="3.1020267"><ele>422.0</ele><time>2026-04-04T08:27:32.443Z</time></trkpt><trkpt lat="43.5681783" lon="3.102055"><ele>420.0</ele><time>2026-04-04T08:27:34.447Z</time></trkpt><trkpt lat="43.56826" lon="3.1020117"><ele>418.0</ele><time>2026-04-04T08:27:36.446Z</time></trkpt><trkpt lat="43.5683317" lon="3.1018867"><ele>416.0</ele><time>2026-04-04T08:27:38.444Z</time></trkpt><trkpt lat="43.56838" lon="3.10181"><ele>415.99999999999994</ele><time>2026-04-04T08:27:39.446Z</time></trkpt><trkpt lat="43.5684317" lon="3.1017283"><ele>416.0</ele><time>2026-04-04T08:27:40.447Z</time></trkpt><trkpt lat="43.5684867" lon="3.1016317"><ele>416.0</ele><time>2026-04-04T08:27:41.446Z</time></trkpt><trkpt lat="43.5685467" lon="3.1015383"><ele>416.0</ele><time>2026-04-04T08:27:42.445Z</time></trkpt><trkpt lat="43.5686067" lon="3.10146"><ele>415.99999999999994</ele><time>2026-04-04T08:27:43.446Z</time></trkpt><trkpt lat="43.568665" lon="3.10138"><ele>416.0</ele><time>2026-04-04T08:27:44.446Z</time></trkpt><trkpt lat="43.5687167" lon="3.1013033"><ele>418.20000000000005</ele><time>2026-04-04T08:27:45.446Z</time></trkpt><trkpt lat="43.56877" lon="3.1012417"><ele>420.40000000000003</ele><time>2026-04-04T08:27:46.444Z</time></trkpt><trkpt lat="43.5688583" lon="3.10114"><ele>422.6</ele><time>2026-04-04T08:27:48.443Z</time></trkpt><trkpt lat="43.5689283" lon="3.1011317"><ele>424.8</ele><time>2026-04-04T08:27:50.444Z</time></trkpt><trkpt lat="43.5689117" lon="3.1012567"><ele>427.0</ele><time>2026-04-04T08:27:52.444Z</time></trkpt><trkpt lat="43.5688067" lon="3.1014183"><ele>427.0</ele><time>2026-04-04T08:27:54.443Z</time></trkpt><trkpt lat="43.568735" lon="3.1015367"><ele>427.00000000000006</ele><time>2026-04-04T08:27:55.444Z</time></trkpt><trkpt lat="43.56868" lon="3.1016667"><ele>427.00000000000006</ele><time>2026-04-04T08:27:56.442Z</time></trkpt><trkpt lat="43.5686417" lon="3.1018"><ele>427.0</ele><time>2026-04-04T08:27:57.444Z</time></trkpt><trkpt lat="43.5686017" lon="3.1019517"><ele>427.0</ele><time>2026-04-04T08:27:58.444Z</time></trkpt><trkpt lat="43.5685617" lon="3.1021167"><ele>424.8</ele><time>2026-04-04T08:27:59.447Z</time></trkpt><trkpt lat="43.5685183" lon="3.102275"><ele>422.6</ele><time>2026-04-04T08:28:00.443Z</time></trkpt><trkpt lat="43.5684767" lon="3.1024117"><ele>420.40000000000003</ele><time>2026-04-04T08:28:01.444Z</time></trkpt><trkpt lat="43.5684333" lon="3.1025233"><ele>418.20000000000005</ele><time>2026-04-04T08:28:02.445Z</time></trkpt><trkpt lat="43.568385" lon="3.1026183"><ele>416.0</ele><time>2026-04-04T08:28:03.444Z</time></trkpt><trkpt lat="43.5683383" lon="3.1026983"><ele>411.8333333333333</ele><time>2026-04-04T08:28:04.446Z</time></trkpt><trkpt lat="43.5682667" lon="3.1027517"><ele>407.66666666666663</ele><time>2026-04-04T08:28:05.444Z</time></trkpt><trkpt lat="43.5681833" lon="3.1027833"><ele>403.5</ele><time>2026-04-04T08:28:06.445Z</time></trkpt><trkpt lat="43.568115" lon="3.102815"><ele>399.33333333333337</ele><time>2026-04-04T08:28:07.444Z</time></trkpt><trkpt lat="43.5680183" lon="3.10279"><ele>395.1666666666667</ele><time>2026-04-04T08:28:08.444Z</time></trkpt><trkpt lat="43.5679283" lon="3.1027017"><ele>391.0</ele><time>2026-04-04T08:28:09.443Z</time></trkpt><trkpt lat="43.5678333" lon="3.1026367"><ele>390.75</ele><time>2026-04-04T08:28:10.444Z</time></trkpt><trkpt lat="43.5677217" lon="3.102555"><ele>390.5</ele><time>2026-04-04T08:28:11.443Z</time></trkpt><trkpt lat="43.5676033" lon="3.1024817"><ele>390.25</ele><time>2026-04-04T08:28:12.445Z</time></trkpt><trkpt lat="43.5674867" lon="3.1024383"><ele>390.0</ele><time>2026-04-04T08:28:13.443Z</time></trkpt><trkpt lat="43.5673617" lon="3.1024167"><ele>390.0</ele><time>2026-04-04T08:28:14.443Z</time></trkpt><trkpt lat="43.5672367" lon="3.1024183"><ele>390.0</ele><time>2026-04-04T08:28:15.446Z</time></trkpt><trkpt lat="43.5671167" lon="3.1024233"><ele>390.0</ele><time>2026-04-04T08:28:16.444Z</time></trkpt><trkpt lat="43.5670083" lon="3.1024233"><ele>390.0</ele><time>2026-04-04T08:28:17.445Z</time></trkpt><trkpt lat="43.566915" lon="3.1024167"><ele>390.0</ele><time>2026-04-04T08:28:18.443Z</time></trkpt><trkpt lat="43.5668417" lon="3.102425"><ele>392.5</ele><time>2026-04-04T08:28:19.443Z</time></trkpt><trkpt lat="43.56678" lon="3.10246"><ele>395.0</ele><time>2026-04-04T08:28:20.442Z</time></trkpt><trkpt lat="43.56673" lon="3.1025267"><ele>397.5</ele><time>2026-04-04T08:28:21.444Z</time></trkpt><trkpt lat="43.5667017" lon="3.1026183"><ele>400.0</ele><time>2026-04-04T08:28:22.444Z</time></trkpt><trkpt lat="43.5666967" lon="3.1027233"><ele>402.5</ele><time>2026-04-04T08:28:23.444Z</time></trkpt><trkpt lat="43.5667" lon="3.1028367"><ele>405.0</ele><time>2026-04-04T08:28:24.444Z</time></trkpt><trkpt lat="43.5667417" lon="3.102975"><ele>405.0</ele><time>2026-04-04T08:28:25.444Z</time></trkpt><trkpt lat="43.56679" lon="3.1031417"><ele>405.0</ele><time>2026-04-04T08:28:26.444Z</time></trkpt><trkpt lat="43.566855" lon="3.1033217"><ele>405.0</ele><time>2026-04-04T08:28:27.444Z</time></trkpt><trkpt lat="43.5668983" lon="3.1034717"><ele>405.0</ele><time>2026-04-04T08:28:28.444Z</time></trkpt><trkpt lat="43.566925" lon="3.1036217"><ele>402.75</ele><time>2026-04-04T08:28:29.443Z</time></trkpt><trkpt lat="43.56694" lon="3.1037883"><ele>400.5</ele><time>2026-04-04T08:28:30.446Z</time></trkpt><trkpt lat="43.5669417" lon="3.1039717"><ele>398.25</ele><time>2026-04-04T08:28:31.444Z</time></trkpt><trkpt lat="43.566935" lon="3.1041483"><ele>396.0</ele><time>2026-04-04T08:28:32.445Z</time></trkpt><trkpt lat="43.566925" lon="3.1043333"><ele>394.20000000000005</ele><time>2026-04-04T08:28:33.446Z</time></trkpt><trkpt lat="43.56692" lon="3.1044917"><ele>392.40000000000003</ele><time>2026-04-04T08:28:34.444Z</time></trkpt><trkpt lat="43.566915" lon="3.104655"><ele>390.6</ele><time>2026-04-04T08:28:35.446Z</time></trkpt><trkpt lat="43.5669083" lon="3.104795"><ele>388.8</ele><time>2026-04-04T08:28:36.446Z</time></trkpt><trkpt lat="43.566895" lon="3.1049133"><ele>387.0</ele><time>2026-04-04T08:28:37.444Z</time></trkpt><trkpt lat="43.5668733" lon="3.1050183"><ele>383.5</ele><time>2026-04-04T08:28:38.444Z</time></trkpt><trkpt lat="43.5668467" lon="3.1051117"><ele>380.0</ele><time>2026-04-04T08:28:39.444Z</time></trkpt><trkpt lat="43.56681" lon="3.1051983"><ele>376.5</ele><time>2026-04-04T08:28:40.446Z</time></trkpt><trkpt lat="43.56675" lon="3.1052567"><ele>373.0</ele><time>2026-04-04T08:28:41.446Z</time></trkpt><trkpt lat="43.566685" lon="3.1052583"><ele>369.5</ele><time>2026-04-04T08:28:42.445Z</time></trkpt><trkpt lat="43.5665817" lon="3.1051917"><ele>366.0</ele><time>2026-04-04T08:28:43.446Z</time></trkpt><trkpt lat="43.566475" lon="3.1051033"><ele>366.0</ele><time>2026-04-04T08:28:44.447Z</time></trkpt><trkpt lat="43.5663833" lon="3.1050983"><ele>366.0</ele><time>2026-04-04T08:28:45.444Z</time></trkpt><trkpt lat="43.5662667" lon="3.1050183"><ele>366.0</ele><time>2026-04-04T08:28:46.445Z</time></trkpt><trkpt lat="43.56619" lon="3.105005"><ele>366.0</ele><time>2026-04-04T08:28:47.444Z</time></trkpt><trkpt lat="43.566115" lon="3.1049883"><ele>366.0</ele><time>2026-04-04T08:28:48.444Z</time></trkpt><trkpt lat="43.5660367" lon="3.1049583"><ele>370.0</ele><time>2026-04-04T08:28:49.445Z</time></trkpt><trkpt lat="43.56596" lon="3.1048933"><ele>374.0</ele><time>2026-04-04T08:28:50.444Z</time></trkpt><trkpt lat="43.5658833" lon="3.10484"><ele>378.0</ele><time>2026-04-04T08:28:51.443Z</time></trkpt><trkpt lat="43.5658133" lon="3.1047967"><ele>382.0</ele><time>2026-04-04T08:28:52.444Z</time></trkpt><trkpt lat="43.565755" lon="3.104745"><ele>386.0</ele><time>2026-04-04T08:28:53.444Z</time></trkpt><trkpt lat="43.5656983" lon="3.10469"><ele>390.0</ele><time>2026-04-04T08:28:54.443Z</time></trkpt><trkpt lat="43.565645" lon="3.1046167"><ele>390.0</ele><time>2026-04-04T08:28:55.446Z</time></trkpt><trkpt lat="43.5656033" lon="3.1045483"><ele>390.0</ele><time>2026-04-04T08:28:56.443Z</time></trkpt><trkpt lat="43.56552" lon="3.104475"><ele>390.0</ele><time>2026-04-04T08:28:58.443Z</time></trkpt><trkpt lat="43.5654267" lon="3.1045033"><ele>390.0</ele><time>2026-04-04T08:29:00.445Z</time></trkpt><trkpt lat="43.5653783" lon="3.104585"><ele>390.0</ele><time>2026-04-04T08:29:01.445Z</time></trkpt><trkpt lat="43.565335" lon="3.1046733"><ele>390.0</ele><time>2026-04-04T08:29:02.444Z</time></trkpt><trkpt lat="43.5652883" lon="3.1047517"><ele>390.1666666666667</ele><time>2026-04-04T08:29:03.447Z</time></trkpt><trkpt lat="43.5651917" lon="3.1048683"><ele>390.33333333333337</ele><time>2026-04-04T08:29:05.444Z</time></trkpt><trkpt lat="43.56515" lon="3.1049417"><ele>390.5</ele><time>2026-04-04T08:29:06.446Z</time></trkpt><trkpt lat="43.5651117" lon="3.10502"><ele>390.6666666666667</ele><time>2026-04-04T08:29:07.444Z</time></trkpt><trkpt lat="43.5650967" lon="3.1051067"><ele>390.83333333333337</ele><time>2026-04-04T08:29:08.444Z</time></trkpt><trkpt lat="43.5651283" lon="3.1052467"><ele>391.0</ele><time>2026-04-04T08:29:10.445Z</time></trkpt><trkpt lat="43.5651733" lon="3.1053117"><ele>386.8</ele><time>2026-04-04T08:29:11.444Z</time></trkpt><trkpt lat="43.5652833" lon="3.105375"><ele>382.6</ele><time>2026-04-04T08:29:12.445Z</time></trkpt><trkpt lat="43.5653717" lon="3.1054533"><ele>378.4</ele><time>2026-04-04T08:29:13.445Z</time></trkpt><trkpt lat="43.565435" lon="3.10554"><ele>374.2</ele><time>2026-04-04T08:29:14.444Z</time></trkpt><trkpt lat="43.565485" lon="3.105645"><ele>370.0</ele><time>2026-04-04T08:29:15.444Z</time></trkpt><trkpt lat="43.5655467" lon="3.1057483"><ele>366.3333333333333</ele><time>2026-04-04T08:29:16.445Z</time></trkpt><trkpt lat="43.5656033" lon="3.1058467"><ele>362.66666666666663</ele><time>2026-04-04T08:29:17.443Z</time></trkpt><trkpt lat="43.56566" lon="3.1059333"><ele>359.0</ele><time>2026-04-04T08:29:18.444Z</time></trkpt><trkpt lat="43.5657183" lon="3.1060117"><ele>355.3333333333333</ele><time>2026-04-04T08:29:19.444Z</time></trkpt><trkpt lat="43.565805" lon="3.1060783"><ele>351.6666666666667</ele><time>2026-04-04T08:29:20.443Z</time></trkpt><trkpt lat="43.5658833" lon="3.1061283"><ele>348.0</ele><time>2026-04-04T08:29:21.444Z</time></trkpt><trkpt lat="43.5659667" lon="3.1061583"><ele>348.0</ele><time>2026-04-04T08:29:22.444Z</time></trkpt><trkpt lat="43.5660467" lon="3.1062017"><ele>348.0</ele><time>2026-04-04T08:29:23.444Z</time></trkpt><trkpt lat="43.5661117" lon="3.1062567"><ele>348.0</ele><time>2026-04-04T08:29:24.443Z</time></trkpt><trkpt lat="43.5661696" lon="3.1063183"><ele>348.0</ele><time>2026-04-04T08:29:25.444Z</time></trkpt><trkpt lat="43.5662158" lon="3.1063886"><ele>348.0</ele><time>2026-04-04T08:29:26.443Z</time></trkpt><trkpt lat="43.5662626" lon="3.1064781"><ele>348.0</ele><time>2026-04-04T08:29:27.444Z</time></trkpt><trkpt lat="43.5663248" lon="3.1065875"><ele>343.59999999999997</ele><time>2026-04-04T08:29:28.444Z</time></trkpt><trkpt lat="43.5663997" lon="3.1067038"><ele>339.2</ele><time>2026-04-04T08:29:29.445Z</time></trkpt><trkpt lat="43.5664753" lon="3.1068142"><ele>334.8</ele><time>2026-04-04T08:29:30.445Z</time></trkpt><trkpt lat="43.566558" lon="3.1069028"><ele>330.4</ele><time>2026-04-04T08:29:31.445Z</time></trkpt><trkpt lat="43.5666547" lon="3.1069652"><ele>326.0</ele><time>2026-04-04T08:29:32.444Z</time></trkpt><trkpt lat="43.5667626" lon="3.1070138"><ele>326.0</ele><time>2026-04-04T08:29:33.444Z</time></trkpt><trkpt lat="43.5668662" lon="3.1070578"><ele>326.0</ele><time>2026-04-04T08:29:34.446Z</time></trkpt><trkpt lat="43.5669524" lon="3.107101"><ele>326.0</ele><time>2026-04-04T08:29:35.444Z</time></trkpt><trkpt lat="43.5670177" lon="3.1071523"><ele>326.0</ele><time>2026-04-04T08:29:36.443Z</time></trkpt><trkpt lat="43.5670708" lon="3.1072672"><ele>326.0</ele><time>2026-04-04T08:29:38.443Z</time></trkpt><trkpt lat="43.5670144" lon="3.1073809"><ele>327.6</ele><time>2026-04-04T08:29:40.444Z</time></trkpt><trkpt lat="43.5669613" lon="3.1074666"><ele>329.20000000000005</ele><time>2026-04-04T08:29:41.444Z</time></trkpt><trkpt lat="43.5669079" lon="3.1075843"><ele>330.79999999999995</ele><time>2026-04-04T08:29:42.444Z</time></trkpt><trkpt lat="43.5668644" lon="3.1077142"><ele>332.4</ele><time>2026-04-04T08:29:43.443Z</time></trkpt><trkpt lat="43.5668224" lon="3.1078563"><ele>334.0</ele><time>2026-04-04T08:29:44.444Z</time></trkpt><trkpt lat="43.5667857" lon="3.1079972"><ele>334.0</ele><time>2026-04-04T08:29:45.443Z</time></trkpt><trkpt lat="43.5667488" lon="3.1081355"><ele>334.0</ele><time>2026-04-04T08:29:46.443Z</time></trkpt><trkpt lat="43.5667144" lon="3.1082747"><ele>334.0</ele><time>2026-04-04T08:29:47.443Z</time></trkpt><trkpt lat="43.566696" lon="3.108417"><ele>334.0</ele><time>2026-04-04T08:29:48.443Z</time></trkpt><trkpt lat="43.5666894" lon="3.1085592"><ele>334.0</ele><time>2026-04-04T08:29:49.446Z</time></trkpt><trkpt lat="43.5666905" lon="3.1086936"><ele>333.0</ele><time>2026-04-04T08:29:50.444Z</time></trkpt><trkpt lat="43.5667062" lon="3.1088129"><ele>332.0</ele><time>2026-04-04T08:29:51.444Z</time></trkpt><trkpt lat="43.566723" lon="3.1089108"><ele>331.0</ele><time>2026-04-04T08:29:52.445Z</time></trkpt><trkpt lat="43.5667823" lon="3.1089768"><ele>330.0</ele><time>2026-04-04T08:29:54.444Z</time></trkpt><trkpt lat="43.5668359" lon="3.108847"><ele>329.0</ele><time>2026-04-04T08:29:56.444Z</time></trkpt><trkpt lat="43.56683" lon="3.10874"><ele>328.0</ele><time>2026-04-04T08:29:57.443Z</time></trkpt><trkpt lat="43.5668267" lon="3.10865"><ele>328.0</ele><time>2026-04-04T08:29:58.444Z</time></trkpt><trkpt lat="43.56683" lon="3.1085433"><ele>328.0</ele><time>2026-04-04T08:29:59.443Z</time></trkpt><trkpt lat="43.5668433" lon="3.108425"><ele>328.0</ele><time>2026-04-04T08:30:00.443Z</time></trkpt><trkpt lat="43.5668717" lon="3.10829"><ele>328.0</ele><time>2026-04-04T08:30:01.444Z</time></trkpt><trkpt lat="43.56692" lon="3.1081117"><ele>328.0</ele><time>2026-04-04T08:30:02.443Z</time></trkpt><trkpt lat="43.5669883" lon="3.1079533"><ele>324.0</ele><time>2026-04-04T08:30:03.444Z</time></trkpt><trkpt lat="43.567065" lon="3.1077933"><ele>320.0</ele><time>2026-04-04T08:30:04.444Z</time></trkpt><trkpt lat="43.5671417" lon="3.1076367"><ele>316.0</ele><time>2026-04-04T08:30:05.443Z</time></trkpt><trkpt lat="43.567225" lon="3.1074983"><ele>312.0</ele><time>2026-04-04T08:30:06.444Z</time></trkpt><trkpt lat="43.5672867" lon="3.1073717"><ele>310.5</ele><time>2026-04-04T08:30:07.444Z</time></trkpt><trkpt lat="43.5673417" lon="3.107245"><ele>309.0</ele><time>2026-04-04T08:30:08.443Z</time></trkpt><trkpt lat="43.5674083" lon="3.1071083"><ele>307.5</ele><time>2026-04-04T08:30:09.444Z</time></trkpt><trkpt lat="43.5674733" lon="3.1069467"><ele>306.0</ele><time>2026-04-04T08:30:10.444Z</time></trkpt><trkpt lat="43.5675167" lon="3.1067917"><ele>306.0</ele><time>2026-04-04T08:30:11.443Z</time></trkpt><trkpt lat="43.567555" lon="3.106655"><ele>306.0</ele><time>2026-04-04T08:30:12.445Z</time></trkpt><trkpt lat="43.567605" lon="3.106535"><ele>306.0</ele><time>2026-04-04T08:30:13.443Z</time></trkpt><trkpt lat="43.567685" lon="3.1064083"><ele>306.0</ele><time>2026-04-04T08:30:14.443Z</time></trkpt><trkpt lat="43.56779" lon="3.1062683"><ele>304.25</ele><time>2026-04-04T08:30:15.445Z</time></trkpt><trkpt lat="43.5678783" lon="3.10614"><ele>302.5</ele><time>2026-04-04T08:30:16.446Z</time></trkpt><trkpt lat="43.5679683" lon="3.1060267"><ele>300.75</ele><time>2026-04-04T08:30:17.445Z</time></trkpt><trkpt lat="43.5680633" lon="3.1059333"><ele>299.0</ele><time>2026-04-04T08:30:18.444Z</time></trkpt><trkpt lat="43.56815" lon="3.10586"><ele>299.0</ele><time>2026-04-04T08:30:19.444Z</time></trkpt><trkpt lat="43.568235" lon="3.105785"><ele>299.0</ele><time>2026-04-04T08:30:20.443Z</time></trkpt><trkpt lat="43.5683333" lon="3.1057017"><ele>299.0</ele><time>2026-04-04T08:30:21.443Z</time></trkpt><trkpt lat="43.5684183" lon="3.1056083"><ele>299.0</ele><time>2026-04-04T08:30:22.443Z</time></trkpt><trkpt lat="43.56849" lon="3.105505"><ele>299.0</ele><time>2026-04-04T08:30:23.444Z</time></trkpt><trkpt lat="43.5686033" lon="3.10541"><ele>298.25</ele><time>2026-04-04T08:30:24.444Z</time></trkpt><trkpt lat="43.5687167" lon="3.1053233"><ele>297.5</ele><time>2026-04-04T08:30:25.443Z</time></trkpt><trkpt lat="43.5688317" lon="3.1052233"><ele>296.75</ele><time>2026-04-04T08:30:26.443Z</time></trkpt><trkpt lat="43.5689417" lon="3.1051333"><ele>296.0</ele><time>2026-04-04T08:30:27.443Z</time></trkpt><trkpt lat="43.569045" lon="3.10506"><ele>296.0</ele><time>2026-04-04T08:30:28.445Z</time></trkpt><trkpt lat="43.5691433" lon="3.1049983"><ele>296.0</ele><time>2026-04-04T08:30:29.443Z</time></trkpt><trkpt lat="43.56926" lon="3.1049483"><ele>296.0</ele><time>2026-04-04T08:30:30.445Z</time></trkpt><trkpt lat="43.5693739" lon="3.1049271"><ele>296.0</ele><time>2026-04-04T08:30:31.444Z</time></trkpt><trkpt lat="43.5694696" lon="3.1049058"><ele>296.0</ele><time>2026-04-04T08:30:32.445Z</time></trkpt><trkpt lat="43.5695508" lon="3.1048753"><ele>298.6</ele><time>2026-04-04T08:30:33.445Z</time></trkpt><trkpt lat="43.5696358" lon="3.1048272"><ele>301.20000000000005</ele><time>2026-04-04T08:30:34.445Z</time></trkpt><trkpt lat="43.5697242" lon="3.1047692"><ele>303.79999999999995</ele><time>2026-04-04T08:30:35.444Z</time></trkpt><trkpt lat="43.5698237" lon="3.1047311"><ele>306.4</ele><time>2026-04-04T08:30:36.444Z</time></trkpt><trkpt lat="43.5699286" lon="3.1047133"><ele>309.0</ele><time>2026-04-04T08:30:37.445Z</time></trkpt><trkpt lat="43.5700132" lon="3.1047182"><ele>309.0</ele><time>2026-04-04T08:30:38.445Z</time></trkpt><trkpt lat="43.5700817" lon="3.1047158"><ele>309.0</ele><time>2026-04-04T08:30:39.445Z</time></trkpt><trkpt lat="43.5701867" lon="3.1046645"><ele>309.0</ele><time>2026-04-04T08:30:41.444Z</time></trkpt><trkpt lat="43.5702467" lon="3.1046195"><ele>309.0</ele><time>2026-04-04T08:30:42.445Z</time></trkpt><trkpt lat="43.5703176" lon="3.1045799"><ele>309.0</ele><time>2026-04-04T08:30:43.445Z</time></trkpt><trkpt lat="43.5703943" lon="3.1045463"><ele>309.0</ele><time>2026-04-04T08:30:44.444Z</time></trkpt><trkpt lat="43.5704756" lon="3.1045216"><ele>306.5714285714286</ele><time>2026-04-04T08:30:45.445Z</time></trkpt><trkpt lat="43.5705538" lon="3.1044985"><ele>304.14285714285717</ele><time>2026-04-04T08:30:46.444Z</time></trkpt><trkpt lat="43.5706291" lon="3.1044723"><ele>301.7142857142857</ele><time>2026-04-04T08:30:47.444Z</time></trkpt><trkpt lat="43.5707015" lon="3.1044526"><ele>299.28571428571433</ele><time>2026-04-04T08:30:48.445Z</time></trkpt><trkpt lat="43.5707654" lon="3.1044608"><ele>296.8571428571429</ele><time>2026-04-04T08:30:49.446Z</time></trkpt><trkpt lat="43.5708264" lon="3.1045187"><ele>294.42857142857144</ele><time>2026-04-04T08:30:50.446Z</time></trkpt><trkpt lat="43.57089" lon="3.1045639"><ele>292.0</ele><time>2026-04-04T08:30:51.444Z</time></trkpt><trkpt lat="43.57096" lon="3.1045882"><ele>292.0</ele><time>2026-04-04T08:30:52.445Z</time></trkpt><trkpt lat="43.5710391" lon="3.104574"><ele>292.0</ele><time>2026-04-04T08:30:53.445Z</time></trkpt><trkpt lat="43.5711125" lon="3.1045277"><ele>292.0</ele><time>2026-04-04T08:30:54.445Z</time></trkpt><trkpt lat="43.5711809" lon="3.1044605"><ele>292.0</ele><time>2026-04-04T08:30:55.444Z</time></trkpt><trkpt lat="43.571246" lon="3.1043778"><ele>292.0</ele><time>2026-04-04T08:30:56.444Z</time></trkpt><trkpt lat="43.5713053" lon="3.1042886"><ele>292.0</ele><time>2026-04-04T08:30:57.445Z</time></trkpt><trkpt lat="43.5713682" lon="3.1041987"><ele>293.3333333333333</ele><time>2026-04-04T08:30:58.445Z</time></trkpt><trkpt lat="43.5714318" lon="3.1041127"><ele>294.66666666666663</ele><time>2026-04-04T08:30:59.444Z</time></trkpt><trkpt lat="43.5714957" lon="3.1040319"><ele>296.0</ele><time>2026-04-04T08:31:00.446Z</time></trkpt><trkpt lat="43.5715739" lon="3.1039769"><ele>297.3333333333333</ele><time>2026-04-04T08:31:01.444Z</time></trkpt><trkpt lat="43.571653" lon="3.1039591"><ele>298.6666666666667</ele><time>2026-04-04T08:31:02.445Z</time></trkpt><trkpt lat="43.5717192" lon="3.1039745"><ele>300.0</ele><time>2026-04-04T08:31:03.446Z</time></trkpt><trkpt lat="43.5718267" lon="3.103955"><ele>300.0</ele><time>2026-04-04T08:31:05.444Z</time></trkpt><trkpt lat="43.5719467" lon="3.103945"><ele>300.0</ele><time>2026-04-04T08:31:07.445Z</time></trkpt><trkpt lat="43.5720183" lon="3.103955"><ele>300.0</ele><time>2026-04-04T08:31:08.445Z</time></trkpt><trkpt lat="43.5720833" lon="3.103965"><ele>300.0</ele><time>2026-04-04T08:31:09.445Z</time></trkpt><trkpt lat="43.5721467" lon="3.1039617"><ele>300.0</ele><time>2026-04-04T08:31:10.446Z</time></trkpt><trkpt lat="43.5722217" lon="3.1039567"><ele>300.0</ele><time>2026-04-04T08:31:11.445Z</time></trkpt><trkpt lat="43.5722967" lon="3.1039717"><ele>297.6666666666667</ele><time>2026-04-04T08:31:12.444Z</time></trkpt><trkpt lat="43.5723817" lon="3.1039917"><ele>295.3333333333333</ele><time>2026-04-04T08:31:13.445Z</time></trkpt><trkpt lat="43.5724633" lon="3.1040333"><ele>293.0</ele><time>2026-04-04T08:31:14.444Z</time></trkpt><trkpt lat="43.5725533" lon="3.104065"><ele>290.66666666666663</ele><time>2026-04-04T08:31:15.446Z</time></trkpt><trkpt lat="43.5726417" lon="3.1040933"><ele>288.3333333333333</ele><time>2026-04-04T08:31:16.446Z</time></trkpt><trkpt lat="43.57273" lon="3.104125"><ele>286.0</ele><time>2026-04-04T08:31:17.444Z</time></trkpt><trkpt lat="43.5728133" lon="3.1041467"><ele>280.66666666666663</ele><time>2026-04-04T08:31:18.445Z</time></trkpt><trkpt lat="43.5729" lon="3.1041733"><ele>275.3333333333333</ele><time>2026-04-04T08:31:19.445Z</time></trkpt><trkpt lat="43.5729867" lon="3.104205"><ele>270.0</ele><time>2026-04-04T08:31:20.444Z</time></trkpt><trkpt lat="43.5730633" lon="3.1042483"><ele>264.6666666666667</ele><time>2026-04-04T08:31:21.444Z</time></trkpt><trkpt lat="43.573135" lon="3.1042833"><ele>259.33333333333337</ele><time>2026-04-04T08:31:22.443Z</time></trkpt><trkpt lat="43.5731983" lon="3.1042983"><ele>254.0</ele><time>2026-04-04T08:31:23.445Z</time></trkpt><trkpt lat="43.5732617" lon="3.1043033"><ele>254.0</ele><time>2026-04-04T08:31:24.446Z</time></trkpt><trkpt lat="43.57337" lon="3.1043033"><ele>253.99999999999997</ele><time>2026-04-04T08:31:26.446Z</time></trkpt><trkpt lat="43.5734683" lon="3.1043033"><ele>253.99999999999997</ele><time>2026-04-04T08:31:28.444Z</time></trkpt><trkpt lat="43.5735633" lon="3.1043317"><ele>254.0</ele><time>2026-04-04T08:31:30.446Z</time></trkpt><trkpt lat="43.5736583" lon="3.1043317"><ele>254.0</ele><time>2026-04-04T08:31:32.445Z</time></trkpt><trkpt lat="43.5737917" lon="3.1043333"><ele>252.5</ele><time>2026-04-04T08:31:34.444Z</time></trkpt><trkpt lat="43.573905" lon="3.10434"><ele>251.0</ele><time>2026-04-04T08:31:35.445Z</time></trkpt><trkpt lat="43.57405" lon="3.104335"><ele>249.5</ele><time>2026-04-04T08:31:36.444Z</time></trkpt><trkpt lat="43.574185" lon="3.1043217"><ele>248.0</ele><time>2026-04-04T08:31:37.445Z</time></trkpt><trkpt lat="43.574305" lon="3.10431"><ele>248.0</ele><time>2026-04-04T08:31:38.445Z</time></trkpt><trkpt lat="43.5744233" lon="3.1042917"><ele>248.0</ele><time>2026-04-04T08:31:39.444Z</time></trkpt><trkpt lat="43.5745333" lon="3.104275"><ele>248.0</ele><time>2026-04-04T08:31:40.445Z</time></trkpt><trkpt lat="43.57465" lon="3.1042733"><ele>248.0</ele><time>2026-04-04T08:31:41.444Z</time></trkpt><trkpt lat="43.57475" lon="3.1042767"><ele>248.0</ele><time>2026-04-04T08:31:42.444Z</time></trkpt><trkpt lat="43.574835" lon="3.10428"><ele>247.83333333333334</ele><time>2026-04-04T08:31:43.446Z</time></trkpt><trkpt lat="43.57491" lon="3.1042767"><ele>247.66666666666669</ele><time>2026-04-04T08:31:44.444Z</time></trkpt><trkpt lat="43.57498" lon="3.1042583"><ele>247.5</ele><time>2026-04-04T08:31:45.445Z</time></trkpt><trkpt lat="43.57507" lon="3.1042217"><ele>247.33333333333331</ele><time>2026-04-04T08:31:46.444Z</time></trkpt><trkpt lat="43.5751433" lon="3.1041767"><ele>247.16666666666666</ele><time>2026-04-04T08:31:47.444Z</time></trkpt><trkpt lat="43.575195" lon="3.1041133"><ele>247.0</ele><time>2026-04-04T08:31:48.444Z</time></trkpt><trkpt lat="43.575255" lon="3.104035"><ele>245.2</ele><time>2026-04-04T08:31:49.444Z</time></trkpt><trkpt lat="43.5753083" lon="3.10394"><ele>243.39999999999998</ele><time>2026-04-04T08:31:50.444Z</time></trkpt><trkpt lat="43.5753617" lon="3.103835"><ele>241.60000000000002</ele><time>2026-04-04T08:31:51.446Z</time></trkpt><trkpt lat="43.5754167" lon="3.103725"><ele>239.8</ele><time>2026-04-04T08:31:52.444Z</time></trkpt><trkpt lat="43.5754867" lon="3.103625"><ele>238.0</ele><time>2026-04-04T08:31:53.445Z</time></trkpt><trkpt lat="43.5755667" lon="3.10353"><ele>238.0</ele><time>2026-04-04T08:31:54.444Z</time></trkpt><trkpt lat="43.5756417" lon="3.103445"><ele>238.0</ele><time>2026-04-04T08:31:55.445Z</time></trkpt><trkpt lat="43.57571" lon="3.1033483"><ele>238.0</ele><time>2026-04-04T08:31:56.445Z</time></trkpt><trkpt lat="43.57578" lon="3.1032267"><ele>238.0</ele><time>2026-04-04T08:31:57.445Z</time></trkpt><trkpt lat="43.575845" lon="3.1030817"><ele>238.0</ele><time>2026-04-04T08:31:58.444Z</time></trkpt><trkpt lat="43.5759067" lon="3.1029183"><ele>240.25</ele><time>2026-04-04T08:31:59.444Z</time></trkpt><trkpt lat="43.5759633" lon="3.10275"><ele>242.5</ele><time>2026-04-04T08:32:00.445Z</time></trkpt><trkpt lat="43.5760233" lon="3.1025917"><ele>244.75</ele><time>2026-04-04T08:32:01.445Z</time></trkpt><trkpt lat="43.5760667" lon="3.1024633"><ele>247.0</ele><time>2026-04-04T08:32:02.444Z</time></trkpt><trkpt lat="43.5761117" lon="3.1023667"><ele>245.99999999999997</ele><time>2026-04-04T08:32:03.445Z</time></trkpt><trkpt lat="43.5761683" lon="3.1022783"><ele>245.0</ele><time>2026-04-04T08:32:04.445Z</time></trkpt><trkpt lat="43.5762383" lon="3.1022033"><ele>244.0</ele><time>2026-04-04T08:32:05.444Z</time></trkpt><trkpt lat="43.5762983" lon="3.1021283"><ele>243.0</ele><time>2026-04-04T08:32:06.444Z</time></trkpt><trkpt lat="43.5763783" lon="3.1020783"><ele>241.99999999999997</ele><time>2026-04-04T08:32:07.447Z</time></trkpt><trkpt lat="43.5764467" lon="3.10204"><ele>241.0</ele><time>2026-04-04T08:32:08.444Z</time></trkpt><trkpt lat="43.5765217" lon="3.102035"><ele>241.0</ele><time>2026-04-04T08:32:09.446Z</time></trkpt><trkpt lat="43.5766067" lon="3.10203"><ele>241.0</ele><time>2026-04-04T08:32:10.444Z</time></trkpt><trkpt lat="43.5767133" lon="3.10202"><ele>241.0</ele><time>2026-04-04T08:32:11.445Z</time></trkpt><trkpt lat="43.576855" lon="3.1020117"><ele>241.0</ele><time>2026-04-04T08:32:12.449Z</time></trkpt><trkpt lat="43.577" lon="3.10199"><ele>236.75</ele><time>2026-04-04T08:32:13.445Z</time></trkpt><trkpt lat="43.5771317" lon="3.10197"><ele>232.5</ele><time>2026-04-04T08:32:14.445Z</time></trkpt><trkpt lat="43.5772567" lon="3.101955"><ele>228.25</ele><time>2026-04-04T08:32:15.444Z</time></trkpt><trkpt lat="43.577385" lon="3.1019433"><ele>224.0</ele><time>2026-04-04T08:32:16.445Z</time></trkpt><trkpt lat="43.5775233" lon="3.1019283"><ele>224.0</ele><time>2026-04-04T08:32:17.444Z</time></trkpt><trkpt lat="43.5776917" lon="3.1019117"><ele>224.0</ele><time>2026-04-04T08:32:18.446Z</time></trkpt><trkpt lat="43.57783" lon="3.1018867"><ele>224.0</ele><time>2026-04-04T08:32:19.444Z</time></trkpt><trkpt lat="43.5779417" lon="3.1018667"><ele>224.0</ele><time>2026-04-04T08:32:20.444Z</time></trkpt><trkpt lat="43.5780467" lon="3.10186"><ele>221.0</ele><time>2026-04-04T08:32:21.444Z</time></trkpt><trkpt lat="43.57814" lon="3.10189"><ele>217.99999999999997</ele><time>2026-04-04T08:32:22.444Z</time></trkpt><trkpt lat="43.5782333" lon="3.1019433"><ele>215.0</ele><time>2026-04-04T08:32:23.445Z</time></trkpt><trkpt lat="43.5783167" lon="3.1020283"><ele>212.0</ele><time>2026-04-04T08:32:24.444Z</time></trkpt><trkpt lat="43.5783983" lon="3.102145"><ele>209.0</ele><time>2026-04-04T08:32:25.445Z</time></trkpt><trkpt lat="43.57847" lon="3.1022717"><ele>209.0</ele><time>2026-04-04T08:32:26.444Z</time></trkpt><trkpt lat="43.5785483" lon="3.102385"><ele>209.0</ele><time>2026-04-04T08:32:27.445Z</time></trkpt><trkpt lat="43.57864" lon="3.1025067"><ele>209.0</ele><time>2026-04-04T08:32:28.445Z</time></trkpt><trkpt lat="43.57873" lon="3.10258"><ele>209.0</ele><time>2026-04-04T08:32:29.445Z</time></trkpt><trkpt lat="43.578825" lon="3.1026267"><ele>209.0</ele><time>2026-04-04T08:32:30.445Z</time></trkpt><trkpt lat="43.5789167" lon="3.1026483"><ele>209.6</ele><time>2026-04-04T08:32:31.444Z</time></trkpt><trkpt lat="43.5790017" lon="3.1026617"><ele>210.2</ele><time>2026-04-04T08:32:32.444Z</time></trkpt><trkpt lat="43.5791067" lon="3.102675"><ele>210.79999999999998</ele><time>2026-04-04T08:32:33.444Z</time></trkpt><trkpt lat="43.5792267" lon="3.10267"><ele>211.39999999999998</ele><time>2026-04-04T08:32:34.444Z</time></trkpt><trkpt lat="43.57934" lon="3.10264"><ele>212.0</ele><time>2026-04-04T08:32:35.444Z</time></trkpt><trkpt lat="43.5794683" lon="3.1026017"><ele>209.25</ele><time>2026-04-04T08:32:36.445Z</time></trkpt><trkpt lat="43.5795833" lon="3.1025517"><ele>206.5</ele><time>2026-04-04T08:32:37.444Z</time></trkpt><trkpt lat="43.5797083" lon="3.102505"><ele>203.75</ele><time>2026-04-04T08:32:38.444Z</time></trkpt><trkpt lat="43.57982" lon="3.102465"><ele>201.0</ele><time>2026-04-04T08:32:39.444Z</time></trkpt><trkpt lat="43.5799167" lon="3.1024433"><ele>201.0</ele><time>2026-04-04T08:32:40.444Z</time></trkpt><trkpt lat="43.5799933" lon="3.1024367"><ele>201.0</ele><time>2026-04-04T08:32:41.444Z</time></trkpt><trkpt lat="43.5800567" lon="3.1024467"><ele>201.0</ele><time>2026-04-04T08:32:42.447Z</time></trkpt><trkpt lat="43.580115" lon="3.1024867"><ele>201.0</ele><time>2026-04-04T08:32:43.444Z</time></trkpt><trkpt lat="43.580165" lon="3.1025567"><ele>201.0</ele><time>2026-04-04T08:32:44.444Z</time></trkpt><trkpt lat="43.5802067" lon="3.1026717"><ele>201.0</ele><time>2026-04-04T08:32:45.445Z</time></trkpt><trkpt lat="43.5802333" lon="3.10282"><ele>201.0</ele><time>2026-04-04T08:32:46.444Z</time></trkpt><trkpt lat="43.5802967" lon="3.1029533"><ele>201.0</ele><time>2026-04-04T08:32:47.444Z</time></trkpt><trkpt lat="43.5803617" lon="3.103045"><ele>201.0</ele><time>2026-04-04T08:32:48.444Z</time></trkpt><trkpt lat="43.5804333" lon="3.1031217"><ele>201.0</ele><time>2026-04-04T08:32:49.447Z</time></trkpt><trkpt lat="43.5805183" lon="3.103185"><ele>201.0</ele><time>2026-04-04T08:32:50.446Z</time></trkpt><trkpt lat="43.58061" lon="3.1032467"><ele>200.20000000000002</ele><time>2026-04-04T08:32:51.446Z</time></trkpt><trkpt lat="43.5807033" lon="3.1033033"><ele>199.4</ele><time>2026-04-04T08:32:52.446Z</time></trkpt><trkpt lat="43.5807883" lon="3.1033533"><ele>198.6</ele><time>2026-04-04T08:32:53.446Z</time></trkpt><trkpt lat="43.580865" lon="3.1033983"><ele>197.8</ele><time>2026-04-04T08:32:54.446Z</time></trkpt><trkpt lat="43.5809233" lon="3.103445"><ele>197.0</ele><time>2026-04-04T08:32:55.447Z</time></trkpt><trkpt lat="43.580995" lon="3.1035633"><ele>197.00000000000003</ele><time>2026-04-04T08:32:57.445Z</time></trkpt><trkpt lat="43.5810633" lon="3.1036467"><ele>197.0</ele><time>2026-04-04T08:32:59.446Z</time></trkpt><trkpt lat="43.5811617" lon="3.1036483"><ele>197.0</ele><time>2026-04-04T08:33:01.444Z</time></trkpt><trkpt lat="43.5812383" lon="3.1036067"><ele>197.0</ele><time>2026-04-04T08:33:03.444Z</time></trkpt><trkpt lat="43.58131" lon="3.103645"><ele>197.00000000000003</ele><time>2026-04-04T08:33:05.444Z</time></trkpt><trkpt lat="43.5813717" lon="3.1036683"><ele>197.0</ele><time>2026-04-04T08:33:07.444Z</time></trkpt><trkpt lat="43.581435" lon="3.1036333"><ele>197.0</ele><time>2026-04-04T08:33:09.444Z</time></trkpt><trkpt lat="43.58146" lon="3.1035267"><ele>197.0</ele><time>2026-04-04T08:33:13.444Z</time></trkpt><trkpt lat="43.58148" lon="3.1033917"><ele>197.0</ele><time>2026-04-04T08:33:15.445Z</time></trkpt><trkpt lat="43.5815117" lon="3.1032533"><ele>197.0</ele><time>2026-04-04T08:33:17.444Z</time></trkpt><trkpt lat="43.5815233" lon="3.1031183"><ele>197.0</ele><time>2026-04-04T08:33:19.445Z</time></trkpt><trkpt lat="43.5815467" lon="3.1029933"><ele>195.66666666666669</ele><time>2026-04-04T08:33:21.444Z</time></trkpt><trkpt lat="43.58158" lon="3.1028783"><ele>194.33333333333334</ele><time>2026-04-04T08:33:23.445Z</time></trkpt><trkpt lat="43.58163" lon="3.1027733"><ele>193.0</ele><time>2026-04-04T08:33:25.445Z</time></trkpt><trkpt lat="43.5816767" lon="3.102665"><ele>191.66666666666669</ele><time>2026-04-04T08:33:27.444Z</time></trkpt><trkpt lat="43.5817233" lon="3.1025767"><ele>190.33333333333334</ele><time>2026-04-04T08:33:30.444Z</time></trkpt><trkpt lat="43.5817967" lon="3.1025383"><ele>189.0</ele><time>2026-04-04T08:33:33.445Z</time></trkpt><trkpt lat="43.5818567" lon="3.102465"><ele>189.0</ele><time>2026-04-04T08:33:36.444Z</time></trkpt><trkpt lat="43.5819217" lon="3.1024333"><ele>189.0</ele><time>2026-04-04T08:33:39.444Z</time></trkpt><trkpt lat="43.5819583" lon="3.102335"><ele>189.0</ele><time>2026-04-04T08:33:42.446Z</time></trkpt><trkpt lat="43.5820033" lon="3.1022683"><ele>189.0</ele><time>2026-04-04T08:33:44.443Z</time></trkpt><trkpt lat="43.581975" lon="3.1021617"><ele>189.0</ele><time>2026-04-04T08:33:48.449Z</time></trkpt><trkpt lat="43.581905" lon="3.1021433"><ele>189.0</ele><time>2026-04-04T08:33:50.444Z</time></trkpt><trkpt lat="43.581885" lon="3.1020017"><ele>188.6</ele><time>2026-04-04T08:33:53.447Z</time></trkpt><trkpt lat="43.5819067" lon="3.101835"><ele>188.2</ele><time>2026-04-04T08:33:55.443Z</time></trkpt><trkpt lat="43.5819167" lon="3.1016783"><ele>187.79999999999998</ele><time>2026-04-04T08:33:57.443Z</time></trkpt><trkpt lat="43.58196" lon="3.1015417"><ele>187.39999999999998</ele><time>2026-04-04T08:33:59.445Z</time></trkpt><trkpt lat="43.5820083" lon="3.101485"><ele>187.0</ele><time>2026-04-04T08:34:00.445Z</time></trkpt><trkpt lat="43.582075" lon="3.1014117"><ele>185.5</ele><time>2026-04-04T08:34:01.445Z</time></trkpt><trkpt lat="43.5821467" lon="3.1013233"><ele>184.0</ele><time>2026-04-04T08:34:02.443Z</time></trkpt><trkpt lat="43.5822083" lon="3.1012383"><ele>182.5</ele><time>2026-04-04T08:34:03.443Z</time></trkpt><trkpt lat="43.5822667" lon="3.1011733"><ele>181.0</ele><time>2026-04-04T08:34:04.445Z</time></trkpt><trkpt lat="43.5823333" lon="3.1011017"><ele>179.5</ele><time>2026-04-04T08:34:06.446Z</time></trkpt><trkpt lat="43.582365" lon="3.1010017"><ele>178.0</ele><time>2026-04-04T08:34:08.445Z</time></trkpt><trkpt lat="43.582365" lon="3.1008133"><ele>178.60000000000002</ele><time>2026-04-04T08:34:10.445Z</time></trkpt><trkpt lat="43.5823633" lon="3.1006933"><ele>179.20000000000002</ele><time>2026-04-04T08:34:11.445Z</time></trkpt><trkpt lat="43.582365" lon="3.1005583"><ele>179.8</ele><time>2026-04-04T08:34:12.446Z</time></trkpt><trkpt lat="43.5823717" lon="3.1004133"><ele>180.4</ele><time>2026-04-04T08:34:13.446Z</time></trkpt><trkpt lat="43.5823817" lon="3.1002483"><ele>181.0</ele><time>2026-04-04T08:34:14.447Z</time></trkpt><trkpt lat="43.582405" lon="3.100075"><ele>182.33333333333334</ele><time>2026-04-04T08:34:15.446Z</time></trkpt><trkpt lat="43.5824333" lon="3.099885"><ele>183.66666666666666</ele><time>2026-04-04T08:34:16.443Z</time></trkpt><trkpt lat="43.582475" lon="3.0996717"><ele>185.0</ele><time>2026-04-04T08:34:17.446Z</time></trkpt><trkpt lat="43.58252" lon="3.0994333"><ele>185.0</ele><time>2026-04-04T08:34:18.444Z</time></trkpt><trkpt lat="43.5825717" lon="3.0991817"><ele>185.0</ele><time>2026-04-04T08:34:19.445Z</time></trkpt><trkpt lat="43.5826183" lon="3.0989117"><ele>185.0</ele><time>2026-04-04T08:34:20.444Z</time></trkpt><trkpt lat="43.5826617" lon="3.0986317"><ele>184.66666666666666</ele><time>2026-04-04T08:34:21.445Z</time></trkpt><trkpt lat="43.5826967" lon="3.0983467"><ele>184.33333333333334</ele><time>2026-04-04T08:34:22.445Z</time></trkpt><trkpt lat="43.5827183" lon="3.098065"><ele>184.0</ele><time>2026-04-04T08:34:23.447Z</time></trkpt><trkpt lat="43.5827183" lon="3.0977783"><ele>184.0</ele><time>2026-04-04T08:34:24.446Z</time></trkpt><trkpt lat="43.5827067" lon="3.0974883"><ele>184.0</ele><time>2026-04-04T08:34:25.444Z</time></trkpt><trkpt lat="43.5826933" lon="3.097205"><ele>184.0</ele><time>2026-04-04T08:34:26.446Z</time></trkpt><trkpt lat="43.582675" lon="3.0969383"><ele>182.66666666666669</ele><time>2026-04-04T08:34:27.445Z</time></trkpt><trkpt lat="43.5826567" lon="3.0966883"><ele>181.33333333333334</ele><time>2026-04-04T08:34:28.443Z</time></trkpt><trkpt lat="43.5826683" lon="3.0964583"><ele>180.0</ele><time>2026-04-04T08:34:29.444Z</time></trkpt><trkpt lat="43.582695" lon="3.096235"><ele>179.66666666666666</ele><time>2026-04-04T08:34:30.444Z</time></trkpt><trkpt lat="43.5827567" lon="3.0960183"><ele>179.33333333333331</ele><time>2026-04-04T08:34:31.446Z</time></trkpt><trkpt lat="43.58283" lon="3.0957933"><ele>179.0</ele><time>2026-04-04T08:34:32.445Z</time></trkpt><trkpt lat="43.5829133" lon="3.0955633"><ele>178.0</ele><time>2026-04-04T08:34:33.444Z</time></trkpt><trkpt lat="43.582995" lon="3.0953267"><ele>177.0</ele><time>2026-04-04T08:34:34.444Z</time></trkpt><trkpt lat="43.5830567" lon="3.09508"><ele>176.0</ele><time>2026-04-04T08:34:35.445Z</time></trkpt><trkpt lat="43.583115" lon="3.094835"><ele>176.0</ele><time>2026-04-04T08:34:36.444Z</time></trkpt><trkpt lat="43.5831617" lon="3.0945967"><ele>176.0</ele><time>2026-04-04T08:34:37.444Z</time></trkpt><trkpt lat="43.5832033" lon="3.0943717"><ele>176.0</ele><time>2026-04-04T08:34:38.443Z</time></trkpt><trkpt lat="43.5832417" lon="3.094165"><ele>176.25</ele><time>2026-04-04T08:34:39.443Z</time></trkpt><trkpt lat="43.5832767" lon="3.0939633"><ele>176.5</ele><time>2026-04-04T08:34:40.444Z</time></trkpt><trkpt lat="43.5833117" lon="3.09377"><ele>176.75</ele><time>2026-04-04T08:34:41.443Z</time></trkpt><trkpt lat="43.5833433" lon="3.0935817"><ele>177.0</ele><time>2026-04-04T08:34:42.445Z</time></trkpt><trkpt lat="43.5833817" lon="3.0933867"><ele>178.66666666666666</ele><time>2026-04-04T08:34:43.444Z</time></trkpt><trkpt lat="43.5834133" lon="3.0931783"><ele>180.33333333333331</ele><time>2026-04-04T08:34:44.447Z</time></trkpt><trkpt lat="43.58345" lon="3.0929667"><ele>182.0</ele><time>2026-04-04T08:34:45.443Z</time></trkpt><trkpt lat="43.58348" lon="3.0927417"><ele>182.0</ele><time>2026-04-04T08:34:46.445Z</time></trkpt><trkpt lat="43.583505" lon="3.092515"><ele>182.0</ele><time>2026-04-04T08:34:47.445Z</time></trkpt><trkpt lat="43.5835183" lon="3.0922783"><ele>182.0</ele><time>2026-04-04T08:34:48.445Z</time></trkpt><trkpt lat="43.5835317" lon="3.0920367"><ele>181.33333333333331</ele><time>2026-04-04T08:34:49.445Z</time></trkpt><trkpt lat="43.58354" lon="3.0917933"><ele>180.66666666666666</ele><time>2026-04-04T08:34:50.445Z</time></trkpt><trkpt lat="43.5835383" lon="3.09155"><ele>180.0</ele><time>2026-04-04T08:34:51.446Z</time></trkpt><trkpt lat="43.58353" lon="3.0913033"><ele>179.0</ele><time>2026-04-04T08:34:52.445Z</time></trkpt><trkpt lat="43.5835217" lon="3.09106"><ele>178.0</ele><time>2026-04-04T08:34:53.447Z</time></trkpt><trkpt lat="43.5835167" lon="3.09081"><ele>177.0</ele><time>2026-04-04T08:34:54.446Z</time></trkpt><trkpt lat="43.5835133" lon="3.0905633"><ele>176.66666666666666</ele><time>2026-04-04T08:34:55.444Z</time></trkpt><trkpt lat="43.5835067" lon="3.090315"><ele>176.33333333333331</ele><time>2026-04-04T08:34:56.445Z</time></trkpt><trkpt lat="43.5834983" lon="3.09007"><ele>176.0</ele><time>2026-04-04T08:34:57.446Z</time></trkpt><trkpt lat="43.58349" lon="3.0898383"><ele>176.0</ele><time>2026-04-04T08:34:58.445Z</time></trkpt><trkpt lat="43.583485" lon="3.0896367"><ele>176.0</ele><time>2026-04-04T08:34:59.445Z</time></trkpt><trkpt lat="43.58349" lon="3.0894633"><ele>176.0</ele><time>2026-04-04T08:35:00.446Z</time></trkpt><trkpt lat="43.5835067" lon="3.0893083"><ele>176.0</ele><time>2026-04-04T08:35:01.446Z</time></trkpt><trkpt lat="43.5835367" lon="3.0891617"><ele>176.0</ele><time>2026-04-04T08:35:02.444Z</time></trkpt><trkpt lat="43.583575" lon="3.0890217"><ele>176.0</ele><time>2026-04-04T08:35:03.445Z</time></trkpt><trkpt lat="43.583615" lon="3.088875"><ele>176.0</ele><time>2026-04-04T08:35:04.445Z</time></trkpt><trkpt lat="43.5836567" lon="3.0887117"><ele>176.0</ele><time>2026-04-04T08:35:05.445Z</time></trkpt><trkpt lat="43.5837033" lon="3.0885383"><ele>176.0</ele><time>2026-04-04T08:35:06.446Z</time></trkpt><trkpt lat="43.5837467" lon="3.0883567"><ele>176.0</ele><time>2026-04-04T08:35:07.444Z</time></trkpt><trkpt lat="43.5837717" lon="3.088155"><ele>176.0</ele><time>2026-04-04T08:35:08.446Z</time></trkpt><trkpt lat="43.58378" lon="3.0879417"><ele>176.0</ele><time>2026-04-04T08:35:09.443Z</time></trkpt><trkpt lat="43.5837783" lon="3.0877217"><ele>176.0</ele><time>2026-04-04T08:35:10.447Z</time></trkpt><trkpt lat="43.58376" lon="3.0874917"><ele>176.0</ele><time>2026-04-04T08:35:11.445Z</time></trkpt><trkpt lat="43.583735" lon="3.087275"><ele>176.0</ele><time>2026-04-04T08:35:12.444Z</time></trkpt><trkpt lat="43.58371" lon="3.087075"><ele>176.0</ele><time>2026-04-04T08:35:13.446Z</time></trkpt><trkpt lat="43.5836983" lon="3.08688"><ele>176.0</ele><time>2026-04-04T08:35:14.445Z</time></trkpt><trkpt lat="43.58371" lon="3.0866933"><ele>176.0</ele><time>2026-04-04T08:35:15.446Z</time></trkpt><trkpt lat="43.5837433" lon="3.0865017"><ele>176.0</ele><time>2026-04-04T08:35:16.444Z</time></trkpt><trkpt lat="43.583795" lon="3.0862983"><ele>176.33333333333331</ele><time>2026-04-04T08:35:17.445Z</time></trkpt><trkpt lat="43.5838567" lon="3.086085"><ele>176.66666666666666</ele><time>2026-04-04T08:35:18.446Z</time></trkpt><trkpt lat="43.5839167" lon="3.085865"><ele>177.0</ele><time>2026-04-04T08:35:19.445Z</time></trkpt><trkpt lat="43.5839783" lon="3.0856383"><ele>177.0</ele><time>2026-04-04T08:35:20.445Z</time></trkpt><trkpt lat="43.5840367" lon="3.0854033"><ele>177.0</ele><time>2026-04-04T08:35:21.446Z</time></trkpt><trkpt lat="43.5841017" lon="3.0851667"><ele>177.0</ele><time>2026-04-04T08:35:22.445Z</time></trkpt><trkpt lat="43.58417" lon="3.0849333"><ele>179.33333333333334</ele><time>2026-04-04T08:35:23.444Z</time></trkpt><trkpt lat="43.5842333" lon="3.0847117"><ele>181.66666666666669</ele><time>2026-04-04T08:35:24.444Z</time></trkpt><trkpt lat="43.5842967" lon="3.0844967"><ele>184.0</ele><time>2026-04-04T08:35:25.445Z</time></trkpt><trkpt lat="43.5843617" lon="3.0842983"><ele>184.0</ele><time>2026-04-04T08:35:26.445Z</time></trkpt><trkpt lat="43.5844317" lon="3.0841217"><ele>184.0</ele><time>2026-04-04T08:35:27.445Z</time></trkpt><trkpt lat="43.5845067" lon="3.08396"><ele>184.0</ele><time>2026-04-04T08:35:28.444Z</time></trkpt><trkpt lat="43.5845767" lon="3.08381"><ele>184.0</ele><time>2026-04-04T08:35:29.445Z</time></trkpt><trkpt lat="43.5846317" lon="3.0836783"><ele>181.79999999999998</ele><time>2026-04-04T08:35:30.444Z</time></trkpt><trkpt lat="43.5846717" lon="3.0835767"><ele>179.6</ele><time>2026-04-04T08:35:31.445Z</time></trkpt><trkpt lat="43.5847083" lon="3.0835033"><ele>177.4</ele><time>2026-04-04T08:35:32.444Z</time></trkpt><trkpt lat="43.58481" lon="3.0834433"><ele>175.2</ele><time>2026-04-04T08:35:34.447Z</time></trkpt><trkpt lat="43.5848967" lon="3.0834467"><ele>173.0</ele><time>2026-04-04T08:35:35.446Z</time></trkpt><trkpt lat="43.585015" lon="3.0834633"><ele>173.0</ele><time>2026-04-04T08:35:36.446Z</time></trkpt><trkpt lat="43.58516" lon="3.0834833"><ele>173.0</ele><time>2026-04-04T08:35:37.445Z</time></trkpt><trkpt lat="43.585315" lon="3.0835"><ele>173.0</ele><time>2026-04-04T08:35:38.445Z</time></trkpt><trkpt lat="43.5854717" lon="3.0835083"><ele>171.66666666666666</ele><time>2026-04-04T08:35:39.445Z</time></trkpt><trkpt lat="43.58564" lon="3.08351"><ele>170.33333333333334</ele><time>2026-04-04T08:35:40.446Z</time></trkpt><trkpt lat="43.5858217" lon="3.0835067"><ele>169.0</ele><time>2026-04-04T08:35:41.446Z</time></trkpt><trkpt lat="43.5860083" lon="3.083495"><ele>170.33333333333334</ele><time>2026-04-04T08:35:42.446Z</time></trkpt><trkpt lat="43.5861833" lon="3.08348"><ele>171.66666666666666</ele><time>2026-04-04T08:35:43.447Z</time></trkpt><trkpt lat="43.586345" lon="3.083465"><ele>173.0</ele><time>2026-04-04T08:35:44.446Z</time></trkpt><trkpt lat="43.586495" lon="3.083455"><ele>173.0</ele><time>2026-04-04T08:35:45.444Z</time></trkpt><trkpt lat="43.5866317" lon="3.0834433"><ele>173.0</ele><time>2026-04-04T08:35:46.443Z</time></trkpt><trkpt lat="43.5867483" lon="3.0834333"><ele>173.0</ele><time>2026-04-04T08:35:47.447Z</time></trkpt><trkpt lat="43.586845" lon="3.0834383"><ele>173.0</ele><time>2026-04-04T08:35:48.447Z</time></trkpt><trkpt lat="43.5869383" lon="3.08345"><ele>173.0</ele><time>2026-04-04T08:35:49.446Z</time></trkpt><trkpt lat="43.587035" lon="3.0834883"><ele>173.83333333333331</ele><time>2026-04-04T08:35:50.447Z</time></trkpt><trkpt lat="43.5871283" lon="3.0835167"><ele>174.66666666666666</ele><time>2026-04-04T08:35:51.446Z</time></trkpt><trkpt lat="43.5872183" lon="3.0835183"><ele>175.5</ele><time>2026-04-04T08:35:52.447Z</time></trkpt><trkpt lat="43.5873033" lon="3.0835"><ele>176.33333333333334</ele><time>2026-04-04T08:35:53.446Z</time></trkpt><trkpt lat="43.587375" lon="3.0834483"><ele>177.16666666666669</ele><time>2026-04-04T08:35:54.446Z</time></trkpt><trkpt lat="43.58743" lon="3.0833667"><ele>178.0</ele><time>2026-04-04T08:35:55.447Z</time></trkpt><trkpt lat="43.5874567" lon="3.0832683"><ele>178.4</ele><time>2026-04-04T08:35:56.446Z</time></trkpt><trkpt lat="43.58747" lon="3.0831667"><ele>178.8</ele><time>2026-04-04T08:35:57.444Z</time></trkpt><trkpt lat="43.5874933" lon="3.0830717"><ele>179.2</ele><time>2026-04-04T08:35:58.443Z</time></trkpt><trkpt lat="43.5875383" lon="3.0829383"><ele>179.6</ele><time>2026-04-04T08:36:00.443Z</time></trkpt><trkpt lat="43.5876283" lon="3.0828867"><ele>180.0</ele><time>2026-04-04T08:36:02.445Z</time></trkpt><trkpt lat="43.5877317" lon="3.0828717"><ele>180.0</ele><time>2026-04-04T08:36:04.444Z</time></trkpt><trkpt lat="43.58782" lon="3.0828533"><ele>180.0</ele><time>2026-04-04T08:36:06.443Z</time></trkpt><trkpt lat="43.587935" lon="3.0828433"><ele>180.0</ele><time>2026-04-04T08:36:08.443Z</time></trkpt><trkpt lat="43.5880167" lon="3.082835"><ele>180.0</ele><time>2026-04-04T08:36:09.443Z</time></trkpt><trkpt lat="43.5881083" lon="3.0828283"><ele>180.0</ele><time>2026-04-04T08:36:10.444Z</time></trkpt><trkpt lat="43.5882017" lon="3.0828283"><ele>181.2</ele><time>2026-04-04T08:36:11.444Z</time></trkpt><trkpt lat="43.5883083" lon="3.082855"><ele>182.4</ele><time>2026-04-04T08:36:12.445Z</time></trkpt><trkpt lat="43.5884083" lon="3.0828967"><ele>183.60000000000002</ele><time>2026-04-04T08:36:13.444Z</time></trkpt><trkpt lat="43.5885083" lon="3.0829667"><ele>184.8</ele><time>2026-04-04T08:36:14.443Z</time></trkpt><trkpt lat="43.5886033" lon="3.0830333"><ele>186.0</ele><time>2026-04-04T08:36:15.443Z</time></trkpt><trkpt lat="43.5886767" lon="3.0830917"><ele>187.66666666666666</ele><time>2026-04-04T08:36:16.447Z</time></trkpt><trkpt lat="43.5887433" lon="3.0831417"><ele>189.33333333333331</ele><time>2026-04-04T08:36:17.446Z</time></trkpt><trkpt lat="43.588805" lon="3.0831783"><ele>191.0</ele><time>2026-04-04T08:36:18.443Z</time></trkpt><trkpt lat="43.5888917" lon="3.0831617"><ele>192.66666666666666</ele><time>2026-04-04T08:36:20.444Z</time></trkpt><trkpt lat="43.588845" lon="3.0830367"><ele>194.33333333333331</ele><time>2026-04-04T08:36:22.444Z</time></trkpt><trkpt lat="43.5887883" lon="3.0829833"><ele>196.0</ele><time>2026-04-04T08:36:23.445Z</time></trkpt><trkpt lat="43.588695" lon="3.0829267"><ele>194.33333333333331</ele><time>2026-04-04T08:36:25.444Z</time></trkpt><trkpt lat="43.5886317" lon="3.0828783"><ele>192.66666666666666</ele><time>2026-04-04T08:36:27.443Z</time></trkpt><trkpt lat="43.58855" lon="3.0827717"><ele>191.0</ele><time>2026-04-04T08:36:34.446Z</time></trkpt><trkpt lat="43.58849" lon="3.082715"><ele>189.33333333333331</ele><time>2026-04-04T08:36:35.443Z</time></trkpt><trkpt lat="43.588415" lon="3.0826583"><ele>187.66666666666666</ele><time>2026-04-04T08:36:36.445Z</time></trkpt><trkpt lat="43.5883433" lon="3.0826067"><ele>186.0</ele><time>2026-04-04T08:36:37.446Z</time></trkpt><trkpt lat="43.5882733" lon="3.08255"><ele>186.0</ele><time>2026-04-04T08:36:38.444Z</time></trkpt><trkpt lat="43.5882067" lon="3.08248"><ele>186.0</ele><time>2026-04-04T08:36:39.443Z</time></trkpt><trkpt lat="43.5881533" lon="3.0823983"><ele>186.0</ele><time>2026-04-04T08:36:40.443Z</time></trkpt><trkpt lat="43.5881133" lon="3.0823083"><ele>186.0</ele><time>2026-04-04T08:36:41.444Z</time></trkpt><trkpt lat="43.5880833" lon="3.08222"><ele>186.0</ele><time>2026-04-04T08:36:42.447Z</time></trkpt><trkpt lat="43.58806" lon="3.0821067"><ele>186.0</ele><time>2026-04-04T08:36:43.444Z</time></trkpt><trkpt lat="43.5880401" lon="3.0819911"><ele>187.5</ele><time>2026-04-04T08:36:44.444Z</time></trkpt><trkpt lat="43.5880347" lon="3.0818743"><ele>189.0</ele><time>2026-04-04T08:36:45.444Z</time></trkpt><trkpt lat="43.5880438" lon="3.0817578"><ele>190.5</ele><time>2026-04-04T08:36:46.444Z</time></trkpt><trkpt lat="43.5880583" lon="3.0816486"><ele>192.0</ele><time>2026-04-04T08:36:47.444Z</time></trkpt><trkpt lat="43.5880762" lon="3.0815491"><ele>193.5</ele><time>2026-04-04T08:36:48.444Z</time></trkpt><trkpt lat="43.5880935" lon="3.0814565"><ele>195.0</ele><time>2026-04-04T08:36:49.448Z</time></trkpt><trkpt lat="43.5881457" lon="3.0813279"><ele>195.0</ele><time>2026-04-04T08:36:51.445Z</time></trkpt><trkpt lat="43.5882122" lon="3.0813552"><ele>195.0</ele><time>2026-04-04T08:36:53.446Z</time></trkpt><trkpt lat="43.5882389" lon="3.0814358"><ele>195.0</ele><time>2026-04-04T08:36:54.447Z</time></trkpt><trkpt lat="43.5882584" lon="3.0815245"><ele>195.0</ele><time>2026-04-04T08:36:55.445Z</time></trkpt><trkpt lat="43.5882799" lon="3.0816099"><ele>195.0</ele><time>2026-04-04T08:36:56.444Z</time></trkpt><trkpt lat="43.588336" lon="3.0817081"><ele>195.0</ele><time>2026-04-04T08:36:58.445Z</time></trkpt><trkpt lat="43.588369" lon="3.0815991"><ele>195.0</ele><time>2026-04-04T08:37:01.446Z</time></trkpt><trkpt lat="43.5883551" lon="3.0814657"><ele>195.75</ele><time>2026-04-04T08:37:02.445Z</time></trkpt><trkpt lat="43.5883575" lon="3.0813005"><ele>196.5</ele><time>2026-04-04T08:37:03.445Z</time></trkpt><trkpt lat="43.5883691" lon="3.0811133"><ele>197.25</ele><time>2026-04-04T08:37:04.445Z</time></trkpt><trkpt lat="43.5883938" lon="3.080924"><ele>198.0</ele><time>2026-04-04T08:37:05.447Z</time></trkpt><trkpt lat="43.5884282" lon="3.0807624"><ele>196.8</ele><time>2026-04-04T08:37:06.445Z</time></trkpt><trkpt lat="43.5884635" lon="3.0806106"><ele>195.60000000000002</ele><time>2026-04-04T08:37:07.446Z</time></trkpt><trkpt lat="43.5884991" lon="3.0804658"><ele>194.39999999999998</ele><time>2026-04-04T08:37:08.445Z</time></trkpt><trkpt lat="43.5885406" lon="3.0803359"><ele>193.2</ele><time>2026-04-04T08:37:09.444Z</time></trkpt><trkpt lat="43.5885817" lon="3.080216"><ele>192.0</ele><time>2026-04-04T08:37:10.445Z</time></trkpt><trkpt lat="43.5886272" lon="3.0801114"><ele>192.0</ele><time>2026-04-04T08:37:11.444Z</time></trkpt><trkpt lat="43.5886701" lon="3.080027"><ele>192.0</ele><time>2026-04-04T08:37:12.445Z</time></trkpt><trkpt lat="43.5887557" lon="3.0799296"><ele>192.0</ele><time>2026-04-04T08:37:14.446Z</time></trkpt><trkpt lat="43.5887004" lon="3.0798818"><ele>192.0</ele><time>2026-04-04T08:37:20.444Z</time></trkpt><trkpt lat="43.5886384" lon="3.0799955"><ele>192.0</ele><time>2026-04-04T08:37:22.445Z</time></trkpt><trkpt lat="43.5886076" lon="3.0800932"><ele>192.0</ele><time>2026-04-04T08:37:23.447Z</time></trkpt><trkpt lat="43.5885717" lon="3.0802061"><ele>192.0</ele><time>2026-04-04T08:37:24.443Z</time></trkpt><trkpt lat="43.5885288" lon="3.0803361"><ele>192.0</ele><time>2026-04-04T08:37:25.447Z</time></trkpt><trkpt lat="43.5884783" lon="3.0804777"><ele>192.0</ele><time>2026-04-04T08:37:26.446Z</time></trkpt><trkpt lat="43.5884278" lon="3.0806103"><ele>192.0</ele><time>2026-04-04T08:37:27.445Z</time></trkpt><trkpt lat="43.5883898" lon="3.0807296"><ele>192.0</ele><time>2026-04-04T08:37:28.444Z</time></trkpt><trkpt lat="43.5883581" lon="3.0808448"><ele>193.0</ele><time>2026-04-04T08:37:29.444Z</time></trkpt><trkpt lat="43.5883286" lon="3.0809587"><ele>194.0</ele><time>2026-04-04T08:37:30.444Z</time></trkpt><trkpt lat="43.5883036" lon="3.0810719"><ele>195.0</ele><time>2026-04-04T08:37:31.446Z</time></trkpt><trkpt lat="43.588286" lon="3.0811801"><ele>196.0</ele><time>2026-04-04T08:37:32.446Z</time></trkpt><trkpt lat="43.5882728" lon="3.0812874"><ele>197.0</ele><time>2026-04-04T08:37:33.446Z</time></trkpt><trkpt lat="43.5882649" lon="3.0813987"><ele>198.0</ele><time>2026-04-04T08:37:34.449Z</time></trkpt><trkpt lat="43.588266" lon="3.0815038"><ele>197.5</ele><time>2026-04-04T08:37:35.447Z</time></trkpt><trkpt lat="43.5882722" lon="3.0816052"><ele>197.0</ele><time>2026-04-04T08:37:36.446Z</time></trkpt><trkpt lat="43.5882778" lon="3.081705"><ele>196.5</ele><time>2026-04-04T08:37:37.444Z</time></trkpt><trkpt lat="43.5882908" lon="3.0817953"><ele>196.0</ele><time>2026-04-04T08:37:38.443Z</time></trkpt><trkpt lat="43.5883565" lon="3.0819333"><ele>195.5</ele><time>2026-04-04T08:37:40.446Z</time></trkpt><trkpt lat="43.5884133" lon="3.0819771"><ele>195.0</ele><time>2026-04-04T08:37:41.447Z</time></trkpt><trkpt lat="43.5884878" lon="3.0820115"><ele>195.0</ele><time>2026-04-04T08:37:42.444Z</time></trkpt><trkpt lat="43.5885644" lon="3.0820561"><ele>195.0</ele><time>2026-04-04T08:37:43.447Z</time></trkpt><trkpt lat="43.5886474" lon="3.0821157"><ele>195.0</ele><time>2026-04-04T08:37:44.443Z</time></trkpt><trkpt lat="43.5887316" lon="3.0821856"><ele>195.0</ele><time>2026-04-04T08:37:45.443Z</time></trkpt><trkpt lat="43.5888114" lon="3.0822642"><ele>195.0</ele><time>2026-04-04T08:37:46.448Z</time></trkpt><trkpt lat="43.5888852" lon="3.0823482"><ele>195.2</ele><time>2026-04-04T08:37:47.444Z</time></trkpt><trkpt lat="43.5889471" lon="3.0824231"><ele>195.4</ele><time>2026-04-04T08:37:48.445Z</time></trkpt><trkpt lat="43.5890057" lon="3.0824798"><ele>195.60000000000002</ele><time>2026-04-04T08:37:49.445Z</time></trkpt><trkpt lat="43.5891117" lon="3.0824967"><ele>195.8</ele><time>2026-04-04T08:37:51.445Z</time></trkpt><trkpt lat="43.589205" lon="3.0824583"><ele>196.0</ele><time>2026-04-04T08:37:53.445Z</time></trkpt><trkpt lat="43.5892517" lon="3.0823367"><ele>198.60000000000002</ele><time>2026-04-04T08:37:55.447Z</time></trkpt><trkpt lat="43.5892817" lon="3.0822"><ele>201.2</ele><time>2026-04-04T08:37:57.445Z</time></trkpt><trkpt lat="43.5893083" lon="3.0821"><ele>203.8</ele><time>2026-04-04T08:37:59.445Z</time></trkpt><trkpt lat="43.589335" lon="3.0819983"><ele>206.39999999999998</ele><time>2026-04-04T08:38:01.445Z</time></trkpt><trkpt lat="43.5893683" lon="3.0818633"><ele>209.0</ele><time>2026-04-04T08:38:03.446Z</time></trkpt><trkpt lat="43.5893683" lon="3.08174"><ele>209.0</ele><time>2026-04-04T08:38:05.447Z</time></trkpt><trkpt lat="43.5893633" lon="3.0816083"><ele>209.0</ele><time>2026-04-04T08:38:07.445Z</time></trkpt><trkpt lat="43.5893683" lon="3.0814417"><ele>209.0</ele><time>2026-04-04T08:38:09.445Z</time></trkpt><trkpt lat="43.5893917" lon="3.081285"><ele>209.0</ele><time>2026-04-04T08:38:11.445Z</time></trkpt><trkpt lat="43.5894483" lon="3.0811517"><ele>209.0</ele><time>2026-04-04T08:38:13.446Z</time></trkpt><trkpt lat="43.5895217" lon="3.0810783"><ele>211.50000000000003</ele><time>2026-04-04T08:38:15.444Z</time></trkpt><trkpt lat="43.5896167" lon="3.0810417"><ele>214.0</ele><time>2026-04-04T08:38:17.445Z</time></trkpt><trkpt lat="43.5897083" lon="3.08103"><ele>216.5</ele><time>2026-04-04T08:38:19.445Z</time></trkpt><trkpt lat="43.589765" lon="3.0809883"><ele>219.0</ele><time>2026-04-04T08:38:21.445Z</time></trkpt><trkpt lat="43.5897783" lon="3.080895"><ele>221.50000000000003</ele><time>2026-04-04T08:38:25.445Z</time></trkpt><trkpt lat="43.5897317" lon="3.08079"><ele>224.0</ele><time>2026-04-04T08:38:28.445Z</time></trkpt><trkpt lat="43.589695" lon="3.080665"><ele>224.33333333333334</ele><time>2026-04-04T08:38:31.447Z</time></trkpt><trkpt lat="43.5896483" lon="3.0805583"><ele>224.66666666666669</ele><time>2026-04-04T08:38:33.444Z</time></trkpt><trkpt lat="43.5896167" lon="3.08046"><ele>225.0</ele><time>2026-04-04T08:38:35.445Z</time></trkpt><trkpt lat="43.5895733" lon="3.0803667"><ele>225.33333333333331</ele><time>2026-04-04T08:38:37.446Z</time></trkpt><trkpt lat="43.589515" lon="3.0803"><ele>225.66666666666666</ele><time>2026-04-04T08:38:39.444Z</time></trkpt><trkpt lat="43.5894533" lon="3.08025"><ele>226.0</ele><time>2026-04-04T08:38:41.445Z</time></trkpt><trkpt lat="43.5895383" lon="3.0802817"><ele>225.99999999999997</ele><time>2026-04-04T08:39:01.445Z</time></trkpt><trkpt lat="43.5895917" lon="3.0803667"><ele>226.0</ele><time>2026-04-04T08:39:03.445Z</time></trkpt><trkpt lat="43.589635" lon="3.080465"><ele>226.0</ele><time>2026-04-04T08:39:05.444Z</time></trkpt><trkpt lat="43.5896783" lon="3.0805583"><ele>226.0</ele><time>2026-04-04T08:39:07.446Z</time></trkpt><trkpt lat="43.5897267" lon="3.080675"><ele>225.99999999999997</ele><time>2026-04-04T08:39:09.445Z</time></trkpt><trkpt lat="43.5897533" lon="3.080755"><ele>226.0</ele><time>2026-04-04T08:39:11.445Z</time></trkpt><trkpt lat="43.5898117" lon="3.0808617"><ele>225.99999999999997</ele><time>2026-04-04T08:39:14.444Z</time></trkpt><trkpt lat="43.5898517" lon="3.0809367"><ele>226.0</ele><time>2026-04-04T08:39:16.445Z</time></trkpt><trkpt lat="43.5899167" lon="3.0809033"><ele>226.0</ele><time>2026-04-04T08:39:23.444Z</time></trkpt><trkpt lat="43.5899317" lon="3.080785"><ele>226.0</ele><time>2026-04-04T08:39:26.445Z</time></trkpt><trkpt lat="43.58995" lon="3.0806567"><ele>225.99999999999997</ele><time>2026-04-04T08:39:28.444Z</time></trkpt><trkpt lat="43.5899867" lon="3.0805117"><ele>226.0</ele><time>2026-04-04T08:39:30.446Z</time></trkpt><trkpt lat="43.5900417" lon="3.0803717"><ele>226.0</ele><time>2026-04-04T08:39:32.445Z</time></trkpt><trkpt lat="43.590075" lon="3.080235"><ele>226.00000000000003</ele><time>2026-04-04T08:39:34.445Z</time></trkpt><trkpt lat="43.5901033" lon="3.0801"><ele>226.00000000000003</ele><time>2026-04-04T08:39:36.445Z</time></trkpt><trkpt lat="43.5900967" lon="3.07998"><ele>226.0</ele><time>2026-04-04T08:39:38.446Z</time></trkpt><trkpt lat="43.5900767" lon="3.0798483"><ele>226.0</ele><time>2026-04-04T08:39:40.444Z</time></trkpt><trkpt lat="43.590045" lon="3.07969"><ele>227.0</ele><time>2026-04-04T08:39:42.444Z</time></trkpt><trkpt lat="43.5900333" lon="3.0796"><ele>228.00000000000003</ele><time>2026-04-04T08:39:43.445Z</time></trkpt><trkpt lat="43.590025" lon="3.0795133"><ele>229.00000000000003</ele><time>2026-04-04T08:39:44.445Z</time></trkpt><trkpt lat="43.5900183" lon="3.0793533"><ele>230.0</ele><time>2026-04-04T08:39:46.446Z</time></trkpt><trkpt lat="43.59001" lon="3.0792133"><ele>231.0</ele><time>2026-04-04T08:39:48.445Z</time></trkpt><trkpt lat="43.589995" lon="3.0790733"><ele>232.16666666666666</ele><time>2026-04-04T08:39:50.444Z</time></trkpt><trkpt lat="43.5899783" lon="3.0789317"><ele>233.33333333333331</ele><time>2026-04-04T08:39:52.444Z</time></trkpt><trkpt lat="43.5899767" lon="3.0787733"><ele>234.5</ele><time>2026-04-04T08:39:54.446Z</time></trkpt><trkpt lat="43.5899783" lon="3.07868"><ele>235.66666666666666</ele><time>2026-04-04T08:39:55.445Z</time></trkpt><trkpt lat="43.589985" lon="3.0785783"><ele>236.83333333333331</ele><time>2026-04-04T08:39:56.445Z</time></trkpt><trkpt lat="43.5899967" lon="3.0784783"><ele>238.0</ele><time>2026-04-04T08:39:57.445Z</time></trkpt><trkpt lat="43.5899667" lon="3.07833"><ele>240.2</ele><time>2026-04-04T08:39:59.443Z</time></trkpt><trkpt lat="43.5898817" lon="3.0782183"><ele>242.4</ele><time>2026-04-04T08:40:01.445Z</time></trkpt><trkpt lat="43.5897833" lon="3.0781067"><ele>244.59999999999997</ele><time>2026-04-04T08:40:03.444Z</time></trkpt><trkpt lat="43.5897183" lon="3.078075"><ele>246.79999999999998</ele><time>2026-04-04T08:40:04.444Z</time></trkpt><trkpt lat="43.5896133" lon="3.0779767"><ele>249.0</ele><time>2026-04-04T08:40:06.445Z</time></trkpt><trkpt lat="43.58956" lon="3.077915"><ele>249.0</ele><time>2026-04-04T08:40:07.445Z</time></trkpt><trkpt lat="43.5895117" lon="3.0778583"><ele>248.99999999999997</ele><time>2026-04-04T08:40:08.443Z</time></trkpt><trkpt lat="43.589445" lon="3.0777517"><ele>248.99999999999997</ele><time>2026-04-04T08:40:10.445Z</time></trkpt><trkpt lat="43.5893917" lon="3.07766"><ele>249.0</ele><time>2026-04-04T08:40:12.444Z</time></trkpt><trkpt lat="43.58937" lon="3.0775217"><ele>249.0</ele><time>2026-04-04T08:40:14.444Z</time></trkpt><trkpt lat="43.5893467" lon="3.0773717"><ele>246.2</ele><time>2026-04-04T08:40:16.447Z</time></trkpt><trkpt lat="43.5893367" lon="3.0772333"><ele>243.39999999999998</ele><time>2026-04-04T08:40:18.443Z</time></trkpt><trkpt lat="43.5893467" lon="3.07709"><ele>240.6</ele><time>2026-04-04T08:40:20.444Z</time></trkpt><trkpt lat="43.5893483" lon="3.0769633"><ele>237.8</ele><time>2026-04-04T08:40:22.446Z</time></trkpt><trkpt lat="43.5893683" lon="3.076845"><ele>235.0</ele><time>2026-04-04T08:40:24.444Z</time></trkpt><trkpt lat="43.5893767" lon="3.0767183"><ele>234.99999999999997</ele><time>2026-04-04T08:40:26.444Z</time></trkpt><trkpt lat="43.5893833" lon="3.0766317"><ele>235.0</ele><time>2026-04-04T08:40:27.445Z</time></trkpt><trkpt lat="43.589395" lon="3.0764733"><ele>235.0</ele><time>2026-04-04T08:40:29.444Z</time></trkpt><trkpt lat="43.58941" lon="3.0763883"><ele>235.0</ele><time>2026-04-04T08:40:30.443Z</time></trkpt><trkpt lat="43.5894717" lon="3.0762717"><ele>234.99999999999997</ele><time>2026-04-04T08:40:32.443Z</time></trkpt><trkpt lat="43.58957" lon="3.0762467"><ele>235.0</ele><time>2026-04-04T08:40:34.444Z</time></trkpt><trkpt lat="43.5896617" lon="3.07632"><ele>236.6</ele><time>2026-04-04T08:40:36.444Z</time></trkpt><trkpt lat="43.589695" lon="3.07645"><ele>238.2</ele><time>2026-04-04T08:40:38.443Z</time></trkpt><trkpt lat="43.5896817" lon="3.0766417"><ele>239.8</ele><time>2026-04-04T08:40:40.444Z</time></trkpt><trkpt lat="43.589685" lon="3.0767633"><ele>241.4</ele><time>2026-04-04T08:40:41.447Z</time></trkpt><trkpt lat="43.5897" lon="3.07688"><ele>243.0</ele><time>2026-04-04T08:40:42.447Z</time></trkpt><trkpt lat="43.5897183" lon="3.07699"><ele>244.0</ele><time>2026-04-04T08:40:43.444Z</time></trkpt><trkpt lat="43.5897483" lon="3.0770783"><ele>245.0</ele><time>2026-04-04T08:40:44.446Z</time></trkpt><trkpt lat="43.589795" lon="3.0771567"><ele>246.0</ele><time>2026-04-04T08:40:45.445Z</time></trkpt><trkpt lat="43.58985" lon="3.0772317"><ele>247.0</ele><time>2026-04-04T08:40:46.445Z</time></trkpt><trkpt lat="43.5899117" lon="3.07731"><ele>248.0</ele><time>2026-04-04T08:40:47.444Z</time></trkpt><trkpt lat="43.5899717" lon="3.077395"><ele>249.0</ele><time>2026-04-04T08:40:48.447Z</time></trkpt><trkpt lat="43.5900333" lon="3.07748"><ele>249.0</ele><time>2026-04-04T08:40:49.446Z</time></trkpt><trkpt lat="43.5900933" lon="3.07757"><ele>249.0</ele><time>2026-04-04T08:40:50.445Z</time></trkpt><trkpt lat="43.5901533" lon="3.0776667"><ele>249.0</ele><time>2026-04-04T08:40:51.445Z</time></trkpt><trkpt lat="43.59021" lon="3.0777533"><ele>249.0</ele><time>2026-04-04T08:40:52.445Z</time></trkpt><trkpt lat="43.590265" lon="3.0778483"><ele>249.0</ele><time>2026-04-04T08:40:53.445Z</time></trkpt><trkpt lat="43.5903167" lon="3.077945"><ele>249.0</ele><time>2026-04-04T08:40:54.446Z</time></trkpt><trkpt lat="43.5903717" lon="3.07805"><ele>251.5</ele><time>2026-04-04T08:40:55.446Z</time></trkpt><trkpt lat="43.5904067" lon="3.0781683"><ele>254.0</ele><time>2026-04-04T08:40:56.445Z</time></trkpt><trkpt lat="43.59044" lon="3.078285"><ele>256.5</ele><time>2026-04-04T08:40:57.446Z</time></trkpt><trkpt lat="43.590475" lon="3.0783867"><ele>259.0</ele><time>2026-04-04T08:40:58.446Z</time></trkpt><trkpt lat="43.590505" lon="3.0784883"><ele>261.5</ele><time>2026-04-04T08:40:59.446Z</time></trkpt><trkpt lat="43.59054" lon="3.078575"><ele>264.0</ele><time>2026-04-04T08:41:00.444Z</time></trkpt><trkpt lat="43.590585" lon="3.0786617"><ele>264.0</ele><time>2026-04-04T08:41:01.444Z</time></trkpt><trkpt lat="43.5906283" lon="3.0787583"><ele>264.0</ele><time>2026-04-04T08:41:02.445Z</time></trkpt><trkpt lat="43.590665" lon="3.0788533"><ele>264.0</ele><time>2026-04-04T08:41:03.445Z</time></trkpt><trkpt lat="43.590705" lon="3.0789417"><ele>264.0</ele><time>2026-04-04T08:41:04.446Z</time></trkpt><trkpt lat="43.59075" lon="3.079015"><ele>264.0</ele><time>2026-04-04T08:41:05.445Z</time></trkpt><trkpt lat="43.5908283" lon="3.0791117"><ele>264.0</ele><time>2026-04-04T08:41:07.444Z</time></trkpt><trkpt lat="43.5909017" lon="3.079075"><ele>264.0</ele><time>2026-04-04T08:41:09.444Z</time></trkpt><trkpt lat="43.59094" lon="3.0789883"><ele>264.0</ele><time>2026-04-04T08:41:11.446Z</time></trkpt><trkpt lat="43.5909433" lon="3.0788683"><ele>264.0</ele><time>2026-04-04T08:41:13.444Z</time></trkpt><trkpt lat="43.5909167" lon="3.078755"><ele>264.0</ele><time>2026-04-04T08:41:14.443Z</time></trkpt><trkpt lat="43.5908783" lon="3.0786067"><ele>264.0</ele><time>2026-04-04T08:41:16.442Z</time></trkpt><trkpt lat="43.5908533" lon="3.07846"><ele>264.0</ele><time>2026-04-04T08:41:18.443Z</time></trkpt><trkpt lat="43.59084" lon="3.0783117"><ele>264.0</ele><time>2026-04-04T08:41:20.443Z</time></trkpt><trkpt lat="43.5908317" lon="3.07822"><ele>264.0</ele><time>2026-04-04T08:41:21.444Z</time></trkpt><trkpt lat="43.5908183" lon="3.0781317"><ele>264.0</ele><time>2026-04-04T08:41:22.443Z</time></trkpt><trkpt lat="43.5908" lon="3.07803"><ele>264.0</ele><time>2026-04-04T08:41:23.443Z</time></trkpt><trkpt lat="43.5907783" lon="3.077925"><ele>264.0</ele><time>2026-04-04T08:41:24.444Z</time></trkpt><trkpt lat="43.590745" lon="3.0778217"><ele>265.3333333333333</ele><time>2026-04-04T08:41:25.443Z</time></trkpt><trkpt lat="43.59071" lon="3.077715"><ele>266.6666666666667</ele><time>2026-04-04T08:41:26.442Z</time></trkpt><trkpt lat="43.59068" lon="3.0776067"><ele>268.0</ele><time>2026-04-04T08:41:27.444Z</time></trkpt><trkpt lat="43.5906467" lon="3.0775067"><ele>269.33333333333337</ele><time>2026-04-04T08:41:28.444Z</time></trkpt><trkpt lat="43.590625" lon="3.0774017"><ele>270.6666666666667</ele><time>2026-04-04T08:41:29.443Z</time></trkpt><trkpt lat="43.5906083" lon="3.077305"><ele>272.0</ele><time>2026-04-04T08:41:30.444Z</time></trkpt><trkpt lat="43.5905933" lon="3.0772167"><ele>272.5</ele><time>2026-04-04T08:41:31.447Z</time></trkpt><trkpt lat="43.590565" lon="3.077125"><ele>273.0</ele><time>2026-04-04T08:41:32.442Z</time></trkpt><trkpt lat="43.5905367" lon="3.07704"><ele>273.5</ele><time>2026-04-04T08:41:33.443Z</time></trkpt><trkpt lat="43.5905233" lon="3.0769533"><ele>274.0</ele><time>2026-04-04T08:41:34.444Z</time></trkpt><trkpt lat="43.5905333" lon="3.0767883"><ele>274.5</ele><time>2026-04-04T08:41:36.443Z</time></trkpt><trkpt lat="43.59059" lon="3.0766783"><ele>275.0</ele><time>2026-04-04T08:41:38.445Z</time></trkpt><trkpt lat="43.5906667" lon="3.0766833"><ele>275.0</ele><time>2026-04-04T08:41:40.445Z</time></trkpt><trkpt lat="43.5907167" lon="3.076755"><ele>275.0</ele><time>2026-04-04T08:41:42.443Z</time></trkpt><trkpt lat="43.5907833" lon="3.076855"><ele>275.0</ele><time>2026-04-04T08:41:44.443Z</time></trkpt><trkpt lat="43.5908467" lon="3.076945"><ele>275.0</ele><time>2026-04-04T08:41:48.443Z</time></trkpt><trkpt lat="43.5908983" lon="3.07706"><ele>275.0</ele><time>2026-04-04T08:41:50.443Z</time></trkpt><trkpt lat="43.5909433" lon="3.07713"><ele>275.0</ele><time>2026-04-04T08:41:51.442Z</time></trkpt><trkpt lat="43.5910167" lon="3.0772617"><ele>275.0</ele><time>2026-04-04T08:41:53.447Z</time></trkpt><trkpt lat="43.59107" lon="3.0773667"><ele>275.0</ele><time>2026-04-04T08:41:55.443Z</time></trkpt><trkpt lat="43.5911317" lon="3.0774283"><ele>275.0</ele><time>2026-04-04T08:41:57.443Z</time></trkpt><trkpt lat="43.59123" lon="3.0774433"><ele>275.0</ele><time>2026-04-04T08:41:59.444Z</time></trkpt><trkpt lat="43.5912983" lon="3.0774467"><ele>275.0</ele><time>2026-04-04T08:42:00.444Z</time></trkpt><trkpt lat="43.591375" lon="3.0774533"><ele>275.0</ele><time>2026-04-04T08:42:01.443Z</time></trkpt><trkpt lat="43.5914767" lon="3.0774583"><ele>274.6</ele><time>2026-04-04T08:42:02.444Z</time></trkpt><trkpt lat="43.5915733" lon="3.0774717"><ele>274.2</ele><time>2026-04-04T08:42:03.445Z</time></trkpt><trkpt lat="43.591675" lon="3.0774783"><ele>273.8</ele><time>2026-04-04T08:42:04.445Z</time></trkpt><trkpt lat="43.5917833" lon="3.0774817"><ele>273.4</ele><time>2026-04-04T08:42:05.443Z</time></trkpt><trkpt lat="43.591905" lon="3.07748"><ele>273.0</ele><time>2026-04-04T08:42:06.445Z</time></trkpt><trkpt lat="43.5920267" lon="3.0774867"><ele>273.0</ele><time>2026-04-04T08:42:07.444Z</time></trkpt><trkpt lat="43.5921483" lon="3.077495"><ele>273.0</ele><time>2026-04-04T08:42:08.444Z</time></trkpt><trkpt lat="43.5922667" lon="3.077505"><ele>273.0</ele><time>2026-04-04T08:42:09.444Z</time></trkpt><trkpt lat="43.592365" lon="3.0775133"><ele>273.0</ele><time>2026-04-04T08:42:10.443Z</time></trkpt><trkpt lat="43.5924367" lon="3.07752"><ele>273.0</ele><time>2026-04-04T08:42:11.444Z</time></trkpt><trkpt lat="43.5925017" lon="3.0775183"><ele>273.0</ele><time>2026-04-04T08:42:12.444Z</time></trkpt><trkpt lat="43.5925683" lon="3.0774733"><ele>273.0</ele><time>2026-04-04T08:42:14.443Z</time></trkpt><trkpt lat="43.5926583" lon="3.07739"><ele>273.0</ele><time>2026-04-04T08:42:16.444Z</time></trkpt><trkpt lat="43.5927283" lon="3.07731"><ele>273.0</ele><time>2026-04-04T08:42:17.444Z</time></trkpt><trkpt lat="43.5927883" lon="3.0772183"><ele>273.0</ele><time>2026-04-04T08:42:18.444Z</time></trkpt><trkpt lat="43.59285" lon="3.07713"><ele>275.4</ele><time>2026-04-04T08:42:19.444Z</time></trkpt><trkpt lat="43.592925" lon="3.0770467"><ele>277.8</ele><time>2026-04-04T08:42:20.445Z</time></trkpt><trkpt lat="43.593005" lon="3.076965"><ele>280.2</ele><time>2026-04-04T08:42:21.443Z</time></trkpt><trkpt lat="43.593085" lon="3.07689"><ele>282.6</ele><time>2026-04-04T08:42:22.444Z</time></trkpt><trkpt lat="43.59315" lon="3.0768183"><ele>285.0</ele><time>2026-04-04T08:42:23.444Z</time></trkpt><trkpt lat="43.59322" lon="3.0767583"><ele>285.0</ele><time>2026-04-04T08:42:24.443Z</time></trkpt><trkpt lat="43.593275" lon="3.0766983"><ele>285.0</ele><time>2026-04-04T08:42:25.445Z</time></trkpt><trkpt lat="43.5933217" lon="3.0766233"><ele>285.0</ele><time>2026-04-04T08:42:26.444Z</time></trkpt><trkpt lat="43.5933867" lon="3.0765433"><ele>285.0</ele><time>2026-04-04T08:42:27.443Z</time></trkpt><trkpt lat="43.5934483" lon="3.0764717"><ele>285.0</ele><time>2026-04-04T08:42:28.443Z</time></trkpt><trkpt lat="43.5935167" lon="3.0763967"><ele>285.0</ele><time>2026-04-04T08:42:29.444Z</time></trkpt><trkpt lat="43.59357" lon="3.076325"><ele>285.6666666666667</ele><time>2026-04-04T08:42:30.444Z</time></trkpt><trkpt lat="43.5936067" lon="3.076245"><ele>286.3333333333333</ele><time>2026-04-04T08:42:31.444Z</time></trkpt><trkpt lat="43.593645" lon="3.0761533"><ele>287.0</ele><time>2026-04-04T08:42:32.443Z</time></trkpt><trkpt lat="43.5936633" lon="3.0760633"><ele>287.66666666666663</ele><time>2026-04-04T08:42:33.443Z</time></trkpt><trkpt lat="43.5936883" lon="3.0759683"><ele>288.3333333333333</ele><time>2026-04-04T08:42:34.443Z</time></trkpt><trkpt lat="43.5937433" lon="3.0758233"><ele>289.0</ele><time>2026-04-04T08:42:36.443Z</time></trkpt><trkpt lat="43.5937667" lon="3.0757233"><ele>287.2</ele><time>2026-04-04T08:42:38.444Z</time></trkpt><trkpt lat="43.593705" lon="3.0756583"><ele>285.4</ele><time>2026-04-04T08:42:41.444Z</time></trkpt><trkpt lat="43.5935967" lon="3.0756617"><ele>283.6</ele><time>2026-04-04T08:42:44.443Z</time></trkpt><trkpt lat="43.59348" lon="3.07563"><ele>281.8</ele><time>2026-04-04T08:42:46.444Z</time></trkpt><trkpt lat="43.593405" lon="3.0756017"><ele>280.0</ele><time>2026-04-04T08:42:47.444Z</time></trkpt><trkpt lat="43.59333" lon="3.075565"><ele>280.0</ele><time>2026-04-04T08:42:48.443Z</time></trkpt><trkpt lat="43.5932583" lon="3.07551"><ele>280.0</ele><time>2026-04-04T08:42:49.444Z</time></trkpt><trkpt lat="43.5931467" lon="3.0753867"><ele>280.0</ele><time>2026-04-04T08:42:51.444Z</time></trkpt><trkpt lat="43.5930883" lon="3.0752933"><ele>280.0</ele><time>2026-04-04T08:42:52.445Z</time></trkpt><trkpt lat="43.59303" lon="3.0751967"><ele>280.0</ele><time>2026-04-04T08:42:53.444Z</time></trkpt><trkpt lat="43.5929967" lon="3.0751"><ele>280.0</ele><time>2026-04-04T08:42:54.444Z</time></trkpt><trkpt lat="43.59297" lon="3.0750017"><ele>280.0</ele><time>2026-04-04T08:42:55.444Z</time></trkpt><trkpt lat="43.5929533" lon="3.07489"><ele>280.0</ele><time>2026-04-04T08:42:56.443Z</time></trkpt><trkpt lat="43.5929483" lon="3.0747667"><ele>280.0</ele><time>2026-04-04T08:42:57.446Z</time></trkpt><trkpt lat="43.592955" lon="3.0746633"><ele>280.0</ele><time>2026-04-04T08:42:58.443Z</time></trkpt><trkpt lat="43.5929617" lon="3.0745333"><ele>280.0</ele><time>2026-04-04T08:42:59.445Z</time></trkpt><trkpt lat="43.5929933" lon="3.0744367"><ele>281.0</ele><time>2026-04-04T08:43:00.443Z</time></trkpt><trkpt lat="43.5930333" lon="3.074345"><ele>282.0</ele><time>2026-04-04T08:43:01.444Z</time></trkpt><trkpt lat="43.5930833" lon="3.0742583"><ele>283.0</ele><time>2026-04-04T08:43:02.444Z</time></trkpt><trkpt lat="43.5931283" lon="3.0741683"><ele>284.0</ele><time>2026-04-04T08:43:03.443Z</time></trkpt><trkpt lat="43.5931767" lon="3.0740983"><ele>285.0</ele><time>2026-04-04T08:43:04.444Z</time></trkpt><trkpt lat="43.59326" lon="3.0739667"><ele>286.0</ele><time>2026-04-04T08:43:06.444Z</time></trkpt><trkpt lat="43.5933533" lon="3.0738517"><ele>289.25</ele><time>2026-04-04T08:43:08.444Z</time></trkpt><trkpt lat="43.593435" lon="3.0737233"><ele>292.5</ele><time>2026-04-04T08:43:10.444Z</time></trkpt><trkpt lat="43.5934967" lon="3.0735833"><ele>295.75</ele><time>2026-04-04T08:43:12.444Z</time></trkpt><trkpt lat="43.5935467" lon="3.073445"><ele>299.0</ele><time>2026-04-04T08:43:14.445Z</time></trkpt><trkpt lat="43.5936" lon="3.0733183"><ele>300.59999999999997</ele><time>2026-04-04T08:43:16.444Z</time></trkpt><trkpt lat="43.5936383" lon="3.073235"><ele>302.2</ele><time>2026-04-04T08:43:17.445Z</time></trkpt><trkpt lat="43.593675" lon="3.073155"><ele>303.79999999999995</ele><time>2026-04-04T08:43:18.445Z</time></trkpt><trkpt lat="43.5937517" lon="3.073005"><ele>305.4</ele><time>2026-04-04T08:43:20.444Z</time></trkpt><trkpt lat="43.5937983" lon="3.0728783"><ele>307.0</ele><time>2026-04-04T08:43:22.443Z</time></trkpt><trkpt lat="43.593885" lon="3.0727633"><ele>306.99999999999994</ele><time>2026-04-04T08:43:24.445Z</time></trkpt><trkpt lat="43.593935" lon="3.072705"><ele>307.0</ele><time>2026-04-04T08:43:25.444Z</time></trkpt><trkpt lat="43.5939867" lon="3.0726417"><ele>307.0</ele><time>2026-04-04T08:43:26.444Z</time></trkpt><trkpt lat="43.5940367" lon="3.0725783"><ele>307.0</ele><time>2026-04-04T08:43:27.444Z</time></trkpt><trkpt lat="43.5940833" lon="3.0725067"><ele>307.0</ele><time>2026-04-04T08:43:28.444Z</time></trkpt><trkpt lat="43.5941317" lon="3.0724433"><ele>306.99999999999994</ele><time>2026-04-04T08:43:29.444Z</time></trkpt><trkpt lat="43.5942217" lon="3.0723633"><ele>307.0</ele><time>2026-04-04T08:43:31.443Z</time></trkpt><trkpt lat="43.5943117" lon="3.0722867"><ele>308.4</ele><time>2026-04-04T08:43:33.445Z</time></trkpt><trkpt lat="43.5943717" lon="3.0722433"><ele>309.79999999999995</ele><time>2026-04-04T08:43:34.445Z</time></trkpt><trkpt lat="43.5944817" lon="3.0721483"><ele>311.2</ele><time>2026-04-04T08:43:36.445Z</time></trkpt><trkpt lat="43.59458" lon="3.0720317"><ele>312.59999999999997</ele><time>2026-04-04T08:43:38.445Z</time></trkpt><trkpt lat="43.59462" lon="3.071955"><ele>314.0</ele><time>2026-04-04T08:43:39.446Z</time></trkpt><trkpt lat="43.5946567" lon="3.071875"><ele>314.0</ele><time>2026-04-04T08:43:40.445Z</time></trkpt><trkpt lat="43.5946967" lon="3.0717883"><ele>314.0</ele><time>2026-04-04T08:43:41.445Z</time></trkpt><trkpt lat="43.59473" lon="3.0717033"><ele>314.0</ele><time>2026-04-04T08:43:42.446Z</time></trkpt><trkpt lat="43.59477" lon="3.0716183"><ele>314.0</ele><time>2026-04-04T08:43:43.446Z</time></trkpt><trkpt lat="43.59479" lon="3.0715317"><ele>314.0</ele><time>2026-04-04T08:43:44.444Z</time></trkpt><trkpt lat="43.594815" lon="3.0713783"><ele>314.0</ele><time>2026-04-04T08:43:46.445Z</time></trkpt><trkpt lat="43.5948483" lon="3.0712267"><ele>316.2</ele><time>2026-04-04T08:43:48.446Z</time></trkpt><trkpt lat="43.5948917" lon="3.0710783"><ele>318.4</ele><time>2026-04-04T08:43:50.445Z</time></trkpt><trkpt lat="43.5949367" lon="3.0709317"><ele>320.6</ele><time>2026-04-04T08:43:52.445Z</time></trkpt><trkpt lat="43.594955" lon="3.0708133"><ele>322.8</ele><time>2026-04-04T08:43:54.444Z</time></trkpt><trkpt lat="43.5949783" lon="3.0707183"><ele>325.0</ele><time>2026-04-04T08:43:56.446Z</time></trkpt><trkpt lat="43.594995" lon="3.0706083"><ele>326.16666666666663</ele><time>2026-04-04T08:43:58.444Z</time></trkpt><trkpt lat="43.59499" lon="3.0704833"><ele>327.3333333333333</ele><time>2026-04-04T08:44:00.443Z</time></trkpt><trkpt lat="43.5950283" lon="3.0704067"><ele>328.5</ele><time>2026-04-04T08:44:02.444Z</time></trkpt><trkpt lat="43.59506" lon="3.070325"><ele>329.6666666666667</ele><time>2026-04-04T08:44:04.444Z</time></trkpt><trkpt lat="43.5950967" lon="3.0702283"><ele>330.83333333333337</ele><time>2026-04-04T08:44:06.443Z</time></trkpt><trkpt lat="43.5951233" lon="3.07013"><ele>332.0</ele><time>2026-04-04T08:44:08.443Z</time></trkpt><trkpt lat="43.5951117" lon="3.0700183"><ele>332.8</ele><time>2026-04-04T08:44:10.444Z</time></trkpt><trkpt lat="43.5951183" lon="3.06987"><ele>333.6</ele><time>2026-04-04T08:44:12.443Z</time></trkpt><trkpt lat="43.5951467" lon="3.0697233"><ele>334.40000000000003</ele><time>2026-04-04T08:44:14.442Z</time></trkpt><trkpt lat="43.5951867" lon="3.0695867"><ele>335.20000000000005</ele><time>2026-04-04T08:44:16.443Z</time></trkpt><trkpt lat="43.59523" lon="3.069475"><ele>336.0</ele><time>2026-04-04T08:44:18.444Z</time></trkpt><trkpt lat="43.5953017" lon="3.06933"><ele>336.0</ele><time>2026-04-04T08:44:20.442Z</time></trkpt><trkpt lat="43.595325" lon="3.0692483"><ele>336.0</ele><time>2026-04-04T08:44:21.446Z</time></trkpt><trkpt lat="43.5953433" lon="3.0691033"><ele>336.0</ele><time>2026-04-04T08:44:23.443Z</time></trkpt><trkpt lat="43.5953467" lon="3.0690083"><ele>336.0</ele><time>2026-04-04T08:44:25.443Z</time></trkpt><trkpt lat="43.5953817" lon="3.068905"><ele>336.0</ele><time>2026-04-04T08:44:28.444Z</time></trkpt><trkpt lat="43.5953683" lon="3.068765"><ele>336.0</ele><time>2026-04-04T08:44:36.443Z</time></trkpt><trkpt lat="43.5953567" lon="3.0686517"><ele>338.8</ele><time>2026-04-04T08:44:39.442Z</time></trkpt><trkpt lat="43.59533" lon="3.0685517"><ele>341.6</ele><time>2026-04-04T08:44:41.444Z</time></trkpt><trkpt lat="43.5953" lon="3.06843"><ele>344.4</ele><time>2026-04-04T08:44:43.443Z</time></trkpt><trkpt lat="43.5952917" lon="3.068285"><ele>347.2</ele><time>2026-04-04T08:44:45.444Z</time></trkpt><trkpt lat="43.5952583" lon="3.0681583"><ele>350.0</ele><time>2026-04-04T08:44:47.443Z</time></trkpt><trkpt lat="43.5951733" lon="3.06806"><ele>351.1666666666667</ele><time>2026-04-04T08:44:49.444Z</time></trkpt><trkpt lat="43.5950967" lon="3.0679533"><ele>352.33333333333337</ele><time>2026-04-04T08:44:51.442Z</time></trkpt><trkpt lat="43.5950933" lon="3.0678567"><ele>353.5</ele><time>2026-04-04T08:44:54.447Z</time></trkpt><trkpt lat="43.595165" lon="3.0678267"><ele>354.6666666666667</ele><time>2026-04-04T08:44:56.444Z</time></trkpt><trkpt lat="43.59524" lon="3.0678017"><ele>355.8333333333333</ele><time>2026-04-04T08:45:35.446Z</time></trkpt><trkpt lat="43.5953217" lon="3.067775"><ele>357.0</ele><time>2026-04-04T08:45:37.446Z</time></trkpt><trkpt lat="43.5954433" lon="3.0677483"><ele>358.20000000000005</ele><time>2026-04-04T08:45:39.447Z</time></trkpt><trkpt lat="43.5955333" lon="3.06775"><ele>359.4</ele><time>2026-04-04T08:45:40.446Z</time></trkpt><trkpt lat="43.5956217" lon="3.0677567"><ele>360.6</ele><time>2026-04-04T08:45:41.443Z</time></trkpt><trkpt lat="43.59572" lon="3.067765"><ele>361.79999999999995</ele><time>2026-04-04T08:45:42.444Z</time></trkpt><trkpt lat="43.595825" lon="3.0677633"><ele>363.0</ele><time>2026-04-04T08:45:43.443Z</time></trkpt><trkpt lat="43.5959283" lon="3.0677517"><ele>363.0</ele><time>2026-04-04T08:45:44.443Z</time></trkpt><trkpt lat="43.596025" lon="3.0677217"><ele>363.0</ele><time>2026-04-04T08:45:45.444Z</time></trkpt><trkpt lat="43.5961217" lon="3.0676717"><ele>363.0</ele><time>2026-04-04T08:45:46.444Z</time></trkpt><trkpt lat="43.596205" lon="3.0676083"><ele>363.0</ele><time>2026-04-04T08:45:47.443Z</time></trkpt><trkpt lat="43.5962833" lon="3.0675317"><ele>363.0</ele><time>2026-04-04T08:45:48.443Z</time></trkpt><trkpt lat="43.5963583" lon="3.0674517"><ele>362.6666666666667</ele><time>2026-04-04T08:45:49.443Z</time></trkpt><trkpt lat="43.5964317" lon="3.0673817"><ele>362.33333333333337</ele><time>2026-04-04T08:45:50.443Z</time></trkpt><trkpt lat="43.5965083" lon="3.06732"><ele>362.0</ele><time>2026-04-04T08:45:51.443Z</time></trkpt><trkpt lat="43.596885" lon="3.06721"><ele>362.0</ele><time>2026-04-04T08:45:53.25Z</time></trkpt><trkpt lat="43.5968283" lon="3.0672817"><ele>362.0</ele><time>2026-04-04T08:45:54.449Z</time></trkpt><trkpt lat="43.5969317" lon="3.0671267"><ele>362.0</ele><time>2026-04-04T08:45:56.444Z</time></trkpt><trkpt lat="43.5970533" lon="3.0670283"><ele>362.0</ele><time>2026-04-04T08:45:57.443Z</time></trkpt><trkpt lat="43.5971883" lon="3.066945"><ele>365.5</ele><time>2026-04-04T08:45:58.444Z</time></trkpt><trkpt lat="43.5973133" lon="3.066855"><ele>369.0</ele><time>2026-04-04T08:45:59.443Z</time></trkpt><trkpt lat="43.597445" lon="3.06677"><ele>372.5</ele><time>2026-04-04T08:46:00.444Z</time></trkpt><trkpt lat="43.597555" lon="3.0666717"><ele>376.0</ele><time>2026-04-04T08:46:01.443Z</time></trkpt><trkpt lat="43.5976567" lon="3.0665733"><ele>376.0</ele><time>2026-04-04T08:46:02.443Z</time></trkpt><trkpt lat="43.5977617" lon="3.0664733"><ele>376.0</ele><time>2026-04-04T08:46:03.445Z</time></trkpt><trkpt lat="43.5978983" lon="3.0663733"><ele>376.0</ele><time>2026-04-04T08:46:04.444Z</time></trkpt><trkpt lat="43.5980217" lon="3.06627"><ele>376.0</ele><time>2026-04-04T08:46:05.443Z</time></trkpt><trkpt lat="43.598165" lon="3.06614"><ele>378.3333333333333</ele><time>2026-04-04T08:46:06.444Z</time></trkpt><trkpt lat="43.598285" lon="3.0659917"><ele>380.6666666666667</ele><time>2026-04-04T08:46:07.443Z</time></trkpt><trkpt lat="43.598385" lon="3.065835"><ele>383.0</ele><time>2026-04-04T08:46:08.444Z</time></trkpt><trkpt lat="43.598485" lon="3.06567"><ele>385.33333333333337</ele><time>2026-04-04T08:46:09.443Z</time></trkpt><trkpt lat="43.5985867" lon="3.065515"><ele>387.6666666666667</ele><time>2026-04-04T08:46:10.443Z</time></trkpt><trkpt lat="43.5986733" lon="3.0653433"><ele>390.0</ele><time>2026-04-04T08:46:11.443Z</time></trkpt><trkpt lat="43.5987617" lon="3.0651767"><ele>391.5</ele><time>2026-04-04T08:46:12.443Z</time></trkpt><trkpt lat="43.598845" lon="3.0650183"><ele>393.0</ele><time>2026-04-04T08:46:13.444Z</time></trkpt><trkpt lat="43.5989" lon="3.064855"><ele>394.5</ele><time>2026-04-04T08:46:14.445Z</time></trkpt><trkpt lat="43.5989117" lon="3.0647033"><ele>396.0</ele><time>2026-04-04T08:46:15.445Z</time></trkpt><trkpt lat="43.5989117" lon="3.0645683"><ele>398.20000000000005</ele><time>2026-04-04T08:46:16.443Z</time></trkpt><trkpt lat="43.598895" lon="3.064455"><ele>400.40000000000003</ele><time>2026-04-04T08:46:17.443Z</time></trkpt><trkpt lat="43.5988883" lon="3.0643283"><ele>402.6</ele><time>2026-04-04T08:46:18.443Z</time></trkpt><trkpt lat="43.5988917" lon="3.0641967"><ele>404.8</ele><time>2026-04-04T08:46:19.444Z</time></trkpt><trkpt lat="43.5989133" lon="3.0640433"><ele>407.0</ele><time>2026-04-04T08:46:20.443Z</time></trkpt><trkpt lat="43.5989317" lon="3.0638817"><ele>408.8333333333333</ele><time>2026-04-04T08:46:21.444Z</time></trkpt><trkpt lat="43.5989517" lon="3.06373"><ele>410.66666666666663</ele><time>2026-04-04T08:46:22.443Z</time></trkpt><trkpt lat="43.59895" lon="3.0635933"><ele>412.5</ele><time>2026-04-04T08:46:23.444Z</time></trkpt><trkpt lat="43.5989317" lon="3.0634767"><ele>414.33333333333337</ele><time>2026-04-04T08:46:24.443Z</time></trkpt><trkpt lat="43.5989167" lon="3.0633667"><ele>416.1666666666667</ele><time>2026-04-04T08:46:25.443Z</time></trkpt><trkpt lat="43.5988933" lon="3.06328"><ele>418.0</ele><time>2026-04-04T08:46:26.448Z</time></trkpt><trkpt lat="43.5988783" lon="3.063195"><ele>421.0</ele><time>2026-04-04T08:46:27.445Z</time></trkpt><trkpt lat="43.5988183" lon="3.063145"><ele>424.0</ele><time>2026-04-04T08:46:30.445Z</time></trkpt><trkpt lat="43.5986433" lon="3.0634183"><ele>427.0</ele><time>2026-04-04T08:46:31.444Z</time></trkpt><trkpt lat="43.5985333" lon="3.0635133"><ele>427.0</ele><time>2026-04-04T08:46:32.444Z</time></trkpt><trkpt lat="43.598405" lon="3.0636233"><ele>427.0</ele><time>2026-04-04T08:46:33.444Z</time></trkpt><trkpt lat="43.59827" lon="3.0637017"><ele>427.0</ele><time>2026-04-04T08:46:34.443Z</time></trkpt><trkpt lat="43.598125" lon="3.0637567"><ele>427.0</ele><time>2026-04-04T08:46:35.443Z</time></trkpt><trkpt lat="43.5979917" lon="3.0637867"><ele>427.0</ele><time>2026-04-04T08:46:36.444Z</time></trkpt><trkpt lat="43.5978467" lon="3.0637883"><ele>427.0</ele><time>2026-04-04T08:46:37.444Z</time></trkpt><trkpt lat="43.5977033" lon="3.06377"><ele>427.0</ele><time>2026-04-04T08:46:38.443Z</time></trkpt><trkpt lat="43.5975733" lon="3.06372"><ele>427.0</ele><time>2026-04-04T08:46:39.443Z</time></trkpt><trkpt lat="43.5974583" lon="3.0636467"><ele>428.5</ele><time>2026-04-04T08:46:40.446Z</time></trkpt><trkpt lat="43.5973567" lon="3.0635433"><ele>430.0</ele><time>2026-04-04T08:46:41.443Z</time></trkpt><trkpt lat="43.5972783" lon="3.0634117"><ele>431.5</ele><time>2026-04-04T08:46:42.444Z</time></trkpt><trkpt lat="43.5971783" lon="3.0633183"><ele>433.0</ele><time>2026-04-04T08:46:43.444Z</time></trkpt><trkpt lat="43.5971033" lon="3.0631983"><ele>433.25</ele><time>2026-04-04T08:46:44.443Z</time></trkpt><trkpt lat="43.5970167" lon="3.0630383"><ele>433.5</ele><time>2026-04-04T08:46:45.443Z</time></trkpt><trkpt lat="43.59693" lon="3.062875"><ele>433.75</ele><time>2026-04-04T08:46:46.443Z</time></trkpt><trkpt lat="43.5968383" lon="3.062705"><ele>434.0</ele><time>2026-04-04T08:46:47.445Z</time></trkpt><trkpt lat="43.5967467" lon="3.0625233"><ele>437.0</ele><time>2026-04-04T08:46:48.444Z</time></trkpt><trkpt lat="43.59667" lon="3.0623467"><ele>440.0</ele><time>2026-04-04T08:46:49.445Z</time></trkpt><trkpt lat="43.5966017" lon="3.0621733"><ele>443.0</ele><time>2026-04-04T08:46:50.445Z</time></trkpt><trkpt lat="43.596555" lon="3.0620083"><ele>446.0</ele><time>2026-04-04T08:46:51.443Z</time></trkpt><trkpt lat="43.5965317" lon="3.0618617"><ele>446.0</ele><time>2026-04-04T08:46:52.445Z</time></trkpt><trkpt lat="43.596535" lon="3.0617283"><ele>446.0</ele><time>2026-04-04T08:46:53.444Z</time></trkpt><trkpt lat="43.5965633" lon="3.0616167"><ele>446.0</ele><time>2026-04-04T08:46:54.443Z</time></trkpt><trkpt lat="43.5966033" lon="3.061535"><ele>446.0</ele><time>2026-04-04T08:46:55.444Z</time></trkpt><trkpt lat="43.59665" lon="3.0614767"><ele>446.0</ele><time>2026-04-04T08:46:56.444Z</time></trkpt><trkpt lat="43.596785" lon="3.0614733"><ele>446.0</ele><time>2026-04-04T08:46:58.446Z</time></trkpt><trkpt lat="43.5968817" lon="3.0616383"><ele>446.0</ele><time>2026-04-04T08:46:59.443Z</time></trkpt><trkpt lat="43.59696" lon="3.0618567"><ele>446.0</ele><time>2026-04-04T08:47:00.443Z</time></trkpt><trkpt lat="43.5970833" lon="3.06198"><ele>450.5</ele><time>2026-04-04T08:47:01.445Z</time></trkpt><trkpt lat="43.5972017" lon="3.0621283"><ele>455.0</ele><time>2026-04-04T08:47:02.444Z</time></trkpt><trkpt lat="43.5973183" lon="3.06225"><ele>459.5</ele><time>2026-04-04T08:47:03.444Z</time></trkpt><trkpt lat="43.59744" lon="3.0623067"><ele>464.0</ele><time>2026-04-04T08:47:04.444Z</time></trkpt><trkpt lat="43.5975567" lon="3.06232"><ele>464.0</ele><time>2026-04-04T08:47:05.444Z</time></trkpt><trkpt lat="43.5976783" lon="3.062275"><ele>464.0</ele><time>2026-04-04T08:47:06.444Z</time></trkpt><trkpt lat="43.5978017" lon="3.0621667"><ele>464.0</ele><time>2026-04-04T08:47:07.444Z</time></trkpt><trkpt lat="43.59792" lon="3.0620083"><ele>464.0</ele><time>2026-04-04T08:47:08.443Z</time></trkpt><trkpt lat="43.5980033" lon="3.06184"><ele>463.6</ele><time>2026-04-04T08:47:09.443Z</time></trkpt><trkpt lat="43.5980533" lon="3.0616833"><ele>463.2</ele><time>2026-04-04T08:47:10.443Z</time></trkpt><trkpt lat="43.5980767" lon="3.061535"><ele>462.80000000000007</ele><time>2026-04-04T08:47:11.444Z</time></trkpt><trkpt lat="43.5980867" lon="3.0614183"><ele>462.40000000000003</ele><time>2026-04-04T08:47:12.445Z</time></trkpt><trkpt lat="43.598095" lon="3.06132"><ele>462.0</ele><time>2026-04-04T08:47:13.444Z</time></trkpt><trkpt lat="43.5981083" lon="3.0612283"><ele>462.0</ele><time>2026-04-04T08:47:14.445Z</time></trkpt><trkpt lat="43.59819" lon="3.061235"><ele>462.00000000000006</ele><time>2026-04-04T08:47:15.444Z</time></trkpt><trkpt lat="43.5982883" lon="3.06134"><ele>462.00000000000006</ele><time>2026-04-04T08:47:17.444Z</time></trkpt><trkpt lat="43.598365" lon="3.0614967"><ele>462.0</ele><time>2026-04-04T08:47:19.445Z</time></trkpt><trkpt lat="43.5984167" lon="3.0615817"><ele>462.0</ele><time>2026-04-04T08:47:20.443Z</time></trkpt><trkpt lat="43.59847" lon="3.061675"><ele>462.0</ele><time>2026-04-04T08:47:21.444Z</time></trkpt><trkpt lat="43.5985283" lon="3.06175"><ele>462.0</ele><time>2026-04-04T08:47:22.442Z</time></trkpt><trkpt lat="43.5985867" lon="3.0618183"><ele>462.0</ele><time>2026-04-04T08:47:23.444Z</time></trkpt><trkpt lat="43.59865" lon="3.0618783"><ele>462.0</ele><time>2026-04-04T08:47:24.443Z</time></trkpt><trkpt lat="43.5987167" lon="3.0619317"><ele>462.0</ele><time>2026-04-04T08:47:25.444Z</time></trkpt><trkpt lat="43.5987917" lon="3.061965"><ele>462.0</ele><time>2026-04-04T08:47:26.443Z</time></trkpt><trkpt lat="43.5988833" lon="3.0619717"><ele>462.8</ele><time>2026-04-04T08:47:27.444Z</time></trkpt><trkpt lat="43.59898" lon="3.06194"><ele>463.6</ele><time>2026-04-04T08:47:28.444Z</time></trkpt><trkpt lat="43.5990867" lon="3.061885"><ele>464.40000000000003</ele><time>2026-04-04T08:47:29.444Z</time></trkpt><trkpt lat="43.5991783" lon="3.0618533"><ele>465.20000000000005</ele><time>2026-04-04T08:47:30.443Z</time></trkpt><trkpt lat="43.59927" lon="3.0618433"><ele>466.0</ele><time>2026-04-04T08:47:31.444Z</time></trkpt><trkpt lat="43.59936" lon="3.061875"><ele>466.0</ele><time>2026-04-04T08:47:32.443Z</time></trkpt><trkpt lat="43.5994417" lon="3.0619483"><ele>466.0</ele><time>2026-04-04T08:47:33.443Z</time></trkpt><trkpt lat="43.5995267" lon="3.0620433"><ele>466.0</ele><time>2026-04-04T08:47:34.444Z</time></trkpt><trkpt lat="43.5996067" lon="3.0621533"><ele>466.0</ele><time>2026-04-04T08:47:35.447Z</time></trkpt><trkpt lat="43.5996933" lon="3.0622633"><ele>466.0</ele><time>2026-04-04T08:47:36.444Z</time></trkpt><trkpt lat="43.59979" lon="3.0623667"><ele>467.5</ele><time>2026-04-04T08:47:37.447Z</time></trkpt><trkpt lat="43.59989" lon="3.0624433"><ele>469.0</ele><time>2026-04-04T08:47:38.445Z</time></trkpt><trkpt lat="43.5999983" lon="3.06249"><ele>470.5</ele><time>2026-04-04T08:47:39.447Z</time></trkpt><trkpt lat="43.6001217" lon="3.06251"><ele>472.0</ele><time>2026-04-04T08:47:40.447Z</time></trkpt><trkpt lat="43.60025" lon="3.062525"><ele>469.0</ele><time>2026-04-04T08:47:41.446Z</time></trkpt><trkpt lat="43.6003717" lon="3.0625533"><ele>466.0</ele><time>2026-04-04T08:47:42.446Z</time></trkpt><trkpt lat="43.6004767" lon="3.0626033"><ele>463.0</ele><time>2026-04-04T08:47:43.444Z</time></trkpt><trkpt lat="43.6005833" lon="3.0626767"><ele>460.0</ele><time>2026-04-04T08:47:44.443Z</time></trkpt><trkpt lat="43.6006883" lon="3.0627567"><ele>460.0</ele><time>2026-04-04T08:47:45.446Z</time></trkpt><trkpt lat="43.6008" lon="3.062845"><ele>460.0</ele><time>2026-04-04T08:47:46.446Z</time></trkpt><trkpt lat="43.6009067" lon="3.06294"><ele>460.0</ele><time>2026-04-04T08:47:47.447Z</time></trkpt><trkpt lat="43.601" lon="3.06302"><ele>460.0</ele><time>2026-04-04T08:47:48.446Z</time></trkpt><trkpt lat="43.6010967" lon="3.0631033"><ele>460.2</ele><time>2026-04-04T08:47:49.444Z</time></trkpt><trkpt lat="43.6011933" lon="3.0631833"><ele>460.4</ele><time>2026-04-04T08:47:50.447Z</time></trkpt><trkpt lat="43.6012933" lon="3.063245"><ele>460.6</ele><time>2026-04-04T08:47:51.446Z</time></trkpt><trkpt lat="43.6013817" lon="3.063275"><ele>460.8</ele><time>2026-04-04T08:47:52.446Z</time></trkpt><trkpt lat="43.6014767" lon="3.0632733"><ele>461.0</ele><time>2026-04-04T08:47:53.446Z</time></trkpt><trkpt lat="43.601555" lon="3.06325"><ele>460.99999999999994</ele><time>2026-04-04T08:47:54.448Z</time></trkpt><trkpt lat="43.601625" lon="3.0632183"><ele>461.0</ele><time>2026-04-04T08:47:55.446Z</time></trkpt><trkpt lat="43.6016967" lon="3.0632"><ele>461.0</ele><time>2026-04-04T08:47:56.444Z</time></trkpt><trkpt lat="43.601765" lon="3.0631917"><ele>461.0</ele><time>2026-04-04T08:47:57.447Z</time></trkpt><trkpt lat="43.6018317" lon="3.0631967"><ele>460.99999999999994</ele><time>2026-04-04T08:47:58.444Z</time></trkpt><trkpt lat="43.6019267" lon="3.0632967"><ele>461.0</ele><time>2026-04-04T08:48:00.446Z</time></trkpt><trkpt lat="43.60195" lon="3.063415"><ele>458.14285714285717</ele><time>2026-04-04T08:48:01.446Z</time></trkpt><trkpt lat="43.601975" lon="3.063525"><ele>455.28571428571433</ele><time>2026-04-04T08:48:02.446Z</time></trkpt><trkpt lat="43.602005" lon="3.0636167"><ele>452.42857142857144</ele><time>2026-04-04T08:48:03.446Z</time></trkpt><trkpt lat="43.6020517" lon="3.0636767"><ele>449.57142857142856</ele><time>2026-04-04T08:48:04.446Z</time></trkpt><trkpt lat="43.6021067" lon="3.063725"><ele>446.7142857142857</ele><time>2026-04-04T08:48:05.445Z</time></trkpt><trkpt lat="43.6021717" lon="3.063745"><ele>443.8571428571429</ele><time>2026-04-04T08:48:06.446Z</time></trkpt><trkpt lat="43.6022383" lon="3.06374"><ele>441.0</ele><time>2026-04-04T08:48:07.446Z</time></trkpt><trkpt lat="43.6023117" lon="3.06371"><ele>440.0</ele><time>2026-04-04T08:48:08.444Z</time></trkpt><trkpt lat="43.6023767" lon="3.0636683"><ele>439.0</ele><time>2026-04-04T08:48:09.446Z</time></trkpt><trkpt lat="43.6024433" lon="3.0636033"><ele>438.0</ele><time>2026-04-04T08:48:10.446Z</time></trkpt><trkpt lat="43.6025067" lon="3.0635083"><ele>437.0</ele><time>2026-04-04T08:48:11.446Z</time></trkpt><trkpt lat="43.6025617" lon="3.0634333"><ele>436.0</ele><time>2026-04-04T08:48:12.444Z</time></trkpt><trkpt lat="43.6026133" lon="3.063375"><ele>435.0</ele><time>2026-04-04T08:48:13.443Z</time></trkpt><trkpt lat="43.6027117" lon="3.0632767"><ele>434.8</ele><time>2026-04-04T08:48:15.444Z</time></trkpt><trkpt lat="43.602825" lon="3.0632617"><ele>434.6</ele><time>2026-04-04T08:48:17.445Z</time></trkpt><trkpt lat="43.60291" lon="3.0632833"><ele>434.4</ele><time>2026-04-04T08:48:18.446Z</time></trkpt><trkpt lat="43.6029967" lon="3.0633117"><ele>434.2</ele><time>2026-04-04T08:48:19.447Z</time></trkpt><trkpt lat="43.6030883" lon="3.0633233"><ele>434.0</ele><time>2026-04-04T08:48:20.445Z</time></trkpt><trkpt lat="43.6031933" lon="3.0633567"><ele>434.0</ele><time>2026-04-04T08:48:21.445Z</time></trkpt><trkpt lat="43.6033133" lon="3.0634233"><ele>434.0</ele><time>2026-04-04T08:48:22.445Z</time></trkpt><trkpt lat="43.6034267" lon="3.0634933"><ele>434.0</ele><time>2026-04-04T08:48:23.445Z</time></trkpt><trkpt lat="43.6035333" lon="3.063555"><ele>434.0</ele><time>2026-04-04T08:48:24.445Z</time></trkpt><trkpt lat="43.60363" lon="3.0635917"><ele>435.75</ele><time>2026-04-04T08:48:25.444Z</time></trkpt><trkpt lat="43.60373" lon="3.0636083"><ele>437.5</ele><time>2026-04-04T08:48:26.445Z</time></trkpt><trkpt lat="43.6038317" lon="3.063615"><ele>439.25</ele><time>2026-04-04T08:48:27.445Z</time></trkpt><trkpt lat="43.6039633" lon="3.0635883"><ele>441.0</ele><time>2026-04-04T08:48:28.445Z</time></trkpt><trkpt lat="43.6040933" lon="3.06357"><ele>441.0</ele><time>2026-04-04T08:48:29.447Z</time></trkpt><trkpt lat="43.604225" lon="3.0635583"><ele>441.0</ele><time>2026-04-04T08:48:30.444Z</time></trkpt><trkpt lat="43.6043483" lon="3.0635483"><ele>441.0</ele><time>2026-04-04T08:48:31.446Z</time></trkpt><trkpt lat="43.6044733" lon="3.0635333"><ele>441.0</ele><time>2026-04-04T08:48:32.444Z</time></trkpt><trkpt lat="43.6045733" lon="3.0635217"><ele>441.20000000000005</ele><time>2026-04-04T08:48:33.446Z</time></trkpt><trkpt lat="43.604685" lon="3.063525"><ele>441.40000000000003</ele><time>2026-04-04T08:48:34.446Z</time></trkpt><trkpt lat="43.6047883" lon="3.063545"><ele>441.6</ele><time>2026-04-04T08:48:35.446Z</time></trkpt><trkpt lat="43.6048883" lon="3.0635617"><ele>441.8</ele><time>2026-04-04T08:48:36.444Z</time></trkpt><trkpt lat="43.6049817" lon="3.063565"><ele>442.0</ele><time>2026-04-04T08:48:37.445Z</time></trkpt><trkpt lat="43.6050717" lon="3.063555"><ele>442.0</ele><time>2026-04-04T08:48:38.445Z</time></trkpt><trkpt lat="43.6051717" lon="3.0635483"><ele>442.00000000000006</ele><time>2026-04-04T08:48:39.446Z</time></trkpt><trkpt lat="43.6052683" lon="3.0635333"><ele>442.00000000000006</ele><time>2026-04-04T08:48:40.448Z</time></trkpt><trkpt lat="43.6053533" lon="3.0635067"><ele>442.0</ele><time>2026-04-04T08:48:41.446Z</time></trkpt><trkpt lat="43.6054367" lon="3.0634583"><ele>442.0</ele><time>2026-04-04T08:48:42.443Z</time></trkpt><trkpt lat="43.6055133" lon="3.0633833"><ele>440.40000000000003</ele><time>2026-04-04T08:48:43.446Z</time></trkpt><trkpt lat="43.60558" lon="3.0632983"><ele>438.80000000000007</ele><time>2026-04-04T08:48:44.448Z</time></trkpt><trkpt lat="43.6056517" lon="3.063195"><ele>437.2</ele><time>2026-04-04T08:48:45.443Z</time></trkpt><trkpt lat="43.605705" lon="3.0631"><ele>435.6</ele><time>2026-04-04T08:48:46.446Z</time></trkpt><trkpt lat="43.6057583" lon="3.0630317"><ele>434.0</ele><time>2026-04-04T08:48:47.447Z</time></trkpt><trkpt lat="43.6058617" lon="3.062965"><ele>434.0</ele><time>2026-04-04T08:48:49.444Z</time></trkpt><trkpt lat="43.6059667" lon="3.0629917"><ele>434.0</ele><time>2026-04-04T08:48:51.445Z</time></trkpt><trkpt lat="43.606015" lon="3.063145"><ele>434.0</ele><time>2026-04-04T08:48:53.446Z</time></trkpt><trkpt lat="43.6060367" lon="3.063275"><ele>434.0</ele><time>2026-04-04T08:48:54.447Z</time></trkpt><trkpt lat="43.6060783" lon="3.063375"><ele>434.0</ele><time>2026-04-04T08:48:55.446Z</time></trkpt><trkpt lat="43.60613" lon="3.0634667"><ele>438.49999999999994</ele><time>2026-04-04T08:48:56.444Z</time></trkpt><trkpt lat="43.6061967" lon="3.0635333"><ele>443.0</ele><time>2026-04-04T08:48:57.444Z</time></trkpt><trkpt lat="43.606275" lon="3.0635783"><ele>447.5</ele><time>2026-04-04T08:48:58.446Z</time></trkpt><trkpt lat="43.6063517" lon="3.0636083"><ele>452.0</ele><time>2026-04-04T08:48:59.444Z</time></trkpt><trkpt lat="43.6064133" lon="3.0636533"><ele>456.49999999999994</ele><time>2026-04-04T08:49:00.444Z</time></trkpt><trkpt lat="43.6064683" lon="3.0637017"><ele>461.0</ele><time>2026-04-04T08:49:01.444Z</time></trkpt><trkpt lat="43.60651" lon="3.0638817"><ele>461.0</ele><time>2026-04-04T08:49:03.444Z</time></trkpt><trkpt lat="43.606515" lon="3.064025"><ele>461.0</ele><time>2026-04-04T08:49:04.444Z</time></trkpt><trkpt lat="43.6065417" lon="3.06416"><ele>461.0</ele><time>2026-04-04T08:49:05.444Z</time></trkpt><trkpt lat="43.606585" lon="3.0642833"><ele>461.0</ele><time>2026-04-04T08:49:06.443Z</time></trkpt><trkpt lat="43.6066333" lon="3.0644117"><ele>461.0</ele><time>2026-04-04T08:49:07.444Z</time></trkpt><trkpt lat="43.6066733" lon="3.0645367"><ele>456.4</ele><time>2026-04-04T08:49:08.444Z</time></trkpt><trkpt lat="43.60669" lon="3.064665"><ele>451.8</ele><time>2026-04-04T08:49:09.444Z</time></trkpt><trkpt lat="43.6066733" lon="3.064815"><ele>447.19999999999993</ele><time>2026-04-04T08:49:10.444Z</time></trkpt><trkpt lat="43.606655" lon="3.0649767"><ele>442.59999999999997</ele><time>2026-04-04T08:49:11.444Z</time></trkpt><trkpt lat="43.606645" lon="3.0651283"><ele>438.0</ele><time>2026-04-04T08:49:12.444Z</time></trkpt><trkpt lat="43.6066567" lon="3.0652667"><ele>439.4</ele><time>2026-04-04T08:49:13.445Z</time></trkpt><trkpt lat="43.6066933" lon="3.0654033"><ele>440.79999999999995</ele><time>2026-04-04T08:49:14.444Z</time></trkpt><trkpt lat="43.6067517" lon="3.06551"><ele>442.2</ele><time>2026-04-04T08:49:15.447Z</time></trkpt><trkpt lat="43.6068267" lon="3.065585"><ele>443.6</ele><time>2026-04-04T08:49:16.444Z</time></trkpt><trkpt lat="43.6069083" lon="3.0656367"><ele>445.0</ele><time>2026-04-04T08:49:17.444Z</time></trkpt><trkpt lat="43.6070033" lon="3.065665"><ele>445.0</ele><time>2026-04-04T08:49:18.444Z</time></trkpt><trkpt lat="43.6071017" lon="3.0656667"><ele>445.0</ele><time>2026-04-04T08:49:19.445Z</time></trkpt><trkpt lat="43.60722" lon="3.0656333"><ele>445.0</ele><time>2026-04-04T08:49:20.443Z</time></trkpt><trkpt lat="43.6073283" lon="3.0656067"><ele>445.0</ele><time>2026-04-04T08:49:21.444Z</time></trkpt><trkpt lat="43.6074183" lon="3.0656017"><ele>445.0</ele><time>2026-04-04T08:49:22.444Z</time></trkpt><trkpt lat="43.607495" lon="3.0656283"><ele>445.00000000000006</ele><time>2026-04-04T08:49:23.443Z</time></trkpt><trkpt lat="43.607555" lon="3.06568"><ele>445.0</ele><time>2026-04-04T08:49:24.443Z</time></trkpt><trkpt lat="43.6075983" lon="3.0657583"><ele>445.0</ele><time>2026-04-04T08:49:25.445Z</time></trkpt><trkpt lat="43.6076217" lon="3.0658417"><ele>445.0</ele><time>2026-04-04T08:49:26.443Z</time></trkpt><trkpt lat="43.60765" lon="3.065925"><ele>445.00000000000006</ele><time>2026-04-04T08:49:27.443Z</time></trkpt><trkpt lat="43.6077333" lon="3.0660683"><ele>445.0</ele><time>2026-04-04T08:49:29.444Z</time></trkpt><trkpt lat="43.607845" lon="3.0661383"><ele>443.83333333333337</ele><time>2026-04-04T08:49:31.445Z</time></trkpt><trkpt lat="43.60792" lon="3.0661383"><ele>442.6666666666667</ele><time>2026-04-04T08:49:32.447Z</time></trkpt><trkpt lat="43.6079983" lon="3.0661367"><ele>441.5</ele><time>2026-04-04T08:49:33.444Z</time></trkpt><trkpt lat="43.6080867" lon="3.0661417"><ele>440.33333333333337</ele><time>2026-04-04T08:49:34.443Z</time></trkpt><trkpt lat="43.608175" lon="3.0661467"><ele>439.1666666666667</ele><time>2026-04-04T08:49:35.446Z</time></trkpt><trkpt lat="43.6082633" lon="3.0661783"><ele>438.0</ele><time>2026-04-04T08:49:36.446Z</time></trkpt><trkpt lat="43.6083617" lon="3.06621"><ele>438.0</ele><time>2026-04-04T08:49:37.444Z</time></trkpt><trkpt lat="43.608475" lon="3.0662333"><ele>438.0</ele><time>2026-04-04T08:49:38.444Z</time></trkpt><trkpt lat="43.608595" lon="3.0662467"><ele>438.0</ele><time>2026-04-04T08:49:39.444Z</time></trkpt><trkpt lat="43.6087217" lon="3.0662583"><ele>438.0</ele><time>2026-04-04T08:49:40.444Z</time></trkpt><trkpt lat="43.608855" lon="3.0662583"><ele>437.5</ele><time>2026-04-04T08:49:41.444Z</time></trkpt><trkpt lat="43.608985" lon="3.0662483"><ele>437.0</ele><time>2026-04-04T08:49:42.446Z</time></trkpt><trkpt lat="43.6091" lon="3.0662167"><ele>436.5</ele><time>2026-04-04T08:49:43.443Z</time></trkpt><trkpt lat="43.6092067" lon="3.0661617"><ele>436.0</ele><time>2026-04-04T08:49:44.446Z</time></trkpt><trkpt lat="43.6093017" lon="3.0660833"><ele>436.0</ele><time>2026-04-04T08:49:45.444Z</time></trkpt><trkpt lat="43.60939" lon="3.0659867"><ele>436.0</ele><time>2026-04-04T08:49:46.446Z</time></trkpt><trkpt lat="43.6094667" lon="3.0658767"><ele>436.0</ele><time>2026-04-04T08:49:47.446Z</time></trkpt><trkpt lat="43.6095333" lon="3.0657533"><ele>436.0</ele><time>2026-04-04T08:49:48.442Z</time></trkpt><trkpt lat="43.6095833" lon="3.0656083"><ele>440.20000000000005</ele><time>2026-04-04T08:49:49.447Z</time></trkpt><trkpt lat="43.6096117" lon="3.065455"><ele>444.40000000000003</ele><time>2026-04-04T08:49:50.446Z</time></trkpt><trkpt lat="43.60963" lon="3.0653167"><ele>448.6</ele><time>2026-04-04T08:49:51.445Z</time></trkpt><trkpt lat="43.6096533" lon="3.0652117"><ele>452.8</ele><time>2026-04-04T08:49:52.445Z</time></trkpt><trkpt lat="43.6097117" lon="3.0651067"><ele>457.0</ele><time>2026-04-04T08:49:54.445Z</time></trkpt><trkpt lat="43.6098117" lon="3.06518"><ele>457.0</ele><time>2026-04-04T08:49:56.445Z</time></trkpt><trkpt lat="43.609865" lon="3.06528"><ele>457.00000000000006</ele><time>2026-04-04T08:49:57.445Z</time></trkpt><trkpt lat="43.6099333" lon="3.0653817"><ele>457.00000000000006</ele><time>2026-04-04T08:49:58.445Z</time></trkpt><trkpt lat="43.6099983" lon="3.0654833"><ele>457.0</ele><time>2026-04-04T08:49:59.446Z</time></trkpt><trkpt lat="43.6100567" lon="3.0656017"><ele>457.0</ele><time>2026-04-04T08:50:00.445Z</time></trkpt><trkpt lat="43.6101283" lon="3.0657217"><ele>456.20000000000005</ele><time>2026-04-04T08:50:01.447Z</time></trkpt><trkpt lat="43.610195" lon="3.0658267"><ele>455.40000000000003</ele><time>2026-04-04T08:50:02.444Z</time></trkpt><trkpt lat="43.610265" lon="3.065905"><ele>454.59999999999997</ele><time>2026-04-04T08:50:03.443Z</time></trkpt><trkpt lat="43.6103367" lon="3.0659717"><ele>453.79999999999995</ele><time>2026-04-04T08:50:04.444Z</time></trkpt><trkpt lat="43.61042" lon="3.0660367"><ele>453.0</ele><time>2026-04-04T08:50:05.444Z</time></trkpt><trkpt lat="43.6105167" lon="3.0660733"><ele>453.0</ele><time>2026-04-04T08:50:06.446Z</time></trkpt><trkpt lat="43.61063" lon="3.066085"><ele>453.0</ele><time>2026-04-04T08:50:07.445Z</time></trkpt><trkpt lat="43.6107467" lon="3.06608"><ele>453.0</ele><time>2026-04-04T08:50:08.444Z</time></trkpt><trkpt lat="43.61087" lon="3.066055"><ele>453.0</ele><time>2026-04-04T08:50:09.444Z</time></trkpt><trkpt lat="43.6109867" lon="3.0659983"><ele>453.0</ele><time>2026-04-04T08:50:10.446Z</time></trkpt><trkpt lat="43.6111133" lon="3.0659183"><ele>453.0</ele><time>2026-04-04T08:50:11.447Z</time></trkpt><trkpt lat="43.6112417" lon="3.0658367"><ele>453.0</ele><time>2026-04-04T08:50:12.446Z</time></trkpt><trkpt lat="43.6113867" lon="3.0657567"><ele>453.0</ele><time>2026-04-04T08:50:13.447Z</time></trkpt><trkpt lat="43.6115117" lon="3.0656833"><ele>458.5</ele><time>2026-04-04T08:50:14.443Z</time></trkpt><trkpt lat="43.6116367" lon="3.0656067"><ele>464.0</ele><time>2026-04-04T08:50:15.444Z</time></trkpt><trkpt lat="43.6117483" lon="3.06552"><ele>469.5</ele><time>2026-04-04T08:50:16.446Z</time></trkpt><trkpt lat="43.611845" lon="3.0654317"><ele>475.0</ele><time>2026-04-04T08:50:17.445Z</time></trkpt><trkpt lat="43.611955" lon="3.0653517"><ele>473.4</ele><time>2026-04-04T08:50:18.444Z</time></trkpt><trkpt lat="43.612065" lon="3.0652883"><ele>471.8</ele><time>2026-04-04T08:50:19.447Z</time></trkpt><trkpt lat="43.6121567" lon="3.0652333"><ele>470.20000000000005</ele><time>2026-04-04T08:50:20.446Z</time></trkpt><trkpt lat="43.61225" lon="3.0651667"><ele>468.6</ele><time>2026-04-04T08:50:21.447Z</time></trkpt><trkpt lat="43.6123433" lon="3.0650783"><ele>467.0</ele><time>2026-04-04T08:50:22.444Z</time></trkpt><trkpt lat="43.612435" lon="3.0649683"><ele>468.75</ele><time>2026-04-04T08:50:23.447Z</time></trkpt><trkpt lat="43.6125267" lon="3.06485"><ele>470.5</ele><time>2026-04-04T08:50:24.445Z</time></trkpt><trkpt lat="43.6126183" lon="3.0647383"><ele>472.25</ele><time>2026-04-04T08:50:25.446Z</time></trkpt><trkpt lat="43.612725" lon="3.06463"><ele>474.0</ele><time>2026-04-04T08:50:26.445Z</time></trkpt><trkpt lat="43.6128333" lon="3.064515"><ele>474.0</ele><time>2026-04-04T08:50:27.444Z</time></trkpt><trkpt lat="43.6129383" lon="3.0643933"><ele>474.0</ele><time>2026-04-04T08:50:28.445Z</time></trkpt><trkpt lat="43.6130417" lon="3.0642667"><ele>474.0</ele><time>2026-04-04T08:50:29.446Z</time></trkpt><trkpt lat="43.6131433" lon="3.06413"><ele>474.0</ele><time>2026-04-04T08:50:30.445Z</time></trkpt><trkpt lat="43.613235" lon="3.06399"><ele>478.4</ele><time>2026-04-04T08:50:31.449Z</time></trkpt><trkpt lat="43.6133183" lon="3.063855"><ele>482.79999999999995</ele><time>2026-04-04T08:50:32.445Z</time></trkpt><trkpt lat="43.6133933" lon="3.0637417"><ele>487.20000000000005</ele><time>2026-04-04T08:50:33.446Z</time></trkpt><trkpt lat="43.6134483" lon="3.0636633"><ele>491.6</ele><time>2026-04-04T08:50:34.445Z</time></trkpt><trkpt lat="43.6135033" lon="3.0635483"><ele>496.0</ele><time>2026-04-04T08:50:36.446Z</time></trkpt><trkpt lat="43.6134417" lon="3.0635083"><ele>496.0</ele><time>2026-04-04T08:50:39.446Z</time></trkpt><trkpt lat="43.6133333" lon="3.0636117"><ele>496.0</ele><time>2026-04-04T08:50:41.446Z</time></trkpt><trkpt lat="43.61326" lon="3.0636717"><ele>496.0</ele><time>2026-04-04T08:50:42.444Z</time></trkpt><trkpt lat="43.6131717" lon="3.0637333"><ele>496.0</ele><time>2026-04-04T08:50:43.445Z</time></trkpt><trkpt lat="43.61305" lon="3.0638033"><ele>496.0</ele><time>2026-04-04T08:50:44.444Z</time></trkpt><trkpt lat="43.6129083" lon="3.063875"><ele>500.33333333333337</ele><time>2026-04-04T08:50:45.444Z</time></trkpt><trkpt lat="43.6127467" lon="3.0639467"><ele>504.66666666666663</ele><time>2026-04-04T08:50:46.444Z</time></trkpt><trkpt lat="43.6126017" lon="3.0639817"><ele>509.0</ele><time>2026-04-04T08:50:47.444Z</time></trkpt><trkpt lat="43.6124367" lon="3.0640033"><ele>509.0</ele><time>2026-04-04T08:50:48.446Z</time></trkpt><trkpt lat="43.61227" lon="3.0640167"><ele>509.0</ele><time>2026-04-04T08:50:49.446Z</time></trkpt><trkpt lat="43.6121117" lon="3.0640383"><ele>509.0</ele><time>2026-04-04T08:50:50.445Z</time></trkpt><trkpt lat="43.6119567" lon="3.0640633"><ele>509.5</ele><time>2026-04-04T08:50:51.444Z</time></trkpt><trkpt lat="43.611805" lon="3.0640917"><ele>510.0</ele><time>2026-04-04T08:50:52.445Z</time></trkpt><trkpt lat="43.6116583" lon="3.0641167"><ele>510.5</ele><time>2026-04-04T08:50:53.445Z</time></trkpt><trkpt lat="43.611545" lon="3.064125"><ele>511.0</ele><time>2026-04-04T08:50:54.446Z</time></trkpt><trkpt lat="43.611455" lon="3.0641333"><ele>511.00000000000006</ele><time>2026-04-04T08:50:55.446Z</time></trkpt><trkpt lat="43.6113733" lon="3.0641317"><ele>511.0</ele><time>2026-04-04T08:50:56.445Z</time></trkpt><trkpt lat="43.6112967" lon="3.0640617"><ele>511.0</ele><time>2026-04-04T08:50:58.446Z</time></trkpt><trkpt lat="43.6112267" lon="3.063965"><ele>511.0</ele><time>2026-04-04T08:51:00.445Z</time></trkpt><trkpt lat="43.6111983" lon="3.0638833"><ele>511.00000000000006</ele><time>2026-04-04T08:51:01.445Z</time></trkpt><trkpt lat="43.611175" lon="3.0637433"><ele>511.0</ele><time>2026-04-04T08:51:02.446Z</time></trkpt><trkpt lat="43.61117" lon="3.0635583"><ele>511.0</ele><time>2026-04-04T08:51:03.448Z</time></trkpt><trkpt lat="43.6112017" lon="3.0633367"><ele>511.0</ele><time>2026-04-04T08:51:04.445Z</time></trkpt><trkpt lat="43.6112083" lon="3.0631533"><ele>511.0</ele><time>2026-04-04T08:51:05.445Z</time></trkpt><trkpt lat="43.611225" lon="3.0629667"><ele>511.0</ele><time>2026-04-04T08:51:06.444Z</time></trkpt><trkpt lat="43.6112617" lon="3.0627683"><ele>513.6</ele><time>2026-04-04T08:51:07.446Z</time></trkpt><trkpt lat="43.61127" lon="3.0626283"><ele>516.2</ele><time>2026-04-04T08:51:08.446Z</time></trkpt><trkpt lat="43.6112817" lon="3.0624867"><ele>518.8</ele><time>2026-04-04T08:51:09.445Z</time></trkpt><trkpt lat="43.6112783" lon="3.06235"><ele>521.4</ele><time>2026-04-04T08:51:10.445Z</time></trkpt><trkpt lat="43.6112633" lon="3.0622367"><ele>524.0</ele><time>2026-04-04T08:51:11.445Z</time></trkpt><trkpt lat="43.6112467" lon="3.0621433"><ele>525.0</ele><time>2026-04-04T08:51:12.446Z</time></trkpt><trkpt lat="43.6112267" lon="3.0620433"><ele>526.0</ele><time>2026-04-04T08:51:13.444Z</time></trkpt><trkpt lat="43.6112" lon="3.06195"><ele>527.0</ele><time>2026-04-04T08:51:14.445Z</time></trkpt><trkpt lat="43.6111333" lon="3.0618733"><ele>528.0</ele><time>2026-04-04T08:51:15.444Z</time></trkpt><trkpt lat="43.6110733" lon="3.0617633"><ele>529.0</ele><time>2026-04-04T08:51:16.446Z</time></trkpt><trkpt lat="43.610985" lon="3.061735"><ele>530.0</ele><time>2026-04-04T08:51:17.444Z</time></trkpt><trkpt lat="43.6108933" lon="3.061725"><ele>530.0</ele><time>2026-04-04T08:51:18.445Z</time></trkpt><trkpt lat="43.6106967" lon="3.0618833"><ele>530.0</ele><time>2026-04-04T08:51:19.444Z</time></trkpt><trkpt lat="43.610575" lon="3.0619083"><ele>530.0</ele><time>2026-04-04T08:51:20.444Z</time></trkpt><trkpt lat="43.61045" lon="3.0619133"><ele>529.75</ele><time>2026-04-04T08:51:21.445Z</time></trkpt><trkpt lat="43.6103167" lon="3.0618933"><ele>529.5</ele><time>2026-04-04T08:51:22.443Z</time></trkpt><trkpt lat="43.6101767" lon="3.061855"><ele>529.25</ele><time>2026-04-04T08:51:23.444Z</time></trkpt><trkpt lat="43.6100483" lon="3.0617983"><ele>529.0</ele><time>2026-04-04T08:51:24.444Z</time></trkpt><trkpt lat="43.6099317" lon="3.06173"><ele>529.0</ele><time>2026-04-04T08:51:25.445Z</time></trkpt><trkpt lat="43.60982" lon="3.0616383"><ele>529.0</ele><time>2026-04-04T08:51:26.445Z</time></trkpt><trkpt lat="43.6097083" lon="3.06154"><ele>529.0</ele><time>2026-04-04T08:51:27.444Z</time></trkpt><trkpt lat="43.609575" lon="3.0614683"><ele>529.0</ele><time>2026-04-04T08:51:28.445Z</time></trkpt><trkpt lat="43.60946" lon="3.061385"><ele>532.0</ele><time>2026-04-04T08:51:29.443Z</time></trkpt><trkpt lat="43.6093317" lon="3.06133"><ele>535.0</ele><time>2026-04-04T08:51:30.445Z</time></trkpt><trkpt lat="43.6092067" lon="3.0613017"><ele>538.0</ele><time>2026-04-04T08:51:31.447Z</time></trkpt><trkpt lat="43.6090967" lon="3.0612867"><ele>541.0</ele><time>2026-04-04T08:51:32.446Z</time></trkpt><trkpt lat="43.609" lon="3.0612683"><ele>541.0</ele><time>2026-04-04T08:51:33.443Z</time></trkpt><trkpt lat="43.6089267" lon="3.0612383"><ele>541.0</ele><time>2026-04-04T08:51:34.444Z</time></trkpt><trkpt lat="43.6088067" lon="3.0611683"><ele>541.0</ele><time>2026-04-04T08:51:36.444Z</time></trkpt><trkpt lat="43.6087733" lon="3.0610933"><ele>541.0</ele><time>2026-04-04T08:51:37.443Z</time></trkpt><trkpt lat="43.6087483" lon="3.0609933"><ele>541.0</ele><time>2026-04-04T08:51:38.445Z</time></trkpt><trkpt lat="43.60877" lon="3.06087"><ele>541.0</ele><time>2026-04-04T08:51:39.444Z</time></trkpt><trkpt lat="43.608845" lon="3.0607317"><ele>541.6</ele><time>2026-04-04T08:51:40.443Z</time></trkpt><trkpt lat="43.608865" lon="3.0605983"><ele>542.2</ele><time>2026-04-04T08:51:41.445Z</time></trkpt><trkpt lat="43.6088967" lon="3.060445"><ele>542.8</ele><time>2026-04-04T08:51:42.444Z</time></trkpt><trkpt lat="43.6088817" lon="3.0603383"><ele>543.4</ele><time>2026-04-04T08:51:43.446Z</time></trkpt><trkpt lat="43.6088617" lon="3.0601883"><ele>544.0</ele><time>2026-04-04T08:51:44.444Z</time></trkpt><trkpt lat="43.60883" lon="3.0600183"><ele>544.2</ele><time>2026-04-04T08:51:45.444Z</time></trkpt><trkpt lat="43.6088017" lon="3.0598717"><ele>544.4</ele><time>2026-04-04T08:51:46.445Z</time></trkpt><trkpt lat="43.6087933" lon="3.0597367"><ele>544.6</ele><time>2026-04-04T08:51:47.446Z</time></trkpt><trkpt lat="43.6088017" lon="3.0595967"><ele>544.8</ele><time>2026-04-04T08:51:48.444Z</time></trkpt><trkpt lat="43.6088333" lon="3.0594483"><ele>545.0</ele><time>2026-04-04T08:51:49.445Z</time></trkpt><trkpt lat="43.6088683" lon="3.059295"><ele>545.0</ele><time>2026-04-04T08:51:50.445Z</time></trkpt><trkpt lat="43.6089367" lon="3.0591233"><ele>545.0</ele><time>2026-04-04T08:51:51.445Z</time></trkpt><trkpt lat="43.608995" lon="3.0589317"><ele>545.0</ele><time>2026-04-04T08:51:52.445Z</time></trkpt><trkpt lat="43.609045" lon="3.0587267"><ele>545.0</ele><time>2026-04-04T08:51:53.445Z</time></trkpt><trkpt lat="43.6090733" lon="3.058545"><ele>545.0</ele><time>2026-04-04T08:51:54.444Z</time></trkpt><trkpt lat="43.6090833" lon="3.05838"><ele>545.0</ele><time>2026-04-04T08:51:55.445Z</time></trkpt><trkpt lat="43.6090767" lon="3.0582067"><ele>545.0</ele><time>2026-04-04T08:51:56.444Z</time></trkpt><trkpt lat="43.6090533" lon="3.0580533"><ele>545.0</ele><time>2026-04-04T08:51:57.444Z</time></trkpt><trkpt lat="43.60904" lon="3.05791"><ele>545.5</ele><time>2026-04-04T08:51:58.445Z</time></trkpt><trkpt lat="43.609055" lon="3.057765"><ele>546.0</ele><time>2026-04-04T08:51:59.445Z</time></trkpt><trkpt lat="43.60908" lon="3.057595"><ele>546.5</ele><time>2026-04-04T08:52:00.445Z</time></trkpt><trkpt lat="43.6091267" lon="3.057425"><ele>547.0</ele><time>2026-04-04T08:52:01.445Z</time></trkpt><trkpt lat="43.6091767" lon="3.0572517"><ele>547.0</ele><time>2026-04-04T08:52:02.445Z</time></trkpt><trkpt lat="43.60921" lon="3.0570717"><ele>547.0</ele><time>2026-04-04T08:52:03.444Z</time></trkpt><trkpt lat="43.60923" lon="3.0569133"><ele>547.0</ele><time>2026-04-04T08:52:04.445Z</time></trkpt><trkpt lat="43.6092383" lon="3.0567767"><ele>547.0</ele><time>2026-04-04T08:52:05.445Z</time></trkpt><trkpt lat="43.6092483" lon="3.05666"><ele>547.0</ele><time>2026-04-04T08:52:06.447Z</time></trkpt><trkpt lat="43.6092633" lon="3.0565683"><ele>546.6</ele><time>2026-04-04T08:52:07.445Z</time></trkpt><trkpt lat="43.60935" lon="3.0564567"><ele>546.2</ele><time>2026-04-04T08:52:09.446Z</time></trkpt><trkpt lat="43.60943" lon="3.0564217"><ele>545.8</ele><time>2026-04-04T08:52:10.447Z</time></trkpt><trkpt lat="43.6095233" lon="3.056375"><ele>545.4</ele><time>2026-04-04T08:52:11.446Z</time></trkpt><trkpt lat="43.60961" lon="3.056305"><ele>545.0</ele><time>2026-04-04T08:52:12.446Z</time></trkpt><trkpt lat="43.609705" lon="3.0562017"><ele>546.25</ele><time>2026-04-04T08:52:13.443Z</time></trkpt><trkpt lat="43.6097917" lon="3.0560633"><ele>547.5</ele><time>2026-04-04T08:52:14.447Z</time></trkpt><trkpt lat="43.609885" lon="3.0559083"><ele>548.75</ele><time>2026-04-04T08:52:15.444Z</time></trkpt><trkpt lat="43.6099717" lon="3.0557417"><ele>550.0</ele><time>2026-04-04T08:52:16.443Z</time></trkpt><trkpt lat="43.6100633" lon="3.0555683"><ele>550.0</ele><time>2026-04-04T08:52:17.444Z</time></trkpt><trkpt lat="43.6101767" lon="3.05538"><ele>550.0</ele><time>2026-04-04T08:52:18.443Z</time></trkpt><trkpt lat="43.6102933" lon="3.055175"><ele>550.0</ele><time>2026-04-04T08:52:19.445Z</time></trkpt><trkpt lat="43.6104067" lon="3.0549617"><ele>551.6666666666667</ele><time>2026-04-04T08:52:20.443Z</time></trkpt><trkpt lat="43.6105133" lon="3.0547417"><ele>553.3333333333334</ele><time>2026-04-04T08:52:21.443Z</time></trkpt><trkpt lat="43.6106083" lon="3.05452"><ele>555.0</ele><time>2026-04-04T08:52:22.445Z</time></trkpt><trkpt lat="43.6107067" lon="3.0543133"><ele>556.6666666666666</ele><time>2026-04-04T08:52:23.445Z</time></trkpt><trkpt lat="43.6107933" lon="3.0541133"><ele>558.3333333333333</ele><time>2026-04-04T08:52:24.443Z</time></trkpt><trkpt lat="43.6108717" lon="3.0539133"><ele>560.0</ele><time>2026-04-04T08:52:25.444Z</time></trkpt><trkpt lat="43.61094" lon="3.05371"><ele>560.0</ele><time>2026-04-04T08:52:26.444Z</time></trkpt><trkpt lat="43.611" lon="3.0535067"><ele>560.0</ele><time>2026-04-04T08:52:27.445Z</time></trkpt><trkpt lat="43.611065" lon="3.0533067"><ele>560.0</ele><time>2026-04-04T08:52:28.443Z</time></trkpt><trkpt lat="43.61112" lon="3.0531217"><ele>563.25</ele><time>2026-04-04T08:52:29.444Z</time></trkpt><trkpt lat="43.61118" lon="3.0529717"><ele>566.5</ele><time>2026-04-04T08:52:30.444Z</time></trkpt><trkpt lat="43.6112483" lon="3.05284"><ele>569.75</ele><time>2026-04-04T08:52:31.444Z</time></trkpt><trkpt lat="43.6113283" lon="3.0527283"><ele>573.0</ele><time>2026-04-04T08:52:32.444Z</time></trkpt><trkpt lat="43.611425" lon="3.05263"><ele>573.0</ele><time>2026-04-04T08:52:33.444Z</time></trkpt><trkpt lat="43.6115133" lon="3.0525267"><ele>573.0</ele><time>2026-04-04T08:52:34.446Z</time></trkpt><trkpt lat="43.611585" lon="3.052405"><ele>573.0</ele><time>2026-04-04T08:52:35.444Z</time></trkpt><trkpt lat="43.611625" lon="3.0522633"><ele>573.0</ele><time>2026-04-04T08:52:36.447Z</time></trkpt><trkpt lat="43.6116367" lon="3.052115"><ele>573.0</ele><time>2026-04-04T08:52:37.448Z</time></trkpt><trkpt lat="43.61163" lon="3.051925"><ele>573.25</ele><time>2026-04-04T08:52:38.446Z</time></trkpt><trkpt lat="43.611625" lon="3.0517317"><ele>573.5</ele><time>2026-04-04T08:52:39.444Z</time></trkpt><trkpt lat="43.6116167" lon="3.0515283"><ele>573.75</ele><time>2026-04-04T08:52:40.444Z</time></trkpt><trkpt lat="43.61161" lon="3.0513217"><ele>574.0</ele><time>2026-04-04T08:52:41.445Z</time></trkpt><trkpt lat="43.6116183" lon="3.051125"><ele>575.0</ele><time>2026-04-04T08:52:42.443Z</time></trkpt><trkpt lat="43.6116317" lon="3.0509133"><ele>576.0</ele><time>2026-04-04T08:52:43.444Z</time></trkpt><trkpt lat="43.6116667" lon="3.0507083"><ele>577.0</ele><time>2026-04-04T08:52:44.443Z</time></trkpt><trkpt lat="43.6117133" lon="3.0504867"><ele>581.0</ele><time>2026-04-04T08:52:45.443Z</time></trkpt><trkpt lat="43.6117733" lon="3.05027"><ele>585.0</ele><time>2026-04-04T08:52:46.445Z</time></trkpt><trkpt lat="43.6118533" lon="3.0500733"><ele>589.0</ele><time>2026-04-04T08:52:47.444Z</time></trkpt><trkpt lat="43.6119433" lon="3.0498883"><ele>588.0</ele><time>2026-04-04T08:52:48.443Z</time></trkpt><trkpt lat="43.6120333" lon="3.0497017"><ele>587.0</ele><time>2026-04-04T08:52:49.444Z</time></trkpt><trkpt lat="43.61212" lon="3.0495167"><ele>586.0</ele><time>2026-04-04T08:52:50.446Z</time></trkpt><trkpt lat="43.6122067" lon="3.04934"><ele>586.0</ele><time>2026-04-04T08:52:51.447Z</time></trkpt><trkpt lat="43.61229" lon="3.0491683"><ele>586.0</ele><time>2026-04-04T08:52:52.444Z</time></trkpt><trkpt lat="43.6123783" lon="3.0490067"><ele>586.0</ele><time>2026-04-04T08:52:53.445Z</time></trkpt><trkpt lat="43.6124633" lon="3.04885"><ele>586.0</ele><time>2026-04-04T08:52:54.443Z</time></trkpt><trkpt lat="43.612535" lon="3.048695"><ele>591.0</ele><time>2026-04-04T08:52:55.444Z</time></trkpt><trkpt lat="43.6125917" lon="3.0485417"><ele>596.0</ele><time>2026-04-04T08:52:56.443Z</time></trkpt><trkpt lat="43.6126467" lon="3.0484"><ele>601.0</ele><time>2026-04-04T08:52:57.443Z</time></trkpt><trkpt lat="43.6127217" lon="3.0482417"><ele>606.0</ele><time>2026-04-04T08:52:58.444Z</time></trkpt><trkpt lat="43.6128033" lon="3.0480617"><ele>603.0</ele><time>2026-04-04T08:52:59.443Z</time></trkpt><trkpt lat="43.612895" lon="3.0478767"><ele>600.0</ele><time>2026-04-04T08:53:00.443Z</time></trkpt><trkpt lat="43.6129967" lon="3.0476767"><ele>597.0</ele><time>2026-04-04T08:53:01.444Z</time></trkpt><trkpt lat="43.6130933" lon="3.0474617"><ele>600.0</ele><time>2026-04-04T08:53:02.446Z</time></trkpt><trkpt lat="43.6131817" lon="3.047225"><ele>603.0</ele><time>2026-04-04T08:53:03.443Z</time></trkpt><trkpt lat="43.613245" lon="3.04697"><ele>606.0</ele><time>2026-04-04T08:53:04.444Z</time></trkpt><trkpt lat="43.6132833" lon="3.0467217"><ele>610.3333333333334</ele><time>2026-04-04T08:53:05.444Z</time></trkpt><trkpt lat="43.6133083" lon="3.046495"><ele>614.6666666666667</ele><time>2026-04-04T08:53:06.443Z</time></trkpt><trkpt lat="43.61333" lon="3.046285"><ele>619.0</ele><time>2026-04-04T08:53:07.443Z</time></trkpt><trkpt lat="43.6133683" lon="3.04609"><ele>619.0</ele><time>2026-04-04T08:53:08.444Z</time></trkpt><trkpt lat="43.6134183" lon="3.045895"><ele>619.0</ele><time>2026-04-04T08:53:09.443Z</time></trkpt><trkpt lat="43.6134983" lon="3.0457133"><ele>619.0</ele><time>2026-04-04T08:53:10.444Z</time></trkpt><trkpt lat="43.6135867" lon="3.0455183"><ele>619.0</ele><time>2026-04-04T08:53:11.443Z</time></trkpt><trkpt lat="43.6136867" lon="3.045305"><ele>619.0</ele><time>2026-04-04T08:53:12.443Z</time></trkpt><trkpt lat="43.6137817" lon="3.045095"><ele>619.0</ele><time>2026-04-04T08:53:13.445Z</time></trkpt><trkpt lat="43.613855" lon="3.0448833"><ele>619.0</ele><time>2026-04-04T08:53:14.444Z</time></trkpt><trkpt lat="43.6139233" lon="3.0446617"><ele>619.0</ele><time>2026-04-04T08:53:15.445Z</time></trkpt><trkpt lat="43.6139867" lon="3.0444317"><ele>619.0</ele><time>2026-04-04T08:53:16.444Z</time></trkpt><trkpt lat="43.6140683" lon="3.0442033"><ele>625.6666666666667</ele><time>2026-04-04T08:53:17.444Z</time></trkpt><trkpt lat="43.6141717" lon="3.0439633"><ele>632.3333333333334</ele><time>2026-04-04T08:53:18.444Z</time></trkpt><trkpt lat="43.61428" lon="3.0437183"><ele>639.0</ele><time>2026-04-04T08:53:19.444Z</time></trkpt><trkpt lat="43.61439" lon="3.04347"><ele>639.0</ele><time>2026-04-04T08:53:20.444Z</time></trkpt><trkpt lat="43.614515" lon="3.0432333"><ele>639.0</ele><time>2026-04-04T08:53:21.444Z</time></trkpt><trkpt lat="43.6146467" lon="3.04302"><ele>639.0</ele><time>2026-04-04T08:53:22.444Z</time></trkpt><trkpt lat="43.614795" lon="3.0428367"><ele>639.0</ele><time>2026-04-04T08:53:23.445Z</time></trkpt><trkpt lat="43.614965" lon="3.0426917"><ele>639.0</ele><time>2026-04-04T08:53:24.444Z</time></trkpt><trkpt lat="43.6151633" lon="3.0425867"><ele>639.0</ele><time>2026-04-04T08:53:25.446Z</time></trkpt><trkpt lat="43.615355" lon="3.0424967"><ele>635.3333333333334</ele><time>2026-04-04T08:53:26.443Z</time></trkpt><trkpt lat="43.6155233" lon="3.0424217"><ele>631.6666666666667</ele><time>2026-04-04T08:53:27.445Z</time></trkpt><trkpt lat="43.615665" lon="3.0423317"><ele>628.0</ele><time>2026-04-04T08:53:28.446Z</time></trkpt><trkpt lat="43.61579" lon="3.0422167"><ele>628.0</ele><time>2026-04-04T08:53:29.447Z</time></trkpt><trkpt lat="43.6158717" lon="3.0420617"><ele>628.0</ele><time>2026-04-04T08:53:30.447Z</time></trkpt><trkpt lat="43.6158983" lon="3.0418583"><ele>628.0</ele><time>2026-04-04T08:53:31.447Z</time></trkpt><trkpt lat="43.6159033" lon="3.0416317"><ele>628.0</ele><time>2026-04-04T08:53:32.444Z</time></trkpt><trkpt lat="43.6158767" lon="3.0414067"><ele>628.0</ele><time>2026-04-04T08:53:33.445Z</time></trkpt><trkpt lat="43.6158333" lon="3.0411683"><ele>628.0</ele><time>2026-04-04T08:53:34.445Z</time></trkpt><trkpt lat="43.6157883" lon="3.0409317"><ele>631.0</ele><time>2026-04-04T08:53:35.445Z</time></trkpt><trkpt lat="43.6157533" lon="3.0407033"><ele>634.0</ele><time>2026-04-04T08:53:36.446Z</time></trkpt><trkpt lat="43.6157433" lon="3.0404467"><ele>637.0</ele><time>2026-04-04T08:53:37.446Z</time></trkpt><trkpt lat="43.6157683" lon="3.0401983"><ele>639.6666666666667</ele><time>2026-04-04T08:53:38.447Z</time></trkpt><trkpt lat="43.6158333" lon="3.0399417"><ele>642.3333333333334</ele><time>2026-04-04T08:53:39.446Z</time></trkpt><trkpt lat="43.6159083" lon="3.0396767"><ele>645.0</ele><time>2026-04-04T08:53:40.445Z</time></trkpt><trkpt lat="43.6159717" lon="3.0394367"><ele>645.0</ele><time>2026-04-04T08:53:41.445Z</time></trkpt><trkpt lat="43.61602" lon="3.0392183"><ele>645.0</ele><time>2026-04-04T08:53:42.446Z</time></trkpt><trkpt lat="43.616035" lon="3.0390167"><ele>645.0</ele><time>2026-04-04T08:53:43.447Z</time></trkpt><trkpt lat="43.6160383" lon="3.03884"><ele>645.0</ele><time>2026-04-04T08:53:44.447Z</time></trkpt><trkpt lat="43.6160533" lon="3.0386717"><ele>647.25</ele><time>2026-04-04T08:53:45.446Z</time></trkpt><trkpt lat="43.616105" lon="3.038515"><ele>649.5</ele><time>2026-04-04T08:53:46.446Z</time></trkpt><trkpt lat="43.6161933" lon="3.0383467"><ele>651.75</ele><time>2026-04-04T08:53:47.446Z</time></trkpt><trkpt lat="43.6162833" lon="3.0381567"><ele>654.0</ele><time>2026-04-04T08:53:48.445Z</time></trkpt><trkpt lat="43.616375" lon="3.0379333"><ele>647.6666666666666</ele><time>2026-04-04T08:53:49.446Z</time></trkpt><trkpt lat="43.6164533" lon="3.037685"><ele>641.3333333333333</ele><time>2026-04-04T08:53:50.445Z</time></trkpt><trkpt lat="43.6165183" lon="3.0374033"><ele>635.0</ele><time>2026-04-04T08:53:51.446Z</time></trkpt><trkpt lat="43.6165617" lon="3.0370967"><ele>635.0</ele><time>2026-04-04T08:53:52.451Z</time></trkpt><trkpt lat="43.6165933" lon="3.0367733"><ele>635.0</ele><time>2026-04-04T08:53:53.445Z</time></trkpt><trkpt lat="43.616625" lon="3.036445"><ele>635.0</ele><time>2026-04-04T08:53:54.447Z</time></trkpt><trkpt lat="43.61667" lon="3.0361333"><ele>635.0</ele><time>2026-04-04T08:53:55.445Z</time></trkpt><trkpt lat="43.6167" lon="3.0358633"><ele>635.0</ele><time>2026-04-04T08:53:56.447Z</time></trkpt><trkpt lat="43.6167117" lon="3.0356383"><ele>635.0</ele><time>2026-04-04T08:53:57.446Z</time></trkpt><trkpt lat="43.6167017" lon="3.0354383"><ele>635.0</ele><time>2026-04-04T08:53:58.446Z</time></trkpt><trkpt lat="43.6166617" lon="3.0352467"><ele>635.0</ele><time>2026-04-04T08:53:59.447Z</time></trkpt><trkpt lat="43.6165783" lon="3.0350517"><ele>634.0</ele><time>2026-04-04T08:54:00.448Z</time></trkpt><trkpt lat="43.6164917" lon="3.0348467"><ele>633.0</ele><time>2026-04-04T08:54:01.444Z</time></trkpt><trkpt lat="43.6164183" lon="3.0346183"><ele>632.0</ele><time>2026-04-04T08:54:02.445Z</time></trkpt><trkpt lat="43.61637" lon="3.0343883"><ele>632.0</ele><time>2026-04-04T08:54:03.445Z</time></trkpt><trkpt lat="43.616345" lon="3.0341867"><ele>632.0</ele><time>2026-04-04T08:54:04.444Z</time></trkpt><trkpt lat="43.616365" lon="3.034"><ele>632.0</ele><time>2026-04-04T08:54:05.444Z</time></trkpt><trkpt lat="43.6164383" lon="3.0338183"><ele>632.0</ele><time>2026-04-04T08:54:06.447Z</time></trkpt><trkpt lat="43.616515" lon="3.033595"><ele>635.3333333333333</ele><time>2026-04-04T08:54:07.446Z</time></trkpt><trkpt lat="43.6165983" lon="3.033345"><ele>638.6666666666666</ele><time>2026-04-04T08:54:08.446Z</time></trkpt><trkpt lat="43.616685" lon="3.0330817"><ele>642.0</ele><time>2026-04-04T08:54:09.444Z</time></trkpt><trkpt lat="43.616785" lon="3.0328033"><ele>643.0</ele><time>2026-04-04T08:54:10.447Z</time></trkpt><trkpt lat="43.6168717" lon="3.0325417"><ele>644.0</ele><time>2026-04-04T08:54:11.448Z</time></trkpt><trkpt lat="43.6169283" lon="3.0323167"><ele>645.0</ele><time>2026-04-04T08:54:12.446Z</time></trkpt><trkpt lat="43.616955" lon="3.0321183"><ele>645.0</ele><time>2026-04-04T08:54:13.444Z</time></trkpt><trkpt lat="43.61695" lon="3.0319283"><ele>645.0</ele><time>2026-04-04T08:54:14.446Z</time></trkpt><trkpt lat="43.6169" lon="3.031765"><ele>645.0</ele><time>2026-04-04T08:54:15.446Z</time></trkpt><trkpt lat="43.6167917" lon="3.031605"><ele>645.0</ele><time>2026-04-04T08:54:16.448Z</time></trkpt><trkpt lat="43.6166533" lon="3.031465"><ele>645.3333333333334</ele><time>2026-04-04T08:54:17.446Z</time></trkpt><trkpt lat="43.6164967" lon="3.0313583"><ele>645.6666666666667</ele><time>2026-04-04T08:54:18.446Z</time></trkpt><trkpt lat="43.616315" lon="3.0312767"><ele>646.0</ele><time>2026-04-04T08:54:19.448Z</time></trkpt><trkpt lat="43.61612" lon="3.031195"><ele>646.0</ele><time>2026-04-04T08:54:20.444Z</time></trkpt><trkpt lat="43.6159117" lon="3.03109"><ele>646.0</ele><time>2026-04-04T08:54:21.447Z</time></trkpt><trkpt lat="43.6156917" lon="3.030955"><ele>648.5</ele><time>2026-04-04T08:54:22.445Z</time></trkpt><trkpt lat="43.6154717" lon="3.0307917"><ele>651.0</ele><time>2026-04-04T08:54:23.445Z</time></trkpt><trkpt lat="43.6152633" lon="3.0306167"><ele>651.0</ele><time>2026-04-04T08:54:24.446Z</time></trkpt><trkpt lat="43.6150717" lon="3.03045"><ele>651.0</ele><time>2026-04-04T08:54:25.447Z</time></trkpt><trkpt lat="43.6148967" lon="3.0303017"><ele>651.0</ele><time>2026-04-04T08:54:26.444Z</time></trkpt><trkpt lat="43.6147367" lon="3.0301917"><ele>651.0</ele><time>2026-04-04T08:54:27.448Z</time></trkpt><trkpt lat="43.6146" lon="3.030095"><ele>651.0</ele><time>2026-04-04T08:54:28.445Z</time></trkpt><trkpt lat="43.61449" lon="3.0299817"><ele>651.0</ele><time>2026-04-04T08:54:29.445Z</time></trkpt><trkpt lat="43.6144267" lon="3.029835"><ele>651.0</ele><time>2026-04-04T08:54:30.445Z</time></trkpt><trkpt lat="43.614385" lon="3.02964"><ele>660.6666666666666</ele><time>2026-04-04T08:54:31.446Z</time></trkpt><trkpt lat="43.6143833" lon="3.0294033"><ele>670.3333333333333</ele><time>2026-04-04T08:54:32.448Z</time></trkpt><trkpt lat="43.61438" lon="3.0291933"><ele>680.0</ele><time>2026-04-04T08:54:33.447Z</time></trkpt><trkpt lat="43.6144317" lon="3.02899"><ele>677.0</ele><time>2026-04-04T08:54:34.445Z</time></trkpt><trkpt lat="43.61451" lon="3.0287933"><ele>674.0</ele><time>2026-04-04T08:54:35.445Z</time></trkpt><trkpt lat="43.6146117" lon="3.0286083"><ele>671.0</ele><time>2026-04-04T08:54:36.445Z</time></trkpt><trkpt lat="43.6147417" lon="3.0284333"><ele>683.0</ele><time>2026-04-04T08:54:37.447Z</time></trkpt><trkpt lat="43.614965" lon="3.0282933"><ele>695.0</ele><time>2026-04-04T08:54:38.446Z</time></trkpt><trkpt lat="43.6151767" lon="3.0281317"><ele>686.0</ele><time>2026-04-04T08:54:39.446Z</time></trkpt><trkpt lat="43.615385" lon="3.02801"><ele>677.0</ele><time>2026-04-04T08:54:40.445Z</time></trkpt><trkpt lat="43.6155767" lon="3.0279033"><ele>668.0</ele><time>2026-04-04T08:54:41.448Z</time></trkpt><trkpt lat="43.6157183" lon="3.0277833"><ele>668.0</ele><time>2026-04-04T08:54:42.447Z</time></trkpt><trkpt lat="43.6158333" lon="3.0276233"><ele>668.0</ele><time>2026-04-04T08:54:43.446Z</time></trkpt><trkpt lat="43.6159267" lon="3.02742"><ele>668.0</ele><time>2026-04-04T08:54:44.446Z</time></trkpt><trkpt lat="43.6159917" lon="3.027175"><ele>670.3333333333333</ele><time>2026-04-04T08:54:45.449Z</time></trkpt><trkpt lat="43.61605" lon="3.0269033"><ele>672.6666666666666</ele><time>2026-04-04T08:54:46.446Z</time></trkpt><trkpt lat="43.616105" lon="3.0266367"><ele>675.0</ele><time>2026-04-04T08:54:47.446Z</time></trkpt><trkpt lat="43.6161617" lon="3.0264083"><ele>675.0</ele><time>2026-04-04T08:54:48.446Z</time></trkpt><trkpt lat="43.616235" lon="3.02622"><ele>675.0</ele><time>2026-04-04T08:54:49.444Z</time></trkpt><trkpt lat="43.6163217" lon="3.0260467"><ele>675.0</ele><time>2026-04-04T08:54:50.447Z</time></trkpt><trkpt lat="43.61648" lon="3.02595"><ele>675.0</ele><time>2026-04-04T08:54:51.444Z</time></trkpt><trkpt lat="43.6166233" lon="3.0259"><ele>675.0</ele><time>2026-04-04T08:54:52.446Z</time></trkpt><trkpt lat="43.616735" lon="3.0258017"><ele>675.0</ele><time>2026-04-04T08:54:53.447Z</time></trkpt><trkpt lat="43.6168233" lon="3.0256567"><ele>675.0</ele><time>2026-04-04T08:54:54.446Z</time></trkpt><trkpt lat="43.6168983" lon="3.025475"><ele>676.6666666666666</ele><time>2026-04-04T08:54:55.447Z</time></trkpt><trkpt lat="43.6169767" lon="3.025275"><ele>678.3333333333333</ele><time>2026-04-04T08:54:56.444Z</time></trkpt><trkpt lat="43.6170617" lon="3.02506"><ele>680.0</ele><time>2026-04-04T08:54:57.445Z</time></trkpt><trkpt lat="43.61715" lon="3.0248317"><ele>680.0</ele><time>2026-04-04T08:54:58.445Z</time></trkpt><trkpt lat="43.617245" lon="3.0245783"><ele>680.0</ele><time>2026-04-04T08:54:59.446Z</time></trkpt><trkpt lat="43.6173467" lon="3.02432"><ele>680.0</ele><time>2026-04-04T08:55:00.446Z</time></trkpt><trkpt lat="43.617455" lon="3.02406"><ele>683.6666666666666</ele><time>2026-04-04T08:55:01.446Z</time></trkpt><trkpt lat="43.6175583" lon="3.0238033"><ele>687.3333333333334</ele><time>2026-04-04T08:55:02.446Z</time></trkpt><trkpt lat="43.617665" lon="3.0235533"><ele>691.0</ele><time>2026-04-04T08:55:03.446Z</time></trkpt><trkpt lat="43.6177667" lon="3.0233117"><ele>688.0</ele><time>2026-04-04T08:55:04.446Z</time></trkpt><trkpt lat="43.6178583" lon="3.0230467"><ele>685.0</ele><time>2026-04-04T08:55:05.446Z</time></trkpt><trkpt lat="43.6179367" lon="3.0227567"><ele>682.0</ele><time>2026-04-04T08:55:06.447Z</time></trkpt><trkpt lat="43.6180133" lon="3.0224383"><ele>682.0</ele><time>2026-04-04T08:55:07.447Z</time></trkpt><trkpt lat="43.618105" lon="3.0221167"><ele>682.0</ele><time>2026-04-04T08:55:08.446Z</time></trkpt><trkpt lat="43.6181983" lon="3.0218183"><ele>684.0</ele><time>2026-04-04T08:55:09.447Z</time></trkpt><trkpt lat="43.618285" lon="3.0215367"><ele>686.0</ele><time>2026-04-04T08:55:10.446Z</time></trkpt><trkpt lat="43.6183717" lon="3.0212717"><ele>688.0</ele><time>2026-04-04T08:55:11.444Z</time></trkpt><trkpt lat="43.6184583" lon="3.0210233"><ele>688.0</ele><time>2026-04-04T08:55:12.445Z</time></trkpt><trkpt lat="43.61853" lon="3.0208167"><ele>688.0</ele><time>2026-04-04T08:55:13.446Z</time></trkpt><trkpt lat="43.6185917" lon="3.0206433"><ele>688.0</ele><time>2026-04-04T08:55:14.443Z</time></trkpt><trkpt lat="43.6186533" lon="3.0205017"><ele>688.0</ele><time>2026-04-04T08:55:15.447Z</time></trkpt><trkpt lat="43.6187017" lon="3.0203933"><ele>688.2</ele><time>2026-04-04T08:55:16.447Z</time></trkpt><trkpt lat="43.6187433" lon="3.0202683"><ele>688.4</ele><time>2026-04-04T08:55:18.446Z</time></trkpt><trkpt lat="43.6187217" lon="3.0201267"><ele>688.6</ele><time>2026-04-04T08:55:21.446Z</time></trkpt><trkpt lat="43.6187167" lon="3.0200367"><ele>688.8000000000001</ele><time>2026-04-04T08:55:22.446Z</time></trkpt><trkpt lat="43.61872" lon="3.0199133"><ele>689.0</ele><time>2026-04-04T08:55:23.447Z</time></trkpt><trkpt lat="43.61872" lon="3.019755"><ele>692.0</ele><time>2026-04-04T08:55:24.446Z</time></trkpt><trkpt lat="43.6187267" lon="3.01953"><ele>695.0</ele><time>2026-04-04T08:55:25.447Z</time></trkpt><trkpt lat="43.6187317" lon="3.0193133"><ele>698.0</ele><time>2026-04-04T08:55:26.446Z</time></trkpt><trkpt lat="43.61873" lon="3.0191117"><ele>699.25</ele><time>2026-04-04T08:55:27.444Z</time></trkpt><trkpt lat="43.61871" lon="3.0189167"><ele>700.5</ele><time>2026-04-04T08:55:28.446Z</time></trkpt><trkpt lat="43.6186583" lon="3.0187417"><ele>701.75</ele><time>2026-04-04T08:55:29.447Z</time></trkpt><trkpt lat="43.6185883" lon="3.0185767"><ele>703.0</ele><time>2026-04-04T08:55:30.446Z</time></trkpt><trkpt lat="43.6185283" lon="3.01841"><ele>701.25</ele><time>2026-04-04T08:55:31.444Z</time></trkpt><trkpt lat="43.6185" lon="3.0182433"><ele>699.5</ele><time>2026-04-04T08:55:32.447Z</time></trkpt><trkpt lat="43.6185067" lon="3.01808"><ele>697.75</ele><time>2026-04-04T08:55:33.446Z</time></trkpt><trkpt lat="43.618555" lon="3.01794"><ele>696.0</ele><time>2026-04-04T08:55:34.449Z</time></trkpt><trkpt lat="43.6186467" lon="3.0178183"><ele>699.3333333333334</ele><time>2026-04-04T08:55:35.447Z</time></trkpt><trkpt lat="43.6187683" lon="3.017705"><ele>702.6666666666667</ele><time>2026-04-04T08:55:36.447Z</time></trkpt><trkpt lat="43.61893" lon="3.01761"><ele>706.0</ele><time>2026-04-04T08:55:37.444Z</time></trkpt><trkpt lat="43.6190917" lon="3.01752"><ele>707.6666666666667</ele><time>2026-04-04T08:55:38.444Z</time></trkpt><trkpt lat="43.6192633" lon="3.0174317"><ele>709.3333333333334</ele><time>2026-04-04T08:55:39.448Z</time></trkpt><trkpt lat="43.6194317" lon="3.0173533"><ele>711.0</ele><time>2026-04-04T08:55:40.443Z</time></trkpt><trkpt lat="43.619585" lon="3.0172883"><ele>712.0</ele><time>2026-04-04T08:55:41.447Z</time></trkpt><trkpt lat="43.61972" lon="3.017235"><ele>713.0</ele><time>2026-04-04T08:55:42.446Z</time></trkpt><trkpt lat="43.6198317" lon="3.0171667"><ele>714.0</ele><time>2026-04-04T08:55:43.447Z</time></trkpt><trkpt lat="43.61992" lon="3.0170933"><ele>715.0</ele><time>2026-04-04T08:55:44.444Z</time></trkpt><trkpt lat="43.61998" lon="3.016995"><ele>715.0</ele><time>2026-04-04T08:55:45.444Z</time></trkpt><trkpt lat="43.62" lon="3.0168783"><ele>715.0</ele><time>2026-04-04T08:55:46.444Z</time></trkpt><trkpt lat="43.6199883" lon="3.01677"><ele>715.0</ele><time>2026-04-04T08:55:47.446Z</time></trkpt><trkpt lat="43.6199483" lon="3.01666"><ele>715.0</ele><time>2026-04-04T08:55:48.447Z</time></trkpt><trkpt lat="43.6198783" lon="3.016545"><ele>715.0</ele><time>2026-04-04T08:55:49.448Z</time></trkpt><trkpt lat="43.6197867" lon="3.0164133"><ele>715.4</ele><time>2026-04-04T08:55:50.443Z</time></trkpt><trkpt lat="43.6196967" lon="3.0162883"><ele>715.8</ele><time>2026-04-04T08:55:51.446Z</time></trkpt><trkpt lat="43.6196183" lon="3.0161683"><ele>716.2</ele><time>2026-04-04T08:55:52.446Z</time></trkpt><trkpt lat="43.61955" lon="3.0160667"><ele>716.6</ele><time>2026-04-04T08:55:53.447Z</time></trkpt><trkpt lat="43.619495" lon="3.0159633"><ele>717.0</ele><time>2026-04-04T08:55:54.445Z</time></trkpt><trkpt lat="43.6194483" lon="3.015875"><ele>717.0</ele><time>2026-04-04T08:55:55.447Z</time></trkpt><trkpt lat="43.6194117" lon="3.0158033"><ele>717.0</ele><time>2026-04-04T08:55:56.446Z</time></trkpt><trkpt lat="43.6193683" lon="3.015875"><ele>717.0</ele><time>2026-04-04T08:56:00.447Z</time></trkpt><trkpt lat="43.619425" lon="3.016045"><ele>717.0</ele><time>2026-04-04T08:56:02.449Z</time></trkpt><trkpt lat="43.6194833" lon="3.01614"><ele>717.0</ele><time>2026-04-04T08:56:03.446Z</time></trkpt><trkpt lat="43.6195633" lon="3.0162617"><ele>716.6</ele><time>2026-04-04T08:56:04.447Z</time></trkpt><trkpt lat="43.61964" lon="3.0163783"><ele>716.2</ele><time>2026-04-04T08:56:05.446Z</time></trkpt><trkpt lat="43.6197167" lon="3.0164933"><ele>715.8</ele><time>2026-04-04T08:56:06.446Z</time></trkpt><trkpt lat="43.61979" lon="3.01661"><ele>715.4</ele><time>2026-04-04T08:56:07.447Z</time></trkpt><trkpt lat="43.619855" lon="3.01672"><ele>715.0</ele><time>2026-04-04T08:56:08.446Z</time></trkpt><trkpt lat="43.6199067" lon="3.0168217"><ele>715.0</ele><time>2026-04-04T08:56:09.444Z</time></trkpt><trkpt lat="43.6199367" lon="3.0169233"><ele>715.0</ele><time>2026-04-04T08:56:10.446Z</time></trkpt><trkpt lat="43.6199467" lon="3.0170283"><ele>715.0</ele><time>2026-04-04T08:56:11.446Z</time></trkpt><trkpt lat="43.619955" lon="3.01719"><ele>715.0</ele><time>2026-04-04T08:56:13.447Z</time></trkpt><trkpt lat="43.6200183" lon="3.0172683"><ele>715.0</ele><time>2026-04-04T08:56:15.447Z</time></trkpt><trkpt lat="43.620145" lon="3.0173083"><ele>715.0</ele><time>2026-04-04T08:56:17.444Z</time></trkpt><trkpt lat="43.620225" lon="3.01731"><ele>715.0</ele><time>2026-04-04T08:56:18.446Z</time></trkpt><trkpt lat="43.6203183" lon="3.0172833"><ele>715.0</ele><time>2026-04-04T08:56:19.443Z</time></trkpt><trkpt lat="43.62042" lon="3.017225"><ele>715.0</ele><time>2026-04-04T08:56:20.447Z</time></trkpt><trkpt lat="43.6205233" lon="3.017105"><ele>715.0</ele><time>2026-04-04T08:56:21.446Z</time></trkpt><trkpt lat="43.6206117" lon="3.016995"><ele>718.0</ele><time>2026-04-04T08:56:22.444Z</time></trkpt><trkpt lat="43.6207017" lon="3.016865"><ele>721.0</ele><time>2026-04-04T08:56:23.444Z</time></trkpt><trkpt lat="43.6207783" lon="3.0167417"><ele>724.0</ele><time>2026-04-04T08:56:24.445Z</time></trkpt><trkpt lat="43.620855" lon="3.0166267"><ele>727.0</ele><time>2026-04-04T08:56:25.444Z</time></trkpt><trkpt lat="43.620935" lon="3.016515"><ele>727.0</ele><time>2026-04-04T08:56:26.444Z</time></trkpt><trkpt lat="43.621025" lon="3.0163933"><ele>727.0</ele><time>2026-04-04T08:56:27.443Z</time></trkpt><trkpt lat="43.6211183" lon="3.0162833"><ele>727.0</ele><time>2026-04-04T08:56:28.444Z</time></trkpt><trkpt lat="43.6212167" lon="3.01617"><ele>727.0</ele><time>2026-04-04T08:56:29.444Z</time></trkpt><trkpt lat="43.62131" lon="3.01606"><ele>729.0</ele><time>2026-04-04T08:56:30.443Z</time></trkpt><trkpt lat="43.6213783" lon="3.0159533"><ele>731.0</ele><time>2026-04-04T08:56:31.446Z</time></trkpt><trkpt lat="43.6214133" lon="3.0158433"><ele>733.0</ele><time>2026-04-04T08:56:32.446Z</time></trkpt><trkpt lat="43.62142" lon="3.0157433"><ele>735.0</ele><time>2026-04-04T08:56:33.446Z</time></trkpt><trkpt lat="43.6214033" lon="3.0156467"><ele>737.0</ele><time>2026-04-04T08:56:34.444Z</time></trkpt><trkpt lat="43.6213717" lon="3.0155583"><ele>739.0</ele><time>2026-04-04T08:56:35.445Z</time></trkpt><trkpt lat="43.621335" lon="3.0154617"><ele>738.8333333333334</ele><time>2026-04-04T08:56:36.446Z</time></trkpt><trkpt lat="43.6212817" lon="3.0153717"><ele>738.6666666666667</ele><time>2026-04-04T08:56:37.447Z</time></trkpt><trkpt lat="43.6211967" lon="3.0153"><ele>738.5</ele><time>2026-04-04T08:56:38.447Z</time></trkpt><trkpt lat="43.621125" lon="3.015225"><ele>738.3333333333334</ele><time>2026-04-04T08:56:39.444Z</time></trkpt><trkpt lat="43.62105" lon="3.0151417"><ele>738.1666666666666</ele><time>2026-04-04T08:56:40.446Z</time></trkpt><trkpt lat="43.6210067" lon="3.01507"><ele>738.0</ele><time>2026-04-04T08:56:41.447Z</time></trkpt><trkpt lat="43.6209783" lon="3.01492"><ele>738.0</ele><time>2026-04-04T08:56:43.449Z</time></trkpt><trkpt lat="43.621015" lon="3.0148467"><ele>738.0</ele><time>2026-04-04T08:56:44.448Z</time></trkpt><trkpt lat="43.621105" lon="3.0147617"><ele>738.0</ele><time>2026-04-04T08:56:45.446Z</time></trkpt><trkpt lat="43.621165" lon="3.014655"><ele>738.0</ele><time>2026-04-04T08:56:46.446Z</time></trkpt><trkpt lat="43.6212133" lon="3.0145333"><ele>738.0</ele><time>2026-04-04T08:56:47.446Z</time></trkpt><trkpt lat="43.6212567" lon="3.0143867"><ele>741.0</ele><time>2026-04-04T08:56:48.446Z</time></trkpt><trkpt lat="43.6212783" lon="3.01424"><ele>744.0</ele><time>2026-04-04T08:56:49.445Z</time></trkpt><trkpt lat="43.621285" lon="3.0140583"><ele>747.0</ele><time>2026-04-04T08:56:50.445Z</time></trkpt><trkpt lat="43.6212817" lon="3.013845"><ele>750.0</ele><time>2026-04-04T08:56:51.446Z</time></trkpt><trkpt lat="43.6212817" lon="3.0136483"><ele>751.6666666666666</ele><time>2026-04-04T08:56:52.446Z</time></trkpt><trkpt lat="43.6212783" lon="3.0134433"><ele>753.3333333333333</ele><time>2026-04-04T08:56:53.445Z</time></trkpt><trkpt lat="43.621275" lon="3.0132333"><ele>755.0</ele><time>2026-04-04T08:56:54.446Z</time></trkpt><trkpt lat="43.6212667" lon="3.0130017"><ele>756.3333333333333</ele><time>2026-04-04T08:56:55.446Z</time></trkpt><trkpt lat="43.6212567" lon="3.0127733"><ele>757.6666666666666</ele><time>2026-04-04T08:56:56.445Z</time></trkpt><trkpt lat="43.62125" lon="3.01254"><ele>759.0</ele><time>2026-04-04T08:56:57.445Z</time></trkpt><trkpt lat="43.62124" lon="3.012315"><ele>760.75</ele><time>2026-04-04T08:56:58.447Z</time></trkpt><trkpt lat="43.6212183" lon="3.01211"><ele>762.5</ele><time>2026-04-04T08:56:59.445Z</time></trkpt><trkpt lat="43.6211883" lon="3.0119217"><ele>764.25</ele><time>2026-04-04T08:57:00.445Z</time></trkpt><trkpt lat="43.6211617" lon="3.01174"><ele>766.0</ele><time>2026-04-04T08:57:01.446Z</time></trkpt><trkpt lat="43.6211483" lon="3.0115283"><ele>766.3333333333334</ele><time>2026-04-04T08:57:02.445Z</time></trkpt><trkpt lat="43.6211533" lon="3.0112967"><ele>766.6666666666666</ele><time>2026-04-04T08:57:03.445Z</time></trkpt><trkpt lat="43.6211717" lon="3.0110817"><ele>767.0</ele><time>2026-04-04T08:57:04.445Z</time></trkpt><trkpt lat="43.621195" lon="3.01087"><ele>766.4000000000001</ele><time>2026-04-04T08:57:05.449Z</time></trkpt><trkpt lat="43.6212167" lon="3.0106833"><ele>765.8000000000001</ele><time>2026-04-04T08:57:06.449Z</time></trkpt><trkpt lat="43.62124" lon="3.01055"><ele>765.2</ele><time>2026-04-04T08:57:07.447Z</time></trkpt><trkpt lat="43.6212633" lon="3.0104483"><ele>764.6</ele><time>2026-04-04T08:57:08.446Z</time></trkpt><trkpt lat="43.6213233" lon="3.0103783"><ele>764.0</ele><time>2026-04-04T08:57:10.445Z</time></trkpt><trkpt lat="43.6213483" lon="3.0105683"><ele>764.0</ele><time>2026-04-04T08:57:12.444Z</time></trkpt><trkpt lat="43.6213333" lon="3.010725"><ele>764.0</ele><time>2026-04-04T08:57:13.447Z</time></trkpt><trkpt lat="43.6213333" lon="3.01089"><ele>764.0</ele><time>2026-04-04T08:57:14.448Z</time></trkpt><trkpt lat="43.621345" lon="3.0110783"><ele>764.0</ele><time>2026-04-04T08:57:15.448Z</time></trkpt><trkpt lat="43.6213833" lon="3.01127"><ele>764.6666666666666</ele><time>2026-04-04T08:57:16.446Z</time></trkpt><trkpt lat="43.62143" lon="3.01147"><ele>765.3333333333334</ele><time>2026-04-04T08:57:17.444Z</time></trkpt><trkpt lat="43.6214817" lon="3.0116767"><ele>766.0</ele><time>2026-04-04T08:57:18.447Z</time></trkpt><trkpt lat="43.6215483" lon="3.0118817"><ele>766.0</ele><time>2026-04-04T08:57:19.447Z</time></trkpt><trkpt lat="43.6216183" lon="3.0121033"><ele>766.0</ele><time>2026-04-04T08:57:20.446Z</time></trkpt><trkpt lat="43.6216883" lon="3.01233"><ele>766.0</ele><time>2026-04-04T08:57:21.447Z</time></trkpt><trkpt lat="43.6217617" lon="3.01256"><ele>763.6666666666667</ele><time>2026-04-04T08:57:22.444Z</time></trkpt><trkpt lat="43.62184" lon="3.0127883"><ele>761.3333333333334</ele><time>2026-04-04T08:57:23.447Z</time></trkpt><trkpt lat="43.62192" lon="3.0130317"><ele>759.0</ele><time>2026-04-04T08:57:24.446Z</time></trkpt><trkpt lat="43.6219983" lon="3.01326"><ele>763.0</ele><time>2026-04-04T08:57:25.444Z</time></trkpt><trkpt lat="43.6220733" lon="3.0134533"><ele>767.0</ele><time>2026-04-04T08:57:26.446Z</time></trkpt><trkpt lat="43.622145" lon="3.0136117"><ele>771.0</ele><time>2026-04-04T08:57:27.446Z</time></trkpt><trkpt lat="43.6222167" lon="3.013765"><ele>775.0</ele><time>2026-04-04T08:57:28.443Z</time></trkpt><trkpt lat="43.62228" lon="3.0138917"><ele>774.9999999999999</ele><time>2026-04-04T08:57:29.448Z</time></trkpt><trkpt lat="43.622335" lon="3.0139783"><ele>775.0</ele><time>2026-04-04T08:57:30.447Z</time></trkpt><trkpt lat="43.6223883" lon="3.01404"><ele>775.0</ele><time>2026-04-04T08:57:31.447Z</time></trkpt><trkpt lat="43.6224783" lon="3.0140567"><ele>775.0</ele><time>2026-04-04T08:57:33.446Z</time></trkpt><trkpt lat="43.6225333" lon="3.0139817"><ele>774.9999999999999</ele><time>2026-04-04T08:57:35.446Z</time></trkpt><trkpt lat="43.6224733" lon="3.0138267"><ele>775.0</ele><time>2026-04-04T08:57:37.444Z</time></trkpt><trkpt lat="43.6223383" lon="3.0135783"><ele>775.0</ele><time>2026-04-04T08:57:38.444Z</time></trkpt><trkpt lat="43.622275" lon="3.0133883"><ele>775.0</ele><time>2026-04-04T08:57:39.444Z</time></trkpt><trkpt lat="43.6222233" lon="3.0131567"><ele>775.0</ele><time>2026-04-04T08:57:40.444Z</time></trkpt><trkpt lat="43.6221567" lon="3.0128533"><ele>776.3333333333333</ele><time>2026-04-04T08:57:41.444Z</time></trkpt><trkpt lat="43.6221017" lon="3.0125383"><ele>777.6666666666667</ele><time>2026-04-04T08:57:42.444Z</time></trkpt><trkpt lat="43.6220767" lon="3.0122733"><ele>779.0</ele><time>2026-04-04T08:57:43.444Z</time></trkpt><trkpt lat="43.6220667" lon="3.0120283"><ele>780.0</ele><time>2026-04-04T08:57:44.444Z</time></trkpt><trkpt lat="43.622055" lon="3.0118017"><ele>781.0</ele><time>2026-04-04T08:57:45.444Z</time></trkpt><trkpt lat="43.6220417" lon="3.01157"><ele>782.0</ele><time>2026-04-04T08:57:46.445Z</time></trkpt><trkpt lat="43.6220217" lon="3.0113417"><ele>782.25</ele><time>2026-04-04T08:57:47.444Z</time></trkpt><trkpt lat="43.622" lon="3.01114"><ele>782.5</ele><time>2026-04-04T08:57:48.444Z</time></trkpt><trkpt lat="43.6219917" lon="3.0109417"><ele>782.75</ele><time>2026-04-04T08:57:49.444Z</time></trkpt><trkpt lat="43.6219867" lon="3.0107567"><ele>783.0</ele><time>2026-04-04T08:57:50.443Z</time></trkpt><trkpt lat="43.6219883" lon="3.010585"><ele>783.2</ele><time>2026-04-04T08:57:51.446Z</time></trkpt><trkpt lat="43.62202" lon="3.010445"><ele>783.4</ele><time>2026-04-04T08:57:52.444Z</time></trkpt><trkpt lat="43.6220633" lon="3.0103117"><ele>783.6</ele><time>2026-04-04T08:57:53.444Z</time></trkpt><trkpt lat="43.6221133" lon="3.0101933"><ele>783.8000000000001</ele><time>2026-04-04T08:57:54.444Z</time></trkpt><trkpt lat="43.6221517" lon="3.0100767"><ele>784.0</ele><time>2026-04-04T08:57:55.444Z</time></trkpt><trkpt lat="43.6221867" lon="3.0099633"><ele>784.1666666666666</ele><time>2026-04-04T08:57:56.445Z</time></trkpt><trkpt lat="43.6222067" lon="3.009845"><ele>784.3333333333333</ele><time>2026-04-04T08:57:57.443Z</time></trkpt><trkpt lat="43.6222117" lon="3.009735"><ele>784.5</ele><time>2026-04-04T08:57:58.443Z</time></trkpt><trkpt lat="43.622215" lon="3.0096367"><ele>784.6666666666667</ele><time>2026-04-04T08:57:59.446Z</time></trkpt><trkpt lat="43.62226" lon="3.0095467"><ele>784.8333333333334</ele><time>2026-04-04T08:58:01.444Z</time></trkpt><trkpt lat="43.62233" lon="3.009605"><ele>785.0</ele><time>2026-04-04T08:58:02.445Z</time></trkpt><trkpt lat="43.6223717" lon="3.0096783"><ele>785.0</ele><time>2026-04-04T08:58:03.445Z</time></trkpt><trkpt lat="43.622425" lon="3.0097617"><ele>785.0</ele><time>2026-04-04T08:58:04.445Z</time></trkpt><trkpt lat="43.6223917" lon="3.0100417"><ele>785.0</ele><time>2026-04-04T08:58:05.447Z</time></trkpt><trkpt lat="43.622395" lon="3.010225"><ele>785.0</ele><time>2026-04-04T08:58:06.445Z</time></trkpt><trkpt lat="43.6223567" lon="3.0104717"><ele>784.75</ele><time>2026-04-04T08:58:07.445Z</time></trkpt><trkpt lat="43.62233" lon="3.0106933"><ele>784.5</ele><time>2026-04-04T08:58:08.444Z</time></trkpt><trkpt lat="43.6223567" lon="3.010865"><ele>784.25</ele><time>2026-04-04T08:58:09.445Z</time></trkpt><trkpt lat="43.6223983" lon="3.0110433"><ele>784.0</ele><time>2026-04-04T08:58:10.444Z</time></trkpt><trkpt lat="43.6224517" lon="3.0112283"><ele>783.6666666666666</ele><time>2026-04-04T08:58:11.445Z</time></trkpt><trkpt lat="43.6225133" lon="3.01144"><ele>783.3333333333333</ele><time>2026-04-04T08:58:12.444Z</time></trkpt><trkpt lat="43.6225767" lon="3.011655"><ele>783.0</ele><time>2026-04-04T08:58:13.445Z</time></trkpt><trkpt lat="43.6226367" lon="3.01188"><ele>782.75</ele><time>2026-04-04T08:58:14.445Z</time></trkpt><trkpt lat="43.6226983" lon="3.0120883"><ele>782.5</ele><time>2026-04-04T08:58:15.446Z</time></trkpt><trkpt lat="43.6227667" lon="3.0122567"><ele>782.25</ele><time>2026-04-04T08:58:16.447Z</time></trkpt><trkpt lat="43.622855" lon="3.0124133"><ele>782.0</ele><time>2026-04-04T08:58:17.446Z</time></trkpt><trkpt lat="43.6229633" lon="3.0125583"><ele>786.3333333333334</ele><time>2026-04-04T08:58:18.446Z</time></trkpt><trkpt lat="43.6230833" lon="3.0126967"><ele>790.6666666666667</ele><time>2026-04-04T08:58:19.447Z</time></trkpt><trkpt lat="43.6232117" lon="3.012835"><ele>795.0</ele><time>2026-04-04T08:58:20.445Z</time></trkpt><trkpt lat="43.6233433" lon="3.0129767"><ele>795.0</ele><time>2026-04-04T08:58:21.445Z</time></trkpt><trkpt lat="43.62347" lon="3.0131083"><ele>795.0</ele><time>2026-04-04T08:58:22.446Z</time></trkpt><trkpt lat="43.623585" lon="3.01322"><ele>795.0</ele><time>2026-04-04T08:58:23.447Z</time></trkpt><trkpt lat="43.623685" lon="3.0133183"><ele>795.0</ele><time>2026-04-04T08:58:24.445Z</time></trkpt><trkpt lat="43.6237917" lon="3.0134067"><ele>795.3333333333334</ele><time>2026-04-04T08:58:25.447Z</time></trkpt><trkpt lat="43.6238917" lon="3.01347"><ele>795.6666666666667</ele><time>2026-04-04T08:58:26.445Z</time></trkpt><trkpt lat="43.6239883" lon="3.0134983"><ele>796.0</ele><time>2026-04-04T08:58:27.445Z</time></trkpt><trkpt lat="43.6240617" lon="3.0134817"><ele>796.3333333333334</ele><time>2026-04-04T08:58:28.447Z</time></trkpt><trkpt lat="43.6241283" lon="3.0134267"><ele>796.6666666666667</ele><time>2026-04-04T08:58:29.447Z</time></trkpt><trkpt lat="43.6241917" lon="3.013355"><ele>797.0</ele><time>2026-04-04T08:58:30.446Z</time></trkpt><trkpt lat="43.6242717" lon="3.013205"><ele>800.0</ele><time>2026-04-04T08:58:31.447Z</time></trkpt><trkpt lat="43.6243367" lon="3.0130067"><ele>803.0</ele><time>2026-04-04T08:58:32.446Z</time></trkpt><trkpt lat="43.6243883" lon="3.0127933"><ele>806.0</ele><time>2026-04-04T08:58:33.449Z</time></trkpt><trkpt lat="43.6244417" lon="3.01258"><ele>804.75</ele><time>2026-04-04T08:58:34.446Z</time></trkpt><trkpt lat="43.6245167" lon="3.0123817"><ele>803.5</ele><time>2026-04-04T08:58:35.446Z</time></trkpt><trkpt lat="43.6245917" lon="3.0122183"><ele>802.25</ele><time>2026-04-04T08:58:36.447Z</time></trkpt><trkpt lat="43.6246633" lon="3.0120583"><ele>801.0</ele><time>2026-04-04T08:58:37.444Z</time></trkpt><trkpt lat="43.6247267" lon="3.011865"><ele>804.0</ele><time>2026-04-04T08:58:38.447Z</time></trkpt><trkpt lat="43.6248" lon="3.0116567"><ele>807.0</ele><time>2026-04-04T08:58:39.446Z</time></trkpt><trkpt lat="43.6248833" lon="3.0114367"><ele>810.0</ele><time>2026-04-04T08:58:40.445Z</time></trkpt><trkpt lat="43.624955" lon="3.0112283"><ele>810.0</ele><time>2026-04-04T08:58:41.447Z</time></trkpt><trkpt lat="43.6250083" lon="3.011015"><ele>810.0</ele><time>2026-04-04T08:58:42.447Z</time></trkpt><trkpt lat="43.62503" lon="3.0107983"><ele>810.0</ele><time>2026-04-04T08:58:43.447Z</time></trkpt><trkpt lat="43.62503" lon="3.010575"><ele>812.6666666666667</ele><time>2026-04-04T08:58:44.447Z</time></trkpt><trkpt lat="43.6250367" lon="3.0103567"><ele>815.3333333333334</ele><time>2026-04-04T08:58:45.443Z</time></trkpt><trkpt lat="43.62506" lon="3.0101333"><ele>818.0</ele><time>2026-04-04T08:58:46.444Z</time></trkpt><trkpt lat="43.62509" lon="3.0099317"><ele>819.0</ele><time>2026-04-04T08:58:47.445Z</time></trkpt><trkpt lat="43.6251483" lon="3.009765"><ele>820.0</ele><time>2026-04-04T08:58:48.445Z</time></trkpt><trkpt lat="43.6252233" lon="3.009615"><ele>821.0</ele><time>2026-04-04T08:58:49.444Z</time></trkpt><trkpt lat="43.62532" lon="3.009465"><ele>822.0</ele><time>2026-04-04T08:58:50.445Z</time></trkpt><trkpt lat="43.6254283" lon="3.009295"><ele>829.6666666666667</ele><time>2026-04-04T08:58:51.446Z</time></trkpt><trkpt lat="43.625545" lon="3.0091033"><ele>837.3333333333334</ele><time>2026-04-04T08:58:52.444Z</time></trkpt><trkpt lat="43.62565" lon="3.0088967"><ele>845.0</ele><time>2026-04-04T08:58:53.447Z</time></trkpt><trkpt lat="43.625745" lon="3.0086883"><ele>845.0</ele><time>2026-04-04T08:58:54.445Z</time></trkpt><trkpt lat="43.6258317" lon="3.008505"><ele>845.0</ele><time>2026-04-04T08:58:55.446Z</time></trkpt><trkpt lat="43.6259117" lon="3.008345"><ele>845.0</ele><time>2026-04-04T08:58:56.446Z</time></trkpt><trkpt lat="43.6259733" lon="3.008215"><ele>845.0</ele><time>2026-04-04T08:58:57.445Z</time></trkpt><trkpt lat="43.625995" lon="3.0081217"><ele>847.2</ele><time>2026-04-04T08:58:58.446Z</time></trkpt><trkpt lat="43.6259167" lon="3.008065"><ele>849.4</ele><time>2026-04-04T08:59:00.446Z</time></trkpt><trkpt lat="43.625835" lon="3.0080767"><ele>851.5999999999999</ele><time>2026-04-04T08:59:01.447Z</time></trkpt><trkpt lat="43.6257267" lon="3.0080883"><ele>853.8</ele><time>2026-04-04T08:59:02.446Z</time></trkpt><trkpt lat="43.62564" lon="3.0080567"><ele>856.0</ele><time>2026-04-04T08:59:03.446Z</time></trkpt><trkpt lat="43.6255633" lon="3.0080133"><ele>856.0</ele><time>2026-04-04T08:59:04.446Z</time></trkpt><trkpt lat="43.6254933" lon="3.0079367"><ele>855.9999999999999</ele><time>2026-04-04T08:59:05.445Z</time></trkpt><trkpt lat="43.6254267" lon="3.0078517"><ele>855.9999999999999</ele><time>2026-04-04T08:59:06.445Z</time></trkpt><trkpt lat="43.6253783" lon="3.007745"><ele>856.0</ele><time>2026-04-04T08:59:07.446Z</time></trkpt><trkpt lat="43.625345" lon="3.00762"><ele>856.0</ele><time>2026-04-04T08:59:08.446Z</time></trkpt><trkpt lat="43.625325" lon="3.0074867"><ele>857.0</ele><time>2026-04-04T08:59:09.449Z</time></trkpt><trkpt lat="43.6253133" lon="3.0073783"><ele>857.9999999999999</ele><time>2026-04-04T08:59:10.447Z</time></trkpt><trkpt lat="43.6253117" lon="3.0072733"><ele>858.9999999999999</ele><time>2026-04-04T08:59:11.444Z</time></trkpt><trkpt lat="43.6253233" lon="3.007065"><ele>860.0</ele><time>2026-04-04T08:59:13.446Z</time></trkpt><trkpt lat="43.6253367" lon="3.0069533"><ele>861.0</ele><time>2026-04-04T08:59:14.445Z</time></trkpt><trkpt lat="43.6253533" lon="3.0067183"><ele>862.25</ele><time>2026-04-04T08:59:16.443Z</time></trkpt><trkpt lat="43.6253717" lon="3.00657"><ele>863.5</ele><time>2026-04-04T08:59:17.445Z</time></trkpt><trkpt lat="43.6253967" lon="3.0063933"><ele>864.75</ele><time>2026-04-04T08:59:18.446Z</time></trkpt><trkpt lat="43.6254283" lon="3.00618"><ele>866.0</ele><time>2026-04-04T08:59:19.446Z</time></trkpt><trkpt lat="43.6254417" lon="3.005965"><ele>867.75</ele><time>2026-04-04T08:59:20.447Z</time></trkpt><trkpt lat="43.62544" lon="3.0057483"><ele>869.5</ele><time>2026-04-04T08:59:21.445Z</time></trkpt><trkpt lat="43.62542" lon="3.0055517"><ele>871.25</ele><time>2026-04-04T08:59:22.446Z</time></trkpt><trkpt lat="43.6253933" lon="3.0053717"><ele>873.0</ele><time>2026-04-04T08:59:23.447Z</time></trkpt><trkpt lat="43.62536" lon="3.005195"><ele>868.75</ele><time>2026-04-04T08:59:24.447Z</time></trkpt><trkpt lat="43.625305" lon="3.0050217"><ele>864.5</ele><time>2026-04-04T08:59:25.444Z</time></trkpt><trkpt lat="43.6252517" lon="3.0048467"><ele>860.25</ele><time>2026-04-04T08:59:26.444Z</time></trkpt><trkpt lat="43.6252017" lon="3.0046567"><ele>856.0</ele><time>2026-04-04T08:59:27.444Z</time></trkpt><trkpt lat="43.6251333" lon="3.0044467"><ele>856.0</ele><time>2026-04-04T08:59:28.444Z</time></trkpt><trkpt lat="43.625065" lon="3.004225"><ele>856.0</ele><time>2026-04-04T08:59:29.444Z</time></trkpt><trkpt lat="43.6249917" lon="3.0040117"><ele>856.0</ele><time>2026-04-04T08:59:30.444Z</time></trkpt><trkpt lat="43.6249267" lon="3.0038133"><ele>856.75</ele><time>2026-04-04T08:59:31.445Z</time></trkpt><trkpt lat="43.6248717" lon="3.0036233"><ele>857.5</ele><time>2026-04-04T08:59:32.443Z</time></trkpt><trkpt lat="43.6248267" lon="3.0034167"><ele>858.25</ele><time>2026-04-04T08:59:33.443Z</time></trkpt><trkpt lat="43.6248033" lon="3.0032283"><ele>859.0</ele><time>2026-04-04T08:59:34.443Z</time></trkpt><trkpt lat="43.624785" lon="3.0030583"><ele>856.75</ele><time>2026-04-04T08:59:35.445Z</time></trkpt><trkpt lat="43.624795" lon="3.0029233"><ele>854.5</ele><time>2026-04-04T08:59:36.444Z</time></trkpt><trkpt lat="43.62482" lon="3.0027667"><ele>852.25</ele><time>2026-04-04T08:59:37.444Z</time></trkpt><trkpt lat="43.624875" lon="3.0026067"><ele>850.0</ele><time>2026-04-04T08:59:38.445Z</time></trkpt><trkpt lat="43.6249533" lon="3.0024817"><ele>850.0</ele><time>2026-04-04T08:59:39.447Z</time></trkpt><trkpt lat="43.62502" lon="3.0024117"><ele>850.0</ele><time>2026-04-04T08:59:40.444Z</time></trkpt><trkpt lat="43.625085" lon="3.00238"><ele>850.0</ele><time>2026-04-04T08:59:41.447Z</time></trkpt><trkpt lat="43.62517" lon="3.002425"><ele>850.0</ele><time>2026-04-04T08:59:43.447Z</time></trkpt><trkpt lat="43.6251633" lon="3.0026083"><ele>850.0</ele><time>2026-04-04T08:59:46.446Z</time></trkpt><trkpt lat="43.62509" lon="3.0028033"><ele>850.0</ele><time>2026-04-04T08:59:47.446Z</time></trkpt><trkpt lat="43.62506" lon="3.0029617"><ele>850.0</ele><time>2026-04-04T08:59:48.448Z</time></trkpt><trkpt lat="43.6250617" lon="3.00308"><ele>850.0</ele><time>2026-04-04T08:59:49.445Z</time></trkpt><trkpt lat="43.625085" lon="3.00321"><ele>850.0</ele><time>2026-04-04T08:59:50.446Z</time></trkpt><trkpt lat="43.6251483" lon="3.0033883"><ele>850.0</ele><time>2026-04-04T08:59:51.446Z</time></trkpt><trkpt lat="43.6252417" lon="3.0035467"><ele>857.75</ele><time>2026-04-04T08:59:52.445Z</time></trkpt><trkpt lat="43.6253217" lon="3.0036683"><ele>865.5</ele><time>2026-04-04T08:59:53.444Z</time></trkpt><trkpt lat="43.6254233" lon="3.0038167"><ele>873.25</ele><time>2026-04-04T08:59:54.447Z</time></trkpt><trkpt lat="43.6255067" lon="3.0039367"><ele>881.0</ele><time>2026-04-04T08:59:55.447Z</time></trkpt><trkpt lat="43.6255833" lon="3.0040533"><ele>881.0</ele><time>2026-04-04T08:59:56.443Z</time></trkpt><trkpt lat="43.625655" lon="3.0041683"><ele>880.9999999999999</ele><time>2026-04-04T08:59:57.446Z</time></trkpt><trkpt lat="43.625725" lon="3.0042783"><ele>880.9999999999999</ele><time>2026-04-04T08:59:58.445Z</time></trkpt><trkpt lat="43.6257967" lon="3.0043883"><ele>881.0</ele><time>2026-04-04T08:59:59.446Z</time></trkpt><trkpt lat="43.625865" lon="3.0045"><ele>881.0</ele><time>2026-04-04T09:00:00.445Z</time></trkpt><trkpt lat="43.62593" lon="3.0046067"><ele>881.0</ele><time>2026-04-04T09:00:01.445Z</time></trkpt><trkpt lat="43.6259983" lon="3.00471"><ele>880.9999999999999</ele><time>2026-04-04T09:00:02.445Z</time></trkpt><trkpt lat="43.626065" lon="3.004815"><ele>880.9999999999999</ele><time>2026-04-04T09:00:03.446Z</time></trkpt><trkpt lat="43.6261217" lon="3.0049117"><ele>881.0</ele><time>2026-04-04T09:00:04.445Z</time></trkpt><trkpt lat="43.6261733" lon="3.0049917"><ele>881.0</ele><time>2026-04-04T09:00:05.445Z</time></trkpt><trkpt lat="43.6262517" lon="3.0050167"><ele>886.0</ele><time>2026-04-04T09:00:07.446Z</time></trkpt><trkpt lat="43.6262667" lon="3.0048733"><ele>891.0</ele><time>2026-04-04T09:00:09.446Z</time></trkpt><trkpt lat="43.62625" lon="3.0047167"><ele>896.0</ele><time>2026-04-04T09:00:10.445Z</time></trkpt><trkpt lat="43.62624" lon="3.0045483"><ele>901.0</ele><time>2026-04-04T09:00:11.445Z</time></trkpt><trkpt lat="43.6262267" lon="3.0043683"><ele>901.25</ele><time>2026-04-04T09:00:12.446Z</time></trkpt><trkpt lat="43.6262117" lon="3.00416"><ele>901.5</ele><time>2026-04-04T09:00:13.447Z</time></trkpt><trkpt lat="43.6262067" lon="3.0039767"><ele>901.75</ele><time>2026-04-04T09:00:14.446Z</time></trkpt><trkpt lat="43.62621" lon="3.0037717"><ele>902.0</ele><time>2026-04-04T09:00:15.445Z</time></trkpt><trkpt lat="43.6262417" lon="3.0036083"><ele>902.0</ele><time>2026-04-04T09:00:16.447Z</time></trkpt><trkpt lat="43.6262833" lon="3.003475"><ele>902.0</ele><time>2026-04-04T09:00:17.443Z</time></trkpt><trkpt lat="43.626345" lon="3.0033617"><ele>902.0</ele><time>2026-04-04T09:00:18.447Z</time></trkpt><trkpt lat="43.6264367" lon="3.0032683"><ele>902.0</ele><time>2026-04-04T09:00:19.447Z</time></trkpt><trkpt lat="43.6265433" lon="3.0031983"><ele>902.0</ele><time>2026-04-04T09:00:20.446Z</time></trkpt><trkpt lat="43.6266717" lon="3.0031383"><ele>900.6666666666667</ele><time>2026-04-04T09:00:21.447Z</time></trkpt><trkpt lat="43.62682" lon="3.0030983"><ele>899.3333333333333</ele><time>2026-04-04T09:00:22.446Z</time></trkpt><trkpt lat="43.6269717" lon="3.0030633"><ele>898.0</ele><time>2026-04-04T09:00:23.445Z</time></trkpt><trkpt lat="43.6271333" lon="3.0030333"><ele>898.0</ele><time>2026-04-04T09:00:24.446Z</time></trkpt><trkpt lat="43.62729" lon="3.0030133"><ele>898.0</ele><time>2026-04-04T09:00:25.444Z</time></trkpt><trkpt lat="43.6274467" lon="3.002988"><ele>898.0</ele><time>2026-04-04T09:00:26.446Z</time></trkpt><trkpt lat="43.6276111" lon="3.0029426"><ele>898.0</ele><time>2026-04-04T09:00:27.447Z</time></trkpt><trkpt lat="43.6277752" lon="3.0028767"><ele>898.0</ele><time>2026-04-04T09:00:28.446Z</time></trkpt><trkpt lat="43.6279493" lon="3.002798"><ele>898.0</ele><time>2026-04-04T09:00:29.444Z</time></trkpt><trkpt lat="43.6281285" lon="3.0027197"><ele>904.0</ele><time>2026-04-04T09:00:30.448Z</time></trkpt><trkpt lat="43.6283027" lon="3.0026489"><ele>910.0</ele><time>2026-04-04T09:00:31.445Z</time></trkpt><trkpt lat="43.6284658" lon="3.0025898"><ele>916.0</ele><time>2026-04-04T09:00:32.449Z</time></trkpt><trkpt lat="43.6286188" lon="3.0025532"><ele>922.0</ele><time>2026-04-04T09:00:33.444Z</time></trkpt><trkpt lat="43.6287685" lon="3.0025464"><ele>928.0</ele><time>2026-04-04T09:00:34.445Z</time></trkpt><trkpt lat="43.6289241" lon="3.0025707"><ele>934.0</ele><time>2026-04-04T09:00:35.445Z</time></trkpt><trkpt lat="43.629068" lon="3.0026116"><ele>934.0</ele><time>2026-04-04T09:00:36.447Z</time></trkpt><trkpt lat="43.629194" lon="3.002658"><ele>934.0000000000001</ele><time>2026-04-04T09:00:37.447Z</time></trkpt><trkpt lat="43.6292832" lon="3.0026654"><ele>934.0000000000001</ele><time>2026-04-04T09:00:38.446Z</time></trkpt><trkpt lat="43.6293492" lon="3.0026417"><ele>934.0</ele><time>2026-04-04T09:00:39.447Z</time></trkpt><trkpt lat="43.6294336" lon="3.0025401"><ele>934.0</ele><time>2026-04-04T09:00:41.444Z</time></trkpt><trkpt lat="43.6294348" lon="3.0024515"><ele>931.6</ele><time>2026-04-04T09:00:42.447Z</time></trkpt><trkpt lat="43.6294427" lon="3.0023409"><ele>929.2</ele><time>2026-04-04T09:00:43.444Z</time></trkpt><trkpt lat="43.6294669" lon="3.002211"><ele>926.8000000000001</ele><time>2026-04-04T09:00:44.452Z</time></trkpt><trkpt lat="43.6295063" lon="3.0020959"><ele>924.4000000000001</ele><time>2026-04-04T09:00:45.446Z</time></trkpt><trkpt lat="43.6295867" lon="3.0019929"><ele>922.0</ele><time>2026-04-04T09:00:46.446Z</time></trkpt><trkpt lat="43.6296953" lon="3.0018998"><ele>930.0</ele><time>2026-04-04T09:00:47.446Z</time></trkpt><trkpt lat="43.6298231" lon="3.0018183"><ele>938.0</ele><time>2026-04-04T09:00:48.446Z</time></trkpt><trkpt lat="43.629969" lon="3.0017457"><ele>946.0</ele><time>2026-04-04T09:00:49.448Z</time></trkpt><trkpt lat="43.6301285" lon="3.0016797"><ele>947.3333333333333</ele><time>2026-04-04T09:00:50.446Z</time></trkpt><trkpt lat="43.6302925" lon="3.0016169"><ele>948.6666666666667</ele><time>2026-04-04T09:00:51.448Z</time></trkpt><trkpt lat="43.6304595" lon="3.0015477"><ele>950.0</ele><time>2026-04-04T09:00:52.446Z</time></trkpt><trkpt lat="43.6306196" lon="3.0014728"><ele>950.0</ele><time>2026-04-04T09:00:53.448Z</time></trkpt><trkpt lat="43.6307682" lon="3.0013795"><ele>950.0</ele><time>2026-04-04T09:00:54.446Z</time></trkpt><trkpt lat="43.6309083" lon="3.0012407"><ele>950.0</ele><time>2026-04-04T09:00:55.447Z</time></trkpt><trkpt lat="43.6310389" lon="3.0010885"><ele>958.0</ele><time>2026-04-04T09:00:56.447Z</time></trkpt><trkpt lat="43.6311771" lon="3.0009285"><ele>966.0</ele><time>2026-04-04T09:00:57.443Z</time></trkpt><trkpt lat="43.6313181" lon="3.0007644"><ele>974.0</ele><time>2026-04-04T09:00:58.444Z</time></trkpt><trkpt lat="43.6314533" lon="3.0005867"><ele>974.0</ele><time>2026-04-04T09:00:59.444Z</time></trkpt><trkpt lat="43.6315667" lon="3.0004017"><ele>974.0</ele><time>2026-04-04T09:01:00.445Z</time></trkpt><trkpt lat="43.631655" lon="3.00021"><ele>974.0</ele><time>2026-04-04T09:01:01.447Z</time></trkpt><trkpt lat="43.6317167" lon="3.0000267"><ele>974.0</ele><time>2026-04-04T09:01:02.443Z</time></trkpt><trkpt lat="43.6317283" lon="2.9998517"><ele>974.0</ele><time>2026-04-04T09:01:03.447Z</time></trkpt><trkpt lat="43.631705" lon="2.9996783"><ele>974.0</ele><time>2026-04-04T09:01:04.446Z</time></trkpt><trkpt lat="43.6316483" lon="2.999505"><ele>974.0</ele><time>2026-04-04T09:01:05.446Z</time></trkpt><trkpt lat="43.63156" lon="2.9993417"><ele>974.0</ele><time>2026-04-04T09:01:06.445Z</time></trkpt><trkpt lat="43.6314467" lon="2.9991767"><ele>974.0</ele><time>2026-04-04T09:01:07.444Z</time></trkpt><trkpt lat="43.63132" lon="2.999005"><ele>974.0</ele><time>2026-04-04T09:01:08.447Z</time></trkpt><trkpt lat="43.6311883" lon="2.9988333"><ele>970.6666666666667</ele><time>2026-04-04T09:01:09.446Z</time></trkpt><trkpt lat="43.63105" lon="2.9986617"><ele>967.3333333333333</ele><time>2026-04-04T09:01:10.447Z</time></trkpt><trkpt lat="43.6309133" lon="2.9985"><ele>964.0</ele><time>2026-04-04T09:01:11.446Z</time></trkpt><trkpt lat="43.63078" lon="2.9983433"><ele>969.75</ele><time>2026-04-04T09:01:12.445Z</time></trkpt><trkpt lat="43.6306567" lon="2.998195"><ele>975.5</ele><time>2026-04-04T09:01:13.446Z</time></trkpt><trkpt lat="43.6305583" lon="2.9980583"><ele>981.25</ele><time>2026-04-04T09:01:14.446Z</time></trkpt><trkpt lat="43.6304817" lon="2.9979183"><ele>987.0</ele><time>2026-04-04T09:01:15.444Z</time></trkpt><trkpt lat="43.6304233" lon="2.9977783"><ele>987.0</ele><time>2026-04-04T09:01:16.445Z</time></trkpt><trkpt lat="43.630385" lon="2.9976133"><ele>987.0</ele><time>2026-04-04T09:01:17.445Z</time></trkpt><trkpt lat="43.6303767" lon="2.99743"><ele>987.0</ele><time>2026-04-04T09:01:18.445Z</time></trkpt><trkpt lat="43.6303767" lon="2.997235"><ele>987.0</ele><time>2026-04-04T09:01:19.445Z</time></trkpt><trkpt lat="43.63038" lon="2.99704"><ele>989.5</ele><time>2026-04-04T09:01:20.444Z</time></trkpt><trkpt lat="43.6303817" lon="2.99685"><ele>992.0</ele><time>2026-04-04T09:01:21.445Z</time></trkpt><trkpt lat="43.6303733" lon="2.9966467"><ele>994.5</ele><time>2026-04-04T09:01:22.444Z</time></trkpt><trkpt lat="43.63035" lon="2.996425"><ele>997.0</ele><time>2026-04-04T09:01:23.445Z</time></trkpt><trkpt lat="43.6303283" lon="2.9962183"><ele>996.75</ele><time>2026-04-04T09:01:24.444Z</time></trkpt><trkpt lat="43.6303117" lon="2.9960233"><ele>996.5</ele><time>2026-04-04T09:01:25.445Z</time></trkpt><trkpt lat="43.6303033" lon="2.995835"><ele>996.25</ele><time>2026-04-04T09:01:26.445Z</time></trkpt><trkpt lat="43.6303017" lon="2.9956417"><ele>996.0</ele><time>2026-04-04T09:01:27.446Z</time></trkpt><trkpt lat="43.630315" lon="2.9954533"><ele>996.0</ele><time>2026-04-04T09:01:28.444Z</time></trkpt><trkpt lat="43.630335" lon="2.9952717"><ele>996.0</ele><time>2026-04-04T09:01:29.444Z</time></trkpt><trkpt lat="43.6303517" lon="2.9950817"><ele>996.0</ele><time>2026-04-04T09:01:30.444Z</time></trkpt><trkpt lat="43.6303617" lon="2.9948833"><ele>996.0</ele><time>2026-04-04T09:01:31.446Z</time></trkpt><trkpt lat="43.6303617" lon="2.9946883"><ele>995.5</ele><time>2026-04-04T09:01:32.444Z</time></trkpt><trkpt lat="43.6303533" lon="2.9945083"><ele>995.0</ele><time>2026-04-04T09:01:33.444Z</time></trkpt><trkpt lat="43.63034" lon="2.9943383"><ele>994.5</ele><time>2026-04-04T09:01:34.446Z</time></trkpt><trkpt lat="43.6303183" lon="2.9941833"><ele>994.0</ele><time>2026-04-04T09:01:35.445Z</time></trkpt><trkpt lat="43.630285" lon="2.99406"><ele>988.75</ele><time>2026-04-04T09:01:36.446Z</time></trkpt><trkpt lat="43.6302367" lon="2.99394"><ele>983.5</ele><time>2026-04-04T09:01:37.448Z</time></trkpt><trkpt lat="43.630175" lon="2.99383"><ele>978.25</ele><time>2026-04-04T09:01:38.443Z</time></trkpt><trkpt lat="43.6300983" lon="2.9937067"><ele>973.0</ele><time>2026-04-04T09:01:39.446Z</time></trkpt><trkpt lat="43.63" lon="2.9935817"><ele>973.0</ele><time>2026-04-04T09:01:40.446Z</time></trkpt><trkpt lat="43.62989" lon="2.9934833"><ele>973.0</ele><time>2026-04-04T09:01:41.443Z</time></trkpt><trkpt lat="43.629765" lon="2.9934183"><ele>973.0</ele><time>2026-04-04T09:01:42.448Z</time></trkpt><trkpt lat="43.6296083" lon="2.9933833"><ele>973.0</ele><time>2026-04-04T09:01:43.447Z</time></trkpt><trkpt lat="43.62945" lon="2.9933633"><ele>969.3333333333333</ele><time>2026-04-04T09:01:44.446Z</time></trkpt><trkpt lat="43.6292667" lon="2.9933633"><ele>965.6666666666667</ele><time>2026-04-04T09:01:45.446Z</time></trkpt><trkpt lat="43.6290783" lon="2.9933683"><ele>962.0</ele><time>2026-04-04T09:01:46.444Z</time></trkpt><trkpt lat="43.6288967" lon="2.993395"><ele>962.0</ele><time>2026-04-04T09:01:47.448Z</time></trkpt><trkpt lat="43.62871" lon="2.9934317"><ele>962.0</ele><time>2026-04-04T09:01:48.443Z</time></trkpt><trkpt lat="43.628525" lon="2.99346"><ele>962.0</ele><time>2026-04-04T09:01:49.445Z</time></trkpt><trkpt lat="43.6283583" lon="2.9934867"><ele>963.5</ele><time>2026-04-04T09:01:50.444Z</time></trkpt><trkpt lat="43.6282233" lon="2.9934933"><ele>965.0</ele><time>2026-04-04T09:01:51.444Z</time></trkpt><trkpt lat="43.6281017" lon="2.993485"><ele>966.5</ele><time>2026-04-04T09:01:52.444Z</time></trkpt><trkpt lat="43.628" lon="2.9934433"><ele>968.0</ele><time>2026-04-04T09:01:53.443Z</time></trkpt><trkpt lat="43.6279067" lon="2.9933533"><ele>965.6666666666667</ele><time>2026-04-04T09:01:54.444Z</time></trkpt><trkpt lat="43.6278133" lon="2.99322"><ele>963.3333333333333</ele><time>2026-04-04T09:01:55.444Z</time></trkpt><trkpt lat="43.6277133" lon="2.9930517"><ele>961.0</ele><time>2026-04-04T09:01:56.443Z</time></trkpt><trkpt lat="43.6276067" lon="2.9928533"><ele>961.0</ele><time>2026-04-04T09:01:57.444Z</time></trkpt><trkpt lat="43.62749" lon="2.99263"><ele>961.0</ele><time>2026-04-04T09:01:58.444Z</time></trkpt><trkpt lat="43.6273817" lon="2.992425"><ele>961.0</ele><time>2026-04-04T09:01:59.447Z</time></trkpt><trkpt lat="43.627285" lon="2.9922433"><ele>966.3333333333333</ele><time>2026-04-04T09:02:00.444Z</time></trkpt><trkpt lat="43.6271967" lon="2.9920617"><ele>971.6666666666667</ele><time>2026-04-04T09:02:01.447Z</time></trkpt><trkpt lat="43.62712" lon="2.9918467"><ele>977.0</ele><time>2026-04-04T09:02:02.447Z</time></trkpt><trkpt lat="43.62704" lon="2.9916433"><ele>974.3333333333334</ele><time>2026-04-04T09:02:03.447Z</time></trkpt><trkpt lat="43.626955" lon="2.9914217"><ele>971.6666666666667</ele><time>2026-04-04T09:02:04.447Z</time></trkpt><trkpt lat="43.6268633" lon="2.99118"><ele>969.0</ele><time>2026-04-04T09:02:05.443Z</time></trkpt><trkpt lat="43.6267517" lon="2.9909533"><ele>973.3333333333333</ele><time>2026-04-04T09:02:06.445Z</time></trkpt><trkpt lat="43.6266217" lon="2.9907483"><ele>977.6666666666666</ele><time>2026-04-04T09:02:07.445Z</time></trkpt><trkpt lat="43.6264783" lon="2.990555"><ele>982.0</ele><time>2026-04-04T09:02:08.447Z</time></trkpt><trkpt lat="43.6263283" lon="2.990365"><ele>982.0</ele><time>2026-04-04T09:02:09.446Z</time></trkpt><trkpt lat="43.6261917" lon="2.9901833"><ele>982.0</ele><time>2026-04-04T09:02:10.446Z</time></trkpt><trkpt lat="43.6260767" lon="2.9900183"><ele>982.0</ele><time>2026-04-04T09:02:11.446Z</time></trkpt><trkpt lat="43.6259617" lon="2.9898583"><ele>984.0</ele><time>2026-04-04T09:02:12.443Z</time></trkpt><trkpt lat="43.6258417" lon="2.9896833"><ele>986.0</ele><time>2026-04-04T09:02:13.447Z</time></trkpt><trkpt lat="43.6257117" lon="2.98951"><ele>988.0</ele><time>2026-04-04T09:02:14.446Z</time></trkpt><trkpt lat="43.6255733" lon="2.9893367"><ele>991.3333333333333</ele><time>2026-04-04T09:02:15.444Z</time></trkpt><trkpt lat="43.6254117" lon="2.9891667"><ele>994.6666666666667</ele><time>2026-04-04T09:02:16.446Z</time></trkpt><trkpt lat="43.6252433" lon="2.9890183"><ele>998.0</ele><time>2026-04-04T09:02:17.446Z</time></trkpt><trkpt lat="43.625085" lon="2.9889183"><ele>998.0</ele><time>2026-04-04T09:02:18.445Z</time></trkpt><trkpt lat="43.6249217" lon="2.9888467"><ele>998.0</ele><time>2026-04-04T09:02:19.447Z</time></trkpt><trkpt lat="43.6247483" lon="2.9888233"><ele>998.0</ele><time>2026-04-04T09:02:20.445Z</time></trkpt><trkpt lat="43.62456" lon="2.9888383"><ele>1000.6666666666667</ele><time>2026-04-04T09:02:21.446Z</time></trkpt><trkpt lat="43.6243767" lon="2.9888583"><ele>1003.3333333333333</ele><time>2026-04-04T09:02:22.443Z</time></trkpt><trkpt lat="43.6241983" lon="2.9889317"><ele>1006.0</ele><time>2026-04-04T09:02:23.445Z</time></trkpt><trkpt lat="43.6240717" lon="2.988995"><ele>1006.0</ele><time>2026-04-04T09:02:24.447Z</time></trkpt><trkpt lat="43.624" lon="2.989055"><ele>1005.9999999999999</ele><time>2026-04-04T09:02:25.444Z</time></trkpt><trkpt lat="43.6240133" lon="2.988955"><ele>1005.9999999999999</ele><time>2026-04-04T09:02:30.446Z</time></trkpt><trkpt lat="43.6240717" lon="2.9889033"><ele>1006.0</ele><time>2026-04-04T09:02:31.447Z</time></trkpt><trkpt lat="43.6241683" lon="2.98882"><ele>1006.0</ele><time>2026-04-04T09:02:32.443Z</time></trkpt><trkpt lat="43.62431" lon="2.9886767"><ele>1006.0</ele><time>2026-04-04T09:02:33.444Z</time></trkpt><trkpt lat="43.6244483" lon="2.988555"><ele>1006.0</ele><time>2026-04-04T09:02:34.445Z</time></trkpt><trkpt lat="43.624625" lon="2.9884233"><ele>1006.0</ele><time>2026-04-04T09:02:35.447Z</time></trkpt><trkpt lat="43.62478" lon="2.98833"><ele>1011.0</ele><time>2026-04-04T09:02:36.447Z</time></trkpt><trkpt lat="43.6249417" lon="2.9882567"><ele>1016.0</ele><time>2026-04-04T09:02:37.447Z</time></trkpt><trkpt lat="43.6250967" lon="2.9881883"><ele>1021.0</ele><time>2026-04-04T09:02:38.446Z</time></trkpt><trkpt lat="43.6252517" lon="2.98812"><ele>1023.75</ele><time>2026-04-04T09:02:39.446Z</time></trkpt><trkpt lat="43.6253933" lon="2.98804"><ele>1026.5</ele><time>2026-04-04T09:02:40.45Z</time></trkpt><trkpt lat="43.6255183" lon="2.987965"><ele>1029.25</ele><time>2026-04-04T09:02:41.447Z</time></trkpt><trkpt lat="43.6256183" lon="2.9879017"><ele>1032.0</ele><time>2026-04-04T09:02:42.447Z</time></trkpt><trkpt lat="43.6256767" lon="2.9878433"><ele>1032.0</ele><time>2026-04-04T09:02:43.445Z</time></trkpt><trkpt lat="43.6257167" lon="2.98774"><ele>1032.0</ele><time>2026-04-04T09:02:45.446Z</time></trkpt><trkpt lat="43.6446517" lon="2.9654583"><ele>1027.5</ele><time>2026-04-04T09:10:18.443Z</time></trkpt><trkpt lat="43.644755" lon="2.96527"><ele>1023.0</ele><time>2026-04-04T09:10:19.443Z</time></trkpt><trkpt lat="43.644845" lon="2.9651017"><ele>1018.5</ele><time>2026-04-04T09:10:20.442Z</time></trkpt><trkpt lat="43.644905" lon="2.96495"><ele>1014.0</ele><time>2026-04-04T09:10:21.443Z</time></trkpt><trkpt lat="43.6449217" lon="2.9648467"><ele>1011.6</ele><time>2026-04-04T09:10:22.443Z</time></trkpt><trkpt lat="43.644805" lon="2.964745"><ele>1009.2</ele><time>2026-04-04T09:10:24.446Z</time></trkpt><trkpt lat="43.6447183" lon="2.9647117"><ele>1006.8000000000001</ele><time>2026-04-04T09:10:25.446Z</time></trkpt><trkpt lat="43.6446483" lon="2.964665"><ele>1004.4000000000001</ele><time>2026-04-04T09:10:26.446Z</time></trkpt><trkpt lat="43.6446" lon="2.96459"><ele>1002.0</ele><time>2026-04-04T09:10:27.445Z</time></trkpt><trkpt lat="43.6446033" lon="2.9643417"><ele>999.6666666666667</ele><time>2026-04-04T09:10:29.443Z</time></trkpt><trkpt lat="43.6446467" lon="2.9641683"><ele>997.3333333333334</ele><time>2026-04-04T09:10:30.444Z</time></trkpt><trkpt lat="43.644735" lon="2.9639217"><ele>995.0</ele><time>2026-04-04T09:10:31.444Z</time></trkpt><trkpt lat="43.6448333" lon="2.963655"><ele>995.0</ele><time>2026-04-04T09:10:32.443Z</time></trkpt><trkpt lat="43.6449183" lon="2.9634"><ele>995.0</ele><time>2026-04-04T09:10:33.442Z</time></trkpt><trkpt lat="43.645005" lon="2.9631333"><ele>995.0</ele><time>2026-04-04T09:10:34.443Z</time></trkpt><trkpt lat="43.6450967" lon="2.9628683"><ele>991.3333333333334</ele><time>2026-04-04T09:10:35.447Z</time></trkpt><trkpt lat="43.6451833" lon="2.9625883"><ele>987.6666666666667</ele><time>2026-04-04T09:10:36.442Z</time></trkpt><trkpt lat="43.64525" lon="2.96232"><ele>984.0</ele><time>2026-04-04T09:10:37.444Z</time></trkpt><trkpt lat="43.6452817" lon="2.962035"><ele>979.6666666666667</ele><time>2026-04-04T09:10:38.442Z</time></trkpt><trkpt lat="43.645285" lon="2.961745"><ele>975.3333333333334</ele><time>2026-04-04T09:10:39.445Z</time></trkpt><trkpt lat="43.64529" lon="2.9614683"><ele>971.0</ele><time>2026-04-04T09:10:40.443Z</time></trkpt><trkpt lat="43.6453133" lon="2.9612017"><ele>970.3333333333334</ele><time>2026-04-04T09:10:41.446Z</time></trkpt><trkpt lat="43.6453667" lon="2.9609467"><ele>969.6666666666667</ele><time>2026-04-04T09:10:42.445Z</time></trkpt><trkpt lat="43.6454267" lon="2.96068"><ele>969.0</ele><time>2026-04-04T09:10:43.446Z</time></trkpt><trkpt lat="43.645475" lon="2.9604067"><ele>968.6666666666667</ele><time>2026-04-04T09:10:44.445Z</time></trkpt><trkpt lat="43.6455217" lon="2.9601283"><ele>968.3333333333334</ele><time>2026-04-04T09:10:45.445Z</time></trkpt><trkpt lat="43.6455717" lon="2.9598467"><ele>968.0</ele><time>2026-04-04T09:10:46.444Z</time></trkpt><trkpt lat="43.64562" lon="2.959565"><ele>972.5</ele><time>2026-04-04T09:10:47.444Z</time></trkpt><trkpt lat="43.6456533" lon="2.9593217"><ele>977.0</ele><time>2026-04-04T09:10:48.444Z</time></trkpt><trkpt lat="43.645645" lon="2.9588733"><ele>979.0</ele><time>2026-04-04T09:10:50.445Z</time></trkpt><trkpt lat="43.6456233" lon="2.9586367"><ele>981.0</ele><time>2026-04-04T09:10:51.447Z</time></trkpt><trkpt lat="43.6456167" lon="2.95838"><ele>983.0</ele><time>2026-04-04T09:10:52.443Z</time></trkpt><trkpt lat="43.6456067" lon="2.958115"><ele>985.3333333333334</ele><time>2026-04-04T09:10:53.446Z</time></trkpt><trkpt lat="43.645615" lon="2.9578367"><ele>987.6666666666667</ele><time>2026-04-04T09:10:54.446Z</time></trkpt><trkpt lat="43.645635" lon="2.9575617"><ele>990.0</ele><time>2026-04-04T09:10:55.446Z</time></trkpt><trkpt lat="43.6456617" lon="2.9573033"><ele>992.6666666666667</ele><time>2026-04-04T09:10:56.445Z</time></trkpt><trkpt lat="43.6456917" lon="2.9570633"><ele>995.3333333333334</ele><time>2026-04-04T09:10:57.445Z</time></trkpt><trkpt lat="43.645725" lon="2.9568467"><ele>998.0</ele><time>2026-04-04T09:10:58.443Z</time></trkpt><trkpt lat="43.6457583" lon="2.9566467"><ele>1000.75</ele><time>2026-04-04T09:10:59.443Z</time></trkpt><trkpt lat="43.6457933" lon="2.95648"><ele>1003.5</ele><time>2026-04-04T09:11:00.443Z</time></trkpt><trkpt lat="43.6458433" lon="2.95634"><ele>1006.25</ele><time>2026-04-04T09:11:01.446Z</time></trkpt><trkpt lat="43.6459417" lon="2.95625"><ele>1009.0</ele><time>2026-04-04T09:11:02.446Z</time></trkpt><trkpt lat="43.6460583" lon="2.9562067"><ele>1008.0</ele><time>2026-04-04T09:11:03.444Z</time></trkpt><trkpt lat="43.646185" lon="2.95616"><ele>1007.0</ele><time>2026-04-04T09:11:04.446Z</time></trkpt><trkpt lat="43.64632" lon="2.9561183"><ele>1006.0</ele><time>2026-04-04T09:11:05.442Z</time></trkpt><trkpt lat="43.6464533" lon="2.9560833"><ele>1005.0</ele><time>2026-04-04T09:11:06.443Z</time></trkpt><trkpt lat="43.646605" lon="2.95605"><ele>1005.0</ele><time>2026-04-04T09:11:07.446Z</time></trkpt><trkpt lat="43.6467617" lon="2.956025"><ele>1005.0</ele><time>2026-04-04T09:11:08.442Z</time></trkpt><trkpt lat="43.6469233" lon="2.9560033"><ele>1005.0</ele><time>2026-04-04T09:11:09.443Z</time></trkpt><trkpt lat="43.6471867" lon="2.9559933"><ele>1003.25</ele><time>2026-04-04T09:11:11.442Z</time></trkpt><trkpt lat="43.6472783" lon="2.9559867"><ele>1001.5</ele><time>2026-04-04T09:11:12.443Z</time></trkpt><trkpt lat="43.6473717" lon="2.9559517"><ele>999.75</ele><time>2026-04-04T09:11:13.443Z</time></trkpt><trkpt lat="43.64718" lon="2.9558967"><ele>998.0</ele><time>2026-04-04T09:11:19.444Z</time></trkpt><trkpt lat="43.647035" lon="2.9558917"><ele>1001.5</ele><time>2026-04-04T09:11:20.442Z</time></trkpt><trkpt lat="43.6468267" lon="2.9558883"><ele>1005.0</ele><time>2026-04-04T09:11:21.443Z</time></trkpt><trkpt lat="43.6465783" lon="2.9558617"><ele>1012.0</ele><time>2026-04-04T09:11:22.444Z</time></trkpt><trkpt lat="43.646385" lon="2.9558233"><ele>1019.0</ele><time>2026-04-04T09:11:23.442Z</time></trkpt><trkpt lat="43.646215" lon="2.9557933"><ele>1026.0</ele><time>2026-04-04T09:11:24.443Z</time></trkpt><trkpt lat="43.64603" lon="2.9557567"><ele>1026.0</ele><time>2026-04-04T09:11:25.443Z</time></trkpt><trkpt lat="43.6458817" lon="2.9557267"><ele>1026.0</ele><time>2026-04-04T09:11:26.442Z</time></trkpt><trkpt lat="43.64577" lon="2.9556817"><ele>1026.0</ele><time>2026-04-04T09:11:27.443Z</time></trkpt><trkpt lat="43.6456767" lon="2.95561"><ele>1026.0</ele><time>2026-04-04T09:11:28.442Z</time></trkpt><trkpt lat="43.6455767" lon="2.9555117"><ele>1026.0</ele><time>2026-04-04T09:11:29.446Z</time></trkpt><trkpt lat="43.6454917" lon="2.9553833"><ele>1026.0</ele><time>2026-04-04T09:11:30.442Z</time></trkpt><trkpt lat="43.64532" lon="2.95509"><ele>1026.0</ele><time>2026-04-04T09:11:32.445Z</time></trkpt><trkpt lat="43.64521" lon="2.9549467"><ele>1024.25</ele><time>2026-04-04T09:11:33.443Z</time></trkpt><trkpt lat="43.6450917" lon="2.9548217"><ele>1022.5</ele><time>2026-04-04T09:11:34.445Z</time></trkpt><trkpt lat="43.6449833" lon="2.9547067"><ele>1020.75</ele><time>2026-04-04T09:11:35.443Z</time></trkpt><trkpt lat="43.6448967" lon="2.9545967"><ele>1019.0</ele><time>2026-04-04T09:11:36.444Z</time></trkpt><trkpt lat="43.64484" lon="2.9544767"><ele>1019.0</ele><time>2026-04-04T09:11:37.443Z</time></trkpt><trkpt lat="43.644835" lon="2.9543267"><ele>1019.0</ele><time>2026-04-04T09:11:38.442Z</time></trkpt><trkpt lat="43.6448583" lon="2.95416"><ele>1019.0</ele><time>2026-04-04T09:11:39.443Z</time></trkpt><trkpt lat="43.6448783" lon="2.953995"><ele>1019.0</ele><time>2026-04-04T09:11:40.443Z</time></trkpt><trkpt lat="43.644885" lon="2.9538383"><ele>1023.8000000000001</ele><time>2026-04-04T09:11:41.443Z</time></trkpt><trkpt lat="43.6448617" lon="2.953705"><ele>1028.6000000000001</ele><time>2026-04-04T09:11:42.446Z</time></trkpt><trkpt lat="43.64479" lon="2.9536"><ele>1033.4</ele><time>2026-04-04T09:11:43.443Z</time></trkpt><trkpt lat="43.644715" lon="2.953505"><ele>1038.2</ele><time>2026-04-04T09:11:44.443Z</time></trkpt><trkpt lat="43.6446533" lon="2.953385"><ele>1043.0</ele><time>2026-04-04T09:11:45.442Z</time></trkpt><trkpt lat="43.6446033" lon="2.9532433"><ele>1047.75</ele><time>2026-04-04T09:11:46.442Z</time></trkpt><trkpt lat="43.6445533" lon="2.953085"><ele>1052.5</ele><time>2026-04-04T09:11:47.446Z</time></trkpt><trkpt lat="43.6445067" lon="2.9529183"><ele>1057.25</ele><time>2026-04-04T09:11:48.443Z</time></trkpt><trkpt lat="43.6444817" lon="2.9527567"><ele>1062.0</ele><time>2026-04-04T09:11:49.442Z</time></trkpt><trkpt lat="43.644485" lon="2.9526017"><ele>1063.0</ele><time>2026-04-04T09:11:50.445Z</time></trkpt><trkpt lat="43.6445067" lon="2.9524733"><ele>1064.0</ele><time>2026-04-04T09:11:51.445Z</time></trkpt><trkpt lat="43.6447133" lon="2.95235"><ele>1065.0</ele><time>2026-04-04T09:11:53.446Z</time></trkpt><trkpt lat="43.64484" lon="2.9523"><ele>1065.0</ele><time>2026-04-04T09:11:54.445Z</time></trkpt><trkpt lat="43.644965" lon="2.9522283"><ele>1065.0</ele><time>2026-04-04T09:11:55.447Z</time></trkpt><trkpt lat="43.6450917" lon="2.952135"><ele>1065.0</ele><time>2026-04-04T09:11:56.442Z</time></trkpt><trkpt lat="43.6452183" lon="2.9520233"><ele>1065.0</ele><time>2026-04-04T09:11:57.443Z</time></trkpt><trkpt lat="43.6453533" lon="2.9518967"><ele>1065.0</ele><time>2026-04-04T09:11:58.445Z</time></trkpt><trkpt lat="43.64548" lon="2.9517733"><ele>1065.0</ele><time>2026-04-04T09:11:59.448Z</time></trkpt><trkpt lat="43.6455883" lon="2.9516867"><ele>1065.0</ele><time>2026-04-04T09:12:00.445Z</time></trkpt><trkpt lat="43.6456833" lon="2.9516417"><ele>1065.0</ele><time>2026-04-04T09:12:01.446Z</time></trkpt><trkpt lat="43.6457633" lon="2.95168"><ele>1068.5</ele><time>2026-04-04T09:12:02.446Z</time></trkpt><trkpt lat="43.645835" lon="2.9517867"><ele>1072.0</ele><time>2026-04-04T09:12:03.443Z</time></trkpt><trkpt lat="43.645925" lon="2.9519"><ele>1075.5</ele><time>2026-04-04T09:12:04.442Z</time></trkpt><trkpt lat="43.6460267" lon="2.9519983"><ele>1079.0</ele><time>2026-04-04T09:12:05.443Z</time></trkpt><trkpt lat="43.6461467" lon="2.9520667"><ele>1081.0</ele><time>2026-04-04T09:12:06.442Z</time></trkpt><trkpt lat="43.6462833" lon="2.9520883"><ele>1083.0</ele><time>2026-04-04T09:12:07.444Z</time></trkpt><trkpt lat="43.6464417" lon="2.9520667"><ele>1085.0</ele><time>2026-04-04T09:12:08.442Z</time></trkpt><trkpt lat="43.646605" lon="2.9519867"><ele>1085.0</ele><time>2026-04-04T09:12:09.443Z</time></trkpt><trkpt lat="43.64677" lon="2.9518717"><ele>1085.0</ele><time>2026-04-04T09:12:10.444Z</time></trkpt><trkpt lat="43.6469383" lon="2.9517383"><ele>1085.0</ele><time>2026-04-04T09:12:11.443Z</time></trkpt><trkpt lat="43.6471067" lon="2.9515983"><ele>1085.0</ele><time>2026-04-04T09:12:12.445Z</time></trkpt><trkpt lat="43.6474583" lon="2.951315"><ele>1085.0</ele><time>2026-04-04T09:12:14.444Z</time></trkpt><trkpt lat="43.6476367" lon="2.9511683"><ele>1086.6666666666667</ele><time>2026-04-04T09:12:15.442Z</time></trkpt><trkpt lat="43.6478167" lon="2.9510133"><ele>1088.3333333333333</ele><time>2026-04-04T09:12:16.444Z</time></trkpt><trkpt lat="43.648" lon="2.9508483"><ele>1090.0</ele><time>2026-04-04T09:12:17.447Z</time></trkpt><trkpt lat="43.6481917" lon="2.9506883"><ele>1090.3333333333333</ele><time>2026-04-04T09:12:18.445Z</time></trkpt><trkpt lat="43.64838" lon="2.95053"><ele>1090.6666666666667</ele><time>2026-04-04T09:12:19.446Z</time></trkpt><trkpt lat="43.648565" lon="2.950375"><ele>1091.0</ele><time>2026-04-04T09:12:20.445Z</time></trkpt><trkpt lat="43.648745" lon="2.95022"><ele>1092.0</ele><time>2026-04-04T09:12:21.443Z</time></trkpt><trkpt lat="43.6489283" lon="2.95006"><ele>1093.0</ele><time>2026-04-04T09:12:22.442Z</time></trkpt><trkpt lat="43.6491133" lon="2.9499"><ele>1094.0</ele><time>2026-04-04T09:12:23.446Z</time></trkpt><trkpt lat="43.6493033" lon="2.9497417"><ele>1096.3333333333335</ele><time>2026-04-04T09:12:24.445Z</time></trkpt><trkpt lat="43.6494933" lon="2.949585"><ele>1098.6666666666667</ele><time>2026-04-04T09:12:25.446Z</time></trkpt><trkpt lat="43.6496783" lon="2.9494267"><ele>1101.0</ele><time>2026-04-04T09:12:26.445Z</time></trkpt><trkpt lat="43.64985" lon="2.949275"><ele>1101.0</ele><time>2026-04-04T09:12:27.446Z</time></trkpt><trkpt lat="43.6499967" lon="2.949105"><ele>1101.0</ele><time>2026-04-04T09:12:28.445Z</time></trkpt><trkpt lat="43.6501217" lon="2.94891"><ele>1101.0</ele><time>2026-04-04T09:12:29.446Z</time></trkpt><trkpt lat="43.6502467" lon="2.9487"><ele>1101.6666666666667</ele><time>2026-04-04T09:12:30.443Z</time></trkpt><trkpt lat="43.6503783" lon="2.9484883"><ele>1102.3333333333335</ele><time>2026-04-04T09:12:31.443Z</time></trkpt><trkpt lat="43.6505233" lon="2.9482817"><ele>1103.0</ele><time>2026-04-04T09:12:32.443Z</time></trkpt><trkpt lat="43.6506833" lon="2.94808"><ele>1103.0</ele><time>2026-04-04T09:12:33.443Z</time></trkpt><trkpt lat="43.6510217" lon="2.9476783"><ele>1103.0</ele><time>2026-04-04T09:12:35.446Z</time></trkpt><trkpt lat="43.651195" lon="2.9474883"><ele>1104.5</ele><time>2026-04-04T09:12:36.442Z</time></trkpt><trkpt lat="43.6513733" lon="2.9472917"><ele>1106.0</ele><time>2026-04-04T09:12:37.443Z</time></trkpt><trkpt lat="43.65156" lon="2.9470933"><ele>1106.0</ele><time>2026-04-04T09:12:38.442Z</time></trkpt><trkpt lat="43.651735" lon="2.9469"><ele>1106.0</ele><time>2026-04-04T09:12:39.442Z</time></trkpt><trkpt lat="43.6518967" lon="2.9467083"><ele>1106.0</ele><time>2026-04-04T09:12:40.443Z</time></trkpt><trkpt lat="43.6520567" lon="2.9465167"><ele>1105.6666666666667</ele><time>2026-04-04T09:12:41.443Z</time></trkpt><trkpt lat="43.6522167" lon="2.946325"><ele>1105.3333333333333</ele><time>2026-04-04T09:12:42.442Z</time></trkpt><trkpt lat="43.6523783" lon="2.94613"><ele>1105.0</ele><time>2026-04-04T09:12:43.443Z</time></trkpt><trkpt lat="43.652535" lon="2.9459283"><ele>1105.0</ele><time>2026-04-04T09:12:44.442Z</time></trkpt><trkpt lat="43.6526817" lon="2.945715"><ele>1105.0</ele><time>2026-04-04T09:12:45.443Z</time></trkpt><trkpt lat="43.6528183" lon="2.94549"><ele>1105.0</ele><time>2026-04-04T09:12:46.446Z</time></trkpt><trkpt lat="43.6529383" lon="2.9452583"><ele>1105.0</ele><time>2026-04-04T09:12:47.442Z</time></trkpt><trkpt lat="43.6530433" lon="2.945015"><ele>1105.0</ele><time>2026-04-04T09:12:48.445Z</time></trkpt><trkpt lat="43.6531317" lon="2.94476"><ele>1105.0</ele><time>2026-04-04T09:12:49.446Z</time></trkpt><trkpt lat="43.6532133" lon="2.9444933"><ele>1105.0</ele><time>2026-04-04T09:12:50.446Z</time></trkpt><trkpt lat="43.6532833" lon="2.9442333"><ele>1105.0</ele><time>2026-04-04T09:12:51.446Z</time></trkpt><trkpt lat="43.6533417" lon="2.9439933"><ele>1105.0</ele><time>2026-04-04T09:12:52.446Z</time></trkpt><trkpt lat="43.65338" lon="2.9437783"><ele>1105.25</ele><time>2026-04-04T09:12:53.445Z</time></trkpt><trkpt lat="43.653405" lon="2.9436"><ele>1105.5</ele><time>2026-04-04T09:12:54.445Z</time></trkpt><trkpt lat="43.6534233" lon="2.943325"><ele>1105.75</ele><time>2026-04-04T09:12:56.445Z</time></trkpt><trkpt lat="43.6534117" lon="2.9432017"><ele>1106.0</ele><time>2026-04-04T09:12:57.446Z</time></trkpt><trkpt lat="43.6533983" lon="2.94307"><ele>1107.0</ele><time>2026-04-04T09:12:58.445Z</time></trkpt><trkpt lat="43.653375" lon="2.942935"><ele>1108.0</ele><time>2026-04-04T09:12:59.442Z</time></trkpt><trkpt lat="43.653355" lon="2.94279"><ele>1109.0</ele><time>2026-04-04T09:13:00.442Z</time></trkpt><trkpt lat="43.65333" lon="2.94264"><ele>1110.0</ele><time>2026-04-04T09:13:01.443Z</time></trkpt><trkpt lat="43.6533033" lon="2.9424917"><ele>1111.0</ele><time>2026-04-04T09:13:02.442Z</time></trkpt><trkpt lat="43.65328" lon="2.9423533"><ele>1111.6</ele><time>2026-04-04T09:13:03.446Z</time></trkpt><trkpt lat="43.65326" lon="2.9422233"><ele>1112.1999999999998</ele><time>2026-04-04T09:13:04.442Z</time></trkpt><trkpt lat="43.6532467" lon="2.94212"><ele>1112.8000000000002</ele><time>2026-04-04T09:13:05.442Z</time></trkpt><trkpt lat="43.6532583" lon="2.9419817"><ele>1113.4</ele><time>2026-04-04T09:13:07.446Z</time></trkpt><trkpt lat="43.6533517" lon="2.9419217"><ele>1114.0</ele><time>2026-04-04T09:13:09.442Z</time></trkpt><trkpt lat="43.6534417" lon="2.94187"><ele>1114.0</ele><time>2026-04-04T09:13:10.444Z</time></trkpt><trkpt lat="43.6535433" lon="2.9418067"><ele>1114.0</ele><time>2026-04-04T09:13:11.443Z</time></trkpt><trkpt lat="43.6536367" lon="2.9417383"><ele>1114.0</ele><time>2026-04-04T09:13:12.445Z</time></trkpt><trkpt lat="43.6537283" lon="2.9416683"><ele>1114.0</ele><time>2026-04-04T09:13:13.443Z</time></trkpt><trkpt lat="43.6538283" lon="2.9415917"><ele>1114.0</ele><time>2026-04-04T09:13:14.442Z</time></trkpt><trkpt lat="43.6539267" lon="2.9415167"><ele>1113.5</ele><time>2026-04-04T09:13:15.442Z</time></trkpt><trkpt lat="43.6541117" lon="2.9413717"><ele>1113.0</ele><time>2026-04-04T09:13:17.442Z</time></trkpt><trkpt lat="43.6542" lon="2.9412983"><ele>1112.5</ele><time>2026-04-04T09:13:18.442Z</time></trkpt><trkpt lat="43.6542883" lon="2.941225"><ele>1112.0</ele><time>2026-04-04T09:13:19.443Z</time></trkpt><trkpt lat="43.6543767" lon="2.9411433"><ele>1113.0</ele><time>2026-04-04T09:13:20.442Z</time></trkpt><trkpt lat="43.654465" lon="2.9410483"><ele>1114.0</ele><time>2026-04-04T09:13:21.448Z</time></trkpt><trkpt lat="43.654555" lon="2.9409633"><ele>1115.0</ele><time>2026-04-04T09:13:22.443Z</time></trkpt><trkpt lat="43.6546417" lon="2.9408733"><ele>1116.0</ele><time>2026-04-04T09:13:23.442Z</time></trkpt><trkpt lat="43.6547367" lon="2.9407683"><ele>1116.0</ele><time>2026-04-04T09:13:24.442Z</time></trkpt><trkpt lat="43.6548417" lon="2.9406583"><ele>1116.0</ele><time>2026-04-04T09:13:25.443Z</time></trkpt><trkpt lat="43.65495" lon="2.9405383"><ele>1116.0</ele><time>2026-04-04T09:13:26.442Z</time></trkpt><trkpt lat="43.6550467" lon="2.94043"><ele>1116.0</ele><time>2026-04-04T09:13:27.443Z</time></trkpt><trkpt lat="43.6551317" lon="2.9403333"><ele>1116.0</ele><time>2026-04-04T09:13:28.443Z</time></trkpt><trkpt lat="43.6552183" lon="2.9402417"><ele>1116.0</ele><time>2026-04-04T09:13:29.442Z</time></trkpt><trkpt lat="43.6552967" lon="2.94016"><ele>1116.0</ele><time>2026-04-04T09:13:30.442Z</time></trkpt><trkpt lat="43.6553783" lon="2.940085"><ele>1116.0</ele><time>2026-04-04T09:13:31.443Z</time></trkpt><trkpt lat="43.6554617" lon="2.940015"><ele>1116.0</ele><time>2026-04-04T09:13:32.442Z</time></trkpt><trkpt lat="43.6555417" lon="2.939965"><ele>1115.8</ele><time>2026-04-04T09:13:33.443Z</time></trkpt><trkpt lat="43.6556183" lon="2.939925"><ele>1115.6</ele><time>2026-04-04T09:13:34.444Z</time></trkpt><trkpt lat="43.6557033" lon="2.939885"><ele>1115.4</ele><time>2026-04-04T09:13:35.442Z</time></trkpt><trkpt lat="43.655785" lon="2.9398517"><ele>1115.2</ele><time>2026-04-04T09:13:36.444Z</time></trkpt><trkpt lat="43.6559633" lon="2.939785"><ele>1115.0</ele><time>2026-04-04T09:13:38.442Z</time></trkpt><trkpt lat="43.6560517" lon="2.9397567"><ele>1114.4</ele><time>2026-04-04T09:13:39.442Z</time></trkpt><trkpt lat="43.6561367" lon="2.9397367"><ele>1113.8</ele><time>2026-04-04T09:13:40.443Z</time></trkpt><trkpt lat="43.6562333" lon="2.9397067"><ele>1113.2</ele><time>2026-04-04T09:13:41.443Z</time></trkpt><trkpt lat="43.6563367" lon="2.93968"><ele>1112.6</ele><time>2026-04-04T09:13:42.444Z</time></trkpt><trkpt lat="43.656435" lon="2.9396433"><ele>1112.0</ele><time>2026-04-04T09:13:43.443Z</time></trkpt><trkpt lat="43.65654" lon="2.9396133"><ele>1112.0</ele><time>2026-04-04T09:13:44.442Z</time></trkpt><trkpt lat="43.6566383" lon="2.9395883"><ele>1112.0</ele><time>2026-04-04T09:13:45.443Z</time></trkpt><trkpt lat="43.6567283" lon="2.9395683"><ele>1112.0</ele><time>2026-04-04T09:13:46.444Z</time></trkpt><trkpt lat="43.6568117" lon="2.9395633"><ele>1112.0</ele><time>2026-04-04T09:13:47.443Z</time></trkpt><trkpt lat="43.6569067" lon="2.93957"><ele>1112.0</ele><time>2026-04-04T09:13:48.444Z</time></trkpt><trkpt lat="43.6569917" lon="2.9396133"><ele>1113.0</ele><time>2026-04-04T09:13:49.442Z</time></trkpt><trkpt lat="43.6570733" lon="2.93969"><ele>1114.0</ele><time>2026-04-04T09:13:50.442Z</time></trkpt><trkpt lat="43.657155" lon="2.9397833"><ele>1115.0</ele><time>2026-04-04T09:13:51.443Z</time></trkpt><trkpt lat="43.6572433" lon="2.9398867"><ele>1116.0</ele><time>2026-04-04T09:13:52.444Z</time></trkpt><trkpt lat="43.65733" lon="2.9399933"><ele>1117.0</ele><time>2026-04-04T09:13:53.442Z</time></trkpt><trkpt lat="43.6574083" lon="2.9401"><ele>1112.75</ele><time>2026-04-04T09:13:54.444Z</time></trkpt><trkpt lat="43.6574833" lon="2.9401883"><ele>1108.5</ele><time>2026-04-04T09:13:55.443Z</time></trkpt><trkpt lat="43.657555" lon="2.94027"><ele>1104.25</ele><time>2026-04-04T09:13:56.443Z</time></trkpt><trkpt lat="43.6576367" lon="2.9403467"><ele>1100.0</ele><time>2026-04-04T09:13:57.442Z</time></trkpt><trkpt lat="43.6578167" lon="2.9404683"><ele>1100.0</ele><time>2026-04-04T09:13:59.443Z</time></trkpt><trkpt lat="43.6579433" lon="2.940535"><ele>1100.0</ele><time>2026-04-04T09:14:00.443Z</time></trkpt><trkpt lat="43.6580617" lon="2.9405767"><ele>1100.0</ele><time>2026-04-04T09:14:01.442Z</time></trkpt><trkpt lat="43.658175" lon="2.9406083"><ele>1100.0</ele><time>2026-04-04T09:14:02.443Z</time></trkpt><trkpt lat="43.65827" lon="2.9406483"><ele>1100.0</ele><time>2026-04-04T09:14:03.442Z</time></trkpt><trkpt lat="43.6583467" lon="2.9406883"><ele>1100.0</ele><time>2026-04-04T09:14:04.444Z</time></trkpt><trkpt lat="43.65841" lon="2.9407517"><ele>1100.0</ele><time>2026-04-04T09:14:05.447Z</time></trkpt><trkpt lat="43.6584817" lon="2.9408183"><ele>1100.0</ele><time>2026-04-04T09:14:06.45Z</time></trkpt><trkpt lat="43.6585517" lon="2.9408933"><ele>1100.0</ele><time>2026-04-04T09:14:07.444Z</time></trkpt><trkpt lat="43.65863" lon="2.9409617"><ele>1100.0</ele><time>2026-04-04T09:14:08.443Z</time></trkpt><trkpt lat="43.6587333" lon="2.941035"><ele>1094.75</ele><time>2026-04-04T09:14:09.443Z</time></trkpt><trkpt lat="43.6588367" lon="2.94111"><ele>1089.5</ele><time>2026-04-04T09:14:10.444Z</time></trkpt><trkpt lat="43.6589433" lon="2.9411783"><ele>1084.25</ele><time>2026-04-04T09:14:11.448Z</time></trkpt><trkpt lat="43.65905" lon="2.941235"><ele>1079.0</ele><time>2026-04-04T09:14:12.443Z</time></trkpt><trkpt lat="43.6591583" lon="2.9412883"><ele>1079.0</ele><time>2026-04-04T09:14:13.446Z</time></trkpt><trkpt lat="43.6592533" lon="2.94133"><ele>1079.0</ele><time>2026-04-04T09:14:14.442Z</time></trkpt><trkpt lat="43.6593383" lon="2.9413467"><ele>1079.0</ele><time>2026-04-04T09:14:15.445Z</time></trkpt><trkpt lat="43.6594183" lon="2.94134"><ele>1079.0</ele><time>2026-04-04T09:14:16.442Z</time></trkpt><trkpt lat="43.6594933" lon="2.9413217"><ele>1079.0</ele><time>2026-04-04T09:14:17.446Z</time></trkpt><trkpt lat="43.6595783" lon="2.9413"><ele>1079.0</ele><time>2026-04-04T09:14:18.445Z</time></trkpt><trkpt lat="43.6597583" lon="2.94128"><ele>1078.3333333333335</ele><time>2026-04-04T09:14:20.442Z</time></trkpt><trkpt lat="43.6598517" lon="2.9412883"><ele>1077.6666666666667</ele><time>2026-04-04T09:14:21.443Z</time></trkpt><trkpt lat="43.6599533" lon="2.9413117"><ele>1077.0</ele><time>2026-04-04T09:14:22.445Z</time></trkpt><trkpt lat="43.6600417" lon="2.9413317"><ele>1076.3333333333333</ele><time>2026-04-04T09:14:23.445Z</time></trkpt><trkpt lat="43.6601183" lon="2.9413417"><ele>1075.6666666666665</ele><time>2026-04-04T09:14:24.446Z</time></trkpt><trkpt lat="43.6601933" lon="2.9413567"><ele>1075.0</ele><time>2026-04-04T09:14:25.446Z</time></trkpt><trkpt lat="43.6602733" lon="2.9413717"><ele>1072.3333333333333</ele><time>2026-04-04T09:14:26.446Z</time></trkpt><trkpt lat="43.6603517" lon="2.94139"><ele>1069.6666666666665</ele><time>2026-04-04T09:14:27.442Z</time></trkpt><trkpt lat="43.6604267" lon="2.9414033"><ele>1067.0</ele><time>2026-04-04T09:14:28.445Z</time></trkpt><trkpt lat="43.6604917" lon="2.9414117"><ele>1064.3333333333333</ele><time>2026-04-04T09:14:29.445Z</time></trkpt><trkpt lat="43.6606067" lon="2.94143"><ele>1061.6666666666667</ele><time>2026-04-04T09:14:31.442Z</time></trkpt><trkpt lat="43.6607167" lon="2.941425"><ele>1059.0</ele><time>2026-04-04T09:14:33.445Z</time></trkpt><trkpt lat="43.6608183" lon="2.9414367"><ele>1059.0</ele><time>2026-04-04T09:14:35.443Z</time></trkpt><trkpt lat="43.6608917" lon="2.9414917"><ele>1059.0</ele><time>2026-04-04T09:14:37.447Z</time></trkpt><trkpt lat="43.6609983" lon="2.9415617"><ele>1059.0</ele><time>2026-04-04T09:14:39.443Z</time></trkpt><trkpt lat="43.6611367" lon="2.941635"><ele>1059.0</ele><time>2026-04-04T09:14:41.443Z</time></trkpt><trkpt lat="43.66121" lon="2.941655"><ele>1059.0</ele><time>2026-04-04T09:14:42.442Z</time></trkpt><trkpt lat="43.6613133" lon="2.9416917"><ele>1054.6000000000001</ele><time>2026-04-04T09:14:44.442Z</time></trkpt><trkpt lat="43.66141" lon="2.9416967"><ele>1050.2</ele><time>2026-04-04T09:14:46.442Z</time></trkpt><trkpt lat="43.6614717" lon="2.9416583"><ele>1045.8000000000002</ele><time>2026-04-04T09:14:48.445Z</time></trkpt><trkpt lat="43.6614483" lon="2.9415417"><ele>1041.4</ele><time>2026-04-04T09:14:51.445Z</time></trkpt><trkpt lat="43.6613717" lon="2.941405"><ele>1037.0</ele><time>2026-04-04T09:14:53.442Z</time></trkpt><trkpt lat="43.66133" lon="2.9413183"><ele>1037.0</ele><time>2026-04-04T09:14:54.445Z</time></trkpt><trkpt lat="43.661285" lon="2.9412067"><ele>1037.0</ele><time>2026-04-04T09:14:55.444Z</time></trkpt><trkpt lat="43.661225" lon="2.9410683"><ele>1037.0</ele><time>2026-04-04T09:14:56.443Z</time></trkpt><trkpt lat="43.661175" lon="2.9409417"><ele>1037.0</ele><time>2026-04-04T09:14:57.444Z</time></trkpt><trkpt lat="43.661115" lon="2.94081"><ele>1037.0</ele><time>2026-04-04T09:14:58.444Z</time></trkpt><trkpt lat="43.6610533" lon="2.9406767"><ele>1040.5</ele><time>2026-04-04T09:14:59.443Z</time></trkpt><trkpt lat="43.6609983" lon="2.9405517"><ele>1044.0</ele><time>2026-04-04T09:15:00.444Z</time></trkpt><trkpt lat="43.6608867" lon="2.9403333"><ele>1047.5</ele><time>2026-04-04T09:15:02.442Z</time></trkpt><trkpt lat="43.66083" lon="2.940225"><ele>1051.0</ele><time>2026-04-04T09:15:03.443Z</time></trkpt><trkpt lat="43.66077" lon="2.9401183"><ele>1048.3999999999999</ele><time>2026-04-04T09:15:04.444Z</time></trkpt><trkpt lat="43.660715" lon="2.9400117"><ele>1045.8</ele><time>2026-04-04T09:15:05.443Z</time></trkpt><trkpt lat="43.6606583" lon="2.9398983"><ele>1043.1999999999998</ele><time>2026-04-04T09:15:06.443Z</time></trkpt><trkpt lat="43.66061" lon="2.93977"><ele>1040.6</ele><time>2026-04-04T09:15:07.443Z</time></trkpt><trkpt lat="43.660565" lon="2.9396533"><ele>1038.0</ele><time>2026-04-04T09:15:08.442Z</time></trkpt><trkpt lat="43.6605317" lon="2.9395433"><ele>1038.0</ele><time>2026-04-04T09:15:09.442Z</time></trkpt><trkpt lat="43.6605133" lon="2.9394233"><ele>1038.0</ele><time>2026-04-04T09:15:10.443Z</time></trkpt><trkpt lat="43.6605117" lon="2.9393117"><ele>1038.0</ele><time>2026-04-04T09:15:11.444Z</time></trkpt><trkpt lat="43.6605133" lon="2.9392067"><ele>1038.0</ele><time>2026-04-04T09:15:12.443Z</time></trkpt><trkpt lat="43.66051" lon="2.9390933"><ele>1038.0</ele><time>2026-04-04T09:15:13.444Z</time></trkpt><trkpt lat="43.6604933" lon="2.9389633"><ele>1038.0</ele><time>2026-04-04T09:15:14.442Z</time></trkpt><trkpt lat="43.6604683" lon="2.9388267"><ele>1037.0</ele><time>2026-04-04T09:15:15.442Z</time></trkpt><trkpt lat="43.660425" lon="2.9386867"><ele>1036.0</ele><time>2026-04-04T09:15:16.442Z</time></trkpt><trkpt lat="43.66037" lon="2.9385583"><ele>1035.0</ele><time>2026-04-04T09:15:17.443Z</time></trkpt><trkpt lat="43.6603167" lon="2.9384583"><ele>1034.0</ele><time>2026-04-04T09:15:18.442Z</time></trkpt><trkpt lat="43.6602767" lon="2.9383633"><ele>1033.0</ele><time>2026-04-04T09:15:19.443Z</time></trkpt><trkpt lat="43.660275" lon="2.938245"><ele>1035.0</ele><time>2026-04-04T09:15:21.442Z</time></trkpt><trkpt lat="43.660455" lon="2.938105"><ele>1037.0</ele><time>2026-04-04T09:15:25.444Z</time></trkpt><trkpt lat="43.6605283" lon="2.9381017"><ele>1039.0</ele><time>2026-04-04T09:15:26.443Z</time></trkpt><trkpt lat="43.6605983" lon="2.938105"><ele>1041.0</ele><time>2026-04-04T09:15:27.442Z</time></trkpt><trkpt lat="43.6607067" lon="2.93811"><ele>1041.0</ele><time>2026-04-04T09:15:29.443Z</time></trkpt><trkpt lat="43.6607933" lon="2.9381267"><ele>1041.0</ele><time>2026-04-04T09:15:31.443Z</time></trkpt><trkpt lat="43.6608817" lon="2.9381467"><ele>1041.0</ele><time>2026-04-04T09:15:33.443Z</time></trkpt><trkpt lat="43.6609833" lon="2.9381833"><ele>1041.0</ele><time>2026-04-04T09:15:35.442Z</time></trkpt><trkpt lat="43.6610867" lon="2.9382583"><ele>1041.0</ele><time>2026-04-04T09:15:37.447Z</time></trkpt><trkpt lat="43.6611633" lon="2.9383183"><ele>1041.0</ele><time>2026-04-04T09:15:39.442Z</time></trkpt><trkpt lat="43.6612167" lon="2.9383667"><ele>1041.0</ele><time>2026-04-04T09:15:42.446Z</time></trkpt><trkpt lat="43.66111" lon="2.9381883"><ele>1041.0</ele><time>2026-04-04T09:15:50.442Z</time></trkpt><trkpt lat="43.66105" lon="2.9381483"><ele>1041.0</ele><time>2026-04-04T09:15:51.443Z</time></trkpt><trkpt lat="43.6609833" lon="2.938115"><ele>1041.0</ele><time>2026-04-04T09:15:52.442Z</time></trkpt><trkpt lat="43.6609083" lon="2.93809"><ele>1041.0</ele><time>2026-04-04T09:15:53.442Z</time></trkpt><trkpt lat="43.6608117" lon="2.938085"><ele>1041.0</ele><time>2026-04-04T09:15:54.442Z</time></trkpt><trkpt lat="43.6607233" lon="2.93807"><ele>1041.0</ele><time>2026-04-04T09:15:55.442Z</time></trkpt><trkpt lat="43.6606333" lon="2.93806"><ele>1041.0</ele><time>2026-04-04T09:15:56.442Z</time></trkpt><trkpt lat="43.6605417" lon="2.93805"><ele>1041.0</ele><time>2026-04-04T09:15:57.442Z</time></trkpt><trkpt lat="43.660455" lon="2.93806"><ele>1041.0</ele><time>2026-04-04T09:15:58.443Z</time></trkpt><trkpt lat="43.660385" lon="2.9380817"><ele>1041.0</ele><time>2026-04-04T09:15:59.443Z</time></trkpt><trkpt lat="43.6602817" lon="2.93816"><ele>1039.0</ele><time>2026-04-04T09:16:01.443Z</time></trkpt><trkpt lat="43.66023" lon="2.9382467"><ele>1037.0</ele><time>2026-04-04T09:16:03.444Z</time></trkpt><trkpt lat="43.66027" lon="2.9384883"><ele>1035.0</ele><time>2026-04-04T09:16:06.442Z</time></trkpt><trkpt lat="43.660315" lon="2.9386583"><ele>1033.0</ele><time>2026-04-04T09:16:07.444Z</time></trkpt><trkpt lat="43.6603517" lon="2.938825"><ele>1033.0</ele><time>2026-04-04T09:16:08.443Z</time></trkpt><trkpt lat="43.6603883" lon="2.9390517"><ele>1033.0</ele><time>2026-04-04T09:16:09.443Z</time></trkpt><trkpt lat="43.6604117" lon="2.9392233"><ele>1033.0</ele><time>2026-04-04T09:16:10.442Z</time></trkpt><trkpt lat="43.66045" lon="2.9393917"><ele>1033.0</ele><time>2026-04-04T09:16:11.443Z</time></trkpt><trkpt lat="43.66049" lon="2.9395933"><ele>1034.25</ele><time>2026-04-04T09:16:12.443Z</time></trkpt><trkpt lat="43.66054" lon="2.9397533"><ele>1035.5</ele><time>2026-04-04T09:16:13.444Z</time></trkpt><trkpt lat="43.660595" lon="2.9399"><ele>1036.75</ele><time>2026-04-04T09:16:14.442Z</time></trkpt><trkpt lat="43.6606567" lon="2.9400533"><ele>1038.0</ele><time>2026-04-04T09:16:15.443Z</time></trkpt><trkpt lat="43.660725" lon="2.9402117"><ele>1041.25</ele><time>2026-04-04T09:16:16.443Z</time></trkpt><trkpt lat="43.6607867" lon="2.940375"><ele>1044.5</ele><time>2026-04-04T09:16:17.442Z</time></trkpt><trkpt lat="43.6608483" lon="2.9405417"><ele>1047.75</ele><time>2026-04-04T09:16:18.442Z</time></trkpt><trkpt lat="43.6609267" lon="2.9407067"><ele>1051.0</ele><time>2026-04-04T09:16:19.443Z</time></trkpt><trkpt lat="43.6609983" lon="2.9408717"><ele>1052.6</ele><time>2026-04-04T09:16:20.443Z</time></trkpt><trkpt lat="43.6610617" lon="2.9410283"><ele>1054.1999999999998</ele><time>2026-04-04T09:16:21.443Z</time></trkpt><trkpt lat="43.6611183" lon="2.9411633"><ele>1055.8000000000002</ele><time>2026-04-04T09:16:22.443Z</time></trkpt><trkpt lat="43.66117" lon="2.9412767"><ele>1057.4</ele><time>2026-04-04T09:16:23.442Z</time></trkpt><trkpt lat="43.6612083" lon="2.941365"><ele>1059.0</ele><time>2026-04-04T09:16:24.443Z</time></trkpt><trkpt lat="43.6612617" lon="2.9415983"><ele>1059.0</ele><time>2026-04-04T09:16:28.443Z</time></trkpt><trkpt lat="43.6612117" lon="2.941545"><ele>1059.0</ele><time>2026-04-04T09:16:30.442Z</time></trkpt><trkpt lat="43.66116" lon="2.94144"><ele>1059.0</ele><time>2026-04-04T09:16:32.443Z</time></trkpt><trkpt lat="43.6611033" lon="2.94138"><ele>1059.0</ele><time>2026-04-04T09:16:33.443Z</time></trkpt><trkpt lat="43.6610367" lon="2.9413133"><ele>1059.0</ele><time>2026-04-04T09:16:34.443Z</time></trkpt><trkpt lat="43.660945" lon="2.9412217"><ele>1059.0</ele><time>2026-04-04T09:16:35.444Z</time></trkpt><trkpt lat="43.66084" lon="2.9411017"><ele>1059.0</ele><time>2026-04-04T09:16:36.445Z</time></trkpt><trkpt lat="43.6607133" lon="2.9409533"><ele>1059.0</ele><time>2026-04-04T09:16:37.443Z</time></trkpt><trkpt lat="43.6606017" lon="2.940825"><ele>1059.0</ele><time>2026-04-04T09:16:38.443Z</time></trkpt><trkpt lat="43.6604883" lon="2.9407083"><ele>1057.0</ele><time>2026-04-04T09:16:39.442Z</time></trkpt><trkpt lat="43.6603783" lon="2.94059"><ele>1055.0</ele><time>2026-04-04T09:16:40.443Z</time></trkpt><trkpt lat="43.660265" lon="2.9404867"><ele>1053.0</ele><time>2026-04-04T09:16:41.444Z</time></trkpt><trkpt lat="43.660155" lon="2.9403783"><ele>1051.0</ele><time>2026-04-04T09:16:42.442Z</time></trkpt><trkpt lat="43.6600533" lon="2.9402667"><ele>1056.0</ele><time>2026-04-04T09:16:43.443Z</time></trkpt><trkpt lat="43.6599567" lon="2.94016"><ele>1061.0</ele><time>2026-04-04T09:16:44.442Z</time></trkpt><trkpt lat="43.6598533" lon="2.94003"><ele>1066.0</ele><time>2026-04-04T09:16:45.442Z</time></trkpt><trkpt lat="43.6596483" lon="2.9398367"><ele>1066.0</ele><time>2026-04-04T09:16:47.443Z</time></trkpt><trkpt lat="43.6595433" lon="2.9397167"><ele>1066.0</ele><time>2026-04-04T09:16:48.442Z</time></trkpt><trkpt lat="43.6594417" lon="2.9395733"><ele>1066.0</ele><time>2026-04-04T09:16:49.443Z</time></trkpt><trkpt lat="43.6593533" lon="2.9393783"><ele>1066.0</ele><time>2026-04-04T09:16:50.443Z</time></trkpt><trkpt lat="43.6592633" lon="2.9392017"><ele>1069.75</ele><time>2026-04-04T09:16:51.444Z</time></trkpt><trkpt lat="43.6591817" lon="2.93905"><ele>1073.5</ele><time>2026-04-04T09:16:52.444Z</time></trkpt><trkpt lat="43.659105" lon="2.9388917"><ele>1077.25</ele><time>2026-04-04T09:16:53.443Z</time></trkpt><trkpt lat="43.6590267" lon="2.9387317"><ele>1081.0</ele><time>2026-04-04T09:16:54.443Z</time></trkpt><trkpt lat="43.658945" lon="2.93854"><ele>1079.75</ele><time>2026-04-04T09:16:55.443Z</time></trkpt><trkpt lat="43.6588833" lon="2.9383483"><ele>1078.5</ele><time>2026-04-04T09:16:56.443Z</time></trkpt><trkpt lat="43.6588317" lon="2.9381467"><ele>1077.25</ele><time>2026-04-04T09:16:57.442Z</time></trkpt><trkpt lat="43.6587817" lon="2.937965"><ele>1076.0</ele><time>2026-04-04T09:16:58.442Z</time></trkpt><trkpt lat="43.658725" lon="2.937785"><ele>1076.0</ele><time>2026-04-04T09:16:59.444Z</time></trkpt><trkpt lat="43.6586583" lon="2.937635"><ele>1076.0</ele><time>2026-04-04T09:17:00.443Z</time></trkpt><trkpt lat="43.658585" lon="2.9374683"><ele>1076.0</ele><time>2026-04-04T09:17:01.443Z</time></trkpt><trkpt lat="43.65851" lon="2.9373317"><ele>1076.0</ele><time>2026-04-04T09:17:02.442Z</time></trkpt><trkpt lat="43.6584367" lon="2.9372117"><ele>1081.5</ele><time>2026-04-04T09:17:03.442Z</time></trkpt><trkpt lat="43.65839" lon="2.9371"><ele>1087.0</ele><time>2026-04-04T09:17:04.442Z</time></trkpt><trkpt lat="43.65837" lon="2.93697"><ele>1092.5</ele><time>2026-04-04T09:17:05.443Z</time></trkpt><trkpt lat="43.6584183" lon="2.9368967"><ele>1098.0</ele><time>2026-04-04T09:17:06.442Z</time></trkpt><trkpt lat="43.6585083" lon="2.9366483"><ele>1098.75</ele><time>2026-04-04T09:17:08.443Z</time></trkpt><trkpt lat="43.6586" lon="2.936535"><ele>1099.5</ele><time>2026-04-04T09:17:09.442Z</time></trkpt><trkpt lat="43.6587167" lon="2.936435"><ele>1100.25</ele><time>2026-04-04T09:17:10.451Z</time></trkpt><trkpt lat="43.6588467" lon="2.9363517"><ele>1101.0</ele><time>2026-04-04T09:17:11.444Z</time></trkpt><trkpt lat="43.65897" lon="2.93628"><ele>1099.0</ele><time>2026-04-04T09:17:12.444Z</time></trkpt><trkpt lat="43.6590917" lon="2.9362167"><ele>1097.0</ele><time>2026-04-04T09:17:13.445Z</time></trkpt><trkpt lat="43.6591967" lon="2.936155"><ele>1095.0</ele><time>2026-04-04T09:17:14.444Z</time></trkpt><trkpt lat="43.6592967" lon="2.9361133"><ele>1093.0</ele><time>2026-04-04T09:17:15.444Z</time></trkpt><trkpt lat="43.6593933" lon="2.9360883"><ele>1091.0</ele><time>2026-04-04T09:17:16.442Z</time></trkpt><trkpt lat="43.6594833" lon="2.9360783"><ele>1090.2</ele><time>2026-04-04T09:17:17.442Z</time></trkpt><trkpt lat="43.6595633" lon="2.9360867"><ele>1089.3999999999999</ele><time>2026-04-04T09:17:18.443Z</time></trkpt><trkpt lat="43.659635" lon="2.93612"><ele>1088.6</ele><time>2026-04-04T09:17:19.443Z</time></trkpt><trkpt lat="43.6597117" lon="2.9361867"><ele>1087.8</ele><time>2026-04-04T09:17:20.442Z</time></trkpt><trkpt lat="43.6598133" lon="2.9362733"><ele>1087.0</ele><time>2026-04-04T09:17:21.443Z</time></trkpt><trkpt lat="43.6599083" lon="2.9363533"><ele>1087.0</ele><time>2026-04-04T09:17:22.443Z</time></trkpt><trkpt lat="43.660005" lon="2.9364233"><ele>1087.0</ele><time>2026-04-04T09:17:23.443Z</time></trkpt><trkpt lat="43.6601017" lon="2.936475"><ele>1087.0</ele><time>2026-04-04T09:17:24.443Z</time></trkpt><trkpt lat="43.6602067" lon="2.93651"><ele>1087.0</ele><time>2026-04-04T09:17:25.445Z</time></trkpt><trkpt lat="43.6603233" lon="2.93652"><ele>1087.0</ele><time>2026-04-04T09:17:26.443Z</time></trkpt><trkpt lat="43.660465" lon="2.9365083"><ele>1087.0</ele><time>2026-04-04T09:17:27.442Z</time></trkpt><trkpt lat="43.6607167" lon="2.93649"><ele>1087.0</ele><time>2026-04-04T09:17:29.442Z</time></trkpt><trkpt lat="43.66083" lon="2.9365283"><ele>1087.0</ele><time>2026-04-04T09:17:30.443Z</time></trkpt><trkpt lat="43.660925" lon="2.9366133"><ele>1087.0</ele><time>2026-04-04T09:17:31.443Z</time></trkpt><trkpt lat="43.661025" lon="2.9367017"><ele>1087.0</ele><time>2026-04-04T09:17:32.442Z</time></trkpt><trkpt lat="43.6611417" lon="2.9367817"><ele>1087.0</ele><time>2026-04-04T09:17:33.443Z</time></trkpt><trkpt lat="43.6612733" lon="2.9368483"><ele>1087.0</ele><time>2026-04-04T09:17:34.442Z</time></trkpt><trkpt lat="43.66141" lon="2.93691"><ele>1080.6666666666665</ele><time>2026-04-04T09:17:35.442Z</time></trkpt><trkpt lat="43.6615667" lon="2.93697"><ele>1074.3333333333333</ele><time>2026-04-04T09:17:36.443Z</time></trkpt><trkpt lat="43.6617283" lon="2.93701"><ele>1068.0</ele><time>2026-04-04T09:17:37.443Z</time></trkpt><trkpt lat="43.6618933" lon="2.9370483"><ele>1068.5</ele><time>2026-04-04T09:17:38.442Z</time></trkpt><trkpt lat="43.6620617" lon="2.9370917"><ele>1069.0</ele><time>2026-04-04T09:17:39.447Z</time></trkpt><trkpt lat="43.6622083" lon="2.93715"><ele>1069.5</ele><time>2026-04-04T09:17:40.442Z</time></trkpt><trkpt lat="43.6623233" lon="2.9372067"><ele>1070.0</ele><time>2026-04-04T09:17:41.442Z</time></trkpt><trkpt lat="43.6624133" lon="2.9372467"><ele>1070.0</ele><time>2026-04-04T09:17:42.443Z</time></trkpt><trkpt lat="43.66249" lon="2.93726"><ele>1070.0</ele><time>2026-04-04T09:17:43.447Z</time></trkpt><trkpt lat="43.6625617" lon="2.9372433"><ele>1070.0</ele><time>2026-04-04T09:17:44.446Z</time></trkpt><trkpt lat="43.66263" lon="2.9372067"><ele>1070.0</ele><time>2026-04-04T09:17:45.445Z</time></trkpt><trkpt lat="43.66268" lon="2.9371367"><ele>1070.0</ele><time>2026-04-04T09:17:46.446Z</time></trkpt><trkpt lat="43.6627333" lon="2.9370467"><ele>1070.0</ele><time>2026-04-04T09:17:47.442Z</time></trkpt><trkpt lat="43.6627783" lon="2.9369417"><ele>1067.25</ele><time>2026-04-04T09:17:48.443Z</time></trkpt><trkpt lat="43.6628283" lon="2.9366567"><ele>1064.5</ele><time>2026-04-04T09:17:50.442Z</time></trkpt><trkpt lat="43.66284" lon="2.9365017"><ele>1061.75</ele><time>2026-04-04T09:17:51.444Z</time></trkpt><trkpt lat="43.6628467" lon="2.9363333"><ele>1059.0</ele><time>2026-04-04T09:17:52.443Z</time></trkpt><trkpt lat="43.6628333" lon="2.936145"><ele>1059.0</ele><time>2026-04-04T09:17:53.443Z</time></trkpt><trkpt lat="43.6628317" lon="2.9359483"><ele>1059.0</ele><time>2026-04-04T09:17:54.445Z</time></trkpt><trkpt lat="43.662825" lon="2.9357583"><ele>1059.0</ele><time>2026-04-04T09:17:55.446Z</time></trkpt><trkpt lat="43.662814" lon="2.9355752"><ele>1059.0</ele><time>2026-04-04T09:17:56.445Z</time></trkpt><trkpt lat="43.6627965" lon="2.9353892"><ele>1064.0</ele><time>2026-04-04T09:17:57.443Z</time></trkpt><trkpt lat="43.6627771" lon="2.9351968"><ele>1069.0</ele><time>2026-04-04T09:17:58.442Z</time></trkpt><trkpt lat="43.6627575" lon="2.9350158"><ele>1074.0</ele><time>2026-04-04T09:17:59.443Z</time></trkpt><trkpt lat="43.6627284" lon="2.9348509"><ele>1079.0</ele><time>2026-04-04T09:18:00.443Z</time></trkpt><trkpt lat="43.66269" lon="2.9346893"><ele>1079.0</ele><time>2026-04-04T09:18:01.442Z</time></trkpt><trkpt lat="43.6626307" lon="2.9345263"><ele>1079.0</ele><time>2026-04-04T09:18:02.443Z</time></trkpt><trkpt lat="43.6625515" lon="2.9343583"><ele>1079.0</ele><time>2026-04-04T09:18:03.444Z</time></trkpt><trkpt lat="43.6624665" lon="2.9341901"><ele>1079.0</ele><time>2026-04-04T09:18:04.443Z</time></trkpt><trkpt lat="43.6623787" lon="2.9340274"><ele>1075.6666666666667</ele><time>2026-04-04T09:18:05.444Z</time></trkpt><trkpt lat="43.662282" lon="2.9338643"><ele>1072.3333333333333</ele><time>2026-04-04T09:18:06.444Z</time></trkpt><trkpt lat="43.6621843" lon="2.9336904"><ele>1069.0</ele><time>2026-04-04T09:18:07.444Z</time></trkpt><trkpt lat="43.6620987" lon="2.9335074"><ele>1065.3333333333333</ele><time>2026-04-04T09:18:08.442Z</time></trkpt><trkpt lat="43.6620344" lon="2.9333224"><ele>1061.6666666666667</ele><time>2026-04-04T09:18:09.443Z</time></trkpt><trkpt lat="43.6619898" lon="2.9329505"><ele>1058.0</ele><time>2026-04-04T09:18:11.443Z</time></trkpt><trkpt lat="43.6619761" lon="2.9327633"><ele>1058.0</ele><time>2026-04-04T09:18:12.443Z</time></trkpt><trkpt lat="43.6619539" lon="2.9325787"><ele>1058.0</ele><time>2026-04-04T09:18:13.444Z</time></trkpt><trkpt lat="43.6619171" lon="2.9324063"><ele>1058.0</ele><time>2026-04-04T09:18:14.442Z</time></trkpt><trkpt lat="43.6618649" lon="2.9322562"><ele>1058.0</ele><time>2026-04-04T09:18:15.443Z</time></trkpt><trkpt lat="43.6617908" lon="2.9321165"><ele>1059.6666666666667</ele><time>2026-04-04T09:18:16.446Z</time></trkpt><trkpt lat="43.6616887" lon="2.9319652"><ele>1061.3333333333333</ele><time>2026-04-04T09:18:17.445Z</time></trkpt><trkpt lat="43.6615692" lon="2.9318053"><ele>1063.0</ele><time>2026-04-04T09:18:18.442Z</time></trkpt><trkpt lat="43.6614503" lon="2.9316505"><ele>1063.0</ele><time>2026-04-04T09:18:19.446Z</time></trkpt><trkpt lat="43.6613481" lon="2.9315266"><ele>1063.0</ele><time>2026-04-04T09:18:20.446Z</time></trkpt><trkpt lat="43.6612659" lon="2.9314477"><ele>1063.0</ele><time>2026-04-04T09:18:21.445Z</time></trkpt><trkpt lat="43.6611882" lon="2.9314087"><ele>1063.0</ele><time>2026-04-04T09:18:22.444Z</time></trkpt><trkpt lat="43.6611089" lon="2.9314034"><ele>1063.0</ele><time>2026-04-04T09:18:23.445Z</time></trkpt><trkpt lat="43.6610237" lon="2.9314105"><ele>1063.75</ele><time>2026-04-04T09:18:24.446Z</time></trkpt><trkpt lat="43.6609114" lon="2.9314355"><ele>1064.5</ele><time>2026-04-04T09:18:25.442Z</time></trkpt><trkpt lat="43.6607966" lon="2.9314834"><ele>1065.25</ele><time>2026-04-04T09:18:26.445Z</time></trkpt><trkpt lat="43.6606749" lon="2.9315515"><ele>1066.0</ele><time>2026-04-04T09:18:27.444Z</time></trkpt><trkpt lat="43.6605388" lon="2.9316308"><ele>1066.0</ele><time>2026-04-04T09:18:28.443Z</time></trkpt><trkpt lat="43.6603937" lon="2.9317173"><ele>1066.0</ele><time>2026-04-04T09:18:29.443Z</time></trkpt><trkpt lat="43.6602456" lon="2.9318071"><ele>1066.0</ele><time>2026-04-04T09:18:30.444Z</time></trkpt><trkpt lat="43.6599981" lon="2.9320336"><ele>1067.2</ele><time>2026-04-04T09:18:32.442Z</time></trkpt><trkpt lat="43.6599063" lon="2.9321347"><ele>1068.3999999999999</ele><time>2026-04-04T09:18:33.445Z</time></trkpt><trkpt lat="43.6598285" lon="2.932213"><ele>1069.6</ele><time>2026-04-04T09:18:34.443Z</time></trkpt><trkpt lat="43.6597469" lon="2.9322757"><ele>1070.8</ele><time>2026-04-04T09:18:35.443Z</time></trkpt><trkpt lat="43.659681" lon="2.9323022"><ele>1072.0</ele><time>2026-04-04T09:18:36.442Z</time></trkpt><trkpt lat="43.6595937" lon="2.9322702"><ele>1072.0</ele><time>2026-04-04T09:18:38.442Z</time></trkpt><trkpt lat="43.6595201" lon="2.9321615"><ele>1072.0</ele><time>2026-04-04T09:18:40.443Z</time></trkpt><trkpt lat="43.6594865" lon="2.932046"><ele>1072.0</ele><time>2026-04-04T09:18:41.443Z</time></trkpt><trkpt lat="43.659438" lon="2.931955"><ele>1072.0</ele><time>2026-04-04T09:18:42.442Z</time></trkpt><trkpt lat="43.6593851" lon="2.9318465"><ele>1072.0</ele><time>2026-04-04T09:18:43.443Z</time></trkpt><trkpt lat="43.6593186" lon="2.9316875"><ele>1072.0</ele><time>2026-04-04T09:18:44.442Z</time></trkpt><trkpt lat="43.6592739" lon="2.9314967"><ele>1072.0</ele><time>2026-04-04T09:18:45.444Z</time></trkpt><trkpt lat="43.6592418" lon="2.9312968"><ele>1072.0</ele><time>2026-04-04T09:18:46.443Z</time></trkpt><trkpt lat="43.6591958" lon="2.9310194"><ele>1069.0</ele><time>2026-04-04T09:18:47.443Z</time></trkpt><trkpt lat="43.6591616" lon="2.9307701"><ele>1066.0</ele><time>2026-04-04T09:18:48.443Z</time></trkpt><trkpt lat="43.6591212" lon="2.9305665"><ele>1063.0</ele><time>2026-04-04T09:18:49.443Z</time></trkpt><trkpt lat="43.6590571" lon="2.9303563"><ele>1063.0</ele><time>2026-04-04T09:18:50.443Z</time></trkpt><trkpt lat="43.6589834" lon="2.930159"><ele>1063.0</ele><time>2026-04-04T09:18:51.442Z</time></trkpt><trkpt lat="43.6588621" lon="2.9297458"><ele>1061.3333333333333</ele><time>2026-04-04T09:18:53.442Z</time></trkpt><trkpt lat="43.6587942" lon="2.9294817"><ele>1059.6666666666667</ele><time>2026-04-04T09:18:54.442Z</time></trkpt><trkpt lat="43.6587401" lon="2.9292433"><ele>1058.0</ele><time>2026-04-04T09:18:55.443Z</time></trkpt><trkpt lat="43.6586855" lon="2.9290867"><ele>1056.8333333333335</ele><time>2026-04-04T09:18:56.442Z</time></trkpt><trkpt lat="43.6586277" lon="2.9289763"><ele>1055.6666666666667</ele><time>2026-04-04T09:18:57.442Z</time></trkpt><trkpt lat="43.6585673" lon="2.9289067"><ele>1054.5</ele><time>2026-04-04T09:18:58.444Z</time></trkpt><trkpt lat="43.6585151" lon="2.9288365"><ele>1053.3333333333333</ele><time>2026-04-04T09:18:59.443Z</time></trkpt><trkpt lat="43.6584482" lon="2.9287709"><ele>1052.1666666666665</ele><time>2026-04-04T09:19:00.443Z</time></trkpt><trkpt lat="43.6583684" lon="2.9287022"><ele>1051.0</ele><time>2026-04-04T09:19:01.444Z</time></trkpt><trkpt lat="43.6582589" lon="2.9286474"><ele>1057.0</ele><time>2026-04-04T09:19:02.442Z</time></trkpt><trkpt lat="43.6580783" lon="2.9286283"><ele>1063.0</ele><time>2026-04-04T09:19:03.442Z</time></trkpt><trkpt lat="43.6579217" lon="2.9286417"><ele>1069.0</ele><time>2026-04-04T09:19:04.444Z</time></trkpt><trkpt lat="43.65776" lon="2.928685"><ele>1070.0</ele><time>2026-04-04T09:19:05.443Z</time></trkpt><trkpt lat="43.657545" lon="2.9287667"><ele>1071.0</ele><time>2026-04-04T09:19:06.443Z</time></trkpt><trkpt lat="43.6573183" lon="2.9288317"><ele>1071.0</ele><time>2026-04-04T09:19:07.444Z</time></trkpt><trkpt lat="43.657085" lon="2.9288783"><ele>1071.0</ele><time>2026-04-04T09:19:08.442Z</time></trkpt><trkpt lat="43.6568567" lon="2.92886"><ele>1072.0</ele><time>2026-04-04T09:19:09.442Z</time></trkpt><trkpt lat="43.6566067" lon="2.9287967"><ele>1073.0</ele><time>2026-04-04T09:19:10.442Z</time></trkpt><trkpt lat="43.6563783" lon="2.9287133"><ele>1073.0</ele><time>2026-04-04T09:19:11.443Z</time></trkpt><trkpt lat="43.6561783" lon="2.9286233"><ele>1073.0</ele><time>2026-04-04T09:19:12.445Z</time></trkpt><trkpt lat="43.6558617" lon="2.928425"><ele>1071.0</ele><time>2026-04-04T09:19:14.442Z</time></trkpt><trkpt lat="43.655725" lon="2.9283167"><ele>1069.0</ele><time>2026-04-04T09:19:15.444Z</time></trkpt><trkpt lat="43.6556067" lon="2.92815"><ele>1067.0</ele><time>2026-04-04T09:19:16.442Z</time></trkpt><trkpt lat="43.6554967" lon="2.9279517"><ele>1067.0</ele><time>2026-04-04T09:19:17.444Z</time></trkpt><trkpt lat="43.6553683" lon="2.9277667"><ele>1067.0</ele><time>2026-04-04T09:19:18.444Z</time></trkpt><trkpt lat="43.6552533" lon="2.9275833"><ele>1067.0</ele><time>2026-04-04T09:19:19.442Z</time></trkpt><trkpt lat="43.6551383" lon="2.9274283"><ele>1068.6666666666667</ele><time>2026-04-04T09:19:20.442Z</time></trkpt><trkpt lat="43.6550133" lon="2.9272933"><ele>1070.3333333333333</ele><time>2026-04-04T09:19:21.442Z</time></trkpt><trkpt lat="43.6548733" lon="2.9271867"><ele>1072.0</ele><time>2026-04-04T09:19:22.442Z</time></trkpt><trkpt lat="43.6547217" lon="2.9271133"><ele>1072.0</ele><time>2026-04-04T09:19:23.443Z</time></trkpt><trkpt lat="43.6545583" lon="2.9270517"><ele>1072.0</ele><time>2026-04-04T09:19:24.443Z</time></trkpt><trkpt lat="43.6543933" lon="2.9270033"><ele>1072.0</ele><time>2026-04-04T09:19:25.442Z</time></trkpt><trkpt lat="43.6542583" lon="2.9269567"><ele>1071.3333333333333</ele><time>2026-04-04T09:19:26.442Z</time></trkpt><trkpt lat="43.65412" lon="2.9268483"><ele>1070.6666666666667</ele><time>2026-04-04T09:19:27.442Z</time></trkpt><trkpt lat="43.6539883" lon="2.9266983"><ele>1070.0</ele><time>2026-04-04T09:19:28.443Z</time></trkpt><trkpt lat="43.6538467" lon="2.9265583"><ele>1070.0</ele><time>2026-04-04T09:19:29.442Z</time></trkpt><trkpt lat="43.6536883" lon="2.92643"><ele>1070.0</ele><time>2026-04-04T09:19:30.443Z</time></trkpt><trkpt lat="43.653505" lon="2.926305"><ele>1070.0</ele><time>2026-04-04T09:19:31.442Z</time></trkpt><trkpt lat="43.6533267" lon="2.926175"><ele>1071.0</ele><time>2026-04-04T09:19:32.442Z</time></trkpt><trkpt lat="43.6531733" lon="2.926025"><ele>1072.0</ele><time>2026-04-04T09:19:33.442Z</time></trkpt><trkpt lat="43.6529633" lon="2.9256817"><ele>1071.0</ele><time>2026-04-04T09:19:35.443Z</time></trkpt><trkpt lat="43.6528983" lon="2.9254817"><ele>1070.0</ele><time>2026-04-04T09:19:36.443Z</time></trkpt><trkpt lat="43.6528567" lon="2.9253017"><ele>1069.0</ele><time>2026-04-04T09:19:37.443Z</time></trkpt><trkpt lat="43.6528283" lon="2.9251717"><ele>1068.0</ele><time>2026-04-04T09:19:38.442Z</time></trkpt><trkpt lat="43.6528083" lon="2.925075"><ele>1067.6666666666667</ele><time>2026-04-04T09:19:39.442Z</time></trkpt><trkpt lat="43.6527933" lon="2.92497"><ele>1067.3333333333333</ele><time>2026-04-04T09:19:40.444Z</time></trkpt><trkpt lat="43.6527783" lon="2.9248733"><ele>1067.0</ele><time>2026-04-04T09:19:41.442Z</time></trkpt><trkpt lat="43.6527667" lon="2.92478"><ele>1066.6666666666665</ele><time>2026-04-04T09:19:42.442Z</time></trkpt><trkpt lat="43.65273" lon="2.9246267"><ele>1066.3333333333333</ele><time>2026-04-04T09:19:44.446Z</time></trkpt><trkpt lat="43.652665" lon="2.9245283"><ele>1066.0</ele><time>2026-04-04T09:19:46.444Z</time></trkpt><trkpt lat="43.6526017" lon="2.9244983"><ele>1066.0</ele><time>2026-04-04T09:19:48.445Z</time></trkpt><trkpt lat="43.65253" lon="2.9244667"><ele>1066.0</ele><time>2026-04-04T09:36:44.447Z</time></trkpt><trkpt lat="43.6526183" lon="2.9245733"><ele>1066.0</ele><time>2026-04-04T09:36:50.445Z</time></trkpt><trkpt lat="43.6527" lon="2.9246133"><ele>1066.0</ele><time>2026-04-04T09:36:53.446Z</time></trkpt><trkpt lat="43.652785" lon="2.924645"><ele>1066.0</ele><time>2026-04-04T09:36:56.444Z</time></trkpt><trkpt lat="43.6528483" lon="2.9246517"><ele>1066.0</ele><time>2026-04-04T09:36:59.446Z</time></trkpt><trkpt lat="43.6529083" lon="2.9245533"><ele>1066.0</ele><time>2026-04-04T09:37:02.445Z</time></trkpt><trkpt lat="43.65294" lon="2.9244667"><ele>1066.0</ele><time>2026-04-04T09:37:04.443Z</time></trkpt><trkpt lat="43.6529933" lon="2.9243583"><ele>1066.0</ele><time>2026-04-04T09:37:06.445Z</time></trkpt><trkpt lat="43.65309" lon="2.9241133"><ele>1066.0</ele><time>2026-04-04T09:37:10.443Z</time></trkpt><trkpt lat="43.6531433" lon="2.923965"><ele>1066.0</ele><time>2026-04-04T09:37:12.445Z</time></trkpt><trkpt lat="43.6532083" lon="2.9238133"><ele>1066.0</ele><time>2026-04-04T09:37:14.446Z</time></trkpt><trkpt lat="43.65327" lon="2.92367"><ele>1066.0</ele><time>2026-04-04T09:37:16.444Z</time></trkpt><trkpt lat="43.6533283" lon="2.92352"><ele>1066.0</ele><time>2026-04-04T09:37:18.443Z</time></trkpt><trkpt lat="43.6533883" lon="2.92338"><ele>1066.2</ele><time>2026-04-04T09:37:20.443Z</time></trkpt><trkpt lat="43.65344" lon="2.9232367"><ele>1066.3999999999999</ele><time>2026-04-04T09:37:22.443Z</time></trkpt><trkpt lat="43.6534767" lon="2.9231167"><ele>1066.6</ele><time>2026-04-04T09:37:24.448Z</time></trkpt><trkpt lat="43.6535083" lon="2.9230067"><ele>1066.8</ele><time>2026-04-04T09:37:26.446Z</time></trkpt><trkpt lat="43.6535367" lon="2.9229033"><ele>1067.0</ele><time>2026-04-04T09:37:28.443Z</time></trkpt><trkpt lat="43.653585" lon="2.922675"><ele>1066.2</ele><time>2026-04-04T09:37:32.446Z</time></trkpt><trkpt lat="43.6536333" lon="2.92254"><ele>1065.4</ele><time>2026-04-04T09:37:34.446Z</time></trkpt><trkpt lat="43.6536533" lon="2.9224517"><ele>1064.6</ele><time>2026-04-04T09:37:35.446Z</time></trkpt><trkpt lat="43.65368" lon="2.9223383"><ele>1063.8</ele><time>2026-04-04T09:37:36.446Z</time></trkpt><trkpt lat="43.653715" lon="2.92221"><ele>1063.0</ele><time>2026-04-04T09:37:37.446Z</time></trkpt><trkpt lat="43.65375" lon="2.9220783"><ele>1063.0</ele><time>2026-04-04T09:37:38.444Z</time></trkpt><trkpt lat="43.653785" lon="2.9219467"><ele>1063.0</ele><time>2026-04-04T09:37:39.444Z</time></trkpt><trkpt lat="43.6538233" lon="2.9218183"><ele>1063.0</ele><time>2026-04-04T09:37:40.446Z</time></trkpt><trkpt lat="43.653865" lon="2.92169"><ele>1063.0</ele><time>2026-04-04T09:37:41.445Z</time></trkpt><trkpt lat="43.6539" lon="2.9215667"><ele>1063.0</ele><time>2026-04-04T09:37:42.446Z</time></trkpt><trkpt lat="43.6539217" lon="2.9214433"><ele>1064.8</ele><time>2026-04-04T09:37:43.447Z</time></trkpt><trkpt lat="43.6539333" lon="2.921315"><ele>1066.6</ele><time>2026-04-04T09:37:44.446Z</time></trkpt><trkpt lat="43.6539283" lon="2.921185"><ele>1068.4</ele><time>2026-04-04T09:37:45.446Z</time></trkpt><trkpt lat="43.65391" lon="2.9210533"><ele>1070.2</ele><time>2026-04-04T09:37:46.446Z</time></trkpt><trkpt lat="43.65388" lon="2.92092"><ele>1072.0</ele><time>2026-04-04T09:37:47.447Z</time></trkpt><trkpt lat="43.6538417" lon="2.9207917"><ele>1071.0</ele><time>2026-04-04T09:37:48.446Z</time></trkpt><trkpt lat="43.6537933" lon="2.92066"><ele>1070.0</ele><time>2026-04-04T09:37:49.446Z</time></trkpt><trkpt lat="43.6536833" lon="2.9204033"><ele>1069.0</ele><time>2026-04-04T09:37:51.446Z</time></trkpt><trkpt lat="43.6536267" lon="2.9202767"><ele>1068.0</ele><time>2026-04-04T09:37:52.443Z</time></trkpt><trkpt lat="43.65357" lon="2.920145"><ele>1068.75</ele><time>2026-04-04T09:37:53.443Z</time></trkpt><trkpt lat="43.653515" lon="2.92001"><ele>1069.5</ele><time>2026-04-04T09:37:54.446Z</time></trkpt><trkpt lat="43.6534633" lon="2.9198717"><ele>1070.25</ele><time>2026-04-04T09:37:55.447Z</time></trkpt><trkpt lat="43.6534217" lon="2.919725"><ele>1071.0</ele><time>2026-04-04T09:37:56.443Z</time></trkpt><trkpt lat="43.6533917" lon="2.9195733"><ele>1071.0</ele><time>2026-04-04T09:37:57.444Z</time></trkpt><trkpt lat="43.65338" lon="2.9194167"><ele>1071.0</ele><time>2026-04-04T09:37:58.443Z</time></trkpt><trkpt lat="43.6533817" lon="2.919265"><ele>1071.0</ele><time>2026-04-04T09:37:59.447Z</time></trkpt><trkpt lat="43.6533817" lon="2.91912"><ele>1071.0</ele><time>2026-04-04T09:38:00.443Z</time></trkpt><trkpt lat="43.653385" lon="2.918975"><ele>1071.0</ele><time>2026-04-04T09:38:01.446Z</time></trkpt><trkpt lat="43.65338" lon="2.9188383"><ele>1072.0</ele><time>2026-04-04T09:38:02.445Z</time></trkpt><trkpt lat="43.653375" lon="2.91869"><ele>1073.0</ele><time>2026-04-04T09:38:03.445Z</time></trkpt><trkpt lat="43.653375" lon="2.9185417"><ele>1074.0</ele><time>2026-04-04T09:38:04.444Z</time></trkpt><trkpt lat="43.6533817" lon="2.9183883"><ele>1075.0</ele><time>2026-04-04T09:38:05.445Z</time></trkpt><trkpt lat="43.6533883" lon="2.9182483"><ele>1076.0</ele><time>2026-04-04T09:38:06.444Z</time></trkpt><trkpt lat="43.653395" lon="2.918105"><ele>1076.25</ele><time>2026-04-04T09:38:07.447Z</time></trkpt><trkpt lat="43.6534067" lon="2.9179583"><ele>1076.5</ele><time>2026-04-04T09:38:08.444Z</time></trkpt><trkpt lat="43.65342" lon="2.917805"><ele>1076.75</ele><time>2026-04-04T09:38:09.444Z</time></trkpt><trkpt lat="43.6534433" lon="2.9176433"><ele>1077.0</ele><time>2026-04-04T09:38:10.447Z</time></trkpt><trkpt lat="43.6534733" lon="2.91734"><ele>1078.25</ele><time>2026-04-04T09:38:12.444Z</time></trkpt><trkpt lat="43.6534917" lon="2.917195"><ele>1079.5</ele><time>2026-04-04T09:38:13.444Z</time></trkpt><trkpt lat="43.6535067" lon="2.91705"><ele>1080.75</ele><time>2026-04-04T09:38:14.445Z</time></trkpt><trkpt lat="43.653535" lon="2.9168917"><ele>1082.0</ele><time>2026-04-04T09:38:15.444Z</time></trkpt><trkpt lat="43.6535683" lon="2.916715"><ele>1082.6666666666667</ele><time>2026-04-04T09:38:16.444Z</time></trkpt><trkpt lat="43.6536133" lon="2.9165233"><ele>1083.3333333333333</ele><time>2026-04-04T09:38:17.447Z</time></trkpt><trkpt lat="43.65367" lon="2.9163133"><ele>1084.0</ele><time>2026-04-04T09:38:18.446Z</time></trkpt><trkpt lat="43.653725" lon="2.9161017"><ele>1085.3333333333333</ele><time>2026-04-04T09:38:19.443Z</time></trkpt><trkpt lat="43.653785" lon="2.91588"><ele>1086.6666666666667</ele><time>2026-04-04T09:38:20.446Z</time></trkpt><trkpt lat="43.653845" lon="2.91566"><ele>1088.0</ele><time>2026-04-04T09:38:21.446Z</time></trkpt><trkpt lat="43.6539033" lon="2.9154467"><ele>1088.0</ele><time>2026-04-04T09:38:22.444Z</time></trkpt><trkpt lat="43.65396" lon="2.9152367"><ele>1088.0</ele><time>2026-04-04T09:38:23.446Z</time></trkpt><trkpt lat="43.65401" lon="2.9150383"><ele>1088.0</ele><time>2026-04-04T09:38:24.445Z</time></trkpt><trkpt lat="43.6540567" lon="2.9148433"><ele>1089.0</ele><time>2026-04-04T09:38:25.448Z</time></trkpt><trkpt lat="43.6541033" lon="2.9146467"><ele>1090.0</ele><time>2026-04-04T09:38:26.445Z</time></trkpt><trkpt lat="43.6541533" lon="2.9144467"><ele>1091.0</ele><time>2026-04-04T09:38:27.445Z</time></trkpt><trkpt lat="43.6541967" lon="2.9142483"><ele>1092.0</ele><time>2026-04-04T09:38:28.446Z</time></trkpt><trkpt lat="43.654235" lon="2.9140467"><ele>1093.0</ele><time>2026-04-04T09:38:29.442Z</time></trkpt><trkpt lat="43.6542667" lon="2.9138467"><ele>1094.0</ele><time>2026-04-04T09:38:30.444Z</time></trkpt><trkpt lat="43.6543033" lon="2.9136483"><ele>1095.0</ele><time>2026-04-04T09:38:31.443Z</time></trkpt><trkpt lat="43.6543633" lon="2.9132583"><ele>1096.0</ele><time>2026-04-04T09:38:33.444Z</time></trkpt><trkpt lat="43.6544083" lon="2.913065"><ele>1097.0</ele><time>2026-04-04T09:38:34.444Z</time></trkpt><trkpt lat="43.6544517" lon="2.912875"><ele>1098.0</ele><time>2026-04-04T09:38:35.444Z</time></trkpt><trkpt lat="43.6544967" lon="2.9126833"><ele>1099.0</ele><time>2026-04-04T09:38:36.444Z</time></trkpt><trkpt lat="43.654535" lon="2.9124833"><ele>1099.3333333333333</ele><time>2026-04-04T09:38:37.446Z</time></trkpt><trkpt lat="43.6545733" lon="2.9122783"><ele>1099.6666666666667</ele><time>2026-04-04T09:38:38.444Z</time></trkpt><trkpt lat="43.65461" lon="2.9120567"><ele>1100.0</ele><time>2026-04-04T09:38:39.443Z</time></trkpt><trkpt lat="43.6546467" lon="2.91184"><ele>1099.0</ele><time>2026-04-04T09:38:40.445Z</time></trkpt><trkpt lat="43.654685" lon="2.9116267"><ele>1098.0</ele><time>2026-04-04T09:38:41.444Z</time></trkpt><trkpt lat="43.65472" lon="2.9114283"><ele>1097.0</ele><time>2026-04-04T09:38:42.444Z</time></trkpt><trkpt lat="43.6547567" lon="2.911225"><ele>1097.0</ele><time>2026-04-04T09:38:43.446Z</time></trkpt><trkpt lat="43.6548" lon="2.9109983"><ele>1097.0</ele><time>2026-04-04T09:38:44.443Z</time></trkpt><trkpt lat="43.654855" lon="2.9107617"><ele>1097.0</ele><time>2026-04-04T09:38:45.447Z</time></trkpt><trkpt lat="43.6548933" lon="2.9105383"><ele>1096.0</ele><time>2026-04-04T09:38:46.443Z</time></trkpt><trkpt lat="43.654935" lon="2.9103167"><ele>1095.0</ele><time>2026-04-04T09:38:47.445Z</time></trkpt><trkpt lat="43.6549617" lon="2.910115"><ele>1094.0</ele><time>2026-04-04T09:38:48.443Z</time></trkpt><trkpt lat="43.6550033" lon="2.9099183"><ele>1093.5</ele><time>2026-04-04T09:38:49.444Z</time></trkpt><trkpt lat="43.655035" lon="2.9097383"><ele>1093.0</ele><time>2026-04-04T09:38:50.443Z</time></trkpt><trkpt lat="43.65505" lon="2.909585"><ele>1092.5</ele><time>2026-04-04T09:38:51.443Z</time></trkpt><trkpt lat="43.6550417" lon="2.9094417"><ele>1092.0</ele><time>2026-04-04T09:38:52.446Z</time></trkpt><trkpt lat="43.6549717" lon="2.9091533"><ele>1091.5</ele><time>2026-04-04T09:38:54.447Z</time></trkpt><trkpt lat="43.6549433" lon="2.908995"><ele>1091.0</ele><time>2026-04-04T09:38:55.443Z</time></trkpt><trkpt lat="43.6549433" lon="2.9088267"><ele>1090.5</ele><time>2026-04-04T09:38:56.446Z</time></trkpt><trkpt lat="43.65496" lon="2.9086533"><ele>1090.0</ele><time>2026-04-04T09:38:57.447Z</time></trkpt><trkpt lat="43.654975" lon="2.9084767"><ele>1090.0</ele><time>2026-04-04T09:38:58.444Z</time></trkpt><trkpt lat="43.6549883" lon="2.9082967"><ele>1090.0</ele><time>2026-04-04T09:38:59.443Z</time></trkpt><trkpt lat="43.6549883" lon="2.9081133"><ele>1090.0</ele><time>2026-04-04T09:39:00.444Z</time></trkpt><trkpt lat="43.6549717" lon="2.9079283"><ele>1090.0</ele><time>2026-04-04T09:39:01.444Z</time></trkpt><trkpt lat="43.6549517" lon="2.9077383"><ele>1090.2</ele><time>2026-04-04T09:39:02.443Z</time></trkpt><trkpt lat="43.6549317" lon="2.907555"><ele>1090.4</ele><time>2026-04-04T09:39:03.444Z</time></trkpt><trkpt lat="43.65491" lon="2.9073933"><ele>1090.6</ele><time>2026-04-04T09:39:04.443Z</time></trkpt><trkpt lat="43.65488" lon="2.907265"><ele>1090.8</ele><time>2026-04-04T09:39:05.443Z</time></trkpt><trkpt lat="43.6548417" lon="2.907165"><ele>1091.0</ele><time>2026-04-04T09:39:06.443Z</time></trkpt><trkpt lat="43.6547917" lon="2.9070917"><ele>1091.0</ele><time>2026-04-04T09:39:07.446Z</time></trkpt><trkpt lat="43.654685" lon="2.9070333"><ele>1091.0</ele><time>2026-04-04T09:39:09.446Z</time></trkpt><trkpt lat="43.654555" lon="2.9070283"><ele>1091.0</ele><time>2026-04-04T09:39:11.445Z</time></trkpt><trkpt lat="43.6544767" lon="2.90702"><ele>1091.0</ele><time>2026-04-04T09:39:12.443Z</time></trkpt><trkpt lat="43.6543967" lon="2.906995"><ele>1091.0</ele><time>2026-04-04T09:39:13.443Z</time></trkpt><trkpt lat="43.6542583" lon="2.9068783"><ele>1091.6</ele><time>2026-04-04T09:39:15.446Z</time></trkpt><trkpt lat="43.6542117" lon="2.9067883"><ele>1092.1999999999998</ele><time>2026-04-04T09:39:16.443Z</time></trkpt><trkpt lat="43.6541817" lon="2.906665"><ele>1092.8000000000002</ele><time>2026-04-04T09:39:17.443Z</time></trkpt><trkpt lat="43.6541567" lon="2.906535"><ele>1093.4</ele><time>2026-04-04T09:39:18.443Z</time></trkpt><trkpt lat="43.6541383" lon="2.906405"><ele>1094.0</ele><time>2026-04-04T09:39:19.444Z</time></trkpt><trkpt lat="43.6541317" lon="2.9062467"><ele>1094.0</ele><time>2026-04-04T09:39:20.444Z</time></trkpt><trkpt lat="43.6541167" lon="2.9060733"><ele>1094.0</ele><time>2026-04-04T09:39:21.444Z</time></trkpt><trkpt lat="43.6540933" lon="2.9058983"><ele>1094.0</ele><time>2026-04-04T09:39:22.443Z</time></trkpt><trkpt lat="43.65407" lon="2.9056933"><ele>1094.0</ele><time>2026-04-04T09:39:23.444Z</time></trkpt><trkpt lat="43.654045" lon="2.9054717"><ele>1094.0</ele><time>2026-04-04T09:39:24.443Z</time></trkpt><trkpt lat="43.654015" lon="2.905255"><ele>1094.0</ele><time>2026-04-04T09:39:25.444Z</time></trkpt><trkpt lat="43.6539933" lon="2.90503"><ele>1094.0</ele><time>2026-04-04T09:39:26.444Z</time></trkpt><trkpt lat="43.6539667" lon="2.9047983"><ele>1094.0</ele><time>2026-04-04T09:39:27.444Z</time></trkpt><trkpt lat="43.65394" lon="2.904565"><ele>1094.0</ele><time>2026-04-04T09:39:28.444Z</time></trkpt><trkpt lat="43.6539167" lon="2.9043217"><ele>1094.0</ele><time>2026-04-04T09:39:29.444Z</time></trkpt><trkpt lat="43.6538983" lon="2.9040783"><ele>1094.0</ele><time>2026-04-04T09:39:30.444Z</time></trkpt><trkpt lat="43.6538733" lon="2.9038467"><ele>1094.0</ele><time>2026-04-04T09:39:31.444Z</time></trkpt><trkpt lat="43.6538467" lon="2.9036217"><ele>1094.0</ele><time>2026-04-04T09:39:32.443Z</time></trkpt><trkpt lat="43.6538317" lon="2.903425"><ele>1094.0</ele><time>2026-04-04T09:39:33.446Z</time></trkpt><trkpt lat="43.6538367" lon="2.90324"><ele>1094.0</ele><time>2026-04-04T09:39:34.443Z</time></trkpt><trkpt lat="43.65393" lon="2.902895"><ele>1094.0</ele><time>2026-04-04T09:39:36.443Z</time></trkpt><trkpt lat="43.6540167" lon="2.9026967"><ele>1094.0</ele><time>2026-04-04T09:39:37.445Z</time></trkpt><trkpt lat="43.6541117" lon="2.9025033"><ele>1094.0</ele><time>2026-04-04T09:39:38.447Z</time></trkpt><trkpt lat="43.654205" lon="2.9023"><ele>1094.0</ele><time>2026-04-04T09:39:39.443Z</time></trkpt><trkpt lat="43.6543017" lon="2.902095"><ele>1094.0</ele><time>2026-04-04T09:39:40.443Z</time></trkpt><trkpt lat="43.654405" lon="2.9018717"><ele>1094.0</ele><time>2026-04-04T09:39:41.443Z</time></trkpt><trkpt lat="43.654505" lon="2.9016517"><ele>1094.0</ele><time>2026-04-04T09:39:42.444Z</time></trkpt><trkpt lat="43.65459" lon="2.901415"><ele>1093.0</ele><time>2026-04-04T09:39:43.444Z</time></trkpt><trkpt lat="43.6546583" lon="2.9011633"><ele>1092.0</ele><time>2026-04-04T09:39:44.443Z</time></trkpt><trkpt lat="43.654695" lon="2.9009017"><ele>1091.0</ele><time>2026-04-04T09:39:45.443Z</time></trkpt><trkpt lat="43.654715" lon="2.9006317"><ele>1091.0</ele><time>2026-04-04T09:39:46.447Z</time></trkpt><trkpt lat="43.6547417" lon="2.9003567"><ele>1091.0</ele><time>2026-04-04T09:39:47.443Z</time></trkpt><trkpt lat="43.6547617" lon="2.9000983"><ele>1091.0</ele><time>2026-04-04T09:39:48.444Z</time></trkpt><trkpt lat="43.6547883" lon="2.8998417"><ele>1091.6666666666667</ele><time>2026-04-04T09:39:49.444Z</time></trkpt><trkpt lat="43.6548183" lon="2.8995783"><ele>1092.3333333333333</ele><time>2026-04-04T09:39:50.443Z</time></trkpt><trkpt lat="43.6548517" lon="2.8993233"><ele>1093.0</ele><time>2026-04-04T09:39:51.444Z</time></trkpt><trkpt lat="43.65489" lon="2.8990717"><ele>1093.6666666666665</ele><time>2026-04-04T09:39:52.443Z</time></trkpt><trkpt lat="43.6549367" lon="2.8988383"><ele>1094.3333333333333</ele><time>2026-04-04T09:39:53.443Z</time></trkpt><trkpt lat="43.65498" lon="2.8986117"><ele>1095.0</ele><time>2026-04-04T09:39:54.444Z</time></trkpt><trkpt lat="43.65501" lon="2.8983717"><ele>1097.5</ele><time>2026-04-04T09:39:55.444Z</time></trkpt><trkpt lat="43.655" lon="2.8978967"><ele>1100.0</ele><time>2026-04-04T09:39:57.443Z</time></trkpt><trkpt lat="43.6549533" lon="2.89768"><ele>1101.0</ele><time>2026-04-04T09:39:58.447Z</time></trkpt><trkpt lat="43.6549017" lon="2.8974733"><ele>1102.0</ele><time>2026-04-04T09:39:59.447Z</time></trkpt><trkpt lat="43.65485" lon="2.89727"><ele>1103.0</ele><time>2026-04-04T09:40:00.446Z</time></trkpt><trkpt lat="43.6547983" lon="2.8970733"><ele>1103.0</ele><time>2026-04-04T09:40:01.443Z</time></trkpt><trkpt lat="43.6547367" lon="2.8968883"><ele>1103.0</ele><time>2026-04-04T09:40:02.443Z</time></trkpt><trkpt lat="43.6546683" lon="2.8967017"><ele>1103.0</ele><time>2026-04-04T09:40:03.444Z</time></trkpt><trkpt lat="43.654585" lon="2.8965267"><ele>1103.0</ele><time>2026-04-04T09:40:04.443Z</time></trkpt><trkpt lat="43.6544867" lon="2.8963683"><ele>1103.0</ele><time>2026-04-04T09:40:05.443Z</time></trkpt><trkpt lat="43.6543917" lon="2.8962217"><ele>1103.0</ele><time>2026-04-04T09:40:06.443Z</time></trkpt><trkpt lat="43.6543183" lon="2.8960767"><ele>1103.0</ele><time>2026-04-04T09:40:07.448Z</time></trkpt><trkpt lat="43.654265" lon="2.89592"><ele>1101.75</ele><time>2026-04-04T09:40:08.444Z</time></trkpt><trkpt lat="43.654225" lon="2.8957517"><ele>1100.5</ele><time>2026-04-04T09:40:09.445Z</time></trkpt><trkpt lat="43.65421" lon="2.89557"><ele>1099.25</ele><time>2026-04-04T09:40:10.445Z</time></trkpt><trkpt lat="43.6542083" lon="2.8953717"><ele>1098.0</ele><time>2026-04-04T09:40:11.445Z</time></trkpt><trkpt lat="43.6542267" lon="2.8951483"><ele>1096.25</ele><time>2026-04-04T09:40:12.444Z</time></trkpt><trkpt lat="43.654235" lon="2.8949367"><ele>1094.5</ele><time>2026-04-04T09:40:13.446Z</time></trkpt><trkpt lat="43.6542467" lon="2.8947317"><ele>1092.75</ele><time>2026-04-04T09:40:14.445Z</time></trkpt><trkpt lat="43.6542583" lon="2.894555"><ele>1091.0</ele><time>2026-04-04T09:40:15.445Z</time></trkpt><trkpt lat="43.6542733" lon="2.8943783"><ele>1090.3333333333335</ele><time>2026-04-04T09:40:16.444Z</time></trkpt><trkpt lat="43.654375" lon="2.89404"><ele>1089.6666666666667</ele><time>2026-04-04T09:40:18.445Z</time></trkpt><trkpt lat="43.65447" lon="2.89388"><ele>1089.0</ele><time>2026-04-04T09:40:19.444Z</time></trkpt><trkpt lat="43.65458" lon="2.8937017"><ele>1089.0</ele><time>2026-04-04T09:40:20.444Z</time></trkpt><trkpt lat="43.6546917" lon="2.89353"><ele>1089.0</ele><time>2026-04-04T09:40:21.444Z</time></trkpt><trkpt lat="43.6548133" lon="2.8933483"><ele>1089.0</ele><time>2026-04-04T09:40:22.444Z</time></trkpt><trkpt lat="43.6549433" lon="2.8931667"><ele>1089.0</ele><time>2026-04-04T09:40:23.445Z</time></trkpt><trkpt lat="43.6550867" lon="2.892995"><ele>1089.0</ele><time>2026-04-04T09:40:24.444Z</time></trkpt><trkpt lat="43.6552433" lon="2.892845"><ele>1089.0</ele><time>2026-04-04T09:40:25.444Z</time></trkpt><trkpt lat="43.6553867" lon="2.8927233"><ele>1089.6666666666667</ele><time>2026-04-04T09:40:26.444Z</time></trkpt><trkpt lat="43.6555333" lon="2.89261"><ele>1090.3333333333335</ele><time>2026-04-04T09:40:27.445Z</time></trkpt><trkpt lat="43.655685" lon="2.8924783"><ele>1091.0</ele><time>2026-04-04T09:40:28.444Z</time></trkpt><trkpt lat="43.6558117" lon="2.892335"><ele>1091.0</ele><time>2026-04-04T09:40:29.444Z</time></trkpt><trkpt lat="43.6559317" lon="2.8921633"><ele>1091.0</ele><time>2026-04-04T09:40:30.444Z</time></trkpt><trkpt lat="43.6560517" lon="2.89196"><ele>1091.0</ele><time>2026-04-04T09:40:31.445Z</time></trkpt><trkpt lat="43.6561467" lon="2.89176"><ele>1091.3333333333335</ele><time>2026-04-04T09:40:32.445Z</time></trkpt><trkpt lat="43.6562383" lon="2.8915417"><ele>1091.6666666666667</ele><time>2026-04-04T09:40:33.444Z</time></trkpt><trkpt lat="43.6563333" lon="2.89132"><ele>1092.0</ele><time>2026-04-04T09:40:34.446Z</time></trkpt><trkpt lat="43.65644" lon="2.8910967"><ele>1093.0</ele><time>2026-04-04T09:40:35.444Z</time></trkpt><trkpt lat="43.6565467" lon="2.8908733"><ele>1094.0</ele><time>2026-04-04T09:40:36.445Z</time></trkpt><trkpt lat="43.6566433" lon="2.8906533"><ele>1095.0</ele><time>2026-04-04T09:40:37.444Z</time></trkpt><trkpt lat="43.6568383" lon="2.8901983"><ele>1096.0</ele><time>2026-04-04T09:40:39.444Z</time></trkpt><trkpt lat="43.65694" lon="2.8899883"><ele>1097.0</ele><time>2026-04-04T09:40:40.445Z</time></trkpt><trkpt lat="43.6570433" lon="2.889785"><ele>1098.0</ele><time>2026-04-04T09:40:41.444Z</time></trkpt><trkpt lat="43.657135" lon="2.8896083"><ele>1098.25</ele><time>2026-04-04T09:40:42.445Z</time></trkpt><trkpt lat="43.65722" lon="2.8894617"><ele>1098.5</ele><time>2026-04-04T09:40:43.444Z</time></trkpt><trkpt lat="43.657305" lon="2.8893333"><ele>1098.75</ele><time>2026-04-04T09:40:44.444Z</time></trkpt><trkpt lat="43.657395" lon="2.88921"><ele>1099.0</ele><time>2026-04-04T09:40:45.445Z</time></trkpt><trkpt lat="43.6574767" lon="2.8890883"><ele>1099.5</ele><time>2026-04-04T09:40:46.444Z</time></trkpt><trkpt lat="43.6575467" lon="2.8889867"><ele>1100.0</ele><time>2026-04-04T09:40:47.444Z</time></trkpt><trkpt lat="43.6576033" lon="2.888895"><ele>1100.5</ele><time>2026-04-04T09:40:48.444Z</time></trkpt><trkpt lat="43.6576483" lon="2.888805"><ele>1101.0</ele><time>2026-04-04T09:40:49.445Z</time></trkpt><trkpt lat="43.6576783" lon="2.8887283"><ele>1101.5</ele><time>2026-04-04T09:40:50.445Z</time></trkpt><trkpt lat="43.657695" lon="2.8886067"><ele>1102.0</ele><time>2026-04-04T09:40:52.445Z</time></trkpt><trkpt lat="43.6576317" lon="2.888695"><ele>1102.0</ele><time>2026-04-04T09:40:56.444Z</time></trkpt><trkpt lat="43.6576167" lon="2.888795"><ele>1102.0</ele><time>2026-04-04T09:40:57.444Z</time></trkpt><trkpt lat="43.657585" lon="2.8889217"><ele>1102.0</ele><time>2026-04-04T09:40:58.446Z</time></trkpt><trkpt lat="43.6574617" lon="2.8891817"><ele>1102.0</ele><time>2026-04-04T09:41:00.444Z</time></trkpt><trkpt lat="43.6573683" lon="2.88931"><ele>1101.25</ele><time>2026-04-04T09:41:01.444Z</time></trkpt><trkpt lat="43.657285" lon="2.8894583"><ele>1100.5</ele><time>2026-04-04T09:41:02.444Z</time></trkpt><trkpt lat="43.6572017" lon="2.8895933"><ele>1099.75</ele><time>2026-04-04T09:41:03.444Z</time></trkpt><trkpt lat="43.6571333" lon="2.889725"><ele>1099.0</ele><time>2026-04-04T09:41:04.443Z</time></trkpt><trkpt lat="43.6571083" lon="2.88982"><ele>1099.0</ele><time>2026-04-04T09:41:05.444Z</time></trkpt><trkpt lat="43.6570883" lon="2.8899067"><ele>1099.0</ele><time>2026-04-04T09:41:06.447Z</time></trkpt><trkpt lat="43.6571117" lon="2.8899983"><ele>1099.0</ele><time>2026-04-04T09:41:08.443Z</time></trkpt><trkpt lat="43.65719" lon="2.8900617"><ele>1099.0</ele><time>2026-04-04T09:41:10.444Z</time></trkpt><trkpt lat="43.657315" lon="2.8900183"><ele>1099.0</ele><time>2026-04-04T09:41:11.445Z</time></trkpt><trkpt lat="43.657465" lon="2.8899367"><ele>1099.0</ele><time>2026-04-04T09:41:12.443Z</time></trkpt><trkpt lat="43.6575733" lon="2.88988"><ele>1099.0</ele><time>2026-04-04T09:41:13.445Z</time></trkpt><trkpt lat="43.6576583" lon="2.8898383"><ele>1099.0</ele><time>2026-04-04T09:41:14.442Z</time></trkpt><trkpt lat="43.65779" lon="2.889755"><ele>1099.0</ele><time>2026-04-04T09:41:15.443Z</time></trkpt><trkpt lat="43.6578883" lon="2.8896833"><ele>1099.2</ele><time>2026-04-04T09:41:16.444Z</time></trkpt><trkpt lat="43.65797" lon="2.8896067"><ele>1099.4</ele><time>2026-04-04T09:41:17.443Z</time></trkpt><trkpt lat="43.6580383" lon="2.8895267"><ele>1099.6</ele><time>2026-04-04T09:41:18.443Z</time></trkpt><trkpt lat="43.65807" lon="2.88944"><ele>1099.8</ele><time>2026-04-04T09:41:19.443Z</time></trkpt><trkpt lat="43.658115" lon="2.8892117"><ele>1100.0</ele><time>2026-04-04T09:41:21.443Z</time></trkpt><trkpt lat="43.658135" lon="2.8891017"><ele>1101.0</ele><time>2026-04-04T09:41:22.444Z</time></trkpt><trkpt lat="43.658155" lon="2.8889683"><ele>1102.0</ele><time>2026-04-04T09:41:23.443Z</time></trkpt><trkpt lat="43.6581833" lon="2.88882"><ele>1103.0</ele><time>2026-04-04T09:41:24.445Z</time></trkpt><trkpt lat="43.658235" lon="2.8886483"><ele>1104.0</ele><time>2026-04-04T09:41:25.443Z</time></trkpt><trkpt lat="43.658295" lon="2.888485"><ele>1104.6666666666667</ele><time>2026-04-04T09:41:26.443Z</time></trkpt><trkpt lat="43.658355" lon="2.888305"><ele>1105.3333333333335</ele><time>2026-04-04T09:41:27.443Z</time></trkpt><trkpt lat="43.658425" lon="2.8881117"><ele>1106.0</ele><time>2026-04-04T09:41:28.443Z</time></trkpt><trkpt lat="43.6585" lon="2.8879233"><ele>1106.0</ele><time>2026-04-04T09:41:29.443Z</time></trkpt><trkpt lat="43.65857" lon="2.8877317"><ele>1106.0</ele><time>2026-04-04T09:41:30.444Z</time></trkpt><trkpt lat="43.6586583" lon="2.8874967"><ele>1106.0</ele><time>2026-04-04T09:41:31.444Z</time></trkpt><trkpt lat="43.6587417" lon="2.8872767"><ele>1105.0</ele><time>2026-04-04T09:41:32.443Z</time></trkpt><trkpt lat="43.6588283" lon="2.887065"><ele>1104.0</ele><time>2026-04-04T09:41:33.443Z</time></trkpt><trkpt lat="43.658905" lon="2.8868483"><ele>1103.0</ele><time>2026-04-04T09:41:34.444Z</time></trkpt><trkpt lat="43.6589817" lon="2.8866417"><ele>1105.3333333333335</ele><time>2026-04-04T09:41:35.443Z</time></trkpt><trkpt lat="43.6590583" lon="2.88644"><ele>1107.6666666666667</ele><time>2026-04-04T09:41:36.443Z</time></trkpt><trkpt lat="43.6591417" lon="2.8862417"><ele>1110.0</ele><time>2026-04-04T09:41:37.443Z</time></trkpt><trkpt lat="43.6592367" lon="2.8860367"><ele>1110.3333333333333</ele><time>2026-04-04T09:41:38.442Z</time></trkpt><trkpt lat="43.6593267" lon="2.885885"><ele>1110.6666666666665</ele><time>2026-04-04T09:41:39.444Z</time></trkpt><trkpt lat="43.6594167" lon="2.88576"><ele>1111.0</ele><time>2026-04-04T09:41:40.443Z</time></trkpt><trkpt lat="43.6596417" lon="2.8855333"><ele>1111.0</ele><time>2026-04-04T09:41:42.443Z</time></trkpt><trkpt lat="43.65977" lon="2.885435"><ele>1111.0</ele><time>2026-04-04T09:41:43.444Z</time></trkpt><trkpt lat="43.6599233" lon="2.8853067"><ele>1111.0</ele><time>2026-04-04T09:41:44.443Z</time></trkpt><trkpt lat="43.660085" lon="2.8851767"><ele>1110.5</ele><time>2026-04-04T09:41:45.444Z</time></trkpt><trkpt lat="43.6602183" lon="2.8850767"><ele>1110.0</ele><time>2026-04-04T09:41:46.444Z</time></trkpt><trkpt lat="43.6603433" lon="2.8849983"><ele>1109.5</ele><time>2026-04-04T09:41:47.443Z</time></trkpt><trkpt lat="43.66047" lon="2.8849283"><ele>1109.0</ele><time>2026-04-04T09:41:48.443Z</time></trkpt><trkpt lat="43.6605933" lon="2.88485"><ele>1109.0</ele><time>2026-04-04T09:41:49.446Z</time></trkpt><trkpt lat="43.6607133" lon="2.8847583"><ele>1109.0</ele><time>2026-04-04T09:41:50.442Z</time></trkpt><trkpt lat="43.6608317" lon="2.8846517"><ele>1109.0</ele><time>2026-04-04T09:41:51.443Z</time></trkpt><trkpt lat="43.66096" lon="2.8845467"><ele>1109.0</ele><time>2026-04-04T09:41:52.444Z</time></trkpt><trkpt lat="43.661115" lon="2.8844383"><ele>1108.75</ele><time>2026-04-04T09:41:53.443Z</time></trkpt><trkpt lat="43.6612467" lon="2.8843533"><ele>1108.5</ele><time>2026-04-04T09:41:54.447Z</time></trkpt><trkpt lat="43.6613617" lon="2.8842767"><ele>1108.25</ele><time>2026-04-04T09:41:55.446Z</time></trkpt><trkpt lat="43.6614717" lon="2.884185"><ele>1108.0</ele><time>2026-04-04T09:41:56.445Z</time></trkpt><trkpt lat="43.6615833" lon="2.8840633"><ele>1108.0</ele><time>2026-04-04T09:41:57.443Z</time></trkpt><trkpt lat="43.6616817" lon="2.8839317"><ele>1108.0</ele><time>2026-04-04T09:41:58.447Z</time></trkpt><trkpt lat="43.6617483" lon="2.8838083"><ele>1108.0</ele><time>2026-04-04T09:41:59.445Z</time></trkpt><trkpt lat="43.6617833" lon="2.8836983"><ele>1108.0</ele><time>2026-04-04T09:42:00.446Z</time></trkpt><trkpt lat="43.6617967" lon="2.883585"><ele>1108.0</ele><time>2026-04-04T09:42:01.444Z</time></trkpt><trkpt lat="43.6617917" lon="2.8833133"><ele>1108.0</ele><time>2026-04-04T09:42:03.446Z</time></trkpt><trkpt lat="43.66178" lon="2.8831617"><ele>1108.0</ele><time>2026-04-04T09:42:04.447Z</time></trkpt><trkpt lat="43.66177" lon="2.8830383"><ele>1108.0</ele><time>2026-04-04T09:42:05.444Z</time></trkpt><trkpt lat="43.6617683" lon="2.8829167"><ele>1108.0</ele><time>2026-04-04T09:42:06.443Z</time></trkpt><trkpt lat="43.6617767" lon="2.8827983"><ele>1108.0</ele><time>2026-04-04T09:42:07.443Z</time></trkpt><trkpt lat="43.6617883" lon="2.8826933"><ele>1107.8333333333333</ele><time>2026-04-04T09:42:08.442Z</time></trkpt><trkpt lat="43.661815" lon="2.8825917"><ele>1107.6666666666665</ele><time>2026-04-04T09:42:09.443Z</time></trkpt><trkpt lat="43.66184" lon="2.8825"><ele>1107.5</ele><time>2026-04-04T09:42:10.443Z</time></trkpt><trkpt lat="43.6618833" lon="2.8824033"><ele>1107.3333333333333</ele><time>2026-04-04T09:42:11.443Z</time></trkpt><trkpt lat="43.661935" lon="2.8823"><ele>1107.1666666666667</ele><time>2026-04-04T09:42:12.444Z</time></trkpt><trkpt lat="43.6619817" lon="2.8821883"><ele>1107.0</ele><time>2026-04-04T09:42:13.443Z</time></trkpt><trkpt lat="43.66202" lon="2.8820817"><ele>1104.5</ele><time>2026-04-04T09:42:14.443Z</time></trkpt><trkpt lat="43.66206" lon="2.88196"><ele>1102.0</ele><time>2026-04-04T09:42:15.444Z</time></trkpt><trkpt lat="43.6620833" lon="2.8818383"><ele>1099.5</ele><time>2026-04-04T09:42:16.443Z</time></trkpt><trkpt lat="43.6620917" lon="2.8817383"><ele>1097.0</ele><time>2026-04-04T09:42:17.443Z</time></trkpt><trkpt lat="43.6620983" lon="2.88163"><ele>1094.5</ele><time>2026-04-04T09:42:18.443Z</time></trkpt><trkpt lat="43.6620833" lon="2.8815233"><ele>1092.0</ele><time>2026-04-04T09:42:19.444Z</time></trkpt><trkpt lat="43.6620633" lon="2.8813983"><ele>1092.0</ele><time>2026-04-04T09:42:20.443Z</time></trkpt><trkpt lat="43.6620317" lon="2.8812667"><ele>1092.0</ele><time>2026-04-04T09:42:21.443Z</time></trkpt><trkpt lat="43.6620083" lon="2.88113"><ele>1092.0</ele><time>2026-04-04T09:42:22.443Z</time></trkpt><trkpt lat="43.6619433" lon="2.8808983"><ele>1092.0</ele><time>2026-04-04T09:42:24.443Z</time></trkpt><trkpt lat="43.6618967" lon="2.8807633"><ele>1093.75</ele><time>2026-04-04T09:42:25.444Z</time></trkpt><trkpt lat="43.661845" lon="2.88063"><ele>1095.5</ele><time>2026-04-04T09:42:26.442Z</time></trkpt><trkpt lat="43.66179" lon="2.8804833"><ele>1097.25</ele><time>2026-04-04T09:42:27.443Z</time></trkpt><trkpt lat="43.6617317" lon="2.8803383"><ele>1099.0</ele><time>2026-04-04T09:42:28.445Z</time></trkpt><trkpt lat="43.6616833" lon="2.8802"><ele>1098.5</ele><time>2026-04-04T09:42:29.444Z</time></trkpt><trkpt lat="43.6616383" lon="2.8800867"><ele>1098.0</ele><time>2026-04-04T09:42:30.444Z</time></trkpt><trkpt lat="43.6616133" lon="2.8799667"><ele>1097.5</ele><time>2026-04-04T09:42:31.443Z</time></trkpt><trkpt lat="43.6615867" lon="2.8798667"><ele>1097.0</ele><time>2026-04-04T09:42:32.444Z</time></trkpt><trkpt lat="43.6615833" lon="2.8797767"><ele>1096.5</ele><time>2026-04-04T09:42:33.444Z</time></trkpt><trkpt lat="43.6616117" lon="2.8796217"><ele>1096.0</ele><time>2026-04-04T09:42:35.445Z</time></trkpt><trkpt lat="43.66165" lon="2.8795467"><ele>1096.0</ele><time>2026-04-04T09:42:36.445Z</time></trkpt><trkpt lat="43.6617" lon="2.8794917"><ele>1096.0</ele><time>2026-04-04T09:42:37.445Z</time></trkpt><trkpt lat="43.66177" lon="2.8794083"><ele>1096.0</ele><time>2026-04-04T09:42:38.444Z</time></trkpt><trkpt lat="43.66189" lon="2.8793217"><ele>1096.0</ele><time>2026-04-04T09:42:39.443Z</time></trkpt><trkpt lat="43.6620083" lon="2.8792517"><ele>1096.0</ele><time>2026-04-04T09:42:40.444Z</time></trkpt><trkpt lat="43.66207" lon="2.87918"><ele>1092.5</ele><time>2026-04-04T09:42:41.445Z</time></trkpt><trkpt lat="43.6621633" lon="2.8790483"><ele>1089.0</ele><time>2026-04-04T09:42:42.444Z</time></trkpt><trkpt lat="43.662245" lon="2.878985"><ele>1085.5</ele><time>2026-04-04T09:42:43.444Z</time></trkpt><trkpt lat="43.6624017" lon="2.8789317"><ele>1082.0</ele><time>2026-04-04T09:42:45.444Z</time></trkpt><trkpt lat="43.6624733" lon="2.878875"><ele>1082.0</ele><time>2026-04-04T09:42:46.445Z</time></trkpt><trkpt lat="43.6625467" lon="2.8788133"><ele>1082.0</ele><time>2026-04-04T09:42:47.444Z</time></trkpt><trkpt lat="43.6626233" lon="2.8787467"><ele>1082.0</ele><time>2026-04-04T09:42:48.445Z</time></trkpt><trkpt lat="43.662695" lon="2.8786883"><ele>1082.0</ele><time>2026-04-04T09:42:49.444Z</time></trkpt><trkpt lat="43.662765" lon="2.878645"><ele>1082.0</ele><time>2026-04-04T09:42:50.445Z</time></trkpt><trkpt lat="43.6628467" lon="2.87861"><ele>1082.0</ele><time>2026-04-04T09:42:51.444Z</time></trkpt><trkpt lat="43.6629367" lon="2.8786067"><ele>1078.6</ele><time>2026-04-04T09:42:52.445Z</time></trkpt><trkpt lat="43.6630267" lon="2.878585"><ele>1075.2</ele><time>2026-04-04T09:42:53.444Z</time></trkpt><trkpt lat="43.663145" lon="2.8785717"><ele>1071.8</ele><time>2026-04-04T09:42:54.444Z</time></trkpt><trkpt lat="43.66324" lon="2.87856"><ele>1068.4</ele><time>2026-04-04T09:42:55.445Z</time></trkpt><trkpt lat="43.6633417" lon="2.8785583"><ele>1065.0</ele><time>2026-04-04T09:42:56.444Z</time></trkpt><trkpt lat="43.6634333" lon="2.8785667"><ele>1065.0</ele><time>2026-04-04T09:42:57.445Z</time></trkpt><trkpt lat="43.6635217" lon="2.87859"><ele>1065.0</ele><time>2026-04-04T09:42:58.445Z</time></trkpt><trkpt lat="43.6636367" lon="2.8786"><ele>1065.0</ele><time>2026-04-04T09:42:59.444Z</time></trkpt><trkpt lat="43.6637433" lon="2.8786317"><ele>1065.0</ele><time>2026-04-04T09:43:00.444Z</time></trkpt><trkpt lat="43.6638433" lon="2.8786533"><ele>1065.0</ele><time>2026-04-04T09:43:01.444Z</time></trkpt><trkpt lat="43.6639267" lon="2.8786717"><ele>1065.4</ele><time>2026-04-04T09:43:02.443Z</time></trkpt><trkpt lat="43.664015" lon="2.87867"><ele>1065.8</ele><time>2026-04-04T09:43:03.444Z</time></trkpt><trkpt lat="43.6640917" lon="2.8786767"><ele>1066.2</ele><time>2026-04-04T09:43:04.445Z</time></trkpt><trkpt lat="43.6642417" lon="2.8786883"><ele>1066.6</ele><time>2026-04-04T09:43:06.444Z</time></trkpt><trkpt lat="43.6643217" lon="2.8786933"><ele>1067.0</ele><time>2026-04-04T09:43:07.447Z</time></trkpt><trkpt lat="43.6644" lon="2.878695"><ele>1068.2</ele><time>2026-04-04T09:43:08.443Z</time></trkpt><trkpt lat="43.6644967" lon="2.8786717"><ele>1069.4</ele><time>2026-04-04T09:43:09.444Z</time></trkpt><trkpt lat="43.6645833" lon="2.87866"><ele>1070.6</ele><time>2026-04-04T09:43:10.443Z</time></trkpt><trkpt lat="43.6647033" lon="2.878645"><ele>1071.8</ele><time>2026-04-04T09:43:11.444Z</time></trkpt><trkpt lat="43.6648133" lon="2.87861"><ele>1073.0</ele><time>2026-04-04T09:43:12.445Z</time></trkpt><trkpt lat="43.6649233" lon="2.87857"><ele>1073.0</ele><time>2026-04-04T09:43:13.444Z</time></trkpt><trkpt lat="43.6650267" lon="2.8785417"><ele>1073.0</ele><time>2026-04-04T09:43:14.444Z</time></trkpt><trkpt lat="43.6651383" lon="2.87852"><ele>1073.0</ele><time>2026-04-04T09:43:15.444Z</time></trkpt><trkpt lat="43.6652283" lon="2.8785133"><ele>1073.0</ele><time>2026-04-04T09:43:16.445Z</time></trkpt><trkpt lat="43.665335" lon="2.8785017"><ele>1073.0</ele><time>2026-04-04T09:43:17.444Z</time></trkpt><trkpt lat="43.6654383" lon="2.8785033"><ele>1073.75</ele><time>2026-04-04T09:43:18.444Z</time></trkpt><trkpt lat="43.6655467" lon="2.8785233"><ele>1074.5</ele><time>2026-04-04T09:43:19.443Z</time></trkpt><trkpt lat="43.6656633" lon="2.8785317"><ele>1075.25</ele><time>2026-04-04T09:43:20.444Z</time></trkpt><trkpt lat="43.6657867" lon="2.8785467"><ele>1076.0</ele><time>2026-04-04T09:43:21.445Z</time></trkpt><trkpt lat="43.6659117" lon="2.8785617"><ele>1076.0</ele><time>2026-04-04T09:43:22.444Z</time></trkpt><trkpt lat="43.6660417" lon="2.8785717"><ele>1076.0</ele><time>2026-04-04T09:43:23.444Z</time></trkpt><trkpt lat="43.6661667" lon="2.8785867"><ele>1076.0</ele><time>2026-04-04T09:43:24.443Z</time></trkpt><trkpt lat="43.6662717" lon="2.8785867"><ele>1076.0</ele><time>2026-04-04T09:43:25.444Z</time></trkpt><trkpt lat="43.6665233" lon="2.8786317"><ele>1075.6</ele><time>2026-04-04T09:43:27.444Z</time></trkpt><trkpt lat="43.6666117" lon="2.8786717"><ele>1075.1999999999998</ele><time>2026-04-04T09:43:28.443Z</time></trkpt><trkpt lat="43.666685" lon="2.8787033"><ele>1074.8000000000002</ele><time>2026-04-04T09:43:29.444Z</time></trkpt><trkpt lat="43.6667617" lon="2.87872"><ele>1074.4</ele><time>2026-04-04T09:43:30.444Z</time></trkpt><trkpt lat="43.666855" lon="2.8787633"><ele>1074.0</ele><time>2026-04-04T09:43:32.445Z</time></trkpt><trkpt lat="43.6669683" lon="2.87885"><ele>1072.8</ele><time>2026-04-04T09:43:34.444Z</time></trkpt><trkpt lat="43.6670467" lon="2.8789383"><ele>1071.6000000000001</ele><time>2026-04-04T09:43:36.444Z</time></trkpt><trkpt lat="43.6670967" lon="2.8790067"><ele>1070.4</ele><time>2026-04-04T09:43:37.445Z</time></trkpt><trkpt lat="43.66716" lon="2.87907"><ele>1069.2</ele><time>2026-04-04T09:43:38.444Z</time></trkpt><trkpt lat="43.6672733" lon="2.8791233"><ele>1068.0</ele><time>2026-04-04T09:43:39.444Z</time></trkpt><trkpt lat="43.66739" lon="2.8791983"><ele>1067.4</ele><time>2026-04-04T09:43:40.443Z</time></trkpt><trkpt lat="43.6674617" lon="2.8792817"><ele>1066.8</ele><time>2026-04-04T09:43:41.444Z</time></trkpt><trkpt lat="43.6675383" lon="2.8793633"><ele>1066.2</ele><time>2026-04-04T09:43:42.444Z</time></trkpt><trkpt lat="43.6676117" lon="2.8794483"><ele>1065.6</ele><time>2026-04-04T09:43:43.443Z</time></trkpt><trkpt lat="43.6676783" lon="2.8795317"><ele>1065.0</ele><time>2026-04-04T09:43:44.445Z</time></trkpt><trkpt lat="43.6677317" lon="2.87961"><ele>1064.0</ele><time>2026-04-04T09:43:45.443Z</time></trkpt><trkpt lat="43.6677817" lon="2.8796917"><ele>1063.0</ele><time>2026-04-04T09:43:46.444Z</time></trkpt><trkpt lat="43.6678933" lon="2.87985"><ele>1062.0</ele><time>2026-04-04T09:43:48.445Z</time></trkpt><trkpt lat="43.66794" lon="2.87992"><ele>1061.0</ele><time>2026-04-04T09:43:49.445Z</time></trkpt><trkpt lat="43.668005" lon="2.8799583"><ele>1060.0</ele><time>2026-04-04T09:43:50.445Z</time></trkpt><trkpt lat="43.66811" lon="2.87998"><ele>1060.0</ele><time>2026-04-04T09:43:51.445Z</time></trkpt><trkpt lat="43.6683217" lon="2.8799367"><ele>1060.0</ele><time>2026-04-04T09:43:52.445Z</time></trkpt><trkpt lat="43.668445" lon="2.8799617"><ele>1060.0</ele><time>2026-04-04T09:43:53.445Z</time></trkpt><trkpt lat="43.6685883" lon="2.8799617"><ele>1057.6</ele><time>2026-04-04T09:43:54.444Z</time></trkpt><trkpt lat="43.6686667" lon="2.8799633"><ele>1055.2</ele><time>2026-04-04T09:43:55.443Z</time></trkpt><trkpt lat="43.66874" lon="2.8799217"><ele>1052.8</ele><time>2026-04-04T09:43:56.443Z</time></trkpt><trkpt lat="43.66883" lon="2.8798267"><ele>1050.4</ele><time>2026-04-04T09:43:58.444Z</time></trkpt><trkpt lat="43.6688283" lon="2.8797083"><ele>1048.0</ele><time>2026-04-04T09:44:00.444Z</time></trkpt><trkpt lat="43.66887" lon="2.8795733"><ele>1048.0</ele><time>2026-04-04T09:44:02.445Z</time></trkpt><trkpt lat="43.66893" lon="2.8794517"><ele>1048.0</ele><time>2026-04-04T09:44:04.443Z</time></trkpt><trkpt lat="43.6689783" lon="2.8793667"><ele>1048.0</ele><time>2026-04-04T09:44:05.443Z</time></trkpt><trkpt lat="43.6690583" lon="2.8792517"><ele>1048.0</ele><time>2026-04-04T09:44:06.443Z</time></trkpt><trkpt lat="43.66913" lon="2.8791583"><ele>1048.0</ele><time>2026-04-04T09:44:07.443Z</time></trkpt><trkpt lat="43.6692417" lon="2.8789917"><ele>1048.3333333333333</ele><time>2026-04-04T09:44:09.444Z</time></trkpt><trkpt lat="43.6692817" lon="2.87892"><ele>1048.6666666666665</ele><time>2026-04-04T09:44:10.444Z</time></trkpt><trkpt lat="43.669315" lon="2.878845"><ele>1049.0</ele><time>2026-04-04T09:44:11.444Z</time></trkpt><trkpt lat="43.6693517" lon="2.8787217"><ele>1049.3333333333333</ele><time>2026-04-04T09:44:13.443Z</time></trkpt><trkpt lat="43.6693733" lon="2.8785867"><ele>1049.6666666666667</ele><time>2026-04-04T09:44:15.443Z</time></trkpt><trkpt lat="43.6693583" lon="2.8784417"><ele>1050.0</ele><time>2026-04-04T09:44:17.444Z</time></trkpt><trkpt lat="43.6693683" lon="2.8782683"><ele>1049.0</ele><time>2026-04-04T09:44:19.444Z</time></trkpt><trkpt lat="43.6694067" lon="2.8781533"><ele>1048.0</ele><time>2026-04-04T09:44:21.443Z</time></trkpt><trkpt lat="43.66948" lon="2.878145"><ele>1047.0</ele><time>2026-04-04T09:44:24.444Z</time></trkpt><trkpt lat="43.6695633" lon="2.8781667"><ele>1046.0</ele><time>2026-04-04T09:44:25.444Z</time></trkpt><trkpt lat="43.669655" lon="2.8782083"><ele>1045.0</ele><time>2026-04-04T09:44:27.446Z</time></trkpt><trkpt lat="43.6697633" lon="2.8783083"><ele>1042.5</ele><time>2026-04-04T09:44:29.444Z</time></trkpt><trkpt lat="43.6698883" lon="2.8784617"><ele>1040.0</ele><time>2026-04-04T09:44:31.445Z</time></trkpt><trkpt lat="43.6699783" lon="2.87856"><ele>1037.5</ele><time>2026-04-04T09:44:32.445Z</time></trkpt><trkpt lat="43.6700583" lon="2.8786683"><ele>1035.0</ele><time>2026-04-04T09:44:33.444Z</time></trkpt><trkpt lat="43.670135" lon="2.8787733"><ele>1035.0</ele><time>2026-04-04T09:44:34.443Z</time></trkpt><trkpt lat="43.6702117" lon="2.8788817"><ele>1035.0</ele><time>2026-04-04T09:44:35.443Z</time></trkpt><trkpt lat="43.6702783" lon="2.8789783"><ele>1035.0</ele><time>2026-04-04T09:44:36.444Z</time></trkpt><trkpt lat="43.67034" lon="2.8790867"><ele>1035.0</ele><time>2026-04-04T09:44:37.443Z</time></trkpt><trkpt lat="43.6704083" lon="2.8792233"><ele>1035.0</ele><time>2026-04-04T09:44:38.443Z</time></trkpt><trkpt lat="43.670465" lon="2.8793433"><ele>1033.0</ele><time>2026-04-04T09:44:39.443Z</time></trkpt><trkpt lat="43.6705117" lon="2.8794617"><ele>1031.0</ele><time>2026-04-04T09:44:40.443Z</time></trkpt><trkpt lat="43.670545" lon="2.8795667"><ele>1029.0</ele><time>2026-04-04T09:44:41.445Z</time></trkpt><trkpt lat="43.67058" lon="2.8796667"><ele>1027.0</ele><time>2026-04-04T09:44:42.444Z</time></trkpt><trkpt lat="43.6706083" lon="2.87976"><ele>1025.0</ele><time>2026-04-04T09:44:43.444Z</time></trkpt><trkpt lat="43.670625" lon="2.8798583"><ele>1023.0</ele><time>2026-04-04T09:44:44.444Z</time></trkpt><trkpt lat="43.6706483" lon="2.8799833"><ele>1022.2</ele><time>2026-04-04T09:44:45.445Z</time></trkpt><trkpt lat="43.670665" lon="2.8801017"><ele>1021.4</ele><time>2026-04-04T09:44:46.444Z</time></trkpt><trkpt lat="43.6706833" lon="2.8802267"><ele>1020.6000000000001</ele><time>2026-04-04T09:44:47.443Z</time></trkpt><trkpt lat="43.6707183" lon="2.8803367"><ele>1019.8000000000001</ele><time>2026-04-04T09:44:48.444Z</time></trkpt><trkpt lat="43.67077" lon="2.88045"><ele>1019.0</ele><time>2026-04-04T09:44:49.443Z</time></trkpt><trkpt lat="43.6708267" lon="2.88056"><ele>1019.0</ele><time>2026-04-04T09:44:50.446Z</time></trkpt><trkpt lat="43.67094" lon="2.8807317"><ele>1019.0000000000001</ele><time>2026-04-04T09:44:52.444Z</time></trkpt><trkpt lat="43.671" lon="2.8808"><ele>1019.0000000000001</ele><time>2026-04-04T09:44:53.446Z</time></trkpt><trkpt lat="43.671035" lon="2.8809167"><ele>1019.0</ele><time>2026-04-04T09:44:54.443Z</time></trkpt><trkpt lat="43.6710833" lon="2.88098"><ele>1019.0</ele><time>2026-04-04T09:44:55.445Z</time></trkpt><trkpt lat="43.67117" lon="2.8810567"><ele>1017.6</ele><time>2026-04-04T09:44:57.443Z</time></trkpt><trkpt lat="43.671235" lon="2.8810183"><ele>1016.2</ele><time>2026-04-04T09:44:58.445Z</time></trkpt><trkpt lat="43.6711917" lon="2.8808467"><ele>1014.8000000000001</ele><time>2026-04-04T09:44:59.444Z</time></trkpt><trkpt lat="43.6712317" lon="2.8807433"><ele>1013.4000000000001</ele><time>2026-04-04T09:45:00.444Z</time></trkpt><trkpt lat="43.67132" lon="2.8805817"><ele>1012.0</ele><time>2026-04-04T09:45:01.445Z</time></trkpt><trkpt lat="43.6713733" lon="2.880495"><ele>1012.0</ele><time>2026-04-04T09:45:02.446Z</time></trkpt><trkpt lat="43.6714317" lon="2.8803917"><ele>1012.0</ele><time>2026-04-04T09:45:03.444Z</time></trkpt><trkpt lat="43.6715083" lon="2.8802633"><ele>1012.0</ele><time>2026-04-04T09:45:04.444Z</time></trkpt><trkpt lat="43.6716067" lon="2.88008"><ele>1012.0</ele><time>2026-04-04T09:45:05.444Z</time></trkpt><trkpt lat="43.6716917" lon="2.8799667"><ele>1012.75</ele><time>2026-04-04T09:45:06.443Z</time></trkpt><trkpt lat="43.67177" lon="2.8798633"><ele>1013.5</ele><time>2026-04-04T09:45:07.443Z</time></trkpt><trkpt lat="43.6718533" lon="2.8797667"><ele>1014.25</ele><time>2026-04-04T09:45:08.444Z</time></trkpt><trkpt lat="43.6719317" lon="2.879685"><ele>1015.0</ele><time>2026-04-04T09:45:09.443Z</time></trkpt><trkpt lat="43.6720583" lon="2.8795867"><ele>1011.3333333333333</ele><time>2026-04-04T09:45:10.444Z</time></trkpt><trkpt lat="43.672175" lon="2.879465"><ele>1007.6666666666667</ele><time>2026-04-04T09:45:11.443Z</time></trkpt><trkpt lat="43.6724033" lon="2.8792733"><ele>1004.0</ele><time>2026-04-04T09:45:13.444Z</time></trkpt><trkpt lat="43.6725333" lon="2.8791667"><ele>1003.75</ele><time>2026-04-04T09:45:14.444Z</time></trkpt><trkpt lat="43.6726617" lon="2.8790533"><ele>1003.5</ele><time>2026-04-04T09:45:15.443Z</time></trkpt><trkpt lat="43.67279" lon="2.8789533"><ele>1003.25</ele><time>2026-04-04T09:45:16.443Z</time></trkpt><trkpt lat="43.6729033" lon="2.87887"><ele>1003.0</ele><time>2026-04-04T09:45:17.445Z</time></trkpt><trkpt lat="43.6730067" lon="2.87879"><ele>1001.2</ele><time>2026-04-04T09:45:18.443Z</time></trkpt><trkpt lat="43.673105" lon="2.8787017"><ele>999.4</ele><time>2026-04-04T09:45:19.443Z</time></trkpt><trkpt lat="43.673175" lon="2.8786217"><ele>997.6000000000001</ele><time>2026-04-04T09:45:20.446Z</time></trkpt><trkpt lat="43.6732483" lon="2.8785467"><ele>995.8000000000001</ele><time>2026-04-04T09:45:21.446Z</time></trkpt><trkpt lat="43.6733067" lon="2.8784783"><ele>994.0</ele><time>2026-04-04T09:45:22.443Z</time></trkpt><trkpt lat="43.673415" lon="2.87832"><ele>993.6666666666666</ele><time>2026-04-04T09:45:24.443Z</time></trkpt><trkpt lat="43.673455" lon="2.8782183"><ele>993.3333333333333</ele><time>2026-04-04T09:45:26.445Z</time></trkpt><trkpt lat="43.673385" lon="2.8781767"><ele>993.0</ele><time>2026-04-04T09:45:28.444Z</time></trkpt><trkpt lat="43.6733133" lon="2.8781733"><ele>992.6666666666667</ele><time>2026-04-04T09:45:29.446Z</time></trkpt><trkpt lat="43.673225" lon="2.8781683"><ele>992.3333333333334</ele><time>2026-04-04T09:45:30.445Z</time></trkpt><trkpt lat="43.6731467" lon="2.878145"><ele>992.0</ele><time>2026-04-04T09:45:31.443Z</time></trkpt><trkpt lat="43.67307" lon="2.8781217"><ele>992.0</ele><time>2026-04-04T09:45:32.443Z</time></trkpt><trkpt lat="43.672895" lon="2.8780683"><ele>992.0</ele><time>2026-04-04T09:45:34.444Z</time></trkpt><trkpt lat="43.67282" lon="2.8780317"><ele>992.0</ele><time>2026-04-04T09:45:35.447Z</time></trkpt><trkpt lat="43.6727583" lon="2.8779883"><ele>992.0</ele><time>2026-04-04T09:45:36.446Z</time></trkpt><trkpt lat="43.6727" lon="2.8779417"><ele>992.0</ele><time>2026-04-04T09:45:37.446Z</time></trkpt><trkpt lat="43.6726283" lon="2.8778933"><ele>992.8</ele><time>2026-04-04T09:45:38.445Z</time></trkpt><trkpt lat="43.6725467" lon="2.87784"><ele>993.6</ele><time>2026-04-04T09:45:39.442Z</time></trkpt><trkpt lat="43.6724517" lon="2.8777833"><ele>994.3999999999999</ele><time>2026-04-04T09:45:40.443Z</time></trkpt><trkpt lat="43.6723367" lon="2.8777267"><ele>995.1999999999999</ele><time>2026-04-04T09:45:41.444Z</time></trkpt><trkpt lat="43.6722217" lon="2.8776733"><ele>996.0</ele><time>2026-04-04T09:45:42.443Z</time></trkpt><trkpt lat="43.6721317" lon="2.8776133"><ele>995.3333333333334</ele><time>2026-04-04T09:45:43.444Z</time></trkpt><trkpt lat="43.6720533" lon="2.8775333"><ele>994.6666666666667</ele><time>2026-04-04T09:45:44.442Z</time></trkpt><trkpt lat="43.67199" lon="2.8774217"><ele>994.0</ele><time>2026-04-04T09:45:45.443Z</time></trkpt><trkpt lat="43.671945" lon="2.8773083"><ele>993.3333333333334</ele><time>2026-04-04T09:45:46.443Z</time></trkpt><trkpt lat="43.671915" lon="2.8771933"><ele>992.6666666666667</ele><time>2026-04-04T09:45:47.443Z</time></trkpt><trkpt lat="43.6718967" lon="2.877105"><ele>992.0</ele><time>2026-04-04T09:45:48.443Z</time></trkpt><trkpt lat="43.6718983" lon="2.8769333"><ele>991.5</ele><time>2026-04-04T09:45:50.442Z</time></trkpt><trkpt lat="43.6719233" lon="2.8768167"><ele>991.0</ele><time>2026-04-04T09:45:51.444Z</time></trkpt><trkpt lat="43.6719767" lon="2.8766567"><ele>990.5</ele><time>2026-04-04T09:45:52.444Z</time></trkpt><trkpt lat="43.672025" lon="2.8764867"><ele>990.0</ele><time>2026-04-04T09:45:53.443Z</time></trkpt><trkpt lat="43.67215" lon="2.8760583"><ele>990.0</ele><time>2026-04-04T09:45:55.443Z</time></trkpt><trkpt lat="43.672195" lon="2.8758283"><ele>990.0</ele><time>2026-04-04T09:45:56.443Z</time></trkpt><trkpt lat="43.672235" lon="2.8756"><ele>990.0</ele><time>2026-04-04T09:45:57.442Z</time></trkpt><trkpt lat="43.6722683" lon="2.8753817"><ele>990.0</ele><time>2026-04-04T09:45:58.444Z</time></trkpt><trkpt lat="43.672295" lon="2.87517"><ele>990.0</ele><time>2026-04-04T09:45:59.442Z</time></trkpt><trkpt lat="43.6723217" lon="2.8749667"><ele>990.0</ele><time>2026-04-04T09:46:00.444Z</time></trkpt><trkpt lat="43.6723367" lon="2.8747683"><ele>990.0</ele><time>2026-04-04T09:46:01.443Z</time></trkpt><trkpt lat="43.67235" lon="2.87457"><ele>990.0</ele><time>2026-04-04T09:46:02.444Z</time></trkpt><trkpt lat="43.6723683" lon="2.8743817"><ele>990.0</ele><time>2026-04-04T09:46:03.443Z</time></trkpt><trkpt lat="43.67239" lon="2.8742083"><ele>990.0</ele><time>2026-04-04T09:46:04.442Z</time></trkpt><trkpt lat="43.6724333" lon="2.8740633"><ele>990.0</ele><time>2026-04-04T09:46:05.443Z</time></trkpt><trkpt lat="43.67248" lon="2.8739"><ele>990.75</ele><time>2026-04-04T09:46:06.442Z</time></trkpt><trkpt lat="43.67254" lon="2.8737267"><ele>991.5</ele><time>2026-04-04T09:46:07.445Z</time></trkpt><trkpt lat="43.672605" lon="2.8735767"><ele>992.25</ele><time>2026-04-04T09:46:08.443Z</time></trkpt><trkpt lat="43.6726983" lon="2.87343"><ele>993.0</ele><time>2026-04-04T09:46:09.444Z</time></trkpt><trkpt lat="43.672795" lon="2.8732817"><ele>988.75</ele><time>2026-04-04T09:46:10.443Z</time></trkpt><trkpt lat="43.6728817" lon="2.8731417"><ele>984.5</ele><time>2026-04-04T09:46:11.443Z</time></trkpt><trkpt lat="43.672955" lon="2.87301"><ele>980.25</ele><time>2026-04-04T09:46:12.443Z</time></trkpt><trkpt lat="43.6730417" lon="2.8728717"><ele>976.0</ele><time>2026-04-04T09:46:13.444Z</time></trkpt><trkpt lat="43.673125" lon="2.8726933"><ele>977.0</ele><time>2026-04-04T09:46:14.442Z</time></trkpt><trkpt lat="43.673265" lon="2.8723317"><ele>978.0</ele><time>2026-04-04T09:46:16.443Z</time></trkpt><trkpt lat="43.67329" lon="2.8721633"><ele>979.0</ele><time>2026-04-04T09:46:17.443Z</time></trkpt><trkpt lat="43.673305" lon="2.8719933"><ele>979.0</ele><time>2026-04-04T09:46:18.443Z</time></trkpt><trkpt lat="43.6733033" lon="2.87183"><ele>979.0</ele><time>2026-04-04T09:46:19.443Z</time></trkpt><trkpt lat="43.6732883" lon="2.8716617"><ele>979.0</ele><time>2026-04-04T09:46:20.444Z</time></trkpt><trkpt lat="43.67324" lon="2.8714783"><ele>979.0</ele><time>2026-04-04T09:46:21.443Z</time></trkpt><trkpt lat="43.6731733" lon="2.87128"><ele>978.25</ele><time>2026-04-04T09:46:22.443Z</time></trkpt><trkpt lat="43.6731033" lon="2.8710883"><ele>977.5</ele><time>2026-04-04T09:46:23.445Z</time></trkpt><trkpt lat="43.6730333" lon="2.8709117"><ele>976.75</ele><time>2026-04-04T09:46:24.442Z</time></trkpt><trkpt lat="43.6729917" lon="2.8707433"><ele>976.0</ele><time>2026-04-04T09:46:25.443Z</time></trkpt><trkpt lat="43.67295" lon="2.8705733"><ele>974.5</ele><time>2026-04-04T09:46:26.442Z</time></trkpt><trkpt lat="43.67294" lon="2.87042"><ele>973.0</ele><time>2026-04-04T09:46:27.443Z</time></trkpt><trkpt lat="43.6729217" lon="2.870235"><ele>971.5</ele><time>2026-04-04T09:46:28.443Z</time></trkpt><trkpt lat="43.6729" lon="2.870055"><ele>970.0</ele><time>2026-04-04T09:46:29.442Z</time></trkpt><trkpt lat="43.6729033" lon="2.869875"><ele>969.75</ele><time>2026-04-04T09:46:30.443Z</time></trkpt><trkpt lat="43.6729183" lon="2.8697083"><ele>969.5</ele><time>2026-04-04T09:46:31.443Z</time></trkpt><trkpt lat="43.6729467" lon="2.86957"><ele>969.25</ele><time>2026-04-04T09:46:32.442Z</time></trkpt><trkpt lat="43.6729833" lon="2.8694267"><ele>969.0</ele><time>2026-04-04T09:46:33.443Z</time></trkpt><trkpt lat="43.6730333" lon="2.8692583"><ele>968.6666666666667</ele><time>2026-04-04T09:46:34.443Z</time></trkpt><trkpt lat="43.6730783" lon="2.8690933"><ele>968.3333333333334</ele><time>2026-04-04T09:46:35.444Z</time></trkpt><trkpt lat="43.6731233" lon="2.8687867"><ele>968.0</ele><time>2026-04-04T09:46:37.443Z</time></trkpt><trkpt lat="43.673135" lon="2.868635"><ele>968.0</ele><time>2026-04-04T09:46:38.443Z</time></trkpt><trkpt lat="43.673125" lon="2.8684617"><ele>968.0</ele><time>2026-04-04T09:46:39.442Z</time></trkpt><trkpt lat="43.6731167" lon="2.8683017"><ele>968.0</ele><time>2026-04-04T09:46:40.443Z</time></trkpt><trkpt lat="43.6731133" lon="2.8681367"><ele>968.0</ele><time>2026-04-04T09:46:41.442Z</time></trkpt><trkpt lat="43.6731067" lon="2.8679733"><ele>968.25</ele><time>2026-04-04T09:46:42.444Z</time></trkpt><trkpt lat="43.673095" lon="2.867795"><ele>968.5</ele><time>2026-04-04T09:46:43.444Z</time></trkpt><trkpt lat="43.6731083" lon="2.8676083"><ele>968.75</ele><time>2026-04-04T09:46:44.443Z</time></trkpt><trkpt lat="43.6730917" lon="2.867445"><ele>969.0</ele><time>2026-04-04T09:46:45.442Z</time></trkpt><trkpt lat="43.6730383" lon="2.8672967"><ele>968.6</ele><time>2026-04-04T09:46:46.448Z</time></trkpt><trkpt lat="43.672965" lon="2.8671667"><ele>968.2</ele><time>2026-04-04T09:46:47.443Z</time></trkpt><trkpt lat="43.6728917" lon="2.867045"><ele>967.8000000000001</ele><time>2026-04-04T09:46:48.443Z</time></trkpt><trkpt lat="43.6728167" lon="2.86696"><ele>967.4000000000001</ele><time>2026-04-04T09:46:49.444Z</time></trkpt><trkpt lat="43.67276" lon="2.8668867"><ele>967.0</ele><time>2026-04-04T09:46:50.442Z</time></trkpt><trkpt lat="43.6726933" lon="2.8668083"><ele>966.6</ele><time>2026-04-04T09:46:51.443Z</time></trkpt><trkpt lat="43.672645" lon="2.8667317"><ele>966.2</ele><time>2026-04-04T09:46:52.443Z</time></trkpt><trkpt lat="43.6726117" lon="2.866635"><ele>965.8</ele><time>2026-04-04T09:46:53.443Z</time></trkpt><trkpt lat="43.67258" lon="2.866545"><ele>965.4</ele><time>2026-04-04T09:46:54.443Z</time></trkpt><trkpt lat="43.6726117" lon="2.8663867"><ele>965.0</ele><time>2026-04-04T09:46:56.443Z</time></trkpt><trkpt lat="43.672815" lon="2.8662233"><ele>965.0</ele><time>2026-04-04T09:46:59.444Z</time></trkpt><trkpt lat="43.6729133" lon="2.8661783"><ele>965.0</ele><time>2026-04-04T09:47:00.444Z</time></trkpt><trkpt lat="43.6730033" lon="2.8661517"><ele>965.0</ele><time>2026-04-04T09:47:01.444Z</time></trkpt><trkpt lat="43.67314" lon="2.8661133"><ele>965.0</ele><time>2026-04-04T09:47:02.442Z</time></trkpt><trkpt lat="43.6733" lon="2.8660567"><ele>965.0</ele><time>2026-04-04T09:47:03.443Z</time></trkpt><trkpt lat="43.6734267" lon="2.866005"><ele>965.0</ele><time>2026-04-04T09:47:04.443Z</time></trkpt><trkpt lat="43.6735367" lon="2.865955"><ele>965.0</ele><time>2026-04-04T09:47:05.442Z</time></trkpt><trkpt lat="43.6736383" lon="2.8658767"><ele>965.0</ele><time>2026-04-04T09:47:06.442Z</time></trkpt><trkpt lat="43.67374" lon="2.8657783"><ele>964.25</ele><time>2026-04-04T09:47:07.443Z</time></trkpt><trkpt lat="43.6738283" lon="2.8656683"><ele>963.5</ele><time>2026-04-04T09:47:08.443Z</time></trkpt><trkpt lat="43.67396" lon="2.8655383"><ele>962.75</ele><time>2026-04-04T09:47:09.442Z</time></trkpt><trkpt lat="43.6740433" lon="2.8653917"><ele>962.0</ele><time>2026-04-04T09:47:10.444Z</time></trkpt><trkpt lat="43.6741117" lon="2.8652233"><ele>965.0</ele><time>2026-04-04T09:47:11.443Z</time></trkpt><trkpt lat="43.6741817" lon="2.865045"><ele>968.0</ele><time>2026-04-04T09:47:12.443Z</time></trkpt><trkpt lat="43.67426" lon="2.8648683"><ele>971.0</ele><time>2026-04-04T09:47:13.443Z</time></trkpt><trkpt lat="43.674335" lon="2.86468"><ele>971.0</ele><time>2026-04-04T09:47:14.442Z</time></trkpt><trkpt lat="43.6744033" lon="2.8644833"><ele>971.0</ele><time>2026-04-04T09:47:15.442Z</time></trkpt><trkpt lat="43.674475" lon="2.8643067"><ele>971.0</ele><time>2026-04-04T09:47:16.443Z</time></trkpt><trkpt lat="43.6745667" lon="2.8641383"><ele>961.5</ele><time>2026-04-04T09:47:17.443Z</time></trkpt><trkpt lat="43.6747183" lon="2.8637533"><ele>952.0</ele><time>2026-04-04T09:47:19.443Z</time></trkpt><trkpt lat="43.67477" lon="2.86355"><ele>952.6666666666666</ele><time>2026-04-04T09:47:20.443Z</time></trkpt><trkpt lat="43.6748117" lon="2.8633433"><ele>953.3333333333333</ele><time>2026-04-04T09:47:21.442Z</time></trkpt><trkpt lat="43.67484" lon="2.86312"><ele>954.0</ele><time>2026-04-04T09:47:22.443Z</time></trkpt><trkpt lat="43.6748467" lon="2.8629117"><ele>954.0</ele><time>2026-04-04T09:47:23.442Z</time></trkpt><trkpt lat="43.6748717" lon="2.8626967"><ele>954.0</ele><time>2026-04-04T09:47:24.443Z</time></trkpt><trkpt lat="43.6748833" lon="2.8624883"><ele>954.0</ele><time>2026-04-04T09:47:25.443Z</time></trkpt><trkpt lat="43.6748917" lon="2.8622783"><ele>954.5</ele><time>2026-04-04T09:47:26.443Z</time></trkpt><trkpt lat="43.6749" lon="2.8620733"><ele>955.0</ele><time>2026-04-04T09:47:27.443Z</time></trkpt><trkpt lat="43.6749083" lon="2.8618767"><ele>955.5</ele><time>2026-04-04T09:47:28.446Z</time></trkpt><trkpt lat="43.6749067" lon="2.8616983"><ele>956.0</ele><time>2026-04-04T09:47:29.442Z</time></trkpt><trkpt lat="43.6749067" lon="2.8615183"><ele>956.0</ele><time>2026-04-04T09:47:30.443Z</time></trkpt><trkpt lat="43.6748917" lon="2.8613267"><ele>956.0</ele><time>2026-04-04T09:47:31.444Z</time></trkpt><trkpt lat="43.6748733" lon="2.8611267"><ele>956.0</ele><time>2026-04-04T09:47:32.442Z</time></trkpt><trkpt lat="43.6748617" lon="2.8609083"><ele>956.0</ele><time>2026-04-04T09:47:33.442Z</time></trkpt><trkpt lat="43.6748367" lon="2.8606917"><ele>955.0</ele><time>2026-04-04T09:47:34.443Z</time></trkpt><trkpt lat="43.67481" lon="2.860495"><ele>954.0</ele><time>2026-04-04T09:47:35.443Z</time></trkpt><trkpt lat="43.67479" lon="2.8602833"><ele>953.0</ele><time>2026-04-04T09:47:36.443Z</time></trkpt><trkpt lat="43.6747783" lon="2.8600617"><ele>951.0</ele><time>2026-04-04T09:47:37.444Z</time></trkpt><trkpt lat="43.6747583" lon="2.8598367"><ele>949.0</ele><time>2026-04-04T09:47:38.442Z</time></trkpt><trkpt lat="43.6746833" lon="2.859425"><ele>946.6666666666666</ele><time>2026-04-04T09:47:40.442Z</time></trkpt><trkpt lat="43.6746317" lon="2.8592317"><ele>944.3333333333333</ele><time>2026-04-04T09:47:41.444Z</time></trkpt><trkpt lat="43.6745733" lon="2.85903"><ele>942.0</ele><time>2026-04-04T09:47:42.443Z</time></trkpt><trkpt lat="43.6745067" lon="2.8588133"><ele>945.0</ele><time>2026-04-04T09:47:43.443Z</time></trkpt><trkpt lat="43.6744317" lon="2.8586067"><ele>948.0</ele><time>2026-04-04T09:47:44.442Z</time></trkpt><trkpt lat="43.6743533" lon="2.8584217"><ele>951.0</ele><time>2026-04-04T09:47:45.443Z</time></trkpt><trkpt lat="43.67426" lon="2.858245"><ele>951.0</ele><time>2026-04-04T09:47:46.443Z</time></trkpt><trkpt lat="43.6741633" lon="2.858085"><ele>951.0</ele><time>2026-04-04T09:47:47.443Z</time></trkpt><trkpt lat="43.6740483" lon="2.8579267"><ele>951.0</ele><time>2026-04-04T09:47:48.443Z</time></trkpt><trkpt lat="43.6739267" lon="2.85778"><ele>951.0</ele><time>2026-04-04T09:47:49.443Z</time></trkpt><trkpt lat="43.6738083" lon="2.8576233"><ele>951.0</ele><time>2026-04-04T09:47:50.444Z</time></trkpt><trkpt lat="43.673675" lon="2.8574717"><ele>951.0</ele><time>2026-04-04T09:47:51.443Z</time></trkpt><trkpt lat="43.6735267" lon="2.8573433"><ele>950.0</ele><time>2026-04-04T09:47:52.444Z</time></trkpt><trkpt lat="43.673395" lon="2.857205"><ele>949.0</ele><time>2026-04-04T09:47:53.442Z</time></trkpt><trkpt lat="43.6732417" lon="2.85711"><ele>948.0</ele><time>2026-04-04T09:47:54.444Z</time></trkpt><trkpt lat="43.673085" lon="2.8570183"><ele>948.0</ele><time>2026-04-04T09:47:55.445Z</time></trkpt><trkpt lat="43.6729233" lon="2.85691"><ele>948.0</ele><time>2026-04-04T09:47:56.442Z</time></trkpt><trkpt lat="43.6727417" lon="2.856815"><ele>948.0</ele><time>2026-04-04T09:47:57.443Z</time></trkpt><trkpt lat="43.6725633" lon="2.8567217"><ele>943.0</ele><time>2026-04-04T09:47:58.444Z</time></trkpt><trkpt lat="43.672395" lon="2.8566"><ele>938.0</ele><time>2026-04-04T09:47:59.444Z</time></trkpt><trkpt lat="43.672035" lon="2.8564017"><ele>940.0</ele><time>2026-04-04T09:48:01.443Z</time></trkpt><trkpt lat="43.671865" lon="2.8563083"><ele>942.0</ele><time>2026-04-04T09:48:02.442Z</time></trkpt><trkpt lat="43.6716983" lon="2.8562217"><ele>944.0</ele><time>2026-04-04T09:48:03.443Z</time></trkpt><trkpt lat="43.6715267" lon="2.8561317"><ele>944.0</ele><time>2026-04-04T09:48:04.443Z</time></trkpt><trkpt lat="43.6713617" lon="2.856045"><ele>944.0</ele><time>2026-04-04T09:48:05.442Z</time></trkpt><trkpt lat="43.671215" lon="2.8559917"><ele>944.0</ele><time>2026-04-04T09:48:06.443Z</time></trkpt><trkpt lat="43.6710867" lon="2.8559483"><ele>942.1666666666667</ele><time>2026-04-04T09:48:07.446Z</time></trkpt><trkpt lat="43.67098" lon="2.8558967"><ele>940.3333333333334</ele><time>2026-04-04T09:48:08.443Z</time></trkpt><trkpt lat="43.6709033" lon="2.8558617"><ele>938.5</ele><time>2026-04-04T09:48:09.443Z</time></trkpt><trkpt lat="43.6708233" lon="2.85583"><ele>936.6666666666667</ele><time>2026-04-04T09:48:10.443Z</time></trkpt><trkpt lat="43.670745" lon="2.85579"><ele>934.8333333333334</ele><time>2026-04-04T09:48:11.445Z</time></trkpt><trkpt lat="43.6706717" lon="2.8557517"><ele>933.0</ele><time>2026-04-04T09:48:12.444Z</time></trkpt><trkpt lat="43.670655" lon="2.8556567"><ele>933.0</ele><time>2026-04-04T09:48:14.443Z</time></trkpt><trkpt lat="43.6707967" lon="2.855565"><ele>933.0</ele><time>2026-04-04T09:48:16.444Z</time></trkpt><trkpt lat="43.6709183" lon="2.8554783"><ele>933.0</ele><time>2026-04-04T09:48:17.444Z</time></trkpt><trkpt lat="43.6710533" lon="2.8554017"><ele>933.0</ele><time>2026-04-04T09:48:18.444Z</time></trkpt><trkpt lat="43.6712217" lon="2.8554067"><ele>931.0</ele><time>2026-04-04T09:48:19.448Z</time></trkpt><trkpt lat="43.67139" lon="2.8554567"><ele>929.0</ele><time>2026-04-04T09:48:20.445Z</time></trkpt><trkpt lat="43.67164" lon="2.8554383"><ele>927.0</ele><time>2026-04-04T09:48:22.444Z</time></trkpt><trkpt lat="43.6717383" lon="2.8554417"><ele>927.0</ele><time>2026-04-04T09:48:23.443Z</time></trkpt><trkpt lat="43.6718517" lon="2.8554217"><ele>927.0</ele><time>2026-04-04T09:48:24.444Z</time></trkpt><trkpt lat="43.6719683" lon="2.8553783"><ele>927.0</ele><time>2026-04-04T09:48:25.444Z</time></trkpt><trkpt lat="43.67213" lon="2.8552967"><ele>927.0</ele><time>2026-04-04T09:48:26.443Z</time></trkpt><trkpt lat="43.67224" lon="2.855255"><ele>926.0</ele><time>2026-04-04T09:48:27.445Z</time></trkpt><trkpt lat="43.6723617" lon="2.8552067"><ele>925.0</ele><time>2026-04-04T09:48:28.444Z</time></trkpt><trkpt lat="43.6724917" lon="2.8551683"><ele>924.0</ele><time>2026-04-04T09:48:29.444Z</time></trkpt><trkpt lat="43.6726167" lon="2.8551617"><ele>923.0</ele><time>2026-04-04T09:48:30.443Z</time></trkpt><trkpt lat="43.6727367" lon="2.8551483"><ele>921.0</ele><time>2026-04-04T09:48:31.444Z</time></trkpt><trkpt lat="43.6728633" lon="2.8551233"><ele>919.0</ele><time>2026-04-04T09:48:32.443Z</time></trkpt><trkpt lat="43.6729917" lon="2.85509"><ele>917.0</ele><time>2026-04-04T09:48:33.444Z</time></trkpt><trkpt lat="43.6731117" lon="2.855055"><ele>915.0</ele><time>2026-04-04T09:48:34.443Z</time></trkpt><trkpt lat="43.6732483" lon="2.85502"><ele>911.0</ele><time>2026-04-04T09:48:35.443Z</time></trkpt><trkpt lat="43.67339" lon="2.854985"><ele>907.0</ele><time>2026-04-04T09:48:36.444Z</time></trkpt><trkpt lat="43.67352" lon="2.854965"><ele>903.0</ele><time>2026-04-04T09:48:37.445Z</time></trkpt><trkpt lat="43.6736433" lon="2.85496"><ele>899.0</ele><time>2026-04-04T09:48:38.443Z</time></trkpt><trkpt lat="43.6737783" lon="2.85497"><ele>896.6666666666667</ele><time>2026-04-04T09:48:39.443Z</time></trkpt><trkpt lat="43.6739117" lon="2.8550033"><ele>894.3333333333333</ele><time>2026-04-04T09:48:40.444Z</time></trkpt><trkpt lat="43.6740533" lon="2.8550633"><ele>892.0</ele><time>2026-04-04T09:48:41.443Z</time></trkpt><trkpt lat="43.6742867" lon="2.8552617"><ele>893.6666666666666</ele><time>2026-04-04T09:48:43.444Z</time></trkpt><trkpt lat="43.674405" lon="2.8554017"><ele>895.3333333333333</ele><time>2026-04-04T09:48:44.443Z</time></trkpt><trkpt lat="43.6745267" lon="2.8555533"><ele>897.0</ele><time>2026-04-04T09:48:45.444Z</time></trkpt><trkpt lat="43.6746433" lon="2.8556983"><ele>897.0</ele><time>2026-04-04T09:48:46.444Z</time></trkpt><trkpt lat="43.6747633" lon="2.8558383"><ele>897.0</ele><time>2026-04-04T09:48:47.444Z</time></trkpt><trkpt lat="43.6748833" lon="2.85599"><ele>897.0</ele><time>2026-04-04T09:48:48.445Z</time></trkpt><trkpt lat="43.675015" lon="2.8561467"><ele>896.6666666666667</ele><time>2026-04-04T09:48:49.444Z</time></trkpt><trkpt lat="43.6751267" lon="2.8563"><ele>896.3333333333334</ele><time>2026-04-04T09:48:50.443Z</time></trkpt><trkpt lat="43.67522" lon="2.8564633"><ele>896.0</ele><time>2026-04-04T09:48:51.443Z</time></trkpt><trkpt lat="43.6752983" lon="2.8566267"><ele>899.6666666666667</ele><time>2026-04-04T09:48:52.444Z</time></trkpt><trkpt lat="43.6753867" lon="2.8567967"><ele>903.3333333333333</ele><time>2026-04-04T09:48:53.443Z</time></trkpt><trkpt lat="43.6754733" lon="2.8569567"><ele>907.0</ele><time>2026-04-04T09:48:54.445Z</time></trkpt><trkpt lat="43.675585" lon="2.8571233"><ele>907.0</ele><time>2026-04-04T09:48:55.444Z</time></trkpt><trkpt lat="43.675725" lon="2.8572917"><ele>907.0</ele><time>2026-04-04T09:48:56.443Z</time></trkpt><trkpt lat="43.6758783" lon="2.857485"><ele>907.0</ele><time>2026-04-04T09:48:57.444Z</time></trkpt><trkpt lat="43.6760017" lon="2.8576833"><ele>904.3333333333333</ele><time>2026-04-04T09:48:58.444Z</time></trkpt><trkpt lat="43.6761167" lon="2.85788"><ele>901.6666666666667</ele><time>2026-04-04T09:48:59.443Z</time></trkpt><trkpt lat="43.6762183" lon="2.8580833"><ele>899.0</ele><time>2026-04-04T09:49:00.445Z</time></trkpt><trkpt lat="43.6763533" lon="2.8583033"><ele>902.0</ele><time>2026-04-04T09:49:01.445Z</time></trkpt><trkpt lat="43.6764783" lon="2.85852"><ele>905.0</ele><time>2026-04-04T09:49:02.443Z</time></trkpt><trkpt lat="43.6767117" lon="2.8589067"><ele>905.0</ele><time>2026-04-04T09:49:04.445Z</time></trkpt><trkpt lat="43.6767967" lon="2.8590783"><ele>905.0</ele><time>2026-04-04T09:49:05.443Z</time></trkpt><trkpt lat="43.6768833" lon="2.85921"><ele>905.0</ele><time>2026-04-04T09:49:06.444Z</time></trkpt><trkpt lat="43.6769817" lon="2.859315"><ele>905.0</ele><time>2026-04-04T09:49:07.444Z</time></trkpt><trkpt lat="43.67709" lon="2.859405"><ele>900.75</ele><time>2026-04-04T09:49:08.444Z</time></trkpt><trkpt lat="43.6772217" lon="2.8594767"><ele>896.5</ele><time>2026-04-04T09:49:09.443Z</time></trkpt><trkpt lat="43.6773383" lon="2.85955"><ele>892.25</ele><time>2026-04-04T09:49:10.444Z</time></trkpt><trkpt lat="43.6774533" lon="2.8596317"><ele>888.0</ele><time>2026-04-04T09:49:11.443Z</time></trkpt><trkpt lat="43.6775517" lon="2.8597183"><ele>888.0</ele><time>2026-04-04T09:49:12.444Z</time></trkpt><trkpt lat="43.67765" lon="2.859795"><ele>888.0</ele><time>2026-04-04T09:49:13.445Z</time></trkpt><trkpt lat="43.67777" lon="2.8598567"><ele>888.0</ele><time>2026-04-04T09:49:14.444Z</time></trkpt><trkpt lat="43.6779" lon="2.8599067"><ele>888.0</ele><time>2026-04-04T09:49:15.444Z</time></trkpt><trkpt lat="43.67804" lon="2.8599317"><ele>883.5</ele><time>2026-04-04T09:49:16.444Z</time></trkpt><trkpt lat="43.6781867" lon="2.8599233"><ele>879.0</ele><time>2026-04-04T09:49:17.443Z</time></trkpt><trkpt lat="43.678335" lon="2.8598983"><ele>874.5</ele><time>2026-04-04T09:49:18.444Z</time></trkpt><trkpt lat="43.678465" lon="2.8598683"><ele>870.0</ele><time>2026-04-04T09:49:19.445Z</time></trkpt><trkpt lat="43.6785833" lon="2.859835"><ele>868.25</ele><time>2026-04-04T09:49:20.443Z</time></trkpt><trkpt lat="43.6786983" lon="2.8598083"><ele>866.5</ele><time>2026-04-04T09:49:21.443Z</time></trkpt><trkpt lat="43.678825" lon="2.8598267"><ele>864.75</ele><time>2026-04-04T09:49:22.444Z</time></trkpt><trkpt lat="43.678975" lon="2.8598683"><ele>863.0</ele><time>2026-04-04T09:49:23.446Z</time></trkpt><trkpt lat="43.6792983" lon="2.8600017"><ele>862.6666666666667</ele><time>2026-04-04T09:49:25.445Z</time></trkpt><trkpt lat="43.679465" lon="2.8600433"><ele>862.3333333333333</ele><time>2026-04-04T09:49:26.444Z</time></trkpt><trkpt lat="43.6796167" lon="2.8600583"><ele>862.0</ele><time>2026-04-04T09:49:27.446Z</time></trkpt><trkpt lat="43.6797767" lon="2.8600633"><ele>862.0</ele><time>2026-04-04T09:49:28.447Z</time></trkpt><trkpt lat="43.67989" lon="2.860075"><ele>862.0</ele><time>2026-04-04T09:49:29.446Z</time></trkpt><trkpt lat="43.679975" lon="2.860095"><ele>862.0</ele><time>2026-04-04T09:49:30.444Z</time></trkpt><trkpt lat="43.68005" lon="2.8601167"><ele>862.0</ele><time>2026-04-04T09:49:31.443Z</time></trkpt><trkpt lat="43.6801583" lon="2.8601283"><ele>862.0</ele><time>2026-04-04T09:49:33.446Z</time></trkpt><trkpt lat="43.6802233" lon="2.8601"><ele>860.8</ele><time>2026-04-04T09:49:34.446Z</time></trkpt><trkpt lat="43.68029" lon="2.8600583"><ele>859.6</ele><time>2026-04-04T09:49:35.445Z</time></trkpt><trkpt lat="43.6803767" lon="2.86001"><ele>858.3999999999999</ele><time>2026-04-04T09:49:36.446Z</time></trkpt><trkpt lat="43.6804833" lon="2.8599483"><ele>857.1999999999999</ele><time>2026-04-04T09:49:37.443Z</time></trkpt><trkpt lat="43.6806" lon="2.85988"><ele>856.0</ele><time>2026-04-04T09:49:38.447Z</time></trkpt><trkpt lat="43.68072" lon="2.859805"><ele>856.0</ele><time>2026-04-04T09:49:39.446Z</time></trkpt><trkpt lat="43.6808417" lon="2.8597383"><ele>856.0</ele><time>2026-04-04T09:49:40.444Z</time></trkpt><trkpt lat="43.68097" lon="2.859675"><ele>856.0</ele><time>2026-04-04T09:49:41.444Z</time></trkpt><trkpt lat="43.68109" lon="2.8596083"><ele>856.0</ele><time>2026-04-04T09:49:42.443Z</time></trkpt><trkpt lat="43.6811883" lon="2.8595467"><ele>854.75</ele><time>2026-04-04T09:49:43.444Z</time></trkpt><trkpt lat="43.6812683" lon="2.8594767"><ele>853.5</ele><time>2026-04-04T09:49:44.444Z</time></trkpt><trkpt lat="43.6814167" lon="2.8593233"><ele>852.25</ele><time>2026-04-04T09:49:46.446Z</time></trkpt><trkpt lat="43.6814933" lon="2.8592717"><ele>851.0</ele><time>2026-04-04T09:49:47.447Z</time></trkpt><trkpt lat="43.6815833" lon="2.8592367"><ele>850.0</ele><time>2026-04-04T09:49:48.446Z</time></trkpt><trkpt lat="43.6816917" lon="2.8592133"><ele>849.0</ele><time>2026-04-04T09:49:49.443Z</time></trkpt><trkpt lat="43.68181" lon="2.8591883"><ele>848.0</ele><time>2026-04-04T09:49:50.443Z</time></trkpt><trkpt lat="43.68194" lon="2.8591633"><ele>847.0</ele><time>2026-04-04T09:49:51.443Z</time></trkpt><trkpt lat="43.68209" lon="2.8591433"><ele>846.75</ele><time>2026-04-04T09:49:52.445Z</time></trkpt><trkpt lat="43.6822317" lon="2.8591333"><ele>846.5</ele><time>2026-04-04T09:49:53.446Z</time></trkpt><trkpt lat="43.6823533" lon="2.859125"><ele>846.25</ele><time>2026-04-04T09:49:54.447Z</time></trkpt><trkpt lat="43.6824717" lon="2.8591117"><ele>846.0</ele><time>2026-04-04T09:49:55.448Z</time></trkpt><trkpt lat="43.6825917" lon="2.8591"><ele>846.0</ele><time>2026-04-04T09:49:56.447Z</time></trkpt><trkpt lat="43.6827033" lon="2.8590883"><ele>846.0</ele><time>2026-04-04T09:49:57.446Z</time></trkpt><trkpt lat="43.6827967" lon="2.85907"><ele>846.0</ele><time>2026-04-04T09:49:58.446Z</time></trkpt><trkpt lat="43.6828867" lon="2.8590633"><ele>846.0</ele><time>2026-04-04T09:49:59.447Z</time></trkpt><trkpt lat="43.6829667" lon="2.8590533"><ele>846.0</ele><time>2026-04-04T09:50:00.446Z</time></trkpt><trkpt lat="43.6830433" lon="2.85904"><ele>845.4</ele><time>2026-04-04T09:50:01.448Z</time></trkpt><trkpt lat="43.6831233" lon="2.8590083"><ele>844.8</ele><time>2026-04-04T09:50:02.446Z</time></trkpt><trkpt lat="43.6832" lon="2.8589617"><ele>844.1999999999999</ele><time>2026-04-04T09:50:03.446Z</time></trkpt><trkpt lat="43.68327" lon="2.8589083"><ele>843.5999999999999</ele><time>2026-04-04T09:50:04.446Z</time></trkpt><trkpt lat="43.6833333" lon="2.8588517"><ele>843.0</ele><time>2026-04-04T09:50:05.446Z</time></trkpt><trkpt lat="43.68346" lon="2.858675"><ele>843.0</ele><time>2026-04-04T09:50:07.451Z</time></trkpt><trkpt lat="43.6835167" lon="2.8585483"><ele>843.0</ele><time>2026-04-04T09:50:08.442Z</time></trkpt><trkpt lat="43.683585" lon="2.858405"><ele>843.0</ele><time>2026-04-04T09:50:09.447Z</time></trkpt><trkpt lat="43.6836567" lon="2.8582517"><ele>843.0</ele><time>2026-04-04T09:50:10.446Z</time></trkpt><trkpt lat="43.683745" lon="2.8580933"><ele>843.3333333333333</ele><time>2026-04-04T09:50:11.447Z</time></trkpt><trkpt lat="43.683845" lon="2.8579317"><ele>843.6666666666666</ele><time>2026-04-04T09:50:12.447Z</time></trkpt><trkpt lat="43.6839533" lon="2.8577733"><ele>844.0</ele><time>2026-04-04T09:50:13.448Z</time></trkpt><trkpt lat="43.6840633" lon="2.8576183"><ele>843.5</ele><time>2026-04-04T09:50:14.446Z</time></trkpt><trkpt lat="43.684165" lon="2.8574717"><ele>843.0</ele><time>2026-04-04T09:50:15.448Z</time></trkpt><trkpt lat="43.6842617" lon="2.8573267"><ele>842.5</ele><time>2026-04-04T09:50:16.446Z</time></trkpt><trkpt lat="43.6843417" lon="2.8571733"><ele>842.0</ele><time>2026-04-04T09:50:17.444Z</time></trkpt><trkpt lat="43.6843867" lon="2.8569967"><ele>842.0</ele><time>2026-04-04T09:50:18.446Z</time></trkpt><trkpt lat="43.6844" lon="2.856815"><ele>842.0</ele><time>2026-04-04T09:50:19.447Z</time></trkpt><trkpt lat="43.6844067" lon="2.8566267"><ele>842.0</ele><time>2026-04-04T09:50:20.446Z</time></trkpt><trkpt lat="43.6844167" lon="2.8564267"><ele>842.0</ele><time>2026-04-04T09:50:21.446Z</time></trkpt><trkpt lat="43.6844217" lon="2.8562267"><ele>842.0</ele><time>2026-04-04T09:50:22.446Z</time></trkpt><trkpt lat="43.6844233" lon="2.8560317"><ele>842.0</ele><time>2026-04-04T09:50:23.445Z</time></trkpt><trkpt lat="43.6844467" lon="2.85583"><ele>842.0</ele><time>2026-04-04T09:50:24.446Z</time></trkpt><trkpt lat="43.6844717" lon="2.8556367"><ele>842.0</ele><time>2026-04-04T09:50:25.444Z</time></trkpt><trkpt lat="43.6844967" lon="2.85544"><ele>843.3333333333334</ele><time>2026-04-04T09:50:26.444Z</time></trkpt><trkpt lat="43.684575" lon="2.8550817"><ele>844.6666666666667</ele><time>2026-04-04T09:50:28.444Z</time></trkpt><trkpt lat="43.6846217" lon="2.8549267"><ele>846.0</ele><time>2026-04-04T09:50:29.444Z</time></trkpt><trkpt lat="43.68469" lon="2.8548"><ele>846.0</ele><time>2026-04-04T09:50:30.447Z</time></trkpt><trkpt lat="43.6847817" lon="2.85469"><ele>846.0</ele><time>2026-04-04T09:50:31.448Z</time></trkpt><trkpt lat="43.6848933" lon="2.8545783"><ele>846.0</ele><time>2026-04-04T09:50:32.447Z</time></trkpt><trkpt lat="43.6850133" lon="2.8544583"><ele>846.0</ele><time>2026-04-04T09:50:33.446Z</time></trkpt><trkpt lat="43.68514" lon="2.854335"><ele>848.0</ele><time>2026-04-04T09:50:34.444Z</time></trkpt><trkpt lat="43.6852683" lon="2.8542067"><ele>850.0</ele><time>2026-04-04T09:50:35.447Z</time></trkpt><trkpt lat="43.685395" lon="2.854075"><ele>852.0</ele><time>2026-04-04T09:50:36.448Z</time></trkpt><trkpt lat="43.6855083" lon="2.8539567"><ele>852.0</ele><time>2026-04-04T09:50:37.447Z</time></trkpt><trkpt lat="43.6856067" lon="2.853845"><ele>852.0</ele><time>2026-04-04T09:50:38.446Z</time></trkpt><trkpt lat="43.68571" lon="2.8537383"><ele>852.0</ele><time>2026-04-04T09:50:39.443Z</time></trkpt><trkpt lat="43.685815" lon="2.8536383"><ele>852.0</ele><time>2026-04-04T09:50:40.446Z</time></trkpt><trkpt lat="43.6859317" lon="2.853565"><ele>852.0</ele><time>2026-04-04T09:50:41.448Z</time></trkpt><trkpt lat="43.686055" lon="2.8535183"><ele>852.0</ele><time>2026-04-04T09:50:42.444Z</time></trkpt><trkpt lat="43.686195" lon="2.8535167"><ele>852.0</ele><time>2026-04-04T09:50:43.446Z</time></trkpt><trkpt lat="43.68634" lon="2.853535"><ele>852.0</ele><time>2026-04-04T09:50:44.444Z</time></trkpt><trkpt lat="43.6865033" lon="2.8535833"><ele>853.3333333333333</ele><time>2026-04-04T09:50:45.445Z</time></trkpt><trkpt lat="43.68664" lon="2.853625"><ele>854.6666666666666</ele><time>2026-04-04T09:50:46.444Z</time></trkpt><trkpt lat="43.6867733" lon="2.8536733"><ele>856.0</ele><time>2026-04-04T09:50:47.443Z</time></trkpt><trkpt lat="43.687055" lon="2.8538317"><ele>856.0</ele><time>2026-04-04T09:50:49.443Z</time></trkpt><trkpt lat="43.6872033" lon="2.8539167"><ele>856.0</ele><time>2026-04-04T09:50:50.444Z</time></trkpt><trkpt lat="43.68732" lon="2.8539833"><ele>856.0</ele><time>2026-04-04T09:50:51.443Z</time></trkpt><trkpt lat="43.687435" lon="2.854025"><ele>856.0</ele><time>2026-04-04T09:50:52.443Z</time></trkpt><trkpt lat="43.6875333" lon="2.8540117"><ele>856.0</ele><time>2026-04-04T09:50:53.448Z</time></trkpt><trkpt lat="43.68761" lon="2.853965"><ele>855.9999999999999</ele><time>2026-04-04T09:50:54.446Z</time></trkpt><trkpt lat="43.6876633" lon="2.85388"><ele>855.9999999999999</ele><time>2026-04-04T09:50:55.447Z</time></trkpt><trkpt lat="43.6876967" lon="2.853735"><ele>856.0</ele><time>2026-04-04T09:50:56.446Z</time></trkpt><trkpt lat="43.687745" lon="2.8535967"><ele>856.0</ele><time>2026-04-04T09:50:57.446Z</time></trkpt><trkpt lat="43.68781" lon="2.853465"><ele>856.25</ele><time>2026-04-04T09:50:58.446Z</time></trkpt><trkpt lat="43.687885" lon="2.8533617"><ele>856.5</ele><time>2026-04-04T09:50:59.443Z</time></trkpt><trkpt lat="43.6879867" lon="2.8533"><ele>856.75</ele><time>2026-04-04T09:51:00.445Z</time></trkpt><trkpt lat="43.6881167" lon="2.853275"><ele>857.0</ele><time>2026-04-04T09:51:01.446Z</time></trkpt><trkpt lat="43.6882733" lon="2.8532667"><ele>857.0</ele><time>2026-04-04T09:51:02.446Z</time></trkpt><trkpt lat="43.6884317" lon="2.8532633"><ele>857.0</ele><time>2026-04-04T09:51:03.446Z</time></trkpt><trkpt lat="43.6886017" lon="2.85326"><ele>857.0</ele><time>2026-04-04T09:51:04.445Z</time></trkpt><trkpt lat="43.6887733" lon="2.8532617"><ele>857.3333333333334</ele><time>2026-04-04T09:51:05.446Z</time></trkpt><trkpt lat="43.6889483" lon="2.8532683"><ele>857.6666666666667</ele><time>2026-04-04T09:51:06.446Z</time></trkpt><trkpt lat="43.68912" lon="2.8532667"><ele>858.0</ele><time>2026-04-04T09:51:07.447Z</time></trkpt><trkpt lat="43.6892933" lon="2.8532483"><ele>857.5</ele><time>2026-04-04T09:51:08.443Z</time></trkpt><trkpt lat="43.68963" lon="2.8531217"><ele>857.0</ele><time>2026-04-04T09:51:10.444Z</time></trkpt><trkpt lat="43.68979" lon="2.8530183"><ele>857.0</ele><time>2026-04-04T09:51:11.443Z</time></trkpt><trkpt lat="43.6899467" lon="2.8529033"><ele>857.0</ele><time>2026-04-04T09:51:12.446Z</time></trkpt><trkpt lat="43.690095" lon="2.852795"><ele>857.0</ele><time>2026-04-04T09:51:13.446Z</time></trkpt><trkpt lat="43.6902283" lon="2.8527133"><ele>855.75</ele><time>2026-04-04T09:51:14.446Z</time></trkpt><trkpt lat="43.6903533" lon="2.8526333"><ele>854.5</ele><time>2026-04-04T09:51:15.446Z</time></trkpt><trkpt lat="43.69048" lon="2.852555"><ele>853.25</ele><time>2026-04-04T09:51:16.444Z</time></trkpt><trkpt lat="43.6906067" lon="2.8524983"><ele>852.0</ele><time>2026-04-04T09:51:17.444Z</time></trkpt><trkpt lat="43.690735" lon="2.85246"><ele>853.5</ele><time>2026-04-04T09:51:18.445Z</time></trkpt><trkpt lat="43.690865" lon="2.8524267"><ele>855.0</ele><time>2026-04-04T09:51:19.444Z</time></trkpt><trkpt lat="43.6909783" lon="2.8523767"><ele>856.5</ele><time>2026-04-04T09:51:20.444Z</time></trkpt><trkpt lat="43.69108" lon="2.85229"><ele>858.0</ele><time>2026-04-04T09:51:21.444Z</time></trkpt><trkpt lat="43.6911683" lon="2.852175"><ele>858.0</ele><time>2026-04-04T09:51:22.443Z</time></trkpt><trkpt lat="43.6912267" lon="2.852035"><ele>858.0</ele><time>2026-04-04T09:51:23.444Z</time></trkpt><trkpt lat="43.691275" lon="2.851875"><ele>858.0</ele><time>2026-04-04T09:51:24.443Z</time></trkpt><trkpt lat="43.6913183" lon="2.8517017"><ele>858.0</ele><time>2026-04-04T09:51:25.444Z</time></trkpt><trkpt lat="43.69136" lon="2.8515317"><ele>859.75</ele><time>2026-04-04T09:51:26.443Z</time></trkpt><trkpt lat="43.6914033" lon="2.8513583"><ele>861.5</ele><time>2026-04-04T09:51:27.444Z</time></trkpt><trkpt lat="43.69144" lon="2.8511883"><ele>863.25</ele><time>2026-04-04T09:51:28.448Z</time></trkpt><trkpt lat="43.6914833" lon="2.8510133"><ele>865.0</ele><time>2026-04-04T09:51:29.447Z</time></trkpt><trkpt lat="43.6915917" lon="2.8506517"><ele>867.0</ele><time>2026-04-04T09:51:31.446Z</time></trkpt><trkpt lat="43.6916483" lon="2.8504633"><ele>869.0</ele><time>2026-04-04T09:51:32.446Z</time></trkpt><trkpt lat="43.691705" lon="2.8502633"><ele>871.0</ele><time>2026-04-04T09:51:33.446Z</time></trkpt><trkpt lat="43.6917583" lon="2.85006"><ele>870.75</ele><time>2026-04-04T09:51:34.446Z</time></trkpt><trkpt lat="43.6918117" lon="2.8498567"><ele>870.5</ele><time>2026-04-04T09:51:35.447Z</time></trkpt><trkpt lat="43.69186" lon="2.84967"><ele>870.25</ele><time>2026-04-04T09:51:36.447Z</time></trkpt><trkpt lat="43.6919017" lon="2.849485"><ele>870.0</ele><time>2026-04-04T09:51:37.443Z</time></trkpt><trkpt lat="43.6919267" lon="2.8492983"><ele>872.0</ele><time>2026-04-04T09:51:38.446Z</time></trkpt><trkpt lat="43.691935" lon="2.84912"><ele>874.0</ele><time>2026-04-04T09:51:39.446Z</time></trkpt><trkpt lat="43.6919333" lon="2.8489583"><ele>876.0</ele><time>2026-04-04T09:51:40.447Z</time></trkpt><trkpt lat="43.69193" lon="2.8488117"><ele>878.0</ele><time>2026-04-04T09:51:41.446Z</time></trkpt><trkpt lat="43.6919367" lon="2.848685"><ele>880.0</ele><time>2026-04-04T09:51:42.446Z</time></trkpt><trkpt lat="43.6919633" lon="2.8485683"><ele>880.0</ele><time>2026-04-04T09:51:43.448Z</time></trkpt><trkpt lat="43.69201" lon="2.84846"><ele>880.0</ele><time>2026-04-04T09:51:44.446Z</time></trkpt><trkpt lat="43.6920767" lon="2.8483667"><ele>880.0</ele><time>2026-04-04T09:51:45.446Z</time></trkpt><trkpt lat="43.6921617" lon="2.848285"><ele>880.0</ele><time>2026-04-04T09:51:46.446Z</time></trkpt><trkpt lat="43.6922517" lon="2.8482033"><ele>880.0</ele><time>2026-04-04T09:51:47.443Z</time></trkpt><trkpt lat="43.6923467" lon="2.8481183"><ele>883.3333333333333</ele><time>2026-04-04T09:51:48.446Z</time></trkpt><trkpt lat="43.6924467" lon="2.84804"><ele>886.6666666666667</ele><time>2026-04-04T09:51:49.446Z</time></trkpt><trkpt lat="43.6925583" lon="2.8479667"><ele>890.0</ele><time>2026-04-04T09:51:50.45Z</time></trkpt><trkpt lat="43.6927733" lon="2.8478267"><ele>892.0</ele><time>2026-04-04T09:51:52.445Z</time></trkpt><trkpt lat="43.6928783" lon="2.84774"><ele>894.0</ele><time>2026-04-04T09:51:53.445Z</time></trkpt><trkpt lat="43.692985" lon="2.8476567"><ele>896.0</ele><time>2026-04-04T09:51:54.446Z</time></trkpt><trkpt lat="43.6930983" lon="2.8475767"><ele>898.0</ele><time>2026-04-04T09:51:55.444Z</time></trkpt><trkpt lat="43.6932167" lon="2.8475017"><ele>900.0</ele><time>2026-04-04T09:51:56.445Z</time></trkpt><trkpt lat="43.6933283" lon="2.84744"><ele>902.0</ele><time>2026-04-04T09:51:57.445Z</time></trkpt><trkpt lat="43.6934333" lon="2.84739"><ele>904.0</ele><time>2026-04-04T09:51:58.446Z</time></trkpt><trkpt lat="43.6935367" lon="2.84734"><ele>906.0</ele><time>2026-04-04T09:51:59.446Z</time></trkpt><trkpt lat="43.6936383" lon="2.8472667"><ele>906.0</ele><time>2026-04-04T09:52:00.446Z</time></trkpt><trkpt lat="43.69373" lon="2.847175"><ele>906.0</ele><time>2026-04-04T09:52:01.446Z</time></trkpt><trkpt lat="43.6938283" lon="2.8470567"><ele>906.0</ele><time>2026-04-04T09:52:02.446Z</time></trkpt><trkpt lat="43.69392" lon="2.8469233"><ele>906.0</ele><time>2026-04-04T09:52:03.445Z</time></trkpt><trkpt lat="43.69401" lon="2.8467983"><ele>908.0</ele><time>2026-04-04T09:52:04.447Z</time></trkpt><trkpt lat="43.6941033" lon="2.846665"><ele>910.0</ele><time>2026-04-04T09:52:05.448Z</time></trkpt><trkpt lat="43.694205" lon="2.8465183"><ele>912.0</ele><time>2026-04-04T09:52:06.443Z</time></trkpt><trkpt lat="43.6943067" lon="2.8463717"><ele>914.0</ele><time>2026-04-04T09:52:07.446Z</time></trkpt><trkpt lat="43.6944133" lon="2.8462417"><ele>913.0</ele><time>2026-04-04T09:52:08.446Z</time></trkpt><trkpt lat="43.694525" lon="2.8460967"><ele>912.0</ele><time>2026-04-04T09:52:09.446Z</time></trkpt><trkpt lat="43.6946283" lon="2.8459517"><ele>911.0</ele><time>2026-04-04T09:52:10.446Z</time></trkpt><trkpt lat="43.6947383" lon="2.84578"><ele>916.5</ele><time>2026-04-04T09:52:11.446Z</time></trkpt><trkpt lat="43.694945" lon="2.845455"><ele>922.0</ele><time>2026-04-04T09:52:13.447Z</time></trkpt><trkpt lat="43.69504" lon="2.8453"><ele>922.0</ele><time>2026-04-04T09:52:14.446Z</time></trkpt><trkpt lat="43.695135" lon="2.84513"><ele>922.0</ele><time>2026-04-04T09:52:15.447Z</time></trkpt><trkpt lat="43.69522" lon="2.8449517"><ele>922.0</ele><time>2026-04-04T09:52:16.447Z</time></trkpt><trkpt lat="43.6952983" lon="2.8447717"><ele>924.0</ele><time>2026-04-04T09:52:17.443Z</time></trkpt><trkpt lat="43.6953717" lon="2.8445817"><ele>926.0</ele><time>2026-04-04T09:52:18.445Z</time></trkpt><trkpt lat="43.6954533" lon="2.8443883"><ele>928.0</ele><time>2026-04-04T09:52:19.445Z</time></trkpt><trkpt lat="43.6955433" lon="2.8441967"><ele>929.3333333333333</ele><time>2026-04-04T09:52:20.445Z</time></trkpt><trkpt lat="43.695635" lon="2.8440067"><ele>930.6666666666667</ele><time>2026-04-04T09:52:21.445Z</time></trkpt><trkpt lat="43.6957183" lon="2.843825"><ele>932.0</ele><time>2026-04-04T09:52:22.446Z</time></trkpt><trkpt lat="43.695805" lon="2.84365"><ele>932.0</ele><time>2026-04-04T09:52:23.444Z</time></trkpt><trkpt lat="43.6958867" lon="2.8434883"><ele>932.0</ele><time>2026-04-04T09:52:24.445Z</time></trkpt><trkpt lat="43.6959817" lon="2.8433333"><ele>932.0</ele><time>2026-04-04T09:52:25.445Z</time></trkpt><trkpt lat="43.6960883" lon="2.8431817"><ele>932.0</ele><time>2026-04-04T09:52:26.445Z</time></trkpt><trkpt lat="43.6961983" lon="2.843025"><ele>932.0</ele><time>2026-04-04T09:52:27.445Z</time></trkpt><trkpt lat="43.696305" lon="2.842865"><ele>932.0</ele><time>2026-04-04T09:52:28.447Z</time></trkpt><trkpt lat="43.6964033" lon="2.842695"><ele>932.0</ele><time>2026-04-04T09:52:29.447Z</time></trkpt><trkpt lat="43.6964967" lon="2.84252"><ele>935.0</ele><time>2026-04-04T09:52:30.446Z</time></trkpt><trkpt lat="43.6965867" lon="2.8423417"><ele>938.0</ele><time>2026-04-04T09:52:31.445Z</time></trkpt><trkpt lat="43.6966717" lon="2.8421617"><ele>941.0</ele><time>2026-04-04T09:52:32.446Z</time></trkpt><trkpt lat="43.6968583" lon="2.8417967"><ele>944.25</ele><time>2026-04-04T09:52:34.446Z</time></trkpt><trkpt lat="43.69695" lon="2.8416133"><ele>947.5</ele><time>2026-04-04T09:52:35.446Z</time></trkpt><trkpt lat="43.6970167" lon="2.8414467"><ele>950.75</ele><time>2026-04-04T09:52:36.447Z</time></trkpt><trkpt lat="43.697085" lon="2.8412783"><ele>954.0</ele><time>2026-04-04T09:52:37.447Z</time></trkpt><trkpt lat="43.6971667" lon="2.8411033"><ele>955.3333333333333</ele><time>2026-04-04T09:52:38.447Z</time></trkpt><trkpt lat="43.69726" lon="2.8409267"><ele>956.6666666666666</ele><time>2026-04-04T09:52:39.446Z</time></trkpt><trkpt lat="43.6973533" lon="2.8407417"><ele>958.0</ele><time>2026-04-04T09:52:40.446Z</time></trkpt><trkpt lat="43.6974367" lon="2.8405583"><ele>958.0</ele><time>2026-04-04T09:52:41.447Z</time></trkpt><trkpt lat="43.6975267" lon="2.8403717"><ele>958.0</ele><time>2026-04-04T09:52:42.443Z</time></trkpt><trkpt lat="43.697625" lon="2.8401717"><ele>958.0</ele><time>2026-04-04T09:52:43.445Z</time></trkpt><trkpt lat="43.6977183" lon="2.839965"><ele>958.0</ele><time>2026-04-04T09:52:44.446Z</time></trkpt><trkpt lat="43.6977983" lon="2.8397583"><ele>958.0</ele><time>2026-04-04T09:52:45.447Z</time></trkpt><trkpt lat="43.6978783" lon="2.83954"><ele>958.0</ele><time>2026-04-04T09:52:46.444Z</time></trkpt><trkpt lat="43.6979533" lon="2.8393217"><ele>958.3333333333333</ele><time>2026-04-04T09:52:47.443Z</time></trkpt><trkpt lat="43.6980283" lon="2.839095"><ele>958.6666666666667</ele><time>2026-04-04T09:52:48.443Z</time></trkpt><trkpt lat="43.6981067" lon="2.8388667"><ele>959.0</ele><time>2026-04-04T09:52:49.444Z</time></trkpt><trkpt lat="43.6981917" lon="2.8386417"><ele>958.6666666666667</ele><time>2026-04-04T09:52:50.443Z</time></trkpt><trkpt lat="43.6982833" lon="2.83842"><ele>958.3333333333333</ele><time>2026-04-04T09:52:51.444Z</time></trkpt><trkpt lat="43.6983767" lon="2.8381983"><ele>958.0</ele><time>2026-04-04T09:52:52.443Z</time></trkpt><trkpt lat="43.6984583" lon="2.8379767"><ele>958.5</ele><time>2026-04-04T09:52:53.444Z</time></trkpt><trkpt lat="43.69859" lon="2.837525"><ele>959.0</ele><time>2026-04-04T09:52:55.444Z</time></trkpt><trkpt lat="43.6986317" lon="2.8372867"><ele>959.0</ele><time>2026-04-04T09:52:56.443Z</time></trkpt><trkpt lat="43.6986667" lon="2.8370467"><ele>959.0</ele><time>2026-04-04T09:52:57.444Z</time></trkpt><trkpt lat="43.6987033" lon="2.8368033"><ele>959.0</ele><time>2026-04-04T09:52:58.446Z</time></trkpt><trkpt lat="43.69874" lon="2.83656"><ele>960.0</ele><time>2026-04-04T09:52:59.446Z</time></trkpt><trkpt lat="43.6987683" lon="2.8363183"><ele>961.0</ele><time>2026-04-04T09:53:00.443Z</time></trkpt><trkpt lat="43.6987967" lon="2.8360683"><ele>962.0</ele><time>2026-04-04T09:53:01.446Z</time></trkpt><trkpt lat="43.69883" lon="2.8358233"><ele>964.0</ele><time>2026-04-04T09:53:02.447Z</time></trkpt><trkpt lat="43.698875" lon="2.8355817"><ele>966.0</ele><time>2026-04-04T09:53:03.445Z</time></trkpt><trkpt lat="43.6989233" lon="2.8353467"><ele>968.0</ele><time>2026-04-04T09:53:04.444Z</time></trkpt><trkpt lat="43.6989783" lon="2.835115"><ele>969.3333333333334</ele><time>2026-04-04T09:53:05.443Z</time></trkpt><trkpt lat="43.69903" lon="2.8348733"><ele>970.6666666666667</ele><time>2026-04-04T09:53:06.447Z</time></trkpt><trkpt lat="43.6990633" lon="2.834615"><ele>972.0</ele><time>2026-04-04T09:53:07.447Z</time></trkpt><trkpt lat="43.6990833" lon="2.8343583"><ele>973.0</ele><time>2026-04-04T09:53:08.446Z</time></trkpt><trkpt lat="43.6991033" lon="2.8340983"><ele>974.0</ele><time>2026-04-04T09:53:09.445Z</time></trkpt><trkpt lat="43.6991167" lon="2.8338433"><ele>975.0</ele><time>2026-04-04T09:53:10.446Z</time></trkpt><trkpt lat="43.6991217" lon="2.8335883"><ele>976.3333333333333</ele><time>2026-04-04T09:53:11.445Z</time></trkpt><trkpt lat="43.69913" lon="2.83333"><ele>977.6666666666666</ele><time>2026-04-04T09:53:12.446Z</time></trkpt><trkpt lat="43.6991383" lon="2.8330733"><ele>979.0</ele><time>2026-04-04T09:53:13.444Z</time></trkpt><trkpt lat="43.6991517" lon="2.832815"><ele>979.0</ele><time>2026-04-04T09:53:14.445Z</time></trkpt><trkpt lat="43.6991633" lon="2.8323183"><ele>979.0</ele><time>2026-04-04T09:53:16.445Z</time></trkpt><trkpt lat="43.6991483" lon="2.83208"><ele>979.0</ele><time>2026-04-04T09:53:17.443Z</time></trkpt><trkpt lat="43.6991317" lon="2.8318333"><ele>979.0</ele><time>2026-04-04T09:53:18.447Z</time></trkpt><trkpt lat="43.6991067" lon="2.8315917"><ele>979.0</ele><time>2026-04-04T09:53:19.444Z</time></trkpt><trkpt lat="43.6990833" lon="2.831345"><ele>980.6666666666666</ele><time>2026-04-04T09:53:20.446Z</time></trkpt><trkpt lat="43.6990567" lon="2.8311"><ele>982.3333333333333</ele><time>2026-04-04T09:53:21.446Z</time></trkpt><trkpt lat="43.699035" lon="2.8308617"><ele>984.0</ele><time>2026-04-04T09:53:22.445Z</time></trkpt><trkpt lat="43.6990117" lon="2.8306417"><ele>984.0</ele><time>2026-04-04T09:53:23.443Z</time></trkpt><trkpt lat="43.6989883" lon="2.830425"><ele>984.0</ele><time>2026-04-04T09:53:24.443Z</time></trkpt><trkpt lat="43.6989633" lon="2.8302133"><ele>984.0</ele><time>2026-04-04T09:53:25.444Z</time></trkpt><trkpt lat="43.698955" lon="2.8300033"><ele>984.0</ele><time>2026-04-04T09:53:26.446Z</time></trkpt><trkpt lat="43.698955" lon="2.8298183"><ele>984.0</ele><time>2026-04-04T09:53:27.445Z</time></trkpt><trkpt lat="43.69897" lon="2.8296317"><ele>984.0</ele><time>2026-04-04T09:53:28.446Z</time></trkpt><trkpt lat="43.6989967" lon="2.82943"><ele>984.0</ele><time>2026-04-04T09:53:29.446Z</time></trkpt><trkpt lat="43.6990317" lon="2.8292183"><ele>982.5</ele><time>2026-04-04T09:53:30.445Z</time></trkpt><trkpt lat="43.6990567" lon="2.8290083"><ele>981.0</ele><time>2026-04-04T09:53:31.446Z</time></trkpt><trkpt lat="43.69907" lon="2.8288117"><ele>979.5</ele><time>2026-04-04T09:53:32.446Z</time></trkpt><trkpt lat="43.6990683" lon="2.82863"><ele>978.0</ele><time>2026-04-04T09:53:33.443Z</time></trkpt><trkpt lat="43.6990533" lon="2.8284633"><ele>975.3333333333333</ele><time>2026-04-04T09:53:34.444Z</time></trkpt><trkpt lat="43.699005" lon="2.828335"><ele>972.6666666666666</ele><time>2026-04-04T09:53:35.446Z</time></trkpt><trkpt lat="43.698825" lon="2.8281083"><ele>970.0</ele><time>2026-04-04T09:53:37.446Z</time></trkpt><trkpt lat="43.6987333" lon="2.8279883"><ele>970.0</ele><time>2026-04-04T09:53:38.445Z</time></trkpt><trkpt lat="43.6986717" lon="2.82786"><ele>970.0</ele><time>2026-04-04T09:53:39.445Z</time></trkpt><trkpt lat="43.6986433" lon="2.8277083"><ele>970.0</ele><time>2026-04-04T09:53:40.446Z</time></trkpt><trkpt lat="43.69864" lon="2.8275317"><ele>970.0</ele><time>2026-04-04T09:53:41.446Z</time></trkpt><trkpt lat="43.6986583" lon="2.82734"><ele>969.0</ele><time>2026-04-04T09:53:42.446Z</time></trkpt><trkpt lat="43.6986983" lon="2.8271317"><ele>968.0</ele><time>2026-04-04T09:53:43.446Z</time></trkpt><trkpt lat="43.6987483" lon="2.8269217"><ele>967.0</ele><time>2026-04-04T09:53:44.445Z</time></trkpt><trkpt lat="43.6988" lon="2.8267083"><ele>967.0</ele><time>2026-04-04T09:53:45.443Z</time></trkpt><trkpt lat="43.69885" lon="2.8264867"><ele>967.0</ele><time>2026-04-04T09:53:46.446Z</time></trkpt><trkpt lat="43.6989017" lon="2.8262533"><ele>967.0</ele><time>2026-04-04T09:53:47.445Z</time></trkpt><trkpt lat="43.69895" lon="2.8260117"><ele>967.3333333333333</ele><time>2026-04-04T09:53:48.445Z</time></trkpt><trkpt lat="43.6990033" lon="2.8257633"><ele>967.6666666666667</ele><time>2026-04-04T09:53:49.447Z</time></trkpt><trkpt lat="43.6990533" lon="2.8255033"><ele>968.0</ele><time>2026-04-04T09:53:50.443Z</time></trkpt><trkpt lat="43.699085" lon="2.825265"><ele>968.25</ele><time>2026-04-04T09:53:51.447Z</time></trkpt><trkpt lat="43.699095" lon="2.8250617"><ele>968.5</ele><time>2026-04-04T09:53:52.445Z</time></trkpt><trkpt lat="43.6990983" lon="2.82489"><ele>968.75</ele><time>2026-04-04T09:53:53.445Z</time></trkpt><trkpt lat="43.69911" lon="2.8247317"><ele>969.0</ele><time>2026-04-04T09:53:54.445Z</time></trkpt><trkpt lat="43.6991267" lon="2.8245633"><ele>969.0</ele><time>2026-04-04T09:53:55.447Z</time></trkpt><trkpt lat="43.699155" lon="2.824365"><ele>969.0</ele><time>2026-04-04T09:53:56.445Z</time></trkpt><trkpt lat="43.6991883" lon="2.823905"><ele>967.6666666666667</ele><time>2026-04-04T09:53:58.445Z</time></trkpt><trkpt lat="43.6991867" lon="2.8236717"><ele>966.3333333333334</ele><time>2026-04-04T09:53:59.446Z</time></trkpt><trkpt lat="43.6991733" lon="2.8234483"><ele>965.0</ele><time>2026-04-04T09:54:00.446Z</time></trkpt><trkpt lat="43.699155" lon="2.8232417"><ele>964.2</ele><time>2026-04-04T09:54:01.444Z</time></trkpt><trkpt lat="43.6991267" lon="2.8230783"><ele>963.4</ele><time>2026-04-04T09:54:02.444Z</time></trkpt><trkpt lat="43.6991067" lon="2.822945"><ele>962.5999999999999</ele><time>2026-04-04T09:54:03.446Z</time></trkpt><trkpt lat="43.69909" lon="2.8228417"><ele>961.8</ele><time>2026-04-04T09:54:04.443Z</time></trkpt><trkpt lat="43.6990367" lon="2.8227467"><ele>961.0</ele><time>2026-04-04T09:54:06.445Z</time></trkpt><trkpt lat="43.6989617" lon="2.8228317"><ele>961.0</ele><time>2026-04-04T09:54:09.443Z</time></trkpt><trkpt lat="43.6989217" lon="2.8229417"><ele>960.9999999999999</ele><time>2026-04-04T09:54:10.444Z</time></trkpt><trkpt lat="43.6988767" lon="2.8230617"><ele>960.9999999999999</ele><time>2026-04-04T09:54:11.443Z</time></trkpt><trkpt lat="43.69883" lon="2.8231583"><ele>961.0</ele><time>2026-04-04T09:54:12.447Z</time></trkpt><trkpt lat="43.698785" lon="2.823235"><ele>961.0</ele><time>2026-04-04T09:54:13.446Z</time></trkpt><trkpt lat="43.6986967" lon="2.8233267"><ele>961.0</ele><time>2026-04-04T09:54:15.445Z</time></trkpt><trkpt lat="43.698625" lon="2.8233067"><ele>960.9999999999999</ele><time>2026-04-04T09:54:17.445Z</time></trkpt><trkpt lat="43.6985167" lon="2.8230883"><ele>960.9999999999999</ele><time>2026-04-04T09:54:20.445Z</time></trkpt><trkpt lat="43.6984783" lon="2.8230133"><ele>961.0</ele><time>2026-04-04T09:54:21.445Z</time></trkpt><trkpt lat="43.6984367" lon="2.822935"><ele>961.0</ele><time>2026-04-04T09:54:22.443Z</time></trkpt><trkpt lat="43.6983933" lon="2.8228483"><ele>960.3333333333333</ele><time>2026-04-04T09:54:23.446Z</time></trkpt><trkpt lat="43.69835" lon="2.8227617"><ele>959.6666666666666</ele><time>2026-04-04T09:54:24.445Z</time></trkpt><trkpt lat="43.6983033" lon="2.8226717"><ele>959.0</ele><time>2026-04-04T09:54:25.447Z</time></trkpt><trkpt lat="43.698255" lon="2.8225867"><ele>958.3333333333333</ele><time>2026-04-04T09:54:26.445Z</time></trkpt><trkpt lat="43.6982117" lon="2.8224967"><ele>957.6666666666666</ele><time>2026-04-04T09:54:27.446Z</time></trkpt><trkpt lat="43.6981683" lon="2.8224017"><ele>957.0</ele><time>2026-04-04T09:54:28.445Z</time></trkpt><trkpt lat="43.6981267" lon="2.8223117"><ele>958.6666666666666</ele><time>2026-04-04T09:54:29.445Z</time></trkpt><trkpt lat="43.6980917" lon="2.822225"><ele>960.3333333333333</ele><time>2026-04-04T09:54:30.443Z</time></trkpt><trkpt lat="43.6980567" lon="2.822145"><ele>962.0</ele><time>2026-04-04T09:54:31.443Z</time></trkpt><trkpt lat="43.6980217" lon="2.8220717"><ele>963.6666666666666</ele><time>2026-04-04T09:54:32.446Z</time></trkpt><trkpt lat="43.6979933" lon="2.82193"><ele>965.3333333333333</ele><time>2026-04-04T09:54:34.443Z</time></trkpt><trkpt lat="43.6980067" lon="2.8218283"><ele>967.0</ele><time>2026-04-04T09:54:36.445Z</time></trkpt><trkpt lat="43.6980767" lon="2.8219583"><ele>967.0</ele><time>2026-04-04T09:54:40.446Z</time></trkpt><trkpt lat="43.6981317" lon="2.8222333"><ele>967.0</ele><time>2026-04-04T09:54:42.446Z</time></trkpt><trkpt lat="43.698175" lon="2.822365"><ele>967.0</ele><time>2026-04-04T09:54:43.443Z</time></trkpt><trkpt lat="43.698235" lon="2.8224867"><ele>967.0</ele><time>2026-04-04T09:54:44.446Z</time></trkpt><trkpt lat="43.698305" lon="2.8226317"><ele>965.5</ele><time>2026-04-04T09:54:45.446Z</time></trkpt><trkpt lat="43.6983783" lon="2.8227867"><ele>964.0</ele><time>2026-04-04T09:54:46.443Z</time></trkpt><trkpt lat="43.6984567" lon="2.8229417"><ele>962.5</ele><time>2026-04-04T09:54:47.446Z</time></trkpt><trkpt lat="43.6985333" lon="2.823075"><ele>961.0</ele><time>2026-04-04T09:54:48.446Z</time></trkpt><trkpt lat="43.69859" lon="2.8231717"><ele>961.0</ele><time>2026-04-04T09:54:49.447Z</time></trkpt><trkpt lat="43.6986467" lon="2.8232433"><ele>960.9999999999999</ele><time>2026-04-04T09:54:50.447Z</time></trkpt><trkpt lat="43.698705" lon="2.8232833"><ele>960.9999999999999</ele><time>2026-04-04T09:54:51.446Z</time></trkpt><trkpt lat="43.6987967" lon="2.823255"><ele>961.0</ele><time>2026-04-04T09:54:53.445Z</time></trkpt><trkpt lat="43.69888" lon="2.8230617"><ele>961.0</ele><time>2026-04-04T09:54:55.446Z</time></trkpt><trkpt lat="43.6989417" lon="2.8229117"><ele>961.0</ele><time>2026-04-04T09:54:56.446Z</time></trkpt><trkpt lat="43.6990133" lon="2.8227633"><ele>961.0</ele><time>2026-04-04T09:54:57.447Z</time></trkpt><trkpt lat="43.69909" lon="2.8226167"><ele>961.0</ele><time>2026-04-04T09:54:58.446Z</time></trkpt><trkpt lat="43.6991817" lon="2.8224633"><ele>961.0</ele><time>2026-04-04T09:54:59.447Z</time></trkpt><trkpt lat="43.69928" lon="2.8222967"><ele>961.5</ele><time>2026-04-04T09:55:00.446Z</time></trkpt><trkpt lat="43.699385" lon="2.8221117"><ele>962.0</ele><time>2026-04-04T09:55:01.447Z</time></trkpt><trkpt lat="43.6995867" lon="2.821715"><ele>958.3333333333334</ele><time>2026-04-04T09:55:03.443Z</time></trkpt><trkpt lat="43.6996633" lon="2.8215083"><ele>954.6666666666667</ele><time>2026-04-04T09:55:04.446Z</time></trkpt><trkpt lat="43.6997217" lon="2.8212983"><ele>951.0</ele><time>2026-04-04T09:55:05.446Z</time></trkpt><trkpt lat="43.6997783" lon="2.8210967"><ele>951.0</ele><time>2026-04-04T09:55:06.446Z</time></trkpt><trkpt lat="43.6998417" lon="2.8209083"><ele>951.0</ele><time>2026-04-04T09:55:07.446Z</time></trkpt><trkpt lat="43.6999083" lon="2.8207317"><ele>951.0</ele><time>2026-04-04T09:55:08.443Z</time></trkpt><trkpt lat="43.69998" lon="2.82056"><ele>951.0</ele><time>2026-04-04T09:55:09.443Z</time></trkpt><trkpt lat="43.70007" lon="2.8203817"><ele>951.0</ele><time>2026-04-04T09:55:10.443Z</time></trkpt><trkpt lat="43.7001617" lon="2.8202"><ele>951.0</ele><time>2026-04-04T09:55:11.443Z</time></trkpt><trkpt lat="43.7002483" lon="2.820025"><ele>951.0</ele><time>2026-04-04T09:55:12.443Z</time></trkpt><trkpt lat="43.7003317" lon="2.819865"><ele>946.75</ele><time>2026-04-04T09:55:13.446Z</time></trkpt><trkpt lat="43.700415" lon="2.819715"><ele>942.5</ele><time>2026-04-04T09:55:14.445Z</time></trkpt><trkpt lat="43.7005017" lon="2.8195433"><ele>938.25</ele><time>2026-04-04T09:55:15.444Z</time></trkpt><trkpt lat="43.700575" lon="2.81938"><ele>934.0</ele><time>2026-04-04T09:55:16.445Z</time></trkpt><trkpt lat="43.7006467" lon="2.819215"><ele>934.0</ele><time>2026-04-04T09:55:17.445Z</time></trkpt><trkpt lat="43.7007083" lon="2.8190433"><ele>934.0</ele><time>2026-04-04T09:55:18.444Z</time></trkpt><trkpt lat="43.7007617" lon="2.8188683"><ele>934.0</ele><time>2026-04-04T09:55:19.447Z</time></trkpt><trkpt lat="43.7008083" lon="2.8186967"><ele>934.0</ele><time>2026-04-04T09:55:20.444Z</time></trkpt><trkpt lat="43.7008467" lon="2.8185617"><ele>934.0</ele><time>2026-04-04T09:55:21.446Z</time></trkpt><trkpt lat="43.7008817" lon="2.8184583"><ele>934.0000000000001</ele><time>2026-04-04T09:55:22.443Z</time></trkpt><trkpt lat="43.7007867" lon="2.8183883"><ele>934.0000000000001</ele><time>2026-04-04T09:55:27.443Z</time></trkpt><trkpt lat="43.7006783" lon="2.8184617"><ele>934.0</ele><time>2026-04-04T09:55:29.444Z</time></trkpt><trkpt lat="43.700615" lon="2.8185067"><ele>934.0</ele><time>2026-04-04T09:55:30.447Z</time></trkpt><trkpt lat="43.7005467" lon="2.8185533"><ele>933.9999999999999</ele><time>2026-04-04T09:55:31.444Z</time></trkpt><trkpt lat="43.7004767" lon="2.8186233"><ele>934.0</ele><time>2026-04-04T09:55:32.446Z</time></trkpt><trkpt lat="43.70042" lon="2.8187017"><ele>934.0</ele><time>2026-04-04T09:55:33.445Z</time></trkpt><trkpt lat="43.7003617" lon="2.8187867"><ele>934.0</ele><time>2026-04-04T09:55:34.443Z</time></trkpt><trkpt lat="43.7003167" lon="2.8188883"><ele>933.9999999999999</ele><time>2026-04-04T09:55:35.443Z</time></trkpt><trkpt lat="43.7002667" lon="2.8190017"><ele>934.0</ele><time>2026-04-04T09:55:36.443Z</time></trkpt><trkpt lat="43.7002167" lon="2.8191183"><ele>938.5</ele><time>2026-04-04T09:55:37.444Z</time></trkpt><trkpt lat="43.7001567" lon="2.819235"><ele>943.0</ele><time>2026-04-04T09:55:38.443Z</time></trkpt><trkpt lat="43.700085" lon="2.81936"><ele>947.5</ele><time>2026-04-04T09:55:39.444Z</time></trkpt><trkpt lat="43.70001" lon="2.8194917"><ele>952.0</ele><time>2026-04-04T09:55:40.444Z</time></trkpt><trkpt lat="43.69992" lon="2.8196283"><ele>952.0</ele><time>2026-04-04T09:55:41.442Z</time></trkpt><trkpt lat="43.6998283" lon="2.8197517"><ele>952.0</ele><time>2026-04-04T09:55:42.444Z</time></trkpt><trkpt lat="43.6997317" lon="2.81985"><ele>952.0</ele><time>2026-04-04T09:55:43.445Z</time></trkpt><trkpt lat="43.6995217" lon="2.8199733"><ele>954.6</ele><time>2026-04-04T09:55:45.446Z</time></trkpt><trkpt lat="43.6994067" lon="2.8200083"><ele>957.2</ele><time>2026-04-04T09:55:46.446Z</time></trkpt><trkpt lat="43.6992917" lon="2.8200283"><ele>959.8</ele><time>2026-04-04T09:55:47.442Z</time></trkpt><trkpt lat="43.699185" lon="2.820025"><ele>962.4</ele><time>2026-04-04T09:55:48.445Z</time></trkpt><trkpt lat="43.6990933" lon="2.8199783"><ele>965.0</ele><time>2026-04-04T09:55:49.444Z</time></trkpt><trkpt lat="43.6989983" lon="2.819895"><ele>965.0</ele><time>2026-04-04T09:55:50.444Z</time></trkpt><trkpt lat="43.6988917" lon="2.8198167"><ele>965.0</ele><time>2026-04-04T09:55:51.447Z</time></trkpt><trkpt lat="43.69878" lon="2.819745"><ele>965.0</ele><time>2026-04-04T09:55:52.445Z</time></trkpt><trkpt lat="43.69867" lon="2.8196817"><ele>965.0</ele><time>2026-04-04T09:55:53.442Z</time></trkpt><trkpt lat="43.6985683" lon="2.8196"><ele>966.5</ele><time>2026-04-04T09:55:54.444Z</time></trkpt><trkpt lat="43.698495" lon="2.819485"><ele>968.0</ele><time>2026-04-04T09:55:55.447Z</time></trkpt><trkpt lat="43.698435" lon="2.8193367"><ele>969.5</ele><time>2026-04-04T09:55:56.445Z</time></trkpt><trkpt lat="43.698385" lon="2.8191667"><ele>971.0</ele><time>2026-04-04T09:55:57.446Z</time></trkpt><trkpt lat="43.69834" lon="2.8189883"><ele>971.0</ele><time>2026-04-04T09:55:58.444Z</time></trkpt><trkpt lat="43.6982883" lon="2.8188033"><ele>971.0</ele><time>2026-04-04T09:55:59.444Z</time></trkpt><trkpt lat="43.6982483" lon="2.818605"><ele>971.0</ele><time>2026-04-04T09:56:00.443Z</time></trkpt><trkpt lat="43.6982" lon="2.8184117"><ele>971.0</ele><time>2026-04-04T09:56:01.443Z</time></trkpt><trkpt lat="43.6981383" lon="2.8182317"><ele>971.0</ele><time>2026-04-04T09:56:02.446Z</time></trkpt><trkpt lat="43.6980833" lon="2.8180517"><ele>971.0</ele><time>2026-04-04T09:56:03.444Z</time></trkpt><trkpt lat="43.698045" lon="2.817865"><ele>971.0</ele><time>2026-04-04T09:56:04.445Z</time></trkpt><trkpt lat="43.6980083" lon="2.8174517"><ele>971.0</ele><time>2026-04-04T09:56:06.445Z</time></trkpt><trkpt lat="43.698005" lon="2.8172167"><ele>971.0</ele><time>2026-04-04T09:56:07.444Z</time></trkpt><trkpt lat="43.6979933" lon="2.8169983"><ele>971.0</ele><time>2026-04-04T09:56:08.444Z</time></trkpt><trkpt lat="43.69797" lon="2.8167967"><ele>971.5</ele><time>2026-04-04T09:56:09.445Z</time></trkpt><trkpt lat="43.69793" lon="2.8166083"><ele>972.0</ele><time>2026-04-04T09:56:10.444Z</time></trkpt><trkpt lat="43.6978983" lon="2.8164367"><ele>972.5</ele><time>2026-04-04T09:56:11.445Z</time></trkpt><trkpt lat="43.6979" lon="2.8162683"><ele>973.0</ele><time>2026-04-04T09:56:12.445Z</time></trkpt><trkpt lat="43.69791" lon="2.8160917"><ele>975.5</ele><time>2026-04-04T09:56:13.445Z</time></trkpt><trkpt lat="43.69793" lon="2.815925"><ele>978.0</ele><time>2026-04-04T09:56:14.446Z</time></trkpt><trkpt lat="43.6979483" lon="2.81576"><ele>980.5</ele><time>2026-04-04T09:56:15.447Z</time></trkpt><trkpt lat="43.697965" lon="2.81559"><ele>983.0</ele><time>2026-04-04T09:56:16.444Z</time></trkpt><trkpt lat="43.69796" lon="2.81543"><ele>983.0</ele><time>2026-04-04T09:56:17.443Z</time></trkpt><trkpt lat="43.69796" lon="2.8153067"><ele>983.0</ele><time>2026-04-04T09:56:18.444Z</time></trkpt><trkpt lat="43.6979483" lon="2.81521"><ele>983.0</ele><time>2026-04-04T09:56:19.446Z</time></trkpt><trkpt lat="43.6979517" lon="2.8151117"><ele>983.0</ele><time>2026-04-04T09:56:20.444Z</time></trkpt><trkpt lat="43.6979933" lon="2.8149783"><ele>983.0</ele><time>2026-04-04T09:56:22.443Z</time></trkpt><trkpt lat="43.6980483" lon="2.8148333"><ele>984.75</ele><time>2026-04-04T09:56:24.446Z</time></trkpt><trkpt lat="43.698065" lon="2.814735"><ele>986.5</ele><time>2026-04-04T09:56:25.444Z</time></trkpt><trkpt lat="43.6981017" lon="2.8144933"><ele>988.25</ele><time>2026-04-04T09:56:27.446Z</time></trkpt><trkpt lat="43.6981183" lon="2.8143483"><ele>990.0</ele><time>2026-04-04T09:56:28.533Z</time></trkpt><trkpt lat="43.6981367" lon="2.8141783"><ele>991.5</ele><time>2026-04-04T09:56:29.443Z</time></trkpt><trkpt lat="43.6981467" lon="2.8139967"><ele>993.0</ele><time>2026-04-04T09:56:30.443Z</time></trkpt><trkpt lat="43.6981517" lon="2.8138017"><ele>994.5</ele><time>2026-04-04T09:56:31.444Z</time></trkpt><trkpt lat="43.6981433" lon="2.8135917"><ele>996.0</ele><time>2026-04-04T09:56:32.443Z</time></trkpt><trkpt lat="43.69814" lon="2.81336"><ele>996.0</ele><time>2026-04-04T09:56:33.443Z</time></trkpt><trkpt lat="43.6981533" lon="2.81311"><ele>996.0</ele><time>2026-04-04T09:56:34.444Z</time></trkpt><trkpt lat="43.6981767" lon="2.8128567"><ele>996.0</ele><time>2026-04-04T09:56:35.443Z</time></trkpt><trkpt lat="43.6981883" lon="2.812625"><ele>995.5999999999999</ele><time>2026-04-04T09:56:36.449Z</time></trkpt><trkpt lat="43.69818" lon="2.8124133"><ele>995.1999999999999</ele><time>2026-04-04T09:56:37.443Z</time></trkpt><trkpt lat="43.6981533" lon="2.812245"><ele>994.8000000000001</ele><time>2026-04-04T09:56:38.445Z</time></trkpt><trkpt lat="43.6981233" lon="2.812125"><ele>994.4000000000001</ele><time>2026-04-04T09:56:39.445Z</time></trkpt><trkpt lat="43.6980983" lon="2.8120317"><ele>994.0</ele><time>2026-04-04T09:56:40.447Z</time></trkpt><trkpt lat="43.6980817" lon="2.8119317"><ele>994.0</ele><time>2026-04-04T09:56:41.445Z</time></trkpt><trkpt lat="43.698065" lon="2.8118267"><ele>994.0000000000001</ele><time>2026-04-04T09:56:42.445Z</time></trkpt><trkpt lat="43.6980583" lon="2.8116967"><ele>994.0000000000001</ele><time>2026-04-04T09:56:43.446Z</time></trkpt><trkpt lat="43.6980567" lon="2.8115417"><ele>994.0</ele><time>2026-04-04T09:56:44.444Z</time></trkpt><trkpt lat="43.6980583" lon="2.811375"><ele>994.0</ele><time>2026-04-04T09:56:45.444Z</time></trkpt><trkpt lat="43.6980767" lon="2.8111967"><ele>994.6666666666666</ele><time>2026-04-04T09:56:46.446Z</time></trkpt><trkpt lat="43.6981583" lon="2.8108267"><ele>995.3333333333333</ele><time>2026-04-04T09:56:48.446Z</time></trkpt><trkpt lat="43.6982117" lon="2.8106367"><ele>996.0</ele><time>2026-04-04T09:56:49.443Z</time></trkpt><trkpt lat="43.6982717" lon="2.8104183"><ele>996.0</ele><time>2026-04-04T09:56:50.442Z</time></trkpt><trkpt lat="43.6983333" lon="2.81019"><ele>996.0</ele><time>2026-04-04T09:56:51.446Z</time></trkpt><trkpt lat="43.698405" lon="2.8099583"><ele>996.0</ele><time>2026-04-04T09:56:52.445Z</time></trkpt><trkpt lat="43.6984867" lon="2.8097417"><ele>996.6666666666667</ele><time>2026-04-04T09:56:53.446Z</time></trkpt><trkpt lat="43.698585" lon="2.8095367"><ele>997.3333333333334</ele><time>2026-04-04T09:56:54.443Z</time></trkpt><trkpt lat="43.6986867" lon="2.8093267"><ele>998.0</ele><time>2026-04-04T09:56:55.444Z</time></trkpt><trkpt lat="43.6987933" lon="2.809115"><ele>998.0</ele><time>2026-04-04T09:56:56.445Z</time></trkpt><trkpt lat="43.69889" lon="2.8089233"><ele>998.0</ele><time>2026-04-04T09:56:57.444Z</time></trkpt><trkpt lat="43.6989667" lon="2.8087317"><ele>998.0</ele><time>2026-04-04T09:56:58.444Z</time></trkpt><trkpt lat="43.6990183" lon="2.8085383"><ele>999.6666666666667</ele><time>2026-04-04T09:56:59.444Z</time></trkpt><trkpt lat="43.699045" lon="2.80835"><ele>1001.3333333333333</ele><time>2026-04-04T09:57:00.445Z</time></trkpt><trkpt lat="43.6990417" lon="2.8081467"><ele>1003.0</ele><time>2026-04-04T09:57:01.446Z</time></trkpt><trkpt lat="43.6990483" lon="2.8079167"><ele>1003.0</ele><time>2026-04-04T09:57:02.445Z</time></trkpt><trkpt lat="43.6990517" lon="2.8076733"><ele>1003.0</ele><time>2026-04-04T09:57:03.444Z</time></trkpt><trkpt lat="43.6990517" lon="2.8074333"><ele>1003.0</ele><time>2026-04-04T09:57:04.447Z</time></trkpt><trkpt lat="43.699055" lon="2.8072117"><ele>1001.3333333333333</ele><time>2026-04-04T09:57:05.446Z</time></trkpt><trkpt lat="43.6990783" lon="2.8070217"><ele>999.6666666666667</ele><time>2026-04-04T09:57:06.444Z</time></trkpt><trkpt lat="43.69912" lon="2.806855"><ele>998.0</ele><time>2026-04-04T09:57:07.444Z</time></trkpt><trkpt lat="43.69928" lon="2.8066183"><ele>996.25</ele><time>2026-04-04T09:57:09.444Z</time></trkpt><trkpt lat="43.699375" lon="2.8065833"><ele>994.5</ele><time>2026-04-04T09:57:10.446Z</time></trkpt><trkpt lat="43.6994783" lon="2.8065733"><ele>992.75</ele><time>2026-04-04T09:57:11.445Z</time></trkpt><trkpt lat="43.69964" lon="2.8065967"><ele>991.0</ele><time>2026-04-04T09:57:12.445Z</time></trkpt><trkpt lat="43.6998017" lon="2.8066017"><ele>989.0</ele><time>2026-04-04T09:57:13.444Z</time></trkpt><trkpt lat="43.69997" lon="2.8066033"><ele>987.0</ele><time>2026-04-04T09:57:14.445Z</time></trkpt><trkpt lat="43.7001333" lon="2.8066"><ele>985.0</ele><time>2026-04-04T09:57:15.444Z</time></trkpt><trkpt lat="43.7002933" lon="2.80658"><ele>982.3333333333333</ele><time>2026-04-04T09:57:16.444Z</time></trkpt><trkpt lat="43.700455" lon="2.806545"><ele>979.6666666666667</ele><time>2026-04-04T09:57:17.444Z</time></trkpt><trkpt lat="43.7006083" lon="2.8065017"><ele>977.0</ele><time>2026-04-04T09:57:18.444Z</time></trkpt><trkpt lat="43.700755" lon="2.8064567"><ele>977.0</ele><time>2026-04-04T09:57:19.444Z</time></trkpt><trkpt lat="43.7009" lon="2.8064117"><ele>977.0</ele><time>2026-04-04T09:57:20.444Z</time></trkpt><trkpt lat="43.7010417" lon="2.8063617"><ele>977.0</ele><time>2026-04-04T09:57:21.444Z</time></trkpt><trkpt lat="43.7011667" lon="2.806305"><ele>977.0</ele><time>2026-04-04T09:57:22.445Z</time></trkpt><trkpt lat="43.701265" lon="2.8062383"><ele>974.75</ele><time>2026-04-04T09:57:23.444Z</time></trkpt><trkpt lat="43.701345" lon="2.8061383"><ele>972.5</ele><time>2026-04-04T09:57:24.444Z</time></trkpt><trkpt lat="43.7014167" lon="2.8060033"><ele>970.25</ele><time>2026-04-04T09:57:25.444Z</time></trkpt><trkpt lat="43.7014967" lon="2.8058517"><ele>968.0</ele><time>2026-04-04T09:57:26.444Z</time></trkpt><trkpt lat="43.70158" lon="2.8056983"><ele>967.0</ele><time>2026-04-04T09:57:27.444Z</time></trkpt><trkpt lat="43.7016683" lon="2.80554"><ele>966.0</ele><time>2026-04-04T09:57:28.446Z</time></trkpt><trkpt lat="43.7018417" lon="2.8052567"><ele>965.0</ele><time>2026-04-04T09:57:30.444Z</time></trkpt><trkpt lat="43.70192" lon="2.8051083"><ele>962.0</ele><time>2026-04-04T09:57:31.446Z</time></trkpt><trkpt lat="43.7019983" lon="2.804955"><ele>959.0</ele><time>2026-04-04T09:57:32.444Z</time></trkpt><trkpt lat="43.7020717" lon="2.8047967"><ele>956.0</ele><time>2026-04-04T09:57:33.444Z</time></trkpt><trkpt lat="43.7021367" lon="2.80464"><ele>953.0</ele><time>2026-04-04T09:57:34.445Z</time></trkpt><trkpt lat="43.7021967" lon="2.8044733"><ele>950.5</ele><time>2026-04-04T09:57:35.444Z</time></trkpt><trkpt lat="43.7022683" lon="2.8043217"><ele>948.0</ele><time>2026-04-04T09:57:36.445Z</time></trkpt><trkpt lat="43.7023317" lon="2.8041617"><ele>945.5</ele><time>2026-04-04T09:57:37.445Z</time></trkpt><trkpt lat="43.7023953" lon="2.8039786"><ele>943.0</ele><time>2026-04-04T09:57:38.444Z</time></trkpt><trkpt lat="43.7024606" lon="2.8037839"><ele>943.0</ele><time>2026-04-04T09:57:39.445Z</time></trkpt><trkpt lat="43.7025163" lon="2.8035739"><ele>943.0</ele><time>2026-04-04T09:57:40.444Z</time></trkpt><trkpt lat="43.7025654" lon="2.8033647"><ele>943.0</ele><time>2026-04-04T09:57:41.444Z</time></trkpt><trkpt lat="43.7026065" lon="2.803164"><ele>938.3333333333333</ele><time>2026-04-04T09:57:42.445Z</time></trkpt><trkpt lat="43.7026537" lon="2.8029679"><ele>933.6666666666667</ele><time>2026-04-04T09:57:43.444Z</time></trkpt><trkpt lat="43.7027132" lon="2.8027787"><ele>929.0</ele><time>2026-04-04T09:57:44.444Z</time></trkpt><trkpt lat="43.7027773" lon="2.8025835"><ele>927.5</ele><time>2026-04-04T09:57:45.444Z</time></trkpt><trkpt lat="43.702835" lon="2.802388"><ele>926.0</ele><time>2026-04-04T09:57:46.444Z</time></trkpt><trkpt lat="43.7028698" lon="2.8021981"><ele>924.5</ele><time>2026-04-04T09:57:47.445Z</time></trkpt><trkpt lat="43.7029161" lon="2.8020074"><ele>923.0</ele><time>2026-04-04T09:57:48.446Z</time></trkpt><trkpt lat="43.7029669" lon="2.8018046"><ele>915.5</ele><time>2026-04-04T09:57:49.446Z</time></trkpt><trkpt lat="43.7030678" lon="2.8012994"><ele>908.0</ele><time>2026-04-04T09:57:51.446Z</time></trkpt><trkpt lat="43.7031171" lon="2.8010288"><ele>903.3333333333334</ele><time>2026-04-04T09:57:52.445Z</time></trkpt><trkpt lat="43.7031584" lon="2.8007511"><ele>898.6666666666667</ele><time>2026-04-04T09:57:53.442Z</time></trkpt><trkpt lat="43.7032006" lon="2.8004651"><ele>894.0</ele><time>2026-04-04T09:57:54.446Z</time></trkpt><trkpt lat="43.7032372" lon="2.8001783"><ele>891.6666666666667</ele><time>2026-04-04T09:57:55.443Z</time></trkpt><trkpt lat="43.7032769" lon="2.7998835"><ele>889.3333333333334</ele><time>2026-04-04T09:57:56.446Z</time></trkpt><trkpt lat="43.7033191" lon="2.799576"><ele>887.0</ele><time>2026-04-04T09:57:57.446Z</time></trkpt><trkpt lat="43.7033562" lon="2.7992682"><ele>883.0</ele><time>2026-04-04T09:57:58.446Z</time></trkpt><trkpt lat="43.7033837" lon="2.7989563"><ele>879.0</ele><time>2026-04-04T09:57:59.446Z</time></trkpt><trkpt lat="43.7034001" lon="2.7986467"><ele>877.3333333333333</ele><time>2026-04-04T09:58:00.445Z</time></trkpt><trkpt lat="43.7033942" lon="2.7983528"><ele>875.6666666666666</ele><time>2026-04-04T09:58:01.447Z</time></trkpt><trkpt lat="43.7033744" lon="2.7980808"><ele>874.0</ele><time>2026-04-04T09:58:02.443Z</time></trkpt><trkpt lat="43.7033485" lon="2.7978334"><ele>874.0</ele><time>2026-04-04T09:58:03.443Z</time></trkpt><trkpt lat="43.7033305" lon="2.7975959"><ele>874.0</ele><time>2026-04-04T09:58:04.446Z</time></trkpt><trkpt lat="43.7033345" lon="2.7973561"><ele>874.0</ele><time>2026-04-04T09:58:05.446Z</time></trkpt><trkpt lat="43.7033549" lon="2.7971201"><ele>874.0</ele><time>2026-04-04T09:58:06.445Z</time></trkpt><trkpt lat="43.7033795" lon="2.7968787"><ele>874.0</ele><time>2026-04-04T09:58:07.446Z</time></trkpt><trkpt lat="43.7033972" lon="2.7966453"><ele>874.0</ele><time>2026-04-04T09:58:08.445Z</time></trkpt><trkpt lat="43.7034071" lon="2.7964239"><ele>872.5</ele><time>2026-04-04T09:58:09.446Z</time></trkpt><trkpt lat="43.7034153" lon="2.7962096"><ele>871.0</ele><time>2026-04-04T09:58:10.446Z</time></trkpt><trkpt lat="43.7034233" lon="2.7958"><ele>869.25</ele><time>2026-04-04T09:58:12.446Z</time></trkpt><trkpt lat="43.7034167" lon="2.7956017"><ele>867.5</ele><time>2026-04-04T09:58:13.443Z</time></trkpt><trkpt lat="43.703405" lon="2.7954333"><ele>865.75</ele><time>2026-04-04T09:58:14.443Z</time></trkpt><trkpt lat="43.7033933" lon="2.79529"><ele>864.0</ele><time>2026-04-04T09:58:15.443Z</time></trkpt><trkpt lat="43.7034117" lon="2.7951583"><ele>862.6666666666666</ele><time>2026-04-04T09:58:16.443Z</time></trkpt><trkpt lat="43.703445" lon="2.7950283"><ele>861.3333333333333</ele><time>2026-04-04T09:58:17.446Z</time></trkpt><trkpt lat="43.7034867" lon="2.7949083"><ele>860.0</ele><time>2026-04-04T09:58:18.445Z</time></trkpt><trkpt lat="43.7035217" lon="2.7947883"><ele>858.6666666666666</ele><time>2026-04-04T09:58:19.443Z</time></trkpt><trkpt lat="43.7035417" lon="2.7946833"><ele>857.3333333333333</ele><time>2026-04-04T09:58:20.442Z</time></trkpt><trkpt lat="43.703555" lon="2.7945833"><ele>856.0</ele><time>2026-04-04T09:58:21.444Z</time></trkpt><trkpt lat="43.7035633" lon="2.7944967"><ele>855.5999999999999</ele><time>2026-04-04T09:58:22.444Z</time></trkpt><trkpt lat="43.7036167" lon="2.794375"><ele>855.1999999999999</ele><time>2026-04-04T09:58:24.445Z</time></trkpt><trkpt lat="43.7037" lon="2.7942933"><ele>854.8000000000001</ele><time>2026-04-04T09:58:26.445Z</time></trkpt><trkpt lat="43.7038033" lon="2.7942517"><ele>854.4000000000001</ele><time>2026-04-04T09:58:28.443Z</time></trkpt><trkpt lat="43.7038883" lon="2.7941783"><ele>854.0</ele><time>2026-04-04T09:58:30.444Z</time></trkpt><trkpt lat="43.7039133" lon="2.7940233"><ele>853.2</ele><time>2026-04-04T09:58:32.443Z</time></trkpt><trkpt lat="43.7039333" lon="2.793835"><ele>852.4000000000001</ele><time>2026-04-04T09:58:34.444Z</time></trkpt><trkpt lat="43.7039383" lon="2.7937417"><ele>851.6</ele><time>2026-04-04T09:58:35.443Z</time></trkpt><trkpt lat="43.703945" lon="2.7936517"><ele>850.8</ele><time>2026-04-04T09:58:36.444Z</time></trkpt><trkpt lat="43.703965" lon="2.79348"><ele>850.0</ele><time>2026-04-04T09:58:38.443Z</time></trkpt><trkpt lat="43.7039883" lon="2.7933733"><ele>848.5</ele><time>2026-04-04T09:58:39.444Z</time></trkpt><trkpt lat="43.7040217" lon="2.7932467"><ele>847.0</ele><time>2026-04-04T09:58:40.443Z</time></trkpt><trkpt lat="43.7040733" lon="2.7930967"><ele>845.5</ele><time>2026-04-04T09:58:41.449Z</time></trkpt><trkpt lat="43.7041283" lon="2.792925"><ele>844.0</ele><time>2026-04-04T09:58:42.445Z</time></trkpt><trkpt lat="43.7041733" lon="2.7927333"><ele>842.0</ele><time>2026-04-04T09:58:43.443Z</time></trkpt><trkpt lat="43.7042017" lon="2.79251"><ele>840.0</ele><time>2026-04-04T09:58:44.445Z</time></trkpt><trkpt lat="43.7042017" lon="2.7922583"><ele>838.0</ele><time>2026-04-04T09:58:45.445Z</time></trkpt><trkpt lat="43.7041833" lon="2.7919867"><ele>836.6666666666666</ele><time>2026-04-04T09:58:46.444Z</time></trkpt><trkpt lat="43.7041533" lon="2.7917167"><ele>835.3333333333333</ele><time>2026-04-04T09:58:47.447Z</time></trkpt><trkpt lat="43.70412" lon="2.7914467"><ele>834.0</ele><time>2026-04-04T09:58:48.445Z</time></trkpt><trkpt lat="43.7040833" lon="2.7911767"><ele>833.6666666666667</ele><time>2026-04-04T09:58:49.444Z</time></trkpt><trkpt lat="43.7040417" lon="2.7909083"><ele>833.3333333333334</ele><time>2026-04-04T09:58:50.445Z</time></trkpt><trkpt lat="43.7040033" lon="2.7906417"><ele>833.0</ele><time>2026-04-04T09:58:51.443Z</time></trkpt><trkpt lat="43.7039667" lon="2.790375"><ele>833.5</ele><time>2026-04-04T09:58:52.446Z</time></trkpt><trkpt lat="43.7039317" lon="2.79011"><ele>834.0</ele><time>2026-04-04T09:58:53.444Z</time></trkpt><trkpt lat="43.7038867" lon="2.7895817"><ele>833.0</ele><time>2026-04-04T09:58:55.447Z</time></trkpt><trkpt lat="43.70387" lon="2.789325"><ele>832.0</ele><time>2026-04-04T09:58:56.442Z</time></trkpt><trkpt lat="43.703865" lon="2.789075"><ele>831.0</ele><time>2026-04-04T09:58:57.447Z</time></trkpt><trkpt lat="43.7038683" lon="2.7888317"><ele>831.0</ele><time>2026-04-04T09:58:58.446Z</time></trkpt><trkpt lat="43.70389" lon="2.7885833"><ele>831.0</ele><time>2026-04-04T09:58:59.443Z</time></trkpt><trkpt lat="43.7039117" lon="2.7883383"><ele>831.0</ele><time>2026-04-04T09:59:00.443Z</time></trkpt><trkpt lat="43.703935" lon="2.7881017"><ele>830.6666666666667</ele><time>2026-04-04T09:59:01.444Z</time></trkpt><trkpt lat="43.7039417" lon="2.7878667"><ele>830.3333333333334</ele><time>2026-04-04T09:59:02.446Z</time></trkpt><trkpt lat="43.703935" lon="2.787625"><ele>830.0</ele><time>2026-04-04T09:59:03.445Z</time></trkpt><trkpt lat="43.7039117" lon="2.78738"><ele>829.0</ele><time>2026-04-04T09:59:04.444Z</time></trkpt><trkpt lat="43.7038717" lon="2.7871383"><ele>828.0</ele><time>2026-04-04T09:59:05.446Z</time></trkpt><trkpt lat="43.70382" lon="2.7868883"><ele>827.0</ele><time>2026-04-04T09:59:06.445Z</time></trkpt><trkpt lat="43.703775" lon="2.7866283"><ele>827.0</ele><time>2026-04-04T09:59:07.443Z</time></trkpt><trkpt lat="43.7037267" lon="2.7863683"><ele>827.0</ele><time>2026-04-04T09:59:08.446Z</time></trkpt><trkpt lat="43.7036733" lon="2.7861133"><ele>827.0</ele><time>2026-04-04T09:59:09.444Z</time></trkpt><trkpt lat="43.7036183" lon="2.7858767"><ele>827.6666666666667</ele><time>2026-04-04T09:59:10.444Z</time></trkpt><trkpt lat="43.7035617" lon="2.7856417"><ele>828.3333333333333</ele><time>2026-04-04T09:59:11.442Z</time></trkpt><trkpt lat="43.703485" lon="2.7854117"><ele>829.0</ele><time>2026-04-04T09:59:12.444Z</time></trkpt><trkpt lat="43.7034" lon="2.7851817"><ele>827.5</ele><time>2026-04-04T09:59:13.443Z</time></trkpt><trkpt lat="43.7033" lon="2.7849483"><ele>826.0</ele><time>2026-04-04T09:59:14.446Z</time></trkpt><trkpt lat="43.7030817" lon="2.78448"><ele>825.3333333333333</ele><time>2026-04-04T09:59:16.443Z</time></trkpt><trkpt lat="43.7029783" lon="2.7842383"><ele>824.6666666666667</ele><time>2026-04-04T09:59:17.443Z</time></trkpt><trkpt lat="43.7028733" lon="2.7839933"><ele>824.0</ele><time>2026-04-04T09:59:18.443Z</time></trkpt><trkpt lat="43.7027667" lon="2.7837517"><ele>823.6666666666667</ele><time>2026-04-04T09:59:19.446Z</time></trkpt><trkpt lat="43.7026633" lon="2.7835167"><ele>823.3333333333333</ele><time>2026-04-04T09:59:20.443Z</time></trkpt><trkpt lat="43.7025717" lon="2.7833"><ele>823.0</ele><time>2026-04-04T09:59:21.445Z</time></trkpt><trkpt lat="43.7024817" lon="2.7830933"><ele>823.0</ele><time>2026-04-04T09:59:22.443Z</time></trkpt><trkpt lat="43.702395" lon="2.7829017"><ele>823.0</ele><time>2026-04-04T09:59:23.446Z</time></trkpt><trkpt lat="43.7023133" lon="2.7827183"><ele>823.0</ele><time>2026-04-04T09:59:24.446Z</time></trkpt><trkpt lat="43.7022417" lon="2.7825583"><ele>822.8</ele><time>2026-04-04T09:59:25.446Z</time></trkpt><trkpt lat="43.7021817" lon="2.7824217"><ele>822.5999999999999</ele><time>2026-04-04T09:59:26.442Z</time></trkpt><trkpt lat="43.7021367" lon="2.78231"><ele>822.4000000000001</ele><time>2026-04-04T09:59:27.445Z</time></trkpt><trkpt lat="43.7021133" lon="2.7822217"><ele>822.2</ele><time>2026-04-04T09:59:28.445Z</time></trkpt><trkpt lat="43.70215" lon="2.7820483"><ele>822.0</ele><time>2026-04-04T09:59:30.446Z</time></trkpt><trkpt lat="43.702205" lon="2.7819483"><ele>822.75</ele><time>2026-04-04T09:59:31.446Z</time></trkpt><trkpt lat="43.7022883" lon="2.7818283"><ele>823.5</ele><time>2026-04-04T09:59:32.446Z</time></trkpt><trkpt lat="43.7023733" lon="2.7816933"><ele>824.25</ele><time>2026-04-04T09:59:33.445Z</time></trkpt><trkpt lat="43.7024717" lon="2.78154"><ele>825.0</ele><time>2026-04-04T09:59:34.443Z</time></trkpt><trkpt lat="43.7025733" lon="2.781375"><ele>828.5</ele><time>2026-04-04T09:59:35.447Z</time></trkpt><trkpt lat="43.70278" lon="2.7810017"><ele>832.0</ele><time>2026-04-04T09:59:37.444Z</time></trkpt><trkpt lat="43.7028867" lon="2.7808017"><ele>832.0</ele><time>2026-04-04T09:59:38.445Z</time></trkpt><trkpt lat="43.7029933" lon="2.7806033"><ele>832.0</ele><time>2026-04-04T09:59:39.445Z</time></trkpt><trkpt lat="43.7031033" lon="2.7803967"><ele>832.0</ele><time>2026-04-04T09:59:40.445Z</time></trkpt><trkpt lat="43.70321" lon="2.7801867"><ele>833.0</ele><time>2026-04-04T09:59:41.446Z</time></trkpt><trkpt lat="43.7033183" lon="2.779975"><ele>834.0</ele><time>2026-04-04T09:59:42.448Z</time></trkpt><trkpt lat="43.703425" lon="2.7797633"><ele>835.0</ele><time>2026-04-04T09:59:43.446Z</time></trkpt><trkpt lat="43.7035317" lon="2.779545"><ele>837.3333333333333</ele><time>2026-04-04T09:59:44.444Z</time></trkpt><trkpt lat="43.7036383" lon="2.7793233"><ele>839.6666666666667</ele><time>2026-04-04T09:59:45.445Z</time></trkpt><trkpt lat="43.7037417" lon="2.7791"><ele>842.0</ele><time>2026-04-04T09:59:46.445Z</time></trkpt><trkpt lat="43.70384" lon="2.7788767"><ele>842.0</ele><time>2026-04-04T09:59:47.445Z</time></trkpt><trkpt lat="43.703945" lon="2.7786517"><ele>842.0</ele><time>2026-04-04T09:59:48.445Z</time></trkpt><trkpt lat="43.704055" lon="2.77843"><ele>842.0</ele><time>2026-04-04T09:59:49.445Z</time></trkpt><trkpt lat="43.7041683" lon="2.7782167"><ele>842.0</ele><time>2026-04-04T09:59:50.444Z</time></trkpt><trkpt lat="43.7042883" lon="2.7780183"><ele>842.0</ele><time>2026-04-04T09:59:51.446Z</time></trkpt><trkpt lat="43.70441" lon="2.7778167"><ele>842.0</ele><time>2026-04-04T09:59:52.445Z</time></trkpt><trkpt lat="43.7045367" lon="2.77761"><ele>841.6666666666667</ele><time>2026-04-04T09:59:53.446Z</time></trkpt><trkpt lat="43.7046617" lon="2.7773967"><ele>841.3333333333333</ele><time>2026-04-04T09:59:54.443Z</time></trkpt><trkpt lat="43.704785" lon="2.777175"><ele>841.0</ele><time>2026-04-04T09:59:55.445Z</time></trkpt><trkpt lat="43.70491" lon="2.7769483"><ele>840.0</ele><time>2026-04-04T09:59:56.443Z</time></trkpt><trkpt lat="43.7051367" lon="2.7765183"><ele>839.0</ele><time>2026-04-04T09:59:58.443Z</time></trkpt><trkpt lat="43.7052533" lon="2.7762983"><ele>839.0</ele><time>2026-04-04T09:59:59.444Z</time></trkpt><trkpt lat="43.70537" lon="2.776085"><ele>839.0</ele><time>2026-04-04T10:00:00.443Z</time></trkpt><trkpt lat="43.705485" lon="2.7758717"><ele>839.0</ele><time>2026-04-04T10:00:01.443Z</time></trkpt><trkpt lat="43.705595" lon="2.775665"><ele>838.6666666666667</ele><time>2026-04-04T10:00:02.443Z</time></trkpt><trkpt lat="43.7057033" lon="2.7754567"><ele>838.3333333333333</ele><time>2026-04-04T10:00:03.444Z</time></trkpt><trkpt lat="43.70581" lon="2.7752367"><ele>838.0</ele><time>2026-04-04T10:00:04.443Z</time></trkpt><trkpt lat="43.70591" lon="2.775005"><ele>837.6666666666666</ele><time>2026-04-04T10:00:05.444Z</time></trkpt><trkpt lat="43.70599" lon="2.7747583"><ele>837.3333333333333</ele><time>2026-04-04T10:00:06.443Z</time></trkpt><trkpt lat="43.7060533" lon="2.7745"><ele>837.0</ele><time>2026-04-04T10:00:07.443Z</time></trkpt><trkpt lat="43.7061" lon="2.7742383"><ele>836.6666666666667</ele><time>2026-04-04T10:00:08.443Z</time></trkpt><trkpt lat="43.7061467" lon="2.7739767"><ele>836.3333333333334</ele><time>2026-04-04T10:00:09.442Z</time></trkpt><trkpt lat="43.7062017" lon="2.7737183"><ele>836.0</ele><time>2026-04-04T10:00:10.445Z</time></trkpt><trkpt lat="43.7062617" lon="2.7734633"><ele>834.3333333333334</ele><time>2026-04-04T10:00:11.445Z</time></trkpt><trkpt lat="43.7063217" lon="2.7732217"><ele>832.6666666666667</ele><time>2026-04-04T10:00:12.445Z</time></trkpt><trkpt lat="43.7063767" lon="2.7729967"><ele>831.0</ele><time>2026-04-04T10:00:13.446Z</time></trkpt><trkpt lat="43.7064283" lon="2.7727883"><ele>830.5</ele><time>2026-04-04T10:00:14.445Z</time></trkpt><trkpt lat="43.70647" lon="2.7726083"><ele>830.0</ele><time>2026-04-04T10:00:15.442Z</time></trkpt><trkpt lat="43.7065083" lon="2.772455"><ele>829.5</ele><time>2026-04-04T10:00:16.443Z</time></trkpt><trkpt lat="43.706545" lon="2.772325"><ele>829.0</ele><time>2026-04-04T10:00:17.447Z</time></trkpt><trkpt lat="43.70663" lon="2.7721367"><ele>829.0</ele><time>2026-04-04T10:00:20.445Z</time></trkpt><trkpt lat="43.70666" lon="2.772045"><ele>829.0</ele><time>2026-04-04T10:00:23.445Z</time></trkpt><trkpt lat="43.7066367" lon="2.7718567"><ele>829.0</ele><time>2026-04-04T10:00:25.447Z</time></trkpt><trkpt lat="43.7066217" lon="2.771735"><ele>829.0</ele><time>2026-04-04T10:00:26.447Z</time></trkpt><trkpt lat="43.7065967" lon="2.77159"><ele>829.0</ele><time>2026-04-04T10:00:27.445Z</time></trkpt><trkpt lat="43.7065667" lon="2.7714317"><ele>828.75</ele><time>2026-04-04T10:00:28.445Z</time></trkpt><trkpt lat="43.7065383" lon="2.7712567"><ele>828.5</ele><time>2026-04-04T10:00:29.444Z</time></trkpt><trkpt lat="43.7065117" lon="2.77107"><ele>828.25</ele><time>2026-04-04T10:00:30.444Z</time></trkpt><trkpt lat="43.70648" lon="2.7708767"><ele>828.0</ele><time>2026-04-04T10:00:31.445Z</time></trkpt><trkpt lat="43.7064483" lon="2.77067"><ele>828.0</ele><time>2026-04-04T10:00:32.444Z</time></trkpt><trkpt lat="43.706415" lon="2.7704617"><ele>828.0</ele><time>2026-04-04T10:00:33.445Z</time></trkpt><trkpt lat="43.7063783" lon="2.7702517"><ele>828.0</ele><time>2026-04-04T10:00:34.445Z</time></trkpt><trkpt lat="43.706345" lon="2.770045"><ele>828.5</ele><time>2026-04-04T10:00:35.445Z</time></trkpt><trkpt lat="43.7063133" lon="2.76984"><ele>829.0</ele><time>2026-04-04T10:00:36.444Z</time></trkpt><trkpt lat="43.7062717" lon="2.769655"><ele>829.5</ele><time>2026-04-04T10:00:37.445Z</time></trkpt><trkpt lat="43.7062183" lon="2.76948"><ele>830.0</ele><time>2026-04-04T10:00:38.444Z</time></trkpt><trkpt lat="43.7061067" lon="2.7691283"><ele>830.0</ele><time>2026-04-04T10:00:40.444Z</time></trkpt><trkpt lat="43.7060483" lon="2.7689633"><ele>830.0</ele><time>2026-04-04T10:00:41.444Z</time></trkpt><trkpt lat="43.705995" lon="2.768805"><ele>830.0</ele><time>2026-04-04T10:00:42.445Z</time></trkpt><trkpt lat="43.7059433" lon="2.7686483"><ele>830.0</ele><time>2026-04-04T10:00:43.444Z</time></trkpt><trkpt lat="43.7058983" lon="2.7684817"><ele>830.5</ele><time>2026-04-04T10:00:44.445Z</time></trkpt><trkpt lat="43.7058517" lon="2.7683183"><ele>831.0</ele><time>2026-04-04T10:00:45.446Z</time></trkpt><trkpt lat="43.7058083" lon="2.76815"><ele>831.5</ele><time>2026-04-04T10:00:46.445Z</time></trkpt><trkpt lat="43.7057683" lon="2.7679817"><ele>832.0</ele><time>2026-04-04T10:00:47.444Z</time></trkpt><trkpt lat="43.7057283" lon="2.7678083"><ele>833.25</ele><time>2026-04-04T10:00:48.445Z</time></trkpt><trkpt lat="43.7057017" lon="2.76763"><ele>834.5</ele><time>2026-04-04T10:00:49.446Z</time></trkpt><trkpt lat="43.7056817" lon="2.76745"><ele>835.75</ele><time>2026-04-04T10:00:50.447Z</time></trkpt><trkpt lat="43.70567" lon="2.767265"><ele>837.0</ele><time>2026-04-04T10:00:51.446Z</time></trkpt><trkpt lat="43.705655" lon="2.7670833"><ele>837.0</ele><time>2026-04-04T10:00:52.445Z</time></trkpt><trkpt lat="43.7056433" lon="2.7669033"><ele>837.0</ele><time>2026-04-04T10:00:53.446Z</time></trkpt><trkpt lat="43.7056367" lon="2.7667317"><ele>837.0</ele><time>2026-04-04T10:00:54.445Z</time></trkpt><trkpt lat="43.7056267" lon="2.7665667"><ele>837.0</ele><time>2026-04-04T10:00:55.446Z</time></trkpt><trkpt lat="43.705615" lon="2.7664067"><ele>837.75</ele><time>2026-04-04T10:00:56.444Z</time></trkpt><trkpt lat="43.7056083" lon="2.7662467"><ele>838.5</ele><time>2026-04-04T10:00:57.443Z</time></trkpt><trkpt lat="43.7055967" lon="2.76609"><ele>839.25</ele><time>2026-04-04T10:00:58.445Z</time></trkpt><trkpt lat="43.705585" lon="2.7659483"><ele>840.0</ele><time>2026-04-04T10:00:59.445Z</time></trkpt><trkpt lat="43.7055517" lon="2.765705"><ele>840.6666666666666</ele><time>2026-04-04T10:01:01.443Z</time></trkpt><trkpt lat="43.7055483" lon="2.7655833"><ele>841.3333333333333</ele><time>2026-04-04T10:01:02.443Z</time></trkpt><trkpt lat="43.7055583" lon="2.7654617"><ele>842.0</ele><time>2026-04-04T10:01:03.442Z</time></trkpt><trkpt lat="43.7055783" lon="2.7653467"><ele>842.6666666666666</ele><time>2026-04-04T10:01:04.443Z</time></trkpt><trkpt lat="43.7056017" lon="2.7652267"><ele>843.3333333333333</ele><time>2026-04-04T10:01:05.442Z</time></trkpt><trkpt lat="43.705615" lon="2.7650933"><ele>844.0</ele><time>2026-04-04T10:01:06.443Z</time></trkpt><trkpt lat="43.7056183" lon="2.76494"><ele>844.0</ele><time>2026-04-04T10:01:07.443Z</time></trkpt><trkpt lat="43.70563" lon="2.764775"><ele>844.0</ele><time>2026-04-04T10:01:08.443Z</time></trkpt><trkpt lat="43.7056517" lon="2.7646"><ele>844.0</ele><time>2026-04-04T10:01:09.444Z</time></trkpt><trkpt lat="43.7056833" lon="2.7644183"><ele>844.0</ele><time>2026-04-04T10:01:10.445Z</time></trkpt><trkpt lat="43.7057217" lon="2.7642333"><ele>844.0</ele><time>2026-04-04T10:01:11.446Z</time></trkpt><trkpt lat="43.705765" lon="2.764045"><ele>844.0</ele><time>2026-04-04T10:01:12.445Z</time></trkpt><trkpt lat="43.7058117" lon="2.7638467"><ele>844.0</ele><time>2026-04-04T10:01:13.444Z</time></trkpt><trkpt lat="43.7058633" lon="2.7636367"><ele>844.0</ele><time>2026-04-04T10:01:14.442Z</time></trkpt><trkpt lat="43.70592" lon="2.763425"><ele>844.0</ele><time>2026-04-04T10:01:15.442Z</time></trkpt><trkpt lat="43.7059783" lon="2.763205"><ele>844.0</ele><time>2026-04-04T10:01:16.444Z</time></trkpt><trkpt lat="43.7060367" lon="2.7629817"><ele>844.6666666666666</ele><time>2026-04-04T10:01:17.446Z</time></trkpt><trkpt lat="43.7061033" lon="2.762755"><ele>845.3333333333333</ele><time>2026-04-04T10:01:18.442Z</time></trkpt><trkpt lat="43.7061817" lon="2.7625317"><ele>846.0</ele><time>2026-04-04T10:01:19.445Z</time></trkpt><trkpt lat="43.7062667" lon="2.7623167"><ele>846.0</ele><time>2026-04-04T10:01:20.443Z</time></trkpt><trkpt lat="43.7064683" lon="2.7618767"><ele>846.0</ele><time>2026-04-04T10:01:22.445Z</time></trkpt><trkpt lat="43.70658" lon="2.7616517"><ele>844.0</ele><time>2026-04-04T10:01:23.447Z</time></trkpt><trkpt lat="43.7067033" lon="2.761435"><ele>842.0</ele><time>2026-04-04T10:01:24.446Z</time></trkpt><trkpt lat="43.7068333" lon="2.76122"><ele>840.0</ele><time>2026-04-04T10:01:25.444Z</time></trkpt><trkpt lat="43.706965" lon="2.76101"><ele>840.0</ele><time>2026-04-04T10:01:26.445Z</time></trkpt><trkpt lat="43.7070917" lon="2.7608"><ele>840.0</ele><time>2026-04-04T10:01:27.443Z</time></trkpt><trkpt lat="43.7072133" lon="2.7605817"><ele>840.0</ele><time>2026-04-04T10:01:28.443Z</time></trkpt><trkpt lat="43.7073333" lon="2.7603483"><ele>839.6666666666667</ele><time>2026-04-04T10:01:29.443Z</time></trkpt><trkpt lat="43.707445" lon="2.7601167"><ele>839.3333333333334</ele><time>2026-04-04T10:01:30.442Z</time></trkpt><trkpt lat="43.7075533" lon="2.759885"><ele>839.0</ele><time>2026-04-04T10:01:31.443Z</time></trkpt><trkpt lat="43.7076667" lon="2.75965"><ele>840.0</ele><time>2026-04-04T10:01:32.442Z</time></trkpt><trkpt lat="43.7077717" lon="2.7594133"><ele>841.0</ele><time>2026-04-04T10:01:33.443Z</time></trkpt><trkpt lat="43.70788" lon="2.7591783"><ele>842.0</ele><time>2026-04-04T10:01:34.442Z</time></trkpt><trkpt lat="43.707985" lon="2.7589483"><ele>842.0</ele><time>2026-04-04T10:01:35.444Z</time></trkpt><trkpt lat="43.7080917" lon="2.7587167"><ele>842.0</ele><time>2026-04-04T10:01:36.444Z</time></trkpt><trkpt lat="43.708205" lon="2.75848"><ele>842.0</ele><time>2026-04-04T10:01:37.446Z</time></trkpt><trkpt lat="43.7083133" lon="2.7582433"><ele>841.0</ele><time>2026-04-04T10:01:38.444Z</time></trkpt><trkpt lat="43.7084183" lon="2.758005"><ele>840.0</ele><time>2026-04-04T10:01:39.445Z</time></trkpt><trkpt lat="43.70852" lon="2.7577667"><ele>839.0</ele><time>2026-04-04T10:01:40.445Z</time></trkpt><trkpt lat="43.7086117" lon="2.757525"><ele>839.0</ele><time>2026-04-04T10:01:41.445Z</time></trkpt><trkpt lat="43.7087833" lon="2.7570383"><ele>839.0</ele><time>2026-04-04T10:01:43.443Z</time></trkpt><trkpt lat="43.7088667" lon="2.756785"><ele>839.0</ele><time>2026-04-04T10:01:44.442Z</time></trkpt><trkpt lat="43.7089517" lon="2.7565333"><ele>839.0</ele><time>2026-04-04T10:01:45.444Z</time></trkpt><trkpt lat="43.7090383" lon="2.7562767"><ele>839.0</ele><time>2026-04-04T10:01:46.443Z</time></trkpt><trkpt lat="43.7091183" lon="2.7560267"><ele>839.0</ele><time>2026-04-04T10:01:47.446Z</time></trkpt><trkpt lat="43.7091933" lon="2.7557733"><ele>839.0</ele><time>2026-04-04T10:01:48.445Z</time></trkpt><trkpt lat="43.7092633" lon="2.7555183"><ele>839.0</ele><time>2026-04-04T10:01:49.446Z</time></trkpt><trkpt lat="43.7093317" lon="2.755265"><ele>838.6666666666667</ele><time>2026-04-04T10:01:50.446Z</time></trkpt><trkpt lat="43.7094017" lon="2.7550067"><ele>838.3333333333333</ele><time>2026-04-04T10:01:51.445Z</time></trkpt><trkpt lat="43.70947" lon="2.7547433"><ele>838.0</ele><time>2026-04-04T10:01:52.442Z</time></trkpt><trkpt lat="43.7095217" lon="2.75448"><ele>843.0</ele><time>2026-04-04T10:01:53.446Z</time></trkpt><trkpt lat="43.709555" lon="2.75421"><ele>848.0</ele><time>2026-04-04T10:01:54.443Z</time></trkpt><trkpt lat="43.7095633" lon="2.7539383"><ele>853.0</ele><time>2026-04-04T10:01:55.443Z</time></trkpt><trkpt lat="43.7095583" lon="2.7536683"><ele>853.0</ele><time>2026-04-04T10:01:56.442Z</time></trkpt><trkpt lat="43.7095517" lon="2.7533983"><ele>853.0</ele><time>2026-04-04T10:01:57.443Z</time></trkpt><trkpt lat="43.7095567" lon="2.7531267"><ele>853.0</ele><time>2026-04-04T10:01:58.446Z</time></trkpt><trkpt lat="43.709575" lon="2.752855"><ele>853.0</ele><time>2026-04-04T10:01:59.442Z</time></trkpt><trkpt lat="43.7096083" lon="2.7525833"><ele>853.0</ele><time>2026-04-04T10:02:00.442Z</time></trkpt><trkpt lat="43.7096483" lon="2.7523183"><ele>853.0</ele><time>2026-04-04T10:02:01.446Z</time></trkpt><trkpt lat="43.7097033" lon="2.752035"><ele>851.0</ele><time>2026-04-04T10:02:02.444Z</time></trkpt><trkpt lat="43.7098183" lon="2.7515017"><ele>849.0</ele><time>2026-04-04T10:02:04.446Z</time></trkpt><trkpt lat="43.709885" lon="2.75124"><ele>847.0</ele><time>2026-04-04T10:02:05.443Z</time></trkpt><trkpt lat="43.7099617" lon="2.7509783"><ele>845.0</ele><time>2026-04-04T10:02:06.445Z</time></trkpt><trkpt lat="43.710045" lon="2.7507267"><ele>843.0</ele><time>2026-04-04T10:02:07.444Z</time></trkpt><trkpt lat="43.71014" lon="2.7504767"><ele>844.6666666666667</ele><time>2026-04-04T10:02:08.444Z</time></trkpt><trkpt lat="43.7102417" lon="2.7502217"><ele>846.3333333333334</ele><time>2026-04-04T10:02:09.444Z</time></trkpt><trkpt lat="43.710335" lon="2.7499617"><ele>848.0</ele><time>2026-04-04T10:02:10.446Z</time></trkpt><trkpt lat="43.71042" lon="2.749705"><ele>848.0</ele><time>2026-04-04T10:02:11.445Z</time></trkpt><trkpt lat="43.7104883" lon="2.7494433"><ele>848.0</ele><time>2026-04-04T10:02:12.445Z</time></trkpt><trkpt lat="43.7105617" lon="2.74918"><ele>848.0</ele><time>2026-04-04T10:02:13.447Z</time></trkpt><trkpt lat="43.7106333" lon="2.74892"><ele>847.0</ele><time>2026-04-04T10:02:14.445Z</time></trkpt><trkpt lat="43.710705" lon="2.7486633"><ele>846.0</ele><time>2026-04-04T10:02:15.445Z</time></trkpt><trkpt lat="43.7107733" lon="2.7484033"><ele>845.0</ele><time>2026-04-04T10:02:16.445Z</time></trkpt><trkpt lat="43.7108217" lon="2.7481417"><ele>845.0</ele><time>2026-04-04T10:02:17.445Z</time></trkpt><trkpt lat="43.7108467" lon="2.74787"><ele>845.0</ele><time>2026-04-04T10:02:18.446Z</time></trkpt><trkpt lat="43.7108617" lon="2.747595"><ele>845.0</ele><time>2026-04-04T10:02:19.445Z</time></trkpt><trkpt lat="43.710865" lon="2.74732"><ele>845.0</ele><time>2026-04-04T10:02:20.443Z</time></trkpt><trkpt lat="43.710865" lon="2.7470383"><ele>845.0</ele><time>2026-04-04T10:02:21.444Z</time></trkpt><trkpt lat="43.7108633" lon="2.74675"><ele>845.0</ele><time>2026-04-04T10:02:22.445Z</time></trkpt><trkpt lat="43.7108733" lon="2.7464633"><ele>845.0</ele><time>2026-04-04T10:02:23.446Z</time></trkpt><trkpt lat="43.710945" lon="2.745905"><ele>845.0</ele><time>2026-04-04T10:02:25.446Z</time></trkpt><trkpt lat="43.7110133" lon="2.7456417"><ele>846.6666666666667</ele><time>2026-04-04T10:02:26.445Z</time></trkpt><trkpt lat="43.7110983" lon="2.7453883"><ele>848.3333333333333</ele><time>2026-04-04T10:02:27.444Z</time></trkpt><trkpt lat="43.7111967" lon="2.7451417"><ele>850.0</ele><time>2026-04-04T10:02:28.444Z</time></trkpt><trkpt lat="43.7113017" lon="2.7449033"><ele>850.0</ele><time>2026-04-04T10:02:29.442Z</time></trkpt><trkpt lat="43.7114117" lon="2.7446667"><ele>850.0</ele><time>2026-04-04T10:02:30.444Z</time></trkpt><trkpt lat="43.7115233" lon="2.7444317"><ele>850.0</ele><time>2026-04-04T10:02:31.443Z</time></trkpt><trkpt lat="43.7116433" lon="2.7442"><ele>850.3333333333333</ele><time>2026-04-04T10:02:32.442Z</time></trkpt><trkpt lat="43.711765" lon="2.7439783"><ele>850.6666666666667</ele><time>2026-04-04T10:02:33.443Z</time></trkpt><trkpt lat="43.711895" lon="2.7437517"><ele>851.0</ele><time>2026-04-04T10:02:34.443Z</time></trkpt><trkpt lat="43.7120283" lon="2.743525"><ele>851.0</ele><time>2026-04-04T10:02:35.442Z</time></trkpt><trkpt lat="43.712165" lon="2.7433067"><ele>851.0</ele><time>2026-04-04T10:02:36.443Z</time></trkpt><trkpt lat="43.7123083" lon="2.74309"><ele>851.0</ele><time>2026-04-04T10:02:37.445Z</time></trkpt><trkpt lat="43.7124583" lon="2.74288"><ele>850.3333333333334</ele><time>2026-04-04T10:02:38.443Z</time></trkpt><trkpt lat="43.71261" lon="2.74267"><ele>849.6666666666667</ele><time>2026-04-04T10:02:39.442Z</time></trkpt><trkpt lat="43.7127567" lon="2.7424683"><ele>849.0</ele><time>2026-04-04T10:02:40.445Z</time></trkpt><trkpt lat="43.712905" lon="2.7422633"><ele>849.6666666666667</ele><time>2026-04-04T10:02:41.445Z</time></trkpt><trkpt lat="43.7130517" lon="2.7420533"><ele>850.3333333333334</ele><time>2026-04-04T10:02:42.447Z</time></trkpt><trkpt lat="43.713195" lon="2.7418433"><ele>851.0</ele><time>2026-04-04T10:02:43.443Z</time></trkpt><trkpt lat="43.7133317" lon="2.7416267"><ele>854.0</ele><time>2026-04-04T10:02:44.443Z</time></trkpt><trkpt lat="43.7135883" lon="2.7411433"><ele>857.0</ele><time>2026-04-04T10:02:46.443Z</time></trkpt><trkpt lat="43.7136967" lon="2.7408867"><ele>857.0</ele><time>2026-04-04T10:02:47.443Z</time></trkpt><trkpt lat="43.7137967" lon="2.7406233"><ele>857.0</ele><time>2026-04-04T10:02:48.443Z</time></trkpt><trkpt lat="43.7138983" lon="2.740355"><ele>857.0</ele><time>2026-04-04T10:02:49.443Z</time></trkpt><trkpt lat="43.714005" lon="2.740095"><ele>855.6666666666667</ele><time>2026-04-04T10:02:50.443Z</time></trkpt><trkpt lat="43.7141233" lon="2.7398383"><ele>854.3333333333333</ele><time>2026-04-04T10:02:51.443Z</time></trkpt><trkpt lat="43.7142517" lon="2.73959"><ele>853.0</ele><time>2026-04-04T10:02:52.445Z</time></trkpt><trkpt lat="43.714375" lon="2.7393583"><ele>854.3333333333333</ele><time>2026-04-04T10:02:53.445Z</time></trkpt><trkpt lat="43.7144917" lon="2.7391317"><ele>855.6666666666667</ele><time>2026-04-04T10:02:54.443Z</time></trkpt><trkpt lat="43.7145883" lon="2.7388867"><ele>857.0</ele><time>2026-04-04T10:02:55.446Z</time></trkpt><trkpt lat="43.714655" lon="2.7386267"><ele>856.0</ele><time>2026-04-04T10:02:56.445Z</time></trkpt><trkpt lat="43.7146983" lon="2.738355"><ele>855.0</ele><time>2026-04-04T10:02:57.442Z</time></trkpt><trkpt lat="43.7147167" lon="2.7380783"><ele>854.0</ele><time>2026-04-04T10:02:58.442Z</time></trkpt><trkpt lat="43.714705" lon="2.7378"><ele>853.3333333333334</ele><time>2026-04-04T10:02:59.443Z</time></trkpt><trkpt lat="43.7146733" lon="2.7375233"><ele>852.6666666666667</ele><time>2026-04-04T10:03:00.443Z</time></trkpt><trkpt lat="43.714635" lon="2.7372467"><ele>852.0</ele><time>2026-04-04T10:03:01.443Z</time></trkpt><trkpt lat="43.7145933" lon="2.736975"><ele>852.0</ele><time>2026-04-04T10:03:02.445Z</time></trkpt><trkpt lat="43.7145517" lon="2.7367033"><ele>852.0</ele><time>2026-04-04T10:03:03.442Z</time></trkpt><trkpt lat="43.7145133" lon="2.7364317"><ele>852.0</ele><time>2026-04-04T10:03:04.445Z</time></trkpt><trkpt lat="43.7144767" lon="2.73617"><ele>854.0</ele><time>2026-04-04T10:03:05.444Z</time></trkpt><trkpt lat="43.714395" lon="2.7356367"><ele>856.0</ele><time>2026-04-04T10:03:07.446Z</time></trkpt><trkpt lat="43.7143533" lon="2.7353633"><ele>856.0</ele><time>2026-04-04T10:03:08.442Z</time></trkpt><trkpt lat="43.7143133" lon="2.7350867"><ele>856.0</ele><time>2026-04-04T10:03:09.442Z</time></trkpt><trkpt lat="43.71428" lon="2.7348017"><ele>856.0</ele><time>2026-04-04T10:03:10.443Z</time></trkpt><trkpt lat="43.7142483" lon="2.7345167"><ele>856.6666666666666</ele><time>2026-04-04T10:03:11.446Z</time></trkpt><trkpt lat="43.71422" lon="2.7342383"><ele>857.3333333333333</ele><time>2026-04-04T10:03:12.442Z</time></trkpt><trkpt lat="43.7141867" lon="2.7339633"><ele>858.0</ele><time>2026-04-04T10:03:13.445Z</time></trkpt><trkpt lat="43.7141467" lon="2.7336833"><ele>858.0</ele><time>2026-04-04T10:03:14.443Z</time></trkpt><trkpt lat="43.7141033" lon="2.7334033"><ele>858.0</ele><time>2026-04-04T10:03:15.444Z</time></trkpt><trkpt lat="43.7140517" lon="2.7331267"><ele>858.0</ele><time>2026-04-04T10:03:16.445Z</time></trkpt><trkpt lat="43.714" lon="2.7328467"><ele>857.3333333333333</ele><time>2026-04-04T10:03:17.444Z</time></trkpt><trkpt lat="43.7139533" lon="2.7325633"><ele>856.6666666666666</ele><time>2026-04-04T10:03:18.444Z</time></trkpt><trkpt lat="43.7139067" lon="2.73228"><ele>856.0</ele><time>2026-04-04T10:03:19.445Z</time></trkpt><trkpt lat="43.7138633" lon="2.731995"><ele>855.6666666666666</ele><time>2026-04-04T10:03:20.445Z</time></trkpt><trkpt lat="43.713825" lon="2.7317067"><ele>855.3333333333333</ele><time>2026-04-04T10:03:21.445Z</time></trkpt><trkpt lat="43.7137867" lon="2.7314183"><ele>855.0</ele><time>2026-04-04T10:03:22.445Z</time></trkpt><trkpt lat="43.7137433" lon="2.731135"><ele>855.3333333333333</ele><time>2026-04-04T10:03:23.443Z</time></trkpt><trkpt lat="43.7137017" lon="2.7308583"><ele>855.6666666666666</ele><time>2026-04-04T10:03:24.443Z</time></trkpt><trkpt lat="43.71366" lon="2.7305833"><ele>856.0</ele><time>2026-04-04T10:03:25.444Z</time></trkpt><trkpt lat="43.7136183" lon="2.7303033"><ele>858.0</ele><time>2026-04-04T10:03:26.443Z</time></trkpt><trkpt lat="43.7135267" lon="2.729755"><ele>860.0</ele><time>2026-04-04T10:03:28.445Z</time></trkpt><trkpt lat="43.7134917" lon="2.7294817"><ele>861.3333333333334</ele><time>2026-04-04T10:03:29.444Z</time></trkpt><trkpt lat="43.71346" lon="2.729215"><ele>862.6666666666667</ele><time>2026-04-04T10:03:30.447Z</time></trkpt><trkpt lat="43.7134233" lon="2.7289467"><ele>864.0</ele><time>2026-04-04T10:03:31.446Z</time></trkpt><trkpt lat="43.7133883" lon="2.7286733"><ele>865.0</ele><time>2026-04-04T10:03:32.443Z</time></trkpt><trkpt lat="43.7133483" lon="2.7284017"><ele>866.0</ele><time>2026-04-04T10:03:33.445Z</time></trkpt><trkpt lat="43.713315" lon="2.7281233"><ele>867.0</ele><time>2026-04-04T10:03:34.447Z</time></trkpt><trkpt lat="43.71328" lon="2.727845"><ele>867.3333333333333</ele><time>2026-04-04T10:03:35.446Z</time></trkpt><trkpt lat="43.7132433" lon="2.7275717"><ele>867.6666666666666</ele><time>2026-04-04T10:03:36.445Z</time></trkpt><trkpt lat="43.7132033" lon="2.7273"><ele>868.0</ele><time>2026-04-04T10:03:37.446Z</time></trkpt><trkpt lat="43.7131667" lon="2.7270267"><ele>870.6666666666666</ele><time>2026-04-04T10:03:38.445Z</time></trkpt><trkpt lat="43.7131317" lon="2.7267567"><ele>873.3333333333333</ele><time>2026-04-04T10:03:39.443Z</time></trkpt><trkpt lat="43.7130933" lon="2.7264883"><ele>876.0</ele><time>2026-04-04T10:03:40.443Z</time></trkpt><trkpt lat="43.7130533" lon="2.726215"><ele>876.0</ele><time>2026-04-04T10:03:41.443Z</time></trkpt><trkpt lat="43.71302" lon="2.7259383"><ele>876.0</ele><time>2026-04-04T10:03:42.443Z</time></trkpt><trkpt lat="43.7129867" lon="2.7256667"><ele>876.0</ele><time>2026-04-04T10:03:43.444Z</time></trkpt><trkpt lat="43.7129567" lon="2.725395"><ele>876.0</ele><time>2026-04-04T10:03:44.442Z</time></trkpt><trkpt lat="43.7129317" lon="2.725125"><ele>876.0</ele><time>2026-04-04T10:03:45.445Z</time></trkpt><trkpt lat="43.7129017" lon="2.7248483"><ele>876.0</ele><time>2026-04-04T10:03:46.445Z</time></trkpt><trkpt lat="43.7128733" lon="2.7245683"><ele>875.5</ele><time>2026-04-04T10:03:47.443Z</time></trkpt><trkpt lat="43.7128117" lon="2.724015"><ele>875.0</ele><time>2026-04-04T10:03:49.444Z</time></trkpt><trkpt lat="43.71278" lon="2.7237383"><ele>875.0</ele><time>2026-04-04T10:03:50.444Z</time></trkpt><trkpt lat="43.7127467" lon="2.723455"><ele>875.0</ele><time>2026-04-04T10:03:51.444Z</time></trkpt><trkpt lat="43.7127183" lon="2.72317"><ele>875.0</ele><time>2026-04-04T10:03:52.445Z</time></trkpt><trkpt lat="43.7126867" lon="2.7228833"><ele>878.3333333333334</ele><time>2026-04-04T10:03:53.444Z</time></trkpt><trkpt lat="43.7126617" lon="2.7225933"><ele>881.6666666666667</ele><time>2026-04-04T10:03:54.443Z</time></trkpt><trkpt lat="43.7126283" lon="2.7223033"><ele>885.0</ele><time>2026-04-04T10:03:55.445Z</time></trkpt><trkpt lat="43.7125967" lon="2.72201"><ele>886.3333333333333</ele><time>2026-04-04T10:03:56.443Z</time></trkpt><trkpt lat="43.7125583" lon="2.72172"><ele>887.6666666666666</ele><time>2026-04-04T10:03:57.445Z</time></trkpt><trkpt lat="43.712515" lon="2.7214283"><ele>889.0</ele><time>2026-04-04T10:03:58.445Z</time></trkpt><trkpt lat="43.7124683" lon="2.7211333"><ele>889.3333333333333</ele><time>2026-04-04T10:03:59.444Z</time></trkpt><trkpt lat="43.7124183" lon="2.7208433"><ele>889.6666666666667</ele><time>2026-04-04T10:04:00.445Z</time></trkpt><trkpt lat="43.7123633" lon="2.7205533"><ele>890.0</ele><time>2026-04-04T10:04:01.444Z</time></trkpt><trkpt lat="43.7122917" lon="2.72028"><ele>891.3333333333334</ele><time>2026-04-04T10:04:02.446Z</time></trkpt><trkpt lat="43.7122133" lon="2.7200067"><ele>892.6666666666667</ele><time>2026-04-04T10:04:03.446Z</time></trkpt><trkpt lat="43.7121233" lon="2.71974"><ele>894.0</ele><time>2026-04-04T10:04:04.443Z</time></trkpt><trkpt lat="43.7120317" lon="2.7194767"><ele>895.0</ele><time>2026-04-04T10:04:05.446Z</time></trkpt><trkpt lat="43.711955" lon="2.719215"><ele>896.0</ele><time>2026-04-04T10:04:06.443Z</time></trkpt><trkpt lat="43.7119133" lon="2.7189567"><ele>897.0</ele><time>2026-04-04T10:04:07.443Z</time></trkpt><trkpt lat="43.711895" lon="2.7187133"><ele>897.5</ele><time>2026-04-04T10:04:08.442Z</time></trkpt><trkpt lat="43.7119233" lon="2.7181917"><ele>898.0</ele><time>2026-04-04T10:04:10.443Z</time></trkpt><trkpt lat="43.71195" lon="2.7179117"><ele>898.3333333333333</ele><time>2026-04-04T10:04:11.442Z</time></trkpt><trkpt lat="43.7119783" lon="2.7176233"><ele>898.6666666666667</ele><time>2026-04-04T10:04:12.444Z</time></trkpt><trkpt lat="43.7119917" lon="2.717335"><ele>899.0</ele><time>2026-04-04T10:04:13.446Z</time></trkpt><trkpt lat="43.7120083" lon="2.7170383"><ele>899.3333333333334</ele><time>2026-04-04T10:04:14.442Z</time></trkpt><trkpt lat="43.7120217" lon="2.7167433"><ele>899.6666666666667</ele><time>2026-04-04T10:04:15.444Z</time></trkpt><trkpt lat="43.712035" lon="2.7164517"><ele>900.0</ele><time>2026-04-04T10:04:16.445Z</time></trkpt><trkpt lat="43.7120467" lon="2.7161583"><ele>900.3333333333333</ele><time>2026-04-04T10:04:17.442Z</time></trkpt><trkpt lat="43.7120567" lon="2.715865"><ele>900.6666666666666</ele><time>2026-04-04T10:04:18.445Z</time></trkpt><trkpt lat="43.7120767" lon="2.7155717"><ele>901.0</ele><time>2026-04-04T10:04:19.445Z</time></trkpt><trkpt lat="43.712105" lon="2.71528"><ele>900.6666666666666</ele><time>2026-04-04T10:04:20.443Z</time></trkpt><trkpt lat="43.7121367" lon="2.7149917"><ele>900.3333333333333</ele><time>2026-04-04T10:04:21.444Z</time></trkpt><trkpt lat="43.7121817" lon="2.7147"><ele>900.0</ele><time>2026-04-04T10:04:22.443Z</time></trkpt><trkpt lat="43.7122217" lon="2.7144083"><ele>899.6666666666667</ele><time>2026-04-04T10:04:23.445Z</time></trkpt><trkpt lat="43.7122483" lon="2.7141233"><ele>899.3333333333334</ele><time>2026-04-04T10:04:24.446Z</time></trkpt><trkpt lat="43.7122683" lon="2.7138417"><ele>899.0</ele><time>2026-04-04T10:04:25.445Z</time></trkpt><trkpt lat="43.7122917" lon="2.7135533"><ele>898.3333333333334</ele><time>2026-04-04T10:04:26.444Z</time></trkpt><trkpt lat="43.712305" lon="2.7132617"><ele>897.6666666666667</ele><time>2026-04-04T10:04:27.446Z</time></trkpt><trkpt lat="43.712305" lon="2.7129733"><ele>897.0</ele><time>2026-04-04T10:04:28.444Z</time></trkpt><trkpt lat="43.7123017" lon="2.712685"><ele>896.0</ele><time>2026-04-04T10:04:29.444Z</time></trkpt><trkpt lat="43.712295" lon="2.7121083"><ele>895.0</ele><time>2026-04-04T10:04:31.445Z</time></trkpt><trkpt lat="43.7122867" lon="2.7118233"><ele>894.3333333333333</ele><time>2026-04-04T10:04:32.444Z</time></trkpt><trkpt lat="43.7122633" lon="2.71154"><ele>893.6666666666667</ele><time>2026-04-04T10:04:33.444Z</time></trkpt><trkpt lat="43.7122267" lon="2.711265"><ele>893.0</ele><time>2026-04-04T10:04:34.443Z</time></trkpt><trkpt lat="43.712175" lon="2.7110033"><ele>892.6666666666667</ele><time>2026-04-04T10:04:35.444Z</time></trkpt><trkpt lat="43.7121083" lon="2.7107733"><ele>892.3333333333333</ele><time>2026-04-04T10:04:36.446Z</time></trkpt><trkpt lat="43.7120417" lon="2.7105467"><ele>892.0</ele><time>2026-04-04T10:04:37.444Z</time></trkpt><trkpt lat="43.71197" lon="2.7103283"><ele>888.6666666666666</ele><time>2026-04-04T10:04:38.444Z</time></trkpt><trkpt lat="43.7118933" lon="2.7101233"><ele>885.3333333333333</ele><time>2026-04-04T10:04:39.443Z</time></trkpt><trkpt lat="43.711815" lon="2.7099333"><ele>882.0</ele><time>2026-04-04T10:04:40.444Z</time></trkpt><trkpt lat="43.71174" lon="2.7097467"><ele>882.0</ele><time>2026-04-04T10:04:41.444Z</time></trkpt><trkpt lat="43.7116717" lon="2.70956"><ele>882.0</ele><time>2026-04-04T10:04:42.444Z</time></trkpt><trkpt lat="43.7116217" lon="2.70937"><ele>882.0</ele><time>2026-04-04T10:04:43.446Z</time></trkpt><trkpt lat="43.7115867" lon="2.7091867"><ele>882.0</ele><time>2026-04-04T10:04:44.446Z</time></trkpt><trkpt lat="43.711575" lon="2.7089933"><ele>881.75</ele><time>2026-04-04T10:04:45.537Z</time></trkpt><trkpt lat="43.711575" lon="2.7087967"><ele>881.5</ele><time>2026-04-04T10:04:46.442Z</time></trkpt><trkpt lat="43.7115783" lon="2.7086033"><ele>881.25</ele><time>2026-04-04T10:04:47.444Z</time></trkpt><trkpt lat="43.711585" lon="2.70841"><ele>881.0</ele><time>2026-04-04T10:04:48.444Z</time></trkpt><trkpt lat="43.7115867" lon="2.7082167"><ele>879.6666666666667</ele><time>2026-04-04T10:04:49.444Z</time></trkpt><trkpt lat="43.7115917" lon="2.70802"><ele>878.3333333333333</ele><time>2026-04-04T10:04:50.443Z</time></trkpt><trkpt lat="43.711615" lon="2.707655"><ele>877.0</ele><time>2026-04-04T10:04:52.444Z</time></trkpt><trkpt lat="43.7116317" lon="2.7075133"><ele>876.2</ele><time>2026-04-04T10:04:53.444Z</time></trkpt><trkpt lat="43.711655" lon="2.7074117"><ele>875.4000000000001</ele><time>2026-04-04T10:04:54.446Z</time></trkpt><trkpt lat="43.7117233" lon="2.70731"><ele>874.5999999999999</ele><time>2026-04-04T10:04:56.444Z</time></trkpt><trkpt lat="43.7118167" lon="2.7072833"><ele>873.8</ele><time>2026-04-04T10:04:59.444Z</time></trkpt><trkpt lat="43.7119133" lon="2.7072433"><ele>873.0</ele><time>2026-04-04T10:05:01.444Z</time></trkpt><trkpt lat="43.71203" lon="2.7071783"><ele>873.0</ele><time>2026-04-04T10:05:03.444Z</time></trkpt><trkpt lat="43.7121417" lon="2.7071183"><ele>873.0</ele><time>2026-04-04T10:05:05.445Z</time></trkpt><trkpt lat="43.7122533" lon="2.7071017"><ele>873.0</ele><time>2026-04-04T10:05:07.447Z</time></trkpt><trkpt lat="43.7123633" lon="2.7070983"><ele>873.0</ele><time>2026-04-04T10:05:09.445Z</time></trkpt><trkpt lat="43.7124533" lon="2.7070733"><ele>873.0</ele><time>2026-04-04T10:05:11.446Z</time></trkpt><trkpt lat="43.7124617" lon="2.7070833"><ele>873.0</ele><time>2026-04-04T10:20:48.445Z</time></trkpt><trkpt lat="43.7122917" lon="2.7071117"><ele>873.0</ele><time>2026-04-04T10:20:53.445Z</time></trkpt><trkpt lat="43.7121967" lon="2.7071383"><ele>873.0</ele><time>2026-04-04T10:20:55.447Z</time></trkpt><trkpt lat="43.7120817" lon="2.707195"><ele>873.0</ele><time>2026-04-04T10:20:57.445Z</time></trkpt><trkpt lat="43.71202" lon="2.707215"><ele>873.0</ele><time>2026-04-04T10:20:58.446Z</time></trkpt><trkpt lat="43.7119017" lon="2.7072533"><ele>873.0</ele><time>2026-04-04T10:21:00.446Z</time></trkpt><trkpt lat="43.711805" lon="2.70726"><ele>872.8</ele><time>2026-04-04T10:21:02.446Z</time></trkpt><trkpt lat="43.7117333" lon="2.7072167"><ele>872.5999999999999</ele><time>2026-04-04T10:21:04.446Z</time></trkpt><trkpt lat="43.7116883" lon="2.7071167"><ele>872.4000000000001</ele><time>2026-04-04T10:21:06.446Z</time></trkpt><trkpt lat="43.7117" lon="2.7069483"><ele>872.2</ele><time>2026-04-04T10:21:08.442Z</time></trkpt><trkpt lat="43.711715" lon="2.7068417"><ele>872.0</ele><time>2026-04-04T10:21:09.446Z</time></trkpt><trkpt lat="43.7117483" lon="2.706575"><ele>870.5</ele><time>2026-04-04T10:21:11.442Z</time></trkpt><trkpt lat="43.7117633" lon="2.7064233"><ele>869.0</ele><time>2026-04-04T10:21:12.443Z</time></trkpt><trkpt lat="43.7117833" lon="2.7062583"><ele>867.5</ele><time>2026-04-04T10:21:13.443Z</time></trkpt><trkpt lat="43.7118017" lon="2.706085"><ele>866.0</ele><time>2026-04-04T10:21:14.446Z</time></trkpt><trkpt lat="43.711825" lon="2.7058917"><ele>864.75</ele><time>2026-04-04T10:21:15.446Z</time></trkpt><trkpt lat="43.7118467" lon="2.7057033"><ele>863.5</ele><time>2026-04-04T10:21:16.445Z</time></trkpt><trkpt lat="43.71187" lon="2.7055117"><ele>862.25</ele><time>2026-04-04T10:21:17.447Z</time></trkpt><trkpt lat="43.7118833" lon="2.7053317"><ele>861.0</ele><time>2026-04-04T10:21:18.445Z</time></trkpt><trkpt lat="43.7118917" lon="2.7051583"><ele>860.5</ele><time>2026-04-04T10:21:19.446Z</time></trkpt><trkpt lat="43.7119" lon="2.7049783"><ele>860.0</ele><time>2026-04-04T10:21:20.445Z</time></trkpt><trkpt lat="43.7119033" lon="2.7047983"><ele>859.5</ele><time>2026-04-04T10:21:21.446Z</time></trkpt><trkpt lat="43.7119083" lon="2.7046133"><ele>859.0</ele><time>2026-04-04T10:21:22.446Z</time></trkpt><trkpt lat="43.7119117" lon="2.7044217"><ele>856.25</ele><time>2026-04-04T10:21:23.446Z</time></trkpt><trkpt lat="43.711915" lon="2.70423"><ele>853.5</ele><time>2026-04-04T10:21:24.446Z</time></trkpt><trkpt lat="43.7119167" lon="2.7040367"><ele>850.75</ele><time>2026-04-04T10:21:25.446Z</time></trkpt><trkpt lat="43.7119217" lon="2.7038367"><ele>848.0</ele><time>2026-04-04T10:21:26.446Z</time></trkpt><trkpt lat="43.7119267" lon="2.7036283"><ele>846.3333333333334</ele><time>2026-04-04T10:21:27.447Z</time></trkpt><trkpt lat="43.7119317" lon="2.7034183"><ele>844.6666666666667</ele><time>2026-04-04T10:21:28.445Z</time></trkpt><trkpt lat="43.7119367" lon="2.70321"><ele>843.0</ele><time>2026-04-04T10:21:29.446Z</time></trkpt><trkpt lat="43.7119367" lon="2.7030017"><ele>841.0</ele><time>2026-04-04T10:21:30.445Z</time></trkpt><trkpt lat="43.7119317" lon="2.7025883"><ele>839.0</ele><time>2026-04-04T10:21:32.445Z</time></trkpt><trkpt lat="43.71193" lon="2.7023767"><ele>839.0</ele><time>2026-04-04T10:21:33.445Z</time></trkpt><trkpt lat="43.7119317" lon="2.7021617"><ele>839.0</ele><time>2026-04-04T10:21:34.443Z</time></trkpt><trkpt lat="43.7119267" lon="2.7019483"><ele>839.0</ele><time>2026-04-04T10:21:35.443Z</time></trkpt><trkpt lat="43.7119067" lon="2.701725"><ele>837.6666666666667</ele><time>2026-04-04T10:21:36.443Z</time></trkpt><trkpt lat="43.7118717" lon="2.7015083"><ele>836.3333333333333</ele><time>2026-04-04T10:21:37.446Z</time></trkpt><trkpt lat="43.711835" lon="2.7012867"><ele>835.0</ele><time>2026-04-04T10:21:38.445Z</time></trkpt><trkpt lat="43.71178" lon="2.7010733"><ele>835.0</ele><time>2026-04-04T10:21:39.445Z</time></trkpt><trkpt lat="43.7117283" lon="2.7008633"><ele>835.0</ele><time>2026-04-04T10:21:40.445Z</time></trkpt><trkpt lat="43.7116667" lon="2.7006567"><ele>835.0</ele><time>2026-04-04T10:21:41.446Z</time></trkpt><trkpt lat="43.7116" lon="2.7004533"><ele>835.0</ele><time>2026-04-04T10:21:42.446Z</time></trkpt><trkpt lat="43.7115283" lon="2.7002567"><ele>835.0</ele><time>2026-04-04T10:21:43.446Z</time></trkpt><trkpt lat="43.7114617" lon="2.700065"><ele>835.0</ele><time>2026-04-04T10:21:44.445Z</time></trkpt><trkpt lat="43.7113983" lon="2.69988"><ele>833.0</ele><time>2026-04-04T10:21:45.446Z</time></trkpt><trkpt lat="43.7113367" lon="2.6996967"><ele>831.0</ele><time>2026-04-04T10:21:46.446Z</time></trkpt><trkpt lat="43.7112767" lon="2.6995233"><ele>829.0</ele><time>2026-04-04T10:21:47.445Z</time></trkpt><trkpt lat="43.7112067" lon="2.6993683"><ele>827.0</ele><time>2026-04-04T10:21:48.447Z</time></trkpt><trkpt lat="43.7111133" lon="2.69924"><ele>826.6666666666667</ele><time>2026-04-04T10:21:49.446Z</time></trkpt><trkpt lat="43.7109933" lon="2.6991467"><ele>826.3333333333333</ele><time>2026-04-04T10:21:50.442Z</time></trkpt><trkpt lat="43.710865" lon="2.6990733"><ele>826.0</ele><time>2026-04-04T10:21:51.446Z</time></trkpt><trkpt lat="43.7106017" lon="2.6989383"><ele>826.0</ele><time>2026-04-04T10:21:53.445Z</time></trkpt><trkpt lat="43.7104633" lon="2.6988867"><ele>826.0</ele><time>2026-04-04T10:21:54.445Z</time></trkpt><trkpt lat="43.7103283" lon="2.6988567"><ele>826.0</ele><time>2026-04-04T10:21:55.446Z</time></trkpt><trkpt lat="43.710185" lon="2.6988417"><ele>826.0</ele><time>2026-04-04T10:21:56.446Z</time></trkpt><trkpt lat="43.7100467" lon="2.6988367"><ele>825.5</ele><time>2026-04-04T10:21:57.443Z</time></trkpt><trkpt lat="43.70991" lon="2.6988383"><ele>825.0</ele><time>2026-04-04T10:21:58.443Z</time></trkpt><trkpt lat="43.709775" lon="2.6988433"><ele>824.5</ele><time>2026-04-04T10:21:59.443Z</time></trkpt><trkpt lat="43.709645" lon="2.6988517"><ele>824.0</ele><time>2026-04-04T10:22:00.444Z</time></trkpt><trkpt lat="43.7095183" lon="2.6988617"><ele>822.0</ele><time>2026-04-04T10:22:01.444Z</time></trkpt><trkpt lat="43.7093933" lon="2.698885"><ele>820.0</ele><time>2026-04-04T10:22:02.443Z</time></trkpt><trkpt lat="43.7092667" lon="2.6989333"><ele>818.0</ele><time>2026-04-04T10:22:03.444Z</time></trkpt><trkpt lat="43.709145" lon="2.6990017"><ele>816.0</ele><time>2026-04-04T10:22:04.443Z</time></trkpt><trkpt lat="43.70903" lon="2.6990967"><ele>816.0</ele><time>2026-04-04T10:22:05.444Z</time></trkpt><trkpt lat="43.70892" lon="2.69921"><ele>816.0</ele><time>2026-04-04T10:22:06.443Z</time></trkpt><trkpt lat="43.7088117" lon="2.699345"><ele>816.0</ele><time>2026-04-04T10:22:07.443Z</time></trkpt><trkpt lat="43.7087167" lon="2.6994983"><ele>816.0</ele><time>2026-04-04T10:22:08.443Z</time></trkpt><trkpt lat="43.7086383" lon="2.69967"><ele>814.75</ele><time>2026-04-04T10:22:09.443Z</time></trkpt><trkpt lat="43.7085717" lon="2.6998417"><ele>813.5</ele><time>2026-04-04T10:22:10.445Z</time></trkpt><trkpt lat="43.7085067" lon="2.70001"><ele>812.25</ele><time>2026-04-04T10:22:11.444Z</time></trkpt><trkpt lat="43.7084567" lon="2.700175"><ele>811.0</ele><time>2026-04-04T10:22:12.443Z</time></trkpt><trkpt lat="43.7083383" lon="2.700475"><ele>811.0</ele><time>2026-04-04T10:22:14.446Z</time></trkpt><trkpt lat="43.708265" lon="2.7005967"><ele>811.0</ele><time>2026-04-04T10:22:15.446Z</time></trkpt><trkpt lat="43.70819" lon="2.7006883"><ele>811.0</ele><time>2026-04-04T10:22:16.446Z</time></trkpt><trkpt lat="43.7081133" lon="2.7007433"><ele>811.0</ele><time>2026-04-04T10:22:17.445Z</time></trkpt><trkpt lat="43.7080333" lon="2.70077"><ele>811.0</ele><time>2026-04-04T10:22:18.446Z</time></trkpt><trkpt lat="43.7079533" lon="2.7007717"><ele>811.0</ele><time>2026-04-04T10:22:19.447Z</time></trkpt><trkpt lat="43.7078817" lon="2.7007117"><ele>811.0</ele><time>2026-04-04T10:22:20.443Z</time></trkpt><trkpt lat="43.7078117" lon="2.7006233"><ele>811.0</ele><time>2026-04-04T10:22:21.443Z</time></trkpt><trkpt lat="43.707745" lon="2.7004917"><ele>811.0</ele><time>2026-04-04T10:22:22.445Z</time></trkpt><trkpt lat="43.707795" lon="2.70025"><ele>810.3333333333333</ele><time>2026-04-04T10:22:23.445Z</time></trkpt><trkpt lat="43.707825" lon="2.7000083"><ele>809.6666666666667</ele><time>2026-04-04T10:22:24.443Z</time></trkpt><trkpt lat="43.7078433" lon="2.699795"><ele>809.0</ele><time>2026-04-04T10:22:25.447Z</time></trkpt><trkpt lat="43.70786" lon="2.6996"><ele>808.75</ele><time>2026-04-04T10:22:26.447Z</time></trkpt><trkpt lat="43.7078767" lon="2.6994067"><ele>808.5</ele><time>2026-04-04T10:22:27.442Z</time></trkpt><trkpt lat="43.7078867" lon="2.6992067"><ele>808.25</ele><time>2026-04-04T10:22:28.444Z</time></trkpt><trkpt lat="43.7078967" lon="2.69901"><ele>808.0</ele><time>2026-04-04T10:22:29.446Z</time></trkpt><trkpt lat="43.707905" lon="2.698825"><ele>808.0</ele><time>2026-04-04T10:22:30.445Z</time></trkpt><trkpt lat="43.7079117" lon="2.6986567"><ele>808.0</ele><time>2026-04-04T10:22:31.446Z</time></trkpt><trkpt lat="43.707915" lon="2.698495"><ele>808.0</ele><time>2026-04-04T10:22:32.445Z</time></trkpt><trkpt lat="43.7079183" lon="2.6983383"><ele>808.0</ele><time>2026-04-04T10:22:33.443Z</time></trkpt><trkpt lat="43.707905" lon="2.69803"><ele>806.5</ele><time>2026-04-04T10:22:35.443Z</time></trkpt><trkpt lat="43.707875" lon="2.6978767"><ele>805.0</ele><time>2026-04-04T10:22:36.443Z</time></trkpt><trkpt lat="43.7078417" lon="2.6977183"><ele>803.5</ele><time>2026-04-04T10:22:37.444Z</time></trkpt><trkpt lat="43.7078033" lon="2.6975517"><ele>802.0</ele><time>2026-04-04T10:22:38.443Z</time></trkpt><trkpt lat="43.7077633" lon="2.6973917"><ele>802.0</ele><time>2026-04-04T10:22:39.446Z</time></trkpt><trkpt lat="43.7077217" lon="2.6972333"><ele>802.0</ele><time>2026-04-04T10:22:40.445Z</time></trkpt><trkpt lat="43.707675" lon="2.6970817"><ele>802.0</ele><time>2026-04-04T10:22:41.442Z</time></trkpt><trkpt lat="43.707635" lon="2.69692"><ele>802.0</ele><time>2026-04-04T10:22:42.445Z</time></trkpt><trkpt lat="43.707595" lon="2.696755"><ele>802.0</ele><time>2026-04-04T10:22:43.446Z</time></trkpt><trkpt lat="43.70756" lon="2.696595"><ele>802.0</ele><time>2026-04-04T10:22:44.443Z</time></trkpt><trkpt lat="43.7075217" lon="2.6964283"><ele>802.0</ele><time>2026-04-04T10:22:45.444Z</time></trkpt><trkpt lat="43.7074733" lon="2.6962617"><ele>802.0</ele><time>2026-04-04T10:22:46.444Z</time></trkpt><trkpt lat="43.707425" lon="2.696095"><ele>800.75</ele><time>2026-04-04T10:22:47.445Z</time></trkpt><trkpt lat="43.7073783" lon="2.6959317"><ele>799.5</ele><time>2026-04-04T10:22:48.443Z</time></trkpt><trkpt lat="43.7073367" lon="2.69577"><ele>798.25</ele><time>2026-04-04T10:22:49.444Z</time></trkpt><trkpt lat="43.707295" lon="2.6956067"><ele>797.0</ele><time>2026-04-04T10:22:50.444Z</time></trkpt><trkpt lat="43.707255" lon="2.6954417"><ele>797.0</ele><time>2026-04-04T10:22:51.443Z</time></trkpt><trkpt lat="43.707215" lon="2.69528"><ele>797.0</ele><time>2026-04-04T10:22:52.443Z</time></trkpt><trkpt lat="43.707175" lon="2.69512"><ele>797.0</ele><time>2026-04-04T10:22:53.448Z</time></trkpt><trkpt lat="43.7071317" lon="2.6949617"><ele>797.0</ele><time>2026-04-04T10:22:54.446Z</time></trkpt><trkpt lat="43.7070567" lon="2.6946567"><ele>796.75</ele><time>2026-04-04T10:22:56.445Z</time></trkpt><trkpt lat="43.7070217" lon="2.6945067"><ele>796.5</ele><time>2026-04-04T10:22:57.447Z</time></trkpt><trkpt lat="43.70698" lon="2.69435"><ele>796.25</ele><time>2026-04-04T10:22:58.446Z</time></trkpt><trkpt lat="43.70694" lon="2.6941917"><ele>796.0</ele><time>2026-04-04T10:22:59.445Z</time></trkpt><trkpt lat="43.7068983" lon="2.6940433"><ele>796.4</ele><time>2026-04-04T10:23:00.445Z</time></trkpt><trkpt lat="43.70686" lon="2.6938967"><ele>796.8</ele><time>2026-04-04T10:23:01.446Z</time></trkpt><trkpt lat="43.706825" lon="2.6937583"><ele>797.1999999999999</ele><time>2026-04-04T10:23:02.446Z</time></trkpt><trkpt lat="43.7067867" lon="2.6936333"><ele>797.5999999999999</ele><time>2026-04-04T10:23:03.445Z</time></trkpt><trkpt lat="43.7067517" lon="2.6935133"><ele>798.0</ele><time>2026-04-04T10:23:04.445Z</time></trkpt><trkpt lat="43.7067217" lon="2.693405"><ele>798.0</ele><time>2026-04-04T10:23:05.445Z</time></trkpt><trkpt lat="43.7066983" lon="2.6933117"><ele>798.0</ele><time>2026-04-04T10:23:06.446Z</time></trkpt><trkpt lat="43.7066817" lon="2.6932217"><ele>798.0</ele><time>2026-04-04T10:23:07.447Z</time></trkpt><trkpt lat="43.7067017" lon="2.6931317"><ele>798.0</ele><time>2026-04-04T10:23:09.443Z</time></trkpt><trkpt lat="43.7067717" lon="2.6932383"><ele>798.0</ele><time>2026-04-04T10:25:15.442Z</time></trkpt></trkseg><trkseg><trkpt lat="43.7069217" lon="2.69204"><ele>799.0</ele><time>2026-04-04T11:50:08.475Z</time></trkpt><trkpt lat="43.7066733" lon="2.6927317"><ele>798.8333333333333</ele><time>2026-04-04T11:50:11.476Z</time></trkpt><trkpt lat="43.70663" lon="2.69288"><ele>798.6666666666666</ele><time>2026-04-04T11:50:12.476Z</time></trkpt><trkpt lat="43.70669" lon="2.69297"><ele>798.5</ele><time>2026-04-04T11:50:14.476Z</time></trkpt><trkpt lat="43.70668" lon="2.69308"><ele>798.3333333333333</ele><time>2026-04-04T11:50:18.476Z</time></trkpt><trkpt lat="43.7067067" lon="2.6931883"><ele>798.1666666666666</ele><time>2026-04-04T11:50:21.443Z</time></trkpt><trkpt lat="43.7066883" lon="2.6932833"><ele>798.0</ele><time>2026-04-04T11:52:02.444Z</time></trkpt><trkpt lat="43.70672" lon="2.6933617"><ele>798.0</ele><time>2026-04-04T11:52:11.445Z</time></trkpt><trkpt lat="43.7067833" lon="2.6933267"><ele>798.0</ele><time>2026-04-04T11:52:24.444Z</time></trkpt><trkpt lat="43.7068483" lon="2.6933067"><ele>798.0</ele><time>2026-04-04T11:52:29.444Z</time></trkpt><trkpt lat="43.7067833" lon="2.6933067"><ele>798.0</ele><time>2026-04-04T11:52:38.443Z</time></trkpt><trkpt lat="43.7067417" lon="2.693235"><ele>798.0</ele><time>2026-04-04T11:52:49.445Z</time></trkpt><trkpt lat="43.7067233" lon="2.6931517"><ele>798.0</ele><time>2026-04-04T11:54:43.447Z</time></trkpt><trkpt lat="43.706715" lon="2.69306"><ele>798.0</ele><time>2026-04-04T11:54:56.445Z</time></trkpt><trkpt lat="43.7067417" lon="2.6931617"><ele>798.0</ele><time>2026-04-04T11:55:46.447Z</time></trkpt><trkpt lat="43.706665" lon="2.6931133"><ele>798.0</ele><time>2026-04-04T11:56:23.444Z</time></trkpt><trkpt lat="43.7067417" lon="2.693135"><ele>798.0</ele><time>2026-04-04T11:56:51.446Z</time></trkpt><trkpt lat="43.7067333" lon="2.6932367"><ele>798.0</ele><time>2026-04-04T11:58:13.446Z</time></trkpt><trkpt lat="43.7067233" lon="2.6933383"><ele>798.0</ele><time>2026-04-04T11:58:45.446Z</time></trkpt><trkpt lat="43.706665" lon="2.693285"><ele>798.0</ele><time>2026-04-04T11:58:55.446Z</time></trkpt><trkpt lat="43.706655" lon="2.6931833"><ele>798.0</ele><time>2026-04-04T11:58:58.446Z</time></trkpt><trkpt lat="43.7066333" lon="2.693065"><ele>798.0</ele><time>2026-04-04T11:59:01.446Z</time></trkpt><trkpt lat="43.7066133" lon="2.692945"><ele>798.0</ele><time>2026-04-04T11:59:04.444Z</time></trkpt><trkpt lat="43.7066167" lon="2.6928217"><ele>798.0</ele><time>2026-04-04T11:59:07.444Z</time></trkpt><trkpt lat="43.7066233" lon="2.6926983"><ele>798.0</ele><time>2026-04-04T11:59:10.442Z</time></trkpt><trkpt lat="43.7066533" lon="2.6925833"><ele>798.0</ele><time>2026-04-04T11:59:13.444Z</time></trkpt><trkpt lat="43.70667" lon="2.692485"><ele>798.1666666666666</ele><time>2026-04-04T11:59:15.446Z</time></trkpt><trkpt lat="43.7067267" lon="2.6924"><ele>798.3333333333333</ele><time>2026-04-04T11:59:18.445Z</time></trkpt><trkpt lat="43.7067867" lon="2.6923067"><ele>798.5</ele><time>2026-04-04T11:59:21.444Z</time></trkpt><trkpt lat="43.7068333" lon="2.69221"><ele>798.6666666666666</ele><time>2026-04-04T11:59:24.443Z</time></trkpt><trkpt lat="43.7069017" lon="2.692125"><ele>798.8333333333333</ele><time>2026-04-04T11:59:27.445Z</time></trkpt><trkpt lat="43.7069567" lon="2.69208"><ele>799.0</ele><time>2026-04-04T11:59:29.442Z</time></trkpt><trkpt lat="43.707015" lon="2.6920283"><ele>798.5714285714286</ele><time>2026-04-04T11:59:31.446Z</time></trkpt><trkpt lat="43.707085" lon="2.6919967"><ele>798.1428571428571</ele><time>2026-04-04T11:59:34.446Z</time></trkpt><trkpt lat="43.7071383" lon="2.6919333"><ele>797.7142857142857</ele><time>2026-04-04T11:59:37.446Z</time></trkpt><trkpt lat="43.70719" lon="2.691825"><ele>797.2857142857142</ele><time>2026-04-04T11:59:40.446Z</time></trkpt><trkpt lat="43.707235" lon="2.6917283"><ele>796.8571428571429</ele><time>2026-04-04T11:59:43.446Z</time></trkpt><trkpt lat="43.70727" lon="2.691655"><ele>796.4285714285713</ele><time>2026-04-04T11:59:46.447Z</time></trkpt><trkpt lat="43.7072783" lon="2.6915667"><ele>796.0</ele><time>2026-04-04T11:59:49.444Z</time></trkpt><trkpt lat="43.7072033" lon="2.6914367"><ele>795.9999999999999</ele><time>2026-04-04T11:59:51.446Z</time></trkpt><trkpt lat="43.7071767" lon="2.69135"><ele>796.0</ele><time>2026-04-04T11:59:52.446Z</time></trkpt><trkpt lat="43.707155" lon="2.6912433"><ele>796.0</ele><time>2026-04-04T11:59:53.446Z</time></trkpt><trkpt lat="43.7071467" lon="2.6911233"><ele>796.0</ele><time>2026-04-04T11:59:54.444Z</time></trkpt><trkpt lat="43.7071433" lon="2.6909967"><ele>795.9999999999999</ele><time>2026-04-04T11:59:55.443Z</time></trkpt><trkpt lat="43.7071517" lon="2.69087"><ele>796.0</ele><time>2026-04-04T11:59:56.445Z</time></trkpt><trkpt lat="43.7071633" lon="2.6907483"><ele>796.3333333333333</ele><time>2026-04-04T11:59:57.442Z</time></trkpt><trkpt lat="43.7071733" lon="2.690625"><ele>796.6666666666666</ele><time>2026-04-04T11:59:58.443Z</time></trkpt><trkpt lat="43.7071817" lon="2.6905133"><ele>797.0</ele><time>2026-04-04T11:59:59.444Z</time></trkpt><trkpt lat="43.7071867" lon="2.690405"><ele>797.3333333333333</ele><time>2026-04-04T12:00:00.443Z</time></trkpt><trkpt lat="43.7071967" lon="2.690295"><ele>797.6666666666666</ele><time>2026-04-04T12:00:01.443Z</time></trkpt><trkpt lat="43.7072067" lon="2.6901833"><ele>798.0</ele><time>2026-04-04T12:00:02.443Z</time></trkpt><trkpt lat="43.707215" lon="2.6900733"><ele>798.0</ele><time>2026-04-04T12:00:03.443Z</time></trkpt><trkpt lat="43.707215" lon="2.6899583"><ele>798.0</ele><time>2026-04-04T12:00:04.445Z</time></trkpt><trkpt lat="43.707215" lon="2.6898433"><ele>798.0</ele><time>2026-04-04T12:00:05.446Z</time></trkpt><trkpt lat="43.7072217" lon="2.6897317"><ele>798.0</ele><time>2026-04-04T12:00:06.444Z</time></trkpt><trkpt lat="43.7072217" lon="2.6896183"><ele>798.0</ele><time>2026-04-04T12:00:07.444Z</time></trkpt><trkpt lat="43.7072183" lon="2.68951"><ele>798.0</ele><time>2026-04-04T12:00:08.443Z</time></trkpt><trkpt lat="43.7072033" lon="2.6894117"><ele>797.8333333333334</ele><time>2026-04-04T12:00:09.443Z</time></trkpt><trkpt lat="43.70715" lon="2.6892833"><ele>797.6666666666667</ele><time>2026-04-04T12:00:11.443Z</time></trkpt><trkpt lat="43.707035" lon="2.6892733"><ele>797.5</ele><time>2026-04-04T12:00:13.445Z</time></trkpt><trkpt lat="43.70698" lon="2.6893317"><ele>797.3333333333334</ele><time>2026-04-04T12:00:14.445Z</time></trkpt><trkpt lat="43.7069233" lon="2.6894"><ele>797.1666666666667</ele><time>2026-04-04T12:00:15.442Z</time></trkpt><trkpt lat="43.7068733" lon="2.6894767"><ele>797.0</ele><time>2026-04-04T12:00:16.444Z</time></trkpt><trkpt lat="43.706815" lon="2.68954"><ele>798.8333333333334</ele><time>2026-04-04T12:00:17.443Z</time></trkpt><trkpt lat="43.7067617" lon="2.689595"><ele>800.6666666666667</ele><time>2026-04-04T12:00:18.443Z</time></trkpt><trkpt lat="43.7066917" lon="2.68972"><ele>802.5</ele><time>2026-04-04T12:00:20.446Z</time></trkpt><trkpt lat="43.70662" lon="2.6897633"><ele>804.3333333333333</ele><time>2026-04-04T12:00:22.446Z</time></trkpt><trkpt lat="43.7066183" lon="2.6896317"><ele>806.1666666666666</ele><time>2026-04-04T12:00:25.446Z</time></trkpt><trkpt lat="43.7066483" lon="2.689515"><ele>808.0</ele><time>2026-04-04T12:00:26.445Z</time></trkpt><trkpt lat="43.7066767" lon="2.6894017"><ele>808.5999999999999</ele><time>2026-04-04T12:00:27.444Z</time></trkpt><trkpt lat="43.706705" lon="2.689295"><ele>809.1999999999999</ele><time>2026-04-04T12:00:28.444Z</time></trkpt><trkpt lat="43.7067317" lon="2.6891633"><ele>809.8</ele><time>2026-04-04T12:00:29.443Z</time></trkpt><trkpt lat="43.70677" lon="2.68904"><ele>810.4</ele><time>2026-04-04T12:00:30.443Z</time></trkpt><trkpt lat="43.7068133" lon="2.6889183"><ele>811.0</ele><time>2026-04-04T12:00:31.444Z</time></trkpt><trkpt lat="43.706845" lon="2.68879"><ele>811.0</ele><time>2026-04-04T12:00:32.442Z</time></trkpt><trkpt lat="43.7068617" lon="2.6886517"><ele>811.0</ele><time>2026-04-04T12:00:33.443Z</time></trkpt><trkpt lat="43.70687" lon="2.6885083"><ele>811.0</ele><time>2026-04-04T12:00:34.444Z</time></trkpt><trkpt lat="43.7068667" lon="2.6883583"><ele>811.0</ele><time>2026-04-04T12:00:35.445Z</time></trkpt><trkpt lat="43.7068633" lon="2.688205"><ele>811.0</ele><time>2026-04-04T12:00:36.443Z</time></trkpt><trkpt lat="43.7068617" lon="2.68805"><ele>811.75</ele><time>2026-04-04T12:00:37.443Z</time></trkpt><trkpt lat="43.7068583" lon="2.6878883"><ele>812.5</ele><time>2026-04-04T12:00:38.442Z</time></trkpt><trkpt lat="43.706845" lon="2.6877267"><ele>813.25</ele><time>2026-04-04T12:00:39.442Z</time></trkpt><trkpt lat="43.70682" lon="2.68757"><ele>814.0</ele><time>2026-04-04T12:00:40.445Z</time></trkpt><trkpt lat="43.7067883" lon="2.6874117"><ele>814.0</ele><time>2026-04-04T12:00:41.442Z</time></trkpt><trkpt lat="43.706745" lon="2.6872583"><ele>814.0</ele><time>2026-04-04T12:00:42.443Z</time></trkpt><trkpt lat="43.7066967" lon="2.6871117"><ele>814.0</ele><time>2026-04-04T12:00:43.446Z</time></trkpt><trkpt lat="43.7066367" lon="2.6869717"><ele>814.0</ele><time>2026-04-04T12:00:44.446Z</time></trkpt><trkpt lat="43.7065733" lon="2.686835"><ele>812.0</ele><time>2026-04-04T12:00:45.446Z</time></trkpt><trkpt lat="43.7065017" lon="2.686705"><ele>810.0</ele><time>2026-04-04T12:00:46.445Z</time></trkpt><trkpt lat="43.706425" lon="2.6865867"><ele>808.0</ele><time>2026-04-04T12:00:47.446Z</time></trkpt><trkpt lat="43.7063333" lon="2.6864967"><ele>806.0</ele><time>2026-04-04T12:00:48.445Z</time></trkpt><trkpt lat="43.7062317" lon="2.68645"><ele>806.0</ele><time>2026-04-04T12:00:49.446Z</time></trkpt><trkpt lat="43.706125" lon="2.68645"><ele>806.0</ele><time>2026-04-04T12:00:50.447Z</time></trkpt><trkpt lat="43.7060283" lon="2.6864883"><ele>806.0</ele><time>2026-04-04T12:00:51.445Z</time></trkpt><trkpt lat="43.7059517" lon="2.6865767"><ele>806.0</ele><time>2026-04-04T12:00:52.456Z</time></trkpt><trkpt lat="43.705885" lon="2.6866833"><ele>806.0</ele><time>2026-04-04T12:00:53.446Z</time></trkpt><trkpt lat="43.705835" lon="2.6868267"><ele>810.25</ele><time>2026-04-04T12:00:54.444Z</time></trkpt><trkpt lat="43.7058" lon="2.68698"><ele>814.5</ele><time>2026-04-04T12:00:55.443Z</time></trkpt><trkpt lat="43.7057633" lon="2.68714"><ele>818.75</ele><time>2026-04-04T12:00:56.443Z</time></trkpt><trkpt lat="43.705735" lon="2.687305"><ele>823.0</ele><time>2026-04-04T12:00:57.445Z</time></trkpt><trkpt lat="43.705695" lon="2.68747"><ele>823.0</ele><time>2026-04-04T12:00:58.443Z</time></trkpt><trkpt lat="43.7056483" lon="2.687635"><ele>823.0</ele><time>2026-04-04T12:00:59.442Z</time></trkpt><trkpt lat="43.7056017" lon="2.6877983"><ele>823.0</ele><time>2026-04-04T12:01:00.444Z</time></trkpt><trkpt lat="43.7055567" lon="2.68796"><ele>823.0</ele><time>2026-04-04T12:01:01.443Z</time></trkpt><trkpt lat="43.7055133" lon="2.68812"><ele>823.5</ele><time>2026-04-04T12:01:02.443Z</time></trkpt><trkpt lat="43.7054683" lon="2.6882833"><ele>824.0</ele><time>2026-04-04T12:01:03.442Z</time></trkpt><trkpt lat="43.70542" lon="2.6884383"><ele>824.5</ele><time>2026-04-04T12:01:04.444Z</time></trkpt><trkpt lat="43.7053617" lon="2.6885783"><ele>825.0</ele><time>2026-04-04T12:01:05.443Z</time></trkpt><trkpt lat="43.7052883" lon="2.6886817"><ele>825.4</ele><time>2026-04-04T12:01:06.446Z</time></trkpt><trkpt lat="43.705205" lon="2.68875"><ele>825.8</ele><time>2026-04-04T12:01:07.444Z</time></trkpt><trkpt lat="43.705105" lon="2.6887783"><ele>826.2</ele><time>2026-04-04T12:01:08.442Z</time></trkpt><trkpt lat="43.705005" lon="2.6887483"><ele>826.6</ele><time>2026-04-04T12:01:09.444Z</time></trkpt><trkpt lat="43.7048983" lon="2.6886517"><ele>827.0</ele><time>2026-04-04T12:01:10.444Z</time></trkpt><trkpt lat="43.7048033" lon="2.6885217"><ele>827.0</ele><time>2026-04-04T12:01:11.443Z</time></trkpt><trkpt lat="43.7047217" lon="2.6884033"><ele>827.0</ele><time>2026-04-04T12:01:12.446Z</time></trkpt><trkpt lat="43.7046417" lon="2.6882817"><ele>827.0</ele><time>2026-04-04T12:01:13.443Z</time></trkpt><trkpt lat="43.7045633" lon="2.6881617"><ele>827.0</ele><time>2026-04-04T12:01:14.443Z</time></trkpt><trkpt lat="43.7044817" lon="2.68804"><ele>830.0</ele><time>2026-04-04T12:01:15.448Z</time></trkpt><trkpt lat="43.7044017" lon="2.6879183"><ele>833.0</ele><time>2026-04-04T12:01:16.443Z</time></trkpt><trkpt lat="43.7043233" lon="2.6877983"><ele>836.0</ele><time>2026-04-04T12:01:17.444Z</time></trkpt><trkpt lat="43.70424" lon="2.687675"><ele>839.0</ele><time>2026-04-04T12:01:18.447Z</time></trkpt><trkpt lat="43.7041567" lon="2.6875433"><ele>839.0</ele><time>2026-04-04T12:01:19.444Z</time></trkpt><trkpt lat="43.70408" lon="2.6874083"><ele>839.0</ele><time>2026-04-04T12:01:20.443Z</time></trkpt><trkpt lat="43.7039933" lon="2.6872733"><ele>839.0</ele><time>2026-04-04T12:01:21.443Z</time></trkpt><trkpt lat="43.703905" lon="2.68714"><ele>839.0</ele><time>2026-04-04T12:01:22.444Z</time></trkpt><trkpt lat="43.703815" lon="2.6870083"><ele>836.0</ele><time>2026-04-04T12:01:23.448Z</time></trkpt><trkpt lat="43.7037317" lon="2.6868767"><ele>833.0</ele><time>2026-04-04T12:01:24.444Z</time></trkpt><trkpt lat="43.7036517" lon="2.686745"><ele>830.0</ele><time>2026-04-04T12:01:25.443Z</time></trkpt><trkpt lat="43.7035717" lon="2.6866167"><ele>827.0</ele><time>2026-04-04T12:01:26.443Z</time></trkpt><trkpt lat="43.7034867" lon="2.6864767"><ele>831.25</ele><time>2026-04-04T12:01:27.444Z</time></trkpt><trkpt lat="43.7034033" lon="2.686335"><ele>835.5</ele><time>2026-04-04T12:01:28.444Z</time></trkpt><trkpt lat="43.7033067" lon="2.6861917"><ele>839.75</ele><time>2026-04-04T12:01:29.443Z</time></trkpt><trkpt lat="43.7032067" lon="2.6860467"><ele>844.0</ele><time>2026-04-04T12:01:30.445Z</time></trkpt><trkpt lat="43.7031083" lon="2.6858967"><ele>844.0</ele><time>2026-04-04T12:01:31.443Z</time></trkpt><trkpt lat="43.7030083" lon="2.685745"><ele>844.0</ele><time>2026-04-04T12:01:32.444Z</time></trkpt><trkpt lat="43.70291" lon="2.6855917"><ele>844.0</ele><time>2026-04-04T12:01:33.443Z</time></trkpt><trkpt lat="43.7028133" lon="2.6854367"><ele>844.0</ele><time>2026-04-04T12:01:34.443Z</time></trkpt><trkpt lat="43.70272" lon="2.6852833"><ele>848.0</ele><time>2026-04-04T12:01:35.444Z</time></trkpt><trkpt lat="43.702625" lon="2.6851283"><ele>852.0</ele><time>2026-04-04T12:01:36.445Z</time></trkpt><trkpt lat="43.7025333" lon="2.6849633"><ele>856.0</ele><time>2026-04-04T12:01:37.444Z</time></trkpt><trkpt lat="43.7024417" lon="2.684795"><ele>856.0</ele><time>2026-04-04T12:01:38.444Z</time></trkpt><trkpt lat="43.7023567" lon="2.68462"><ele>856.0</ele><time>2026-04-04T12:01:39.443Z</time></trkpt><trkpt lat="43.7022767" lon="2.6844417"><ele>856.0</ele><time>2026-04-04T12:01:40.447Z</time></trkpt><trkpt lat="43.7022" lon="2.68426"><ele>853.0</ele><time>2026-04-04T12:01:41.446Z</time></trkpt><trkpt lat="43.70212" lon="2.6840783"><ele>850.0</ele><time>2026-04-04T12:01:42.446Z</time></trkpt><trkpt lat="43.7020367" lon="2.6838967"><ele>847.0</ele><time>2026-04-04T12:01:43.447Z</time></trkpt><trkpt lat="43.70196" lon="2.6837067"><ele>854.6666666666666</ele><time>2026-04-04T12:01:44.446Z</time></trkpt><trkpt lat="43.70189" lon="2.6835133"><ele>862.3333333333333</ele><time>2026-04-04T12:01:45.446Z</time></trkpt><trkpt lat="43.70182" lon="2.6833133"><ele>870.0</ele><time>2026-04-04T12:01:46.447Z</time></trkpt><trkpt lat="43.70175" lon="2.6831133"><ele>870.0</ele><time>2026-04-04T12:01:47.444Z</time></trkpt><trkpt lat="43.70168" lon="2.682915"><ele>870.0</ele><time>2026-04-04T12:01:48.446Z</time></trkpt><trkpt lat="43.701615" lon="2.68272"><ele>870.0</ele><time>2026-04-04T12:01:49.445Z</time></trkpt><trkpt lat="43.70155" lon="2.68252"><ele>868.0</ele><time>2026-04-04T12:01:50.443Z</time></trkpt><trkpt lat="43.7014883" lon="2.6823167"><ele>866.0</ele><time>2026-04-04T12:01:51.444Z</time></trkpt><trkpt lat="43.70143" lon="2.68211"><ele>864.0</ele><time>2026-04-04T12:01:52.446Z</time></trkpt><trkpt lat="43.7013717" lon="2.6819017"><ele>861.3333333333333</ele><time>2026-04-04T12:01:53.443Z</time></trkpt><trkpt lat="43.7013183" lon="2.68169"><ele>858.6666666666666</ele><time>2026-04-04T12:01:54.444Z</time></trkpt><trkpt lat="43.7012617" lon="2.6814783"><ele>856.0</ele><time>2026-04-04T12:01:55.442Z</time></trkpt><trkpt lat="43.70121" lon="2.681265"><ele>854.3333333333333</ele><time>2026-04-04T12:01:56.442Z</time></trkpt><trkpt lat="43.7011533" lon="2.68105"><ele>852.6666666666667</ele><time>2026-04-04T12:01:57.443Z</time></trkpt><trkpt lat="43.7010967" lon="2.6808333"><ele>851.0</ele><time>2026-04-04T12:01:58.442Z</time></trkpt><trkpt lat="43.7010467" lon="2.6806183"><ele>862.3333333333334</ele><time>2026-04-04T12:01:59.443Z</time></trkpt><trkpt lat="43.7009967" lon="2.680405"><ele>873.6666666666667</ele><time>2026-04-04T12:02:00.443Z</time></trkpt><trkpt lat="43.7009483" lon="2.6801917"><ele>885.0</ele><time>2026-04-04T12:02:01.442Z</time></trkpt><trkpt lat="43.7009033" lon="2.6799783"><ele>885.0</ele><time>2026-04-04T12:02:02.444Z</time></trkpt><trkpt lat="43.700865" lon="2.679755"><ele>885.0</ele><time>2026-04-04T12:02:03.444Z</time></trkpt><trkpt lat="43.7008283" lon="2.679535"><ele>885.0</ele><time>2026-04-04T12:02:04.445Z</time></trkpt><trkpt lat="43.70079" lon="2.679325"><ele>884.5</ele><time>2026-04-04T12:02:05.444Z</time></trkpt><trkpt lat="43.7007417" lon="2.6791233"><ele>884.0</ele><time>2026-04-04T12:02:06.443Z</time></trkpt><trkpt lat="43.70068" lon="2.6789333"><ele>883.5</ele><time>2026-04-04T12:02:07.447Z</time></trkpt><trkpt lat="43.7005917" lon="2.6787783"><ele>883.0</ele><time>2026-04-04T12:02:08.444Z</time></trkpt><trkpt lat="43.70048" lon="2.6787033"><ele>883.0</ele><time>2026-04-04T12:02:09.444Z</time></trkpt><trkpt lat="43.7003617" lon="2.67868"><ele>883.0</ele><time>2026-04-04T12:02:10.444Z</time></trkpt><trkpt lat="43.700245" lon="2.6787067"><ele>883.0</ele><time>2026-04-04T12:02:11.444Z</time></trkpt><trkpt lat="43.7001383" lon="2.6787817"><ele>883.0</ele><time>2026-04-04T12:02:12.444Z</time></trkpt><trkpt lat="43.700045" lon="2.678905"><ele>882.75</ele><time>2026-04-04T12:02:13.444Z</time></trkpt><trkpt lat="43.6999583" lon="2.6790533"><ele>882.5</ele><time>2026-04-04T12:02:14.442Z</time></trkpt><trkpt lat="43.6998817" lon="2.67922"><ele>882.25</ele><time>2026-04-04T12:02:15.449Z</time></trkpt><trkpt lat="43.6998183" lon="2.6793967"><ele>882.0</ele><time>2026-04-04T12:02:16.446Z</time></trkpt><trkpt lat="43.6997633" lon="2.67958"><ele>885.25</ele><time>2026-04-04T12:02:17.446Z</time></trkpt><trkpt lat="43.69971" lon="2.6797667"><ele>888.5</ele><time>2026-04-04T12:02:18.447Z</time></trkpt><trkpt lat="43.69966" lon="2.6799567"><ele>891.75</ele><time>2026-04-04T12:02:19.447Z</time></trkpt><trkpt lat="43.6996133" lon="2.68015"><ele>895.0</ele><time>2026-04-04T12:02:20.446Z</time></trkpt><trkpt lat="43.69957" lon="2.6803467"><ele>898.0</ele><time>2026-04-04T12:02:21.446Z</time></trkpt><trkpt lat="43.6995333" lon="2.680545"><ele>901.0</ele><time>2026-04-04T12:02:22.447Z</time></trkpt><trkpt lat="43.6995033" lon="2.68075"><ele>904.0</ele><time>2026-04-04T12:02:23.446Z</time></trkpt><trkpt lat="43.6994817" lon="2.6809517"><ele>907.0</ele><time>2026-04-04T12:02:24.447Z</time></trkpt><trkpt lat="43.69946" lon="2.6811567"><ele>907.0</ele><time>2026-04-04T12:02:25.446Z</time></trkpt><trkpt lat="43.6994367" lon="2.6813683"><ele>907.0</ele><time>2026-04-04T12:02:26.447Z</time></trkpt><trkpt lat="43.6994067" lon="2.68157"><ele>907.0</ele><time>2026-04-04T12:02:27.443Z</time></trkpt><trkpt lat="43.6993733" lon="2.6817633"><ele>907.0</ele><time>2026-04-04T12:02:28.443Z</time></trkpt><trkpt lat="43.6993367" lon="2.68195"><ele>907.0</ele><time>2026-04-04T12:02:29.443Z</time></trkpt><trkpt lat="43.6993017" lon="2.6821233"><ele>907.0</ele><time>2026-04-04T12:02:30.444Z</time></trkpt><trkpt lat="43.6992717" lon="2.68229"><ele>907.0</ele><time>2026-04-04T12:02:31.442Z</time></trkpt><trkpt lat="43.6992383" lon="2.6824567"><ele>907.0</ele><time>2026-04-04T12:02:32.443Z</time></trkpt><trkpt lat="43.69921" lon="2.6826217"><ele>909.5</ele><time>2026-04-04T12:02:33.443Z</time></trkpt><trkpt lat="43.6991817" lon="2.68279"><ele>912.0</ele><time>2026-04-04T12:02:34.445Z</time></trkpt><trkpt lat="43.699145" lon="2.6829583"><ele>914.5</ele><time>2026-04-04T12:02:35.447Z</time></trkpt><trkpt lat="43.6991033" lon="2.6831267"><ele>917.0</ele><time>2026-04-04T12:02:36.445Z</time></trkpt><trkpt lat="43.6990617" lon="2.6832983"><ele>917.0</ele><time>2026-04-04T12:02:37.444Z</time></trkpt><trkpt lat="43.6990183" lon="2.68347"><ele>917.0</ele><time>2026-04-04T12:02:38.444Z</time></trkpt><trkpt lat="43.6989783" lon="2.68364"><ele>917.0</ele><time>2026-04-04T12:02:39.443Z</time></trkpt><trkpt lat="43.69894" lon="2.6838133"><ele>917.0</ele><time>2026-04-04T12:02:40.444Z</time></trkpt><trkpt lat="43.6989033" lon="2.6839817"><ele>918.25</ele><time>2026-04-04T12:02:41.442Z</time></trkpt><trkpt lat="43.698865" lon="2.68415"><ele>919.5</ele><time>2026-04-04T12:02:42.446Z</time></trkpt><trkpt lat="43.69883" lon="2.6843167"><ele>920.75</ele><time>2026-04-04T12:02:43.446Z</time></trkpt><trkpt lat="43.6987967" lon="2.6844817"><ele>922.0</ele><time>2026-04-04T12:02:44.447Z</time></trkpt><trkpt lat="43.6987667" lon="2.684645"><ele>923.25</ele><time>2026-04-04T12:02:45.447Z</time></trkpt><trkpt lat="43.6987333" lon="2.6848067"><ele>924.5</ele><time>2026-04-04T12:02:46.446Z</time></trkpt><trkpt lat="43.6986983" lon="2.6849633"><ele>925.75</ele><time>2026-04-04T12:02:47.447Z</time></trkpt><trkpt lat="43.698665" lon="2.685115"><ele>927.0</ele><time>2026-04-04T12:02:48.443Z</time></trkpt><trkpt lat="43.6986333" lon="2.6852617"><ele>927.25</ele><time>2026-04-04T12:02:49.447Z</time></trkpt><trkpt lat="43.698595" lon="2.685405"><ele>927.5</ele><time>2026-04-04T12:02:50.446Z</time></trkpt><trkpt lat="43.6985433" lon="2.6855433"><ele>927.75</ele><time>2026-04-04T12:02:51.446Z</time></trkpt><trkpt lat="43.6984767" lon="2.685675"><ele>928.0</ele><time>2026-04-04T12:02:52.447Z</time></trkpt><trkpt lat="43.6984033" lon="2.6857983"><ele>928.0</ele><time>2026-04-04T12:02:53.446Z</time></trkpt><trkpt lat="43.6983167" lon="2.6859117"><ele>928.0</ele><time>2026-04-04T12:02:54.446Z</time></trkpt><trkpt lat="43.6982233" lon="2.686005"><ele>928.0</ele><time>2026-04-04T12:02:55.446Z</time></trkpt><trkpt lat="43.6981183" lon="2.6860767"><ele>928.0</ele><time>2026-04-04T12:02:56.446Z</time></trkpt><trkpt lat="43.6980117" lon="2.68613"><ele>928.0</ele><time>2026-04-04T12:02:57.444Z</time></trkpt><trkpt lat="43.6978983" lon="2.686165"><ele>928.0</ele><time>2026-04-04T12:02:58.443Z</time></trkpt><trkpt lat="43.6977783" lon="2.6861817"><ele>928.0</ele><time>2026-04-04T12:02:59.442Z</time></trkpt><trkpt lat="43.6976533" lon="2.686165"><ele>928.0</ele><time>2026-04-04T12:03:00.445Z</time></trkpt><trkpt lat="43.6975383" lon="2.6861267"><ele>929.0</ele><time>2026-04-04T12:03:01.443Z</time></trkpt><trkpt lat="43.69743" lon="2.6860617"><ele>930.0</ele><time>2026-04-04T12:03:02.444Z</time></trkpt><trkpt lat="43.69732" lon="2.6859733"><ele>931.0</ele><time>2026-04-04T12:03:03.444Z</time></trkpt><trkpt lat="43.6972183" lon="2.6858717"><ele>932.0</ele><time>2026-04-04T12:03:04.445Z</time></trkpt><trkpt lat="43.69713" lon="2.6857633"><ele>932.0</ele><time>2026-04-04T12:03:05.443Z</time></trkpt><trkpt lat="43.6970533" lon="2.685645"><ele>932.0</ele><time>2026-04-04T12:03:06.443Z</time></trkpt><trkpt lat="43.69698" lon="2.6855167"><ele>932.0</ele><time>2026-04-04T12:03:07.446Z</time></trkpt><trkpt lat="43.6969067" lon="2.6853833"><ele>932.0</ele><time>2026-04-04T12:03:08.444Z</time></trkpt><trkpt lat="43.6968367" lon="2.685255"><ele>935.0</ele><time>2026-04-04T12:03:09.446Z</time></trkpt><trkpt lat="43.696765" lon="2.6851233"><ele>938.0</ele><time>2026-04-04T12:03:10.447Z</time></trkpt><trkpt lat="43.6966933" lon="2.68499"><ele>941.0</ele><time>2026-04-04T12:03:11.446Z</time></trkpt><trkpt lat="43.6966217" lon="2.6848483"><ele>944.0</ele><time>2026-04-04T12:03:12.446Z</time></trkpt><trkpt lat="43.6965517" lon="2.6847083"><ele>944.0</ele><time>2026-04-04T12:03:13.446Z</time></trkpt><trkpt lat="43.6964833" lon="2.6845617"><ele>944.0</ele><time>2026-04-04T12:03:14.447Z</time></trkpt><trkpt lat="43.6964167" lon="2.6844183"><ele>944.0</ele><time>2026-04-04T12:03:15.446Z</time></trkpt><trkpt lat="43.6963533" lon="2.6842717"><ele>944.0</ele><time>2026-04-04T12:03:16.446Z</time></trkpt><trkpt lat="43.696285" lon="2.6841183"><ele>942.25</ele><time>2026-04-04T12:03:17.444Z</time></trkpt><trkpt lat="43.6962167" lon="2.6839617"><ele>940.5</ele><time>2026-04-04T12:03:18.444Z</time></trkpt><trkpt lat="43.696145" lon="2.6837967"><ele>938.75</ele><time>2026-04-04T12:03:19.446Z</time></trkpt><trkpt lat="43.6960733" lon="2.683615"><ele>937.0</ele><time>2026-04-04T12:03:20.444Z</time></trkpt><trkpt lat="43.6960117" lon="2.683425"><ele>942.5</ele><time>2026-04-04T12:03:21.444Z</time></trkpt><trkpt lat="43.695965" lon="2.683225"><ele>948.0</ele><time>2026-04-04T12:03:22.444Z</time></trkpt><trkpt lat="43.695935" lon="2.683025"><ele>953.5</ele><time>2026-04-04T12:03:23.445Z</time></trkpt><trkpt lat="43.69592" lon="2.68282"><ele>959.0</ele><time>2026-04-04T12:03:24.445Z</time></trkpt><trkpt lat="43.6959233" lon="2.6826117"><ele>959.6666666666667</ele><time>2026-04-04T12:03:25.445Z</time></trkpt><trkpt lat="43.6959383" lon="2.682405"><ele>960.3333333333333</ele><time>2026-04-04T12:03:26.444Z</time></trkpt><trkpt lat="43.6959417" lon="2.6821967"><ele>961.0</ele><time>2026-04-04T12:03:27.445Z</time></trkpt><trkpt lat="43.6959283" lon="2.6819917"><ele>960.6666666666666</ele><time>2026-04-04T12:03:28.444Z</time></trkpt><trkpt lat="43.6958917" lon="2.6817867"><ele>960.3333333333333</ele><time>2026-04-04T12:03:29.443Z</time></trkpt><trkpt lat="43.6958433" lon="2.6815783"><ele>960.0</ele><time>2026-04-04T12:03:30.444Z</time></trkpt><trkpt lat="43.695785" lon="2.6813717"><ele>960.0</ele><time>2026-04-04T12:03:31.445Z</time></trkpt><trkpt lat="43.6957283" lon="2.681165"><ele>960.0</ele><time>2026-04-04T12:03:32.444Z</time></trkpt><trkpt lat="43.6956633" lon="2.68096"><ele>960.0</ele><time>2026-04-04T12:03:33.446Z</time></trkpt><trkpt lat="43.695595" lon="2.6807533"><ele>960.0</ele><time>2026-04-04T12:03:34.446Z</time></trkpt><trkpt lat="43.6955233" lon="2.6805483"><ele>960.0</ele><time>2026-04-04T12:03:35.446Z</time></trkpt><trkpt lat="43.6954467" lon="2.680345"><ele>960.0</ele><time>2026-04-04T12:03:36.444Z</time></trkpt><trkpt lat="43.695365" lon="2.6801417"><ele>958.0</ele><time>2026-04-04T12:03:37.445Z</time></trkpt><trkpt lat="43.6952867" lon="2.679935"><ele>956.0</ele><time>2026-04-04T12:03:38.444Z</time></trkpt><trkpt lat="43.6952167" lon="2.6797233"><ele>954.0</ele><time>2026-04-04T12:03:39.447Z</time></trkpt><trkpt lat="43.6951517" lon="2.6795067"><ele>962.3333333333333</ele><time>2026-04-04T12:03:40.445Z</time></trkpt><trkpt lat="43.6950917" lon="2.6792833"><ele>970.6666666666666</ele><time>2026-04-04T12:03:41.444Z</time></trkpt><trkpt lat="43.6950567" lon="2.6790517"><ele>979.0</ele><time>2026-04-04T12:03:42.447Z</time></trkpt><trkpt lat="43.6950283" lon="2.6788217"><ele>978.3333333333333</ele><time>2026-04-04T12:03:43.444Z</time></trkpt><trkpt lat="43.6949933" lon="2.678595"><ele>977.6666666666667</ele><time>2026-04-04T12:03:44.444Z</time></trkpt><trkpt lat="43.69496" lon="2.6783683"><ele>977.0</ele><time>2026-04-04T12:03:45.446Z</time></trkpt><trkpt lat="43.694915" lon="2.6781433"><ele>977.0</ele><time>2026-04-04T12:03:46.446Z</time></trkpt><trkpt lat="43.694865" lon="2.6779317"><ele>977.0</ele><time>2026-04-04T12:03:47.443Z</time></trkpt><trkpt lat="43.6948017" lon="2.6777283"><ele>977.0</ele><time>2026-04-04T12:03:48.444Z</time></trkpt><trkpt lat="43.694725" lon="2.677535"><ele>976.0</ele><time>2026-04-04T12:03:49.445Z</time></trkpt><trkpt lat="43.6946433" lon="2.6773417"><ele>975.0</ele><time>2026-04-04T12:03:50.444Z</time></trkpt><trkpt lat="43.694555" lon="2.6771517"><ele>974.0</ele><time>2026-04-04T12:03:51.444Z</time></trkpt><trkpt lat="43.6944633" lon="2.6769667"><ele>980.3333333333334</ele><time>2026-04-04T12:03:52.446Z</time></trkpt><trkpt lat="43.6943717" lon="2.6767817"><ele>986.6666666666667</ele><time>2026-04-04T12:03:53.444Z</time></trkpt><trkpt lat="43.694275" lon="2.676595"><ele>993.0</ele><time>2026-04-04T12:03:54.445Z</time></trkpt><trkpt lat="43.6941717" lon="2.676415"><ele>993.0</ele><time>2026-04-04T12:03:55.444Z</time></trkpt><trkpt lat="43.6940633" lon="2.6762417"><ele>993.0</ele><time>2026-04-04T12:03:56.445Z</time></trkpt><trkpt lat="43.6939583" lon="2.6760633"><ele>993.0</ele><time>2026-04-04T12:03:57.446Z</time></trkpt><trkpt lat="43.6938417" lon="2.6758817"><ele>992.6666666666667</ele><time>2026-04-04T12:03:58.445Z</time></trkpt><trkpt lat="43.693725" lon="2.6757067"><ele>992.3333333333334</ele><time>2026-04-04T12:03:59.444Z</time></trkpt><trkpt lat="43.6936017" lon="2.6755333"><ele>992.0</ele><time>2026-04-04T12:04:00.444Z</time></trkpt><trkpt lat="43.6934817" lon="2.67536"><ele>993.3333333333334</ele><time>2026-04-04T12:04:01.444Z</time></trkpt><trkpt lat="43.6933633" lon="2.6751833"><ele>994.6666666666667</ele><time>2026-04-04T12:04:02.446Z</time></trkpt><trkpt lat="43.69323" lon="2.6750317"><ele>996.0</ele><time>2026-04-04T12:04:03.444Z</time></trkpt><trkpt lat="43.6930833" lon="2.6749"><ele>996.0</ele><time>2026-04-04T12:04:04.444Z</time></trkpt><trkpt lat="43.6929267" lon="2.6747883"><ele>996.0</ele><time>2026-04-04T12:04:05.445Z</time></trkpt><trkpt lat="43.6927783" lon="2.674675"><ele>996.0</ele><time>2026-04-04T12:04:06.445Z</time></trkpt><trkpt lat="43.6926317" lon="2.6745533"><ele>998.0</ele><time>2026-04-04T12:04:07.445Z</time></trkpt><trkpt lat="43.6924817" lon="2.6744367"><ele>1000.0</ele><time>2026-04-04T12:04:08.444Z</time></trkpt><trkpt lat="43.6923433" lon="2.67432"><ele>1002.0</ele><time>2026-04-04T12:04:09.444Z</time></trkpt><trkpt lat="43.6922233" lon="2.674205"><ele>1002.0</ele><time>2026-04-04T12:04:10.444Z</time></trkpt><trkpt lat="43.6921183" lon="2.6740933"><ele>1002.0</ele><time>2026-04-04T12:04:11.445Z</time></trkpt><trkpt lat="43.69204" lon="2.6739733"><ele>1002.0</ele><time>2026-04-04T12:04:12.447Z</time></trkpt><trkpt lat="43.6919833" lon="2.673855"><ele>1002.0</ele><time>2026-04-04T12:04:13.444Z</time></trkpt><trkpt lat="43.6919417" lon="2.6737517"><ele>1002.0</ele><time>2026-04-04T12:04:14.446Z</time></trkpt><trkpt lat="43.69188" lon="2.6736167"><ele>1003.3333333333334</ele><time>2026-04-04T12:04:16.444Z</time></trkpt><trkpt lat="43.691815" lon="2.673565"><ele>1004.6666666666667</ele><time>2026-04-04T12:04:18.445Z</time></trkpt><trkpt lat="43.69175" lon="2.6736167"><ele>1006.0</ele><time>2026-04-04T12:07:28.444Z</time></trkpt><trkpt lat="43.6916567" lon="2.67364"><ele>1007.3333333333334</ele><time>2026-04-04T12:07:30.444Z</time></trkpt><trkpt lat="43.6915417" lon="2.6736917"><ele>1008.6666666666667</ele><time>2026-04-04T12:07:32.443Z</time></trkpt><trkpt lat="43.69147" lon="2.6737217"><ele>1010.0</ele><time>2026-04-04T12:07:33.444Z</time></trkpt><trkpt lat="43.6914" lon="2.67375"><ele>1010.6666666666667</ele><time>2026-04-04T12:07:34.443Z</time></trkpt><trkpt lat="43.6913317" lon="2.6737817"><ele>1011.3333333333334</ele><time>2026-04-04T12:07:35.446Z</time></trkpt><trkpt lat="43.6912633" lon="2.67382"><ele>1012.0</ele><time>2026-04-04T12:07:36.446Z</time></trkpt><trkpt lat="43.691195" lon="2.6738617"><ele>1012.6666666666667</ele><time>2026-04-04T12:07:37.445Z</time></trkpt><trkpt lat="43.6911283" lon="2.6739133"><ele>1013.3333333333334</ele><time>2026-04-04T12:07:38.445Z</time></trkpt><trkpt lat="43.6910617" lon="2.6739733"><ele>1014.0</ele><time>2026-04-04T12:07:39.443Z</time></trkpt><trkpt lat="43.690995" lon="2.67405"><ele>1014.0</ele><time>2026-04-04T12:07:40.444Z</time></trkpt><trkpt lat="43.6909333" lon="2.6741267"><ele>1014.0</ele><time>2026-04-04T12:07:41.444Z</time></trkpt><trkpt lat="43.6908717" lon="2.6742"><ele>1014.0</ele><time>2026-04-04T12:07:42.444Z</time></trkpt><trkpt lat="43.6908117" lon="2.6742733"><ele>1014.0</ele><time>2026-04-04T12:07:43.445Z</time></trkpt><trkpt lat="43.69075" lon="2.6743467"><ele>1014.0</ele><time>2026-04-04T12:07:44.444Z</time></trkpt><trkpt lat="43.6906867" lon="2.6744217"><ele>1014.0</ele><time>2026-04-04T12:07:45.444Z</time></trkpt><trkpt lat="43.6906233" lon="2.6745083"><ele>1015.2</ele><time>2026-04-04T12:07:46.445Z</time></trkpt><trkpt lat="43.69056" lon="2.6745967"><ele>1016.4000000000001</ele><time>2026-04-04T12:07:47.443Z</time></trkpt><trkpt lat="43.690495" lon="2.6746967"><ele>1017.6</ele><time>2026-04-04T12:07:48.444Z</time></trkpt><trkpt lat="43.6904333" lon="2.6747917"><ele>1018.8</ele><time>2026-04-04T12:07:49.444Z</time></trkpt><trkpt lat="43.6903583" lon="2.67488"><ele>1020.0</ele><time>2026-04-04T12:07:50.444Z</time></trkpt><trkpt lat="43.690265" lon="2.6749283"><ele>1020.5</ele><time>2026-04-04T12:07:51.446Z</time></trkpt><trkpt lat="43.6901517" lon="2.67495"><ele>1021.0</ele><time>2026-04-04T12:07:52.447Z</time></trkpt><trkpt lat="43.6900317" lon="2.674945"><ele>1021.5</ele><time>2026-04-04T12:07:53.442Z</time></trkpt><trkpt lat="43.6899" lon="2.6749283"><ele>1022.0</ele><time>2026-04-04T12:07:54.443Z</time></trkpt><trkpt lat="43.6897583" lon="2.6748867"><ele>1022.0</ele><time>2026-04-04T12:07:55.444Z</time></trkpt><trkpt lat="43.6895917" lon="2.674855"><ele>1022.0</ele><time>2026-04-04T12:07:56.443Z</time></trkpt><trkpt lat="43.6894167" lon="2.67482"><ele>1022.0</ele><time>2026-04-04T12:07:57.444Z</time></trkpt><trkpt lat="43.6892367" lon="2.6747783"><ele>1021.6666666666667</ele><time>2026-04-04T12:07:58.443Z</time></trkpt><trkpt lat="43.6890483" lon="2.6747367"><ele>1021.3333333333333</ele><time>2026-04-04T12:07:59.443Z</time></trkpt><trkpt lat="43.68887" lon="2.6746967"><ele>1021.0</ele><time>2026-04-04T12:08:00.444Z</time></trkpt><trkpt lat="43.6886967" lon="2.6746683"><ele>1020.6666666666666</ele><time>2026-04-04T12:08:01.444Z</time></trkpt><trkpt lat="43.6885333" lon="2.6746617"><ele>1020.3333333333333</ele><time>2026-04-04T12:08:02.443Z</time></trkpt><trkpt lat="43.68838" lon="2.6746633"><ele>1020.0</ele><time>2026-04-04T12:08:03.444Z</time></trkpt><trkpt lat="43.6882333" lon="2.6746733"><ele>1020.0</ele><time>2026-04-04T12:08:04.443Z</time></trkpt><trkpt lat="43.6880917" lon="2.6747033"><ele>1020.0</ele><time>2026-04-04T12:08:05.443Z</time></trkpt><trkpt lat="43.6879517" lon="2.67475"><ele>1020.0</ele><time>2026-04-04T12:08:06.443Z</time></trkpt><trkpt lat="43.687815" lon="2.6748133"><ele>1020.0</ele><time>2026-04-04T12:08:07.443Z</time></trkpt><trkpt lat="43.6876867" lon="2.674895"><ele>1020.0</ele><time>2026-04-04T12:08:08.446Z</time></trkpt><trkpt lat="43.68757" lon="2.6750033"><ele>1020.0</ele><time>2026-04-04T12:08:09.444Z</time></trkpt><trkpt lat="43.6874633" lon="2.6751283"><ele>1020.0</ele><time>2026-04-04T12:08:10.443Z</time></trkpt><trkpt lat="43.6873567" lon="2.6752733"><ele>1020.0</ele><time>2026-04-04T12:08:11.445Z</time></trkpt><trkpt lat="43.6872583" lon="2.6754367"><ele>1023.0</ele><time>2026-04-04T12:08:12.445Z</time></trkpt><trkpt lat="43.6871617" lon="2.6756067"><ele>1026.0</ele><time>2026-04-04T12:08:13.446Z</time></trkpt><trkpt lat="43.6870667" lon="2.67578"><ele>1029.0</ele><time>2026-04-04T12:08:14.444Z</time></trkpt><trkpt lat="43.6869883" lon="2.6759633"><ele>1030.0</ele><time>2026-04-04T12:08:15.445Z</time></trkpt><trkpt lat="43.68692" lon="2.6761633"><ele>1031.0</ele><time>2026-04-04T12:08:16.445Z</time></trkpt><trkpt lat="43.6868767" lon="2.67637"><ele>1032.0</ele><time>2026-04-04T12:08:17.446Z</time></trkpt><trkpt lat="43.6868433" lon="2.67657"><ele>1032.0</ele><time>2026-04-04T12:08:18.446Z</time></trkpt><trkpt lat="43.6868133" lon="2.676765"><ele>1032.0</ele><time>2026-04-04T12:08:19.445Z</time></trkpt><trkpt lat="43.6867817" lon="2.6769533"><ele>1032.0</ele><time>2026-04-04T12:08:20.444Z</time></trkpt><trkpt lat="43.6867417" lon="2.6771467"><ele>1032.0</ele><time>2026-04-04T12:08:21.445Z</time></trkpt><trkpt lat="43.6866983" lon="2.6773383"><ele>1033.0</ele><time>2026-04-04T12:08:22.445Z</time></trkpt><trkpt lat="43.6866633" lon="2.677535"><ele>1034.0</ele><time>2026-04-04T12:08:23.444Z</time></trkpt><trkpt lat="43.6866383" lon="2.6777317"><ele>1035.0</ele><time>2026-04-04T12:08:24.444Z</time></trkpt><trkpt lat="43.6866267" lon="2.6779433"><ele>1036.0</ele><time>2026-04-04T12:08:25.445Z</time></trkpt><trkpt lat="43.6866217" lon="2.6781567"><ele>1036.75</ele><time>2026-04-04T12:08:26.446Z</time></trkpt><trkpt lat="43.6866183" lon="2.67836"><ele>1037.5</ele><time>2026-04-04T12:08:27.446Z</time></trkpt><trkpt lat="43.6866067" lon="2.6785567"><ele>1038.25</ele><time>2026-04-04T12:08:28.446Z</time></trkpt><trkpt lat="43.6865817" lon="2.6787317"><ele>1039.0</ele><time>2026-04-04T12:08:29.444Z</time></trkpt><trkpt lat="43.6865483" lon="2.67889"><ele>1040.6000000000001</ele><time>2026-04-04T12:08:30.445Z</time></trkpt><trkpt lat="43.6865067" lon="2.6790283"><ele>1042.2</ele><time>2026-04-04T12:08:31.446Z</time></trkpt><trkpt lat="43.6864633" lon="2.6791383"><ele>1043.8000000000002</ele><time>2026-04-04T12:08:32.446Z</time></trkpt><trkpt lat="43.686425" lon="2.6792417"><ele>1045.4</ele><time>2026-04-04T12:08:33.446Z</time></trkpt><trkpt lat="43.68639" lon="2.6793483"><ele>1047.0</ele><time>2026-04-04T12:08:34.445Z</time></trkpt><trkpt lat="43.6863533" lon="2.679455"><ele>1048.4</ele><time>2026-04-04T12:08:35.444Z</time></trkpt><trkpt lat="43.6863167" lon="2.6795617"><ele>1049.8000000000002</ele><time>2026-04-04T12:08:36.444Z</time></trkpt><trkpt lat="43.6862817" lon="2.6796817"><ele>1051.2</ele><time>2026-04-04T12:08:37.444Z</time></trkpt><trkpt lat="43.6862517" lon="2.6798183"><ele>1052.6000000000001</ele><time>2026-04-04T12:08:38.446Z</time></trkpt><trkpt lat="43.6862233" lon="2.6799583"><ele>1054.0</ele><time>2026-04-04T12:08:39.445Z</time></trkpt><trkpt lat="43.686195" lon="2.6801067"><ele>1054.0</ele><time>2026-04-04T12:08:40.446Z</time></trkpt><trkpt lat="43.6861667" lon="2.6802617"><ele>1054.0</ele><time>2026-04-04T12:08:41.445Z</time></trkpt><trkpt lat="43.686135" lon="2.6804233"><ele>1054.0</ele><time>2026-04-04T12:08:42.444Z</time></trkpt><trkpt lat="43.6861017" lon="2.680595"><ele>1054.0</ele><time>2026-04-04T12:08:43.444Z</time></trkpt><trkpt lat="43.6860817" lon="2.680775"><ele>1053.0</ele><time>2026-04-04T12:08:44.443Z</time></trkpt><trkpt lat="43.686075" lon="2.68096"><ele>1052.0</ele><time>2026-04-04T12:08:45.445Z</time></trkpt><trkpt lat="43.686095" lon="2.681155"><ele>1051.0</ele><time>2026-04-04T12:08:46.444Z</time></trkpt><trkpt lat="43.686135" lon="2.6813533"><ele>1050.0</ele><time>2026-04-04T12:08:47.445Z</time></trkpt><trkpt lat="43.6861967" lon="2.68154"><ele>1055.6666666666667</ele><time>2026-04-04T12:08:48.444Z</time></trkpt><trkpt lat="43.6862617" lon="2.681725"><ele>1061.3333333333335</ele><time>2026-04-04T12:08:49.445Z</time></trkpt><trkpt lat="43.6863117" lon="2.68192"><ele>1067.0</ele><time>2026-04-04T12:08:50.443Z</time></trkpt><trkpt lat="43.6863483" lon="2.6821233"><ele>1067.75</ele><time>2026-04-04T12:08:51.445Z</time></trkpt><trkpt lat="43.6863617" lon="2.6823183"><ele>1068.5</ele><time>2026-04-04T12:08:52.445Z</time></trkpt><trkpt lat="43.68635" lon="2.6825117"><ele>1069.25</ele><time>2026-04-04T12:08:53.443Z</time></trkpt><trkpt lat="43.68632" lon="2.6827133"><ele>1070.0</ele><time>2026-04-04T12:08:54.444Z</time></trkpt><trkpt lat="43.6862917" lon="2.6829283"><ele>1070.5</ele><time>2026-04-04T12:08:55.445Z</time></trkpt><trkpt lat="43.6862917" lon="2.6831233"><ele>1071.0</ele><time>2026-04-04T12:08:56.445Z</time></trkpt><trkpt lat="43.6863033" lon="2.683325"><ele>1071.5</ele><time>2026-04-04T12:08:57.444Z</time></trkpt><trkpt lat="43.6863417" lon="2.6835217"><ele>1072.0</ele><time>2026-04-04T12:08:58.445Z</time></trkpt><trkpt lat="43.6864033" lon="2.6837133"><ele>1072.75</ele><time>2026-04-04T12:08:59.445Z</time></trkpt><trkpt lat="43.6864833" lon="2.68389"><ele>1073.5</ele><time>2026-04-04T12:09:00.445Z</time></trkpt><trkpt lat="43.6865817" lon="2.684045"><ele>1074.25</ele><time>2026-04-04T12:09:01.445Z</time></trkpt><trkpt lat="43.686685" lon="2.6841783"><ele>1075.0</ele><time>2026-04-04T12:09:02.445Z</time></trkpt><trkpt lat="43.6867567" lon="2.6843233"><ele>1075.6</ele><time>2026-04-04T12:09:03.443Z</time></trkpt><trkpt lat="43.6868083" lon="2.6844733"><ele>1076.2</ele><time>2026-04-04T12:09:04.445Z</time></trkpt><trkpt lat="43.6868183" lon="2.6846133"><ele>1076.8</ele><time>2026-04-04T12:09:05.445Z</time></trkpt><trkpt lat="43.6867833" lon="2.6847267"><ele>1077.4</ele><time>2026-04-04T12:09:06.447Z</time></trkpt><trkpt lat="43.6867" lon="2.684815"><ele>1078.0</ele><time>2026-04-04T12:09:07.446Z</time></trkpt><trkpt lat="43.6865817" lon="2.684905"><ele>1078.0</ele><time>2026-04-04T12:09:08.445Z</time></trkpt><trkpt lat="43.68644" lon="2.6849967"><ele>1078.0</ele><time>2026-04-04T12:09:09.443Z</time></trkpt><trkpt lat="43.6863067" lon="2.6850817"><ele>1078.0</ele><time>2026-04-04T12:09:10.443Z</time></trkpt><trkpt lat="43.686175" lon="2.6851983"><ele>1078.6</ele><time>2026-04-04T12:09:11.445Z</time></trkpt><trkpt lat="43.6860717" lon="2.6853233"><ele>1079.1999999999998</ele><time>2026-04-04T12:09:12.445Z</time></trkpt><trkpt lat="43.6860017" lon="2.685435"><ele>1079.8</ele><time>2026-04-04T12:09:13.445Z</time></trkpt><trkpt lat="43.6859683" lon="2.6855417"><ele>1080.3999999999999</ele><time>2026-04-04T12:09:14.447Z</time></trkpt><trkpt lat="43.6859617" lon="2.6856367"><ele>1081.0</ele><time>2026-04-04T12:09:15.442Z</time></trkpt><trkpt lat="43.685965" lon="2.6857317"><ele>1081.0</ele><time>2026-04-04T12:09:16.446Z</time></trkpt><trkpt lat="43.68598" lon="2.6858333"><ele>1081.0</ele><time>2026-04-04T12:09:17.446Z</time></trkpt><trkpt lat="43.68602" lon="2.6859367"><ele>1081.0</ele><time>2026-04-04T12:09:18.446Z</time></trkpt><trkpt lat="43.6860617" lon="2.6860267"><ele>1081.0</ele><time>2026-04-04T12:09:19.444Z</time></trkpt><trkpt lat="43.68612" lon="2.68612"><ele>1081.0</ele><time>2026-04-04T12:09:20.444Z</time></trkpt><trkpt lat="43.6861917" lon="2.6862283"><ele>1081.0</ele><time>2026-04-04T12:09:21.444Z</time></trkpt><trkpt lat="43.6862683" lon="2.6863483"><ele>1082.0</ele><time>2026-04-04T12:09:22.445Z</time></trkpt><trkpt lat="43.68635" lon="2.68648"><ele>1083.0</ele><time>2026-04-04T12:09:23.443Z</time></trkpt><trkpt lat="43.686435" lon="2.6866267"><ele>1084.0</ele><time>2026-04-04T12:09:24.443Z</time></trkpt><trkpt lat="43.686505" lon="2.6868"><ele>1085.0</ele><time>2026-04-04T12:09:25.446Z</time></trkpt><trkpt lat="43.6865533" lon="2.686995"><ele>1085.0</ele><time>2026-04-04T12:09:26.443Z</time></trkpt><trkpt lat="43.6865833" lon="2.6872033"><ele>1085.0</ele><time>2026-04-04T12:09:27.443Z</time></trkpt><trkpt lat="43.6865817" lon="2.6873933"><ele>1085.0</ele><time>2026-04-04T12:09:28.443Z</time></trkpt><trkpt lat="43.6865483" lon="2.6875533"><ele>1085.0</ele><time>2026-04-04T12:09:29.444Z</time></trkpt><trkpt lat="43.6864833" lon="2.6877017"><ele>1086.0</ele><time>2026-04-04T12:09:30.447Z</time></trkpt><trkpt lat="43.6863917" lon="2.6878317"><ele>1087.0</ele><time>2026-04-04T12:09:31.446Z</time></trkpt><trkpt lat="43.68628" lon="2.6879583"><ele>1088.0</ele><time>2026-04-04T12:09:32.446Z</time></trkpt><trkpt lat="43.686165" lon="2.688085"><ele>1089.0</ele><time>2026-04-04T12:09:33.444Z</time></trkpt><trkpt lat="43.68605" lon="2.6882267"><ele>1089.6666666666667</ele><time>2026-04-04T12:09:34.446Z</time></trkpt><trkpt lat="43.68594" lon="2.6883867"><ele>1090.3333333333335</ele><time>2026-04-04T12:09:35.445Z</time></trkpt><trkpt lat="43.6858517" lon="2.6885617"><ele>1091.0</ele><time>2026-04-04T12:09:36.446Z</time></trkpt><trkpt lat="43.6857783" lon="2.6887417"><ele>1091.0</ele><time>2026-04-04T12:09:37.445Z</time></trkpt><trkpt lat="43.6857217" lon="2.6889233"><ele>1091.0</ele><time>2026-04-04T12:09:38.446Z</time></trkpt><trkpt lat="43.6856767" lon="2.6891117"><ele>1091.0</ele><time>2026-04-04T12:09:39.444Z</time></trkpt><trkpt lat="43.6856467" lon="2.6893083"><ele>1091.0</ele><time>2026-04-04T12:09:40.445Z</time></trkpt><trkpt lat="43.685635" lon="2.6895117"><ele>1091.3333333333335</ele><time>2026-04-04T12:09:41.445Z</time></trkpt><trkpt lat="43.68564" lon="2.6897183"><ele>1091.6666666666667</ele><time>2026-04-04T12:09:42.448Z</time></trkpt><trkpt lat="43.68567" lon="2.6899233"><ele>1092.0</ele><time>2026-04-04T12:09:43.449Z</time></trkpt><trkpt lat="43.685715" lon="2.6901233"><ele>1090.6666666666667</ele><time>2026-04-04T12:09:44.446Z</time></trkpt><trkpt lat="43.6857817" lon="2.6903067"><ele>1089.3333333333335</ele><time>2026-04-04T12:09:45.447Z</time></trkpt><trkpt lat="43.6858717" lon="2.69048"><ele>1088.0</ele><time>2026-04-04T12:09:46.443Z</time></trkpt><trkpt lat="43.685975" lon="2.6906433"><ele>1088.0</ele><time>2026-04-04T12:09:47.443Z</time></trkpt><trkpt lat="43.686085" lon="2.6908"><ele>1088.0</ele><time>2026-04-04T12:09:48.443Z</time></trkpt><trkpt lat="43.6862033" lon="2.6909583"><ele>1088.0</ele><time>2026-04-04T12:09:49.447Z</time></trkpt><trkpt lat="43.6863217" lon="2.6911217"><ele>1091.3333333333335</ele><time>2026-04-04T12:09:50.446Z</time></trkpt><trkpt lat="43.68644" lon="2.6912933"><ele>1094.6666666666667</ele><time>2026-04-04T12:09:51.444Z</time></trkpt><trkpt lat="43.6865567" lon="2.6914717"><ele>1098.0</ele><time>2026-04-04T12:09:52.447Z</time></trkpt><trkpt lat="43.6866683" lon="2.6916583"><ele>1098.0</ele><time>2026-04-04T12:09:53.443Z</time></trkpt><trkpt lat="43.6867633" lon="2.6918617"><ele>1098.0</ele><time>2026-04-04T12:09:54.443Z</time></trkpt><trkpt lat="43.6868417" lon="2.6920833"><ele>1098.0</ele><time>2026-04-04T12:09:55.444Z</time></trkpt><trkpt lat="43.6869217" lon="2.69231"><ele>1100.3333333333333</ele><time>2026-04-04T12:09:56.448Z</time></trkpt><trkpt lat="43.68702" lon="2.6925367"><ele>1102.6666666666665</ele><time>2026-04-04T12:09:57.446Z</time></trkpt><trkpt lat="43.6871333" lon="2.692765"><ele>1105.0</ele><time>2026-04-04T12:09:58.444Z</time></trkpt><trkpt lat="43.6872533" lon="2.692985"><ele>1105.0</ele><time>2026-04-04T12:09:59.446Z</time></trkpt><trkpt lat="43.6873817" lon="2.6931983"><ele>1105.0</ele><time>2026-04-04T12:10:00.443Z</time></trkpt><trkpt lat="43.6875217" lon="2.6934017"><ele>1105.0</ele><time>2026-04-04T12:10:01.443Z</time></trkpt><trkpt lat="43.6876733" lon="2.693585"><ele>1106.6666666666665</ele><time>2026-04-04T12:10:02.447Z</time></trkpt><trkpt lat="43.68782" lon="2.69375"><ele>1108.3333333333333</ele><time>2026-04-04T12:10:03.443Z</time></trkpt><trkpt lat="43.6879467" lon="2.6939217"><ele>1110.0</ele><time>2026-04-04T12:10:04.443Z</time></trkpt><trkpt lat="43.6880583" lon="2.6941217"><ele>1110.0</ele><time>2026-04-04T12:10:05.446Z</time></trkpt><trkpt lat="43.68815" lon="2.69433"><ele>1110.0</ele><time>2026-04-04T12:10:06.443Z</time></trkpt><trkpt lat="43.688215" lon="2.6945417"><ele>1110.0</ele><time>2026-04-04T12:10:07.446Z</time></trkpt><trkpt lat="43.68826" lon="2.6947617"><ele>1110.3333333333333</ele><time>2026-04-04T12:10:08.444Z</time></trkpt><trkpt lat="43.6882817" lon="2.6949917"><ele>1110.6666666666665</ele><time>2026-04-04T12:10:09.444Z</time></trkpt><trkpt lat="43.6882867" lon="2.6952283"><ele>1111.0</ele><time>2026-04-04T12:10:10.446Z</time></trkpt><trkpt lat="43.68828" lon="2.69545"><ele>1112.0</ele><time>2026-04-04T12:10:11.446Z</time></trkpt><trkpt lat="43.688255" lon="2.6956633"><ele>1113.0</ele><time>2026-04-04T12:10:12.443Z</time></trkpt><trkpt lat="43.6882" lon="2.695875"><ele>1114.0</ele><time>2026-04-04T12:10:13.446Z</time></trkpt><trkpt lat="43.6881233" lon="2.69608"><ele>1115.6666666666665</ele><time>2026-04-04T12:10:14.446Z</time></trkpt><trkpt lat="43.68803" lon="2.6962817"><ele>1117.3333333333333</ele><time>2026-04-04T12:10:15.445Z</time></trkpt><trkpt lat="43.6879283" lon="2.6964933"><ele>1119.0</ele><time>2026-04-04T12:10:16.445Z</time></trkpt><trkpt lat="43.6878383" lon="2.6967067"><ele>1120.6666666666667</ele><time>2026-04-04T12:10:17.445Z</time></trkpt><trkpt lat="43.68775" lon="2.6969233"><ele>1122.3333333333335</ele><time>2026-04-04T12:10:18.444Z</time></trkpt><trkpt lat="43.6876683" lon="2.69714"><ele>1124.0</ele><time>2026-04-04T12:10:19.445Z</time></trkpt><trkpt lat="43.6875967" lon="2.6973433"><ele>1124.0</ele><time>2026-04-04T12:10:20.444Z</time></trkpt><trkpt lat="43.6875217" lon="2.69752"><ele>1124.0</ele><time>2026-04-04T12:10:21.445Z</time></trkpt><trkpt lat="43.6874433" lon="2.6976717"><ele>1124.0</ele><time>2026-04-04T12:10:22.445Z</time></trkpt><trkpt lat="43.6873517" lon="2.6977767"><ele>1124.0</ele><time>2026-04-04T12:10:23.446Z</time></trkpt><trkpt lat="43.6872317" lon="2.69786"><ele>1125.75</ele><time>2026-04-04T12:10:24.447Z</time></trkpt><trkpt lat="43.6871033" lon="2.6979317"><ele>1127.5</ele><time>2026-04-04T12:10:25.446Z</time></trkpt><trkpt lat="43.686965" lon="2.697995"><ele>1129.25</ele><time>2026-04-04T12:10:26.443Z</time></trkpt><trkpt lat="43.6868217" lon="2.6980783"><ele>1131.0</ele><time>2026-04-04T12:10:27.446Z</time></trkpt><trkpt lat="43.68667" lon="2.6981783"><ele>1132.0</ele><time>2026-04-04T12:10:28.444Z</time></trkpt><trkpt lat="43.686515" lon="2.69828"><ele>1133.0</ele><time>2026-04-04T12:10:29.444Z</time></trkpt><trkpt lat="43.6863583" lon="2.69838"><ele>1134.0</ele><time>2026-04-04T12:10:30.443Z</time></trkpt><trkpt lat="43.6861967" lon="2.6984867"><ele>1137.6666666666667</ele><time>2026-04-04T12:10:31.444Z</time></trkpt><trkpt lat="43.68604" lon="2.6986083"><ele>1141.3333333333335</ele><time>2026-04-04T12:10:32.443Z</time></trkpt><trkpt lat="43.6858817" lon="2.6987483"><ele>1145.0</ele><time>2026-04-04T12:10:33.446Z</time></trkpt><trkpt lat="43.6857283" lon="2.6988983"><ele>1145.0</ele><time>2026-04-04T12:10:34.446Z</time></trkpt><trkpt lat="43.685575" lon="2.6990583"><ele>1145.0</ele><time>2026-04-04T12:10:35.443Z</time></trkpt><trkpt lat="43.6854217" lon="2.699225"><ele>1145.0</ele><time>2026-04-04T12:10:36.446Z</time></trkpt><trkpt lat="43.6852633" lon="2.699395"><ele>1147.3333333333335</ele><time>2026-04-04T12:10:37.444Z</time></trkpt><trkpt lat="43.6851" lon="2.6995733"><ele>1149.6666666666667</ele><time>2026-04-04T12:10:38.446Z</time></trkpt><trkpt lat="43.6849367" lon="2.6997467"><ele>1152.0</ele><time>2026-04-04T12:10:39.443Z</time></trkpt><trkpt lat="43.6847783" lon="2.6999183"><ele>1152.0</ele><time>2026-04-04T12:10:40.449Z</time></trkpt><trkpt lat="43.6846183" lon="2.7000967"><ele>1152.0</ele><time>2026-04-04T12:10:41.446Z</time></trkpt><trkpt lat="43.6844567" lon="2.7002733"><ele>1152.0</ele><time>2026-04-04T12:10:42.444Z</time></trkpt><trkpt lat="43.6842933" lon="2.70045"><ele>1154.0</ele><time>2026-04-04T12:10:43.447Z</time></trkpt><trkpt lat="43.6841467" lon="2.7006117"><ele>1156.0</ele><time>2026-04-04T12:10:44.444Z</time></trkpt><trkpt lat="43.68401" lon="2.7007567"><ele>1158.0</ele><time>2026-04-04T12:10:45.443Z</time></trkpt><trkpt lat="43.683875" lon="2.7008683"><ele>1158.0</ele><time>2026-04-04T12:10:46.443Z</time></trkpt><trkpt lat="43.6837433" lon="2.70096"><ele>1158.0</ele><time>2026-04-04T12:10:47.443Z</time></trkpt><trkpt lat="43.6836167" lon="2.7010583"><ele>1158.0</ele><time>2026-04-04T12:10:48.446Z</time></trkpt><trkpt lat="43.6834933" lon="2.7011483"><ele>1158.0</ele><time>2026-04-04T12:10:49.444Z</time></trkpt><trkpt lat="43.6833867" lon="2.7012067"><ele>1157.4</ele><time>2026-04-04T12:10:50.443Z</time></trkpt><trkpt lat="43.6832967" lon="2.7012317"><ele>1156.8</ele><time>2026-04-04T12:10:51.444Z</time></trkpt><trkpt lat="43.6832117" lon="2.7012167"><ele>1156.2</ele><time>2026-04-04T12:10:52.443Z</time></trkpt><trkpt lat="43.68313" lon="2.70117"><ele>1155.6</ele><time>2026-04-04T12:10:53.446Z</time></trkpt><trkpt lat="43.6830483" lon="2.7010783"><ele>1155.0</ele><time>2026-04-04T12:10:54.444Z</time></trkpt><trkpt lat="43.6829633" lon="2.7009517"><ele>1154.6666666666667</ele><time>2026-04-04T12:10:55.446Z</time></trkpt><trkpt lat="43.68286" lon="2.7007783"><ele>1154.3333333333335</ele><time>2026-04-04T12:10:56.447Z</time></trkpt><trkpt lat="43.6827467" lon="2.7006183"><ele>1154.0</ele><time>2026-04-04T12:10:57.444Z</time></trkpt><trkpt lat="43.68261" lon="2.7004633"><ele>1153.6666666666667</ele><time>2026-04-04T12:10:58.445Z</time></trkpt><trkpt lat="43.6824517" lon="2.7003133"><ele>1153.3333333333333</ele><time>2026-04-04T12:10:59.444Z</time></trkpt><trkpt lat="43.6822767" lon="2.7001717"><ele>1153.0</ele><time>2026-04-04T12:11:00.444Z</time></trkpt><trkpt lat="43.68209" lon="2.7000333"><ele>1149.6666666666665</ele><time>2026-04-04T12:11:01.444Z</time></trkpt><trkpt lat="43.681885" lon="2.6998833"><ele>1146.3333333333333</ele><time>2026-04-04T12:11:02.444Z</time></trkpt><trkpt lat="43.68169" lon="2.6997533"><ele>1143.0</ele><time>2026-04-04T12:11:03.444Z</time></trkpt><trkpt lat="43.681495" lon="2.6996117"><ele>1143.0</ele><time>2026-04-04T12:11:04.444Z</time></trkpt><trkpt lat="43.6813" lon="2.6995"><ele>1143.0</ele><time>2026-04-04T12:11:05.444Z</time></trkpt><trkpt lat="43.6811167" lon="2.69942"><ele>1143.0</ele><time>2026-04-04T12:11:06.444Z</time></trkpt><trkpt lat="43.68094" lon="2.699365"><ele>1145.6666666666667</ele><time>2026-04-04T12:11:07.444Z</time></trkpt><trkpt lat="43.6807567" lon="2.6993133"><ele>1148.3333333333335</ele><time>2026-04-04T12:11:08.444Z</time></trkpt><trkpt lat="43.6805583" lon="2.6992367"><ele>1151.0</ele><time>2026-04-04T12:11:09.445Z</time></trkpt><trkpt lat="43.6803667" lon="2.6991717"><ele>1145.6666666666667</ele><time>2026-04-04T12:11:10.444Z</time></trkpt><trkpt lat="43.6801783" lon="2.69909"><ele>1140.3333333333333</ele><time>2026-04-04T12:11:11.444Z</time></trkpt><trkpt lat="43.6800217" lon="2.6990217"><ele>1135.0</ele><time>2026-04-04T12:11:12.444Z</time></trkpt><trkpt lat="43.6799067" lon="2.6989533"><ele>1135.0</ele><time>2026-04-04T12:11:13.444Z</time></trkpt><trkpt lat="43.6798083" lon="2.6988533"><ele>1135.0</ele><time>2026-04-04T12:11:14.445Z</time></trkpt><trkpt lat="43.679715" lon="2.698715"><ele>1135.0</ele><time>2026-04-04T12:11:15.444Z</time></trkpt><trkpt lat="43.6796367" lon="2.6985533"><ele>1135.0</ele><time>2026-04-04T12:11:16.444Z</time></trkpt><trkpt lat="43.6795533" lon="2.698345"><ele>1134.6666666666665</ele><time>2026-04-04T12:11:17.445Z</time></trkpt><trkpt lat="43.6794583" lon="2.6981283"><ele>1134.3333333333333</ele><time>2026-04-04T12:11:18.448Z</time></trkpt><trkpt lat="43.679355" lon="2.6978917"><ele>1134.0</ele><time>2026-04-04T12:11:19.445Z</time></trkpt><trkpt lat="43.67924" lon="2.6976733"><ele>1134.0</ele><time>2026-04-04T12:11:20.444Z</time></trkpt><trkpt lat="43.67911" lon="2.697475"><ele>1134.0</ele><time>2026-04-04T12:11:21.445Z</time></trkpt><trkpt lat="43.678975" lon="2.697295"><ele>1134.0</ele><time>2026-04-04T12:11:22.445Z</time></trkpt><trkpt lat="43.6788183" lon="2.69714"><ele>1134.0</ele><time>2026-04-04T12:11:23.445Z</time></trkpt><trkpt lat="43.678655" lon="2.6969867"><ele>1134.0</ele><time>2026-04-04T12:11:24.444Z</time></trkpt><trkpt lat="43.6784733" lon="2.69684"><ele>1134.0</ele><time>2026-04-04T12:11:25.444Z</time></trkpt><trkpt lat="43.6782883" lon="2.6966867"><ele>1133.0</ele><time>2026-04-04T12:11:26.444Z</time></trkpt><trkpt lat="43.6781033" lon="2.6965317"><ele>1132.0</ele><time>2026-04-04T12:11:27.444Z</time></trkpt><trkpt lat="43.6779167" lon="2.6963767"><ele>1131.0</ele><time>2026-04-04T12:11:28.444Z</time></trkpt><trkpt lat="43.67773" lon="2.6962233"><ele>1132.0</ele><time>2026-04-04T12:11:29.444Z</time></trkpt><trkpt lat="43.67755" lon="2.6960883"><ele>1133.0</ele><time>2026-04-04T12:11:30.444Z</time></trkpt><trkpt lat="43.6773717" lon="2.6959867"><ele>1134.0</ele><time>2026-04-04T12:11:31.444Z</time></trkpt><trkpt lat="43.6771917" lon="2.69591"><ele>1134.0</ele><time>2026-04-04T12:11:32.441Z</time></trkpt><trkpt lat="43.6769983" lon="2.6958617"><ele>1134.0</ele><time>2026-04-04T12:11:33.442Z</time></trkpt><trkpt lat="43.6768" lon="2.6958267"><ele>1134.0</ele><time>2026-04-04T12:11:34.443Z</time></trkpt><trkpt lat="43.67659" lon="2.695815"><ele>1130.5</ele><time>2026-04-04T12:11:35.444Z</time></trkpt><trkpt lat="43.6763633" lon="2.695825"><ele>1127.0</ele><time>2026-04-04T12:11:36.443Z</time></trkpt><trkpt lat="43.6761383" lon="2.6958483"><ele>1126.3333333333335</ele><time>2026-04-04T12:11:37.443Z</time></trkpt><trkpt lat="43.6759267" lon="2.695875"><ele>1125.6666666666667</ele><time>2026-04-04T12:11:38.443Z</time></trkpt><trkpt lat="43.6757433" lon="2.695875"><ele>1125.0</ele><time>2026-04-04T12:11:39.444Z</time></trkpt><trkpt lat="43.6755683" lon="2.69585"><ele>1125.0</ele><time>2026-04-04T12:11:40.443Z</time></trkpt><trkpt lat="43.675395" lon="2.6958317"><ele>1125.0</ele><time>2026-04-04T12:11:41.444Z</time></trkpt><trkpt lat="43.6752217" lon="2.69579"><ele>1125.0</ele><time>2026-04-04T12:11:42.443Z</time></trkpt><trkpt lat="43.6750417" lon="2.6957033"><ele>1121.3333333333333</ele><time>2026-04-04T12:11:43.443Z</time></trkpt><trkpt lat="43.67486" lon="2.6956183"><ele>1117.6666666666665</ele><time>2026-04-04T12:11:44.444Z</time></trkpt><trkpt lat="43.6746833" lon="2.6955633"><ele>1114.0</ele><time>2026-04-04T12:11:45.442Z</time></trkpt><trkpt lat="43.674475" lon="2.69548"><ele>1111.0</ele><time>2026-04-04T12:11:46.443Z</time></trkpt><trkpt lat="43.67425" lon="2.6954083"><ele>1108.0</ele><time>2026-04-04T12:11:47.443Z</time></trkpt><trkpt lat="43.6740683" lon="2.695385"><ele>1105.0</ele><time>2026-04-04T12:11:48.443Z</time></trkpt><trkpt lat="43.6739067" lon="2.6953683"><ele>1105.0</ele><time>2026-04-04T12:11:49.443Z</time></trkpt><trkpt lat="43.6737633" lon="2.695355"><ele>1105.0</ele><time>2026-04-04T12:11:50.442Z</time></trkpt><trkpt lat="43.6736533" lon="2.695355"><ele>1105.0</ele><time>2026-04-04T12:11:51.442Z</time></trkpt><trkpt lat="43.6735733" lon="2.6953633"><ele>1105.0</ele><time>2026-04-04T12:11:52.447Z</time></trkpt><trkpt lat="43.6735033" lon="2.695455"><ele>1105.0</ele><time>2026-04-04T12:11:54.443Z</time></trkpt><trkpt lat="43.6735167" lon="2.6956233"><ele>1105.0</ele><time>2026-04-04T12:11:56.442Z</time></trkpt><trkpt lat="43.6735517" lon="2.6957017"><ele>1105.0</ele><time>2026-04-04T12:11:57.443Z</time></trkpt><trkpt lat="43.6736333" lon="2.6957517"><ele>1105.0</ele><time>2026-04-04T12:11:58.443Z</time></trkpt><trkpt lat="43.673755" lon="2.6957767"><ele>1105.0</ele><time>2026-04-04T12:11:59.442Z</time></trkpt><trkpt lat="43.67384" lon="2.6958"><ele>1105.0</ele><time>2026-04-04T12:12:00.443Z</time></trkpt><trkpt lat="43.67393" lon="2.69584"><ele>1105.0</ele><time>2026-04-04T12:12:01.444Z</time></trkpt><trkpt lat="43.67401" lon="2.6958883"><ele>1105.0</ele><time>2026-04-04T12:12:02.443Z</time></trkpt><trkpt lat="43.6740667" lon="2.6959767"><ele>1105.0</ele><time>2026-04-04T12:12:04.443Z</time></trkpt><trkpt lat="43.6740383" lon="2.696085"><ele>1105.0</ele><time>2026-04-04T12:12:06.443Z</time></trkpt><trkpt lat="43.6739533" lon="2.6962017"><ele>1105.0</ele><time>2026-04-04T12:12:07.443Z</time></trkpt><trkpt lat="43.6738017" lon="2.6963083"><ele>1101.3333333333333</ele><time>2026-04-04T12:12:08.442Z</time></trkpt><trkpt lat="43.67364" lon="2.6963967"><ele>1097.6666666666667</ele><time>2026-04-04T12:12:09.442Z</time></trkpt><trkpt lat="43.6734317" lon="2.696455"><ele>1094.0</ele><time>2026-04-04T12:12:10.443Z</time></trkpt><trkpt lat="43.6732583" lon="2.6964933"><ele>1094.0</ele><time>2026-04-04T12:12:11.443Z</time></trkpt><trkpt lat="43.67308" lon="2.69654"><ele>1094.0</ele><time>2026-04-04T12:12:12.444Z</time></trkpt><trkpt lat="43.67294" lon="2.6965633"><ele>1094.0</ele><time>2026-04-04T12:12:13.443Z</time></trkpt><trkpt lat="43.6727733" lon="2.696595"><ele>1092.6666666666667</ele><time>2026-04-04T12:12:14.445Z</time></trkpt><trkpt lat="43.672595" lon="2.6966467"><ele>1091.3333333333333</ele><time>2026-04-04T12:12:15.443Z</time></trkpt><trkpt lat="43.672415" lon="2.69673"><ele>1090.0</ele><time>2026-04-04T12:12:16.443Z</time></trkpt><trkpt lat="43.6722333" lon="2.6968133"><ele>1090.0</ele><time>2026-04-04T12:12:17.442Z</time></trkpt><trkpt lat="43.6720583" lon="2.69689"><ele>1090.0</ele><time>2026-04-04T12:12:18.442Z</time></trkpt><trkpt lat="43.67191" lon="2.6969433"><ele>1090.0</ele><time>2026-04-04T12:12:19.444Z</time></trkpt><trkpt lat="43.67178" lon="2.69697"><ele>1089.75</ele><time>2026-04-04T12:12:20.442Z</time></trkpt><trkpt lat="43.6716617" lon="2.6969733"><ele>1089.5</ele><time>2026-04-04T12:12:21.442Z</time></trkpt><trkpt lat="43.671545" lon="2.6969567"><ele>1089.25</ele><time>2026-04-04T12:12:22.443Z</time></trkpt><trkpt lat="43.6714267" lon="2.6969133"><ele>1089.0</ele><time>2026-04-04T12:12:23.442Z</time></trkpt><trkpt lat="43.6713" lon="2.6968533"><ele>1089.0</ele><time>2026-04-04T12:12:24.443Z</time></trkpt><trkpt lat="43.671205" lon="2.6967667"><ele>1089.0</ele><time>2026-04-04T12:12:25.444Z</time></trkpt><trkpt lat="43.67107" lon="2.6967567"><ele>1089.0</ele><time>2026-04-04T12:12:26.443Z</time></trkpt><trkpt lat="43.6709217" lon="2.6967733"><ele>1089.0</ele><time>2026-04-04T12:12:27.443Z</time></trkpt><trkpt lat="43.6707667" lon="2.696795"><ele>1086.6666666666667</ele><time>2026-04-04T12:12:28.444Z</time></trkpt><trkpt lat="43.6705867" lon="2.69687"><ele>1084.3333333333335</ele><time>2026-04-04T12:12:29.443Z</time></trkpt><trkpt lat="43.6703917" lon="2.6969783"><ele>1082.0</ele><time>2026-04-04T12:12:30.442Z</time></trkpt><trkpt lat="43.6701967" lon="2.6971183"><ele>1075.6666666666667</ele><time>2026-04-04T12:12:31.444Z</time></trkpt><trkpt lat="43.67002" lon="2.6972867"><ele>1069.3333333333333</ele><time>2026-04-04T12:12:32.442Z</time></trkpt><trkpt lat="43.669855" lon="2.6974517"><ele>1063.0</ele><time>2026-04-04T12:12:33.443Z</time></trkpt><trkpt lat="43.66971" lon="2.6976233"><ele>1059.3333333333333</ele><time>2026-04-04T12:12:34.444Z</time></trkpt><trkpt lat="43.6695733" lon="2.697785"><ele>1055.6666666666667</ele><time>2026-04-04T12:12:35.443Z</time></trkpt><trkpt lat="43.6694367" lon="2.6979367"><ele>1052.0</ele><time>2026-04-04T12:12:36.443Z</time></trkpt><trkpt lat="43.6693083" lon="2.69808"><ele>1052.0</ele><time>2026-04-04T12:12:37.443Z</time></trkpt><trkpt lat="43.6691583" lon="2.69821"><ele>1052.0</ele><time>2026-04-04T12:12:38.442Z</time></trkpt><trkpt lat="43.66899" lon="2.6983317"><ele>1052.0</ele><time>2026-04-04T12:12:39.443Z</time></trkpt><trkpt lat="43.66881" lon="2.6984533"><ele>1052.0</ele><time>2026-04-04T12:12:40.443Z</time></trkpt><trkpt lat="43.6686317" lon="2.6985767"><ele>1052.0</ele><time>2026-04-04T12:12:41.442Z</time></trkpt><trkpt lat="43.6684767" lon="2.6986917"><ele>1052.0</ele><time>2026-04-04T12:12:42.444Z</time></trkpt><trkpt lat="43.6683417" lon="2.6988067"><ele>1050.4</ele><time>2026-04-04T12:12:43.443Z</time></trkpt><trkpt lat="43.6682317" lon="2.698905"><ele>1048.8000000000002</ele><time>2026-04-04T12:12:44.443Z</time></trkpt><trkpt lat="43.6681433" lon="2.6989683"><ele>1047.2</ele><time>2026-04-04T12:12:45.442Z</time></trkpt><trkpt lat="43.66807" lon="2.698995"><ele>1045.6000000000001</ele><time>2026-04-04T12:12:46.442Z</time></trkpt><trkpt lat="43.668005" lon="2.6990267"><ele>1044.0</ele><time>2026-04-04T12:12:47.443Z</time></trkpt><trkpt lat="43.667925" lon="2.69905"><ele>1044.0</ele><time>2026-04-04T12:12:48.443Z</time></trkpt><trkpt lat="43.66785" lon="2.6990617"><ele>1044.0</ele><time>2026-04-04T12:12:49.444Z</time></trkpt><trkpt lat="43.667785" lon="2.6990533"><ele>1044.0</ele><time>2026-04-04T12:12:50.442Z</time></trkpt><trkpt lat="43.6676867" lon="2.6989917"><ele>1044.0</ele><time>2026-04-04T12:12:52.442Z</time></trkpt><trkpt lat="43.6676083" lon="2.698875"><ele>1044.0</ele><time>2026-04-04T12:12:53.443Z</time></trkpt><trkpt lat="43.6675383" lon="2.6987167"><ele>1042.3333333333333</ele><time>2026-04-04T12:12:54.443Z</time></trkpt><trkpt lat="43.6674583" lon="2.698495"><ele>1040.6666666666665</ele><time>2026-04-04T12:12:55.444Z</time></trkpt><trkpt lat="43.6674083" lon="2.6981733"><ele>1039.0</ele><time>2026-04-04T12:12:56.443Z</time></trkpt><trkpt lat="43.6673733" lon="2.6978217"><ele>1038.0</ele><time>2026-04-04T12:12:57.443Z</time></trkpt><trkpt lat="43.6673583" lon="2.6973933"><ele>1037.0</ele><time>2026-04-04T12:12:58.444Z</time></trkpt><trkpt lat="43.667355" lon="2.6970717"><ele>1035.6666666666667</ele><time>2026-04-04T12:12:59.445Z</time></trkpt><trkpt lat="43.6673433" lon="2.696785"><ele>1034.3333333333333</ele><time>2026-04-04T12:13:00.443Z</time></trkpt><trkpt lat="43.66735" lon="2.6965367"><ele>1033.0</ele><time>2026-04-04T12:13:01.443Z</time></trkpt><trkpt lat="43.667355" lon="2.6962867"><ele>1031.3333333333333</ele><time>2026-04-04T12:13:02.443Z</time></trkpt><trkpt lat="43.6673867" lon="2.6960183"><ele>1029.6666666666667</ele><time>2026-04-04T12:13:03.443Z</time></trkpt><trkpt lat="43.6673817" lon="2.6958467"><ele>1028.0</ele><time>2026-04-04T12:13:04.443Z</time></trkpt><trkpt lat="43.6673283" lon="2.69567"><ele>1028.0</ele><time>2026-04-04T12:13:05.444Z</time></trkpt><trkpt lat="43.6672617" lon="2.6954783"><ele>1028.0</ele><time>2026-04-04T12:13:06.444Z</time></trkpt><trkpt lat="43.6671567" lon="2.69537"><ele>1028.0</ele><time>2026-04-04T12:13:07.443Z</time></trkpt><trkpt lat="43.6670517" lon="2.69528"><ele>1028.0</ele><time>2026-04-04T12:13:08.443Z</time></trkpt><trkpt lat="43.666955" lon="2.6952217"><ele>1027.6666666666667</ele><time>2026-04-04T12:13:09.444Z</time></trkpt><trkpt lat="43.6668617" lon="2.6952033"><ele>1027.3333333333335</ele><time>2026-04-04T12:13:10.443Z</time></trkpt><trkpt lat="43.6667717" lon="2.6951817"><ele>1027.0</ele><time>2026-04-04T12:13:11.443Z</time></trkpt><trkpt lat="43.6666983" lon="2.6952217"><ele>1026.6666666666667</ele><time>2026-04-04T12:13:12.444Z</time></trkpt><trkpt lat="43.6666117" lon="2.6952433"><ele>1026.3333333333333</ele><time>2026-04-04T12:13:13.445Z</time></trkpt><trkpt lat="43.66653" lon="2.695305"><ele>1026.0</ele><time>2026-04-04T12:13:14.444Z</time></trkpt><trkpt lat="43.6664367" lon="2.69537"><ele>1024.5</ele><time>2026-04-04T12:13:15.443Z</time></trkpt><trkpt lat="43.6663467" lon="2.6954683"><ele>1023.0</ele><time>2026-04-04T12:13:16.443Z</time></trkpt><trkpt lat="43.6662333" lon="2.6956767"><ele>1021.5</ele><time>2026-04-04T12:13:17.443Z</time></trkpt><trkpt lat="43.66613" lon="2.695815"><ele>1020.0</ele><time>2026-04-04T12:13:18.445Z</time></trkpt><trkpt lat="43.666035" lon="2.6959483"><ele>1020.0</ele><time>2026-04-04T12:13:19.444Z</time></trkpt><trkpt lat="43.6659217" lon="2.6960533"><ele>1020.0</ele><time>2026-04-04T12:13:20.444Z</time></trkpt><trkpt lat="43.66579" lon="2.6961717"><ele>1020.0</ele><time>2026-04-04T12:13:21.443Z</time></trkpt><trkpt lat="43.66567" lon="2.6963067"><ele>1020.0</ele><time>2026-04-04T12:13:22.443Z</time></trkpt><trkpt lat="43.66554" lon="2.6964317"><ele>1018.3333333333333</ele><time>2026-04-04T12:13:23.444Z</time></trkpt><trkpt lat="43.665405" lon="2.69656"><ele>1016.6666666666666</ele><time>2026-04-04T12:13:24.443Z</time></trkpt><trkpt lat="43.6652733" lon="2.69668"><ele>1015.0</ele><time>2026-04-04T12:13:25.445Z</time></trkpt><trkpt lat="43.66513" lon="2.6967933"><ele>1015.0</ele><time>2026-04-04T12:13:26.443Z</time></trkpt><trkpt lat="43.664975" lon="2.6968883"><ele>1015.0</ele><time>2026-04-04T12:13:27.444Z</time></trkpt><trkpt lat="43.6648017" lon="2.69699"><ele>1015.0</ele><time>2026-04-04T12:13:28.444Z</time></trkpt><trkpt lat="43.6646267" lon="2.6971"><ele>1012.6666666666666</ele><time>2026-04-04T12:13:29.443Z</time></trkpt><trkpt lat="43.6644517" lon="2.69724"><ele>1010.3333333333333</ele><time>2026-04-04T12:13:30.444Z</time></trkpt><trkpt lat="43.6642883" lon="2.697395"><ele>1008.0</ele><time>2026-04-04T12:13:31.444Z</time></trkpt><trkpt lat="43.66414" lon="2.6975283"><ele>1008.0</ele><time>2026-04-04T12:13:32.443Z</time></trkpt><trkpt lat="43.6640067" lon="2.69766"><ele>1008.0</ele><time>2026-04-04T12:13:33.443Z</time></trkpt><trkpt lat="43.66387" lon="2.69777"><ele>1008.0</ele><time>2026-04-04T12:13:34.443Z</time></trkpt><trkpt lat="43.6637233" lon="2.6978717"><ele>1004.75</ele><time>2026-04-04T12:13:35.443Z</time></trkpt><trkpt lat="43.6635783" lon="2.6979517"><ele>1001.5</ele><time>2026-04-04T12:13:36.443Z</time></trkpt><trkpt lat="43.6634383" lon="2.6980133"><ele>998.25</ele><time>2026-04-04T12:13:37.443Z</time></trkpt><trkpt lat="43.6633067" lon="2.69805"><ele>995.0</ele><time>2026-04-04T12:13:38.443Z</time></trkpt><trkpt lat="43.6631883" lon="2.69807"><ele>995.0</ele><time>2026-04-04T12:13:39.443Z</time></trkpt><trkpt lat="43.6630783" lon="2.6980683"><ele>995.0</ele><time>2026-04-04T12:13:40.444Z</time></trkpt><trkpt lat="43.6629617" lon="2.69805"><ele>995.0</ele><time>2026-04-04T12:13:41.443Z</time></trkpt><trkpt lat="43.6628467" lon="2.698035"><ele>995.0</ele><time>2026-04-04T12:13:42.444Z</time></trkpt><trkpt lat="43.6626967" lon="2.6980133"><ele>993.0</ele><time>2026-04-04T12:13:43.444Z</time></trkpt><trkpt lat="43.6625333" lon="2.6980033"><ele>991.0</ele><time>2026-04-04T12:13:44.443Z</time></trkpt><trkpt lat="43.6623617" lon="2.69801"><ele>989.0</ele><time>2026-04-04T12:13:45.444Z</time></trkpt><trkpt lat="43.66218" lon="2.6980083"><ele>989.0</ele><time>2026-04-04T12:13:46.444Z</time></trkpt><trkpt lat="43.6620117" lon="2.6979983"><ele>989.0</ele><time>2026-04-04T12:13:47.443Z</time></trkpt><trkpt lat="43.6618683" lon="2.6979667"><ele>989.0</ele><time>2026-04-04T12:13:48.444Z</time></trkpt><trkpt lat="43.6617267" lon="2.6979383"><ele>987.75</ele><time>2026-04-04T12:13:49.444Z</time></trkpt><trkpt lat="43.6615933" lon="2.6978633"><ele>986.5</ele><time>2026-04-04T12:13:50.443Z</time></trkpt><trkpt lat="43.6614583" lon="2.6978"><ele>985.25</ele><time>2026-04-04T12:13:51.443Z</time></trkpt><trkpt lat="43.661335" lon="2.69778"><ele>984.0</ele><time>2026-04-04T12:13:52.443Z</time></trkpt><trkpt lat="43.6612133" lon="2.6977717"><ele>982.5</ele><time>2026-04-04T12:13:53.444Z</time></trkpt><trkpt lat="43.661085" lon="2.6978017"><ele>981.0</ele><time>2026-04-04T12:13:54.444Z</time></trkpt><trkpt lat="43.6609717" lon="2.6978533"><ele>979.5</ele><time>2026-04-04T12:13:55.444Z</time></trkpt><trkpt lat="43.660855" lon="2.6979267"><ele>978.0</ele><time>2026-04-04T12:13:56.443Z</time></trkpt><trkpt lat="43.660765" lon="2.6980667"><ele>978.0</ele><time>2026-04-04T12:13:57.444Z</time></trkpt><trkpt lat="43.6606933" lon="2.6982117"><ele>978.0</ele><time>2026-04-04T12:13:58.446Z</time></trkpt><trkpt lat="43.6605967" lon="2.6983283"><ele>978.0</ele><time>2026-04-04T12:13:59.443Z</time></trkpt><trkpt lat="43.6604767" lon="2.698455"><ele>978.0</ele><time>2026-04-04T12:14:00.443Z</time></trkpt><trkpt lat="43.66035" lon="2.6985967"><ele>976.25</ele><time>2026-04-04T12:14:01.443Z</time></trkpt><trkpt lat="43.6602317" lon="2.698725"><ele>974.5</ele><time>2026-04-04T12:14:02.444Z</time></trkpt><trkpt lat="43.6601333" lon="2.6988233"><ele>972.75</ele><time>2026-04-04T12:14:03.444Z</time></trkpt><trkpt lat="43.66004" lon="2.6989033"><ele>971.0</ele><time>2026-04-04T12:14:04.443Z</time></trkpt><trkpt lat="43.65994" lon="2.698975"><ele>971.0</ele><time>2026-04-04T12:14:05.443Z</time></trkpt><trkpt lat="43.6598317" lon="2.6990217"><ele>970.9999999999999</ele><time>2026-04-04T12:14:06.443Z</time></trkpt><trkpt lat="43.659735" lon="2.6990267"><ele>970.9999999999999</ele><time>2026-04-04T12:14:07.444Z</time></trkpt><trkpt lat="43.6596233" lon="2.69907"><ele>971.0</ele><time>2026-04-04T12:14:08.443Z</time></trkpt><trkpt lat="43.65951" lon="2.6991017"><ele>971.0</ele><time>2026-04-04T12:14:09.443Z</time></trkpt><trkpt lat="43.6593917" lon="2.6991317"><ele>971.25</ele><time>2026-04-04T12:14:10.444Z</time></trkpt><trkpt lat="43.6592767" lon="2.699155"><ele>971.5</ele><time>2026-04-04T12:14:11.444Z</time></trkpt><trkpt lat="43.6591817" lon="2.6991667"><ele>971.75</ele><time>2026-04-04T12:14:12.443Z</time></trkpt><trkpt lat="43.6590667" lon="2.699145"><ele>972.0</ele><time>2026-04-04T12:14:13.444Z</time></trkpt><trkpt lat="43.65894" lon="2.6990817"><ele>972.0</ele><time>2026-04-04T12:14:14.444Z</time></trkpt><trkpt lat="43.6588167" lon="2.6990283"><ele>972.0</ele><time>2026-04-04T12:14:15.443Z</time></trkpt><trkpt lat="43.6586883" lon="2.69899"><ele>972.0</ele><time>2026-04-04T12:14:16.444Z</time></trkpt><trkpt lat="43.6585483" lon="2.6989567"><ele>972.0</ele><time>2026-04-04T12:14:17.443Z</time></trkpt><trkpt lat="43.6583867" lon="2.6989433"><ele>968.75</ele><time>2026-04-04T12:14:18.443Z</time></trkpt><trkpt lat="43.6582433" lon="2.6989167"><ele>965.5</ele><time>2026-04-04T12:14:19.444Z</time></trkpt><trkpt lat="43.6581033" lon="2.698875"><ele>962.25</ele><time>2026-04-04T12:14:20.444Z</time></trkpt><trkpt lat="43.657975" lon="2.6988433"><ele>959.0</ele><time>2026-04-04T12:14:21.443Z</time></trkpt><trkpt lat="43.6578617" lon="2.69882"><ele>955.75</ele><time>2026-04-04T12:14:22.443Z</time></trkpt><trkpt lat="43.65775" lon="2.6988167"><ele>952.5</ele><time>2026-04-04T12:14:23.443Z</time></trkpt><trkpt lat="43.6576283" lon="2.69884"><ele>949.25</ele><time>2026-04-04T12:14:24.444Z</time></trkpt><trkpt lat="43.657535" lon="2.6989067"><ele>946.0</ele><time>2026-04-04T12:14:25.444Z</time></trkpt><trkpt lat="43.6574233" lon="2.6989633"><ele>946.0</ele><time>2026-04-04T12:14:26.443Z</time></trkpt><trkpt lat="43.6572767" lon="2.6990433"><ele>946.0</ele><time>2026-04-04T12:14:27.443Z</time></trkpt><trkpt lat="43.65716" lon="2.699145"><ele>946.0</ele><time>2026-04-04T12:14:28.443Z</time></trkpt><trkpt lat="43.6570183" lon="2.6992167"><ele>946.0</ele><time>2026-04-04T12:14:29.443Z</time></trkpt><trkpt lat="43.656875" lon="2.6992717"><ele>944.25</ele><time>2026-04-04T12:14:30.443Z</time></trkpt><trkpt lat="43.6567317" lon="2.6993317"><ele>942.5</ele><time>2026-04-04T12:14:31.444Z</time></trkpt><trkpt lat="43.6566033" lon="2.6993967"><ele>940.75</ele><time>2026-04-04T12:14:32.444Z</time></trkpt><trkpt lat="43.6564817" lon="2.699445"><ele>939.0</ele><time>2026-04-04T12:14:33.444Z</time></trkpt><trkpt lat="43.6563717" lon="2.6995183"><ele>939.0</ele><time>2026-04-04T12:14:34.443Z</time></trkpt><trkpt lat="43.6562567" lon="2.6995983"><ele>939.0</ele><time>2026-04-04T12:14:35.443Z</time></trkpt><trkpt lat="43.6561367" lon="2.69968"><ele>939.0</ele><time>2026-04-04T12:14:36.444Z</time></trkpt><trkpt lat="43.65601" lon="2.6997467"><ele>939.0</ele><time>2026-04-04T12:14:37.443Z</time></trkpt><trkpt lat="43.6558967" lon="2.6998217"><ele>939.2</ele><time>2026-04-04T12:14:38.444Z</time></trkpt><trkpt lat="43.6557983" lon="2.6998767"><ele>939.4000000000001</ele><time>2026-04-04T12:14:39.444Z</time></trkpt><trkpt lat="43.6557" lon="2.6999467"><ele>939.6</ele><time>2026-04-04T12:14:40.443Z</time></trkpt><trkpt lat="43.655625" lon="2.7000383"><ele>939.8</ele><time>2026-04-04T12:14:41.443Z</time></trkpt><trkpt lat="43.6555583" lon="2.7001433"><ele>940.0</ele><time>2026-04-04T12:14:42.443Z</time></trkpt><trkpt lat="43.6554883" lon="2.70028"><ele>940.0</ele><time>2026-04-04T12:14:43.444Z</time></trkpt><trkpt lat="43.6554033" lon="2.700435"><ele>940.0</ele><time>2026-04-04T12:14:44.444Z</time></trkpt><trkpt lat="43.6553117" lon="2.7005767"><ele>940.0</ele><time>2026-04-04T12:14:45.444Z</time></trkpt><trkpt lat="43.6552117" lon="2.700735"><ele>940.0</ele><time>2026-04-04T12:14:46.445Z</time></trkpt><trkpt lat="43.655105" lon="2.7008917"><ele>942.6666666666666</ele><time>2026-04-04T12:14:47.443Z</time></trkpt><trkpt lat="43.654995" lon="2.70105"><ele>945.3333333333333</ele><time>2026-04-04T12:14:48.444Z</time></trkpt><trkpt lat="43.6548683" lon="2.7012367"><ele>948.0</ele><time>2026-04-04T12:14:49.444Z</time></trkpt><trkpt lat="43.6547433" lon="2.7014217"><ele>948.0</ele><time>2026-04-04T12:14:50.444Z</time></trkpt><trkpt lat="43.65462" lon="2.7015867"><ele>948.0</ele><time>2026-04-04T12:14:51.443Z</time></trkpt><trkpt lat="43.6545017" lon="2.7017583"><ele>948.0</ele><time>2026-04-04T12:14:52.443Z</time></trkpt><trkpt lat="43.6543833" lon="2.70194"><ele>948.0</ele><time>2026-04-04T12:14:53.443Z</time></trkpt><trkpt lat="43.654275" lon="2.7021033"><ele>948.0</ele><time>2026-04-04T12:14:54.443Z</time></trkpt><trkpt lat="43.654175" lon="2.7022367"><ele>948.0</ele><time>2026-04-04T12:14:55.444Z</time></trkpt><trkpt lat="43.6540817" lon="2.7023633"><ele>948.0</ele><time>2026-04-04T12:14:56.446Z</time></trkpt><trkpt lat="43.6539817" lon="2.702485"><ele>948.0</ele><time>2026-04-04T12:14:57.443Z</time></trkpt><trkpt lat="43.6538767" lon="2.70262"><ele>948.0</ele><time>2026-04-04T12:14:58.443Z</time></trkpt><trkpt lat="43.6537883" lon="2.702765"><ele>948.0</ele><time>2026-04-04T12:14:59.443Z</time></trkpt><trkpt lat="43.653675" lon="2.7029467"><ele>947.3333333333333</ele><time>2026-04-04T12:15:00.443Z</time></trkpt><trkpt lat="43.6535617" lon="2.7031317"><ele>946.6666666666666</ele><time>2026-04-04T12:15:01.443Z</time></trkpt><trkpt lat="43.6534483" lon="2.703325"><ele>946.0</ele><time>2026-04-04T12:15:02.442Z</time></trkpt><trkpt lat="43.6533367" lon="2.7035"><ele>943.6666666666666</ele><time>2026-04-04T12:15:03.442Z</time></trkpt><trkpt lat="43.6532283" lon="2.7036833"><ele>941.3333333333333</ele><time>2026-04-04T12:15:04.443Z</time></trkpt><trkpt lat="43.6531217" lon="2.703855"><ele>939.0</ele><time>2026-04-04T12:15:05.442Z</time></trkpt><trkpt lat="43.6530183" lon="2.7040233"><ele>939.0</ele><time>2026-04-04T12:15:06.444Z</time></trkpt><trkpt lat="43.65286" lon="2.704205"><ele>939.0</ele><time>2026-04-04T12:15:07.443Z</time></trkpt><trkpt lat="43.6527433" lon="2.704355"><ele>939.0</ele><time>2026-04-04T12:15:08.442Z</time></trkpt><trkpt lat="43.6526417" lon="2.704495"><ele>936.6</ele><time>2026-04-04T12:15:09.444Z</time></trkpt><trkpt lat="43.652555" lon="2.7046317"><ele>934.2</ele><time>2026-04-04T12:15:10.443Z</time></trkpt><trkpt lat="43.6525017" lon="2.70475"><ele>931.8000000000001</ele><time>2026-04-04T12:15:11.448Z</time></trkpt><trkpt lat="43.65248" lon="2.7048617"><ele>929.4000000000001</ele><time>2026-04-04T12:15:12.446Z</time></trkpt><trkpt lat="43.6524733" lon="2.7049567"><ele>927.0</ele><time>2026-04-04T12:15:13.446Z</time></trkpt><trkpt lat="43.6524817" lon="2.705045"><ele>927.0</ele><time>2026-04-04T12:15:14.446Z</time></trkpt><trkpt lat="43.6525267" lon="2.7051933"><ele>927.0</ele><time>2026-04-04T12:15:16.448Z</time></trkpt><trkpt lat="43.6526633" lon="2.7052383"><ele>927.0</ele><time>2026-04-04T12:15:18.443Z</time></trkpt><trkpt lat="43.6527833" lon="2.70521"><ele>927.0</ele><time>2026-04-04T12:15:19.443Z</time></trkpt><trkpt lat="43.6529233" lon="2.70518"><ele>926.5</ele><time>2026-04-04T12:15:20.442Z</time></trkpt><trkpt lat="43.653055" lon="2.7051467"><ele>926.0</ele><time>2026-04-04T12:15:21.444Z</time></trkpt><trkpt lat="43.65319" lon="2.7051067"><ele>925.5</ele><time>2026-04-04T12:15:22.443Z</time></trkpt><trkpt lat="43.6533133" lon="2.7050683"><ele>925.0</ele><time>2026-04-04T12:15:23.443Z</time></trkpt><trkpt lat="43.6534317" lon="2.7050267"><ele>925.0</ele><time>2026-04-04T12:15:24.443Z</time></trkpt><trkpt lat="43.6535467" lon="2.7049883"><ele>925.0</ele><time>2026-04-04T12:15:25.443Z</time></trkpt><trkpt lat="43.65366" lon="2.7049433"><ele>925.0</ele><time>2026-04-04T12:15:26.443Z</time></trkpt><trkpt lat="43.6537583" lon="2.7048783"><ele>925.0</ele><time>2026-04-04T12:15:27.442Z</time></trkpt><trkpt lat="43.6538717" lon="2.7047933"><ele>925.5</ele><time>2026-04-04T12:15:28.443Z</time></trkpt><trkpt lat="43.6539683" lon="2.7046983"><ele>926.0</ele><time>2026-04-04T12:15:29.444Z</time></trkpt><trkpt lat="43.6540767" lon="2.70459"><ele>926.5</ele><time>2026-04-04T12:15:30.443Z</time></trkpt><trkpt lat="43.6541883" lon="2.7044833"><ele>927.0</ele><time>2026-04-04T12:15:31.445Z</time></trkpt><trkpt lat="43.6542983" lon="2.7043783"><ele>927.0</ele><time>2026-04-04T12:15:32.442Z</time></trkpt><trkpt lat="43.6544083" lon="2.7042683"><ele>927.0</ele><time>2026-04-04T12:15:33.443Z</time></trkpt><trkpt lat="43.654515" lon="2.704155"><ele>927.0</ele><time>2026-04-04T12:15:34.444Z</time></trkpt><trkpt lat="43.6546317" lon="2.70403"><ele>927.0</ele><time>2026-04-04T12:15:35.443Z</time></trkpt><trkpt lat="43.654745" lon="2.7039017"><ele>925.5</ele><time>2026-04-04T12:15:36.443Z</time></trkpt><trkpt lat="43.65486" lon="2.7037683"><ele>924.0</ele><time>2026-04-04T12:15:37.443Z</time></trkpt><trkpt lat="43.6549733" lon="2.7036267"><ele>922.5</ele><time>2026-04-04T12:15:38.443Z</time></trkpt><trkpt lat="43.6550767" lon="2.7034883"><ele>921.0</ele><time>2026-04-04T12:15:39.443Z</time></trkpt><trkpt lat="43.6551817" lon="2.703365"><ele>917.1999999999999</ele><time>2026-04-04T12:15:40.443Z</time></trkpt><trkpt lat="43.65529" lon="2.7032567"><ele>913.3999999999999</ele><time>2026-04-04T12:15:41.442Z</time></trkpt><trkpt lat="43.6553883" lon="2.7031717"><ele>909.6</ele><time>2026-04-04T12:15:42.443Z</time></trkpt><trkpt lat="43.6554633" lon="2.7031033"><ele>905.8</ele><time>2026-04-04T12:15:43.445Z</time></trkpt><trkpt lat="43.6555567" lon="2.7030417"><ele>902.0</ele><time>2026-04-04T12:15:44.443Z</time></trkpt><trkpt lat="43.6556283" lon="2.7029933"><ele>902.0</ele><time>2026-04-04T12:15:45.443Z</time></trkpt><trkpt lat="43.65571" lon="2.70296"><ele>902.0</ele><time>2026-04-04T12:15:46.446Z</time></trkpt><trkpt lat="43.6558267" lon="2.70294"><ele>902.0</ele><time>2026-04-04T12:15:48.444Z</time></trkpt><trkpt lat="43.6558817" lon="2.703"><ele>902.0</ele><time>2026-04-04T12:15:50.442Z</time></trkpt><trkpt lat="43.6559533" lon="2.7030567"><ele>902.0</ele><time>2026-04-04T12:15:52.445Z</time></trkpt><trkpt lat="43.655955" lon="2.7032067"><ele>902.0</ele><time>2026-04-04T12:15:54.443Z</time></trkpt><trkpt lat="43.65594" lon="2.703295"><ele>902.0</ele><time>2026-04-04T12:15:55.444Z</time></trkpt><trkpt lat="43.655915" lon="2.7034317"><ele>902.0</ele><time>2026-04-04T12:15:56.443Z</time></trkpt><trkpt lat="43.6558833" lon="2.7035767"><ele>902.0</ele><time>2026-04-04T12:15:57.443Z</time></trkpt><trkpt lat="43.655835" lon="2.70375"><ele>902.0</ele><time>2026-04-04T12:15:58.444Z</time></trkpt><trkpt lat="43.6557983" lon="2.7039517"><ele>897.0</ele><time>2026-04-04T12:15:59.445Z</time></trkpt><trkpt lat="43.6557067" lon="2.70426"><ele>892.0</ele><time>2026-04-04T12:16:00.447Z</time></trkpt><trkpt lat="43.655665" lon="2.7044517"><ele>887.0</ele><time>2026-04-04T12:16:01.444Z</time></trkpt><trkpt lat="43.6556017" lon="2.7046467"><ele>884.75</ele><time>2026-04-04T12:16:02.444Z</time></trkpt><trkpt lat="43.6555167" lon="2.7048367"><ele>882.5</ele><time>2026-04-04T12:16:03.444Z</time></trkpt><trkpt lat="43.6554333" lon="2.7049917"><ele>880.25</ele><time>2026-04-04T12:16:04.445Z</time></trkpt><trkpt lat="43.6553467" lon="2.705135"><ele>878.0</ele><time>2026-04-04T12:16:05.444Z</time></trkpt><trkpt lat="43.655255" lon="2.7052767"><ele>878.0</ele><time>2026-04-04T12:16:06.445Z</time></trkpt><trkpt lat="43.655165" lon="2.7054183"><ele>878.0</ele><time>2026-04-04T12:16:07.445Z</time></trkpt><trkpt lat="43.6550817" lon="2.7055567"><ele>878.0</ele><time>2026-04-04T12:16:08.443Z</time></trkpt><trkpt lat="43.6550033" lon="2.7057017"><ele>878.0</ele><time>2026-04-04T12:16:09.444Z</time></trkpt><trkpt lat="43.6549283" lon="2.705835"><ele>878.0</ele><time>2026-04-04T12:16:10.445Z</time></trkpt><trkpt lat="43.654845" lon="2.705975"><ele>878.0</ele><time>2026-04-04T12:16:11.444Z</time></trkpt><trkpt lat="43.6547683" lon="2.70612"><ele>878.0</ele><time>2026-04-04T12:16:12.444Z</time></trkpt><trkpt lat="43.6546833" lon="2.7062333"><ele>878.0</ele><time>2026-04-04T12:16:13.444Z</time></trkpt><trkpt lat="43.6545983" lon="2.7063317"><ele>877.0</ele><time>2026-04-04T12:16:14.446Z</time></trkpt><trkpt lat="43.654525" lon="2.7064"><ele>876.0</ele><time>2026-04-04T12:16:15.444Z</time></trkpt><trkpt lat="43.6544467" lon="2.70646"><ele>875.0</ele><time>2026-04-04T12:16:16.444Z</time></trkpt><trkpt lat="43.6543617" lon="2.7065117"><ele>874.0</ele><time>2026-04-04T12:16:17.444Z</time></trkpt><trkpt lat="43.6542733" lon="2.7065733"><ele>873.0</ele><time>2026-04-04T12:16:18.445Z</time></trkpt><trkpt lat="43.6541583" lon="2.7066183"><ele>873.0</ele><time>2026-04-04T12:16:19.444Z</time></trkpt><trkpt lat="43.6540167" lon="2.70669"><ele>873.0</ele><time>2026-04-04T12:16:20.445Z</time></trkpt><trkpt lat="43.6538783" lon="2.7067633"><ele>873.0</ele><time>2026-04-04T12:16:21.444Z</time></trkpt><trkpt lat="43.6537183" lon="2.7068267"><ele>873.6666666666667</ele><time>2026-04-04T12:16:22.445Z</time></trkpt><trkpt lat="43.6535617" lon="2.7068783"><ele>874.3333333333334</ele><time>2026-04-04T12:16:23.443Z</time></trkpt><trkpt lat="43.6534183" lon="2.7069217"><ele>875.0</ele><time>2026-04-04T12:16:24.443Z</time></trkpt><trkpt lat="43.6532717" lon="2.7069783"><ele>869.6666666666667</ele><time>2026-04-04T12:16:25.444Z</time></trkpt><trkpt lat="43.653115" lon="2.7070433"><ele>864.3333333333333</ele><time>2026-04-04T12:16:26.444Z</time></trkpt><trkpt lat="43.6529467" lon="2.7071267"><ele>859.0</ele><time>2026-04-04T12:16:27.443Z</time></trkpt><trkpt lat="43.652795" lon="2.7072117"><ele>858.25</ele><time>2026-04-04T12:16:28.45Z</time></trkpt><trkpt lat="43.6526617" lon="2.707305"><ele>857.5</ele><time>2026-04-04T12:16:29.443Z</time></trkpt><trkpt lat="43.6525383" lon="2.7073967"><ele>856.75</ele><time>2026-04-04T12:16:30.445Z</time></trkpt><trkpt lat="43.6524167" lon="2.70749"><ele>856.0</ele><time>2026-04-04T12:16:31.443Z</time></trkpt><trkpt lat="43.6523067" lon="2.7075867"><ele>856.0</ele><time>2026-04-04T12:16:32.442Z</time></trkpt><trkpt lat="43.6521933" lon="2.70771"><ele>856.0</ele><time>2026-04-04T12:16:33.443Z</time></trkpt><trkpt lat="43.6520733" lon="2.70784"><ele>856.0</ele><time>2026-04-04T12:16:34.443Z</time></trkpt><trkpt lat="43.6519917" lon="2.7079867"><ele>856.0</ele><time>2026-04-04T12:16:35.442Z</time></trkpt><trkpt lat="43.6519133" lon="2.708135"><ele>855.9999999999999</ele><time>2026-04-04T12:16:36.443Z</time></trkpt><trkpt lat="43.6518517" lon="2.7082783"><ele>856.0</ele><time>2026-04-04T12:16:37.444Z</time></trkpt><trkpt lat="43.651795" lon="2.7083717"><ele>856.0</ele><time>2026-04-04T12:16:38.442Z</time></trkpt><trkpt lat="43.6517383" lon="2.7084433"><ele>856.0</ele><time>2026-04-04T12:16:39.444Z</time></trkpt><trkpt lat="43.6516733" lon="2.7085083"><ele>855.9999999999999</ele><time>2026-04-04T12:16:40.443Z</time></trkpt><trkpt lat="43.6516017" lon="2.7085483"><ele>856.0</ele><time>2026-04-04T12:16:41.442Z</time></trkpt><trkpt lat="43.6515217" lon="2.7085533"><ele>855.9999999999999</ele><time>2026-04-04T12:16:42.445Z</time></trkpt><trkpt lat="43.6514433" lon="2.7085683"><ele>856.0</ele><time>2026-04-04T12:16:43.444Z</time></trkpt><trkpt lat="43.6513817" lon="2.7086"><ele>856.0</ele><time>2026-04-04T12:16:44.443Z</time></trkpt><trkpt lat="43.65129" lon="2.7086217"><ele>856.0</ele><time>2026-04-04T12:16:45.443Z</time></trkpt><trkpt lat="43.6512083" lon="2.7086417"><ele>855.9999999999999</ele><time>2026-04-04T12:16:46.443Z</time></trkpt><trkpt lat="43.6511133" lon="2.7086467"><ele>856.0</ele><time>2026-04-04T12:16:47.442Z</time></trkpt><trkpt lat="43.6510267" lon="2.7086217"><ele>855.25</ele><time>2026-04-04T12:16:48.443Z</time></trkpt><trkpt lat="43.6509417" lon="2.708615"><ele>854.5</ele><time>2026-04-04T12:16:49.443Z</time></trkpt><trkpt lat="43.650845" lon="2.7085517"><ele>853.75</ele><time>2026-04-04T12:16:50.442Z</time></trkpt><trkpt lat="43.6507483" lon="2.7084783"><ele>853.0</ele><time>2026-04-04T12:16:51.444Z</time></trkpt><trkpt lat="43.6506033" lon="2.7082983"><ele>853.0</ele><time>2026-04-04T12:16:52.443Z</time></trkpt><trkpt lat="43.6504717" lon="2.7081517"><ele>853.0</ele><time>2026-04-04T12:16:53.442Z</time></trkpt><trkpt lat="43.65033" lon="2.7080367"><ele>853.0</ele><time>2026-04-04T12:16:54.443Z</time></trkpt><trkpt lat="43.6501917" lon="2.7079233"><ele>853.0</ele><time>2026-04-04T12:16:55.443Z</time></trkpt><trkpt lat="43.6500717" lon="2.707805"><ele>853.0</ele><time>2026-04-04T12:16:56.443Z</time></trkpt><trkpt lat="43.64999" lon="2.7076683"><ele>853.0</ele><time>2026-04-04T12:16:57.444Z</time></trkpt><trkpt lat="43.64996" lon="2.70753"><ele>853.0</ele><time>2026-04-04T12:16:58.442Z</time></trkpt><trkpt lat="43.6499283" lon="2.7073817"><ele>853.0</ele><time>2026-04-04T12:16:59.442Z</time></trkpt><trkpt lat="43.64991" lon="2.7072183"><ele>853.0</ele><time>2026-04-04T12:17:00.443Z</time></trkpt><trkpt lat="43.6499367" lon="2.707065"><ele>853.0</ele><time>2026-04-04T12:17:01.444Z</time></trkpt><trkpt lat="43.650005" lon="2.7068167"><ele>853.0</ele><time>2026-04-04T12:17:02.443Z</time></trkpt><trkpt lat="43.6500617" lon="2.7066183"><ele>856.3333333333333</ele><time>2026-04-04T12:17:03.443Z</time></trkpt><trkpt lat="43.6500917" lon="2.7064017"><ele>859.6666666666667</ele><time>2026-04-04T12:17:04.445Z</time></trkpt><trkpt lat="43.6501267" lon="2.70618"><ele>863.0</ele><time>2026-04-04T12:17:05.443Z</time></trkpt><trkpt lat="43.6501567" lon="2.705955"><ele>863.0</ele><time>2026-04-04T12:17:06.443Z</time></trkpt><trkpt lat="43.6501767" lon="2.705735"><ele>863.0</ele><time>2026-04-04T12:17:07.443Z</time></trkpt><trkpt lat="43.65019" lon="2.7055233"><ele>863.0</ele><time>2026-04-04T12:17:08.442Z</time></trkpt><trkpt lat="43.6501933" lon="2.7053533"><ele>863.0</ele><time>2026-04-04T12:17:09.442Z</time></trkpt><trkpt lat="43.6501617" lon="2.7052083"><ele>862.5</ele><time>2026-04-04T12:17:10.443Z</time></trkpt><trkpt lat="43.6501183" lon="2.7050083"><ele>862.0</ele><time>2026-04-04T12:17:11.443Z</time></trkpt><trkpt lat="43.650055" lon="2.7048717"><ele>861.5</ele><time>2026-04-04T12:17:12.444Z</time></trkpt><trkpt lat="43.6499867" lon="2.7047817"><ele>861.0</ele><time>2026-04-04T12:17:13.443Z</time></trkpt><trkpt lat="43.64991" lon="2.7047017"><ele>861.0</ele><time>2026-04-04T12:17:14.443Z</time></trkpt><trkpt lat="43.64982" lon="2.7045317"><ele>861.0</ele><time>2026-04-04T12:17:15.443Z</time></trkpt><trkpt lat="43.649745" lon="2.7043883"><ele>861.0</ele><time>2026-04-04T12:17:16.443Z</time></trkpt><trkpt lat="43.649685" lon="2.7042967"><ele>861.0</ele><time>2026-04-04T12:17:17.442Z</time></trkpt><trkpt lat="43.6496167" lon="2.7042233"><ele>860.5999999999999</ele><time>2026-04-04T12:17:18.445Z</time></trkpt><trkpt lat="43.6495533" lon="2.7041683"><ele>860.1999999999999</ele><time>2026-04-04T12:17:19.445Z</time></trkpt><trkpt lat="43.64948" lon="2.7041317"><ele>859.8000000000001</ele><time>2026-04-04T12:17:20.444Z</time></trkpt><trkpt lat="43.6493533" lon="2.7041433"><ele>859.4000000000001</ele><time>2026-04-04T12:17:21.444Z</time></trkpt><trkpt lat="43.6492533" lon="2.70417"><ele>859.0</ele><time>2026-04-04T12:17:22.444Z</time></trkpt><trkpt lat="43.6491533" lon="2.7041983"><ele>859.0</ele><time>2026-04-04T12:17:23.443Z</time></trkpt><trkpt lat="43.649035" lon="2.7043617"><ele>859.0</ele><time>2026-04-04T12:17:24.443Z</time></trkpt><trkpt lat="43.6488717" lon="2.7045367"><ele>859.0</ele><time>2026-04-04T12:17:25.443Z</time></trkpt><trkpt lat="43.6487267" lon="2.70462"><ele>858.5</ele><time>2026-04-04T12:17:26.443Z</time></trkpt><trkpt lat="43.648585" lon="2.7046883"><ele>858.0</ele><time>2026-04-04T12:17:27.443Z</time></trkpt><trkpt lat="43.6484783" lon="2.7048017"><ele>857.5</ele><time>2026-04-04T12:17:28.444Z</time></trkpt><trkpt lat="43.6483817" lon="2.704865"><ele>857.0</ele><time>2026-04-04T12:17:29.443Z</time></trkpt><trkpt lat="43.6482967" lon="2.7048733"><ele>857.0000000000001</ele><time>2026-04-04T12:17:30.444Z</time></trkpt><trkpt lat="43.6482283" lon="2.7048517"><ele>857.0</ele><time>2026-04-04T12:17:31.443Z</time></trkpt><trkpt lat="43.6481683" lon="2.7047867"><ele>857.0</ele><time>2026-04-04T12:17:32.442Z</time></trkpt><trkpt lat="43.648105" lon="2.7047183"><ele>857.0</ele><time>2026-04-04T12:17:33.442Z</time></trkpt><trkpt lat="43.6480367" lon="2.7046483"><ele>857.0000000000001</ele><time>2026-04-04T12:17:34.443Z</time></trkpt><trkpt lat="43.6479667" lon="2.7045733"><ele>857.0</ele><time>2026-04-04T12:17:35.443Z</time></trkpt><trkpt lat="43.6478817" lon="2.7045283"><ele>857.0</ele><time>2026-04-04T12:17:36.444Z</time></trkpt><trkpt lat="43.6478033" lon="2.7044767"><ele>857.0</ele><time>2026-04-04T12:17:37.443Z</time></trkpt><trkpt lat="43.647725" lon="2.704415"><ele>857.0</ele><time>2026-04-04T12:17:38.442Z</time></trkpt><trkpt lat="43.647645" lon="2.7043617"><ele>857.0</ele><time>2026-04-04T12:17:39.443Z</time></trkpt><trkpt lat="43.6475733" lon="2.7042883"><ele>857.0</ele><time>2026-04-04T12:17:40.445Z</time></trkpt><trkpt lat="43.6474817" lon="2.7042383"><ele>857.0</ele><time>2026-04-04T12:17:41.447Z</time></trkpt><trkpt lat="43.64738" lon="2.7042117"><ele>857.0</ele><time>2026-04-04T12:17:42.446Z</time></trkpt><trkpt lat="43.647265" lon="2.704215"><ele>857.0</ele><time>2026-04-04T12:17:43.443Z</time></trkpt><trkpt lat="43.6471433" lon="2.704225"><ele>857.0</ele><time>2026-04-04T12:17:44.442Z</time></trkpt><trkpt lat="43.6470167" lon="2.7042383"><ele>855.2</ele><time>2026-04-04T12:17:45.442Z</time></trkpt><trkpt lat="43.6468783" lon="2.70431"><ele>853.4000000000001</ele><time>2026-04-04T12:17:46.443Z</time></trkpt><trkpt lat="43.6467583" lon="2.7043383"><ele>851.5999999999999</ele><time>2026-04-04T12:17:47.444Z</time></trkpt><trkpt lat="43.646665" lon="2.7043333"><ele>849.8</ele><time>2026-04-04T12:17:48.443Z</time></trkpt><trkpt lat="43.646585" lon="2.7043617"><ele>848.0</ele><time>2026-04-04T12:17:49.443Z</time></trkpt><trkpt lat="43.6465133" lon="2.7044117"><ele>846.5000000000001</ele><time>2026-04-04T12:17:50.442Z</time></trkpt><trkpt lat="43.6464467" lon="2.7044617"><ele>845.0</ele><time>2026-04-04T12:17:51.443Z</time></trkpt><trkpt lat="43.6463733" lon="2.704495"><ele>843.5</ele><time>2026-04-04T12:17:52.443Z</time></trkpt><trkpt lat="43.64629" lon="2.7045083"><ele>842.0</ele><time>2026-04-04T12:17:53.443Z</time></trkpt><trkpt lat="43.6462133" lon="2.7045083"><ele>840.5000000000001</ele><time>2026-04-04T12:17:54.446Z</time></trkpt><trkpt lat="43.6461367" lon="2.7044933"><ele>839.0</ele><time>2026-04-04T12:17:55.443Z</time></trkpt><trkpt lat="43.64607" lon="2.7044733"><ele>839.0</ele><time>2026-04-04T12:17:56.447Z</time></trkpt><trkpt lat="43.6459517" lon="2.7045067"><ele>839.0</ele><time>2026-04-04T12:17:58.444Z</time></trkpt><trkpt lat="43.645895" lon="2.7045733"><ele>839.0</ele><time>2026-04-04T12:17:59.443Z</time></trkpt><trkpt lat="43.6458367" lon="2.7046717"><ele>839.0</ele><time>2026-04-04T12:18:00.443Z</time></trkpt><trkpt lat="43.6457633" lon="2.7047733"><ele>839.0</ele><time>2026-04-04T12:18:01.444Z</time></trkpt><trkpt lat="43.6456833" lon="2.7048817"><ele>839.0</ele><time>2026-04-04T12:18:02.443Z</time></trkpt><trkpt lat="43.6455917" lon="2.7049967"><ele>839.0</ele><time>2026-04-04T12:18:03.447Z</time></trkpt><trkpt lat="43.6454867" lon="2.7051233"><ele>839.0</ele><time>2026-04-04T12:18:04.445Z</time></trkpt><trkpt lat="43.64538" lon="2.705235"><ele>839.0</ele><time>2026-04-04T12:18:05.443Z</time></trkpt><trkpt lat="43.64527" lon="2.7053233"><ele>837.4000000000001</ele><time>2026-04-04T12:18:06.444Z</time></trkpt><trkpt lat="43.6451667" lon="2.7053767"><ele>835.8</ele><time>2026-04-04T12:18:07.443Z</time></trkpt><trkpt lat="43.6450633" lon="2.705415"><ele>834.2</ele><time>2026-04-04T12:18:08.443Z</time></trkpt><trkpt lat="43.6449617" lon="2.7054567"><ele>832.5999999999999</ele><time>2026-04-04T12:18:09.443Z</time></trkpt><trkpt lat="43.644875" lon="2.7055183"><ele>831.0</ele><time>2026-04-04T12:18:10.446Z</time></trkpt><trkpt lat="43.644805" lon="2.7056267"><ele>831.0</ele><time>2026-04-04T12:18:11.447Z</time></trkpt><trkpt lat="43.6447633" lon="2.70577"><ele>831.0</ele><time>2026-04-04T12:18:12.446Z</time></trkpt><trkpt lat="43.644745" lon="2.7059533"><ele>831.0</ele><time>2026-04-04T12:18:13.446Z</time></trkpt><trkpt lat="43.6447483" lon="2.7061517"><ele>831.0</ele><time>2026-04-04T12:18:14.446Z</time></trkpt><trkpt lat="43.6447667" lon="2.7063467"><ele>830.25</ele><time>2026-04-04T12:18:15.446Z</time></trkpt><trkpt lat="43.6448017" lon="2.7065417"><ele>829.5</ele><time>2026-04-04T12:18:16.446Z</time></trkpt><trkpt lat="43.6448283" lon="2.7067317"><ele>828.75</ele><time>2026-04-04T12:18:17.446Z</time></trkpt><trkpt lat="43.6448367" lon="2.7069183"><ele>828.0</ele><time>2026-04-04T12:18:18.446Z</time></trkpt><trkpt lat="43.6448233" lon="2.7071083"><ele>826.6666666666667</ele><time>2026-04-04T12:18:19.446Z</time></trkpt><trkpt lat="43.6448" lon="2.7073017"><ele>825.3333333333334</ele><time>2026-04-04T12:18:20.446Z</time></trkpt><trkpt lat="43.6447683" lon="2.7075133"><ele>824.0</ele><time>2026-04-04T12:18:21.445Z</time></trkpt><trkpt lat="43.6447283" lon="2.70773"><ele>821.6666666666667</ele><time>2026-04-04T12:18:22.444Z</time></trkpt><trkpt lat="43.64468" lon="2.70795"><ele>819.3333333333333</ele><time>2026-04-04T12:18:23.444Z</time></trkpt><trkpt lat="43.6446283" lon="2.7081767"><ele>817.0</ele><time>2026-04-04T12:18:24.445Z</time></trkpt><trkpt lat="43.6445683" lon="2.7084083"><ele>818.3333333333333</ele><time>2026-04-04T12:18:25.445Z</time></trkpt><trkpt lat="43.6445033" lon="2.7086417"><ele>819.6666666666667</ele><time>2026-04-04T12:18:26.445Z</time></trkpt><trkpt lat="43.6444383" lon="2.70886"><ele>821.0</ele><time>2026-04-04T12:18:27.445Z</time></trkpt><trkpt lat="43.6443733" lon="2.7090583"><ele>821.0</ele><time>2026-04-04T12:18:28.445Z</time></trkpt><trkpt lat="43.6442983" lon="2.7092383"><ele>821.0</ele><time>2026-04-04T12:18:29.444Z</time></trkpt><trkpt lat="43.6442267" lon="2.709375"><ele>821.0</ele><time>2026-04-04T12:18:30.445Z</time></trkpt><trkpt lat="43.6441467" lon="2.7094767"><ele>821.0</ele><time>2026-04-04T12:18:31.445Z</time></trkpt><trkpt lat="43.6440433" lon="2.70955"><ele>818.75</ele><time>2026-04-04T12:18:32.444Z</time></trkpt><trkpt lat="43.643925" lon="2.7096083"><ele>816.5</ele><time>2026-04-04T12:18:33.444Z</time></trkpt><trkpt lat="43.6438083" lon="2.7096417"><ele>814.25</ele><time>2026-04-04T12:18:34.445Z</time></trkpt><trkpt lat="43.6436933" lon="2.7096217"><ele>812.0</ele><time>2026-04-04T12:18:35.444Z</time></trkpt><trkpt lat="43.6435833" lon="2.70957"><ele>812.0</ele><time>2026-04-04T12:18:36.445Z</time></trkpt><trkpt lat="43.6434667" lon="2.7094883"><ele>812.0</ele><time>2026-04-04T12:18:37.445Z</time></trkpt><trkpt lat="43.64334" lon="2.709395"><ele>812.0</ele><time>2026-04-04T12:18:38.446Z</time></trkpt><trkpt lat="43.6432" lon="2.7092983"><ele>812.0</ele><time>2026-04-04T12:18:39.444Z</time></trkpt><trkpt lat="43.643045" lon="2.7091983"><ele>813.0</ele><time>2026-04-04T12:18:40.446Z</time></trkpt><trkpt lat="43.6428817" lon="2.7090967"><ele>814.0</ele><time>2026-04-04T12:18:41.446Z</time></trkpt><trkpt lat="43.6427083" lon="2.708995"><ele>815.0</ele><time>2026-04-04T12:18:42.443Z</time></trkpt><trkpt lat="43.6425267" lon="2.7088867"><ele>815.0</ele><time>2026-04-04T12:18:43.446Z</time></trkpt><trkpt lat="43.642345" lon="2.7087783"><ele>815.0</ele><time>2026-04-04T12:18:44.443Z</time></trkpt><trkpt lat="43.6421617" lon="2.7086733"><ele>815.0</ele><time>2026-04-04T12:18:45.444Z</time></trkpt><trkpt lat="43.6419833" lon="2.708575"><ele>816.5</ele><time>2026-04-04T12:18:46.444Z</time></trkpt><trkpt lat="43.6418267" lon="2.7084817"><ele>818.0</ele><time>2026-04-04T12:18:47.444Z</time></trkpt><trkpt lat="43.6416983" lon="2.7083883"><ele>819.5</ele><time>2026-04-04T12:18:48.444Z</time></trkpt><trkpt lat="43.6415917" lon="2.7082983"><ele>821.0</ele><time>2026-04-04T12:18:49.445Z</time></trkpt><trkpt lat="43.6415083" lon="2.708185"><ele>821.0</ele><time>2026-04-04T12:18:50.444Z</time></trkpt><trkpt lat="43.641435" lon="2.7080383"><ele>821.0</ele><time>2026-04-04T12:18:51.444Z</time></trkpt><trkpt lat="43.6413383" lon="2.70789"><ele>821.0</ele><time>2026-04-04T12:18:52.445Z</time></trkpt><trkpt lat="43.64121" lon="2.7077667"><ele>821.0</ele><time>2026-04-04T12:18:53.446Z</time></trkpt><trkpt lat="43.6410733" lon="2.707675"><ele>822.0</ele><time>2026-04-04T12:18:54.445Z</time></trkpt><trkpt lat="43.640925" lon="2.7076267"><ele>823.0</ele><time>2026-04-04T12:18:55.446Z</time></trkpt><trkpt lat="43.640775" lon="2.707615"><ele>824.0</ele><time>2026-04-04T12:18:56.445Z</time></trkpt><trkpt lat="43.640635" lon="2.7076333"><ele>825.0</ele><time>2026-04-04T12:18:57.447Z</time></trkpt><trkpt lat="43.64051" lon="2.7076983"><ele>820.75</ele><time>2026-04-04T12:18:58.446Z</time></trkpt><trkpt lat="43.6404017" lon="2.7078033"><ele>816.5</ele><time>2026-04-04T12:18:59.443Z</time></trkpt><trkpt lat="43.6403333" lon="2.7079383"><ele>812.25</ele><time>2026-04-04T12:19:00.443Z</time></trkpt><trkpt lat="43.6403067" lon="2.7081233"><ele>808.0</ele><time>2026-04-04T12:19:01.446Z</time></trkpt><trkpt lat="43.640305" lon="2.7083383"><ele>808.0</ele><time>2026-04-04T12:19:02.446Z</time></trkpt><trkpt lat="43.640315" lon="2.7085717"><ele>808.0</ele><time>2026-04-04T12:19:03.446Z</time></trkpt><trkpt lat="43.64032" lon="2.7087967"><ele>808.0</ele><time>2026-04-04T12:19:04.447Z</time></trkpt><trkpt lat="43.6403233" lon="2.709005"><ele>808.5</ele><time>2026-04-04T12:19:05.443Z</time></trkpt><trkpt lat="43.6403217" lon="2.7091983"><ele>809.0</ele><time>2026-04-04T12:19:06.445Z</time></trkpt><trkpt lat="43.6402983" lon="2.7093833"><ele>809.5</ele><time>2026-04-04T12:19:07.444Z</time></trkpt><trkpt lat="43.6402433" lon="2.709565"><ele>810.0</ele><time>2026-04-04T12:19:08.442Z</time></trkpt><trkpt lat="43.64016" lon="2.7097333"><ele>810.0</ele><time>2026-04-04T12:19:09.445Z</time></trkpt><trkpt lat="43.6400517" lon="2.709895"><ele>810.0</ele><time>2026-04-04T12:19:10.444Z</time></trkpt><trkpt lat="43.639925" lon="2.7100533"><ele>810.0</ele><time>2026-04-04T12:19:11.444Z</time></trkpt><trkpt lat="43.6397833" lon="2.710205"><ele>808.0</ele><time>2026-04-04T12:19:12.446Z</time></trkpt><trkpt lat="43.63963" lon="2.7103317"><ele>806.0</ele><time>2026-04-04T12:19:13.445Z</time></trkpt><trkpt lat="43.6394783" lon="2.7104267"><ele>804.0</ele><time>2026-04-04T12:19:14.443Z</time></trkpt><trkpt lat="43.6393267" lon="2.7104883"><ele>804.0</ele><time>2026-04-04T12:19:15.445Z</time></trkpt><trkpt lat="43.6391683" lon="2.71052"><ele>804.0</ele><time>2026-04-04T12:19:16.445Z</time></trkpt><trkpt lat="43.6389967" lon="2.7105383"><ele>804.0</ele><time>2026-04-04T12:19:17.444Z</time></trkpt><trkpt lat="43.6388183" lon="2.7105517"><ele>804.0</ele><time>2026-04-04T12:19:18.444Z</time></trkpt><trkpt lat="43.638635" lon="2.7105617"><ele>804.0</ele><time>2026-04-04T12:19:19.445Z</time></trkpt><trkpt lat="43.6384467" lon="2.7105733"><ele>804.0</ele><time>2026-04-04T12:19:20.443Z</time></trkpt><trkpt lat="43.6382433" lon="2.7105933"><ele>804.3333333333333</ele><time>2026-04-04T12:19:21.445Z</time></trkpt><trkpt lat="43.6380467" lon="2.71063"><ele>804.6666666666666</ele><time>2026-04-04T12:19:22.445Z</time></trkpt><trkpt lat="43.6378633" lon="2.71067"><ele>805.0</ele><time>2026-04-04T12:19:23.445Z</time></trkpt><trkpt lat="43.6377033" lon="2.71072"><ele>805.0</ele><time>2026-04-04T12:19:24.447Z</time></trkpt><trkpt lat="43.63756" lon="2.7107367"><ele>805.0</ele><time>2026-04-04T12:19:25.444Z</time></trkpt><trkpt lat="43.63742" lon="2.7107317"><ele>805.0</ele><time>2026-04-04T12:19:26.445Z</time></trkpt><trkpt lat="43.6372633" lon="2.7106917"><ele>805.0</ele><time>2026-04-04T12:19:27.444Z</time></trkpt><trkpt lat="43.6370883" lon="2.710625"><ele>801.3333333333333</ele><time>2026-04-04T12:19:28.445Z</time></trkpt><trkpt lat="43.63691" lon="2.7105467"><ele>797.6666666666667</ele><time>2026-04-04T12:19:29.445Z</time></trkpt><trkpt lat="43.63673" lon="2.710455"><ele>794.0</ele><time>2026-04-04T12:19:30.445Z</time></trkpt><trkpt lat="43.6365467" lon="2.710325"><ele>796.6666666666667</ele><time>2026-04-04T12:19:31.445Z</time></trkpt><trkpt lat="43.6363633" lon="2.7102067"><ele>799.3333333333333</ele><time>2026-04-04T12:19:32.445Z</time></trkpt><trkpt lat="43.6361967" lon="2.710075"><ele>802.0</ele><time>2026-04-04T12:19:33.445Z</time></trkpt><trkpt lat="43.6360533" lon="2.7099317"><ele>802.0</ele><time>2026-04-04T12:19:34.444Z</time></trkpt><trkpt lat="43.63593" lon="2.709795"><ele>802.0</ele><time>2026-04-04T12:19:35.445Z</time></trkpt><trkpt lat="43.6358083" lon="2.7096517"><ele>802.0</ele><time>2026-04-04T12:19:36.444Z</time></trkpt><trkpt lat="43.6356917" lon="2.709555"><ele>802.0</ele><time>2026-04-04T12:19:37.446Z</time></trkpt><trkpt lat="43.6355883" lon="2.7094967"><ele>802.0</ele><time>2026-04-04T12:19:38.444Z</time></trkpt><trkpt lat="43.6354817" lon="2.7094717"><ele>802.0</ele><time>2026-04-04T12:19:39.445Z</time></trkpt><trkpt lat="43.635365" lon="2.70951"><ele>802.0</ele><time>2026-04-04T12:19:40.445Z</time></trkpt><trkpt lat="43.6352467" lon="2.7095833"><ele>799.5</ele><time>2026-04-04T12:19:41.444Z</time></trkpt><trkpt lat="43.6351233" lon="2.7096567"><ele>797.0</ele><time>2026-04-04T12:19:42.445Z</time></trkpt><trkpt lat="43.634985" lon="2.70972"><ele>794.5</ele><time>2026-04-04T12:19:43.447Z</time></trkpt><trkpt lat="43.6348317" lon="2.7097417"><ele>792.0</ele><time>2026-04-04T12:19:44.446Z</time></trkpt><trkpt lat="43.6346767" lon="2.7097217"><ele>792.0</ele><time>2026-04-04T12:19:45.444Z</time></trkpt><trkpt lat="43.6345" lon="2.70968"><ele>792.0</ele><time>2026-04-04T12:19:46.444Z</time></trkpt><trkpt lat="43.6343187" lon="2.7096081"><ele>792.0</ele><time>2026-04-04T12:19:47.445Z</time></trkpt><trkpt lat="43.6341399" lon="2.7094979"><ele>794.6666666666667</ele><time>2026-04-04T12:19:48.445Z</time></trkpt><trkpt lat="43.6339647" lon="2.7093735"><ele>797.3333333333334</ele><time>2026-04-04T12:19:49.445Z</time></trkpt><trkpt lat="43.6338026" lon="2.7092415"><ele>800.0</ele><time>2026-04-04T12:19:50.443Z</time></trkpt><trkpt lat="43.633653" lon="2.7091111"><ele>794.3333333333334</ele><time>2026-04-04T12:19:51.444Z</time></trkpt><trkpt lat="43.6335049" lon="2.7089957"><ele>788.6666666666667</ele><time>2026-04-04T12:19:52.444Z</time></trkpt><trkpt lat="43.6333511" lon="2.7089062"><ele>783.0</ele><time>2026-04-04T12:19:53.445Z</time></trkpt><trkpt lat="43.6331918" lon="2.7088568"><ele>783.0</ele><time>2026-04-04T12:19:54.445Z</time></trkpt><trkpt lat="43.6330178" lon="2.708847"><ele>783.0</ele><time>2026-04-04T12:19:55.446Z</time></trkpt><trkpt lat="43.6328434" lon="2.7088573"><ele>783.0</ele><time>2026-04-04T12:19:56.445Z</time></trkpt><trkpt lat="43.6326727" lon="2.708889"><ele>782.0</ele><time>2026-04-04T12:19:57.445Z</time></trkpt><trkpt lat="43.632516" lon="2.7089561"><ele>781.0</ele><time>2026-04-04T12:19:58.446Z</time></trkpt><trkpt lat="43.6323766" lon="2.7090469"><ele>780.0</ele><time>2026-04-04T12:19:59.444Z</time></trkpt><trkpt lat="43.6322532" lon="2.7091396"><ele>780.0</ele><time>2026-04-04T12:20:00.445Z</time></trkpt><trkpt lat="43.6321426" lon="2.7092165"><ele>780.0</ele><time>2026-04-04T12:20:01.446Z</time></trkpt><trkpt lat="43.6320439" lon="2.7092678"><ele>780.0</ele><time>2026-04-04T12:20:02.444Z</time></trkpt><trkpt lat="43.6319467" lon="2.7092722"><ele>780.0</ele><time>2026-04-04T12:20:03.445Z</time></trkpt><trkpt lat="43.6318604" lon="2.7092098"><ele>780.0</ele><time>2026-04-04T12:20:04.444Z</time></trkpt><trkpt lat="43.6317779" lon="2.7090775"><ele>782.3333333333333</ele><time>2026-04-04T12:20:05.444Z</time></trkpt><trkpt lat="43.6316892" lon="2.7089055"><ele>784.6666666666666</ele><time>2026-04-04T12:20:06.445Z</time></trkpt><trkpt lat="43.6315763" lon="2.7087023"><ele>787.0</ele><time>2026-04-04T12:20:07.445Z</time></trkpt><trkpt lat="43.6314445" lon="2.7085456"><ele>787.0</ele><time>2026-04-04T12:20:08.446Z</time></trkpt><trkpt lat="43.6312903" lon="2.708416"><ele>787.0</ele><time>2026-04-04T12:20:09.446Z</time></trkpt><trkpt lat="43.6311161" lon="2.7083245"><ele>787.0</ele><time>2026-04-04T12:20:10.445Z</time></trkpt><trkpt lat="43.6309349" lon="2.7082407"><ele>779.6666666666666</ele><time>2026-04-04T12:20:11.445Z</time></trkpt><trkpt lat="43.6307523" lon="2.7081806"><ele>772.3333333333333</ele><time>2026-04-04T12:20:12.445Z</time></trkpt><trkpt lat="43.6305706" lon="2.7081434"><ele>765.0</ele><time>2026-04-04T12:20:13.444Z</time></trkpt><trkpt lat="43.6303842" lon="2.7081264"><ele>762.3333333333334</ele><time>2026-04-04T12:20:14.445Z</time></trkpt><trkpt lat="43.6301906" lon="2.7081435"><ele>759.6666666666667</ele><time>2026-04-04T12:20:15.444Z</time></trkpt><trkpt lat="43.6299964" lon="2.7081977"><ele>757.0</ele><time>2026-04-04T12:20:16.444Z</time></trkpt><trkpt lat="43.6298033" lon="2.7082647"><ele>757.0</ele><time>2026-04-04T12:20:17.444Z</time></trkpt><trkpt lat="43.6296112" lon="2.7083193"><ele>757.0</ele><time>2026-04-04T12:20:18.444Z</time></trkpt><trkpt lat="43.6294222" lon="2.7083944"><ele>757.0</ele><time>2026-04-04T12:20:19.445Z</time></trkpt><trkpt lat="43.629225" lon="2.7084517"><ele>757.0</ele><time>2026-04-04T12:20:20.444Z</time></trkpt><trkpt lat="43.62902" lon="2.708485"><ele>757.0</ele><time>2026-04-04T12:20:21.446Z</time></trkpt><trkpt lat="43.6288133" lon="2.7085283"><ele>757.0</ele><time>2026-04-04T12:20:22.446Z</time></trkpt><trkpt lat="43.6286083" lon="2.7085683"><ele>754.0</ele><time>2026-04-04T12:20:23.445Z</time></trkpt><trkpt lat="43.628405" lon="2.7086133"><ele>751.0</ele><time>2026-04-04T12:20:24.445Z</time></trkpt><trkpt lat="43.6282017" lon="2.708665"><ele>748.0</ele><time>2026-04-04T12:20:25.446Z</time></trkpt><trkpt lat="43.6280067" lon="2.70871"><ele>748.0</ele><time>2026-04-04T12:20:26.444Z</time></trkpt><trkpt lat="43.6278183" lon="2.7087533"><ele>748.0</ele><time>2026-04-04T12:20:27.445Z</time></trkpt><trkpt lat="43.6276333" lon="2.7087833"><ele>748.0</ele><time>2026-04-04T12:20:28.444Z</time></trkpt><trkpt lat="43.6274467" lon="2.7088033"><ele>745.0</ele><time>2026-04-04T12:20:29.445Z</time></trkpt><trkpt lat="43.62725" lon="2.708815"><ele>742.0</ele><time>2026-04-04T12:20:30.444Z</time></trkpt><trkpt lat="43.627045" lon="2.7088167"><ele>739.0</ele><time>2026-04-04T12:20:31.445Z</time></trkpt><trkpt lat="43.6268433" lon="2.708805"><ele>736.6666666666667</ele><time>2026-04-04T12:20:32.444Z</time></trkpt><trkpt lat="43.6266483" lon="2.708795"><ele>734.3333333333334</ele><time>2026-04-04T12:20:33.445Z</time></trkpt><trkpt lat="43.6264517" lon="2.7087867"><ele>732.0</ele><time>2026-04-04T12:20:34.445Z</time></trkpt><trkpt lat="43.62627" lon="2.7088083"><ele>731.3333333333334</ele><time>2026-04-04T12:20:35.444Z</time></trkpt><trkpt lat="43.6260733" lon="2.7088133"><ele>730.6666666666667</ele><time>2026-04-04T12:20:36.445Z</time></trkpt><trkpt lat="43.62588" lon="2.708845"><ele>730.0</ele><time>2026-04-04T12:20:37.444Z</time></trkpt><trkpt lat="43.62569" lon="2.7088783"><ele>730.0</ele><time>2026-04-04T12:20:38.446Z</time></trkpt><trkpt lat="43.6255083" lon="2.708915"><ele>730.0</ele><time>2026-04-04T12:20:39.445Z</time></trkpt><trkpt lat="43.62533" lon="2.7089533"><ele>730.0</ele><time>2026-04-04T12:20:40.444Z</time></trkpt><trkpt lat="43.6251583" lon="2.7089517"><ele>728.0</ele><time>2026-04-04T12:20:41.444Z</time></trkpt><trkpt lat="43.6249883" lon="2.7089517"><ele>726.0</ele><time>2026-04-04T12:20:42.444Z</time></trkpt><trkpt lat="43.6248267" lon="2.708915"><ele>724.0</ele><time>2026-04-04T12:20:43.444Z</time></trkpt><trkpt lat="43.6246533" lon="2.7088467"><ele>721.3333333333334</ele><time>2026-04-04T12:20:44.443Z</time></trkpt><trkpt lat="43.624465" lon="2.7087433"><ele>718.6666666666666</ele><time>2026-04-04T12:20:45.446Z</time></trkpt><trkpt lat="43.6242667" lon="2.7086733"><ele>716.0</ele><time>2026-04-04T12:20:46.447Z</time></trkpt><trkpt lat="43.624075" lon="2.7086067"><ele>718.3333333333333</ele><time>2026-04-04T12:20:47.446Z</time></trkpt><trkpt lat="43.6238933" lon="2.708555"><ele>720.6666666666666</ele><time>2026-04-04T12:20:48.442Z</time></trkpt><trkpt lat="43.6237167" lon="2.7085317"><ele>723.0</ele><time>2026-04-04T12:20:49.445Z</time></trkpt><trkpt lat="43.62355" lon="2.7085333"><ele>719.3333333333334</ele><time>2026-04-04T12:20:50.443Z</time></trkpt><trkpt lat="43.6233817" lon="2.7085867"><ele>715.6666666666667</ele><time>2026-04-04T12:20:51.443Z</time></trkpt><trkpt lat="43.6232267" lon="2.708645"><ele>712.0</ele><time>2026-04-04T12:20:52.443Z</time></trkpt><trkpt lat="43.6230833" lon="2.7087067"><ele>712.0</ele><time>2026-04-04T12:20:53.442Z</time></trkpt><trkpt lat="43.6229533" lon="2.708765"><ele>712.0</ele><time>2026-04-04T12:20:54.446Z</time></trkpt><trkpt lat="43.6228267" lon="2.7088267"><ele>712.0</ele><time>2026-04-04T12:20:55.443Z</time></trkpt><trkpt lat="43.6227033" lon="2.70891"><ele>712.0</ele><time>2026-04-04T12:20:56.444Z</time></trkpt><trkpt lat="43.6225817" lon="2.7089867"><ele>710.75</ele><time>2026-04-04T12:20:57.443Z</time></trkpt><trkpt lat="43.62247" lon="2.70906"><ele>709.5</ele><time>2026-04-04T12:20:58.444Z</time></trkpt><trkpt lat="43.6223533" lon="2.7091317"><ele>708.25</ele><time>2026-04-04T12:20:59.444Z</time></trkpt><trkpt lat="43.6222433" lon="2.7091983"><ele>707.0</ele><time>2026-04-04T12:21:00.443Z</time></trkpt><trkpt lat="43.62215" lon="2.709255"><ele>707.0</ele><time>2026-04-04T12:21:01.446Z</time></trkpt><trkpt lat="43.6220733" lon="2.7092967"><ele>707.0</ele><time>2026-04-04T12:21:02.442Z</time></trkpt><trkpt lat="43.622005" lon="2.7093283"><ele>707.0</ele><time>2026-04-04T12:21:03.445Z</time></trkpt><trkpt lat="43.6219367" lon="2.7093433"><ele>707.0</ele><time>2026-04-04T12:21:04.445Z</time></trkpt><trkpt lat="43.62187" lon="2.7093533"><ele>707.0</ele><time>2026-04-04T12:21:05.445Z</time></trkpt><trkpt lat="43.6218033" lon="2.7093533"><ele>707.0</ele><time>2026-04-04T12:21:06.445Z</time></trkpt><trkpt lat="43.6217233" lon="2.7093317"><ele>707.0</ele><time>2026-04-04T12:21:07.446Z</time></trkpt><trkpt lat="43.6216283" lon="2.7092867"><ele>705.4000000000001</ele><time>2026-04-04T12:21:08.444Z</time></trkpt><trkpt lat="43.62153" lon="2.7092483"><ele>703.8000000000001</ele><time>2026-04-04T12:21:09.444Z</time></trkpt><trkpt lat="43.6214367" lon="2.7092367"><ele>702.2</ele><time>2026-04-04T12:21:10.447Z</time></trkpt><trkpt lat="43.6213467" lon="2.7092567"><ele>700.6</ele><time>2026-04-04T12:21:11.442Z</time></trkpt><trkpt lat="43.6212583" lon="2.7092883"><ele>699.0</ele><time>2026-04-04T12:21:12.446Z</time></trkpt><trkpt lat="43.6211783" lon="2.7093367"><ele>698.0</ele><time>2026-04-04T12:21:13.444Z</time></trkpt><trkpt lat="43.6210967" lon="2.7094283"><ele>697.0</ele><time>2026-04-04T12:21:14.444Z</time></trkpt><trkpt lat="43.6210067" lon="2.7095083"><ele>696.0</ele><time>2026-04-04T12:21:15.447Z</time></trkpt><trkpt lat="43.6209217" lon="2.7095817"><ele>695.0</ele><time>2026-04-04T12:21:16.444Z</time></trkpt><trkpt lat="43.620845" lon="2.70966"><ele>694.0</ele><time>2026-04-04T12:21:17.447Z</time></trkpt><trkpt lat="43.6207583" lon="2.7097417"><ele>694.0</ele><time>2026-04-04T12:21:18.446Z</time></trkpt><trkpt lat="43.6206683" lon="2.7098117"><ele>694.0</ele><time>2026-04-04T12:21:19.447Z</time></trkpt><trkpt lat="43.620575" lon="2.70988"><ele>694.0</ele><time>2026-04-04T12:21:20.445Z</time></trkpt><trkpt lat="43.62047" lon="2.70994"><ele>694.0</ele><time>2026-04-04T12:21:21.444Z</time></trkpt><trkpt lat="43.62036" lon="2.7099883"><ele>694.0</ele><time>2026-04-04T12:21:22.447Z</time></trkpt><trkpt lat="43.6202467" lon="2.7100333"><ele>693.25</ele><time>2026-04-04T12:21:23.443Z</time></trkpt><trkpt lat="43.62013" lon="2.7100767"><ele>692.5</ele><time>2026-04-04T12:21:24.446Z</time></trkpt><trkpt lat="43.6200133" lon="2.7101033"><ele>691.75</ele><time>2026-04-04T12:21:25.446Z</time></trkpt><trkpt lat="43.6198933" lon="2.710115"><ele>691.0</ele><time>2026-04-04T12:21:26.446Z</time></trkpt><trkpt lat="43.6197667" lon="2.710115"><ele>691.0</ele><time>2026-04-04T12:21:27.446Z</time></trkpt><trkpt lat="43.6196383" lon="2.7101083"><ele>691.0</ele><time>2026-04-04T12:21:28.443Z</time></trkpt><trkpt lat="43.6195067" lon="2.7100833"><ele>691.0</ele><time>2026-04-04T12:21:29.446Z</time></trkpt><trkpt lat="43.6193683" lon="2.71004"><ele>691.0</ele><time>2026-04-04T12:21:30.443Z</time></trkpt><trkpt lat="43.61923" lon="2.7099833"><ele>690.0</ele><time>2026-04-04T12:21:31.443Z</time></trkpt><trkpt lat="43.6190983" lon="2.709905"><ele>689.0</ele><time>2026-04-04T12:21:32.443Z</time></trkpt><trkpt lat="43.6189733" lon="2.7098017"><ele>688.0</ele><time>2026-04-04T12:21:33.447Z</time></trkpt><trkpt lat="43.6188533" lon="2.709685"><ele>687.0</ele><time>2026-04-04T12:21:34.446Z</time></trkpt><trkpt lat="43.6187333" lon="2.709565"><ele>686.5</ele><time>2026-04-04T12:21:35.446Z</time></trkpt><trkpt lat="43.6186167" lon="2.7094467"><ele>686.0</ele><time>2026-04-04T12:21:36.446Z</time></trkpt><trkpt lat="43.6185033" lon="2.70933"><ele>685.5</ele><time>2026-04-04T12:21:37.444Z</time></trkpt><trkpt lat="43.6183883" lon="2.709215"><ele>685.0</ele><time>2026-04-04T12:21:38.443Z</time></trkpt><trkpt lat="43.618275" lon="2.7091183"><ele>684.25</ele><time>2026-04-04T12:21:39.447Z</time></trkpt><trkpt lat="43.6181683" lon="2.7090483"><ele>683.5</ele><time>2026-04-04T12:21:40.446Z</time></trkpt><trkpt lat="43.618055" lon="2.709005"><ele>682.75</ele><time>2026-04-04T12:21:41.442Z</time></trkpt><trkpt lat="43.6179317" lon="2.708995"><ele>682.0</ele><time>2026-04-04T12:21:42.447Z</time></trkpt><trkpt lat="43.6178033" lon="2.7090117"><ele>681.0</ele><time>2026-04-04T12:21:43.445Z</time></trkpt><trkpt lat="43.6176583" lon="2.7090483"><ele>680.0</ele><time>2026-04-04T12:21:44.447Z</time></trkpt><trkpt lat="43.6175083" lon="2.70909"><ele>679.0</ele><time>2026-04-04T12:21:45.447Z</time></trkpt><trkpt lat="43.61736" lon="2.7091283"><ele>679.0</ele><time>2026-04-04T12:21:46.443Z</time></trkpt><trkpt lat="43.617215" lon="2.709165"><ele>679.0</ele><time>2026-04-04T12:21:47.444Z</time></trkpt><trkpt lat="43.617085" lon="2.7091983"><ele>679.0</ele><time>2026-04-04T12:21:48.443Z</time></trkpt><trkpt lat="43.6169733" lon="2.7092283"><ele>679.0</ele><time>2026-04-04T12:21:49.443Z</time></trkpt><trkpt lat="43.6168767" lon="2.7092583"><ele>679.2</ele><time>2026-04-04T12:21:50.443Z</time></trkpt><trkpt lat="43.616795" lon="2.709285"><ele>679.4000000000001</ele><time>2026-04-04T12:21:51.443Z</time></trkpt><trkpt lat="43.6167217" lon="2.7092983"><ele>679.6</ele><time>2026-04-04T12:21:52.443Z</time></trkpt><trkpt lat="43.6165917" lon="2.7092467"><ele>679.8</ele><time>2026-04-04T12:21:54.444Z</time></trkpt><trkpt lat="43.6165283" lon="2.7091433"><ele>680.0</ele><time>2026-04-04T12:21:55.446Z</time></trkpt><trkpt lat="43.6164517" lon="2.70899"><ele>680.0</ele><time>2026-04-04T12:21:56.443Z</time></trkpt><trkpt lat="43.6163717" lon="2.7088133"><ele>680.0</ele><time>2026-04-04T12:21:57.446Z</time></trkpt><trkpt lat="43.6162817" lon="2.7086317"><ele>680.0</ele><time>2026-04-04T12:21:58.446Z</time></trkpt><trkpt lat="43.6161817" lon="2.7084383"><ele>678.6666666666666</ele><time>2026-04-04T12:21:59.446Z</time></trkpt><trkpt lat="43.6160767" lon="2.70824"><ele>677.3333333333334</ele><time>2026-04-04T12:22:00.446Z</time></trkpt><trkpt lat="43.61597" lon="2.7080417"><ele>676.0</ele><time>2026-04-04T12:22:01.446Z</time></trkpt><trkpt lat="43.61586" lon="2.70784"><ele>676.3333333333334</ele><time>2026-04-04T12:22:02.446Z</time></trkpt><trkpt lat="43.615745" lon="2.7076333"><ele>676.6666666666666</ele><time>2026-04-04T12:22:03.447Z</time></trkpt><trkpt lat="43.6156317" lon="2.707425"><ele>677.0</ele><time>2026-04-04T12:22:04.445Z</time></trkpt><trkpt lat="43.6155183" lon="2.70721"><ele>677.0</ele><time>2026-04-04T12:22:05.445Z</time></trkpt><trkpt lat="43.6154033" lon="2.7069933"><ele>677.0</ele><time>2026-04-04T12:22:06.446Z</time></trkpt><trkpt lat="43.615285" lon="2.7067767"><ele>677.0</ele><time>2026-04-04T12:22:07.447Z</time></trkpt><trkpt lat="43.6151683" lon="2.7065633"><ele>676.6666666666666</ele><time>2026-04-04T12:22:08.446Z</time></trkpt><trkpt lat="43.6150533" lon="2.7063483"><ele>676.3333333333334</ele><time>2026-04-04T12:22:09.446Z</time></trkpt><trkpt lat="43.6149383" lon="2.706135"><ele>676.0</ele><time>2026-04-04T12:22:10.447Z</time></trkpt><trkpt lat="43.6148217" lon="2.7059233"><ele>676.0</ele><time>2026-04-04T12:22:11.446Z</time></trkpt><trkpt lat="43.6147067" lon="2.7057117"><ele>676.0</ele><time>2026-04-04T12:22:12.447Z</time></trkpt><trkpt lat="43.6145883" lon="2.7055017"><ele>676.0</ele><time>2026-04-04T12:22:13.446Z</time></trkpt><trkpt lat="43.6144683" lon="2.7052917"><ele>675.3333333333334</ele><time>2026-04-04T12:22:14.446Z</time></trkpt><trkpt lat="43.6143383" lon="2.705095"><ele>674.6666666666666</ele><time>2026-04-04T12:22:15.446Z</time></trkpt><trkpt lat="43.6141967" lon="2.7049217"><ele>674.0</ele><time>2026-04-04T12:22:16.443Z</time></trkpt><trkpt lat="43.6140417" lon="2.70477"><ele>674.0</ele><time>2026-04-04T12:22:17.444Z</time></trkpt><trkpt lat="43.613875" lon="2.7046317"><ele>674.0</ele><time>2026-04-04T12:22:18.444Z</time></trkpt><trkpt lat="43.6137067" lon="2.7044933"><ele>674.0</ele><time>2026-04-04T12:22:19.445Z</time></trkpt><trkpt lat="43.61354" lon="2.7043533"><ele>673.3333333333333</ele><time>2026-04-04T12:22:20.445Z</time></trkpt><trkpt lat="43.6133733" lon="2.7042133"><ele>672.6666666666666</ele><time>2026-04-04T12:22:21.444Z</time></trkpt><trkpt lat="43.6132067" lon="2.7040717"><ele>672.0</ele><time>2026-04-04T12:22:22.445Z</time></trkpt><trkpt lat="43.61304" lon="2.7039267"><ele>672.0</ele><time>2026-04-04T12:22:23.446Z</time></trkpt><trkpt lat="43.6128717" lon="2.7037833"><ele>672.0</ele><time>2026-04-04T12:22:24.443Z</time></trkpt><trkpt lat="43.6127067" lon="2.7036417"><ele>672.0</ele><time>2026-04-04T12:22:25.446Z</time></trkpt><trkpt lat="43.6125433" lon="2.7035017"><ele>672.6666666666666</ele><time>2026-04-04T12:22:26.446Z</time></trkpt><trkpt lat="43.6123833" lon="2.7033667"><ele>673.3333333333333</ele><time>2026-04-04T12:22:27.443Z</time></trkpt><trkpt lat="43.6122283" lon="2.70323"><ele>674.0</ele><time>2026-04-04T12:22:28.446Z</time></trkpt><trkpt lat="43.61208" lon="2.7030967"><ele>673.6666666666666</ele><time>2026-04-04T12:22:29.447Z</time></trkpt><trkpt lat="43.61194" lon="2.7029617"><ele>673.3333333333334</ele><time>2026-04-04T12:22:30.443Z</time></trkpt><trkpt lat="43.6118067" lon="2.702835"><ele>673.0</ele><time>2026-04-04T12:22:31.445Z</time></trkpt><trkpt lat="43.6116817" lon="2.7027117"><ele>672.75</ele><time>2026-04-04T12:22:32.443Z</time></trkpt><trkpt lat="43.611565" lon="2.7025933"><ele>672.5</ele><time>2026-04-04T12:22:33.443Z</time></trkpt><trkpt lat="43.6114617" lon="2.7024867"><ele>672.25</ele><time>2026-04-04T12:22:34.444Z</time></trkpt><trkpt lat="43.61138" lon="2.70239"><ele>672.0</ele><time>2026-04-04T12:22:35.443Z</time></trkpt><trkpt lat="43.61132" lon="2.70231"><ele>672.0</ele><time>2026-04-04T12:22:36.446Z</time></trkpt><trkpt lat="43.6112683" lon="2.7022517"><ele>672.0</ele><time>2026-04-04T12:22:37.446Z</time></trkpt><trkpt lat="43.6112117" lon="2.7022117"><ele>672.0</ele><time>2026-04-04T12:22:38.444Z</time></trkpt><trkpt lat="43.6111467" lon="2.7022"><ele>672.0</ele><time>2026-04-04T12:22:39.445Z</time></trkpt><trkpt lat="43.6110717" lon="2.702215"><ele>672.0</ele><time>2026-04-04T12:22:40.444Z</time></trkpt><trkpt lat="43.610975" lon="2.702255"><ele>672.0</ele><time>2026-04-04T12:22:41.445Z</time></trkpt><trkpt lat="43.6108617" lon="2.702275"><ele>672.75</ele><time>2026-04-04T12:22:42.446Z</time></trkpt><trkpt lat="43.6107433" lon="2.7022717"><ele>673.5</ele><time>2026-04-04T12:22:43.446Z</time></trkpt><trkpt lat="43.6106167" lon="2.702265"><ele>674.25</ele><time>2026-04-04T12:22:44.447Z</time></trkpt><trkpt lat="43.6104733" lon="2.702255"><ele>675.0</ele><time>2026-04-04T12:22:45.448Z</time></trkpt><trkpt lat="43.6103283" lon="2.702245"><ele>677.3333333333334</ele><time>2026-04-04T12:22:46.446Z</time></trkpt><trkpt lat="43.610185" lon="2.7022333"><ele>679.6666666666667</ele><time>2026-04-04T12:22:47.445Z</time></trkpt><trkpt lat="43.610035" lon="2.70222"><ele>682.0</ele><time>2026-04-04T12:22:48.445Z</time></trkpt><trkpt lat="43.6098783" lon="2.7022017"><ele>682.0</ele><time>2026-04-04T12:22:49.444Z</time></trkpt><trkpt lat="43.60972" lon="2.7021783"><ele>682.0</ele><time>2026-04-04T12:22:50.445Z</time></trkpt><trkpt lat="43.609555" lon="2.7021617"><ele>682.0</ele><time>2026-04-04T12:22:51.445Z</time></trkpt><trkpt lat="43.60939" lon="2.7021467"><ele>686.0</ele><time>2026-04-04T12:22:52.445Z</time></trkpt><trkpt lat="43.6092217" lon="2.7021333"><ele>690.0</ele><time>2026-04-04T12:22:53.444Z</time></trkpt><trkpt lat="43.60906" lon="2.7021167"><ele>694.0</ele><time>2026-04-04T12:22:54.444Z</time></trkpt><trkpt lat="43.6088883" lon="2.7021067"><ele>694.0</ele><time>2026-04-04T12:22:55.446Z</time></trkpt><trkpt lat="43.608715" lon="2.7021117"><ele>694.0</ele><time>2026-04-04T12:22:56.444Z</time></trkpt><trkpt lat="43.6085417" lon="2.70213"><ele>694.0</ele><time>2026-04-04T12:22:57.445Z</time></trkpt><trkpt lat="43.60836" lon="2.702155"><ele>693.0</ele><time>2026-04-04T12:22:58.445Z</time></trkpt><trkpt lat="43.6081817" lon="2.7021583"><ele>692.0</ele><time>2026-04-04T12:22:59.447Z</time></trkpt><trkpt lat="43.608005" lon="2.7021383"><ele>691.0</ele><time>2026-04-04T12:23:00.446Z</time></trkpt><trkpt lat="43.6078383" lon="2.7021067"><ele>693.6666666666667</ele><time>2026-04-04T12:23:01.446Z</time></trkpt><trkpt lat="43.6076833" lon="2.70208"><ele>696.3333333333334</ele><time>2026-04-04T12:23:02.446Z</time></trkpt><trkpt lat="43.6075333" lon="2.7020617"><ele>699.0</ele><time>2026-04-04T12:23:03.444Z</time></trkpt><trkpt lat="43.607385" lon="2.7020567"><ele>699.0</ele><time>2026-04-04T12:23:04.444Z</time></trkpt><trkpt lat="43.60723" lon="2.7020733"><ele>699.0</ele><time>2026-04-04T12:23:05.443Z</time></trkpt><trkpt lat="43.6070783" lon="2.7021117"><ele>699.0</ele><time>2026-04-04T12:23:06.444Z</time></trkpt><trkpt lat="43.606925" lon="2.702185"><ele>697.0</ele><time>2026-04-04T12:23:07.447Z</time></trkpt><trkpt lat="43.6067767" lon="2.7022917"><ele>695.0</ele><time>2026-04-04T12:23:08.442Z</time></trkpt><trkpt lat="43.60663" lon="2.702415"><ele>693.0</ele><time>2026-04-04T12:23:09.443Z</time></trkpt><trkpt lat="43.6064867" lon="2.70255"><ele>693.0</ele><time>2026-04-04T12:23:10.443Z</time></trkpt><trkpt lat="43.6063467" lon="2.7026867"><ele>693.0</ele><time>2026-04-04T12:23:11.443Z</time></trkpt><trkpt lat="43.606205" lon="2.702805"><ele>693.0</ele><time>2026-04-04T12:23:12.443Z</time></trkpt><trkpt lat="43.6060583" lon="2.702905"><ele>693.0</ele><time>2026-04-04T12:23:13.444Z</time></trkpt><trkpt lat="43.6059083" lon="2.702975"><ele>693.0</ele><time>2026-04-04T12:23:14.442Z</time></trkpt><trkpt lat="43.6057667" lon="2.70303"><ele>693.0</ele><time>2026-04-04T12:23:15.445Z</time></trkpt><trkpt lat="43.60563" lon="2.70309"><ele>693.0</ele><time>2026-04-04T12:23:16.443Z</time></trkpt><trkpt lat="43.605505" lon="2.7031667"><ele>693.0</ele><time>2026-04-04T12:23:17.443Z</time></trkpt><trkpt lat="43.6053967" lon="2.7032867"><ele>693.0</ele><time>2026-04-04T12:23:18.445Z</time></trkpt><trkpt lat="43.605295" lon="2.70342"><ele>693.0</ele><time>2026-04-04T12:23:19.446Z</time></trkpt><trkpt lat="43.60521" lon="2.7035683"><ele>693.0</ele><time>2026-04-04T12:23:20.443Z</time></trkpt><trkpt lat="43.60515" lon="2.7037367"><ele>691.5</ele><time>2026-04-04T12:23:21.443Z</time></trkpt><trkpt lat="43.6051117" lon="2.703915"><ele>690.0</ele><time>2026-04-04T12:23:22.445Z</time></trkpt><trkpt lat="43.6050767" lon="2.7040983"><ele>688.5</ele><time>2026-04-04T12:23:23.443Z</time></trkpt><trkpt lat="43.605025" lon="2.7042567"><ele>687.0</ele><time>2026-04-04T12:23:24.444Z</time></trkpt><trkpt lat="43.6049567" lon="2.70438"><ele>689.0</ele><time>2026-04-04T12:23:25.444Z</time></trkpt><trkpt lat="43.60488" lon="2.7044817"><ele>691.0</ele><time>2026-04-04T12:23:26.443Z</time></trkpt><trkpt lat="43.6047867" lon="2.7045467"><ele>693.0</ele><time>2026-04-04T12:23:27.443Z</time></trkpt><trkpt lat="43.6046783" lon="2.7045817"><ele>695.0</ele><time>2026-04-04T12:23:28.444Z</time></trkpt><trkpt lat="43.6045567" lon="2.704595"><ele>697.0</ele><time>2026-04-04T12:23:29.443Z</time></trkpt><trkpt lat="43.604435" lon="2.7046067"><ele>697.0</ele><time>2026-04-04T12:23:30.444Z</time></trkpt><trkpt lat="43.604315" lon="2.70461"><ele>697.0</ele><time>2026-04-04T12:23:31.444Z</time></trkpt><trkpt lat="43.6042083" lon="2.704615"><ele>697.0</ele><time>2026-04-04T12:23:32.444Z</time></trkpt><trkpt lat="43.6041033" lon="2.704605"><ele>697.0</ele><time>2026-04-04T12:23:33.444Z</time></trkpt><trkpt lat="43.6039967" lon="2.7045767"><ele>697.0</ele><time>2026-04-04T12:23:34.447Z</time></trkpt><trkpt lat="43.6038783" lon="2.7045333"><ele>697.0</ele><time>2026-04-04T12:23:35.445Z</time></trkpt><trkpt lat="43.6037667" lon="2.7044833"><ele>697.0</ele><time>2026-04-04T12:23:36.444Z</time></trkpt><trkpt lat="43.6036583" lon="2.7044233"><ele>697.0</ele><time>2026-04-04T12:23:37.445Z</time></trkpt><trkpt lat="43.603555" lon="2.7043533"><ele>697.0</ele><time>2026-04-04T12:23:38.445Z</time></trkpt><trkpt lat="43.6034483" lon="2.7042767"><ele>693.0</ele><time>2026-04-04T12:23:39.444Z</time></trkpt><trkpt lat="43.6033433" lon="2.7042033"><ele>689.0</ele><time>2026-04-04T12:23:40.445Z</time></trkpt><trkpt lat="43.6032433" lon="2.70413"><ele>685.0</ele><time>2026-04-04T12:23:41.445Z</time></trkpt><trkpt lat="43.6031467" lon="2.70405"><ele>681.0</ele><time>2026-04-04T12:23:42.446Z</time></trkpt><trkpt lat="43.60305" lon="2.703975"><ele>681.0</ele><time>2026-04-04T12:23:43.445Z</time></trkpt><trkpt lat="43.60297" lon="2.70393"><ele>681.0</ele><time>2026-04-04T12:23:44.445Z</time></trkpt><trkpt lat="43.60288" lon="2.703865"><ele>681.0</ele><time>2026-04-04T12:23:45.445Z</time></trkpt><trkpt lat="43.6027867" lon="2.7037883"><ele>681.0</ele><time>2026-04-04T12:23:46.444Z</time></trkpt><trkpt lat="43.6026983" lon="2.70371"><ele>681.0</ele><time>2026-04-04T12:23:47.444Z</time></trkpt><trkpt lat="43.60262" lon="2.70364"><ele>681.5999999999999</ele><time>2026-04-04T12:23:48.448Z</time></trkpt><trkpt lat="43.6025567" lon="2.7035533"><ele>682.2</ele><time>2026-04-04T12:23:49.445Z</time></trkpt><trkpt lat="43.6025" lon="2.7034467"><ele>682.8</ele><time>2026-04-04T12:23:50.444Z</time></trkpt><trkpt lat="43.60244" lon="2.70333"><ele>683.4000000000001</ele><time>2026-04-04T12:23:51.444Z</time></trkpt><trkpt lat="43.60237" lon="2.70322"><ele>684.0</ele><time>2026-04-04T12:23:52.446Z</time></trkpt><trkpt lat="43.6022983" lon="2.7031183"><ele>684.0</ele><time>2026-04-04T12:23:53.446Z</time></trkpt><trkpt lat="43.6022217" lon="2.7030183"><ele>684.0</ele><time>2026-04-04T12:23:54.444Z</time></trkpt><trkpt lat="43.6021467" lon="2.7029183"><ele>684.0</ele><time>2026-04-04T12:23:55.444Z</time></trkpt><trkpt lat="43.602075" lon="2.70282"><ele>684.0</ele><time>2026-04-04T12:23:56.443Z</time></trkpt><trkpt lat="43.6020083" lon="2.7027267"><ele>684.0</ele><time>2026-04-04T12:23:57.444Z</time></trkpt><trkpt lat="43.6019567" lon="2.7026233"><ele>684.6666666666666</ele><time>2026-04-04T12:23:58.447Z</time></trkpt><trkpt lat="43.6019117" lon="2.702525"><ele>685.3333333333334</ele><time>2026-04-04T12:23:59.443Z</time></trkpt><trkpt lat="43.6018633" lon="2.7024367"><ele>686.0</ele><time>2026-04-04T12:24:00.446Z</time></trkpt><trkpt lat="43.6017983" lon="2.702365"><ele>686.6666666666667</ele><time>2026-04-04T12:24:01.445Z</time></trkpt><trkpt lat="43.6017233" lon="2.7023033"><ele>687.3333333333334</ele><time>2026-04-04T12:24:02.444Z</time></trkpt><trkpt lat="43.6016483" lon="2.70223"><ele>688.0</ele><time>2026-04-04T12:24:03.445Z</time></trkpt><trkpt lat="43.601565" lon="2.702165"><ele>688.0</ele><time>2026-04-04T12:24:04.446Z</time></trkpt><trkpt lat="43.60148" lon="2.702095"><ele>688.0</ele><time>2026-04-04T12:24:05.444Z</time></trkpt><trkpt lat="43.601395" lon="2.7020233"><ele>688.0</ele><time>2026-04-04T12:24:06.447Z</time></trkpt><trkpt lat="43.6013067" lon="2.7019533"><ele>688.0</ele><time>2026-04-04T12:24:07.446Z</time></trkpt><trkpt lat="43.60121" lon="2.7018833"><ele>688.0</ele><time>2026-04-04T12:24:08.447Z</time></trkpt><trkpt lat="43.60111" lon="2.7018167"><ele>690.0</ele><time>2026-04-04T12:24:09.446Z</time></trkpt><trkpt lat="43.6010067" lon="2.701755"><ele>692.0</ele><time>2026-04-04T12:24:10.446Z</time></trkpt><trkpt lat="43.6009017" lon="2.7016883"><ele>694.0</ele><time>2026-04-04T12:24:11.446Z</time></trkpt><trkpt lat="43.6007967" lon="2.7016117"><ele>696.0</ele><time>2026-04-04T12:24:12.446Z</time></trkpt><trkpt lat="43.6006983" lon="2.701525"><ele>696.0</ele><time>2026-04-04T12:24:13.447Z</time></trkpt><trkpt lat="43.6006017" lon="2.7014317"><ele>696.0</ele><time>2026-04-04T12:24:14.445Z</time></trkpt><trkpt lat="43.6005017" lon="2.701335"><ele>696.0</ele><time>2026-04-04T12:24:15.446Z</time></trkpt><trkpt lat="43.6004033" lon="2.70124"><ele>696.0</ele><time>2026-04-04T12:24:16.446Z</time></trkpt><trkpt lat="43.6003017" lon="2.70115"><ele>694.1999999999999</ele><time>2026-04-04T12:24:17.444Z</time></trkpt><trkpt lat="43.6002033" lon="2.70107"><ele>692.4</ele><time>2026-04-04T12:24:18.447Z</time></trkpt><trkpt lat="43.6001117" lon="2.7010183"><ele>690.6</ele><time>2026-04-04T12:24:19.446Z</time></trkpt><trkpt lat="43.600015" lon="2.701"><ele>688.8</ele><time>2026-04-04T12:24:20.447Z</time></trkpt><trkpt lat="43.5999183" lon="2.7010283"><ele>687.0</ele><time>2026-04-04T12:24:21.446Z</time></trkpt><trkpt lat="43.599825" lon="2.7010883"><ele>687.6</ele><time>2026-04-04T12:24:22.447Z</time></trkpt><trkpt lat="43.599725" lon="2.7011567"><ele>688.2</ele><time>2026-04-04T12:24:23.446Z</time></trkpt><trkpt lat="43.5996217" lon="2.7012283"><ele>688.8</ele><time>2026-04-04T12:24:24.447Z</time></trkpt><trkpt lat="43.5995333" lon="2.7013117"><ele>689.4</ele><time>2026-04-04T12:24:25.446Z</time></trkpt><trkpt lat="43.5994617" lon="2.7014083"><ele>690.0</ele><time>2026-04-04T12:24:26.447Z</time></trkpt><trkpt lat="43.5993933" lon="2.7014967"><ele>690.0</ele><time>2026-04-04T12:24:27.446Z</time></trkpt><trkpt lat="43.5993333" lon="2.701565"><ele>690.0</ele><time>2026-04-04T12:24:28.446Z</time></trkpt><trkpt lat="43.5992717" lon="2.70161"><ele>690.0</ele><time>2026-04-04T12:24:29.447Z</time></trkpt><trkpt lat="43.5991967" lon="2.7016183"><ele>690.0</ele><time>2026-04-04T12:24:30.443Z</time></trkpt><trkpt lat="43.5991267" lon="2.7015933"><ele>690.0</ele><time>2026-04-04T12:24:31.443Z</time></trkpt><trkpt lat="43.599045" lon="2.7015267"><ele>690.0</ele><time>2026-04-04T12:24:32.447Z</time></trkpt><trkpt lat="43.5989433" lon="2.701425"><ele>690.0</ele><time>2026-04-04T12:24:33.446Z</time></trkpt><trkpt lat="43.598845" lon="2.7013433"><ele>690.0</ele><time>2026-04-04T12:24:34.447Z</time></trkpt><trkpt lat="43.59875" lon="2.7012617"><ele>690.0</ele><time>2026-04-04T12:24:35.446Z</time></trkpt><trkpt lat="43.5986617" lon="2.701185"><ele>690.0</ele><time>2026-04-04T12:24:36.446Z</time></trkpt><trkpt lat="43.5985783" lon="2.7011317"><ele>690.0</ele><time>2026-04-04T12:24:37.444Z</time></trkpt><trkpt lat="43.59849" lon="2.7011117"><ele>692.4</ele><time>2026-04-04T12:24:38.443Z</time></trkpt><trkpt lat="43.5983983" lon="2.7011317"><ele>694.8</ele><time>2026-04-04T12:24:39.447Z</time></trkpt><trkpt lat="43.5983267" lon="2.7012083"><ele>697.2</ele><time>2026-04-04T12:24:40.446Z</time></trkpt><trkpt lat="43.598275" lon="2.7013467"><ele>699.6</ele><time>2026-04-04T12:24:41.443Z</time></trkpt><trkpt lat="43.5982367" lon="2.7015167"><ele>702.0</ele><time>2026-04-04T12:24:42.445Z</time></trkpt><trkpt lat="43.598215" lon="2.7017033"><ele>702.0</ele><time>2026-04-04T12:24:43.448Z</time></trkpt><trkpt lat="43.5981983" lon="2.7018967"><ele>702.0</ele><time>2026-04-04T12:24:44.447Z</time></trkpt><trkpt lat="43.5981817" lon="2.702095"><ele>702.0</ele><time>2026-04-04T12:24:45.447Z</time></trkpt><trkpt lat="43.5981717" lon="2.7023"><ele>702.0</ele><time>2026-04-04T12:24:46.446Z</time></trkpt><trkpt lat="43.5981767" lon="2.7025117"><ele>700.75</ele><time>2026-04-04T12:24:47.446Z</time></trkpt><trkpt lat="43.598185" lon="2.70272"><ele>699.5</ele><time>2026-04-04T12:24:48.446Z</time></trkpt><trkpt lat="43.5981917" lon="2.7029167"><ele>698.25</ele><time>2026-04-04T12:24:49.446Z</time></trkpt><trkpt lat="43.598195" lon="2.7030967"><ele>697.0</ele><time>2026-04-04T12:24:50.447Z</time></trkpt><trkpt lat="43.598185" lon="2.7032583"><ele>696.8333333333334</ele><time>2026-04-04T12:24:51.446Z</time></trkpt><trkpt lat="43.5981667" lon="2.7033867"><ele>696.6666666666667</ele><time>2026-04-04T12:24:52.446Z</time></trkpt><trkpt lat="43.59814" lon="2.70349"><ele>696.5</ele><time>2026-04-04T12:24:53.446Z</time></trkpt><trkpt lat="43.5980967" lon="2.703555"><ele>696.3333333333334</ele><time>2026-04-04T12:24:54.446Z</time></trkpt><trkpt lat="43.5979967" lon="2.7035417"><ele>696.1666666666666</ele><time>2026-04-04T12:24:56.443Z</time></trkpt><trkpt lat="43.5979317" lon="2.7034683"><ele>696.0</ele><time>2026-04-04T12:24:57.443Z</time></trkpt><trkpt lat="43.5978917" lon="2.703375"><ele>696.0</ele><time>2026-04-04T12:24:58.444Z</time></trkpt><trkpt lat="43.5978733" lon="2.7032083"><ele>696.0</ele><time>2026-04-04T12:24:59.443Z</time></trkpt><trkpt lat="43.597915" lon="2.7029567"><ele>696.0</ele><time>2026-04-04T12:25:00.443Z</time></trkpt><trkpt lat="43.597925" lon="2.702755"><ele>696.3333333333334</ele><time>2026-04-04T12:25:01.444Z</time></trkpt><trkpt lat="43.5979517" lon="2.7025283"><ele>696.6666666666667</ele><time>2026-04-04T12:25:02.443Z</time></trkpt><trkpt lat="43.597945" lon="2.702315"><ele>697.0</ele><time>2026-04-04T12:25:03.444Z</time></trkpt><trkpt lat="43.5979267" lon="2.70211"><ele>698.6666666666667</ele><time>2026-04-04T12:25:04.445Z</time></trkpt><trkpt lat="43.59792" lon="2.7019017"><ele>700.3333333333334</ele><time>2026-04-04T12:25:05.443Z</time></trkpt><trkpt lat="43.597925" lon="2.7016883"><ele>702.0</ele><time>2026-04-04T12:25:06.443Z</time></trkpt><trkpt lat="43.597935" lon="2.70147"><ele>702.0</ele><time>2026-04-04T12:25:07.445Z</time></trkpt><trkpt lat="43.59795" lon="2.701255"><ele>702.0</ele><time>2026-04-04T12:25:08.443Z</time></trkpt><trkpt lat="43.5979767" lon="2.7010433"><ele>702.0</ele><time>2026-04-04T12:25:09.444Z</time></trkpt><trkpt lat="43.5980383" lon="2.7008333"><ele>706.3333333333334</ele><time>2026-04-04T12:25:10.443Z</time></trkpt><trkpt lat="43.5981033" lon="2.7006267"><ele>710.6666666666667</ele><time>2026-04-04T12:25:11.443Z</time></trkpt><trkpt lat="43.598185" lon="2.7004133"><ele>715.0</ele><time>2026-04-04T12:25:12.444Z</time></trkpt><trkpt lat="43.5982583" lon="2.700195"><ele>718.3333333333334</ele><time>2026-04-04T12:25:13.444Z</time></trkpt><trkpt lat="43.5983267" lon="2.6999683"><ele>721.6666666666666</ele><time>2026-04-04T12:25:14.444Z</time></trkpt><trkpt lat="43.5983917" lon="2.6997417"><ele>725.0</ele><time>2026-04-04T12:25:15.444Z</time></trkpt><trkpt lat="43.59845" lon="2.6995067"><ele>729.6666666666666</ele><time>2026-04-04T12:25:16.443Z</time></trkpt><trkpt lat="43.5985117" lon="2.699275"><ele>734.3333333333334</ele><time>2026-04-04T12:25:17.443Z</time></trkpt><trkpt lat="43.5985717" lon="2.699045"><ele>739.0</ele><time>2026-04-04T12:25:18.443Z</time></trkpt><trkpt lat="43.5986317" lon="2.698815"><ele>734.6666666666667</ele><time>2026-04-04T12:25:19.444Z</time></trkpt><trkpt lat="43.5986883" lon="2.6985983"><ele>730.3333333333334</ele><time>2026-04-04T12:25:20.443Z</time></trkpt><trkpt lat="43.5987433" lon="2.6984"><ele>726.0</ele><time>2026-04-04T12:25:21.443Z</time></trkpt><trkpt lat="43.59879" lon="2.69823"><ele>726.0</ele><time>2026-04-04T12:25:22.444Z</time></trkpt><trkpt lat="43.5988283" lon="2.69808"><ele>726.0</ele><time>2026-04-04T12:25:23.443Z</time></trkpt><trkpt lat="43.598835" lon="2.697945"><ele>726.0</ele><time>2026-04-04T12:25:24.444Z</time></trkpt><trkpt lat="43.598825" lon="2.6978417"><ele>726.0</ele><time>2026-04-04T12:25:25.444Z</time></trkpt><trkpt lat="43.59874" lon="2.6977317"><ele>726.0</ele><time>2026-04-04T12:25:27.444Z</time></trkpt><trkpt lat="43.5986217" lon="2.6977033"><ele>735.6666666666666</ele><time>2026-04-04T12:25:29.443Z</time></trkpt><trkpt lat="43.59854" lon="2.697805"><ele>745.3333333333333</ele><time>2026-04-04T12:25:30.444Z</time></trkpt><trkpt lat="43.5984217" lon="2.6980417"><ele>755.0</ele><time>2026-04-04T12:25:31.443Z</time></trkpt><trkpt lat="43.5983633" lon="2.6982717"><ele>755.0</ele><time>2026-04-04T12:25:32.443Z</time></trkpt><trkpt lat="43.5982917" lon="2.69848"><ele>755.0</ele><time>2026-04-04T12:25:33.444Z</time></trkpt><trkpt lat="43.5982067" lon="2.6987433"><ele>755.0</ele><time>2026-04-04T12:25:34.446Z</time></trkpt><trkpt lat="43.598125" lon="2.6989567"><ele>759.6666666666666</ele><time>2026-04-04T12:25:35.443Z</time></trkpt><trkpt lat="43.598035" lon="2.6991583"><ele>764.3333333333333</ele><time>2026-04-04T12:25:36.445Z</time></trkpt><trkpt lat="43.59793" lon="2.699345"><ele>769.0</ele><time>2026-04-04T12:25:37.446Z</time></trkpt><trkpt lat="43.5978217" lon="2.6995383"><ele>769.0</ele><time>2026-04-04T12:25:38.444Z</time></trkpt><trkpt lat="43.5977133" lon="2.69973"><ele>769.0</ele><time>2026-04-04T12:25:39.445Z</time></trkpt><trkpt lat="43.59762" lon="2.69993"><ele>769.0</ele><time>2026-04-04T12:25:40.445Z</time></trkpt><trkpt lat="43.5975283" lon="2.7001433"><ele>766.3333333333333</ele><time>2026-04-04T12:25:41.445Z</time></trkpt><trkpt lat="43.59745" lon="2.70038"><ele>763.6666666666666</ele><time>2026-04-04T12:25:42.446Z</time></trkpt><trkpt lat="43.597375" lon="2.7006183"><ele>761.0</ele><time>2026-04-04T12:25:43.446Z</time></trkpt><trkpt lat="43.5972983" lon="2.7008583"><ele>757.6666666666666</ele><time>2026-04-04T12:25:44.445Z</time></trkpt><trkpt lat="43.5972183" lon="2.701095"><ele>754.3333333333334</ele><time>2026-04-04T12:25:45.445Z</time></trkpt><trkpt lat="43.5971333" lon="2.7013133"><ele>751.0</ele><time>2026-04-04T12:25:46.445Z</time></trkpt><trkpt lat="43.597035" lon="2.7015083"><ele>753.6666666666667</ele><time>2026-04-04T12:25:47.445Z</time></trkpt><trkpt lat="43.5969233" lon="2.7016817"><ele>756.3333333333334</ele><time>2026-04-04T12:25:48.444Z</time></trkpt><trkpt lat="43.5968" lon="2.7018183"><ele>759.0</ele><time>2026-04-04T12:25:49.445Z</time></trkpt><trkpt lat="43.5966483" lon="2.7019317"><ele>759.0</ele><time>2026-04-04T12:25:50.444Z</time></trkpt><trkpt lat="43.5965017" lon="2.7020417"><ele>759.0</ele><time>2026-04-04T12:25:51.444Z</time></trkpt><trkpt lat="43.59636" lon="2.7021633"><ele>759.0</ele><time>2026-04-04T12:25:52.446Z</time></trkpt><trkpt lat="43.5962317" lon="2.7023133"><ele>763.0</ele><time>2026-04-04T12:25:53.445Z</time></trkpt><trkpt lat="43.5961167" lon="2.702485"><ele>767.0</ele><time>2026-04-04T12:25:54.445Z</time></trkpt><trkpt lat="43.596015" lon="2.7026767"><ele>771.0</ele><time>2026-04-04T12:25:55.445Z</time></trkpt><trkpt lat="43.5959283" lon="2.7028417"><ele>771.0</ele><time>2026-04-04T12:25:56.444Z</time></trkpt><trkpt lat="43.5958433" lon="2.70298"><ele>771.0</ele><time>2026-04-04T12:25:57.444Z</time></trkpt><trkpt lat="43.59575" lon="2.7030883"><ele>771.0</ele><time>2026-04-04T12:25:58.445Z</time></trkpt><trkpt lat="43.5956583" lon="2.703145"><ele>771.0</ele><time>2026-04-04T12:25:59.445Z</time></trkpt><trkpt lat="43.5955717" lon="2.7031917"><ele>771.0</ele><time>2026-04-04T12:26:00.445Z</time></trkpt><trkpt lat="43.5954867" lon="2.7031733"><ele>771.0</ele><time>2026-04-04T12:26:01.445Z</time></trkpt><trkpt lat="43.5954117" lon="2.7031517"><ele>771.0</ele><time>2026-04-04T12:26:02.444Z</time></trkpt><trkpt lat="43.5954117" lon="2.7029867"><ele>771.0</ele><time>2026-04-04T12:26:04.447Z</time></trkpt><trkpt lat="43.595445" lon="2.7028917"><ele>771.0</ele><time>2026-04-04T12:26:05.444Z</time></trkpt><trkpt lat="43.5955267" lon="2.7027567"><ele>771.0</ele><time>2026-04-04T12:26:06.446Z</time></trkpt><trkpt lat="43.59576" lon="2.70249"><ele>777.0</ele><time>2026-04-04T12:26:07.445Z</time></trkpt><trkpt lat="43.5958883" lon="2.7022633"><ele>783.0</ele><time>2026-04-04T12:26:08.444Z</time></trkpt><trkpt lat="43.59596" lon="2.702065"><ele>789.0</ele><time>2026-04-04T12:26:09.446Z</time></trkpt><trkpt lat="43.5960283" lon="2.701835"><ele>794.0</ele><time>2026-04-04T12:26:10.444Z</time></trkpt><trkpt lat="43.5960867" lon="2.7016033"><ele>799.0</ele><time>2026-04-04T12:26:11.446Z</time></trkpt><trkpt lat="43.5961483" lon="2.7013583"><ele>804.0</ele><time>2026-04-04T12:26:12.444Z</time></trkpt><trkpt lat="43.5962033" lon="2.7011183"><ele>798.6666666666667</ele><time>2026-04-04T12:26:13.446Z</time></trkpt><trkpt lat="43.5962467" lon="2.7008833"><ele>793.3333333333334</ele><time>2026-04-04T12:26:14.444Z</time></trkpt><trkpt lat="43.5962917" lon="2.7006467"><ele>788.0</ele><time>2026-04-04T12:26:15.445Z</time></trkpt><trkpt lat="43.596335" lon="2.7004133"><ele>790.6666666666667</ele><time>2026-04-04T12:26:16.446Z</time></trkpt><trkpt lat="43.59636" lon="2.70018"><ele>793.3333333333333</ele><time>2026-04-04T12:26:17.445Z</time></trkpt><trkpt lat="43.5963683" lon="2.6999583"><ele>796.0</ele><time>2026-04-04T12:26:18.447Z</time></trkpt><trkpt lat="43.5963717" lon="2.6997217"><ele>796.0</ele><time>2026-04-04T12:26:19.445Z</time></trkpt><trkpt lat="43.596365" lon="2.699485"><ele>796.0</ele><time>2026-04-04T12:26:20.445Z</time></trkpt><trkpt lat="43.5963483" lon="2.6992433"><ele>796.0</ele><time>2026-04-04T12:26:21.444Z</time></trkpt><trkpt lat="43.5963267" lon="2.6990083"><ele>797.0</ele><time>2026-04-04T12:26:22.445Z</time></trkpt><trkpt lat="43.5963117" lon="2.6987567"><ele>798.0</ele><time>2026-04-04T12:26:23.444Z</time></trkpt><trkpt lat="43.5962733" lon="2.6985117"><ele>799.0</ele><time>2026-04-04T12:26:24.446Z</time></trkpt><trkpt lat="43.596215" lon="2.69828"><ele>804.0</ele><time>2026-04-04T12:26:25.446Z</time></trkpt><trkpt lat="43.5961167" lon="2.6980833"><ele>809.0</ele><time>2026-04-04T12:26:26.446Z</time></trkpt><trkpt lat="43.595995" lon="2.697925"><ele>814.0</ele><time>2026-04-04T12:26:27.444Z</time></trkpt><trkpt lat="43.5958567" lon="2.6978117"><ele>814.0</ele><time>2026-04-04T12:26:28.445Z</time></trkpt><trkpt lat="43.5956983" lon="2.69777"><ele>814.0</ele><time>2026-04-04T12:26:29.444Z</time></trkpt><trkpt lat="43.5955367" lon="2.6978"><ele>814.0</ele><time>2026-04-04T12:26:30.445Z</time></trkpt><trkpt lat="43.595385" lon="2.6978933"><ele>814.3333333333333</ele><time>2026-04-04T12:26:31.445Z</time></trkpt><trkpt lat="43.5952367" lon="2.6980117"><ele>814.6666666666667</ele><time>2026-04-04T12:26:32.444Z</time></trkpt><trkpt lat="43.5950967" lon="2.69815"><ele>815.0</ele><time>2026-04-04T12:26:33.444Z</time></trkpt><trkpt lat="43.5949572" lon="2.6982862"><ele>815.0</ele><time>2026-04-04T12:26:34.445Z</time></trkpt><trkpt lat="43.5948154" lon="2.6984236"><ele>815.0</ele><time>2026-04-04T12:26:35.445Z</time></trkpt><trkpt lat="43.5946743" lon="2.6985589"><ele>815.0</ele><time>2026-04-04T12:26:36.445Z</time></trkpt><trkpt lat="43.5945325" lon="2.698693"><ele>820.0</ele><time>2026-04-04T12:26:37.445Z</time></trkpt><trkpt lat="43.5943898" lon="2.6988196"><ele>825.0</ele><time>2026-04-04T12:26:38.446Z</time></trkpt><trkpt lat="43.5942418" lon="2.6989465"><ele>830.0</ele><time>2026-04-04T12:26:39.445Z</time></trkpt><trkpt lat="43.5940853" lon="2.6990716"><ele>830.0</ele><time>2026-04-04T12:26:40.446Z</time></trkpt><trkpt lat="43.5939289" lon="2.6991853"><ele>830.0</ele><time>2026-04-04T12:26:41.444Z</time></trkpt><trkpt lat="43.5937588" lon="2.6992679"><ele>830.0</ele><time>2026-04-04T12:26:42.444Z</time></trkpt><trkpt lat="43.5935876" lon="2.6993231"><ele>830.3333333333334</ele><time>2026-04-04T12:26:43.445Z</time></trkpt><trkpt lat="43.593414" lon="2.6993622"><ele>830.6666666666667</ele><time>2026-04-04T12:26:44.444Z</time></trkpt><trkpt lat="43.5932387" lon="2.6993928"><ele>831.0</ele><time>2026-04-04T12:26:45.445Z</time></trkpt><trkpt lat="43.5930577" lon="2.6994196"><ele>838.0</ele><time>2026-04-04T12:26:46.446Z</time></trkpt><trkpt lat="43.5928766" lon="2.6994601"><ele>845.0</ele><time>2026-04-04T12:26:47.445Z</time></trkpt><trkpt lat="43.5927017" lon="2.6995238"><ele>852.0</ele><time>2026-04-04T12:26:48.444Z</time></trkpt><trkpt lat="43.5925289" lon="2.699608"><ele>852.0</ele><time>2026-04-04T12:26:49.445Z</time></trkpt><trkpt lat="43.5923611" lon="2.6997021"><ele>852.0</ele><time>2026-04-04T12:26:50.446Z</time></trkpt><trkpt lat="43.5921945" lon="2.6998026"><ele>852.0</ele><time>2026-04-04T12:26:51.445Z</time></trkpt><trkpt lat="43.5920296" lon="2.6999077"><ele>852.3333333333333</ele><time>2026-04-04T12:26:52.445Z</time></trkpt><trkpt lat="43.591869" lon="2.7000192"><ele>852.6666666666666</ele><time>2026-04-04T12:26:53.445Z</time></trkpt><trkpt lat="43.5917092" lon="2.7001393"><ele>853.0</ele><time>2026-04-04T12:26:54.445Z</time></trkpt><trkpt lat="43.5915462" lon="2.7002603"><ele>853.0</ele><time>2026-04-04T12:26:55.445Z</time></trkpt><trkpt lat="43.5913766" lon="2.7003803"><ele>853.0</ele><time>2026-04-04T12:26:56.444Z</time></trkpt><trkpt lat="43.5912025" lon="2.7004898"><ele>853.0</ele><time>2026-04-04T12:26:57.444Z</time></trkpt><trkpt lat="43.59103" lon="2.7006057"><ele>850.6666666666666</ele><time>2026-04-04T12:26:58.447Z</time></trkpt><trkpt lat="43.5908553" lon="2.7007207"><ele>848.3333333333333</ele><time>2026-04-04T12:26:59.444Z</time></trkpt><trkpt lat="43.5906898" lon="2.7008527"><ele>846.0</ele><time>2026-04-04T12:27:00.445Z</time></trkpt><trkpt lat="43.5905426" lon="2.7010088"><ele>848.3333333333333</ele><time>2026-04-04T12:27:01.445Z</time></trkpt><trkpt lat="43.5904127" lon="2.7011894"><ele>850.6666666666666</ele><time>2026-04-04T12:27:02.445Z</time></trkpt><trkpt lat="43.5903007" lon="2.7013903"><ele>853.0</ele><time>2026-04-04T12:27:03.446Z</time></trkpt><trkpt lat="43.590208" lon="2.7016141"><ele>853.3333333333333</ele><time>2026-04-04T12:27:04.445Z</time></trkpt><trkpt lat="43.5901347" lon="2.701856"><ele>853.6666666666667</ele><time>2026-04-04T12:27:05.446Z</time></trkpt><trkpt lat="43.5900683" lon="2.7021067"><ele>854.0</ele><time>2026-04-04T12:27:06.446Z</time></trkpt><trkpt lat="43.5899983" lon="2.70235"><ele>855.3333333333334</ele><time>2026-04-04T12:27:07.447Z</time></trkpt><trkpt lat="43.589915" lon="2.7025833"><ele>856.6666666666667</ele><time>2026-04-04T12:27:08.445Z</time></trkpt><trkpt lat="43.5898167" lon="2.7027983"><ele>858.0</ele><time>2026-04-04T12:27:09.444Z</time></trkpt><trkpt lat="43.5897" lon="2.7029967"><ele>859.0</ele><time>2026-04-04T12:27:10.445Z</time></trkpt><trkpt lat="43.5895683" lon="2.7031783"><ele>860.0</ele><time>2026-04-04T12:27:11.444Z</time></trkpt><trkpt lat="43.5894133" lon="2.70334"><ele>861.0</ele><time>2026-04-04T12:27:12.445Z</time></trkpt><trkpt lat="43.58925" lon="2.7034767"><ele>862.0</ele><time>2026-04-04T12:27:13.443Z</time></trkpt><trkpt lat="43.58908" lon="2.7035833"><ele>863.0</ele><time>2026-04-04T12:27:14.443Z</time></trkpt><trkpt lat="43.5888933" lon="2.7036567"><ele>864.0</ele><time>2026-04-04T12:27:15.443Z</time></trkpt><trkpt lat="43.5886933" lon="2.7036983"><ele>865.6666666666667</ele><time>2026-04-04T12:27:16.444Z</time></trkpt><trkpt lat="43.5884967" lon="2.7037067"><ele>867.3333333333334</ele><time>2026-04-04T12:27:17.444Z</time></trkpt><trkpt lat="43.5883" lon="2.7036817"><ele>869.0</ele><time>2026-04-04T12:27:18.446Z</time></trkpt><trkpt lat="43.5881033" lon="2.7036367"><ele>869.0</ele><time>2026-04-04T12:27:19.446Z</time></trkpt><trkpt lat="43.5879033" lon="2.70358"><ele>869.0</ele><time>2026-04-04T12:27:20.444Z</time></trkpt><trkpt lat="43.5877017" lon="2.703515"><ele>869.0</ele><time>2026-04-04T12:27:21.443Z</time></trkpt><trkpt lat="43.5874917" lon="2.7034383"><ele>868.6666666666667</ele><time>2026-04-04T12:27:22.448Z</time></trkpt><trkpt lat="43.5872783" lon="2.7033633"><ele>868.3333333333333</ele><time>2026-04-04T12:27:23.443Z</time></trkpt><trkpt lat="43.587065" lon="2.7032767"><ele>868.0</ele><time>2026-04-04T12:27:24.445Z</time></trkpt><trkpt lat="43.586855" lon="2.7031917"><ele>869.3333333333333</ele><time>2026-04-04T12:27:25.443Z</time></trkpt><trkpt lat="43.5866483" lon="2.70311"><ele>870.6666666666667</ele><time>2026-04-04T12:27:26.443Z</time></trkpt><trkpt lat="43.58644" lon="2.7030333"><ele>872.0</ele><time>2026-04-04T12:27:27.444Z</time></trkpt><trkpt lat="43.5862317" lon="2.7029733"><ele>872.3333333333334</ele><time>2026-04-04T12:27:28.444Z</time></trkpt><trkpt lat="43.5860283" lon="2.7029483"><ele>872.6666666666667</ele><time>2026-04-04T12:27:29.443Z</time></trkpt><trkpt lat="43.5858233" lon="2.7029667"><ele>873.0</ele><time>2026-04-04T12:27:30.448Z</time></trkpt><trkpt lat="43.5856267" lon="2.7030567"><ele>873.0</ele><time>2026-04-04T12:27:31.446Z</time></trkpt><trkpt lat="43.585445" lon="2.7031867"><ele>873.0</ele><time>2026-04-04T12:27:32.444Z</time></trkpt><trkpt lat="43.5852717" lon="2.7033317"><ele>873.0</ele><time>2026-04-04T12:27:33.447Z</time></trkpt><trkpt lat="43.5850983" lon="2.7034867"><ele>874.3333333333333</ele><time>2026-04-04T12:27:34.447Z</time></trkpt><trkpt lat="43.5849217" lon="2.7036367"><ele>875.6666666666666</ele><time>2026-04-04T12:27:35.444Z</time></trkpt><trkpt lat="43.5847417" lon="2.7037817"><ele>877.0</ele><time>2026-04-04T12:27:36.444Z</time></trkpt><trkpt lat="43.5845583" lon="2.70392"><ele>877.3333333333333</ele><time>2026-04-04T12:27:37.443Z</time></trkpt><trkpt lat="43.5843683" lon="2.7040383"><ele>877.6666666666667</ele><time>2026-04-04T12:27:38.443Z</time></trkpt><trkpt lat="43.5841733" lon="2.7041283"><ele>878.0</ele><time>2026-04-04T12:27:39.443Z</time></trkpt><trkpt lat="43.58397" lon="2.7041983"><ele>878.0</ele><time>2026-04-04T12:27:40.444Z</time></trkpt><trkpt lat="43.5837717" lon="2.7042583"><ele>878.0</ele><time>2026-04-04T12:27:41.443Z</time></trkpt><trkpt lat="43.583572" lon="2.7043038"><ele>878.0</ele><time>2026-04-04T12:27:42.445Z</time></trkpt><trkpt lat="43.5833681" lon="2.704345"><ele>878.6666666666667</ele><time>2026-04-04T12:27:43.445Z</time></trkpt><trkpt lat="43.5831653" lon="2.7043914"><ele>879.3333333333333</ele><time>2026-04-04T12:27:44.447Z</time></trkpt><trkpt lat="43.5829639" lon="2.7044402"><ele>880.0</ele><time>2026-04-04T12:27:45.444Z</time></trkpt><trkpt lat="43.5827604" lon="2.7044902"><ele>883.6666666666666</ele><time>2026-04-04T12:27:46.444Z</time></trkpt><trkpt lat="43.5825553" lon="2.7045391"><ele>887.3333333333333</ele><time>2026-04-04T12:27:47.444Z</time></trkpt><trkpt lat="43.5823527" lon="2.7045853"><ele>891.0</ele><time>2026-04-04T12:27:48.445Z</time></trkpt><trkpt lat="43.5821528" lon="2.7046397"><ele>891.3333333333333</ele><time>2026-04-04T12:27:49.443Z</time></trkpt><trkpt lat="43.5819542" lon="2.7047111"><ele>891.6666666666666</ele><time>2026-04-04T12:27:50.443Z</time></trkpt><trkpt lat="43.5817579" lon="2.7048138"><ele>892.0</ele><time>2026-04-04T12:27:51.443Z</time></trkpt><trkpt lat="43.5815676" lon="2.7049413"><ele>892.0</ele><time>2026-04-04T12:27:52.444Z</time></trkpt><trkpt lat="43.5813805" lon="2.7050916"><ele>892.0</ele><time>2026-04-04T12:27:53.443Z</time></trkpt><trkpt lat="43.5812048" lon="2.7052754"><ele>892.0</ele><time>2026-04-04T12:27:54.443Z</time></trkpt><trkpt lat="43.5810471" lon="2.7054819"><ele>893.3333333333333</ele><time>2026-04-04T12:27:55.444Z</time></trkpt><trkpt lat="43.5809012" lon="2.7057007"><ele>894.6666666666667</ele><time>2026-04-04T12:27:56.444Z</time></trkpt><trkpt lat="43.5807651" lon="2.7059293"><ele>896.0</ele><time>2026-04-04T12:27:57.444Z</time></trkpt><trkpt lat="43.5806326" lon="2.7061613"><ele>897.0</ele><time>2026-04-04T12:27:58.443Z</time></trkpt><trkpt lat="43.5804988" lon="2.7063867"><ele>898.0</ele><time>2026-04-04T12:27:59.445Z</time></trkpt><trkpt lat="43.5803496" lon="2.7066002"><ele>899.0</ele><time>2026-04-04T12:28:00.444Z</time></trkpt><trkpt lat="43.5801904" lon="2.7067974"><ele>899.6666666666667</ele><time>2026-04-04T12:28:01.446Z</time></trkpt><trkpt lat="43.5800257" lon="2.7069844"><ele>900.3333333333333</ele><time>2026-04-04T12:28:02.443Z</time></trkpt><trkpt lat="43.5798613" lon="2.7071651"><ele>901.0</ele><time>2026-04-04T12:28:03.443Z</time></trkpt><trkpt lat="43.5796953" lon="2.7073488"><ele>901.0</ele><time>2026-04-04T12:28:04.445Z</time></trkpt><trkpt lat="43.5795275" lon="2.707537"><ele>901.0</ele><time>2026-04-04T12:28:05.446Z</time></trkpt><trkpt lat="43.5793607" lon="2.7077246"><ele>901.0</ele><time>2026-04-04T12:28:06.443Z</time></trkpt><trkpt lat="43.579195" lon="2.7079131"><ele>899.6666666666666</ele><time>2026-04-04T12:28:07.444Z</time></trkpt><trkpt lat="43.5790277" lon="2.7081017"><ele>898.3333333333333</ele><time>2026-04-04T12:28:08.446Z</time></trkpt><trkpt lat="43.5788699" lon="2.7082946"><ele>897.0</ele><time>2026-04-04T12:28:09.444Z</time></trkpt><trkpt lat="43.5787274" lon="2.7084989"><ele>895.3333333333333</ele><time>2026-04-04T12:28:10.447Z</time></trkpt><trkpt lat="43.5786113" lon="2.7087195"><ele>893.6666666666666</ele><time>2026-04-04T12:28:11.446Z</time></trkpt><trkpt lat="43.5785109" lon="2.7089553"><ele>892.0</ele><time>2026-04-04T12:28:12.443Z</time></trkpt><trkpt lat="43.5784156" lon="2.7092027"><ele>893.6666666666666</ele><time>2026-04-04T12:28:13.447Z</time></trkpt><trkpt lat="43.5783224" lon="2.7094498"><ele>895.3333333333333</ele><time>2026-04-04T12:28:14.444Z</time></trkpt><trkpt lat="43.5782227" lon="2.7096942"><ele>897.0</ele><time>2026-04-04T12:28:15.443Z</time></trkpt><trkpt lat="43.5781156" lon="2.7099322"><ele>897.0</ele><time>2026-04-04T12:28:16.445Z</time></trkpt><trkpt lat="43.5779989" lon="2.7101632"><ele>897.0</ele><time>2026-04-04T12:28:17.444Z</time></trkpt><trkpt lat="43.5778741" lon="2.7103856"><ele>897.0</ele><time>2026-04-04T12:28:18.443Z</time></trkpt><trkpt lat="43.5777421" lon="2.7106022"><ele>896.6666666666667</ele><time>2026-04-04T12:28:19.443Z</time></trkpt><trkpt lat="43.5776093" lon="2.7108155"><ele>896.3333333333334</ele><time>2026-04-04T12:28:20.444Z</time></trkpt><trkpt lat="43.5774739" lon="2.7110258"><ele>896.0</ele><time>2026-04-04T12:28:21.443Z</time></trkpt><trkpt lat="43.5773368" lon="2.7112387"><ele>897.3333333333334</ele><time>2026-04-04T12:28:22.444Z</time></trkpt><trkpt lat="43.5772001" lon="2.7114558"><ele>898.6666666666667</ele><time>2026-04-04T12:28:23.443Z</time></trkpt><trkpt lat="43.5770659" lon="2.711677"><ele>900.0</ele><time>2026-04-04T12:28:24.445Z</time></trkpt><trkpt lat="43.5769324" lon="2.7119"><ele>899.0</ele><time>2026-04-04T12:28:25.446Z</time></trkpt><trkpt lat="43.5767951" lon="2.7121203"><ele>898.0</ele><time>2026-04-04T12:28:26.444Z</time></trkpt><trkpt lat="43.5766496" lon="2.7123293"><ele>897.0</ele><time>2026-04-04T12:28:27.443Z</time></trkpt><trkpt lat="43.5764938" lon="2.7125231"><ele>897.0</ele><time>2026-04-04T12:28:28.446Z</time></trkpt><trkpt lat="43.5763267" lon="2.7126954"><ele>897.0</ele><time>2026-04-04T12:28:29.443Z</time></trkpt><trkpt lat="43.576157" lon="2.7128488"><ele>897.0</ele><time>2026-04-04T12:28:30.443Z</time></trkpt><trkpt lat="43.5759875" lon="2.712986"><ele>900.0</ele><time>2026-04-04T12:28:31.444Z</time></trkpt><trkpt lat="43.5758212" lon="2.7131081"><ele>903.0</ele><time>2026-04-04T12:28:32.443Z</time></trkpt><trkpt lat="43.5756585" lon="2.7132201"><ele>906.0</ele><time>2026-04-04T12:28:33.443Z</time></trkpt><trkpt lat="43.5755019" lon="2.7133319"><ele>907.3333333333333</ele><time>2026-04-04T12:28:34.444Z</time></trkpt><trkpt lat="43.5753482" lon="2.7134454"><ele>908.6666666666666</ele><time>2026-04-04T12:28:35.443Z</time></trkpt><trkpt lat="43.5751994" lon="2.7135667"><ele>910.0</ele><time>2026-04-04T12:28:36.443Z</time></trkpt><trkpt lat="43.5750583" lon="2.7136956"><ele>910.0</ele><time>2026-04-04T12:28:37.444Z</time></trkpt><trkpt lat="43.5749166" lon="2.7138265"><ele>910.0</ele><time>2026-04-04T12:28:38.443Z</time></trkpt><trkpt lat="43.5747779" lon="2.7139656"><ele>910.0</ele><time>2026-04-04T12:28:39.443Z</time></trkpt><trkpt lat="43.5746334" lon="2.7141077"><ele>910.3333333333333</ele><time>2026-04-04T12:28:40.448Z</time></trkpt><trkpt lat="43.5744878" lon="2.7142484"><ele>910.6666666666667</ele><time>2026-04-04T12:28:41.443Z</time></trkpt><trkpt lat="43.5743412" lon="2.7143891"><ele>911.0</ele><time>2026-04-04T12:28:42.443Z</time></trkpt><trkpt lat="43.5741966" lon="2.714528"><ele>911.0</ele><time>2026-04-04T12:28:43.443Z</time></trkpt><trkpt lat="43.5740604" lon="2.7146578"><ele>911.0</ele><time>2026-04-04T12:28:44.443Z</time></trkpt><trkpt lat="43.5739459" lon="2.7147648"><ele>911.0</ele><time>2026-04-04T12:28:45.447Z</time></trkpt><trkpt lat="43.5738573" lon="2.714844"><ele>911.0</ele><time>2026-04-04T12:28:46.444Z</time></trkpt><trkpt lat="43.5737786" lon="2.7148917"><ele>911.0</ele><time>2026-04-04T12:28:47.446Z</time></trkpt><trkpt lat="43.5737133" lon="2.7148867"><ele>910.9999999999999</ele><time>2026-04-04T12:28:48.449Z</time></trkpt><trkpt lat="43.5736233" lon="2.7147783"><ele>910.9999999999999</ele><time>2026-04-04T12:28:50.443Z</time></trkpt><trkpt lat="43.5735683" lon="2.71468"><ele>911.0</ele><time>2026-04-04T12:28:51.443Z</time></trkpt><trkpt lat="43.57351" lon="2.7145783"><ele>911.0</ele><time>2026-04-04T12:28:52.444Z</time></trkpt><trkpt lat="43.5734533" lon="2.7144683"><ele>910.6666666666667</ele><time>2026-04-04T12:28:53.443Z</time></trkpt><trkpt lat="43.5734033" lon="2.7143633"><ele>910.3333333333334</ele><time>2026-04-04T12:28:54.444Z</time></trkpt><trkpt lat="43.573355" lon="2.7142583"><ele>910.0</ele><time>2026-04-04T12:28:55.444Z</time></trkpt><trkpt lat="43.5733033" lon="2.7141733"><ele>909.6666666666667</ele><time>2026-04-04T12:28:56.443Z</time></trkpt><trkpt lat="43.5732533" lon="2.7141067"><ele>909.3333333333334</ele><time>2026-04-04T12:28:57.444Z</time></trkpt><trkpt lat="43.573145" lon="2.7140733"><ele>909.0</ele><time>2026-04-04T12:28:59.443Z</time></trkpt><trkpt lat="43.573085" lon="2.7141167"><ele>909.0</ele><time>2026-04-04T12:29:00.443Z</time></trkpt><trkpt lat="43.5730233" lon="2.7141917"><ele>909.0</ele><time>2026-04-04T12:29:01.443Z</time></trkpt><trkpt lat="43.5729583" lon="2.7142417"><ele>909.0</ele><time>2026-04-04T12:29:02.443Z</time></trkpt><trkpt lat="43.572885" lon="2.7142833"><ele>909.0</ele><time>2026-04-04T12:29:03.443Z</time></trkpt><trkpt lat="43.5728083" lon="2.714315"><ele>909.0</ele><time>2026-04-04T12:29:04.444Z</time></trkpt><trkpt lat="43.57273" lon="2.71434"><ele>909.0</ele><time>2026-04-04T12:29:05.443Z</time></trkpt><trkpt lat="43.5726483" lon="2.71434"><ele>908.2</ele><time>2026-04-04T12:29:06.443Z</time></trkpt><trkpt lat="43.572565" lon="2.7143117"><ele>907.4000000000001</ele><time>2026-04-04T12:29:07.445Z</time></trkpt><trkpt lat="43.572475" lon="2.714265"><ele>906.6</ele><time>2026-04-04T12:29:08.443Z</time></trkpt><trkpt lat="43.5723733" lon="2.7142"><ele>905.8</ele><time>2026-04-04T12:29:09.443Z</time></trkpt><trkpt lat="43.57226" lon="2.7141167"><ele>905.0</ele><time>2026-04-04T12:29:10.443Z</time></trkpt><trkpt lat="43.5721533" lon="2.7140283"><ele>905.0</ele><time>2026-04-04T12:29:11.443Z</time></trkpt><trkpt lat="43.572045" lon="2.7139367"><ele>905.0</ele><time>2026-04-04T12:29:12.444Z</time></trkpt><trkpt lat="43.5719367" lon="2.7138367"><ele>905.0</ele><time>2026-04-04T12:29:13.443Z</time></trkpt><trkpt lat="43.5718333" lon="2.7137367"><ele>905.0</ele><time>2026-04-04T12:29:14.444Z</time></trkpt><trkpt lat="43.571725" lon="2.7136467"><ele>908.0</ele><time>2026-04-04T12:29:15.443Z</time></trkpt><trkpt lat="43.571615" lon="2.71357"><ele>911.0</ele><time>2026-04-04T12:29:16.443Z</time></trkpt><trkpt lat="43.5715067" lon="2.7135067"><ele>914.0</ele><time>2026-04-04T12:29:17.443Z</time></trkpt><trkpt lat="43.571395" lon="2.7134533"><ele>917.0</ele><time>2026-04-04T12:29:18.443Z</time></trkpt><trkpt lat="43.5712817" lon="2.7134067"><ele>918.5</ele><time>2026-04-04T12:29:19.444Z</time></trkpt><trkpt lat="43.571155" lon="2.7133617"><ele>920.0</ele><time>2026-04-04T12:29:20.443Z</time></trkpt><trkpt lat="43.571025" lon="2.7133117"><ele>921.5</ele><time>2026-04-04T12:29:21.444Z</time></trkpt><trkpt lat="43.5709067" lon="2.7132683"><ele>923.0</ele><time>2026-04-04T12:29:22.443Z</time></trkpt><trkpt lat="43.57079" lon="2.7132133"><ele>923.0</ele><time>2026-04-04T12:29:23.443Z</time></trkpt><trkpt lat="43.570685" lon="2.713165"><ele>923.0</ele><time>2026-04-04T12:29:24.444Z</time></trkpt><trkpt lat="43.5705767" lon="2.71314"><ele>923.0</ele><time>2026-04-04T12:29:25.445Z</time></trkpt><trkpt lat="43.5704867" lon="2.7131417"><ele>923.0</ele><time>2026-04-04T12:29:26.443Z</time></trkpt><trkpt lat="43.5704" lon="2.713175"><ele>923.0</ele><time>2026-04-04T12:29:27.445Z</time></trkpt><trkpt lat="43.5703117" lon="2.7132267"><ele>924.2</ele><time>2026-04-04T12:29:28.443Z</time></trkpt><trkpt lat="43.5702267" lon="2.71328"><ele>925.4</ele><time>2026-04-04T12:29:29.443Z</time></trkpt><trkpt lat="43.5701283" lon="2.7133433"><ele>926.6000000000001</ele><time>2026-04-04T12:29:30.444Z</time></trkpt><trkpt lat="43.570025" lon="2.71342"><ele>927.8000000000001</ele><time>2026-04-04T12:29:31.443Z</time></trkpt><trkpt lat="43.5699133" lon="2.7135017"><ele>929.0</ele><time>2026-04-04T12:29:32.444Z</time></trkpt><trkpt lat="43.569815" lon="2.7135967"><ele>929.0</ele><time>2026-04-04T12:29:33.444Z</time></trkpt><trkpt lat="43.56972" lon="2.713695"><ele>929.0</ele><time>2026-04-04T12:29:34.445Z</time></trkpt><trkpt lat="43.56962" lon="2.7138017"><ele>929.0</ele><time>2026-04-04T12:29:35.444Z</time></trkpt><trkpt lat="43.5695133" lon="2.7139083"><ele>929.0</ele><time>2026-04-04T12:29:36.443Z</time></trkpt><trkpt lat="43.5693933" lon="2.7140017"><ele>932.25</ele><time>2026-04-04T12:29:37.446Z</time></trkpt><trkpt lat="43.5692783" lon="2.714075"><ele>935.5</ele><time>2026-04-04T12:29:38.443Z</time></trkpt><trkpt lat="43.569155" lon="2.714145"><ele>938.75</ele><time>2026-04-04T12:29:39.445Z</time></trkpt><trkpt lat="43.569035" lon="2.71421"><ele>942.0</ele><time>2026-04-04T12:29:40.443Z</time></trkpt><trkpt lat="43.568925" lon="2.7142667"><ele>942.0</ele><time>2026-04-04T12:29:41.444Z</time></trkpt><trkpt lat="43.5688083" lon="2.7142833"><ele>942.0</ele><time>2026-04-04T12:29:42.443Z</time></trkpt><trkpt lat="43.5686917" lon="2.714285"><ele>942.0</ele><time>2026-04-04T12:29:43.446Z</time></trkpt><trkpt lat="43.5685717" lon="2.7142817"><ele>942.0</ele><time>2026-04-04T12:29:44.443Z</time></trkpt><trkpt lat="43.5684583" lon="2.7142683"><ele>944.0</ele><time>2026-04-04T12:29:45.443Z</time></trkpt><trkpt lat="43.568345" lon="2.7142567"><ele>946.0</ele><time>2026-04-04T12:29:46.443Z</time></trkpt><trkpt lat="43.5682217" lon="2.7142083"><ele>948.0</ele><time>2026-04-04T12:29:47.443Z</time></trkpt><trkpt lat="43.5681133" lon="2.714155"><ele>950.0</ele><time>2026-04-04T12:29:48.443Z</time></trkpt><trkpt lat="43.5679983" lon="2.714085"><ele>950.0</ele><time>2026-04-04T12:29:49.446Z</time></trkpt><trkpt lat="43.5678667" lon="2.7140283"><ele>950.0</ele><time>2026-04-04T12:29:50.443Z</time></trkpt><trkpt lat="43.5677267" lon="2.71398"><ele>950.0</ele><time>2026-04-04T12:29:51.445Z</time></trkpt><trkpt lat="43.5675867" lon="2.7139383"><ele>950.0</ele><time>2026-04-04T12:29:52.444Z</time></trkpt><trkpt lat="43.5674567" lon="2.7139067"><ele>950.75</ele><time>2026-04-04T12:29:53.443Z</time></trkpt><trkpt lat="43.5673267" lon="2.713885"><ele>951.5</ele><time>2026-04-04T12:29:54.443Z</time></trkpt><trkpt lat="43.56719" lon="2.7138667"><ele>952.25</ele><time>2026-04-04T12:29:55.443Z</time></trkpt><trkpt lat="43.5670533" lon="2.71385"><ele>953.0</ele><time>2026-04-04T12:29:56.445Z</time></trkpt><trkpt lat="43.5669183" lon="2.7138383"><ele>954.0</ele><time>2026-04-04T12:29:57.444Z</time></trkpt><trkpt lat="43.5667817" lon="2.7138333"><ele>955.0</ele><time>2026-04-04T12:29:58.443Z</time></trkpt><trkpt lat="43.5666517" lon="2.71383"><ele>956.0</ele><time>2026-04-04T12:29:59.444Z</time></trkpt><trkpt lat="43.5665517" lon="2.7138317"><ele>957.0</ele><time>2026-04-04T12:30:00.443Z</time></trkpt><trkpt lat="43.5664783" lon="2.7138183"><ele>958.0</ele><time>2026-04-04T12:30:01.443Z</time></trkpt><trkpt lat="43.56641" lon="2.7137883"><ele>958.0</ele><time>2026-04-04T12:30:02.443Z</time></trkpt><trkpt lat="43.5663533" lon="2.713735"><ele>958.0</ele><time>2026-04-04T12:30:03.444Z</time></trkpt><trkpt lat="43.5662983" lon="2.71368"><ele>958.0</ele><time>2026-04-04T12:30:04.444Z</time></trkpt><trkpt lat="43.5662633" lon="2.7135717"><ele>958.0</ele><time>2026-04-04T12:30:05.446Z</time></trkpt><trkpt lat="43.5662483" lon="2.713405"><ele>958.0</ele><time>2026-04-04T12:30:06.445Z</time></trkpt><trkpt lat="43.5662333" lon="2.713225"><ele>960.8</ele><time>2026-04-04T12:30:07.443Z</time></trkpt><trkpt lat="43.5662017" lon="2.7130783"><ele>963.5999999999999</ele><time>2026-04-04T12:30:08.444Z</time></trkpt><trkpt lat="43.5661533" lon="2.7129617"><ele>966.4000000000001</ele><time>2026-04-04T12:30:09.446Z</time></trkpt><trkpt lat="43.5660917" lon="2.712885"><ele>969.2</ele><time>2026-04-04T12:30:10.445Z</time></trkpt><trkpt lat="43.5659983" lon="2.712845"><ele>972.0</ele><time>2026-04-04T12:30:11.446Z</time></trkpt><trkpt lat="43.5658867" lon="2.712815"><ele>972.0</ele><time>2026-04-04T12:30:12.444Z</time></trkpt><trkpt lat="43.56577" lon="2.712785"><ele>972.0</ele><time>2026-04-04T12:30:13.446Z</time></trkpt><trkpt lat="43.5656267" lon="2.7127617"><ele>972.0</ele><time>2026-04-04T12:30:14.443Z</time></trkpt><trkpt lat="43.56547" lon="2.7127367"><ele>972.0</ele><time>2026-04-04T12:30:15.443Z</time></trkpt><trkpt lat="43.5653217" lon="2.712705"><ele>972.6</ele><time>2026-04-04T12:30:16.444Z</time></trkpt><trkpt lat="43.565195" lon="2.7126733"><ele>973.2</ele><time>2026-04-04T12:30:17.443Z</time></trkpt><trkpt lat="43.56509" lon="2.7126683"><ele>973.8</ele><time>2026-04-04T12:30:18.444Z</time></trkpt><trkpt lat="43.5649967" lon="2.7127067"><ele>974.4</ele><time>2026-04-04T12:30:19.444Z</time></trkpt><trkpt lat="43.5649217" lon="2.71279"><ele>975.0</ele><time>2026-04-04T12:30:20.447Z</time></trkpt><trkpt lat="43.5648667" lon="2.7128967"><ele>975.0</ele><time>2026-04-04T12:30:21.443Z</time></trkpt><trkpt lat="43.5648283" lon="2.7130117"><ele>975.0</ele><time>2026-04-04T12:30:22.445Z</time></trkpt><trkpt lat="43.564785" lon="2.7131533"><ele>975.0</ele><time>2026-04-04T12:30:23.443Z</time></trkpt><trkpt lat="43.5647367" lon="2.7133167"><ele>975.0</ele><time>2026-04-04T12:30:24.444Z</time></trkpt><trkpt lat="43.5646983" lon="2.7134817"><ele>976.5</ele><time>2026-04-04T12:30:25.444Z</time></trkpt><trkpt lat="43.56467" lon="2.7136517"><ele>978.0</ele><time>2026-04-04T12:30:26.444Z</time></trkpt><trkpt lat="43.5646117" lon="2.7138167"><ele>979.5</ele><time>2026-04-04T12:30:27.443Z</time></trkpt><trkpt lat="43.5645383" lon="2.713975"><ele>981.0</ele><time>2026-04-04T12:30:28.444Z</time></trkpt><trkpt lat="43.56445" lon="2.7141367"><ele>981.0</ele><time>2026-04-04T12:30:29.443Z</time></trkpt><trkpt lat="43.5643517" lon="2.7143217"><ele>981.0</ele><time>2026-04-04T12:30:30.445Z</time></trkpt><trkpt lat="43.56424" lon="2.7144967"><ele>981.0</ele><time>2026-04-04T12:30:31.445Z</time></trkpt><trkpt lat="43.5641233" lon="2.714675"><ele>978.0</ele><time>2026-04-04T12:30:32.445Z</time></trkpt><trkpt lat="43.5640017" lon="2.7148567"><ele>975.0</ele><time>2026-04-04T12:30:33.445Z</time></trkpt><trkpt lat="43.5638917" lon="2.715045"><ele>972.0</ele><time>2026-04-04T12:30:34.445Z</time></trkpt><trkpt lat="43.5637767" lon="2.7152317"><ele>972.6666666666667</ele><time>2026-04-04T12:30:35.443Z</time></trkpt><trkpt lat="43.563665" lon="2.7154067"><ele>973.3333333333334</ele><time>2026-04-04T12:30:36.447Z</time></trkpt><trkpt lat="43.563555" lon="2.71557"><ele>974.0</ele><time>2026-04-04T12:30:37.445Z</time></trkpt><trkpt lat="43.563455" lon="2.7157083"><ele>974.0</ele><time>2026-04-04T12:30:38.444Z</time></trkpt><trkpt lat="43.5633517" lon="2.7158317"><ele>974.0</ele><time>2026-04-04T12:30:39.443Z</time></trkpt><trkpt lat="43.5632433" lon="2.7159467"><ele>974.0</ele><time>2026-04-04T12:30:40.443Z</time></trkpt><trkpt lat="43.5631233" lon="2.71604"><ele>974.0</ele><time>2026-04-04T12:30:41.443Z</time></trkpt><trkpt lat="43.56299" lon="2.716115"><ele>974.25</ele><time>2026-04-04T12:30:42.443Z</time></trkpt><trkpt lat="43.5628533" lon="2.7161633"><ele>974.5</ele><time>2026-04-04T12:30:43.444Z</time></trkpt><trkpt lat="43.5627117" lon="2.7161683"><ele>974.75</ele><time>2026-04-04T12:30:44.444Z</time></trkpt><trkpt lat="43.56257" lon="2.716195"><ele>975.0</ele><time>2026-04-04T12:30:45.443Z</time></trkpt><trkpt lat="43.5624283" lon="2.71624"><ele>975.0</ele><time>2026-04-04T12:30:46.443Z</time></trkpt><trkpt lat="43.56228" lon="2.7162833"><ele>975.0</ele><time>2026-04-04T12:30:47.443Z</time></trkpt><trkpt lat="43.5621267" lon="2.7163133"><ele>975.0</ele><time>2026-04-04T12:30:48.443Z</time></trkpt><trkpt lat="43.5619683" lon="2.71635"><ele>978.0</ele><time>2026-04-04T12:30:49.445Z</time></trkpt><trkpt lat="43.5618117" lon="2.71637"><ele>981.0</ele><time>2026-04-04T12:30:50.443Z</time></trkpt><trkpt lat="43.56166" lon="2.7163867"><ele>984.0</ele><time>2026-04-04T12:30:51.443Z</time></trkpt><trkpt lat="43.5615067" lon="2.71641"><ele>984.0</ele><time>2026-04-04T12:30:52.444Z</time></trkpt><trkpt lat="43.5613633" lon="2.7164483"><ele>984.0</ele><time>2026-04-04T12:30:53.443Z</time></trkpt><trkpt lat="43.5612167" lon="2.716495"><ele>984.0</ele><time>2026-04-04T12:30:54.445Z</time></trkpt><trkpt lat="43.5610683" lon="2.71653"><ele>984.0</ele><time>2026-04-04T12:30:55.444Z</time></trkpt><trkpt lat="43.5609033" lon="2.71654"><ele>985.75</ele><time>2026-04-04T12:30:56.443Z</time></trkpt><trkpt lat="43.56076" lon="2.71656"><ele>987.5</ele><time>2026-04-04T12:30:57.445Z</time></trkpt><trkpt lat="43.5606283" lon="2.7165883"><ele>989.25</ele><time>2026-04-04T12:30:58.443Z</time></trkpt><trkpt lat="43.5605217" lon="2.71664"><ele>991.0</ele><time>2026-04-04T12:30:59.443Z</time></trkpt><trkpt lat="43.5604217" lon="2.7167"><ele>990.5999999999999</ele><time>2026-04-04T12:31:00.445Z</time></trkpt><trkpt lat="43.560335" lon="2.7167833"><ele>990.1999999999999</ele><time>2026-04-04T12:31:01.446Z</time></trkpt><trkpt lat="43.560255" lon="2.71688"><ele>989.8000000000001</ele><time>2026-04-04T12:31:02.443Z</time></trkpt><trkpt lat="43.5601567" lon="2.7169667"><ele>989.4000000000001</ele><time>2026-04-04T12:31:03.447Z</time></trkpt><trkpt lat="43.5600883" lon="2.7170233"><ele>989.0</ele><time>2026-04-04T12:31:04.443Z</time></trkpt><trkpt lat="43.5599667" lon="2.7170883"><ele>989.0</ele><time>2026-04-04T12:31:06.443Z</time></trkpt><trkpt lat="43.55985" lon="2.7170817"><ele>989.0</ele><time>2026-04-04T12:31:08.443Z</time></trkpt><trkpt lat="43.5597267" lon="2.7169983"><ele>989.0</ele><time>2026-04-04T12:31:09.443Z</time></trkpt><trkpt lat="43.5596017" lon="2.7169017"><ele>989.0</ele><time>2026-04-04T12:31:10.445Z</time></trkpt><trkpt lat="43.5594267" lon="2.716755"><ele>989.3333333333334</ele><time>2026-04-04T12:31:11.443Z</time></trkpt><trkpt lat="43.5592683" lon="2.7166233"><ele>989.6666666666667</ele><time>2026-04-04T12:31:12.444Z</time></trkpt><trkpt lat="43.5590983" lon="2.7164717"><ele>990.0</ele><time>2026-04-04T12:31:13.444Z</time></trkpt><trkpt lat="43.558925" lon="2.7163133"><ele>990.0</ele><time>2026-04-04T12:31:14.444Z</time></trkpt><trkpt lat="43.5587867" lon="2.71621"><ele>990.0</ele><time>2026-04-04T12:31:15.443Z</time></trkpt><trkpt lat="43.558635" lon="2.7161433"><ele>990.0</ele><time>2026-04-04T12:31:16.445Z</time></trkpt><trkpt lat="43.5584883" lon="2.7161283"><ele>991.0</ele><time>2026-04-04T12:31:17.443Z</time></trkpt><trkpt lat="43.5583167" lon="2.7160833"><ele>992.0</ele><time>2026-04-04T12:31:18.443Z</time></trkpt><trkpt lat="43.55814" lon="2.7160383"><ele>993.0</ele><time>2026-04-04T12:31:19.445Z</time></trkpt><trkpt lat="43.5579583" lon="2.7160017"><ele>988.0</ele><time>2026-04-04T12:31:20.444Z</time></trkpt><trkpt lat="43.5577783" lon="2.7159733"><ele>983.0</ele><time>2026-04-04T12:31:21.443Z</time></trkpt><trkpt lat="43.5576133" lon="2.715945"><ele>978.0</ele><time>2026-04-04T12:31:22.445Z</time></trkpt><trkpt lat="43.557455" lon="2.715895"><ele>978.0</ele><time>2026-04-04T12:31:23.443Z</time></trkpt><trkpt lat="43.55731" lon="2.7158283"><ele>978.0</ele><time>2026-04-04T12:31:24.446Z</time></trkpt><trkpt lat="43.55718" lon="2.7157367"><ele>978.0</ele><time>2026-04-04T12:31:25.443Z</time></trkpt><trkpt lat="43.55707" lon="2.71561"><ele>978.0</ele><time>2026-04-04T12:31:26.445Z</time></trkpt><trkpt lat="43.5569767" lon="2.7154767"><ele>978.25</ele><time>2026-04-04T12:31:27.444Z</time></trkpt><trkpt lat="43.556885" lon="2.7153467"><ele>978.5</ele><time>2026-04-04T12:31:28.443Z</time></trkpt><trkpt lat="43.5568" lon="2.71519"><ele>978.75</ele><time>2026-04-04T12:31:29.444Z</time></trkpt><trkpt lat="43.5567367" lon="2.7150267"><ele>979.0</ele><time>2026-04-04T12:31:30.444Z</time></trkpt><trkpt lat="43.5566883" lon="2.7148417"><ele>977.0</ele><time>2026-04-04T12:31:31.446Z</time></trkpt><trkpt lat="43.5566417" lon="2.7146217"><ele>975.0</ele><time>2026-04-04T12:31:32.445Z</time></trkpt><trkpt lat="43.5566067" lon="2.71439"><ele>973.0</ele><time>2026-04-04T12:31:33.443Z</time></trkpt><trkpt lat="43.5565833" lon="2.71416"><ele>970.3333333333333</ele><time>2026-04-04T12:31:34.445Z</time></trkpt><trkpt lat="43.5565633" lon="2.7139133"><ele>967.6666666666667</ele><time>2026-04-04T12:31:35.443Z</time></trkpt><trkpt lat="43.5565483" lon="2.71366"><ele>965.0</ele><time>2026-04-04T12:31:36.444Z</time></trkpt><trkpt lat="43.5565333" lon="2.7134367"><ele>964.25</ele><time>2026-04-04T12:31:37.445Z</time></trkpt><trkpt lat="43.5565333" lon="2.71326"><ele>963.5</ele><time>2026-04-04T12:31:38.443Z</time></trkpt><trkpt lat="43.5565217" lon="2.713045"><ele>962.75</ele><time>2026-04-04T12:31:39.444Z</time></trkpt><trkpt lat="43.556525" lon="2.71283"><ele>962.0</ele><time>2026-04-04T12:31:40.444Z</time></trkpt><trkpt lat="43.5565283" lon="2.71258"><ele>960.0</ele><time>2026-04-04T12:31:41.443Z</time></trkpt><trkpt lat="43.5565367" lon="2.71235"><ele>958.0</ele><time>2026-04-04T12:31:42.445Z</time></trkpt><trkpt lat="43.556535" lon="2.7121217"><ele>956.0</ele><time>2026-04-04T12:31:43.444Z</time></trkpt><trkpt lat="43.5565233" lon="2.7118867"><ele>954.3333333333334</ele><time>2026-04-04T12:31:44.443Z</time></trkpt><trkpt lat="43.5565083" lon="2.7116583"><ele>952.6666666666667</ele><time>2026-04-04T12:31:45.443Z</time></trkpt><trkpt lat="43.5564883" lon="2.7114183"><ele>951.0</ele><time>2026-04-04T12:31:46.444Z</time></trkpt><trkpt lat="43.5564633" lon="2.7111567"><ele>949.6666666666667</ele><time>2026-04-04T12:31:47.443Z</time></trkpt><trkpt lat="43.556435" lon="2.71089"><ele>948.3333333333334</ele><time>2026-04-04T12:31:48.443Z</time></trkpt><trkpt lat="43.5564133" lon="2.7106167"><ele>947.0</ele><time>2026-04-04T12:31:49.445Z</time></trkpt><trkpt lat="43.5564017" lon="2.71034"><ele>946.3333333333334</ele><time>2026-04-04T12:31:50.444Z</time></trkpt><trkpt lat="43.5563883" lon="2.71005"><ele>945.6666666666667</ele><time>2026-04-04T12:31:51.443Z</time></trkpt><trkpt lat="43.5563783" lon="2.7097917"><ele>945.0</ele><time>2026-04-04T12:31:52.448Z</time></trkpt><trkpt lat="43.5563683" lon="2.7095767"><ele>944.0</ele><time>2026-04-04T12:31:53.446Z</time></trkpt><trkpt lat="43.5563583" lon="2.7093783"><ele>943.0</ele><time>2026-04-04T12:31:54.444Z</time></trkpt><trkpt lat="43.5563283" lon="2.7091867"><ele>942.0</ele><time>2026-04-04T12:31:55.447Z</time></trkpt><trkpt lat="43.5562783" lon="2.70899"><ele>941.0</ele><time>2026-04-04T12:31:56.447Z</time></trkpt><trkpt lat="43.5562133" lon="2.70879"><ele>940.6666666666667</ele><time>2026-04-04T12:31:57.444Z</time></trkpt><trkpt lat="43.5561383" lon="2.7085833"><ele>940.3333333333333</ele><time>2026-04-04T12:31:58.444Z</time></trkpt><trkpt lat="43.55605" lon="2.7083683"><ele>940.0</ele><time>2026-04-04T12:31:59.443Z</time></trkpt><trkpt lat="43.5559517" lon="2.7081517"><ele>940.0</ele><time>2026-04-04T12:32:00.444Z</time></trkpt><trkpt lat="43.5558467" lon="2.707975"><ele>940.0</ele><time>2026-04-04T12:32:01.444Z</time></trkpt><trkpt lat="43.5557433" lon="2.7078483"><ele>940.0</ele><time>2026-04-04T12:32:02.443Z</time></trkpt><trkpt lat="43.5556467" lon="2.7077567"><ele>940.0</ele><time>2026-04-04T12:32:03.443Z</time></trkpt><trkpt lat="43.55555" lon="2.707705"><ele>937.0</ele><time>2026-04-04T12:32:04.446Z</time></trkpt><trkpt lat="43.5554433" lon="2.7076683"><ele>934.0</ele><time>2026-04-04T12:32:05.444Z</time></trkpt><trkpt lat="43.5553133" lon="2.7076417"><ele>931.0</ele><time>2026-04-04T12:32:06.446Z</time></trkpt><trkpt lat="43.5551783" lon="2.7075883"><ele>928.0</ele><time>2026-04-04T12:32:07.444Z</time></trkpt><trkpt lat="43.555055" lon="2.7075067"><ele>928.0</ele><time>2026-04-04T12:32:08.443Z</time></trkpt><trkpt lat="43.554945" lon="2.7074017"><ele>928.0</ele><time>2026-04-04T12:32:09.446Z</time></trkpt><trkpt lat="43.5548433" lon="2.7072583"><ele>928.0</ele><time>2026-04-04T12:32:10.445Z</time></trkpt><trkpt lat="43.5547667" lon="2.7070833"><ele>928.0</ele><time>2026-04-04T12:32:11.443Z</time></trkpt><trkpt lat="43.5547017" lon="2.706905"><ele>926.0</ele><time>2026-04-04T12:32:12.444Z</time></trkpt><trkpt lat="43.5546517" lon="2.706735"><ele>924.0</ele><time>2026-04-04T12:32:13.446Z</time></trkpt><trkpt lat="43.554595" lon="2.7065917"><ele>922.0</ele><time>2026-04-04T12:32:14.447Z</time></trkpt><trkpt lat="43.5545367" lon="2.7064717"><ele>920.0</ele><time>2026-04-04T12:32:15.444Z</time></trkpt><trkpt lat="43.55449" lon="2.706355"><ele>920.0000000000001</ele><time>2026-04-04T12:32:16.445Z</time></trkpt><trkpt lat="43.5544483" lon="2.70625"><ele>920.0</ele><time>2026-04-04T12:32:17.444Z</time></trkpt><trkpt lat="43.554415" lon="2.7061517"><ele>920.0</ele><time>2026-04-04T12:32:18.444Z</time></trkpt><trkpt lat="43.5543817" lon="2.7060767"><ele>920.0</ele><time>2026-04-04T12:32:19.445Z</time></trkpt><trkpt lat="43.55431" lon="2.706005"><ele>920.0000000000001</ele><time>2026-04-04T12:32:21.444Z</time></trkpt><trkpt lat="43.5542133" lon="2.7060817"><ele>920.0</ele><time>2026-04-04T12:32:23.444Z</time></trkpt><trkpt lat="43.5541383" lon="2.7061567"><ele>920.0</ele><time>2026-04-04T12:32:24.445Z</time></trkpt><trkpt lat="43.554035" lon="2.7062283"><ele>920.0</ele><time>2026-04-04T12:32:25.447Z</time></trkpt><trkpt lat="43.55389" lon="2.7063383"><ele>920.0</ele><time>2026-04-04T12:32:26.443Z</time></trkpt><trkpt lat="43.5537467" lon="2.70645"><ele>920.0</ele><time>2026-04-04T12:32:27.444Z</time></trkpt><trkpt lat="43.553605" lon="2.7065583"><ele>924.3333333333334</ele><time>2026-04-04T12:32:28.444Z</time></trkpt><trkpt lat="43.5534533" lon="2.706695"><ele>928.6666666666667</ele><time>2026-04-04T12:32:29.447Z</time></trkpt><trkpt lat="43.5533117" lon="2.7068683"><ele>933.0</ele><time>2026-04-04T12:32:30.444Z</time></trkpt><trkpt lat="43.5531767" lon="2.7070517"><ele>934.0</ele><time>2026-04-04T12:32:31.444Z</time></trkpt><trkpt lat="43.5530533" lon="2.7072417"><ele>935.0</ele><time>2026-04-04T12:32:32.443Z</time></trkpt><trkpt lat="43.5529533" lon="2.7074267"><ele>936.0</ele><time>2026-04-04T12:32:33.443Z</time></trkpt><trkpt lat="43.5528733" lon="2.707605"><ele>935.8</ele><time>2026-04-04T12:32:34.444Z</time></trkpt><trkpt lat="43.55281" lon="2.70778"><ele>935.5999999999999</ele><time>2026-04-04T12:32:35.443Z</time></trkpt><trkpt lat="43.5527567" lon="2.7079333"><ele>935.4</ele><time>2026-04-04T12:32:36.444Z</time></trkpt><trkpt lat="43.552715" lon="2.7080367"><ele>935.2</ele><time>2026-04-04T12:32:37.445Z</time></trkpt><trkpt lat="43.5526717" lon="2.7081267"><ele>935.0</ele><time>2026-04-04T12:32:39.443Z</time></trkpt><trkpt lat="43.55274" lon="2.70804"><ele>935.0</ele><time>2026-04-04T12:32:44.447Z</time></trkpt><trkpt lat="43.5528117" lon="2.7078833"><ele>935.0</ele><time>2026-04-04T12:32:45.443Z</time></trkpt><trkpt lat="43.5528717" lon="2.7077117"><ele>935.0</ele><time>2026-04-04T12:32:46.444Z</time></trkpt><trkpt lat="43.5529333" lon="2.7075483"><ele>935.0</ele><time>2026-04-04T12:32:47.447Z</time></trkpt><trkpt lat="43.5529767" lon="2.7074217"><ele>935.0000000000001</ele><time>2026-04-04T12:32:48.444Z</time></trkpt><trkpt lat="43.55301" lon="2.707325"><ele>935.0</ele><time>2026-04-04T12:32:49.449Z</time></trkpt><trkpt lat="43.553015" lon="2.7072267"><ele>935.0</ele><time>2026-04-04T12:32:51.447Z</time></trkpt><trkpt lat="43.552945" lon="2.707255"><ele>935.0</ele><time>2026-04-04T12:32:53.444Z</time></trkpt><trkpt lat="43.55288" lon="2.7073217"><ele>935.0000000000001</ele><time>2026-04-04T12:32:54.444Z</time></trkpt><trkpt lat="43.5527867" lon="2.7074117"><ele>935.0</ele><time>2026-04-04T12:32:55.449Z</time></trkpt><trkpt lat="43.5526717" lon="2.7075383"><ele>935.0</ele><time>2026-04-04T12:32:56.447Z</time></trkpt><trkpt lat="43.5525383" lon="2.7077"><ele>935.0</ele><time>2026-04-04T12:32:57.444Z</time></trkpt><trkpt lat="43.5523967" lon="2.7078933"><ele>935.0</ele><time>2026-04-04T12:32:58.445Z</time></trkpt><trkpt lat="43.5522567" lon="2.7080983"><ele>935.0</ele><time>2026-04-04T12:32:59.443Z</time></trkpt><trkpt lat="43.5521017" lon="2.7083067"><ele>935.0</ele><time>2026-04-04T12:33:00.444Z</time></trkpt><trkpt lat="43.5519283" lon="2.70853"><ele>931.5</ele><time>2026-04-04T12:33:01.445Z</time></trkpt><trkpt lat="43.5517567" lon="2.70877"><ele>928.0</ele><time>2026-04-04T12:33:02.444Z</time></trkpt><trkpt lat="43.5516033" lon="2.709005"><ele>928.0</ele><time>2026-04-04T12:33:03.444Z</time></trkpt><trkpt lat="43.55148" lon="2.709205"><ele>928.0</ele><time>2026-04-04T12:33:04.444Z</time></trkpt><trkpt lat="43.5513667" lon="2.7093667"><ele>928.0</ele><time>2026-04-04T12:33:05.443Z</time></trkpt><trkpt lat="43.5512433" lon="2.7094983"><ele>927.3333333333333</ele><time>2026-04-04T12:33:06.444Z</time></trkpt><trkpt lat="43.5511117" lon="2.7096167"><ele>926.6666666666667</ele><time>2026-04-04T12:33:07.444Z</time></trkpt><trkpt lat="43.5509867" lon="2.7097267"><ele>926.0</ele><time>2026-04-04T12:33:08.443Z</time></trkpt><trkpt lat="43.5508583" lon="2.7098267"><ele>926.0</ele><time>2026-04-04T12:33:09.444Z</time></trkpt><trkpt lat="43.5507117" lon="2.7099167"><ele>926.0</ele><time>2026-04-04T12:33:10.445Z</time></trkpt><trkpt lat="43.5505617" lon="2.7099983"><ele>926.0</ele><time>2026-04-04T12:33:11.448Z</time></trkpt><trkpt lat="43.5504133" lon="2.710075"><ele>922.6666666666667</ele><time>2026-04-04T12:33:12.444Z</time></trkpt><trkpt lat="43.5502617" lon="2.7101667"><ele>919.3333333333333</ele><time>2026-04-04T12:33:13.446Z</time></trkpt><trkpt lat="43.550115" lon="2.7102833"><ele>916.0</ele><time>2026-04-04T12:33:14.443Z</time></trkpt><trkpt lat="43.5499583" lon="2.710405"><ele>916.0</ele><time>2026-04-04T12:33:15.443Z</time></trkpt><trkpt lat="43.54979" lon="2.7105233"><ele>916.0</ele><time>2026-04-04T12:33:16.445Z</time></trkpt><trkpt lat="43.5496183" lon="2.7106333"><ele>916.0</ele><time>2026-04-04T12:33:17.446Z</time></trkpt><trkpt lat="43.549455" lon="2.710735"><ele>915.5</ele><time>2026-04-04T12:33:18.446Z</time></trkpt><trkpt lat="43.5493067" lon="2.710825"><ele>915.0</ele><time>2026-04-04T12:33:19.444Z</time></trkpt><trkpt lat="43.54918" lon="2.7108933"><ele>914.5</ele><time>2026-04-04T12:33:20.447Z</time></trkpt><trkpt lat="43.54906" lon="2.710965"><ele>914.0</ele><time>2026-04-04T12:33:21.445Z</time></trkpt><trkpt lat="43.548935" lon="2.7110467"><ele>914.0</ele><time>2026-04-04T12:33:22.443Z</time></trkpt><trkpt lat="43.5488017" lon="2.71113"><ele>914.0</ele><time>2026-04-04T12:33:23.442Z</time></trkpt><trkpt lat="43.5486633" lon="2.711215"><ele>914.0</ele><time>2026-04-04T12:33:24.444Z</time></trkpt><trkpt lat="43.5485117" lon="2.71131"><ele>912.3333333333334</ele><time>2026-04-04T12:33:25.447Z</time></trkpt><trkpt lat="43.5483583" lon="2.7114117"><ele>910.6666666666667</ele><time>2026-04-04T12:33:26.442Z</time></trkpt><trkpt lat="43.5482117" lon="2.71152"><ele>909.0</ele><time>2026-04-04T12:33:27.446Z</time></trkpt><trkpt lat="43.54807" lon="2.7116333"><ele>909.0</ele><time>2026-04-04T12:33:28.443Z</time></trkpt><trkpt lat="43.5479267" lon="2.711755"><ele>909.0</ele><time>2026-04-04T12:33:29.443Z</time></trkpt><trkpt lat="43.547785" lon="2.7118817"><ele>909.0</ele><time>2026-04-04T12:33:30.443Z</time></trkpt><trkpt lat="43.5476467" lon="2.7120133"><ele>908.3333333333333</ele><time>2026-04-04T12:33:31.444Z</time></trkpt><trkpt lat="43.5475183" lon="2.7121483"><ele>907.6666666666666</ele><time>2026-04-04T12:33:32.445Z</time></trkpt><trkpt lat="43.547395" lon="2.7122833"><ele>907.0</ele><time>2026-04-04T12:33:33.443Z</time></trkpt><trkpt lat="43.5472917" lon="2.712405"><ele>907.0</ele><time>2026-04-04T12:33:34.443Z</time></trkpt><trkpt lat="43.5471883" lon="2.712525"><ele>907.0</ele><time>2026-04-04T12:33:35.443Z</time></trkpt><trkpt lat="43.5470783" lon="2.7126417"><ele>907.0</ele><time>2026-04-04T12:33:36.443Z</time></trkpt><trkpt lat="43.5469567" lon="2.7127567"><ele>907.0</ele><time>2026-04-04T12:33:37.444Z</time></trkpt><trkpt lat="43.54683" lon="2.71287"><ele>906.0</ele><time>2026-04-04T12:33:38.442Z</time></trkpt><trkpt lat="43.5467083" lon="2.712995"><ele>905.0</ele><time>2026-04-04T12:33:39.443Z</time></trkpt><trkpt lat="43.546595" lon="2.7131283"><ele>904.0</ele><time>2026-04-04T12:33:40.443Z</time></trkpt><trkpt lat="43.5464817" lon="2.7132567"><ele>903.0</ele><time>2026-04-04T12:33:41.443Z</time></trkpt><trkpt lat="43.5463733" lon="2.7133667"><ele>903.0</ele><time>2026-04-04T12:33:42.443Z</time></trkpt><trkpt lat="43.5462667" lon="2.7134517"><ele>903.0</ele><time>2026-04-04T12:33:43.443Z</time></trkpt><trkpt lat="43.54616" lon="2.713515"><ele>903.0</ele><time>2026-04-04T12:33:44.443Z</time></trkpt><trkpt lat="43.546045" lon="2.71358"><ele>903.0</ele><time>2026-04-04T12:33:45.443Z</time></trkpt><trkpt lat="43.545915" lon="2.7136583"><ele>902.5</ele><time>2026-04-04T12:33:46.443Z</time></trkpt><trkpt lat="43.5457783" lon="2.713765"><ele>902.0</ele><time>2026-04-04T12:33:47.443Z</time></trkpt><trkpt lat="43.545665" lon="2.7138633"><ele>901.5</ele><time>2026-04-04T12:33:48.443Z</time></trkpt><trkpt lat="43.5455583" lon="2.713935"><ele>901.0</ele><time>2026-04-04T12:33:49.444Z</time></trkpt><trkpt lat="43.5454533" lon="2.713995"><ele>902.0</ele><time>2026-04-04T12:33:50.442Z</time></trkpt><trkpt lat="43.5453467" lon="2.71405"><ele>903.0</ele><time>2026-04-04T12:33:51.445Z</time></trkpt><trkpt lat="43.54522" lon="2.714125"><ele>904.0</ele><time>2026-04-04T12:33:52.444Z</time></trkpt><trkpt lat="43.5450717" lon="2.71424"><ele>905.0</ele><time>2026-04-04T12:33:53.446Z</time></trkpt><trkpt lat="43.5449217" lon="2.7143617"><ele>904.0</ele><time>2026-04-04T12:33:54.446Z</time></trkpt><trkpt lat="43.54477" lon="2.71448"><ele>903.0</ele><time>2026-04-04T12:33:55.447Z</time></trkpt><trkpt lat="43.54461" lon="2.7145983"><ele>902.0</ele><time>2026-04-04T12:33:56.442Z</time></trkpt><trkpt lat="43.54445" lon="2.7147133"><ele>902.0</ele><time>2026-04-04T12:33:57.444Z</time></trkpt><trkpt lat="43.5442967" lon="2.7148233"><ele>902.0</ele><time>2026-04-04T12:33:58.446Z</time></trkpt><trkpt lat="43.5441583" lon="2.71493"><ele>902.0</ele><time>2026-04-04T12:33:59.442Z</time></trkpt><trkpt lat="43.5440383" lon="2.7150267"><ele>902.0</ele><time>2026-04-04T12:34:00.443Z</time></trkpt><trkpt lat="43.5439467" lon="2.715125"><ele>902.0</ele><time>2026-04-04T12:34:01.443Z</time></trkpt><trkpt lat="43.5438767" lon="2.7152333"><ele>902.0</ele><time>2026-04-04T12:34:02.443Z</time></trkpt><trkpt lat="43.5438217" lon="2.7153633"><ele>902.0</ele><time>2026-04-04T12:34:03.444Z</time></trkpt><trkpt lat="43.54376" lon="2.71551"><ele>903.5</ele><time>2026-04-04T12:34:04.445Z</time></trkpt><trkpt lat="43.5436883" lon="2.7156567"><ele>905.0</ele><time>2026-04-04T12:34:05.444Z</time></trkpt><trkpt lat="43.5435983" lon="2.715805"><ele>906.5</ele><time>2026-04-04T12:34:06.444Z</time></trkpt><trkpt lat="43.5434983" lon="2.715955"><ele>908.0</ele><time>2026-04-04T12:34:07.446Z</time></trkpt><trkpt lat="43.5433983" lon="2.7160933"><ele>904.75</ele><time>2026-04-04T12:34:08.445Z</time></trkpt><trkpt lat="43.5433083" lon="2.7162217"><ele>901.5</ele><time>2026-04-04T12:34:09.445Z</time></trkpt><trkpt lat="43.5432167" lon="2.71632"><ele>898.25</ele><time>2026-04-04T12:34:10.444Z</time></trkpt><trkpt lat="43.54311" lon="2.7163933"><ele>895.0</ele><time>2026-04-04T12:34:11.444Z</time></trkpt><trkpt lat="43.5429883" lon="2.7164517"><ele>894.9999999999999</ele><time>2026-04-04T12:34:12.442Z</time></trkpt><trkpt lat="43.5428783" lon="2.7164967"><ele>895.0</ele><time>2026-04-04T12:34:13.443Z</time></trkpt><trkpt lat="43.542795" lon="2.71652"><ele>895.0</ele><time>2026-04-04T12:34:14.442Z</time></trkpt><trkpt lat="43.5427183" lon="2.71653"><ele>895.0</ele><time>2026-04-04T12:34:15.444Z</time></trkpt><trkpt lat="43.54263" lon="2.716525"><ele>894.9999999999999</ele><time>2026-04-04T12:34:16.443Z</time></trkpt><trkpt lat="43.5425567" lon="2.716495"><ele>895.0</ele><time>2026-04-04T12:34:17.442Z</time></trkpt><trkpt lat="43.5424633" lon="2.7164683"><ele>895.0</ele><time>2026-04-04T12:34:18.443Z</time></trkpt><trkpt lat="43.5423433" lon="2.7164383"><ele>895.0</ele><time>2026-04-04T12:34:19.443Z</time></trkpt><trkpt lat="43.5422067" lon="2.7164217"><ele>895.0</ele><time>2026-04-04T12:34:20.442Z</time></trkpt><trkpt lat="43.5420817" lon="2.7163883"><ele>895.0</ele><time>2026-04-04T12:34:21.442Z</time></trkpt><trkpt lat="43.5419767" lon="2.716335"><ele>894.6</ele><time>2026-04-04T12:34:22.443Z</time></trkpt><trkpt lat="43.5418917" lon="2.7162667"><ele>894.2</ele><time>2026-04-04T12:34:23.442Z</time></trkpt><trkpt lat="43.541785" lon="2.7161833"><ele>893.8</ele><time>2026-04-04T12:34:25.443Z</time></trkpt><trkpt lat="43.5417183" lon="2.7161333"><ele>893.4</ele><time>2026-04-04T12:34:26.442Z</time></trkpt><trkpt lat="43.5416517" lon="2.7161133"><ele>893.0</ele><time>2026-04-04T12:34:27.443Z</time></trkpt><trkpt lat="43.541555" lon="2.7161167"><ele>893.0</ele><time>2026-04-04T12:34:28.443Z</time></trkpt><trkpt lat="43.541465" lon="2.7161617"><ele>893.0</ele><time>2026-04-04T12:34:29.444Z</time></trkpt><trkpt lat="43.5413617" lon="2.7162267"><ele>893.0</ele><time>2026-04-04T12:34:30.444Z</time></trkpt><trkpt lat="43.54125" lon="2.7163567"><ele>893.0</ele><time>2026-04-04T12:34:31.443Z</time></trkpt><trkpt lat="43.54116" lon="2.7165217"><ele>893.0</ele><time>2026-04-04T12:34:32.442Z</time></trkpt><trkpt lat="43.5410767" lon="2.716655"><ele>893.0</ele><time>2026-04-04T12:34:33.443Z</time></trkpt><trkpt lat="43.5409933" lon="2.7167517"><ele>893.0</ele><time>2026-04-04T12:34:34.444Z</time></trkpt><trkpt lat="43.5409217" lon="2.7168083"><ele>893.0</ele><time>2026-04-04T12:34:35.445Z</time></trkpt><trkpt lat="43.5408433" lon="2.7168467"><ele>893.0</ele><time>2026-04-04T12:34:36.443Z</time></trkpt><trkpt lat="43.5407633" lon="2.71686"><ele>893.0000000000001</ele><time>2026-04-04T12:34:37.445Z</time></trkpt><trkpt lat="43.5406783" lon="2.71685"><ele>893.0</ele><time>2026-04-04T12:34:38.443Z</time></trkpt><trkpt lat="43.540575" lon="2.7168533"><ele>893.0</ele><time>2026-04-04T12:34:39.445Z</time></trkpt><trkpt lat="43.5404917" lon="2.7168383"><ele>893.0</ele><time>2026-04-04T12:34:40.445Z</time></trkpt><trkpt lat="43.5404233" lon="2.7168"><ele>893.0000000000001</ele><time>2026-04-04T12:34:41.444Z</time></trkpt><trkpt lat="43.5403617" lon="2.7167483"><ele>893.0</ele><time>2026-04-04T12:34:42.444Z</time></trkpt><trkpt lat="43.5403267" lon="2.71667"><ele>891.4</ele><time>2026-04-04T12:34:43.445Z</time></trkpt><trkpt lat="43.5402733" lon="2.7165617"><ele>889.8</ele><time>2026-04-04T12:34:44.443Z</time></trkpt><trkpt lat="43.5402183" lon="2.7164483"><ele>888.2</ele><time>2026-04-04T12:34:45.444Z</time></trkpt><trkpt lat="43.5401667" lon="2.71633"><ele>886.6</ele><time>2026-04-04T12:34:46.444Z</time></trkpt><trkpt lat="43.54013" lon="2.7162117"><ele>885.0</ele><time>2026-04-04T12:34:47.445Z</time></trkpt><trkpt lat="43.5401033" lon="2.7161083"><ele>885.0</ele><time>2026-04-04T12:34:48.444Z</time></trkpt><trkpt lat="43.5400633" lon="2.716015"><ele>885.0</ele><time>2026-04-04T12:34:49.445Z</time></trkpt><trkpt lat="43.540025" lon="2.7159383"><ele>885.0</ele><time>2026-04-04T12:34:50.445Z</time></trkpt><trkpt lat="43.53994" lon="2.7158483"><ele>885.0</ele><time>2026-04-04T12:34:52.444Z</time></trkpt><trkpt lat="43.539835" lon="2.71596"><ele>885.0</ele><time>2026-04-04T12:34:54.444Z</time></trkpt><trkpt lat="43.5397717" lon="2.716"><ele>885.0</ele><time>2026-04-04T12:34:55.445Z</time></trkpt><trkpt lat="43.5397" lon="2.7160617"><ele>885.0</ele><time>2026-04-04T12:34:56.444Z</time></trkpt><trkpt lat="43.53962" lon="2.7161183"><ele>885.0</ele><time>2026-04-04T12:34:57.444Z</time></trkpt><trkpt lat="43.53955" lon="2.7162"><ele>885.0</ele><time>2026-04-04T12:34:58.444Z</time></trkpt><trkpt lat="43.539475" lon="2.7162617"><ele>885.0</ele><time>2026-04-04T12:34:59.445Z</time></trkpt><trkpt lat="43.5393967" lon="2.71632"><ele>885.0</ele><time>2026-04-04T12:35:00.445Z</time></trkpt><trkpt lat="43.5393117" lon="2.7163933"><ele>884.75</ele><time>2026-04-04T12:35:01.445Z</time></trkpt><trkpt lat="43.5392333" lon="2.7164883"><ele>884.5</ele><time>2026-04-04T12:35:02.444Z</time></trkpt><trkpt lat="43.5391533" lon="2.7165983"><ele>884.25</ele><time>2026-04-04T12:35:03.444Z</time></trkpt><trkpt lat="43.5390633" lon="2.7167433"><ele>884.0</ele><time>2026-04-04T12:35:04.444Z</time></trkpt><trkpt lat="43.53898" lon="2.71689"><ele>883.6666666666667</ele><time>2026-04-04T12:35:05.443Z</time></trkpt><trkpt lat="43.538885" lon="2.7170467"><ele>883.3333333333333</ele><time>2026-04-04T12:35:06.444Z</time></trkpt><trkpt lat="43.5387967" lon="2.71721"><ele>883.0</ele><time>2026-04-04T12:35:07.446Z</time></trkpt><trkpt lat="43.538715" lon="2.7174217"><ele>883.0</ele><time>2026-04-04T12:35:08.443Z</time></trkpt><trkpt lat="43.5386383" lon="2.717625"><ele>883.0</ele><time>2026-04-04T12:35:09.444Z</time></trkpt><trkpt lat="43.538575" lon="2.7178283"><ele>883.0</ele><time>2026-04-04T12:35:10.446Z</time></trkpt><trkpt lat="43.53853" lon="2.7180267"><ele>884.75</ele><time>2026-04-04T12:35:11.444Z</time></trkpt><trkpt lat="43.538495" lon="2.7182217"><ele>886.5</ele><time>2026-04-04T12:35:12.444Z</time></trkpt><trkpt lat="43.53847" lon="2.7184017"><ele>888.25</ele><time>2026-04-04T12:35:13.444Z</time></trkpt><trkpt lat="43.53844" lon="2.7185517"><ele>890.0</ele><time>2026-04-04T12:35:14.443Z</time></trkpt><trkpt lat="43.5384" lon="2.71867"><ele>891.4</ele><time>2026-04-04T12:35:15.445Z</time></trkpt><trkpt lat="43.5383417" lon="2.71879"><ele>892.8</ele><time>2026-04-04T12:35:16.445Z</time></trkpt><trkpt lat="43.5382767" lon="2.7188967"><ele>894.2</ele><time>2026-04-04T12:35:17.447Z</time></trkpt><trkpt lat="43.538215" lon="2.7189983"><ele>895.6</ele><time>2026-04-04T12:35:18.446Z</time></trkpt><trkpt lat="43.538155" lon="2.7191117"><ele>897.0</ele><time>2026-04-04T12:35:19.445Z</time></trkpt><trkpt lat="43.5380983" lon="2.7192433"><ele>897.0</ele><time>2026-04-04T12:35:20.443Z</time></trkpt><trkpt lat="43.5380483" lon="2.7193883"><ele>897.0</ele><time>2026-04-04T12:35:21.445Z</time></trkpt><trkpt lat="43.5380167" lon="2.7195233"><ele>897.0</ele><time>2026-04-04T12:35:22.445Z</time></trkpt><trkpt lat="43.5379917" lon="2.719685"><ele>897.0</ele><time>2026-04-04T12:35:23.446Z</time></trkpt><trkpt lat="43.5379583" lon="2.7198433"><ele>896.5</ele><time>2026-04-04T12:35:24.445Z</time></trkpt><trkpt lat="43.5379217" lon="2.7200067"><ele>896.0</ele><time>2026-04-04T12:35:25.445Z</time></trkpt><trkpt lat="43.53788" lon="2.7201783"><ele>895.5</ele><time>2026-04-04T12:35:26.446Z</time></trkpt><trkpt lat="43.5378517" lon="2.72035"><ele>895.0</ele><time>2026-04-04T12:35:27.444Z</time></trkpt><trkpt lat="43.5378317" lon="2.7205283"><ele>895.0</ele><time>2026-04-04T12:35:28.444Z</time></trkpt><trkpt lat="43.5378133" lon="2.7207067"><ele>895.0</ele><time>2026-04-04T12:35:29.444Z</time></trkpt><trkpt lat="43.5377983" lon="2.7208717"><ele>895.0</ele><time>2026-04-04T12:35:30.444Z</time></trkpt><trkpt lat="43.5377867" lon="2.7210433"><ele>895.0</ele><time>2026-04-04T12:35:31.444Z</time></trkpt><trkpt lat="43.5377983" lon="2.7211983"><ele>895.75</ele><time>2026-04-04T12:35:32.444Z</time></trkpt><trkpt lat="43.5378267" lon="2.7213517"><ele>896.5</ele><time>2026-04-04T12:35:33.444Z</time></trkpt><trkpt lat="43.5378817" lon="2.7214967"><ele>897.25</ele><time>2026-04-04T12:35:34.444Z</time></trkpt><trkpt lat="43.5379517" lon="2.7216333"><ele>898.0</ele><time>2026-04-04T12:35:35.445Z</time></trkpt><trkpt lat="43.538015" lon="2.7218283"><ele>898.75</ele><time>2026-04-04T12:35:36.445Z</time></trkpt><trkpt lat="43.53809" lon="2.7219867"><ele>899.5</ele><time>2026-04-04T12:35:37.444Z</time></trkpt><trkpt lat="43.5381667" lon="2.7221067"><ele>900.25</ele><time>2026-04-04T12:35:38.443Z</time></trkpt><trkpt lat="43.5382267" lon="2.72223"><ele>901.0</ele><time>2026-04-04T12:35:39.446Z</time></trkpt><trkpt lat="43.5382767" lon="2.7223483"><ele>900.9999999999999</ele><time>2026-04-04T12:35:40.447Z</time></trkpt><trkpt lat="43.5383183" lon="2.722465"><ele>901.0</ele><time>2026-04-04T12:35:41.442Z</time></trkpt><trkpt lat="43.5383533" lon="2.7225783"><ele>901.0</ele><time>2026-04-04T12:35:42.446Z</time></trkpt><trkpt lat="43.5383817" lon="2.7226883"><ele>901.0</ele><time>2026-04-04T12:35:43.448Z</time></trkpt><trkpt lat="43.5384" lon="2.7227867"><ele>900.9999999999999</ele><time>2026-04-04T12:35:44.446Z</time></trkpt><trkpt lat="43.5384083" lon="2.72288"><ele>901.0</ele><time>2026-04-04T12:35:45.444Z</time></trkpt><trkpt lat="43.53841" lon="2.72297"><ele>901.1666666666666</ele><time>2026-04-04T12:35:46.445Z</time></trkpt><trkpt lat="43.53841" lon="2.7231"><ele>901.3333333333333</ele><time>2026-04-04T12:35:48.447Z</time></trkpt><trkpt lat="43.53841" lon="2.7232083"><ele>901.5</ele><time>2026-04-04T12:35:50.447Z</time></trkpt><trkpt lat="43.538405" lon="2.7233017"><ele>901.6666666666667</ele><time>2026-04-04T12:35:52.446Z</time></trkpt><trkpt lat="43.5384" lon="2.7234017"><ele>901.8333333333334</ele><time>2026-04-04T12:35:55.448Z</time></trkpt><trkpt lat="43.5384083" lon="2.72351"><ele>902.0</ele><time>2026-04-04T12:35:58.443Z</time></trkpt><trkpt lat="43.5383967" lon="2.7236"><ele>900.6</ele><time>2026-04-04T12:36:00.442Z</time></trkpt><trkpt lat="43.5383733" lon="2.7237083"><ele>899.2</ele><time>2026-04-04T12:36:02.446Z</time></trkpt><trkpt lat="43.538325" lon="2.7238717"><ele>897.8</ele><time>2026-04-04T12:36:04.443Z</time></trkpt><trkpt lat="43.5382983" lon="2.7239733"><ele>896.4</ele><time>2026-04-04T12:36:05.443Z</time></trkpt><trkpt lat="43.5382617" lon="2.72409"><ele>895.0</ele><time>2026-04-04T12:36:06.444Z</time></trkpt><trkpt lat="43.5382183" lon="2.72423"><ele>895.0</ele><time>2026-04-04T12:36:07.445Z</time></trkpt><trkpt lat="43.5381833" lon="2.7243783"><ele>895.0</ele><time>2026-04-04T12:36:08.443Z</time></trkpt><trkpt lat="43.53816" lon="2.7245233"><ele>895.0</ele><time>2026-04-04T12:36:09.444Z</time></trkpt><trkpt lat="43.5381383" lon="2.7246533"><ele>895.0</ele><time>2026-04-04T12:36:10.444Z</time></trkpt><trkpt lat="43.53811" lon="2.7247717"><ele>895.0</ele><time>2026-04-04T12:36:11.445Z</time></trkpt><trkpt lat="43.5380667" lon="2.724885"><ele>894.3333333333333</ele><time>2026-04-04T12:36:12.446Z</time></trkpt><trkpt lat="43.5380017" lon="2.724985"><ele>893.6666666666666</ele><time>2026-04-04T12:36:13.445Z</time></trkpt><trkpt lat="43.5379383" lon="2.72507"><ele>893.0</ele><time>2026-04-04T12:36:14.443Z</time></trkpt><trkpt lat="43.537875" lon="2.7251483"><ele>892.3333333333333</ele><time>2026-04-04T12:36:15.444Z</time></trkpt><trkpt lat="43.5378167" lon="2.7252217"><ele>891.6666666666666</ele><time>2026-04-04T12:36:16.445Z</time></trkpt><trkpt lat="43.5377667" lon="2.7252983"><ele>891.0</ele><time>2026-04-04T12:36:17.445Z</time></trkpt><trkpt lat="43.5377267" lon="2.7253783"><ele>889.8333333333334</ele><time>2026-04-04T12:36:18.445Z</time></trkpt><trkpt lat="43.53769" lon="2.7254583"><ele>888.6666666666667</ele><time>2026-04-04T12:36:19.445Z</time></trkpt><trkpt lat="43.5376567" lon="2.725535"><ele>887.5</ele><time>2026-04-04T12:36:20.445Z</time></trkpt><trkpt lat="43.5376217" lon="2.72561"><ele>886.3333333333334</ele><time>2026-04-04T12:36:21.444Z</time></trkpt><trkpt lat="43.537575" lon="2.725775"><ele>885.1666666666667</ele><time>2026-04-04T12:36:23.444Z</time></trkpt><trkpt lat="43.5375683" lon="2.7258617"><ele>884.0</ele><time>2026-04-04T12:36:24.445Z</time></trkpt><trkpt lat="43.5375717" lon="2.725955"><ele>884.0000000000001</ele><time>2026-04-04T12:36:25.445Z</time></trkpt><trkpt lat="43.5375783" lon="2.7260517"><ele>884.0</ele><time>2026-04-04T12:36:26.443Z</time></trkpt><trkpt lat="43.53757" lon="2.7261533"><ele>884.0</ele><time>2026-04-04T12:36:27.445Z</time></trkpt><trkpt lat="43.5375467" lon="2.7262583"><ele>884.0</ele><time>2026-04-04T12:36:28.445Z</time></trkpt><trkpt lat="43.5375133" lon="2.7263583"><ele>884.0000000000001</ele><time>2026-04-04T12:36:29.444Z</time></trkpt><trkpt lat="43.5374733" lon="2.7264533"><ele>884.0</ele><time>2026-04-04T12:36:30.446Z</time></trkpt><trkpt lat="43.53744" lon="2.7265467"><ele>884.3333333333334</ele><time>2026-04-04T12:36:31.446Z</time></trkpt><trkpt lat="43.5374183" lon="2.7266467"><ele>884.6666666666667</ele><time>2026-04-04T12:36:32.443Z</time></trkpt><trkpt lat="43.5374133" lon="2.7267433"><ele>885.0</ele><time>2026-04-04T12:36:33.444Z</time></trkpt><trkpt lat="43.5374283" lon="2.7268467"><ele>885.3333333333333</ele><time>2026-04-04T12:36:34.444Z</time></trkpt><trkpt lat="43.53745" lon="2.7269383"><ele>885.6666666666666</ele><time>2026-04-04T12:36:35.444Z</time></trkpt><trkpt lat="43.5375033" lon="2.7270333"><ele>886.0</ele><time>2026-04-04T12:36:36.444Z</time></trkpt><trkpt lat="43.537545" lon="2.7271217"><ele>887.8</ele><time>2026-04-04T12:36:37.445Z</time></trkpt><trkpt lat="43.5375883" lon="2.7271917"><ele>889.5999999999999</ele><time>2026-04-04T12:36:38.443Z</time></trkpt><trkpt lat="43.537625" lon="2.7273267"><ele>891.4</ele><time>2026-04-04T12:36:40.444Z</time></trkpt><trkpt lat="43.537555" lon="2.72736"><ele>893.2</ele><time>2026-04-04T12:36:43.446Z</time></trkpt><trkpt lat="43.53746" lon="2.7272517"><ele>895.0</ele><time>2026-04-04T12:36:45.446Z</time></trkpt><trkpt lat="43.5373833" lon="2.727155"><ele>895.0</ele><time>2026-04-04T12:36:46.442Z</time></trkpt><trkpt lat="43.5373" lon="2.7270417"><ele>895.0</ele><time>2026-04-04T12:36:47.443Z</time></trkpt><trkpt lat="43.5372233" lon="2.7269267"><ele>895.0</ele><time>2026-04-04T12:36:48.444Z</time></trkpt><trkpt lat="43.5371417" lon="2.7268067"><ele>895.0</ele><time>2026-04-04T12:36:49.444Z</time></trkpt><trkpt lat="43.53706" lon="2.7266967"><ele>895.0</ele><time>2026-04-04T12:36:50.443Z</time></trkpt><trkpt lat="43.5369683" lon="2.7266183"><ele>895.0</ele><time>2026-04-04T12:36:51.443Z</time></trkpt><trkpt lat="43.536885" lon="2.72656"><ele>895.0</ele><time>2026-04-04T12:36:52.444Z</time></trkpt><trkpt lat="43.5367833" lon="2.72654"><ele>895.0</ele><time>2026-04-04T12:36:53.443Z</time></trkpt><trkpt lat="43.5366817" lon="2.726545"><ele>895.0</ele><time>2026-04-04T12:36:54.444Z</time></trkpt><trkpt lat="43.5365817" lon="2.7265967"><ele>895.0</ele><time>2026-04-04T12:36:55.445Z</time></trkpt><trkpt lat="43.5364833" lon="2.7266633"><ele>895.0</ele><time>2026-04-04T12:36:56.446Z</time></trkpt><trkpt lat="43.5363733" lon="2.7267583"><ele>895.0</ele><time>2026-04-04T12:36:57.444Z</time></trkpt><trkpt lat="43.5362667" lon="2.7268967"><ele>895.0</ele><time>2026-04-04T12:36:58.445Z</time></trkpt><trkpt lat="43.5361483" lon="2.7270133"><ele>898.0</ele><time>2026-04-04T12:36:59.444Z</time></trkpt><trkpt lat="43.5360167" lon="2.72713"><ele>901.0</ele><time>2026-04-04T12:37:00.443Z</time></trkpt><trkpt lat="43.535895" lon="2.7272317"><ele>904.0</ele><time>2026-04-04T12:37:01.444Z</time></trkpt><trkpt lat="43.5357883" lon="2.72731"><ele>907.0</ele><time>2026-04-04T12:37:02.444Z</time></trkpt><trkpt lat="43.5356617" lon="2.727355"><ele>907.0</ele><time>2026-04-04T12:37:03.444Z</time></trkpt><trkpt lat="43.535545" lon="2.727355"><ele>907.0</ele><time>2026-04-04T12:37:04.445Z</time></trkpt><trkpt lat="43.5354517" lon="2.727365"><ele>907.0</ele><time>2026-04-04T12:37:05.444Z</time></trkpt><trkpt lat="43.5353417" lon="2.7273167"><ele>907.0</ele><time>2026-04-04T12:37:06.444Z</time></trkpt><trkpt lat="43.5352617" lon="2.7272283"><ele>907.0</ele><time>2026-04-04T12:37:07.446Z</time></trkpt><trkpt lat="43.535165" lon="2.72715"><ele>907.5</ele><time>2026-04-04T12:37:08.443Z</time></trkpt><trkpt lat="43.5350717" lon="2.7270567"><ele>908.0</ele><time>2026-04-04T12:37:09.444Z</time></trkpt><trkpt lat="43.5349817" lon="2.72695"><ele>908.5</ele><time>2026-04-04T12:37:10.444Z</time></trkpt><trkpt lat="43.5348783" lon="2.726835"><ele>909.0</ele><time>2026-04-04T12:37:11.445Z</time></trkpt><trkpt lat="43.534775" lon="2.7267217"><ele>909.0</ele><time>2026-04-04T12:37:12.449Z</time></trkpt><trkpt lat="43.5346783" lon="2.726605"><ele>909.0000000000001</ele><time>2026-04-04T12:37:13.444Z</time></trkpt><trkpt lat="43.53459" lon="2.7265083"><ele>909.0000000000001</ele><time>2026-04-04T12:37:14.444Z</time></trkpt><trkpt lat="43.534515" lon="2.7264217"><ele>909.0</ele><time>2026-04-04T12:37:15.444Z</time></trkpt><trkpt lat="43.534425" lon="2.72636"><ele>909.0</ele><time>2026-04-04T12:37:16.444Z</time></trkpt><trkpt lat="43.5343317" lon="2.7263383"><ele>910.75</ele><time>2026-04-04T12:37:17.443Z</time></trkpt><trkpt lat="43.53423" lon="2.7263567"><ele>912.5</ele><time>2026-04-04T12:37:18.444Z</time></trkpt><trkpt lat="43.5341217" lon="2.72641"><ele>914.25</ele><time>2026-04-04T12:37:19.444Z</time></trkpt><trkpt lat="43.5340133" lon="2.726475"><ele>916.0</ele><time>2026-04-04T12:37:20.443Z</time></trkpt><trkpt lat="43.533885" lon="2.726565"><ele>916.0</ele><time>2026-04-04T12:37:21.444Z</time></trkpt><trkpt lat="43.5337583" lon="2.7266467"><ele>916.0</ele><time>2026-04-04T12:37:22.445Z</time></trkpt><trkpt lat="43.5336467" lon="2.7267117"><ele>916.0</ele><time>2026-04-04T12:37:23.443Z</time></trkpt><trkpt lat="43.533535" lon="2.726755"><ele>916.0</ele><time>2026-04-04T12:37:24.444Z</time></trkpt><trkpt lat="43.5334383" lon="2.7267583"><ele>917.25</ele><time>2026-04-04T12:37:25.444Z</time></trkpt><trkpt lat="43.5333333" lon="2.7267167"><ele>918.5</ele><time>2026-04-04T12:37:26.444Z</time></trkpt><trkpt lat="43.5332533" lon="2.726615"><ele>919.75</ele><time>2026-04-04T12:37:27.445Z</time></trkpt><trkpt lat="43.53317" lon="2.7264867"><ele>921.0</ele><time>2026-04-04T12:37:28.446Z</time></trkpt><trkpt lat="43.5330833" lon="2.7263667"><ele>921.0</ele><time>2026-04-04T12:37:29.445Z</time></trkpt><trkpt lat="43.5330333" lon="2.726185"><ele>921.0</ele><time>2026-04-04T12:37:30.445Z</time></trkpt><trkpt lat="43.5329917" lon="2.7260067"><ele>921.0</ele><time>2026-04-04T12:37:31.445Z</time></trkpt><trkpt lat="43.53293" lon="2.725865"><ele>921.0</ele><time>2026-04-04T12:37:32.443Z</time></trkpt><trkpt lat="43.5328383" lon="2.7257317"><ele>921.8333333333334</ele><time>2026-04-04T12:37:33.444Z</time></trkpt><trkpt lat="43.5327817" lon="2.7256"><ele>922.6666666666667</ele><time>2026-04-04T12:37:34.444Z</time></trkpt><trkpt lat="43.53273" lon="2.7254967"><ele>923.5</ele><time>2026-04-04T12:37:35.443Z</time></trkpt><trkpt lat="43.5326983" lon="2.725405"><ele>924.3333333333334</ele><time>2026-04-04T12:37:36.444Z</time></trkpt><trkpt lat="43.53267" lon="2.7253"><ele>925.1666666666667</ele><time>2026-04-04T12:37:37.445Z</time></trkpt><trkpt lat="43.5326633" lon="2.7251817"><ele>926.0</ele><time>2026-04-04T12:37:38.444Z</time></trkpt><trkpt lat="43.5326883" lon="2.725035"><ele>926.0</ele><time>2026-04-04T12:37:39.444Z</time></trkpt><trkpt lat="43.5328017" lon="2.7248633"><ele>926.0</ele><time>2026-04-04T12:37:40.446Z</time></trkpt><trkpt lat="43.5328883" lon="2.724685"><ele>926.0</ele><time>2026-04-04T12:37:41.446Z</time></trkpt><trkpt lat="43.5329817" lon="2.72449"><ele>923.6666666666667</ele><time>2026-04-04T12:37:42.444Z</time></trkpt><trkpt lat="43.533085" lon="2.7242733"><ele>921.3333333333333</ele><time>2026-04-04T12:37:43.444Z</time></trkpt><trkpt lat="43.53316" lon="2.724045"><ele>919.0</ele><time>2026-04-04T12:37:44.444Z</time></trkpt><trkpt lat="43.5331933" lon="2.7238183"><ele>919.0</ele><time>2026-04-04T12:37:45.443Z</time></trkpt><trkpt lat="43.5332167" lon="2.7236133"><ele>919.0</ele><time>2026-04-04T12:37:46.444Z</time></trkpt><trkpt lat="43.5332333" lon="2.7234367"><ele>919.0</ele><time>2026-04-04T12:37:47.445Z</time></trkpt><trkpt lat="43.53327" lon="2.7232733"><ele>919.0</ele><time>2026-04-04T12:37:48.446Z</time></trkpt><trkpt lat="43.533295" lon="2.7231267"><ele>919.25</ele><time>2026-04-04T12:37:49.444Z</time></trkpt><trkpt lat="43.5333517" lon="2.7230067"><ele>919.5</ele><time>2026-04-04T12:37:50.445Z</time></trkpt><trkpt lat="43.5334783" lon="2.7228883"><ele>919.75</ele><time>2026-04-04T12:37:51.444Z</time></trkpt><trkpt lat="43.5336333" lon="2.722765"><ele>920.0</ele><time>2026-04-04T12:37:52.443Z</time></trkpt><trkpt lat="43.5337817" lon="2.7226583"><ele>920.0</ele><time>2026-04-04T12:37:53.443Z</time></trkpt><trkpt lat="43.5339383" lon="2.72254"><ele>920.0</ele><time>2026-04-04T12:37:54.444Z</time></trkpt><trkpt lat="43.534105" lon="2.7224333"><ele>920.0</ele><time>2026-04-04T12:37:55.445Z</time></trkpt><trkpt lat="43.5342483" lon="2.7223317"><ele>920.0</ele><time>2026-04-04T12:37:56.443Z</time></trkpt><trkpt lat="43.53437" lon="2.7222367"><ele>920.0</ele><time>2026-04-04T12:37:57.443Z</time></trkpt><trkpt lat="43.5344883" lon="2.7221417"><ele>920.0</ele><time>2026-04-04T12:37:58.444Z</time></trkpt><trkpt lat="43.5345817" lon="2.7220517"><ele>920.0</ele><time>2026-04-04T12:37:59.444Z</time></trkpt><trkpt lat="43.5346483" lon="2.7219817"><ele>920.0</ele><time>2026-04-04T12:38:00.444Z</time></trkpt><trkpt lat="43.53472" lon="2.7219233"><ele>920.0</ele><time>2026-04-04T12:38:01.445Z</time></trkpt><trkpt lat="43.5348067" lon="2.72184"><ele>920.0</ele><time>2026-04-04T12:38:03.445Z</time></trkpt><trkpt lat="43.5347333" lon="2.7217233"><ele>920.0</ele><time>2026-04-04T12:38:07.447Z</time></trkpt><trkpt lat="43.534685" lon="2.7216567"><ele>920.0</ele><time>2026-04-04T12:38:08.443Z</time></trkpt><trkpt lat="43.53463" lon="2.721525"><ele>920.0</ele><time>2026-04-04T12:38:09.444Z</time></trkpt><trkpt lat="43.5345733" lon="2.72139"><ele>920.0</ele><time>2026-04-04T12:38:10.446Z</time></trkpt><trkpt lat="43.5345467" lon="2.721195"><ele>920.0</ele><time>2026-04-04T12:38:11.444Z</time></trkpt><trkpt lat="43.5344617" lon="2.7209967"><ele>920.0</ele><time>2026-04-04T12:38:12.445Z</time></trkpt><trkpt lat="43.5343767" lon="2.7207983"><ele>923.25</ele><time>2026-04-04T12:38:13.444Z</time></trkpt><trkpt lat="43.5343033" lon="2.7206433"><ele>926.5</ele><time>2026-04-04T12:38:14.443Z</time></trkpt><trkpt lat="43.534225" lon="2.7204717"><ele>929.75</ele><time>2026-04-04T12:38:15.444Z</time></trkpt><trkpt lat="43.5341433" lon="2.72028"><ele>933.0</ele><time>2026-04-04T12:38:16.445Z</time></trkpt><trkpt lat="43.5340783" lon="2.72009"><ele>934.0</ele><time>2026-04-04T12:38:17.445Z</time></trkpt><trkpt lat="43.5340133" lon="2.7199017"><ele>935.0</ele><time>2026-04-04T12:38:18.444Z</time></trkpt><trkpt lat="43.53394" lon="2.7197183"><ele>936.0</ele><time>2026-04-04T12:38:19.443Z</time></trkpt><trkpt lat="43.53387" lon="2.719535"><ele>937.3333333333333</ele><time>2026-04-04T12:38:20.445Z</time></trkpt><trkpt lat="43.533795" lon="2.7193583"><ele>938.6666666666666</ele><time>2026-04-04T12:38:21.445Z</time></trkpt><trkpt lat="43.5337067" lon="2.7191983"><ele>940.0</ele><time>2026-04-04T12:38:22.444Z</time></trkpt><trkpt lat="43.5336083" lon="2.7190117"><ele>943.3333333333333</ele><time>2026-04-04T12:38:23.445Z</time></trkpt><trkpt lat="43.5335083" lon="2.7188667"><ele>946.6666666666667</ele><time>2026-04-04T12:38:24.444Z</time></trkpt><trkpt lat="43.5333961" lon="2.7187346"><ele>950.0</ele><time>2026-04-04T12:38:25.444Z</time></trkpt><trkpt lat="43.5332646" lon="2.7186141"><ele>949.6666666666667</ele><time>2026-04-04T12:38:26.443Z</time></trkpt><trkpt lat="43.5331245" lon="2.7185013"><ele>949.3333333333333</ele><time>2026-04-04T12:38:27.444Z</time></trkpt><trkpt lat="43.5329846" lon="2.7184245"><ele>949.0</ele><time>2026-04-04T12:38:28.444Z</time></trkpt><trkpt lat="43.5328366" lon="2.7183646"><ele>951.5</ele><time>2026-04-04T12:38:29.443Z</time></trkpt><trkpt lat="43.5326914" lon="2.7183323"><ele>954.0</ele><time>2026-04-04T12:38:30.447Z</time></trkpt><trkpt lat="43.5325646" lon="2.7183153"><ele>956.5</ele><time>2026-04-04T12:38:31.444Z</time></trkpt><trkpt lat="43.5324472" lon="2.7182923"><ele>959.0</ele><time>2026-04-04T12:38:32.444Z</time></trkpt><trkpt lat="43.5323247" lon="2.7182404"><ele>959.0</ele><time>2026-04-04T12:38:33.444Z</time></trkpt><trkpt lat="43.5321885" lon="2.7181469"><ele>959.0</ele><time>2026-04-04T12:38:34.445Z</time></trkpt><trkpt lat="43.5320487" lon="2.7180315"><ele>959.0</ele><time>2026-04-04T12:38:35.445Z</time></trkpt><trkpt lat="43.531902" lon="2.7179022"><ele>957.6666666666667</ele><time>2026-04-04T12:38:36.444Z</time></trkpt><trkpt lat="43.53175" lon="2.7177666"><ele>956.3333333333333</ele><time>2026-04-04T12:38:37.444Z</time></trkpt><trkpt lat="43.5315954" lon="2.7176176"><ele>955.0</ele><time>2026-04-04T12:38:38.444Z</time></trkpt><trkpt lat="43.5314455" lon="2.7174607"><ele>955.0</ele><time>2026-04-04T12:38:39.449Z</time></trkpt><trkpt lat="43.5313038" lon="2.7173063"><ele>955.0</ele><time>2026-04-04T12:38:40.445Z</time></trkpt><trkpt lat="43.5311753" lon="2.7171469"><ele>955.0</ele><time>2026-04-04T12:38:41.447Z</time></trkpt><trkpt lat="43.5310587" lon="2.7169774"><ele>956.0</ele><time>2026-04-04T12:38:42.444Z</time></trkpt><trkpt lat="43.530948" lon="2.7167902"><ele>957.0</ele><time>2026-04-04T12:38:43.445Z</time></trkpt><trkpt lat="43.5308443" lon="2.7165896"><ele>958.0</ele><time>2026-04-04T12:38:44.444Z</time></trkpt><trkpt lat="43.530737" lon="2.7163817"><ele>958.0</ele><time>2026-04-04T12:38:45.444Z</time></trkpt><trkpt lat="43.5306402" lon="2.7161903"><ele>958.0</ele><time>2026-04-04T12:38:46.444Z</time></trkpt><trkpt lat="43.5305542" lon="2.7160091"><ele>958.0</ele><time>2026-04-04T12:38:47.443Z</time></trkpt><trkpt lat="43.5304752" lon="2.715841"><ele>959.5</ele><time>2026-04-04T12:38:48.444Z</time></trkpt><trkpt lat="43.5303969" lon="2.7156752"><ele>961.0</ele><time>2026-04-04T12:38:49.446Z</time></trkpt><trkpt lat="43.5303284" lon="2.7155251"><ele>962.5</ele><time>2026-04-04T12:38:50.444Z</time></trkpt><trkpt lat="43.5302599" lon="2.715386"><ele>964.0</ele><time>2026-04-04T12:38:51.446Z</time></trkpt><trkpt lat="43.5301978" lon="2.7152531"><ele>962.1666666666666</ele><time>2026-04-04T12:38:52.445Z</time></trkpt><trkpt lat="43.5301414" lon="2.7151334"><ele>960.3333333333333</ele><time>2026-04-04T12:38:53.447Z</time></trkpt><trkpt lat="43.5300909" lon="2.7150304"><ele>958.5</ele><time>2026-04-04T12:38:54.444Z</time></trkpt><trkpt lat="43.5300395" lon="2.7149417"><ele>956.6666666666667</ele><time>2026-04-04T12:38:55.445Z</time></trkpt><trkpt lat="43.5299735" lon="2.7148651"><ele>954.8333333333334</ele><time>2026-04-04T12:38:56.443Z</time></trkpt><trkpt lat="43.529899" lon="2.714808"><ele>953.0</ele><time>2026-04-04T12:38:57.446Z</time></trkpt><trkpt lat="43.5298231" lon="2.7147583"><ele>953.0</ele><time>2026-04-04T12:38:58.447Z</time></trkpt><trkpt lat="43.5297498" lon="2.714725"><ele>953.0</ele><time>2026-04-04T12:38:59.445Z</time></trkpt><trkpt lat="43.5296696" lon="2.7146965"><ele>953.0</ele><time>2026-04-04T12:39:00.444Z</time></trkpt><trkpt lat="43.5295786" lon="2.7146777"><ele>953.0</ele><time>2026-04-04T12:39:01.446Z</time></trkpt><trkpt lat="43.5294743" lon="2.7146717"><ele>953.0</ele><time>2026-04-04T12:39:02.444Z</time></trkpt><trkpt lat="43.5293689" lon="2.714665"><ele>954.75</ele><time>2026-04-04T12:39:03.444Z</time></trkpt><trkpt lat="43.5292496" lon="2.7146578"><ele>956.5</ele><time>2026-04-04T12:39:04.445Z</time></trkpt><trkpt lat="43.5291342" lon="2.7146686"><ele>958.25</ele><time>2026-04-04T12:39:05.444Z</time></trkpt><trkpt lat="43.5290127" lon="2.7146882"><ele>960.0</ele><time>2026-04-04T12:39:06.445Z</time></trkpt><trkpt lat="43.5288912" lon="2.7147142"><ele>960.0</ele><time>2026-04-04T12:39:07.445Z</time></trkpt><trkpt lat="43.5287637" lon="2.7147325"><ele>960.0</ele><time>2026-04-04T12:39:08.445Z</time></trkpt><trkpt lat="43.5286281" lon="2.7147488"><ele>960.0</ele><time>2026-04-04T12:39:09.445Z</time></trkpt><trkpt lat="43.5284912" lon="2.7147436"><ele>960.0</ele><time>2026-04-04T12:39:10.444Z</time></trkpt><trkpt lat="43.5283615" lon="2.7147059"><ele>960.25</ele><time>2026-04-04T12:39:11.443Z</time></trkpt><trkpt lat="43.5282688" lon="2.714669"><ele>960.5</ele><time>2026-04-04T12:39:12.445Z</time></trkpt><trkpt lat="43.5281783" lon="2.7145999"><ele>960.75</ele><time>2026-04-04T12:39:13.445Z</time></trkpt><trkpt lat="43.5280641" lon="2.7144874"><ele>961.0</ele><time>2026-04-04T12:39:14.444Z</time></trkpt><trkpt lat="43.5279464" lon="2.7143704"><ele>963.75</ele><time>2026-04-04T12:39:15.444Z</time></trkpt><trkpt lat="43.5278268" lon="2.7142699"><ele>966.5</ele><time>2026-04-04T12:39:16.444Z</time></trkpt><trkpt lat="43.527704" lon="2.7141939"><ele>969.25</ele><time>2026-04-04T12:39:17.445Z</time></trkpt><trkpt lat="43.5275793" lon="2.7141412"><ele>972.0</ele><time>2026-04-04T12:39:18.444Z</time></trkpt><trkpt lat="43.5274554" lon="2.7141134"><ele>972.0</ele><time>2026-04-04T12:39:19.445Z</time></trkpt><trkpt lat="43.5273133" lon="2.714083"><ele>972.0</ele><time>2026-04-04T12:39:20.443Z</time></trkpt><trkpt lat="43.5271872" lon="2.7140852"><ele>972.0</ele><time>2026-04-04T12:39:21.445Z</time></trkpt><trkpt lat="43.527051" lon="2.7141198"><ele>972.0</ele><time>2026-04-04T12:39:22.446Z</time></trkpt><trkpt lat="43.5269229" lon="2.7142048"><ele>974.25</ele><time>2026-04-04T12:39:23.444Z</time></trkpt><trkpt lat="43.5267813" lon="2.7142872"><ele>976.5</ele><time>2026-04-04T12:39:24.445Z</time></trkpt><trkpt lat="43.5266466" lon="2.7143568"><ele>978.75</ele><time>2026-04-04T12:39:25.447Z</time></trkpt><trkpt lat="43.5265085" lon="2.7144037"><ele>981.0</ele><time>2026-04-04T12:39:26.444Z</time></trkpt><trkpt lat="43.5263667" lon="2.7144393"><ele>983.5</ele><time>2026-04-04T12:39:27.444Z</time></trkpt><trkpt lat="43.5262204" lon="2.7144671"><ele>986.0</ele><time>2026-04-04T12:39:28.445Z</time></trkpt><trkpt lat="43.5260716" lon="2.7144879"><ele>988.5</ele><time>2026-04-04T12:39:29.444Z</time></trkpt><trkpt lat="43.5259235" lon="2.714512"><ele>991.0</ele><time>2026-04-04T12:39:30.445Z</time></trkpt><trkpt lat="43.5257722" lon="2.7145466"><ele>991.0</ele><time>2026-04-04T12:39:31.446Z</time></trkpt><trkpt lat="43.5256152" lon="2.7145727"><ele>991.0</ele><time>2026-04-04T12:39:32.444Z</time></trkpt><trkpt lat="43.5254565" lon="2.7145884"><ele>991.0</ele><time>2026-04-04T12:39:33.446Z</time></trkpt><trkpt lat="43.5252939" lon="2.7145938"><ele>994.3333333333333</ele><time>2026-04-04T12:39:34.445Z</time></trkpt><trkpt lat="43.5251419" lon="2.7145917"><ele>997.6666666666667</ele><time>2026-04-04T12:39:35.443Z</time></trkpt><trkpt lat="43.5249919" lon="2.7145823"><ele>1001.0</ele><time>2026-04-04T12:39:36.444Z</time></trkpt><trkpt lat="43.5248462" lon="2.7145463"><ele>1001.0</ele><time>2026-04-04T12:39:37.444Z</time></trkpt><trkpt lat="43.5246956" lon="2.7144728"><ele>1001.0</ele><time>2026-04-04T12:39:38.444Z</time></trkpt><trkpt lat="43.5245442" lon="2.7143822"><ele>1001.0</ele><time>2026-04-04T12:39:39.444Z</time></trkpt><trkpt lat="43.5243906" lon="2.7143078"><ele>1002.6666666666667</ele><time>2026-04-04T12:39:40.444Z</time></trkpt><trkpt lat="43.5242258" lon="2.7142365"><ele>1004.3333333333333</ele><time>2026-04-04T12:39:41.445Z</time></trkpt><trkpt lat="43.5240224" lon="2.7141823"><ele>1006.0</ele><time>2026-04-04T12:39:42.444Z</time></trkpt><trkpt lat="43.523826" lon="2.7141192"><ele>1004.3333333333333</ele><time>2026-04-04T12:39:43.444Z</time></trkpt><trkpt lat="43.5236362" lon="2.7140428"><ele>1002.6666666666667</ele><time>2026-04-04T12:39:44.443Z</time></trkpt><trkpt lat="43.523464" lon="2.7139571"><ele>1001.0</ele><time>2026-04-04T12:39:45.444Z</time></trkpt><trkpt lat="43.5233064" lon="2.7138533"><ele>1001.0</ele><time>2026-04-04T12:39:46.444Z</time></trkpt><trkpt lat="43.5231556" lon="2.7137377"><ele>1001.0</ele><time>2026-04-04T12:39:47.445Z</time></trkpt><trkpt lat="43.5230049" lon="2.7136265"><ele>1001.0</ele><time>2026-04-04T12:39:48.444Z</time></trkpt><trkpt lat="43.5228562" lon="2.7135393"><ele>1000.3333333333334</ele><time>2026-04-04T12:39:49.445Z</time></trkpt><trkpt lat="43.5226901" lon="2.7134761"><ele>999.6666666666667</ele><time>2026-04-04T12:39:50.444Z</time></trkpt><trkpt lat="43.5225172" lon="2.7134446"><ele>999.0</ele><time>2026-04-04T12:39:51.446Z</time></trkpt><trkpt lat="43.5223456" lon="2.7134361"><ele>999.0</ele><time>2026-04-04T12:39:52.444Z</time></trkpt><trkpt lat="43.5221735" lon="2.7134358"><ele>999.0</ele><time>2026-04-04T12:39:53.444Z</time></trkpt><trkpt lat="43.522007" lon="2.7134222"><ele>999.0</ele><time>2026-04-04T12:39:54.444Z</time></trkpt><trkpt lat="43.5218508" lon="2.7133966"><ele>996.25</ele><time>2026-04-04T12:39:55.446Z</time></trkpt><trkpt lat="43.5217046" lon="2.7133617"><ele>993.5</ele><time>2026-04-04T12:39:56.445Z</time></trkpt><trkpt lat="43.521564" lon="2.7133103"><ele>990.75</ele><time>2026-04-04T12:39:57.445Z</time></trkpt><trkpt lat="43.5214222" lon="2.7132588"><ele>988.0</ele><time>2026-04-04T12:39:58.446Z</time></trkpt><trkpt lat="43.5212952" lon="2.71322"><ele>986.0</ele><time>2026-04-04T12:39:59.446Z</time></trkpt><trkpt lat="43.521178" lon="2.7131796"><ele>984.0</ele><time>2026-04-04T12:40:00.446Z</time></trkpt><trkpt lat="43.5210737" lon="2.7131109"><ele>982.0</ele><time>2026-04-04T12:40:01.445Z</time></trkpt><trkpt lat="43.5209921" lon="2.7130244"><ele>980.0</ele><time>2026-04-04T12:40:02.444Z</time></trkpt><trkpt lat="43.5209378" lon="2.7129223"><ele>978.0</ele><time>2026-04-04T12:40:03.444Z</time></trkpt><trkpt lat="43.5209021" lon="2.712796"><ele>978.25</ele><time>2026-04-04T12:40:04.445Z</time></trkpt><trkpt lat="43.5208833" lon="2.7126283"><ele>978.5</ele><time>2026-04-04T12:40:05.446Z</time></trkpt><trkpt lat="43.5208683" lon="2.7124617"><ele>978.75</ele><time>2026-04-04T12:40:06.444Z</time></trkpt><trkpt lat="43.5208583" lon="2.7122833"><ele>979.0</ele><time>2026-04-04T12:40:07.444Z</time></trkpt><trkpt lat="43.5208533" lon="2.7120867"><ele>978.25</ele><time>2026-04-04T12:40:08.444Z</time></trkpt><trkpt lat="43.5208517" lon="2.7118917"><ele>977.5</ele><time>2026-04-04T12:40:09.444Z</time></trkpt><trkpt lat="43.5208767" lon="2.711715"><ele>976.75</ele><time>2026-04-04T12:40:10.445Z</time></trkpt><trkpt lat="43.5208983" lon="2.71154"><ele>976.0</ele><time>2026-04-04T12:40:11.446Z</time></trkpt><trkpt lat="43.5209217" lon="2.7113717"><ele>976.0</ele><time>2026-04-04T12:40:12.445Z</time></trkpt><trkpt lat="43.5209533" lon="2.711205"><ele>976.0</ele><time>2026-04-04T12:40:13.446Z</time></trkpt><trkpt lat="43.5209933" lon="2.7110133"><ele>976.0</ele><time>2026-04-04T12:40:14.443Z</time></trkpt><trkpt lat="43.5210467" lon="2.71081"><ele>976.0</ele><time>2026-04-04T12:40:15.446Z</time></trkpt><trkpt lat="43.521105" lon="2.7106217"><ele>974.1999999999999</ele><time>2026-04-04T12:40:16.445Z</time></trkpt><trkpt lat="43.521155" lon="2.710465"><ele>972.3999999999999</ele><time>2026-04-04T12:40:17.444Z</time></trkpt><trkpt lat="43.5212083" lon="2.710315"><ele>970.6</ele><time>2026-04-04T12:40:18.446Z</time></trkpt><trkpt lat="43.521225" lon="2.710185"><ele>968.8</ele><time>2026-04-04T12:40:19.449Z</time></trkpt><trkpt lat="43.521225" lon="2.7100633"><ele>967.0</ele><time>2026-04-04T12:40:20.444Z</time></trkpt><trkpt lat="43.5212033" lon="2.7099667"><ele>966.3333333333333</ele><time>2026-04-04T12:40:21.444Z</time></trkpt><trkpt lat="43.521195" lon="2.70987"><ele>965.6666666666666</ele><time>2026-04-04T12:40:22.447Z</time></trkpt><trkpt lat="43.5211517" lon="2.709775"><ele>965.0</ele><time>2026-04-04T12:40:23.445Z</time></trkpt><trkpt lat="43.5211117" lon="2.7097033"><ele>964.3333333333333</ele><time>2026-04-04T12:40:24.446Z</time></trkpt><trkpt lat="43.5210283" lon="2.7096417"><ele>963.6666666666666</ele><time>2026-04-04T12:40:25.444Z</time></trkpt><trkpt lat="43.5209433" lon="2.709565"><ele>963.0</ele><time>2026-04-04T12:40:26.444Z</time></trkpt><trkpt lat="43.5208233" lon="2.709515"><ele>963.0</ele><time>2026-04-04T12:40:27.445Z</time></trkpt><trkpt lat="43.52064" lon="2.7094833"><ele>963.0</ele><time>2026-04-04T12:40:28.445Z</time></trkpt><trkpt lat="43.5204333" lon="2.709455"><ele>963.0</ele><time>2026-04-04T12:40:29.444Z</time></trkpt><trkpt lat="43.5202333" lon="2.7094467"><ele>964.5</ele><time>2026-04-04T12:40:30.445Z</time></trkpt><trkpt lat="43.5200767" lon="2.7094367"><ele>966.0</ele><time>2026-04-04T12:40:31.443Z</time></trkpt><trkpt lat="43.5199267" lon="2.7094183"><ele>967.5</ele><time>2026-04-04T12:40:32.444Z</time></trkpt><trkpt lat="43.5198017" lon="2.7093667"><ele>969.0</ele><time>2026-04-04T12:40:33.443Z</time></trkpt><trkpt lat="43.5196867" lon="2.7092917"><ele>969.0</ele><time>2026-04-04T12:40:34.443Z</time></trkpt><trkpt lat="43.5196017" lon="2.70918"><ele>969.0</ele><time>2026-04-04T12:40:35.443Z</time></trkpt><trkpt lat="43.5195217" lon="2.7090467"><ele>969.0</ele><time>2026-04-04T12:40:36.443Z</time></trkpt><trkpt lat="43.51948" lon="2.70891"><ele>969.0</ele><time>2026-04-04T12:40:37.444Z</time></trkpt><trkpt lat="43.5194533" lon="2.70875"><ele>965.5</ele><time>2026-04-04T12:40:38.443Z</time></trkpt><trkpt lat="43.5194267" lon="2.708595"><ele>962.0</ele><time>2026-04-04T12:40:39.444Z</time></trkpt><trkpt lat="43.5194017" lon="2.708445"><ele>958.5</ele><time>2026-04-04T12:40:40.443Z</time></trkpt><trkpt lat="43.5193783" lon="2.7082617"><ele>955.0</ele><time>2026-04-04T12:40:41.442Z</time></trkpt><trkpt lat="43.5193433" lon="2.70805"><ele>955.0</ele><time>2026-04-04T12:40:42.443Z</time></trkpt><trkpt lat="43.5193133" lon="2.70785"><ele>955.0</ele><time>2026-04-04T12:40:43.445Z</time></trkpt><trkpt lat="43.5193067" lon="2.7076633"><ele>955.0</ele><time>2026-04-04T12:40:44.442Z</time></trkpt><trkpt lat="43.519305" lon="2.7074833"><ele>955.0</ele><time>2026-04-04T12:40:45.444Z</time></trkpt><trkpt lat="43.5193017" lon="2.707305"><ele>954.5</ele><time>2026-04-04T12:40:46.444Z</time></trkpt><trkpt lat="43.519305" lon="2.70713"><ele>954.0</ele><time>2026-04-04T12:40:47.442Z</time></trkpt><trkpt lat="43.519305" lon="2.70695"><ele>953.5</ele><time>2026-04-04T12:40:48.444Z</time></trkpt><trkpt lat="43.5193017" lon="2.7067683"><ele>953.0</ele><time>2026-04-04T12:40:49.444Z</time></trkpt><trkpt lat="43.5192933" lon="2.7066"><ele>953.0</ele><time>2026-04-04T12:40:50.442Z</time></trkpt><trkpt lat="43.5192283" lon="2.7064017"><ele>953.0</ele><time>2026-04-04T12:40:51.443Z</time></trkpt><trkpt lat="43.51919" lon="2.7062467"><ele>953.0</ele><time>2026-04-04T12:40:52.444Z</time></trkpt><trkpt lat="43.5191017" lon="2.706085"><ele>953.0</ele><time>2026-04-04T12:40:53.443Z</time></trkpt><trkpt lat="43.5190133" lon="2.70595"><ele>953.0</ele><time>2026-04-04T12:40:54.443Z</time></trkpt><trkpt lat="43.5189167" lon="2.7058267"><ele>953.0</ele><time>2026-04-04T12:40:55.443Z</time></trkpt><trkpt lat="43.5188267" lon="2.7057283"><ele>953.0</ele><time>2026-04-04T12:40:56.442Z</time></trkpt><trkpt lat="43.5187533" lon="2.7056567"><ele>953.0</ele><time>2026-04-04T12:40:57.443Z</time></trkpt><trkpt lat="43.518695" lon="2.705595"><ele>953.0</ele><time>2026-04-04T12:40:58.444Z</time></trkpt><trkpt lat="43.518615" lon="2.7055017"><ele>951.4</ele><time>2026-04-04T12:41:00.443Z</time></trkpt><trkpt lat="43.5185283" lon="2.7055017"><ele>949.8</ele><time>2026-04-04T12:41:03.443Z</time></trkpt><trkpt lat="43.51844" lon="2.7056067"><ele>948.2</ele><time>2026-04-04T12:41:05.443Z</time></trkpt><trkpt lat="43.518395" lon="2.7057083"><ele>946.6</ele><time>2026-04-04T12:41:06.445Z</time></trkpt><trkpt lat="43.5183517" lon="2.7058517"><ele>945.0</ele><time>2026-04-04T12:41:07.444Z</time></trkpt><trkpt lat="43.5182917" lon="2.7060417"><ele>943.0</ele><time>2026-04-04T12:41:08.443Z</time></trkpt><trkpt lat="43.5182283" lon="2.7062683"><ele>941.0</ele><time>2026-04-04T12:41:09.443Z</time></trkpt><trkpt lat="43.5181733" lon="2.706485"><ele>939.0</ele><time>2026-04-04T12:41:10.446Z</time></trkpt><trkpt lat="43.5181133" lon="2.7067133"><ele>938.0</ele><time>2026-04-04T12:41:11.444Z</time></trkpt><trkpt lat="43.5180367" lon="2.7069433"><ele>937.0</ele><time>2026-04-04T12:41:12.443Z</time></trkpt><trkpt lat="43.5179433" lon="2.7071783"><ele>936.0</ele><time>2026-04-04T12:41:13.444Z</time></trkpt><trkpt lat="43.5178467" lon="2.70742"><ele>933.0</ele><time>2026-04-04T12:41:14.446Z</time></trkpt><trkpt lat="43.5177483" lon="2.7076617"><ele>930.0</ele><time>2026-04-04T12:41:15.447Z</time></trkpt><trkpt lat="43.5176417" lon="2.7078917"><ele>927.0</ele><time>2026-04-04T12:41:16.447Z</time></trkpt><trkpt lat="43.5175433" lon="2.708115"><ele>925.0</ele><time>2026-04-04T12:41:17.442Z</time></trkpt><trkpt lat="43.5174683" lon="2.7083317"><ele>923.0</ele><time>2026-04-04T12:41:18.444Z</time></trkpt><trkpt lat="43.51744" lon="2.7085367"><ele>921.0</ele><time>2026-04-04T12:41:19.447Z</time></trkpt><trkpt lat="43.5174467" lon="2.7087333"><ele>917.5</ele><time>2026-04-04T12:41:20.446Z</time></trkpt><trkpt lat="43.51748" lon="2.7089083"><ele>914.0</ele><time>2026-04-04T12:41:21.445Z</time></trkpt><trkpt lat="43.5175433" lon="2.7090683"><ele>910.5</ele><time>2026-04-04T12:41:22.446Z</time></trkpt><trkpt lat="43.5176417" lon="2.7091917"><ele>907.0</ele><time>2026-04-04T12:41:23.444Z</time></trkpt><trkpt lat="43.51776" lon="2.7092883"><ele>907.0</ele><time>2026-04-04T12:41:24.446Z</time></trkpt><trkpt lat="43.51789" lon="2.7093767"><ele>907.0</ele><time>2026-04-04T12:41:25.443Z</time></trkpt><trkpt lat="43.5180133" lon="2.7094633"><ele>907.0</ele><time>2026-04-04T12:41:26.443Z</time></trkpt><trkpt lat="43.518125" lon="2.7095433"><ele>907.0</ele><time>2026-04-04T12:41:27.443Z</time></trkpt><trkpt lat="43.51822" lon="2.7096317"><ele>908.6666666666666</ele><time>2026-04-04T12:41:28.446Z</time></trkpt><trkpt lat="43.518295" lon="2.709725"><ele>910.3333333333333</ele><time>2026-04-04T12:41:29.442Z</time></trkpt><trkpt lat="43.5183467" lon="2.7098267"><ele>912.0</ele><time>2026-04-04T12:41:30.443Z</time></trkpt><trkpt lat="43.51838" lon="2.709935"><ele>913.6666666666667</ele><time>2026-04-04T12:41:31.444Z</time></trkpt><trkpt lat="43.5183867" lon="2.7100517"><ele>915.3333333333334</ele><time>2026-04-04T12:41:32.442Z</time></trkpt><trkpt lat="43.51837" lon="2.7101483"><ele>917.0</ele><time>2026-04-04T12:41:33.446Z</time></trkpt><trkpt lat="43.518335" lon="2.7102417"><ele>919.6666666666667</ele><time>2026-04-04T12:41:34.444Z</time></trkpt><trkpt lat="43.5182433" lon="2.71036"><ele>922.3333333333333</ele><time>2026-04-04T12:41:35.444Z</time></trkpt><trkpt lat="43.51806" lon="2.7104783"><ele>925.0</ele><time>2026-04-04T12:41:36.445Z</time></trkpt><trkpt lat="43.5178917" lon="2.7106133"><ele>917.0</ele><time>2026-04-04T12:41:37.443Z</time></trkpt><trkpt lat="43.51776" lon="2.7107633"><ele>909.0</ele><time>2026-04-04T12:41:38.443Z</time></trkpt><trkpt lat="43.517635" lon="2.7109167"><ele>901.0</ele><time>2026-04-04T12:41:39.443Z</time></trkpt><trkpt lat="43.5175117" lon="2.7110683"><ele>906.0</ele><time>2026-04-04T12:41:40.444Z</time></trkpt><trkpt lat="43.5174017" lon="2.7112217"><ele>911.0</ele><time>2026-04-04T12:41:41.444Z</time></trkpt><trkpt lat="43.5172933" lon="2.7113783"><ele>916.0</ele><time>2026-04-04T12:41:42.444Z</time></trkpt><trkpt lat="43.5172017" lon="2.711535"><ele>916.0</ele><time>2026-04-04T12:41:43.443Z</time></trkpt><trkpt lat="43.5171183" lon="2.7116933"><ele>916.0</ele><time>2026-04-04T12:41:44.443Z</time></trkpt><trkpt lat="43.5170367" lon="2.711855"><ele>916.0</ele><time>2026-04-04T12:41:45.444Z</time></trkpt><trkpt lat="43.5169717" lon="2.7119933"><ele>916.0</ele><time>2026-04-04T12:41:46.443Z</time></trkpt><trkpt lat="43.5169033" lon="2.712115"><ele>913.8333333333333</ele><time>2026-04-04T12:41:47.447Z</time></trkpt><trkpt lat="43.5168333" lon="2.712185"><ele>911.6666666666666</ele><time>2026-04-04T12:41:48.443Z</time></trkpt><trkpt lat="43.5167583" lon="2.7122283"><ele>909.5</ele><time>2026-04-04T12:41:49.444Z</time></trkpt><trkpt lat="43.516685" lon="2.7122383"><ele>907.3333333333333</ele><time>2026-04-04T12:41:50.442Z</time></trkpt><trkpt lat="43.5166167" lon="2.7122033"><ele>905.1666666666666</ele><time>2026-04-04T12:41:51.445Z</time></trkpt><trkpt lat="43.51656" lon="2.71211"><ele>903.0</ele><time>2026-04-04T12:41:52.445Z</time></trkpt><trkpt lat="43.51653" lon="2.71199"><ele>900.0</ele><time>2026-04-04T12:41:53.444Z</time></trkpt><trkpt lat="43.51654" lon="2.7118217"><ele>897.0</ele><time>2026-04-04T12:41:54.444Z</time></trkpt><trkpt lat="43.5165417" lon="2.7116333"><ele>894.0</ele><time>2026-04-04T12:41:55.446Z</time></trkpt><trkpt lat="43.5165083" lon="2.71148"><ele>891.0</ele><time>2026-04-04T12:41:56.443Z</time></trkpt><trkpt lat="43.51644" lon="2.711345"><ele>891.0</ele><time>2026-04-04T12:41:57.444Z</time></trkpt><trkpt lat="43.5163617" lon="2.7112567"><ele>890.9999999999999</ele><time>2026-04-04T12:41:58.446Z</time></trkpt><trkpt lat="43.5162717" lon="2.7112117"><ele>890.9999999999999</ele><time>2026-04-04T12:41:59.446Z</time></trkpt><trkpt lat="43.5161733" lon="2.7111883"><ele>891.0</ele><time>2026-04-04T12:42:00.443Z</time></trkpt><trkpt lat="43.5160667" lon="2.7112233"><ele>891.0</ele><time>2026-04-04T12:42:01.443Z</time></trkpt><trkpt lat="43.515965" lon="2.71131"><ele>887.5</ele><time>2026-04-04T12:42:02.442Z</time></trkpt><trkpt lat="43.5158583" lon="2.711415"><ele>884.0</ele><time>2026-04-04T12:42:03.443Z</time></trkpt><trkpt lat="43.5157517" lon="2.7115067"><ele>880.5</ele><time>2026-04-04T12:42:04.444Z</time></trkpt><trkpt lat="43.51564" lon="2.7115917"><ele>877.0</ele><time>2026-04-04T12:42:05.443Z</time></trkpt><trkpt lat="43.5155267" lon="2.71167"><ele>877.0</ele><time>2026-04-04T12:42:06.444Z</time></trkpt><trkpt lat="43.515405" lon="2.7117533"><ele>877.0</ele><time>2026-04-04T12:42:07.445Z</time></trkpt><trkpt lat="43.51528" lon="2.71185"><ele>877.0</ele><time>2026-04-04T12:42:08.444Z</time></trkpt><trkpt lat="43.51515" lon="2.7119617"><ele>877.0</ele><time>2026-04-04T12:42:09.443Z</time></trkpt><trkpt lat="43.5150217" lon="2.7121067"><ele>875.6666666666666</ele><time>2026-04-04T12:42:10.443Z</time></trkpt><trkpt lat="43.514885" lon="2.712265"><ele>874.3333333333333</ele><time>2026-04-04T12:42:11.443Z</time></trkpt><trkpt lat="43.5147617" lon="2.7124217"><ele>873.0</ele><time>2026-04-04T12:42:12.444Z</time></trkpt><trkpt lat="43.5143067" lon="2.7132667"><ele>859.0</ele><time>2026-04-04T12:42:17.444Z</time></trkpt><trkpt lat="43.5142283" lon="2.7134417"><ele>845.0</ele><time>2026-04-04T12:42:18.444Z</time></trkpt><trkpt lat="43.5136067" lon="2.7147417"><ele>842.5</ele><time>2026-04-04T12:42:26.444Z</time></trkpt><trkpt lat="43.5135217" lon="2.7148917"><ele>840.0</ele><time>2026-04-04T12:42:27.444Z</time></trkpt><trkpt lat="43.51329" lon="2.7153883"><ele>840.0</ele><time>2026-04-04T12:42:30.443Z</time></trkpt><trkpt lat="43.5132117" lon="2.7155767"><ele>840.0</ele><time>2026-04-04T12:42:31.443Z</time></trkpt><trkpt lat="43.51314" lon="2.7157633"><ele>840.0</ele><time>2026-04-04T12:42:32.443Z</time></trkpt><trkpt lat="43.5130783" lon="2.715945"><ele>840.0</ele><time>2026-04-04T12:42:33.444Z</time></trkpt><trkpt lat="43.513015" lon="2.71612"><ele>840.0</ele><time>2026-04-04T12:42:34.444Z</time></trkpt><trkpt lat="43.5129467" lon="2.716285"><ele>840.0</ele><time>2026-04-04T12:42:35.443Z</time></trkpt><trkpt lat="43.512865" lon="2.7164333"><ele>840.0</ele><time>2026-04-04T12:42:36.446Z</time></trkpt><trkpt lat="43.512775" lon="2.7165567"><ele>835.6</ele><time>2026-04-04T12:42:37.443Z</time></trkpt><trkpt lat="43.5126867" lon="2.7166667"><ele>831.2</ele><time>2026-04-04T12:42:38.444Z</time></trkpt><trkpt lat="43.5126133" lon="2.71676"><ele>826.8</ele><time>2026-04-04T12:42:39.443Z</time></trkpt><trkpt lat="43.5125783" lon="2.71685"><ele>822.4</ele><time>2026-04-04T12:42:40.447Z</time></trkpt><trkpt lat="43.5125933" lon="2.71702"><ele>818.0</ele><time>2026-04-04T12:42:42.446Z</time></trkpt><trkpt lat="43.512645" lon="2.7170967"><ele>818.5999999999999</ele><time>2026-04-04T12:42:43.443Z</time></trkpt><trkpt lat="43.5126883" lon="2.7171717"><ele>819.1999999999999</ele><time>2026-04-04T12:42:44.443Z</time></trkpt><trkpt lat="43.512755" lon="2.7172367"><ele>819.8</ele><time>2026-04-04T12:42:45.443Z</time></trkpt><trkpt lat="43.5128583" lon="2.7172917"><ele>820.4</ele><time>2026-04-04T12:42:46.444Z</time></trkpt><trkpt lat="43.5129783" lon="2.717335"><ele>821.0</ele><time>2026-04-04T12:42:47.444Z</time></trkpt><trkpt lat="43.513125" lon="2.7173633"><ele>821.0</ele><time>2026-04-04T12:42:48.443Z</time></trkpt><trkpt lat="43.5132583" lon="2.7174017"><ele>821.0</ele><time>2026-04-04T12:42:49.446Z</time></trkpt><trkpt lat="43.5133967" lon="2.71745"><ele>821.0</ele><time>2026-04-04T12:42:50.444Z</time></trkpt><trkpt lat="43.5135283" lon="2.7174983"><ele>821.0</ele><time>2026-04-04T12:42:51.444Z</time></trkpt><trkpt lat="43.5136433" lon="2.71756"><ele>822.75</ele><time>2026-04-04T12:42:52.443Z</time></trkpt><trkpt lat="43.5137917" lon="2.7176383"><ele>824.5</ele><time>2026-04-04T12:42:53.443Z</time></trkpt><trkpt lat="43.51387" lon="2.717745"><ele>826.25</ele><time>2026-04-04T12:42:54.446Z</time></trkpt><trkpt lat="43.5139217" lon="2.71786"><ele>828.0</ele><time>2026-04-04T12:42:55.444Z</time></trkpt><trkpt lat="43.51393" lon="2.7180067"><ele>828.0</ele><time>2026-04-04T12:42:56.443Z</time></trkpt><trkpt lat="43.5139317" lon="2.718155"><ele>828.0</ele><time>2026-04-04T12:42:57.443Z</time></trkpt><trkpt lat="43.513885" lon="2.71834"><ele>828.0</ele><time>2026-04-04T12:42:58.445Z</time></trkpt><trkpt lat="43.5138517" lon="2.718505"><ele>828.0</ele><time>2026-04-04T12:42:59.444Z</time></trkpt><trkpt lat="43.5138167" lon="2.71871"><ele>827.75</ele><time>2026-04-04T12:43:00.444Z</time></trkpt><trkpt lat="43.5137917" lon="2.7188817"><ele>827.5</ele><time>2026-04-04T12:43:01.444Z</time></trkpt><trkpt lat="43.5138117" lon="2.7190383"><ele>827.25</ele><time>2026-04-04T12:43:02.443Z</time></trkpt><trkpt lat="43.5138483" lon="2.7191833"><ele>827.0</ele><time>2026-04-04T12:43:03.444Z</time></trkpt><trkpt lat="43.5138833" lon="2.7193267"><ele>824.75</ele><time>2026-04-04T12:43:04.444Z</time></trkpt><trkpt lat="43.513915" lon="2.7194733"><ele>822.5</ele><time>2026-04-04T12:43:05.443Z</time></trkpt><trkpt lat="43.5139267" lon="2.719625"><ele>820.25</ele><time>2026-04-04T12:43:06.443Z</time></trkpt><trkpt lat="43.513915" lon="2.719795"><ele>818.0</ele><time>2026-04-04T12:43:07.444Z</time></trkpt><trkpt lat="43.51388" lon="2.719945"><ele>818.0</ele><time>2026-04-04T12:43:08.443Z</time></trkpt><trkpt lat="43.5138417" lon="2.7200867"><ele>818.0</ele><time>2026-04-04T12:43:09.443Z</time></trkpt><trkpt lat="43.5137883" lon="2.7201983"><ele>818.0</ele><time>2026-04-04T12:43:10.443Z</time></trkpt><trkpt lat="43.513715" lon="2.7202783"><ele>818.0</ele><time>2026-04-04T12:43:11.443Z</time></trkpt><trkpt lat="43.5136283" lon="2.7203217"><ele>818.0</ele><time>2026-04-04T12:43:12.445Z</time></trkpt><trkpt lat="43.5135417" lon="2.72033"><ele>815.8333333333334</ele><time>2026-04-04T12:43:13.445Z</time></trkpt><trkpt lat="43.5134583" lon="2.72031"><ele>813.6666666666667</ele><time>2026-04-04T12:43:14.443Z</time></trkpt><trkpt lat="43.5133617" lon="2.7203017"><ele>811.5</ele><time>2026-04-04T12:43:15.444Z</time></trkpt><trkpt lat="43.5132667" lon="2.720295"><ele>809.3333333333333</ele><time>2026-04-04T12:43:16.443Z</time></trkpt><trkpt lat="43.51319" lon="2.7203317"><ele>807.1666666666666</ele><time>2026-04-04T12:43:17.443Z</time></trkpt><trkpt lat="43.5131233" lon="2.72039"><ele>805.0</ele><time>2026-04-04T12:43:18.443Z</time></trkpt><trkpt lat="43.51306" lon="2.72049"><ele>805.0</ele><time>2026-04-04T12:43:19.444Z</time></trkpt><trkpt lat="43.5129983" lon="2.7205983"><ele>805.0</ele><time>2026-04-04T12:43:20.442Z</time></trkpt><trkpt lat="43.5129367" lon="2.7207183"><ele>805.0</ele><time>2026-04-04T12:43:21.444Z</time></trkpt><trkpt lat="43.5128683" lon="2.7208367"><ele>805.0</ele><time>2026-04-04T12:43:22.443Z</time></trkpt><trkpt lat="43.5127967" lon="2.7209617"><ele>805.0</ele><time>2026-04-04T12:43:23.444Z</time></trkpt><trkpt lat="43.5127317" lon="2.7211083"><ele>799.25</ele><time>2026-04-04T12:43:24.443Z</time></trkpt><trkpt lat="43.512675" lon="2.7212633"><ele>793.5</ele><time>2026-04-04T12:43:25.445Z</time></trkpt><trkpt lat="43.51262" lon="2.72143"><ele>787.75</ele><time>2026-04-04T12:43:26.444Z</time></trkpt><trkpt lat="43.5125733" lon="2.7216033"><ele>782.0</ele><time>2026-04-04T12:43:27.443Z</time></trkpt><trkpt lat="43.512535" lon="2.72178"><ele>782.25</ele><time>2026-04-04T12:43:28.444Z</time></trkpt><trkpt lat="43.5125" lon="2.721965"><ele>782.5</ele><time>2026-04-04T12:43:29.443Z</time></trkpt><trkpt lat="43.5124683" lon="2.7221517"><ele>782.75</ele><time>2026-04-04T12:43:30.444Z</time></trkpt><trkpt lat="43.5124483" lon="2.722335"><ele>783.0</ele><time>2026-04-04T12:43:31.443Z</time></trkpt><trkpt lat="43.51244" lon="2.7225183"><ele>783.0</ele><time>2026-04-04T12:43:32.443Z</time></trkpt><trkpt lat="43.5124467" lon="2.7227"><ele>783.0</ele><time>2026-04-04T12:43:33.443Z</time></trkpt><trkpt lat="43.51246" lon="2.7228717"><ele>783.0</ele><time>2026-04-04T12:43:34.443Z</time></trkpt><trkpt lat="43.5124817" lon="2.7230283"><ele>783.0</ele><time>2026-04-04T12:43:35.443Z</time></trkpt><trkpt lat="43.5125183" lon="2.7231817"><ele>781.5</ele><time>2026-04-04T12:43:36.444Z</time></trkpt><trkpt lat="43.5125633" lon="2.7233217"><ele>780.0</ele><time>2026-04-04T12:43:37.443Z</time></trkpt><trkpt lat="43.512615" lon="2.72346"><ele>778.5</ele><time>2026-04-04T12:43:38.444Z</time></trkpt><trkpt lat="43.5126717" lon="2.723605"><ele>777.0</ele><time>2026-04-04T12:43:39.444Z</time></trkpt><trkpt lat="43.512735" lon="2.723745"><ele>775.4000000000001</ele><time>2026-04-04T12:43:40.444Z</time></trkpt><trkpt lat="43.5128083" lon="2.723865"><ele>773.8000000000001</ele><time>2026-04-04T12:43:41.443Z</time></trkpt><trkpt lat="43.5128883" lon="2.7239767"><ele>772.2</ele><time>2026-04-04T12:43:42.443Z</time></trkpt><trkpt lat="43.5129633" lon="2.7240783"><ele>770.6</ele><time>2026-04-04T12:43:43.444Z</time></trkpt><trkpt lat="43.51303" lon="2.7241583"><ele>769.0</ele><time>2026-04-04T12:43:44.443Z</time></trkpt><trkpt lat="43.5130867" lon="2.7242233"><ele>769.0</ele><time>2026-04-04T12:43:45.443Z</time></trkpt><trkpt lat="43.5130133" lon="2.72422"><ele>769.0</ele><time>2026-04-04T12:43:50.443Z</time></trkpt><trkpt lat="43.5129483" lon="2.7241717"><ele>769.0</ele><time>2026-04-04T12:43:51.445Z</time></trkpt><trkpt lat="43.5128617" lon="2.72412"><ele>769.0</ele><time>2026-04-04T12:43:52.443Z</time></trkpt><trkpt lat="43.5127317" lon="2.724075"><ele>769.0</ele><time>2026-04-04T12:43:53.443Z</time></trkpt><trkpt lat="43.51258" lon="2.7240317"><ele>769.0</ele><time>2026-04-04T12:43:54.444Z</time></trkpt><trkpt lat="43.512375" lon="2.7239783"><ele>769.0</ele><time>2026-04-04T12:43:55.443Z</time></trkpt><trkpt lat="43.51223" lon="2.723925"><ele>769.0</ele><time>2026-04-04T12:43:56.443Z</time></trkpt><trkpt lat="43.5120917" lon="2.7238433"><ele>765.25</ele><time>2026-04-04T12:43:57.443Z</time></trkpt><trkpt lat="43.511985" lon="2.72375"><ele>761.5</ele><time>2026-04-04T12:43:58.444Z</time></trkpt><trkpt lat="43.5118933" lon="2.7236483"><ele>757.75</ele><time>2026-04-04T12:43:59.443Z</time></trkpt><trkpt lat="43.5118083" lon="2.72353"><ele>754.0</ele><time>2026-04-04T12:44:00.443Z</time></trkpt><trkpt lat="43.5117467" lon="2.7234233"><ele>754.0</ele><time>2026-04-04T12:44:01.443Z</time></trkpt><trkpt lat="43.5117" lon="2.723305"><ele>754.0</ele><time>2026-04-04T12:44:02.443Z</time></trkpt><trkpt lat="43.5116583" lon="2.7231567"><ele>754.0</ele><time>2026-04-04T12:44:03.443Z</time></trkpt><trkpt lat="43.51163" lon="2.7229933"><ele>754.0</ele><time>2026-04-04T12:44:04.443Z</time></trkpt><trkpt lat="43.5116067" lon="2.7228133"><ele>752.75</ele><time>2026-04-04T12:44:05.443Z</time></trkpt><trkpt lat="43.511585" lon="2.7226083"><ele>751.5</ele><time>2026-04-04T12:44:06.444Z</time></trkpt><trkpt lat="43.5115633" lon="2.72242"><ele>750.25</ele><time>2026-04-04T12:44:07.443Z</time></trkpt><trkpt lat="43.511555" lon="2.7222467"><ele>749.0</ele><time>2026-04-04T12:44:08.443Z</time></trkpt><trkpt lat="43.5115467" lon="2.722115"><ele>749.0</ele><time>2026-04-04T12:44:09.447Z</time></trkpt><trkpt lat="43.5115333" lon="2.72202"><ele>749.0</ele><time>2026-04-04T12:44:10.444Z</time></trkpt><trkpt lat="43.5115217" lon="2.72191"><ele>749.0</ele><time>2026-04-04T12:44:12.444Z</time></trkpt><trkpt lat="43.5114867" lon="2.7217583"><ele>749.0</ele><time>2026-04-04T12:45:41.443Z</time></trkpt><trkpt lat="43.5114783" lon="2.7216517"><ele>749.0</ele><time>2026-04-04T12:45:44.443Z</time></trkpt><trkpt lat="43.5114733" lon="2.72156"><ele>749.0</ele><time>2026-04-04T12:45:47.443Z</time></trkpt><trkpt lat="43.5115233" lon="2.7214733"><ele>749.0</ele><time>2026-04-04T12:45:51.443Z</time></trkpt><trkpt lat="43.5115717" lon="2.7213933"><ele>749.0</ele><time>2026-04-04T12:45:53.443Z</time></trkpt><trkpt lat="43.511545" lon="2.7215017"><ele>749.0</ele><time>2026-04-04T12:48:28.443Z</time></trkpt><trkpt lat="43.5115217" lon="2.7215883"><ele>749.0</ele><time>2026-04-04T12:48:30.444Z</time></trkpt><trkpt lat="43.511525" lon="2.7217167"><ele>749.0</ele><time>2026-04-04T12:48:33.444Z</time></trkpt><trkpt lat="43.5115383" lon="2.7218433"><ele>749.0</ele><time>2026-04-04T12:49:01.446Z</time></trkpt><trkpt lat="43.511575" lon="2.7219317"><ele>749.0</ele><time>2026-04-04T12:49:04.442Z</time></trkpt><trkpt lat="43.5115917" lon="2.7220283"><ele>749.0</ele><time>2026-04-04T12:51:18.444Z</time></trkpt><trkpt lat="43.5115967" lon="2.7221767"><ele>749.0</ele><time>2026-04-04T12:51:20.444Z</time></trkpt><trkpt lat="43.5115983" lon="2.722265"><ele>749.0</ele><time>2026-04-04T12:51:21.444Z</time></trkpt><trkpt lat="43.511595" lon="2.722355"><ele>749.0</ele><time>2026-04-04T12:51:22.444Z</time></trkpt><trkpt lat="43.5116" lon="2.722525"><ele>749.0</ele><time>2026-04-04T12:51:24.443Z</time></trkpt><trkpt lat="43.511615" lon="2.722615"><ele>749.0</ele><time>2026-04-04T12:51:25.443Z</time></trkpt><trkpt lat="43.5116283" lon="2.722715"><ele>749.0</ele><time>2026-04-04T12:51:26.444Z</time></trkpt><trkpt lat="43.51164" lon="2.7228183"><ele>749.0</ele><time>2026-04-04T12:51:27.442Z</time></trkpt><trkpt lat="43.5116533" lon="2.72292"><ele>749.0</ele><time>2026-04-04T12:51:28.444Z</time></trkpt><trkpt lat="43.511665" lon="2.723015"><ele>749.0</ele><time>2026-04-04T12:51:29.443Z</time></trkpt><trkpt lat="43.51168" lon="2.7231067"><ele>749.0</ele><time>2026-04-04T12:51:30.445Z</time></trkpt><trkpt lat="43.5116983" lon="2.7231917"><ele>749.0</ele><time>2026-04-04T12:51:31.444Z</time></trkpt><trkpt lat="43.5117417" lon="2.72336"><ele>749.1666666666666</ele><time>2026-04-04T12:51:33.443Z</time></trkpt><trkpt lat="43.5117717" lon="2.7234417"><ele>749.3333333333333</ele><time>2026-04-04T12:51:34.446Z</time></trkpt><trkpt lat="43.5118133" lon="2.7235167"><ele>749.5</ele><time>2026-04-04T12:51:35.446Z</time></trkpt><trkpt lat="43.5118667" lon="2.723585"><ele>749.6666666666666</ele><time>2026-04-04T12:51:36.446Z</time></trkpt><trkpt lat="43.5119233" lon="2.723655"><ele>749.8333333333334</ele><time>2026-04-04T12:51:37.444Z</time></trkpt><trkpt lat="43.5119917" lon="2.7237283"><ele>750.0</ele><time>2026-04-04T12:51:38.443Z</time></trkpt><trkpt lat="43.512065" lon="2.7237967"><ele>753.8</ele><time>2026-04-04T12:51:39.447Z</time></trkpt><trkpt lat="43.5121533" lon="2.723855"><ele>757.6</ele><time>2026-04-04T12:51:40.444Z</time></trkpt><trkpt lat="43.5122483" lon="2.72392"><ele>761.4000000000001</ele><time>2026-04-04T12:51:41.443Z</time></trkpt><trkpt lat="43.5123483" lon="2.723975"><ele>765.2</ele><time>2026-04-04T12:51:42.443Z</time></trkpt><trkpt lat="43.51244" lon="2.724015"><ele>769.0</ele><time>2026-04-04T12:51:43.444Z</time></trkpt><trkpt lat="43.51252" lon="2.7240417"><ele>768.9999999999999</ele><time>2026-04-04T12:51:44.443Z</time></trkpt><trkpt lat="43.5125967" lon="2.72406"><ele>769.0</ele><time>2026-04-04T12:51:45.445Z</time></trkpt><trkpt lat="43.512705" lon="2.7241067"><ele>769.0</ele><time>2026-04-04T12:51:47.442Z</time></trkpt><trkpt lat="43.51277" lon="2.724135"><ele>769.0</ele><time>2026-04-04T12:51:48.444Z</time></trkpt><trkpt lat="43.5128417" lon="2.72417"><ele>768.9999999999999</ele><time>2026-04-04T12:51:49.444Z</time></trkpt><trkpt lat="43.512915" lon="2.724205"><ele>769.0</ele><time>2026-04-04T12:51:50.444Z</time></trkpt><trkpt lat="43.5129883" lon="2.7242517"><ele>767.6666666666666</ele><time>2026-04-04T12:51:51.444Z</time></trkpt><trkpt lat="43.51306" lon="2.7243"><ele>766.3333333333333</ele><time>2026-04-04T12:51:52.443Z</time></trkpt><trkpt lat="43.51313" lon="2.7243417"><ele>765.0</ele><time>2026-04-04T12:51:53.444Z</time></trkpt><trkpt lat="43.5131917" lon="2.7243717"><ele>763.6666666666666</ele><time>2026-04-04T12:51:54.443Z</time></trkpt><trkpt lat="43.513305" lon="2.7244567"><ele>762.3333333333333</ele><time>2026-04-04T12:51:56.442Z</time></trkpt><trkpt lat="43.51338" lon="2.72452"><ele>761.0</ele><time>2026-04-04T12:51:57.443Z</time></trkpt><trkpt lat="43.5134583" lon="2.7245817"><ele>761.0</ele><time>2026-04-04T12:51:58.444Z</time></trkpt><trkpt lat="43.5135533" lon="2.7246483"><ele>761.0</ele><time>2026-04-04T12:51:59.442Z</time></trkpt><trkpt lat="43.513665" lon="2.7246883"><ele>761.0</ele><time>2026-04-04T12:52:00.443Z</time></trkpt><trkpt lat="43.51379" lon="2.7247067"><ele>761.0</ele><time>2026-04-04T12:52:01.444Z</time></trkpt><trkpt lat="43.5139117" lon="2.7247167"><ele>763.4</ele><time>2026-04-04T12:52:02.443Z</time></trkpt><trkpt lat="43.5140267" lon="2.7247283"><ele>765.8</ele><time>2026-04-04T12:52:03.443Z</time></trkpt><trkpt lat="43.514125" lon="2.72475"><ele>768.1999999999999</ele><time>2026-04-04T12:52:04.443Z</time></trkpt><trkpt lat="43.5142283" lon="2.7247867"><ele>770.5999999999999</ele><time>2026-04-04T12:52:05.443Z</time></trkpt><trkpt lat="43.51434" lon="2.724865"><ele>773.0</ele><time>2026-04-04T12:52:06.444Z</time></trkpt><trkpt lat="43.5144267" lon="2.7249633"><ele>773.0</ele><time>2026-04-04T12:52:07.443Z</time></trkpt><trkpt lat="43.514525" lon="2.7250467"><ele>773.0</ele><time>2026-04-04T12:52:08.443Z</time></trkpt><trkpt lat="43.5146317" lon="2.7251067"><ele>773.0</ele><time>2026-04-04T12:52:09.442Z</time></trkpt><trkpt lat="43.51474" lon="2.7251717"><ele>773.0</ele><time>2026-04-04T12:52:10.444Z</time></trkpt><trkpt lat="43.5148483" lon="2.7252467"><ele>769.0</ele><time>2026-04-04T12:52:11.443Z</time></trkpt><trkpt lat="43.514945" lon="2.7253433"><ele>765.0</ele><time>2026-04-04T12:52:12.443Z</time></trkpt><trkpt lat="43.515035" lon="2.7254683"><ele>761.0</ele><time>2026-04-04T12:52:13.443Z</time></trkpt><trkpt lat="43.51512" lon="2.72561"><ele>757.0</ele><time>2026-04-04T12:52:14.443Z</time></trkpt><trkpt lat="43.51522" lon="2.72577"><ele>757.0</ele><time>2026-04-04T12:52:15.442Z</time></trkpt><trkpt lat="43.5153117" lon="2.725925"><ele>757.0</ele><time>2026-04-04T12:52:16.445Z</time></trkpt><trkpt lat="43.5154083" lon="2.72607"><ele>757.0</ele><time>2026-04-04T12:52:17.442Z</time></trkpt><trkpt lat="43.515505" lon="2.7262"><ele>757.0</ele><time>2026-04-04T12:52:18.447Z</time></trkpt><trkpt lat="43.515605" lon="2.726295"><ele>753.25</ele><time>2026-04-04T12:52:19.443Z</time></trkpt><trkpt lat="43.5157233" lon="2.72638"><ele>749.5</ele><time>2026-04-04T12:52:20.443Z</time></trkpt><trkpt lat="43.5158517" lon="2.726435"><ele>745.75</ele><time>2026-04-04T12:52:21.444Z</time></trkpt><trkpt lat="43.51599" lon="2.7264767"><ele>742.0</ele><time>2026-04-04T12:52:22.445Z</time></trkpt><trkpt lat="43.51613" lon="2.7265083"><ele>747.25</ele><time>2026-04-04T12:52:23.443Z</time></trkpt><trkpt lat="43.5162617" lon="2.7265467"><ele>752.5</ele><time>2026-04-04T12:52:24.444Z</time></trkpt><trkpt lat="43.5163867" lon="2.7265917"><ele>757.75</ele><time>2026-04-04T12:52:25.443Z</time></trkpt><trkpt lat="43.5165117" lon="2.7266667"><ele>763.0</ele><time>2026-04-04T12:52:26.442Z</time></trkpt><trkpt lat="43.5166317" lon="2.7267617"><ele>763.0</ele><time>2026-04-04T12:52:27.443Z</time></trkpt><trkpt lat="43.5167517" lon="2.7268567"><ele>763.0</ele><time>2026-04-04T12:52:28.443Z</time></trkpt><trkpt lat="43.5168767" lon="2.7269483"><ele>763.0</ele><time>2026-04-04T12:52:29.442Z</time></trkpt><trkpt lat="43.5170133" lon="2.7270283"><ele>763.0</ele><time>2026-04-04T12:52:30.443Z</time></trkpt><trkpt lat="43.517155" lon="2.7271067"><ele>755.0</ele><time>2026-04-04T12:52:31.444Z</time></trkpt><trkpt lat="43.517305" lon="2.72722"><ele>747.0</ele><time>2026-04-04T12:52:32.442Z</time></trkpt><trkpt lat="43.517435" lon="2.7273333"><ele>739.0</ele><time>2026-04-04T12:52:33.443Z</time></trkpt><trkpt lat="43.517555" lon="2.7274333"><ele>739.0</ele><time>2026-04-04T12:52:34.443Z</time></trkpt><trkpt lat="43.517675" lon="2.7275133"><ele>739.0</ele><time>2026-04-04T12:52:35.444Z</time></trkpt><trkpt lat="43.5177783" lon="2.7275467"><ele>739.0</ele><time>2026-04-04T12:52:36.444Z</time></trkpt><trkpt lat="43.5178633" lon="2.7275467"><ele>739.0</ele><time>2026-04-04T12:52:37.444Z</time></trkpt><trkpt lat="43.5179417" lon="2.7275617"><ele>739.0</ele><time>2026-04-04T12:52:38.443Z</time></trkpt><trkpt lat="43.5180267" lon="2.7275933"><ele>735.0</ele><time>2026-04-04T12:52:40.443Z</time></trkpt><trkpt lat="43.5179217" lon="2.727825"><ele>731.0</ele><time>2026-04-04T12:52:42.445Z</time></trkpt><trkpt lat="43.51787" lon="2.727955"><ele>727.0</ele><time>2026-04-04T12:52:43.445Z</time></trkpt><trkpt lat="43.517795" lon="2.728115"><ele>723.0</ele><time>2026-04-04T12:52:44.443Z</time></trkpt><trkpt lat="43.51771" lon="2.7283117"><ele>723.0</ele><time>2026-04-04T12:52:45.445Z</time></trkpt><trkpt lat="43.5176433" lon="2.72852"><ele>723.0</ele><time>2026-04-04T12:52:46.443Z</time></trkpt><trkpt lat="43.517555" lon="2.7287233"><ele>723.0</ele><time>2026-04-04T12:52:47.444Z</time></trkpt><trkpt lat="43.5175033" lon="2.72893"><ele>723.3333333333334</ele><time>2026-04-04T12:52:48.443Z</time></trkpt><trkpt lat="43.5174617" lon="2.72914"><ele>723.6666666666667</ele><time>2026-04-04T12:52:49.444Z</time></trkpt><trkpt lat="43.51741" lon="2.7293483"><ele>724.0</ele><time>2026-04-04T12:52:50.444Z</time></trkpt><trkpt lat="43.5173717" lon="2.7295617"><ele>724.0</ele><time>2026-04-04T12:52:51.442Z</time></trkpt><trkpt lat="43.517345" lon="2.7297783"><ele>724.0</ele><time>2026-04-04T12:52:52.445Z</time></trkpt><trkpt lat="43.5173133" lon="2.72999"><ele>724.0</ele><time>2026-04-04T12:52:53.443Z</time></trkpt><trkpt lat="43.5172767" lon="2.73019"><ele>723.75</ele><time>2026-04-04T12:52:54.444Z</time></trkpt><trkpt lat="43.5172583" lon="2.7303933"><ele>723.5</ele><time>2026-04-04T12:52:55.443Z</time></trkpt><trkpt lat="43.5172867" lon="2.73061"><ele>723.25</ele><time>2026-04-04T12:52:56.442Z</time></trkpt><trkpt lat="43.51727" lon="2.7308033"><ele>723.0</ele><time>2026-04-04T12:52:57.442Z</time></trkpt><trkpt lat="43.517265" lon="2.7309917"><ele>722.0</ele><time>2026-04-04T12:52:58.442Z</time></trkpt><trkpt lat="43.5172683" lon="2.7311783"><ele>721.0</ele><time>2026-04-04T12:52:59.443Z</time></trkpt><trkpt lat="43.517285" lon="2.7313517"><ele>720.0</ele><time>2026-04-04T12:53:00.445Z</time></trkpt><trkpt lat="43.5173167" lon="2.7315067"><ele>719.0</ele><time>2026-04-04T12:53:01.443Z</time></trkpt><trkpt lat="43.5173483" lon="2.731635"><ele>719.0</ele><time>2026-04-04T12:53:02.443Z</time></trkpt><trkpt lat="43.517375" lon="2.73174"><ele>719.0</ele><time>2026-04-04T12:53:03.444Z</time></trkpt><trkpt lat="43.517395" lon="2.7318283"><ele>719.0</ele><time>2026-04-04T12:53:04.446Z</time></trkpt><trkpt lat="43.5174017" lon="2.7319667"><ele>719.0</ele><time>2026-04-04T12:53:06.443Z</time></trkpt><trkpt lat="43.5173333" lon="2.731905"><ele>719.0</ele><time>2026-04-04T12:53:09.443Z</time></trkpt><trkpt lat="43.5173067" lon="2.7317567"><ele>719.0</ele><time>2026-04-04T12:53:10.443Z</time></trkpt><trkpt lat="43.517255" lon="2.7316133"><ele>719.0</ele><time>2026-04-04T12:53:11.443Z</time></trkpt><trkpt lat="43.517205" lon="2.7314467"><ele>719.0</ele><time>2026-04-04T12:53:12.447Z</time></trkpt><trkpt lat="43.5171633" lon="2.731275"><ele>719.0</ele><time>2026-04-04T12:53:13.443Z</time></trkpt><trkpt lat="43.5171383" lon="2.7311083"><ele>719.0</ele><time>2026-04-04T12:53:14.444Z</time></trkpt><trkpt lat="43.51711" lon="2.7309567"><ele>720.0</ele><time>2026-04-04T12:53:15.445Z</time></trkpt><trkpt lat="43.51709" lon="2.7308"><ele>721.0</ele><time>2026-04-04T12:53:16.445Z</time></trkpt><trkpt lat="43.5170683" lon="2.730635"><ele>722.0</ele><time>2026-04-04T12:53:17.443Z</time></trkpt><trkpt lat="43.51705" lon="2.73047"><ele>723.0</ele><time>2026-04-04T12:53:18.445Z</time></trkpt><trkpt lat="43.5170217" lon="2.7303033"><ele>713.75</ele><time>2026-04-04T12:53:19.444Z</time></trkpt><trkpt lat="43.5169983" lon="2.7301283"><ele>704.5</ele><time>2026-04-04T12:53:20.443Z</time></trkpt><trkpt lat="43.5169783" lon="2.7299617"><ele>695.25</ele><time>2026-04-04T12:53:21.444Z</time></trkpt><trkpt lat="43.5169667" lon="2.7297917"><ele>686.0</ele><time>2026-04-04T12:53:22.444Z</time></trkpt><trkpt lat="43.5169583" lon="2.72963"><ele>686.0</ele><time>2026-04-04T12:53:23.443Z</time></trkpt><trkpt lat="43.516955" lon="2.7294667"><ele>686.0</ele><time>2026-04-04T12:53:24.444Z</time></trkpt><trkpt lat="43.5169617" lon="2.7293083"><ele>686.0</ele><time>2026-04-04T12:53:25.444Z</time></trkpt><trkpt lat="43.51698" lon="2.72917"><ele>686.0</ele><time>2026-04-04T12:53:26.443Z</time></trkpt><trkpt lat="43.5169917" lon="2.7290533"><ele>686.0</ele><time>2026-04-04T12:53:27.444Z</time></trkpt><trkpt lat="43.516995" lon="2.7288883"><ele>686.0</ele><time>2026-04-04T12:53:29.443Z</time></trkpt><trkpt lat="43.516925" lon="2.7288267"><ele>686.0</ele><time>2026-04-04T12:53:31.448Z</time></trkpt><trkpt lat="43.5168317" lon="2.7290817"><ele>686.0</ele><time>2026-04-04T12:53:33.444Z</time></trkpt><trkpt lat="43.5168083" lon="2.7292383"><ele>686.0</ele><time>2026-04-04T12:53:34.444Z</time></trkpt><trkpt lat="43.51678" lon="2.7294717"><ele>686.0</ele><time>2026-04-04T12:53:35.445Z</time></trkpt><trkpt lat="43.5167383" lon="2.7297067"><ele>686.0</ele><time>2026-04-04T12:53:36.444Z</time></trkpt><trkpt lat="43.51669" lon="2.729935"><ele>686.0</ele><time>2026-04-04T12:53:37.443Z</time></trkpt><trkpt lat="43.5166333" lon="2.7301567"><ele>686.6666666666666</ele><time>2026-04-04T12:53:38.443Z</time></trkpt><trkpt lat="43.5165633" lon="2.7303817"><ele>687.3333333333334</ele><time>2026-04-04T12:53:39.446Z</time></trkpt><trkpt lat="43.516495" lon="2.730585"><ele>688.0</ele><time>2026-04-04T12:53:40.443Z</time></trkpt><trkpt lat="43.516415" lon="2.730775"><ele>688.0</ele><time>2026-04-04T12:53:41.446Z</time></trkpt><trkpt lat="43.5163233" lon="2.7309433"><ele>688.0</ele><time>2026-04-04T12:53:42.443Z</time></trkpt><trkpt lat="43.5161933" lon="2.7310817"><ele>688.0</ele><time>2026-04-04T12:53:43.451Z</time></trkpt><trkpt lat="43.51605" lon="2.7312083"><ele>684.0</ele><time>2026-04-04T12:53:44.444Z</time></trkpt><trkpt lat="43.5158983" lon="2.7313367"><ele>680.0</ele><time>2026-04-04T12:53:45.446Z</time></trkpt><trkpt lat="43.5157517" lon="2.73148"><ele>676.0</ele><time>2026-04-04T12:53:46.444Z</time></trkpt><trkpt lat="43.5156233" lon="2.7316417"><ele>676.0</ele><time>2026-04-04T12:53:47.443Z</time></trkpt><trkpt lat="43.51553" lon="2.7318267"><ele>676.0</ele><time>2026-04-04T12:53:48.443Z</time></trkpt><trkpt lat="43.515465" lon="2.73203"><ele>676.0</ele><time>2026-04-04T12:53:49.444Z</time></trkpt><trkpt lat="43.515435" lon="2.7322533"><ele>677.6666666666667</ele><time>2026-04-04T12:53:50.443Z</time></trkpt><trkpt lat="43.51544" lon="2.73248"><ele>679.3333333333334</ele><time>2026-04-04T12:53:51.443Z</time></trkpt><trkpt lat="43.515475" lon="2.7327"><ele>681.0</ele><time>2026-04-04T12:53:52.443Z</time></trkpt><trkpt lat="43.5155433" lon="2.7329067"><ele>675.0</ele><time>2026-04-04T12:53:53.443Z</time></trkpt><trkpt lat="43.515645" lon="2.7330867"><ele>669.0</ele><time>2026-04-04T12:53:54.445Z</time></trkpt><trkpt lat="43.515765" lon="2.7332433"><ele>663.0</ele><time>2026-04-04T12:53:55.443Z</time></trkpt><trkpt lat="43.51591" lon="2.73338"><ele>663.0</ele><time>2026-04-04T12:53:56.443Z</time></trkpt><trkpt lat="43.5160567" lon="2.7335033"><ele>663.0</ele><time>2026-04-04T12:53:57.444Z</time></trkpt><trkpt lat="43.51621" lon="2.73362"><ele>663.0</ele><time>2026-04-04T12:53:58.443Z</time></trkpt><trkpt lat="43.5163467" lon="2.7337267"><ele>660.0</ele><time>2026-04-04T12:53:59.444Z</time></trkpt><trkpt lat="43.51647" lon="2.733825"><ele>657.0</ele><time>2026-04-04T12:54:00.443Z</time></trkpt><trkpt lat="43.51658" lon="2.733905"><ele>654.0</ele><time>2026-04-04T12:54:01.446Z</time></trkpt><trkpt lat="43.5166917" lon="2.7339633"><ele>651.0</ele><time>2026-04-04T12:54:02.446Z</time></trkpt><trkpt lat="43.5167933" lon="2.7340083"><ele>651.0</ele><time>2026-04-04T12:54:03.443Z</time></trkpt><trkpt lat="43.5168667" lon="2.734045"><ele>651.0</ele><time>2026-04-04T12:54:04.443Z</time></trkpt><trkpt lat="43.5169333" lon="2.73409"><ele>651.0</ele><time>2026-04-04T12:54:05.443Z</time></trkpt><trkpt lat="43.5169967" lon="2.7342033"><ele>651.0</ele><time>2026-04-04T12:54:07.445Z</time></trkpt><trkpt lat="43.5169567" lon="2.73432"><ele>651.0</ele><time>2026-04-04T12:56:53.443Z</time></trkpt><trkpt lat="43.516895" lon="2.7344083"><ele>651.0</ele><time>2026-04-04T12:56:56.442Z</time></trkpt><trkpt lat="43.5168367" lon="2.7344683"><ele>653.0</ele><time>2026-04-04T12:56:58.445Z</time></trkpt><trkpt lat="43.5167683" lon="2.734505"><ele>655.0</ele><time>2026-04-04T12:57:00.445Z</time></trkpt><trkpt lat="43.5166667" lon="2.7345483"><ele>657.0</ele><time>2026-04-04T12:57:02.445Z</time></trkpt><trkpt lat="43.5166033" lon="2.7346017"><ele>659.0</ele><time>2026-04-04T12:57:03.445Z</time></trkpt><trkpt lat="43.5165283" lon="2.7346717"><ele>661.0</ele><time>2026-04-04T12:57:04.445Z</time></trkpt><trkpt lat="43.5164517" lon="2.73474"><ele>663.0</ele><time>2026-04-04T12:57:05.445Z</time></trkpt><trkpt lat="43.5163617" lon="2.7348167"><ele>663.0</ele><time>2026-04-04T12:57:06.442Z</time></trkpt><trkpt lat="43.5162717" lon="2.7349017"><ele>663.0</ele><time>2026-04-04T12:57:07.445Z</time></trkpt><trkpt lat="43.51618" lon="2.7349967"><ele>663.0</ele><time>2026-04-04T12:57:08.442Z</time></trkpt><trkpt lat="43.5160933" lon="2.7351"><ele>663.0</ele><time>2026-04-04T12:57:09.443Z</time></trkpt><trkpt lat="43.5160167" lon="2.7352267"><ele>657.0</ele><time>2026-04-04T12:57:10.443Z</time></trkpt><trkpt lat="43.5159517" lon="2.7353633"><ele>651.0</ele><time>2026-04-04T12:57:11.445Z</time></trkpt><trkpt lat="43.5158967" lon="2.7355017"><ele>645.0</ele><time>2026-04-04T12:57:12.445Z</time></trkpt><trkpt lat="43.515855" lon="2.7356433"><ele>639.0</ele><time>2026-04-04T12:57:13.446Z</time></trkpt><trkpt lat="43.5158267" lon="2.735785"><ele>639.0</ele><time>2026-04-04T12:57:14.445Z</time></trkpt><trkpt lat="43.5158083" lon="2.7359283"><ele>639.0</ele><time>2026-04-04T12:57:15.442Z</time></trkpt><trkpt lat="43.5157967" lon="2.73607"><ele>639.0</ele><time>2026-04-04T12:57:16.443Z</time></trkpt><trkpt lat="43.51581" lon="2.7362167"><ele>639.0</ele><time>2026-04-04T12:57:17.442Z</time></trkpt><trkpt lat="43.5158167" lon="2.736355"><ele>639.0</ele><time>2026-04-04T12:57:18.443Z</time></trkpt><trkpt lat="43.5158317" lon="2.73649"><ele>638.6</ele><time>2026-04-04T12:57:19.444Z</time></trkpt><trkpt lat="43.5158483" lon="2.7366267"><ele>638.2</ele><time>2026-04-04T12:57:20.443Z</time></trkpt><trkpt lat="43.5158717" lon="2.7367583"><ele>637.8000000000001</ele><time>2026-04-04T12:57:21.442Z</time></trkpt><trkpt lat="43.5158883" lon="2.7368883"><ele>637.4</ele><time>2026-04-04T12:57:22.443Z</time></trkpt><trkpt lat="43.515895" lon="2.7370133"><ele>637.0</ele><time>2026-04-04T12:57:23.443Z</time></trkpt><trkpt lat="43.5158917" lon="2.7371383"><ele>637.0</ele><time>2026-04-04T12:57:24.444Z</time></trkpt><trkpt lat="43.5158717" lon="2.7372617"><ele>637.0</ele><time>2026-04-04T12:57:25.444Z</time></trkpt><trkpt lat="43.5158233" lon="2.7373717"><ele>637.0</ele><time>2026-04-04T12:57:26.445Z</time></trkpt><trkpt lat="43.5157717" lon="2.7374783"><ele>637.0</ele><time>2026-04-04T12:57:27.445Z</time></trkpt><trkpt lat="43.5157167" lon="2.73758"><ele>637.0</ele><time>2026-04-04T12:57:28.446Z</time></trkpt><trkpt lat="43.51567" lon="2.737675"><ele>641.0</ele><time>2026-04-04T12:57:29.446Z</time></trkpt><trkpt lat="43.5156233" lon="2.73777"><ele>645.0</ele><time>2026-04-04T12:57:30.446Z</time></trkpt><trkpt lat="43.5154417" lon="2.7385833"><ele>645.25</ele><time>2026-04-04T12:57:36.444Z</time></trkpt><trkpt lat="43.5154217" lon="2.7387567"><ele>645.5</ele><time>2026-04-04T12:57:37.444Z</time></trkpt><trkpt lat="43.5153983" lon="2.73892"><ele>645.75</ele><time>2026-04-04T12:57:38.446Z</time></trkpt><trkpt lat="43.51538" lon="2.7390817"><ele>646.0</ele><time>2026-04-04T12:57:39.446Z</time></trkpt><trkpt lat="43.5153633" lon="2.7392417"><ele>639.0</ele><time>2026-04-04T12:57:40.442Z</time></trkpt><trkpt lat="43.5153433" lon="2.739395"><ele>632.0</ele><time>2026-04-04T12:57:41.445Z</time></trkpt><trkpt lat="43.5153267" lon="2.7395417"><ele>625.0</ele><time>2026-04-04T12:57:42.442Z</time></trkpt><trkpt lat="43.5153083" lon="2.7396883"><ele>618.0</ele><time>2026-04-04T12:57:43.445Z</time></trkpt><trkpt lat="43.5152917" lon="2.739835"><ele>611.0</ele><time>2026-04-04T12:57:44.443Z</time></trkpt><trkpt lat="43.5152817" lon="2.7399783"><ele>617.0</ele><time>2026-04-04T12:57:45.445Z</time></trkpt><trkpt lat="43.51509" lon="2.74042"><ele>623.0</ele><time>2026-04-04T12:57:49.444Z</time></trkpt><trkpt lat="43.51498" lon="2.7404583"><ele>623.0</ele><time>2026-04-04T12:57:50.444Z</time></trkpt><trkpt lat="43.514855" lon="2.7404683"><ele>623.0</ele><time>2026-04-04T12:57:51.444Z</time></trkpt><trkpt lat="43.5147267" lon="2.7404733"><ele>623.0</ele><time>2026-04-04T12:57:52.446Z</time></trkpt><trkpt lat="43.514595" lon="2.740475"><ele>623.0</ele><time>2026-04-04T12:57:53.446Z</time></trkpt><trkpt lat="43.51447" lon="2.7404817"><ele>620.5</ele><time>2026-04-04T12:57:54.442Z</time></trkpt><trkpt lat="43.5143483" lon="2.7404883"><ele>618.0</ele><time>2026-04-04T12:57:55.445Z</time></trkpt><trkpt lat="43.5137267" lon="2.7401633"><ele>607.0</ele><time>2026-04-04T12:58:01.444Z</time></trkpt><trkpt lat="43.5133717" lon="2.739395"><ele>585.0</ele><time>2026-04-04T12:58:06.448Z</time></trkpt><trkpt lat="43.5124783" lon="2.7392733"><ele>585.0</ele><time>2026-04-04T12:58:14.445Z</time></trkpt><trkpt lat="43.5123567" lon="2.739365"><ele>585.0</ele><time>2026-04-04T12:58:15.442Z</time></trkpt><trkpt lat="43.512235" lon="2.7394633"><ele>585.0</ele><time>2026-04-04T12:58:16.443Z</time></trkpt><trkpt lat="43.5121317" lon="2.739575"><ele>585.0</ele><time>2026-04-04T12:58:17.443Z</time></trkpt><trkpt lat="43.5120467" lon="2.7397083"><ele>582.0</ele><time>2026-04-04T12:58:18.446Z</time></trkpt><trkpt lat="43.5119867" lon="2.73987"><ele>579.0</ele><time>2026-04-04T12:58:19.443Z</time></trkpt><trkpt lat="43.51194" lon="2.7400533"><ele>576.0</ele><time>2026-04-04T12:58:20.446Z</time></trkpt><trkpt lat="43.511905" lon="2.740255"><ele>573.0</ele><time>2026-04-04T12:58:21.443Z</time></trkpt><trkpt lat="43.51188" lon="2.7404633"><ele>572.3333333333334</ele><time>2026-04-04T12:58:22.443Z</time></trkpt><trkpt lat="43.511875" lon="2.7406733"><ele>571.6666666666667</ele><time>2026-04-04T12:58:23.446Z</time></trkpt><trkpt lat="43.5118867" lon="2.7408833"><ele>571.0</ele><time>2026-04-04T12:58:24.446Z</time></trkpt><trkpt lat="43.5119133" lon="2.74109"><ele>569.6666666666667</ele><time>2026-04-04T12:58:25.444Z</time></trkpt><trkpt lat="43.511955" lon="2.7412967"><ele>568.3333333333334</ele><time>2026-04-04T12:58:26.443Z</time></trkpt><trkpt lat="43.512" lon="2.7415017"><ele>567.0</ele><time>2026-04-04T12:58:27.447Z</time></trkpt><trkpt lat="43.5120333" lon="2.7417133"><ele>564.3333333333334</ele><time>2026-04-04T12:58:28.443Z</time></trkpt><trkpt lat="43.5120467" lon="2.741925"><ele>561.6666666666667</ele><time>2026-04-04T12:58:29.443Z</time></trkpt><trkpt lat="43.5120283" lon="2.7421367"><ele>559.0</ele><time>2026-04-04T12:58:30.444Z</time></trkpt><trkpt lat="43.5120017" lon="2.74235"><ele>559.0</ele><time>2026-04-04T12:58:31.443Z</time></trkpt><trkpt lat="43.5119683" lon="2.7425583"><ele>559.0</ele><time>2026-04-04T12:58:32.444Z</time></trkpt><trkpt lat="43.5119317" lon="2.7427583"><ele>559.0</ele><time>2026-04-04T12:58:33.443Z</time></trkpt><trkpt lat="43.511895" lon="2.7429517"><ele>559.0</ele><time>2026-04-04T12:58:34.445Z</time></trkpt><trkpt lat="43.5118533" lon="2.7431317"><ele>560.0</ele><time>2026-04-04T12:58:35.442Z</time></trkpt><trkpt lat="43.511815" lon="2.743315"><ele>561.0</ele><time>2026-04-04T12:58:36.442Z</time></trkpt><trkpt lat="43.5117733" lon="2.7434967"><ele>562.0</ele><time>2026-04-04T12:58:37.444Z</time></trkpt><trkpt lat="43.511725" lon="2.7436733"><ele>563.0</ele><time>2026-04-04T12:58:38.443Z</time></trkpt><trkpt lat="43.5116767" lon="2.7438383"><ele>562.75</ele><time>2026-04-04T12:58:39.442Z</time></trkpt><trkpt lat="43.51163" lon="2.7439967"><ele>562.5</ele><time>2026-04-04T12:58:40.447Z</time></trkpt><trkpt lat="43.5115933" lon="2.7441633"><ele>562.25</ele><time>2026-04-04T12:58:41.443Z</time></trkpt><trkpt lat="43.511575" lon="2.7443267"><ele>562.0</ele><time>2026-04-04T12:58:42.444Z</time></trkpt><trkpt lat="43.5115767" lon="2.7444883"><ele>562.0</ele><time>2026-04-04T12:58:43.446Z</time></trkpt><trkpt lat="43.5115917" lon="2.7446333"><ele>562.0</ele><time>2026-04-04T12:58:44.446Z</time></trkpt><trkpt lat="43.5116017" lon="2.744745"><ele>562.0</ele><time>2026-04-04T12:58:45.446Z</time></trkpt><trkpt lat="43.5116" lon="2.7448417"><ele>562.0</ele><time>2026-04-04T12:58:46.444Z</time></trkpt><trkpt lat="43.5115633" lon="2.7449183"><ele>562.0</ele><time>2026-04-04T12:58:48.443Z</time></trkpt><trkpt lat="43.5115233" lon="2.744835"><ele>562.0</ele><time>2026-04-04T12:58:50.445Z</time></trkpt><trkpt lat="43.511515" lon="2.7446983"><ele>562.0</ele><time>2026-04-04T12:58:51.445Z</time></trkpt><trkpt lat="43.5115183" lon="2.7445883"><ele>562.0</ele><time>2026-04-04T12:58:52.444Z</time></trkpt><trkpt lat="43.51152" lon="2.7444017"><ele>562.0</ele><time>2026-04-04T12:58:53.444Z</time></trkpt><trkpt lat="43.51152" lon="2.74424"><ele>562.0</ele><time>2026-04-04T12:58:54.444Z</time></trkpt><trkpt lat="43.5115267" lon="2.744"><ele>562.25</ele><time>2026-04-04T12:58:55.444Z</time></trkpt><trkpt lat="43.5115167" lon="2.7437783"><ele>562.5</ele><time>2026-04-04T12:58:56.443Z</time></trkpt><trkpt lat="43.5115183" lon="2.7436"><ele>562.75</ele><time>2026-04-04T12:58:57.443Z</time></trkpt><trkpt lat="43.5115267" lon="2.7434333"><ele>563.0</ele><time>2026-04-04T12:58:58.444Z</time></trkpt><trkpt lat="43.511545" lon="2.7432817"><ele>563.0</ele><time>2026-04-04T12:58:59.444Z</time></trkpt><trkpt lat="43.5115633" lon="2.7431483"><ele>563.0</ele><time>2026-04-04T12:59:00.444Z</time></trkpt><trkpt lat="43.5115617" lon="2.7430217"><ele>563.0</ele><time>2026-04-04T12:59:01.443Z</time></trkpt><trkpt lat="43.51156" lon="2.7429217"><ele>563.0</ele><time>2026-04-04T12:59:02.446Z</time></trkpt><trkpt lat="43.5115667" lon="2.7428317"><ele>563.0</ele><time>2026-04-04T12:59:03.443Z</time></trkpt><trkpt lat="43.5115" lon="2.7428367"><ele>563.0</ele><time>2026-04-04T12:59:05.444Z</time></trkpt><trkpt lat="43.5114417" lon="2.74307"><ele>563.0</ele><time>2026-04-04T12:59:06.443Z</time></trkpt><trkpt lat="43.5114133" lon="2.743225"><ele>563.0</ele><time>2026-04-04T12:59:07.443Z</time></trkpt><trkpt lat="43.511395" lon="2.7433867"><ele>563.0</ele><time>2026-04-04T12:59:08.444Z</time></trkpt><trkpt lat="43.5113533" lon="2.7435983"><ele>563.0</ele><time>2026-04-04T12:59:09.444Z</time></trkpt><trkpt lat="43.5112983" lon="2.7437917"><ele>563.6666666666666</ele><time>2026-04-04T12:59:10.443Z</time></trkpt><trkpt lat="43.5112583" lon="2.74399"><ele>564.3333333333334</ele><time>2026-04-04T12:59:11.446Z</time></trkpt><trkpt lat="43.5112167" lon="2.7441983"><ele>565.0</ele><time>2026-04-04T12:59:12.443Z</time></trkpt><trkpt lat="43.511185" lon="2.7444067"><ele>555.75</ele><time>2026-04-04T12:59:13.446Z</time></trkpt><trkpt lat="43.5111683" lon="2.7446133"><ele>546.5</ele><time>2026-04-04T12:59:14.447Z</time></trkpt><trkpt lat="43.5111717" lon="2.7448133"><ele>537.25</ele><time>2026-04-04T12:59:15.446Z</time></trkpt><trkpt lat="43.5111967" lon="2.74501"><ele>528.0</ele><time>2026-04-04T12:59:16.444Z</time></trkpt><trkpt lat="43.5112383" lon="2.7452033"><ele>534.5</ele><time>2026-04-04T12:59:17.446Z</time></trkpt><trkpt lat="43.5112933" lon="2.7453833"><ele>541.0</ele><time>2026-04-04T12:59:18.444Z</time></trkpt><trkpt lat="43.5113433" lon="2.745555"><ele>547.5</ele><time>2026-04-04T12:59:19.443Z</time></trkpt><trkpt lat="43.51137" lon="2.7457317"><ele>554.0</ele><time>2026-04-04T12:59:20.443Z</time></trkpt><trkpt lat="43.511365" lon="2.7459117"><ele>551.5</ele><time>2026-04-04T12:59:21.443Z</time></trkpt><trkpt lat="43.5113317" lon="2.7460883"><ele>549.0</ele><time>2026-04-04T12:59:22.443Z</time></trkpt><trkpt lat="43.511255" lon="2.7462417"><ele>546.5</ele><time>2026-04-04T12:59:23.446Z</time></trkpt><trkpt lat="43.5111367" lon="2.7463533"><ele>544.0</ele><time>2026-04-04T12:59:24.444Z</time></trkpt><trkpt lat="43.5109833" lon="2.7464183"><ele>541.0</ele><time>2026-04-04T12:59:25.443Z</time></trkpt><trkpt lat="43.510825" lon="2.7464367"><ele>538.0</ele><time>2026-04-04T12:59:26.446Z</time></trkpt><trkpt lat="43.51067" lon="2.7463883"><ele>535.0</ele><time>2026-04-04T12:59:27.443Z</time></trkpt><trkpt lat="43.5105333" lon="2.7462583"><ele>535.0</ele><time>2026-04-04T12:59:28.444Z</time></trkpt><trkpt lat="43.51043" lon="2.74608"><ele>535.0</ele><time>2026-04-04T12:59:29.444Z</time></trkpt><trkpt lat="43.5103333" lon="2.7458883"><ele>535.0</ele><time>2026-04-04T12:59:30.444Z</time></trkpt><trkpt lat="43.510225" lon="2.7457117"><ele>537.0</ele><time>2026-04-04T12:59:31.444Z</time></trkpt><trkpt lat="43.5101183" lon="2.7455367"><ele>539.0</ele><time>2026-04-04T12:59:32.443Z</time></trkpt><trkpt lat="43.510015" lon="2.7453667"><ele>541.0</ele><time>2026-04-04T12:59:33.443Z</time></trkpt><trkpt lat="43.5099117" lon="2.7452083"><ele>539.6666666666667</ele><time>2026-04-04T12:59:34.443Z</time></trkpt><trkpt lat="43.509795" lon="2.7450533"><ele>538.3333333333334</ele><time>2026-04-04T12:59:35.443Z</time></trkpt><trkpt lat="43.5096733" lon="2.7449083"><ele>537.0</ele><time>2026-04-04T12:59:36.444Z</time></trkpt><trkpt lat="43.5095467" lon="2.7447667"><ele>537.0</ele><time>2026-04-04T12:59:37.446Z</time></trkpt><trkpt lat="43.5094283" lon="2.7446083"><ele>537.0</ele><time>2026-04-04T12:59:38.446Z</time></trkpt><trkpt lat="43.50932" lon="2.7444317"><ele>537.0</ele><time>2026-04-04T12:59:39.442Z</time></trkpt><trkpt lat="43.50925" lon="2.744225"><ele>533.6666666666666</ele><time>2026-04-04T12:59:40.446Z</time></trkpt><trkpt lat="43.5092033" lon="2.7439933"><ele>530.3333333333333</ele><time>2026-04-04T12:59:41.446Z</time></trkpt><trkpt lat="43.5091667" lon="2.7437517"><ele>527.0</ele><time>2026-04-04T12:59:42.447Z</time></trkpt><trkpt lat="43.509115" lon="2.7435167"><ele>521.0</ele><time>2026-04-04T12:59:43.443Z</time></trkpt><trkpt lat="43.50904" lon="2.7432867"><ele>515.0</ele><time>2026-04-04T12:59:44.443Z</time></trkpt><trkpt lat="43.5089467" lon="2.74306"><ele>509.0</ele><time>2026-04-04T12:59:45.444Z</time></trkpt><trkpt lat="43.5088483" lon="2.7428367"><ele>505.0</ele><time>2026-04-04T12:59:46.446Z</time></trkpt><trkpt lat="43.5087517" lon="2.7426183"><ele>501.0</ele><time>2026-04-04T12:59:47.446Z</time></trkpt><trkpt lat="43.5086517" lon="2.7424117"><ele>497.0</ele><time>2026-04-04T12:59:48.448Z</time></trkpt><trkpt lat="43.50856" lon="2.742205"><ele>499.0</ele><time>2026-04-04T12:59:49.446Z</time></trkpt><trkpt lat="43.5084717" lon="2.7420067"><ele>501.0</ele><time>2026-04-04T12:59:50.446Z</time></trkpt><trkpt lat="43.50838" lon="2.7418233"><ele>503.0</ele><time>2026-04-04T12:59:51.446Z</time></trkpt><trkpt lat="43.5082817" lon="2.7416583"><ele>503.0</ele><time>2026-04-04T12:59:52.447Z</time></trkpt><trkpt lat="43.5081767" lon="2.7415117"><ele>503.0</ele><time>2026-04-04T12:59:53.446Z</time></trkpt><trkpt lat="43.5080667" lon="2.741385"><ele>503.0</ele><time>2026-04-04T12:59:54.446Z</time></trkpt><trkpt lat="43.5079483" lon="2.741275"><ele>503.0</ele><time>2026-04-04T12:59:55.446Z</time></trkpt><trkpt lat="43.5078267" lon="2.74119"><ele>503.25</ele><time>2026-04-04T12:59:56.446Z</time></trkpt><trkpt lat="43.5076933" lon="2.7411433"><ele>503.5</ele><time>2026-04-04T12:59:57.443Z</time></trkpt><trkpt lat="43.5075567" lon="2.7411517"><ele>503.75</ele><time>2026-04-04T12:59:58.444Z</time></trkpt><trkpt lat="43.50742" lon="2.7412167"><ele>504.0</ele><time>2026-04-04T12:59:59.445Z</time></trkpt><trkpt lat="43.5072867" lon="2.7413233"><ele>504.0</ele><time>2026-04-04T13:00:00.444Z</time></trkpt><trkpt lat="43.5071567" lon="2.7414483"><ele>504.0</ele><time>2026-04-04T13:00:01.443Z</time></trkpt><trkpt lat="43.5070283" lon="2.741585"><ele>504.0</ele><time>2026-04-04T13:00:02.444Z</time></trkpt><trkpt lat="43.5068983" lon="2.7417367"><ele>501.66666666666663</ele><time>2026-04-04T13:00:03.442Z</time></trkpt><trkpt lat="43.5067683" lon="2.7419017"><ele>499.3333333333333</ele><time>2026-04-04T13:00:04.444Z</time></trkpt><trkpt lat="43.5066417" lon="2.7420783"><ele>497.0</ele><time>2026-04-04T13:00:05.443Z</time></trkpt><trkpt lat="43.5065183" lon="2.742265"><ele>497.0</ele><time>2026-04-04T13:00:06.443Z</time></trkpt><trkpt lat="43.506385" lon="2.742455"><ele>497.0</ele><time>2026-04-04T13:00:07.443Z</time></trkpt><trkpt lat="43.506255" lon="2.742645"><ele>497.0</ele><time>2026-04-04T13:00:08.444Z</time></trkpt><trkpt lat="43.506125" lon="2.7428333"><ele>492.66666666666663</ele><time>2026-04-04T13:00:09.446Z</time></trkpt><trkpt lat="43.5060017" lon="2.7430167"><ele>488.33333333333337</ele><time>2026-04-04T13:00:10.446Z</time></trkpt><trkpt lat="43.5058733" lon="2.7431917"><ele>484.0</ele><time>2026-04-04T13:00:11.446Z</time></trkpt><trkpt lat="43.505745" lon="2.74335"><ele>484.0</ele><time>2026-04-04T13:00:12.446Z</time></trkpt><trkpt lat="43.5056033" lon="2.7434817"><ele>484.0</ele><time>2026-04-04T13:00:13.446Z</time></trkpt><trkpt lat="43.5054583" lon="2.7435817"><ele>484.0</ele><time>2026-04-04T13:00:14.446Z</time></trkpt><trkpt lat="43.5053083" lon="2.7436483"><ele>486.0</ele><time>2026-04-04T13:00:15.446Z</time></trkpt><trkpt lat="43.5051433" lon="2.7436883"><ele>488.0</ele><time>2026-04-04T13:00:16.446Z</time></trkpt><trkpt lat="43.5049767" lon="2.743715"><ele>490.0</ele><time>2026-04-04T13:00:17.446Z</time></trkpt><trkpt lat="43.5048133" lon="2.743755"><ele>490.0</ele><time>2026-04-04T13:00:18.446Z</time></trkpt><trkpt lat="43.50465" lon="2.7438183"><ele>490.0</ele><time>2026-04-04T13:00:19.447Z</time></trkpt><trkpt lat="43.504495" lon="2.743905"><ele>490.0</ele><time>2026-04-04T13:00:20.446Z</time></trkpt><trkpt lat="43.5043483" lon="2.7440083"><ele>486.33333333333337</ele><time>2026-04-04T13:00:21.447Z</time></trkpt><trkpt lat="43.504215" lon="2.744125"><ele>482.66666666666663</ele><time>2026-04-04T13:00:22.446Z</time></trkpt><trkpt lat="43.5040933" lon="2.744255"><ele>479.0</ele><time>2026-04-04T13:00:23.446Z</time></trkpt><trkpt lat="43.503975" lon="2.7443917"><ele>479.0</ele><time>2026-04-04T13:00:24.446Z</time></trkpt><trkpt lat="43.5038633" lon="2.744535"><ele>479.0</ele><time>2026-04-04T13:00:25.443Z</time></trkpt><trkpt lat="43.5037617" lon="2.7446867"><ele>479.0</ele><time>2026-04-04T13:00:26.443Z</time></trkpt><trkpt lat="43.5036717" lon="2.7448567"><ele>472.3333333333333</ele><time>2026-04-04T13:00:27.443Z</time></trkpt><trkpt lat="43.5035933" lon="2.7450517"><ele>465.66666666666663</ele><time>2026-04-04T13:00:28.444Z</time></trkpt><trkpt lat="43.5035267" lon="2.745265"><ele>459.0</ele><time>2026-04-04T13:00:29.443Z</time></trkpt><trkpt lat="43.5034633" lon="2.7454967"><ele>459.0</ele><time>2026-04-04T13:00:30.443Z</time></trkpt><trkpt lat="43.5034033" lon="2.7457317"><ele>459.0</ele><time>2026-04-04T13:00:31.447Z</time></trkpt><trkpt lat="43.5033483" lon="2.7459567"><ele>459.0</ele><time>2026-04-04T13:00:32.444Z</time></trkpt><trkpt lat="43.503295" lon="2.7461767"><ele>460.66666666666663</ele><time>2026-04-04T13:00:33.443Z</time></trkpt><trkpt lat="43.50324" lon="2.7463883"><ele>462.3333333333333</ele><time>2026-04-04T13:00:34.447Z</time></trkpt><trkpt lat="43.5031817" lon="2.7465883"><ele>464.0</ele><time>2026-04-04T13:00:35.445Z</time></trkpt><trkpt lat="43.5031233" lon="2.7467817"><ele>465.66666666666663</ele><time>2026-04-04T13:00:36.443Z</time></trkpt><trkpt lat="43.5030567" lon="2.7469733"><ele>467.33333333333337</ele><time>2026-04-04T13:00:37.445Z</time></trkpt><trkpt lat="43.5029783" lon="2.747165"><ele>469.0</ele><time>2026-04-04T13:00:38.444Z</time></trkpt><trkpt lat="43.5028833" lon="2.7473583"><ele>461.33333333333337</ele><time>2026-04-04T13:00:39.443Z</time></trkpt><trkpt lat="43.502775" lon="2.747555"><ele>453.66666666666663</ele><time>2026-04-04T13:00:40.443Z</time></trkpt><trkpt lat="43.5026517" lon="2.747755"><ele>446.0</ele><time>2026-04-04T13:00:41.443Z</time></trkpt><trkpt lat="43.5025183" lon="2.7479467"><ele>446.0</ele><time>2026-04-04T13:00:42.447Z</time></trkpt><trkpt lat="43.5023667" lon="2.7481167"><ele>446.0</ele><time>2026-04-04T13:00:43.446Z</time></trkpt><trkpt lat="43.5022117" lon="2.7482683"><ele>446.0</ele><time>2026-04-04T13:00:44.446Z</time></trkpt><trkpt lat="43.50206" lon="2.7484033"><ele>442.3333333333333</ele><time>2026-04-04T13:00:45.446Z</time></trkpt><trkpt lat="43.5019033" lon="2.7485233"><ele>438.66666666666663</ele><time>2026-04-04T13:00:46.446Z</time></trkpt><trkpt lat="43.5017517" lon="2.7486233"><ele>435.0</ele><time>2026-04-04T13:00:47.446Z</time></trkpt><trkpt lat="43.501615" lon="2.7486933"><ele>435.0</ele><time>2026-04-04T13:00:48.449Z</time></trkpt><trkpt lat="43.5014967" lon="2.748765"><ele>435.0</ele><time>2026-04-04T13:00:49.446Z</time></trkpt><trkpt lat="43.5014117" lon="2.7488617"><ele>435.0</ele><time>2026-04-04T13:00:50.447Z</time></trkpt><trkpt lat="43.50137" lon="2.7489833"><ele>435.0</ele><time>2026-04-04T13:00:51.446Z</time></trkpt><trkpt lat="43.5013667" lon="2.7491067"><ele>435.0</ele><time>2026-04-04T13:00:52.446Z</time></trkpt><trkpt lat="43.501395" lon="2.74922"><ele>435.0</ele><time>2026-04-04T13:00:53.444Z</time></trkpt><trkpt lat="43.50144" lon="2.7493083"><ele>435.0</ele><time>2026-04-04T13:00:54.447Z</time></trkpt><trkpt lat="43.5015133" lon="2.74936"><ele>435.0</ele><time>2026-04-04T13:00:55.444Z</time></trkpt><trkpt lat="43.5016167" lon="2.7493667"><ele>435.0</ele><time>2026-04-04T13:00:56.443Z</time></trkpt><trkpt lat="43.50175" lon="2.74931"><ele>435.0</ele><time>2026-04-04T13:00:57.443Z</time></trkpt><trkpt lat="43.5019133" lon="2.7492017"><ele>434.0</ele><time>2026-04-04T13:00:58.444Z</time></trkpt><trkpt lat="43.502115" lon="2.749065"><ele>433.0</ele><time>2026-04-04T13:00:59.443Z</time></trkpt><trkpt lat="43.5023" lon="2.748945"><ele>432.0</ele><time>2026-04-04T13:01:00.443Z</time></trkpt><trkpt lat="43.5024567" lon="2.74885"><ele>432.0</ele><time>2026-04-04T13:01:01.443Z</time></trkpt><trkpt lat="43.5025933" lon="2.7487767"><ele>432.0</ele><time>2026-04-04T13:01:02.444Z</time></trkpt><trkpt lat="43.50271" lon="2.7487233"><ele>432.0</ele><time>2026-04-04T13:01:03.443Z</time></trkpt><trkpt lat="43.50282" lon="2.7487"><ele>432.0</ele><time>2026-04-04T13:01:04.445Z</time></trkpt><trkpt lat="43.5029133" lon="2.7487117"><ele>435.40000000000003</ele><time>2026-04-04T13:01:05.443Z</time></trkpt><trkpt lat="43.502995" lon="2.7487517"><ele>438.80000000000007</ele><time>2026-04-04T13:01:06.444Z</time></trkpt><trkpt lat="43.5030533" lon="2.7488133"><ele>442.2</ele><time>2026-04-04T13:01:07.443Z</time></trkpt><trkpt lat="43.5030683" lon="2.748905"><ele>445.6</ele><time>2026-04-04T13:01:08.443Z</time></trkpt><trkpt lat="43.5030317" lon="2.7490317"><ele>449.0</ele><time>2026-04-04T13:01:09.443Z</time></trkpt><trkpt lat="43.5029433" lon="2.7491717"><ele>445.5</ele><time>2026-04-04T13:01:10.443Z</time></trkpt><trkpt lat="43.5028383" lon="2.74927"><ele>442.0</ele><time>2026-04-04T13:01:11.444Z</time></trkpt><trkpt lat="43.502725" lon="2.74936"><ele>438.5</ele><time>2026-04-04T13:01:12.444Z</time></trkpt><trkpt lat="43.502635" lon="2.7494567"><ele>435.0</ele><time>2026-04-04T13:01:13.447Z</time></trkpt><trkpt lat="43.5025533" lon="2.7495617"><ele>435.0</ele><time>2026-04-04T13:01:14.446Z</time></trkpt><trkpt lat="43.502485" lon="2.7496833"><ele>435.0</ele><time>2026-04-04T13:01:15.446Z</time></trkpt><trkpt lat="43.5024233" lon="2.7498267"><ele>435.0</ele><time>2026-04-04T13:01:16.445Z</time></trkpt><trkpt lat="43.502365" lon="2.75"><ele>435.0</ele><time>2026-04-04T13:01:17.444Z</time></trkpt><trkpt lat="43.5023083" lon="2.7501967"><ele>438.0</ele><time>2026-04-04T13:01:18.447Z</time></trkpt><trkpt lat="43.50224" lon="2.7504117"><ele>441.0</ele><time>2026-04-04T13:01:19.447Z</time></trkpt><trkpt lat="43.502165" lon="2.750635"><ele>444.0</ele><time>2026-04-04T13:01:20.444Z</time></trkpt><trkpt lat="43.502075" lon="2.7508533"><ele>440.0</ele><time>2026-04-04T13:01:21.447Z</time></trkpt><trkpt lat="43.50197" lon="2.7510617"><ele>436.0</ele><time>2026-04-04T13:01:22.447Z</time></trkpt><trkpt lat="43.5018483" lon="2.7512567"><ele>432.0</ele><time>2026-04-04T13:01:23.446Z</time></trkpt><trkpt lat="43.5017017" lon="2.7514217"><ele>432.0</ele><time>2026-04-04T13:01:24.445Z</time></trkpt><trkpt lat="43.5015317" lon="2.7515483"><ele>432.0</ele><time>2026-04-04T13:01:25.445Z</time></trkpt><trkpt lat="43.5013433" lon="2.75163"><ele>432.0</ele><time>2026-04-04T13:01:26.447Z</time></trkpt><trkpt lat="43.5011483" lon="2.7517"><ele>437.66666666666663</ele><time>2026-04-04T13:01:27.444Z</time></trkpt><trkpt lat="43.5009533" lon="2.7517633"><ele>443.3333333333333</ele><time>2026-04-04T13:01:28.447Z</time></trkpt><trkpt lat="43.5007633" lon="2.7518267"><ele>449.0</ele><time>2026-04-04T13:01:29.444Z</time></trkpt><trkpt lat="43.500575" lon="2.7518817"><ele>445.0</ele><time>2026-04-04T13:01:30.444Z</time></trkpt><trkpt lat="43.50039" lon="2.751915"><ele>441.0</ele><time>2026-04-04T13:01:31.444Z</time></trkpt><trkpt lat="43.5002083" lon="2.7519167"><ele>437.0</ele><time>2026-04-04T13:01:32.443Z</time></trkpt><trkpt lat="43.5000417" lon="2.751885"><ele>425.66666666666663</ele><time>2026-04-04T13:01:33.443Z</time></trkpt><trkpt lat="43.4998817" lon="2.7518"><ele>414.33333333333337</ele><time>2026-04-04T13:01:34.444Z</time></trkpt><trkpt lat="43.4997267" lon="2.7516983"><ele>403.0</ele><time>2026-04-04T13:01:35.453Z</time></trkpt><trkpt lat="43.4995933" lon="2.7515383"><ele>400.6666666666667</ele><time>2026-04-04T13:01:36.445Z</time></trkpt><trkpt lat="43.4994733" lon="2.7513333"><ele>398.33333333333337</ele><time>2026-04-04T13:01:37.444Z</time></trkpt><trkpt lat="43.4993483" lon="2.75112"><ele>396.0</ele><time>2026-04-04T13:01:38.444Z</time></trkpt><trkpt lat="43.4992067" lon="2.7509333"><ele>396.0</ele><time>2026-04-04T13:01:39.443Z</time></trkpt><trkpt lat="43.4990633" lon="2.7507783"><ele>396.0</ele><time>2026-04-04T13:01:40.447Z</time></trkpt><trkpt lat="43.4989133" lon="2.7506633"><ele>396.0</ele><time>2026-04-04T13:01:41.447Z</time></trkpt><trkpt lat="43.4987583" lon="2.7505883"><ele>395.33333333333337</ele><time>2026-04-04T13:01:42.443Z</time></trkpt><trkpt lat="43.4986" lon="2.7505633"><ele>394.6666666666667</ele><time>2026-04-04T13:01:43.447Z</time></trkpt><trkpt lat="43.4984483" lon="2.7506133"><ele>394.0</ele><time>2026-04-04T13:01:44.446Z</time></trkpt><trkpt lat="43.4982983" lon="2.7507383"><ele>394.0</ele><time>2026-04-04T13:01:45.446Z</time></trkpt><trkpt lat="43.4981567" lon="2.7509267"><ele>394.0</ele><time>2026-04-04T13:01:46.447Z</time></trkpt><trkpt lat="43.4980183" lon="2.75114"><ele>394.0</ele><time>2026-04-04T13:01:47.446Z</time></trkpt><trkpt lat="43.4978833" lon="2.751365"><ele>392.6666666666667</ele><time>2026-04-04T13:01:48.443Z</time></trkpt><trkpt lat="43.4977417" lon="2.7515967"><ele>391.33333333333337</ele><time>2026-04-04T13:01:49.446Z</time></trkpt><trkpt lat="43.4976083" lon="2.7518383"><ele>390.0</ele><time>2026-04-04T13:01:50.448Z</time></trkpt><trkpt lat="43.4974967" lon="2.752095"><ele>390.0</ele><time>2026-04-04T13:01:51.447Z</time></trkpt><trkpt lat="43.4974117" lon="2.7523633"><ele>390.0</ele><time>2026-04-04T13:01:52.448Z</time></trkpt><trkpt lat="43.4973517" lon="2.7526433"><ele>390.0</ele><time>2026-04-04T13:01:53.446Z</time></trkpt><trkpt lat="43.49731" lon="2.7529367"><ele>390.33333333333337</ele><time>2026-04-04T13:01:54.446Z</time></trkpt><trkpt lat="43.497275" lon="2.7532233"><ele>390.6666666666667</ele><time>2026-04-04T13:01:55.447Z</time></trkpt><trkpt lat="43.4972367" lon="2.7535033"><ele>391.0</ele><time>2026-04-04T13:01:56.447Z</time></trkpt><trkpt lat="43.49718" lon="2.7537717"><ele>391.6666666666667</ele><time>2026-04-04T13:01:57.444Z</time></trkpt><trkpt lat="43.497095" lon="2.7540267"><ele>392.33333333333337</ele><time>2026-04-04T13:01:58.447Z</time></trkpt><trkpt lat="43.4969833" lon="2.7542667"><ele>393.0</ele><time>2026-04-04T13:01:59.443Z</time></trkpt><trkpt lat="43.4968567" lon="2.7544933"><ele>388.3333333333333</ele><time>2026-04-04T13:02:00.444Z</time></trkpt><trkpt lat="43.4967067" lon="2.7546917"><ele>383.66666666666663</ele><time>2026-04-04T13:02:01.448Z</time></trkpt><trkpt lat="43.496535" lon="2.7548633"><ele>379.0</ele><time>2026-04-04T13:02:02.443Z</time></trkpt><trkpt lat="43.49635" lon="2.7550217"><ele>376.3333333333333</ele><time>2026-04-04T13:02:03.444Z</time></trkpt><trkpt lat="43.4961583" lon="2.7551633"><ele>373.6666666666667</ele><time>2026-04-04T13:02:04.445Z</time></trkpt><trkpt lat="43.4959667" lon="2.7552933"><ele>371.0</ele><time>2026-04-04T13:02:05.445Z</time></trkpt><trkpt lat="43.4957717" lon="2.7554167"><ele>371.0</ele><time>2026-04-04T13:02:06.445Z</time></trkpt><trkpt lat="43.4955833" lon="2.755535"><ele>371.0</ele><time>2026-04-04T13:02:07.445Z</time></trkpt><trkpt lat="43.4953967" lon="2.7556367"><ele>371.0</ele><time>2026-04-04T13:02:08.444Z</time></trkpt><trkpt lat="43.4952117" lon="2.7557117"><ele>367.33333333333337</ele><time>2026-04-04T13:02:09.444Z</time></trkpt><trkpt lat="43.4950217" lon="2.75575"><ele>363.6666666666667</ele><time>2026-04-04T13:02:10.444Z</time></trkpt><trkpt lat="43.494835" lon="2.75577"><ele>360.0</ele><time>2026-04-04T13:02:11.443Z</time></trkpt><trkpt lat="43.4946517" lon="2.7557733"><ele>356.6666666666667</ele><time>2026-04-04T13:02:12.446Z</time></trkpt><trkpt lat="43.4944733" lon="2.7557783"><ele>353.33333333333337</ele><time>2026-04-04T13:02:13.443Z</time></trkpt><trkpt lat="43.4943033" lon="2.7558117"><ele>350.0</ele><time>2026-04-04T13:02:14.446Z</time></trkpt><trkpt lat="43.4941383" lon="2.7558683"><ele>350.0</ele><time>2026-04-04T13:02:15.445Z</time></trkpt><trkpt lat="43.4939767" lon="2.7559367"><ele>350.0</ele><time>2026-04-04T13:02:16.445Z</time></trkpt><trkpt lat="43.493825" lon="2.7560417"><ele>350.0</ele><time>2026-04-04T13:02:17.446Z</time></trkpt><trkpt lat="43.49368" lon="2.75618"><ele>348.0</ele><time>2026-04-04T13:02:18.448Z</time></trkpt><trkpt lat="43.4935517" lon="2.7563333"><ele>346.0</ele><time>2026-04-04T13:02:19.445Z</time></trkpt><trkpt lat="43.4934283" lon="2.75649"><ele>344.0</ele><time>2026-04-04T13:02:20.446Z</time></trkpt><trkpt lat="43.4933133" lon="2.756645"><ele>344.0</ele><time>2026-04-04T13:02:21.445Z</time></trkpt><trkpt lat="43.493195" lon="2.7567933"><ele>344.0</ele><time>2026-04-04T13:02:22.444Z</time></trkpt><trkpt lat="43.4930717" lon="2.7569233"><ele>344.0</ele><time>2026-04-04T13:02:23.443Z</time></trkpt><trkpt lat="43.49294" lon="2.7570367"><ele>343.75</ele><time>2026-04-04T13:02:24.445Z</time></trkpt><trkpt lat="43.4928117" lon="2.7571317"><ele>343.5</ele><time>2026-04-04T13:02:25.446Z</time></trkpt><trkpt lat="43.49268" lon="2.757205"><ele>343.25</ele><time>2026-04-04T13:02:26.445Z</time></trkpt><trkpt lat="43.492535" lon="2.7572567"><ele>343.0</ele><time>2026-04-04T13:02:27.443Z</time></trkpt><trkpt lat="43.4923833" lon="2.7572717"><ele>343.0</ele><time>2026-04-04T13:02:28.443Z</time></trkpt><trkpt lat="43.492225" lon="2.7572533"><ele>343.0</ele><time>2026-04-04T13:02:29.446Z</time></trkpt><trkpt lat="43.4920633" lon="2.7572433"><ele>343.0</ele><time>2026-04-04T13:02:30.443Z</time></trkpt><trkpt lat="43.491905" lon="2.7572667"><ele>342.0</ele><time>2026-04-04T13:02:31.443Z</time></trkpt><trkpt lat="43.4917567" lon="2.7573067"><ele>341.0</ele><time>2026-04-04T13:02:32.442Z</time></trkpt><trkpt lat="43.4916133" lon="2.7573517"><ele>340.0</ele><time>2026-04-04T13:02:33.443Z</time></trkpt><trkpt lat="43.49148" lon="2.7573817"><ele>339.0</ele><time>2026-04-04T13:02:34.443Z</time></trkpt><trkpt lat="43.4913417" lon="2.7573933"><ele>337.75</ele><time>2026-04-04T13:02:35.443Z</time></trkpt><trkpt lat="43.4912083" lon="2.7573867"><ele>336.5</ele><time>2026-04-04T13:02:36.443Z</time></trkpt><trkpt lat="43.491065" lon="2.7573683"><ele>335.25</ele><time>2026-04-04T13:02:37.444Z</time></trkpt><trkpt lat="43.4909267" lon="2.7573383"><ele>334.0</ele><time>2026-04-04T13:02:38.444Z</time></trkpt><trkpt lat="43.4907933" lon="2.7573033"><ele>334.0</ele><time>2026-04-04T13:02:39.443Z</time></trkpt><trkpt lat="43.4906667" lon="2.7572517"><ele>334.0</ele><time>2026-04-04T13:02:40.444Z</time></trkpt><trkpt lat="43.49054" lon="2.7571833"><ele>334.0</ele><time>2026-04-04T13:02:41.444Z</time></trkpt><trkpt lat="43.49041" lon="2.757105"><ele>334.0</ele><time>2026-04-04T13:02:42.444Z</time></trkpt><trkpt lat="43.4902833" lon="2.757035"><ele>332.0</ele><time>2026-04-04T13:02:43.448Z</time></trkpt><trkpt lat="43.4901583" lon="2.7569617"><ele>330.0</ele><time>2026-04-04T13:02:44.444Z</time></trkpt><trkpt lat="43.4900383" lon="2.7568833"><ele>328.0</ele><time>2026-04-04T13:02:45.446Z</time></trkpt><trkpt lat="43.489925" lon="2.7568367"><ele>326.0</ele><time>2026-04-04T13:02:46.446Z</time></trkpt><trkpt lat="43.4898133" lon="2.75682"><ele>326.0</ele><time>2026-04-04T13:02:47.444Z</time></trkpt><trkpt lat="43.4897167" lon="2.756855"><ele>326.0</ele><time>2026-04-04T13:02:48.446Z</time></trkpt><trkpt lat="43.489635" lon="2.7569333"><ele>326.0</ele><time>2026-04-04T13:02:49.443Z</time></trkpt><trkpt lat="43.489555" lon="2.7570333"><ele>326.0</ele><time>2026-04-04T13:02:50.444Z</time></trkpt><trkpt lat="43.48948" lon="2.7571467"><ele>326.0</ele><time>2026-04-04T13:02:51.444Z</time></trkpt><trkpt lat="43.4894017" lon="2.7572483"><ele>324.6666666666667</ele><time>2026-04-04T13:02:52.444Z</time></trkpt><trkpt lat="43.489335" lon="2.7573467"><ele>323.33333333333337</ele><time>2026-04-04T13:02:53.444Z</time></trkpt><trkpt lat="43.489275" lon="2.7574467"><ele>322.0</ele><time>2026-04-04T13:02:54.445Z</time></trkpt><trkpt lat="43.4892133" lon="2.7575417"><ele>320.6666666666667</ele><time>2026-04-04T13:02:55.444Z</time></trkpt><trkpt lat="43.489155" lon="2.7576267"><ele>319.3333333333333</ele><time>2026-04-04T13:02:56.446Z</time></trkpt><trkpt lat="43.4891067" lon="2.75769"><ele>318.0</ele><time>2026-04-04T13:02:57.444Z</time></trkpt><trkpt lat="43.4890483" lon="2.7577567"><ele>318.0</ele><time>2026-04-04T13:02:59.442Z</time></trkpt><trkpt lat="43.48897" lon="2.75784"><ele>318.0</ele><time>2026-04-04T13:03:02.442Z</time></trkpt><trkpt lat="43.4889" lon="2.7579217"><ele>318.0</ele><time>2026-04-04T13:03:04.445Z</time></trkpt><trkpt lat="43.488865" lon="2.7580617"><ele>318.0</ele><time>2026-04-04T13:03:06.443Z</time></trkpt><trkpt lat="43.4888583" lon="2.7582083"><ele>318.0</ele><time>2026-04-04T13:03:08.444Z</time></trkpt><trkpt lat="43.4888617" lon="2.75842"><ele>318.4</ele><time>2026-04-04T13:03:42.445Z</time></trkpt><trkpt lat="43.48884" lon="2.7586017"><ele>318.8</ele><time>2026-04-04T13:03:44.442Z</time></trkpt><trkpt lat="43.4888233" lon="2.7587083"><ele>319.2</ele><time>2026-04-04T13:03:45.443Z</time></trkpt><trkpt lat="43.48881" lon="2.7588167"><ele>319.6</ele><time>2026-04-04T13:03:46.443Z</time></trkpt><trkpt lat="43.4887933" lon="2.7589283"><ele>320.0</ele><time>2026-04-04T13:03:47.445Z</time></trkpt><trkpt lat="43.4887767" lon="2.7590383"><ele>320.0</ele><time>2026-04-04T13:03:48.444Z</time></trkpt><trkpt lat="43.4887617" lon="2.759145"><ele>320.0</ele><time>2026-04-04T13:03:49.443Z</time></trkpt><trkpt lat="43.4887467" lon="2.7592517"><ele>320.0</ele><time>2026-04-04T13:03:50.443Z</time></trkpt><trkpt lat="43.4887267" lon="2.7593583"><ele>320.0</ele><time>2026-04-04T13:03:51.444Z</time></trkpt><trkpt lat="43.4887067" lon="2.7594583"><ele>320.0</ele><time>2026-04-04T13:03:52.443Z</time></trkpt><trkpt lat="43.48868" lon="2.75955"><ele>320.0</ele><time>2026-04-04T13:03:53.443Z</time></trkpt><trkpt lat="43.4886517" lon="2.7596433"><ele>320.0</ele><time>2026-04-04T13:03:54.443Z</time></trkpt><trkpt lat="43.4886317" lon="2.7597367"><ele>320.0</ele><time>2026-04-04T13:03:55.443Z</time></trkpt><trkpt lat="43.488615" lon="2.7598267"><ele>320.0</ele><time>2026-04-04T13:03:56.444Z</time></trkpt><trkpt lat="43.4885833" lon="2.7599967"><ele>320.0</ele><time>2026-04-04T13:03:58.444Z</time></trkpt><trkpt lat="43.48856" lon="2.760085"><ele>320.0</ele><time>2026-04-04T13:03:59.443Z</time></trkpt><trkpt lat="43.4885367" lon="2.7601733"><ele>320.0</ele><time>2026-04-04T13:04:00.443Z</time></trkpt><trkpt lat="43.4885183" lon="2.7602667"><ele>320.0</ele><time>2026-04-04T13:04:01.444Z</time></trkpt><trkpt lat="43.488505" lon="2.7603617"><ele>320.0</ele><time>2026-04-04T13:04:02.443Z</time></trkpt><trkpt lat="43.488495" lon="2.7604567"><ele>320.0</ele><time>2026-04-04T13:04:03.443Z</time></trkpt><trkpt lat="43.488475" lon="2.7605517"><ele>320.0</ele><time>2026-04-04T13:04:04.444Z</time></trkpt><trkpt lat="43.4884533" lon="2.7606517"><ele>320.0</ele><time>2026-04-04T13:04:05.444Z</time></trkpt><trkpt lat="43.4884317" lon="2.7607617"><ele>320.0</ele><time>2026-04-04T13:04:06.443Z</time></trkpt><trkpt lat="43.4884083" lon="2.76088"><ele>320.0</ele><time>2026-04-04T13:04:07.445Z</time></trkpt><trkpt lat="43.4883833" lon="2.7610017"><ele>320.0</ele><time>2026-04-04T13:04:08.443Z</time></trkpt><trkpt lat="43.488355" lon="2.7611267"><ele>320.0</ele><time>2026-04-04T13:04:09.444Z</time></trkpt><trkpt lat="43.48833" lon="2.7612533"><ele>320.0</ele><time>2026-04-04T13:04:10.444Z</time></trkpt><trkpt lat="43.4883067" lon="2.7613817"><ele>320.0</ele><time>2026-04-04T13:04:11.444Z</time></trkpt><trkpt lat="43.488285" lon="2.76151"><ele>320.4</ele><time>2026-04-04T13:04:12.447Z</time></trkpt><trkpt lat="43.4882617" lon="2.761635"><ele>320.8</ele><time>2026-04-04T13:04:13.443Z</time></trkpt><trkpt lat="43.4882383" lon="2.7617583"><ele>321.20000000000005</ele><time>2026-04-04T13:04:14.444Z</time></trkpt><trkpt lat="43.4882117" lon="2.7618817"><ele>321.6</ele><time>2026-04-04T13:04:15.447Z</time></trkpt><trkpt lat="43.4881883" lon="2.7620083"><ele>322.0</ele><time>2026-04-04T13:04:16.445Z</time></trkpt><trkpt lat="43.4881633" lon="2.7621333"><ele>322.0</ele><time>2026-04-04T13:04:17.445Z</time></trkpt><trkpt lat="43.4881417" lon="2.762255"><ele>322.0</ele><time>2026-04-04T13:04:18.445Z</time></trkpt><trkpt lat="43.4881267" lon="2.7623817"><ele>322.0</ele><time>2026-04-04T13:04:19.445Z</time></trkpt><trkpt lat="43.4881067" lon="2.7625067"><ele>322.0</ele><time>2026-04-04T13:04:20.444Z</time></trkpt><trkpt lat="43.4880833" lon="2.7626283"><ele>322.0</ele><time>2026-04-04T13:04:21.444Z</time></trkpt><trkpt lat="43.4880617" lon="2.762745"><ele>322.0</ele><time>2026-04-04T13:04:22.444Z</time></trkpt><trkpt lat="43.4880433" lon="2.76286"><ele>322.0</ele><time>2026-04-04T13:04:23.445Z</time></trkpt><trkpt lat="43.4880233" lon="2.762975"><ele>322.0</ele><time>2026-04-04T13:04:24.444Z</time></trkpt><trkpt lat="43.4880033" lon="2.7630917"><ele>322.0</ele><time>2026-04-04T13:04:25.443Z</time></trkpt><trkpt lat="43.4879783" lon="2.7632117"><ele>322.0</ele><time>2026-04-04T13:04:26.442Z</time></trkpt><trkpt lat="43.48796" lon="2.7633317"><ele>322.0</ele><time>2026-04-04T13:04:27.443Z</time></trkpt><trkpt lat="43.4879383" lon="2.7634467"><ele>319.8333333333333</ele><time>2026-04-04T13:04:28.445Z</time></trkpt><trkpt lat="43.4878967" lon="2.7635533"><ele>317.66666666666663</ele><time>2026-04-04T13:04:29.446Z</time></trkpt><trkpt lat="43.4878733" lon="2.7636683"><ele>315.5</ele><time>2026-04-04T13:04:30.443Z</time></trkpt><trkpt lat="43.48785" lon="2.7637817"><ele>313.3333333333333</ele><time>2026-04-04T13:04:31.446Z</time></trkpt><trkpt lat="43.487835" lon="2.7638883"><ele>311.1666666666667</ele><time>2026-04-04T13:04:32.443Z</time></trkpt><trkpt lat="43.48783" lon="2.7639883"><ele>309.0</ele><time>2026-04-04T13:04:33.443Z</time></trkpt><trkpt lat="43.487825" lon="2.76408"><ele>309.0</ele><time>2026-04-04T13:04:34.443Z</time></trkpt><trkpt lat="43.4877967" lon="2.7642167"><ele>309.0</ele><time>2026-04-04T13:04:36.443Z</time></trkpt><trkpt lat="43.4877683" lon="2.7643"><ele>309.0</ele><time>2026-04-04T13:04:38.444Z</time></trkpt><trkpt lat="43.4877467" lon="2.7644067"><ele>309.0</ele><time>2026-04-04T13:08:14.446Z</time></trkpt><trkpt lat="43.48775" lon="2.7645183"><ele>309.0</ele><time>2026-04-04T13:08:17.444Z</time></trkpt><trkpt lat="43.4877283" lon="2.7646467"><ele>309.0</ele><time>2026-04-04T13:18:11.445Z</time></trkpt><trkpt lat="43.487795" lon="2.7645683"><ele>309.0</ele><time>2026-04-04T13:18:22.446Z</time></trkpt><trkpt lat="43.487825" lon="2.7644517"><ele>309.0</ele><time>2026-04-04T13:18:25.446Z</time></trkpt><trkpt lat="43.4878467" lon="2.764345"><ele>309.0</ele><time>2026-04-04T13:18:28.445Z</time></trkpt><trkpt lat="43.487865" lon="2.7642283"><ele>309.0</ele><time>2026-04-04T13:18:31.446Z</time></trkpt><trkpt lat="43.4878817" lon="2.7641117"><ele>309.0</ele><time>2026-04-04T13:18:34.447Z</time></trkpt><trkpt lat="43.4878983" lon="2.7639983"><ele>309.0</ele><time>2026-04-04T13:18:37.443Z</time></trkpt><trkpt lat="43.4879167" lon="2.7638883"><ele>309.5</ele><time>2026-04-04T13:18:40.447Z</time></trkpt><trkpt lat="43.48793" lon="2.7637717"><ele>310.0</ele><time>2026-04-04T13:18:43.446Z</time></trkpt><trkpt lat="43.4879417" lon="2.763665"><ele>310.5</ele><time>2026-04-04T13:18:46.444Z</time></trkpt><trkpt lat="43.4879567" lon="2.7635517"><ele>311.0</ele><time>2026-04-04T13:18:49.443Z</time></trkpt><trkpt lat="43.4879617" lon="2.7634333"><ele>311.5</ele><time>2026-04-04T13:18:52.443Z</time></trkpt><trkpt lat="43.48793" lon="2.7633183"><ele>312.0</ele><time>2026-04-04T13:18:55.443Z</time></trkpt><trkpt lat="43.4878617" lon="2.7632733"><ele>312.0</ele><time>2026-04-04T13:18:58.447Z</time></trkpt><trkpt lat="43.4877867" lon="2.7632583"><ele>312.0</ele><time>2026-04-04T13:19:00.443Z</time></trkpt><trkpt lat="43.4876683" lon="2.763235"><ele>312.0</ele><time>2026-04-04T13:19:02.447Z</time></trkpt><trkpt lat="43.487605" lon="2.7632167"><ele>312.0</ele><time>2026-04-04T13:19:03.443Z</time></trkpt><trkpt lat="43.4875417" lon="2.76321"><ele>312.0</ele><time>2026-04-04T13:19:04.444Z</time></trkpt><trkpt lat="43.4874767" lon="2.7632017"><ele>312.0</ele><time>2026-04-04T13:19:05.444Z</time></trkpt><trkpt lat="43.4874117" lon="2.7631817"><ele>312.0</ele><time>2026-04-04T13:19:06.444Z</time></trkpt><trkpt lat="43.4872917" lon="2.7631533"><ele>312.0</ele><time>2026-04-04T13:19:08.444Z</time></trkpt><trkpt lat="43.4871683" lon="2.7631117"><ele>312.0</ele><time>2026-04-04T13:19:10.445Z</time></trkpt><trkpt lat="43.4871017" lon="2.7630917"><ele>312.0</ele><time>2026-04-04T13:19:11.444Z</time></trkpt><trkpt lat="43.4870383" lon="2.7630767"><ele>312.0</ele><time>2026-04-04T13:19:12.445Z</time></trkpt><trkpt lat="43.4869733" lon="2.763065"><ele>312.0</ele><time>2026-04-04T13:19:13.445Z</time></trkpt><trkpt lat="43.4869083" lon="2.7630533"><ele>313.0</ele><time>2026-04-04T13:19:14.443Z</time></trkpt><trkpt lat="43.4867867" lon="2.7630183"><ele>314.0</ele><time>2026-04-04T13:19:16.443Z</time></trkpt><trkpt lat="43.4866817" lon="2.763"><ele>315.0</ele><time>2026-04-04T13:19:18.447Z</time></trkpt><trkpt lat="43.48662" lon="2.7630867"><ele>316.0</ele><time>2026-04-04T13:19:20.447Z</time></trkpt><trkpt lat="43.4865967" lon="2.7632683"><ele>316.0</ele><time>2026-04-04T13:19:22.446Z</time></trkpt><trkpt lat="43.48659" lon="2.763395"><ele>316.0</ele><time>2026-04-04T13:19:23.443Z</time></trkpt><trkpt lat="43.4865883" lon="2.76353"><ele>316.0</ele><time>2026-04-04T13:19:24.443Z</time></trkpt><trkpt lat="43.486585" lon="2.7636717"><ele>316.0</ele><time>2026-04-04T13:19:25.446Z</time></trkpt><trkpt lat="43.4865883" lon="2.7638217"><ele>316.0</ele><time>2026-04-04T13:19:26.444Z</time></trkpt><trkpt lat="43.48659" lon="2.76398"><ele>316.0</ele><time>2026-04-04T13:19:27.446Z</time></trkpt><trkpt lat="43.4865867" lon="2.76414"><ele>316.0</ele><time>2026-04-04T13:19:28.445Z</time></trkpt><trkpt lat="43.4865833" lon="2.7643017"><ele>316.0</ele><time>2026-04-04T13:19:29.442Z</time></trkpt><trkpt lat="43.4865817" lon="2.7644683"><ele>316.0</ele><time>2026-04-04T13:19:30.443Z</time></trkpt><trkpt lat="43.486585" lon="2.7646367"><ele>315.25</ele><time>2026-04-04T13:19:31.443Z</time></trkpt><trkpt lat="43.4865833" lon="2.7648067"><ele>314.5</ele><time>2026-04-04T13:19:32.446Z</time></trkpt><trkpt lat="43.4865833" lon="2.7649817"><ele>313.75</ele><time>2026-04-04T13:19:33.442Z</time></trkpt><trkpt lat="43.4865933" lon="2.7651617"><ele>313.0</ele><time>2026-04-04T13:19:34.443Z</time></trkpt><trkpt lat="43.4865917" lon="2.765345"><ele>313.0</ele><time>2026-04-04T13:19:35.446Z</time></trkpt><trkpt lat="43.4865817" lon="2.7655217"><ele>313.0</ele><time>2026-04-04T13:19:36.442Z</time></trkpt><trkpt lat="43.4865733" lon="2.7656833"><ele>313.0</ele><time>2026-04-04T13:19:37.444Z</time></trkpt><trkpt lat="43.4865683" lon="2.76584"><ele>313.0</ele><time>2026-04-04T13:19:38.443Z</time></trkpt><trkpt lat="43.486555" lon="2.765995"><ele>312.75</ele><time>2026-04-04T13:19:39.443Z</time></trkpt><trkpt lat="43.48653" lon="2.7661583"><ele>312.5</ele><time>2026-04-04T13:19:40.446Z</time></trkpt><trkpt lat="43.4864933" lon="2.7663333"><ele>312.25</ele><time>2026-04-04T13:19:41.446Z</time></trkpt><trkpt lat="43.4864467" lon="2.7665117"><ele>312.0</ele><time>2026-04-04T13:19:42.443Z</time></trkpt><trkpt lat="43.4863983" lon="2.7666933"><ele>311.25</ele><time>2026-04-04T13:19:43.443Z</time></trkpt><trkpt lat="43.48635" lon="2.766885"><ele>310.5</ele><time>2026-04-04T13:19:44.446Z</time></trkpt><trkpt lat="43.4863" lon="2.7670783"><ele>309.75</ele><time>2026-04-04T13:19:45.443Z</time></trkpt><trkpt lat="43.4862433" lon="2.7672717"><ele>309.0</ele><time>2026-04-04T13:19:46.444Z</time></trkpt><trkpt lat="43.486185" lon="2.7674633"><ele>312.25</ele><time>2026-04-04T13:19:47.446Z</time></trkpt><trkpt lat="43.4861267" lon="2.767655"><ele>315.5</ele><time>2026-04-04T13:19:48.443Z</time></trkpt><trkpt lat="43.4860683" lon="2.76784"><ele>318.75</ele><time>2026-04-04T13:19:49.444Z</time></trkpt><trkpt lat="43.486015" lon="2.768015"><ele>322.0</ele><time>2026-04-04T13:19:50.443Z</time></trkpt><trkpt lat="43.485955" lon="2.7681683"><ele>322.0</ele><time>2026-04-04T13:19:51.447Z</time></trkpt><trkpt lat="43.4858767" lon="2.76829"><ele>322.0</ele><time>2026-04-04T13:19:52.443Z</time></trkpt><trkpt lat="43.48577" lon="2.768355"><ele>322.0</ele><time>2026-04-04T13:19:53.443Z</time></trkpt><trkpt lat="43.4856667" lon="2.76837"><ele>322.0</ele><time>2026-04-04T13:19:54.443Z</time></trkpt><trkpt lat="43.4855433" lon="2.7683183"><ele>322.0</ele><time>2026-04-04T13:19:55.443Z</time></trkpt><trkpt lat="43.4854333" lon="2.7682017"><ele>322.0</ele><time>2026-04-04T13:19:56.444Z</time></trkpt><trkpt lat="43.4853283" lon="2.76807"><ele>322.0</ele><time>2026-04-04T13:19:57.443Z</time></trkpt><trkpt lat="43.4852217" lon="2.76792"><ele>322.0</ele><time>2026-04-04T13:19:58.443Z</time></trkpt><trkpt lat="43.485115" lon="2.7677617"><ele>323.66666666666663</ele><time>2026-04-04T13:19:59.443Z</time></trkpt><trkpt lat="43.4849867" lon="2.7676117"><ele>325.3333333333333</ele><time>2026-04-04T13:20:00.446Z</time></trkpt><trkpt lat="43.4848483" lon="2.7674783"><ele>327.0</ele><time>2026-04-04T13:20:01.447Z</time></trkpt><trkpt lat="43.484695" lon="2.76738"><ele>322.3333333333333</ele><time>2026-04-04T13:20:02.446Z</time></trkpt><trkpt lat="43.484535" lon="2.7673133"><ele>317.66666666666663</ele><time>2026-04-04T13:20:03.446Z</time></trkpt><trkpt lat="43.4843683" lon="2.7672617"><ele>313.0</ele><time>2026-04-04T13:20:04.446Z</time></trkpt><trkpt lat="43.4841983" lon="2.76722"><ele>313.0</ele><time>2026-04-04T13:20:05.444Z</time></trkpt><trkpt lat="43.4840283" lon="2.7671967"><ele>313.0</ele><time>2026-04-04T13:20:06.446Z</time></trkpt><trkpt lat="43.4838617" lon="2.7672067"><ele>313.0</ele><time>2026-04-04T13:20:07.447Z</time></trkpt><trkpt lat="43.4836967" lon="2.7672467"><ele>315.0</ele><time>2026-04-04T13:20:08.446Z</time></trkpt><trkpt lat="43.48354" lon="2.7673117"><ele>317.0</ele><time>2026-04-04T13:20:09.446Z</time></trkpt><trkpt lat="43.4833917" lon="2.76741"><ele>319.0</ele><time>2026-04-04T13:20:10.446Z</time></trkpt><trkpt lat="43.48326" lon="2.7675383"><ele>319.0</ele><time>2026-04-04T13:20:11.443Z</time></trkpt><trkpt lat="43.4831333" lon="2.7676917"><ele>319.0</ele><time>2026-04-04T13:20:12.447Z</time></trkpt><trkpt lat="43.4830117" lon="2.767855"><ele>319.0</ele><time>2026-04-04T13:20:13.446Z</time></trkpt><trkpt lat="43.482895" lon="2.7680133"><ele>318.75</ele><time>2026-04-04T13:20:14.444Z</time></trkpt><trkpt lat="43.48278" lon="2.7681683"><ele>318.5</ele><time>2026-04-04T13:20:15.444Z</time></trkpt><trkpt lat="43.4826683" lon="2.76831"><ele>318.25</ele><time>2026-04-04T13:20:16.446Z</time></trkpt><trkpt lat="43.4825683" lon="2.7684317"><ele>318.0</ele><time>2026-04-04T13:20:17.443Z</time></trkpt><trkpt lat="43.48247" lon="2.7685167"><ele>318.0</ele><time>2026-04-04T13:20:18.446Z</time></trkpt><trkpt lat="43.4823617" lon="2.7685617"><ele>318.0</ele><time>2026-04-04T13:20:19.444Z</time></trkpt><trkpt lat="43.482245" lon="2.7685567"><ele>318.0</ele><time>2026-04-04T13:20:20.444Z</time></trkpt><trkpt lat="43.4821267" lon="2.7684883"><ele>318.0</ele><time>2026-04-04T13:20:21.443Z</time></trkpt><trkpt lat="43.4820117" lon="2.7683717"><ele>316.0</ele><time>2026-04-04T13:20:22.444Z</time></trkpt><trkpt lat="43.4818933" lon="2.7682417"><ele>314.0</ele><time>2026-04-04T13:20:23.446Z</time></trkpt><trkpt lat="43.48176" lon="2.7681167"><ele>312.0</ele><time>2026-04-04T13:20:24.447Z</time></trkpt><trkpt lat="43.4816183" lon="2.7680183"><ele>312.0</ele><time>2026-04-04T13:20:25.447Z</time></trkpt><trkpt lat="43.48146" lon="2.76793"><ele>312.0</ele><time>2026-04-04T13:20:26.445Z</time></trkpt><trkpt lat="43.4812933" lon="2.7678517"><ele>312.0</ele><time>2026-04-04T13:20:27.445Z</time></trkpt><trkpt lat="43.4811283" lon="2.7677783"><ele>310.0</ele><time>2026-04-04T13:20:28.446Z</time></trkpt><trkpt lat="43.4809567" lon="2.767715"><ele>308.0</ele><time>2026-04-04T13:20:29.443Z</time></trkpt><trkpt lat="43.4807833" lon="2.7676633"><ele>306.0</ele><time>2026-04-04T13:20:30.446Z</time></trkpt><trkpt lat="43.480605" lon="2.7676317"><ele>308.6666666666667</ele><time>2026-04-04T13:20:31.446Z</time></trkpt><trkpt lat="43.4804283" lon="2.7676033"><ele>311.33333333333337</ele><time>2026-04-04T13:20:32.446Z</time></trkpt><trkpt lat="43.4802517" lon="2.76758"><ele>314.0</ele><time>2026-04-04T13:20:33.444Z</time></trkpt><trkpt lat="43.4800867" lon="2.7675567"><ele>314.0</ele><time>2026-04-04T13:20:34.443Z</time></trkpt><trkpt lat="43.4799333" lon="2.7675317"><ele>314.0</ele><time>2026-04-04T13:20:35.443Z</time></trkpt><trkpt lat="43.4797817" lon="2.76748"><ele>314.0</ele><time>2026-04-04T13:20:36.443Z</time></trkpt><trkpt lat="43.4796317" lon="2.7674"><ele>312.0</ele><time>2026-04-04T13:20:37.446Z</time></trkpt><trkpt lat="43.47948" lon="2.7672967"><ele>310.0</ele><time>2026-04-04T13:20:38.444Z</time></trkpt><trkpt lat="43.47933" lon="2.767185"><ele>308.0</ele><time>2026-04-04T13:20:39.443Z</time></trkpt><trkpt lat="43.4791783" lon="2.7670783"><ele>308.0</ele><time>2026-04-04T13:20:40.446Z</time></trkpt><trkpt lat="43.4790417" lon="2.7669783"><ele>308.0</ele><time>2026-04-04T13:20:41.447Z</time></trkpt><trkpt lat="43.478905" lon="2.7668867"><ele>308.0</ele><time>2026-04-04T13:20:42.447Z</time></trkpt><trkpt lat="43.4787733" lon="2.76679"><ele>311.0</ele><time>2026-04-04T13:20:43.446Z</time></trkpt><trkpt lat="43.478645" lon="2.7666767"><ele>314.0</ele><time>2026-04-04T13:20:44.446Z</time></trkpt><trkpt lat="43.4785267" lon="2.766535"><ele>317.0</ele><time>2026-04-04T13:20:45.443Z</time></trkpt><trkpt lat="43.4784183" lon="2.7663717"><ele>317.0</ele><time>2026-04-04T13:20:46.443Z</time></trkpt><trkpt lat="43.4783167" lon="2.7661933"><ele>317.0</ele><time>2026-04-04T13:20:47.446Z</time></trkpt><trkpt lat="43.4782167" lon="2.76601"><ele>317.0</ele><time>2026-04-04T13:20:48.446Z</time></trkpt><trkpt lat="43.4781067" lon="2.7658367"><ele>318.0</ele><time>2026-04-04T13:20:49.446Z</time></trkpt><trkpt lat="43.47799" lon="2.76568"><ele>319.0</ele><time>2026-04-04T13:20:50.447Z</time></trkpt><trkpt lat="43.4778617" lon="2.7655417"><ele>320.0</ele><time>2026-04-04T13:20:51.451Z</time></trkpt><trkpt lat="43.4777317" lon="2.7654167"><ele>320.0</ele><time>2026-04-04T13:20:52.446Z</time></trkpt><trkpt lat="43.47759" lon="2.7653067"><ele>320.0</ele><time>2026-04-04T13:20:53.446Z</time></trkpt><trkpt lat="43.47745" lon="2.7651983"><ele>320.0</ele><time>2026-04-04T13:20:54.447Z</time></trkpt><trkpt lat="43.4773" lon="2.7650967"><ele>317.33333333333337</ele><time>2026-04-04T13:20:55.446Z</time></trkpt><trkpt lat="43.4771533" lon="2.7649983"><ele>314.6666666666667</ele><time>2026-04-04T13:20:56.446Z</time></trkpt><trkpt lat="43.4770133" lon="2.7649067"><ele>312.0</ele><time>2026-04-04T13:20:57.447Z</time></trkpt><trkpt lat="43.4768817" lon="2.7648283"><ele>312.0</ele><time>2026-04-04T13:20:58.446Z</time></trkpt><trkpt lat="43.4767567" lon="2.7647817"><ele>312.0</ele><time>2026-04-04T13:20:59.446Z</time></trkpt><trkpt lat="43.4766383" lon="2.7647583"><ele>312.0</ele><time>2026-04-04T13:21:00.444Z</time></trkpt><trkpt lat="43.476525" lon="2.7647583"><ele>312.0</ele><time>2026-04-04T13:21:01.442Z</time></trkpt><trkpt lat="43.47643" lon="2.7647767"><ele>312.0</ele><time>2026-04-04T13:21:02.442Z</time></trkpt><trkpt lat="43.4763533" lon="2.7647867"><ele>312.0</ele><time>2026-04-04T13:21:03.443Z</time></trkpt><trkpt lat="43.47629" lon="2.7647883"><ele>312.0</ele><time>2026-04-04T13:21:04.443Z</time></trkpt><trkpt lat="43.4762367" lon="2.7648417"><ele>312.0</ele><time>2026-04-04T13:21:07.446Z</time></trkpt><trkpt lat="43.476315" lon="2.7648667"><ele>312.0</ele><time>2026-04-04T13:21:09.447Z</time></trkpt><trkpt lat="43.47645" lon="2.7648183"><ele>312.0</ele><time>2026-04-04T13:21:11.444Z</time></trkpt><trkpt lat="43.47654" lon="2.7648017"><ele>312.0</ele><time>2026-04-04T13:21:12.443Z</time></trkpt><trkpt lat="43.4766483" lon="2.7648083"><ele>312.0</ele><time>2026-04-04T13:21:13.446Z</time></trkpt><trkpt lat="43.4768017" lon="2.7648483"><ele>312.0</ele><time>2026-04-04T13:21:14.446Z</time></trkpt><trkpt lat="43.4769367" lon="2.7649083"><ele>312.0</ele><time>2026-04-04T13:21:15.443Z</time></trkpt><trkpt lat="43.4770767" lon="2.7649917"><ele>311.6666666666667</ele><time>2026-04-04T13:21:16.444Z</time></trkpt><trkpt lat="43.4772167" lon="2.7650817"><ele>311.33333333333337</ele><time>2026-04-04T13:21:17.444Z</time></trkpt><trkpt lat="43.4773583" lon="2.765175"><ele>311.0</ele><time>2026-04-04T13:21:18.443Z</time></trkpt><trkpt lat="43.4775033" lon="2.7652767"><ele>314.0</ele><time>2026-04-04T13:21:19.443Z</time></trkpt><trkpt lat="43.4776467" lon="2.7653733"><ele>317.0</ele><time>2026-04-04T13:21:20.445Z</time></trkpt><trkpt lat="43.4777817" lon="2.765475"><ele>320.0</ele><time>2026-04-04T13:21:21.443Z</time></trkpt><trkpt lat="43.4779033" lon="2.7655817"><ele>319.25</ele><time>2026-04-04T13:21:22.444Z</time></trkpt><trkpt lat="43.47801" lon="2.7657067"><ele>318.5</ele><time>2026-04-04T13:21:23.447Z</time></trkpt><trkpt lat="43.4781083" lon="2.7658517"><ele>317.75</ele><time>2026-04-04T13:21:24.446Z</time></trkpt><trkpt lat="43.4782067" lon="2.7660067"><ele>317.0</ele><time>2026-04-04T13:21:25.446Z</time></trkpt><trkpt lat="43.4782983" lon="2.7661683"><ele>317.0</ele><time>2026-04-04T13:21:26.446Z</time></trkpt><trkpt lat="43.4783867" lon="2.7663233"><ele>317.0</ele><time>2026-04-04T13:21:27.447Z</time></trkpt><trkpt lat="43.4784683" lon="2.7664517"><ele>317.0</ele><time>2026-04-04T13:21:28.447Z</time></trkpt><trkpt lat="43.4785283" lon="2.766545"><ele>317.0</ele><time>2026-04-04T13:21:29.447Z</time></trkpt><trkpt lat="43.4785733" lon="2.766615"><ele>317.0</ele><time>2026-04-04T13:21:30.443Z</time></trkpt><trkpt lat="43.4785933" lon="2.7666983"><ele>317.0</ele><time>2026-04-04T13:21:32.446Z</time></trkpt><trkpt lat="43.4785033" lon="2.76661"><ele>317.0</ele><time>2026-04-04T13:21:34.445Z</time></trkpt><trkpt lat="43.4784367" lon="2.7665167"><ele>317.0</ele><time>2026-04-04T13:21:35.445Z</time></trkpt><trkpt lat="43.478365" lon="2.7664217"><ele>317.0</ele><time>2026-04-04T13:21:36.446Z</time></trkpt><trkpt lat="43.4782767" lon="2.76633"><ele>317.0</ele><time>2026-04-04T13:21:37.443Z</time></trkpt><trkpt lat="43.4781933" lon="2.7662617"><ele>317.0</ele><time>2026-04-04T13:21:38.443Z</time></trkpt><trkpt lat="43.4780983" lon="2.7662083"><ele>317.0</ele><time>2026-04-04T13:21:39.449Z</time></trkpt><trkpt lat="43.477995" lon="2.7661633"><ele>317.0</ele><time>2026-04-04T13:21:40.446Z</time></trkpt><trkpt lat="43.4779033" lon="2.766135"><ele>317.0</ele><time>2026-04-04T13:21:41.447Z</time></trkpt><trkpt lat="43.4778133" lon="2.7661217"><ele>317.0</ele><time>2026-04-04T13:21:42.446Z</time></trkpt><trkpt lat="43.4777283" lon="2.7661117"><ele>317.5</ele><time>2026-04-04T13:21:43.444Z</time></trkpt><trkpt lat="43.477645" lon="2.7660983"><ele>318.0</ele><time>2026-04-04T13:21:44.443Z</time></trkpt><trkpt lat="43.4775667" lon="2.7660667"><ele>318.5</ele><time>2026-04-04T13:21:45.445Z</time></trkpt><trkpt lat="43.4774883" lon="2.7660233"><ele>319.0</ele><time>2026-04-04T13:21:46.444Z</time></trkpt><trkpt lat="43.4774067" lon="2.7659817"><ele>319.5</ele><time>2026-04-04T13:21:47.443Z</time></trkpt><trkpt lat="43.4773217" lon="2.76594"><ele>320.0</ele><time>2026-04-04T13:21:48.443Z</time></trkpt><trkpt lat="43.47724" lon="2.765905"><ele>320.0</ele><time>2026-04-04T13:21:49.443Z</time></trkpt><trkpt lat="43.4771583" lon="2.76588"><ele>320.0</ele><time>2026-04-04T13:21:50.444Z</time></trkpt><trkpt lat="43.4770683" lon="2.7658617"><ele>320.0</ele><time>2026-04-04T13:21:51.444Z</time></trkpt><trkpt lat="43.4769867" lon="2.7658583"><ele>320.0</ele><time>2026-04-04T13:21:52.444Z</time></trkpt><trkpt lat="43.4769083" lon="2.76587"><ele>320.0</ele><time>2026-04-04T13:21:53.443Z</time></trkpt><trkpt lat="43.4768333" lon="2.7658883"><ele>320.0</ele><time>2026-04-04T13:21:54.445Z</time></trkpt><trkpt lat="43.4767717" lon="2.765915"><ele>319.8</ele><time>2026-04-04T13:21:55.446Z</time></trkpt><trkpt lat="43.4766917" lon="2.766"><ele>319.6</ele><time>2026-04-04T13:21:57.446Z</time></trkpt><trkpt lat="43.4766383" lon="2.76616"><ele>319.4</ele><time>2026-04-04T13:21:59.447Z</time></trkpt><trkpt lat="43.47661" lon="2.766245"><ele>319.2</ele><time>2026-04-04T13:22:00.446Z</time></trkpt><trkpt lat="43.476555" lon="2.7663333"><ele>319.0</ele><time>2026-04-04T13:22:02.443Z</time></trkpt><trkpt lat="43.4764683" lon="2.766405"><ele>318.66666666666663</ele><time>2026-04-04T13:22:05.446Z</time></trkpt><trkpt lat="43.4763933" lon="2.7665117"><ele>318.3333333333333</ele><time>2026-04-04T13:22:07.444Z</time></trkpt><trkpt lat="43.4763533" lon="2.7665833"><ele>318.0</ele><time>2026-04-04T13:22:08.443Z</time></trkpt><trkpt lat="43.4763133" lon="2.7666583"><ele>317.6666666666667</ele><time>2026-04-04T13:22:09.447Z</time></trkpt><trkpt lat="43.47627" lon="2.7667267"><ele>317.33333333333337</ele><time>2026-04-04T13:22:10.446Z</time></trkpt><trkpt lat="43.4762183" lon="2.7667967"><ele>317.0</ele><time>2026-04-04T13:22:11.444Z</time></trkpt><trkpt lat="43.47616" lon="2.7668733"><ele>319.5</ele><time>2026-04-04T13:22:12.444Z</time></trkpt><trkpt lat="43.4760967" lon="2.7669433"><ele>322.0</ele><time>2026-04-04T13:22:13.447Z</time></trkpt><trkpt lat="43.4760333" lon="2.7670133"><ele>324.5</ele><time>2026-04-04T13:22:14.444Z</time></trkpt><trkpt lat="43.4759717" lon="2.7670783"><ele>327.0</ele><time>2026-04-04T13:22:15.445Z</time></trkpt><trkpt lat="43.47591" lon="2.7671417"><ele>329.5</ele><time>2026-04-04T13:22:16.447Z</time></trkpt><trkpt lat="43.4758567" lon="2.7671983"><ele>332.0</ele><time>2026-04-04T13:22:17.444Z</time></trkpt><trkpt lat="43.4758" lon="2.7672483"><ele>332.0</ele><time>2026-04-04T13:22:18.444Z</time></trkpt><trkpt lat="43.4756917" lon="2.7673233"><ele>332.0</ele><time>2026-04-04T13:22:20.444Z</time></trkpt><trkpt lat="43.4755833" lon="2.76734"><ele>332.0</ele><time>2026-04-04T13:22:22.443Z</time></trkpt><trkpt lat="43.4755" lon="2.7673517"><ele>332.0</ele><time>2026-04-04T13:22:24.444Z</time></trkpt><trkpt lat="43.4754867" lon="2.76748"><ele>332.0</ele><time>2026-04-04T13:22:27.445Z</time></trkpt><trkpt lat="43.4754833" lon="2.76758"><ele>334.20000000000005</ele><time>2026-04-04T13:22:29.443Z</time></trkpt><trkpt lat="43.4754617" lon="2.7677083"><ele>336.4</ele><time>2026-04-04T13:22:32.446Z</time></trkpt><trkpt lat="43.4754567" lon="2.76783"><ele>338.6</ele><time>2026-04-04T13:22:34.444Z</time></trkpt><trkpt lat="43.4754517" lon="2.7679767"><ele>340.79999999999995</ele><time>2026-04-04T13:22:36.443Z</time></trkpt><trkpt lat="43.475485" lon="2.7681383"><ele>343.0</ele><time>2026-04-04T13:22:38.448Z</time></trkpt><trkpt lat="43.4755133" lon="2.7682167"><ele>343.0</ele><time>2026-04-04T13:22:39.448Z</time></trkpt><trkpt lat="43.475585" lon="2.7683383"><ele>343.0</ele><time>2026-04-04T13:22:41.446Z</time></trkpt><trkpt lat="43.4756433" lon="2.7684633"><ele>343.0</ele><time>2026-04-04T13:22:43.443Z</time></trkpt><trkpt lat="43.4756233" lon="2.7685533"><ele>343.0</ele><time>2026-04-04T13:22:45.445Z</time></trkpt><trkpt lat="43.4755367" lon="2.7685317"><ele>343.0</ele><time>2026-04-04T13:22:47.444Z</time></trkpt><trkpt lat="43.4754567" lon="2.7683883"><ele>343.79999999999995</ele><time>2026-04-04T13:22:49.445Z</time></trkpt><trkpt lat="43.4753883" lon="2.76829"><ele>344.6</ele><time>2026-04-04T13:22:50.443Z</time></trkpt><trkpt lat="43.4753117" lon="2.7681933"><ele>345.4</ele><time>2026-04-04T13:22:51.443Z</time></trkpt><trkpt lat="43.4752317" lon="2.7681117"><ele>346.20000000000005</ele><time>2026-04-04T13:22:52.447Z</time></trkpt><trkpt lat="43.4751483" lon="2.7680333"><ele>347.0</ele><time>2026-04-04T13:22:53.445Z</time></trkpt><trkpt lat="43.47508" lon="2.76796"><ele>347.0</ele><time>2026-04-04T13:22:54.443Z</time></trkpt><trkpt lat="43.4750167" lon="2.76791"><ele>347.0</ele><time>2026-04-04T13:22:55.446Z</time></trkpt><trkpt lat="43.4749517" lon="2.767915"><ele>347.0</ele><time>2026-04-04T13:22:57.445Z</time></trkpt><trkpt lat="43.4749367" lon="2.76802"><ele>347.0</ele><time>2026-04-04T13:22:59.445Z</time></trkpt><trkpt lat="43.4750233" lon="2.7681717"><ele>347.0</ele><time>2026-04-04T13:23:01.444Z</time></trkpt><trkpt lat="43.47511" lon="2.7682733"><ele>347.0</ele><time>2026-04-04T13:23:02.445Z</time></trkpt><trkpt lat="43.4751917" lon="2.7683783"><ele>347.0</ele><time>2026-04-04T13:23:03.443Z</time></trkpt><trkpt lat="43.47526" lon="2.7684967"><ele>347.0</ele><time>2026-04-04T13:23:04.446Z</time></trkpt><trkpt lat="43.475335" lon="2.7686283"><ele>347.0</ele><time>2026-04-04T13:23:05.446Z</time></trkpt><trkpt lat="43.4754067" lon="2.7687517"><ele>347.40000000000003</ele><time>2026-04-04T13:23:06.442Z</time></trkpt><trkpt lat="43.4754717" lon="2.768875"><ele>347.8</ele><time>2026-04-04T13:23:07.445Z</time></trkpt><trkpt lat="43.4755367" lon="2.7690033"><ele>348.2</ele><time>2026-04-04T13:23:08.443Z</time></trkpt><trkpt lat="43.4756" lon="2.7691283"><ele>348.6</ele><time>2026-04-04T13:23:09.443Z</time></trkpt><trkpt lat="43.4756633" lon="2.7692333"><ele>349.0</ele><time>2026-04-04T13:23:10.444Z</time></trkpt><trkpt lat="43.47572" lon="2.76932"><ele>349.0</ele><time>2026-04-04T13:23:11.445Z</time></trkpt><trkpt lat="43.4757633" lon="2.76939"><ele>349.0</ele><time>2026-04-04T13:23:12.443Z</time></trkpt><trkpt lat="43.475775" lon="2.7694917"><ele>349.0</ele><time>2026-04-04T13:23:14.446Z</time></trkpt><trkpt lat="43.4756633" lon="2.769455"><ele>349.0</ele><time>2026-04-04T13:23:17.443Z</time></trkpt><trkpt lat="43.4755767" lon="2.769365"><ele>349.0</ele><time>2026-04-04T13:23:18.443Z</time></trkpt><trkpt lat="43.47551" lon="2.7692683"><ele>349.0</ele><time>2026-04-04T13:23:19.444Z</time></trkpt><trkpt lat="43.4754417" lon="2.7691683"><ele>349.0</ele><time>2026-04-04T13:23:20.445Z</time></trkpt><trkpt lat="43.4753667" lon="2.7690683"><ele>349.0</ele><time>2026-04-04T13:23:21.442Z</time></trkpt><trkpt lat="43.4752733" lon="2.7689733"><ele>349.0</ele><time>2026-04-04T13:23:22.443Z</time></trkpt><trkpt lat="43.4751733" lon="2.76888"><ele>349.0</ele><time>2026-04-04T13:23:23.445Z</time></trkpt><trkpt lat="43.4750717" lon="2.7687883"><ele>348.5</ele><time>2026-04-04T13:23:24.445Z</time></trkpt><trkpt lat="43.4749583" lon="2.7686917"><ele>348.0</ele><time>2026-04-04T13:23:25.443Z</time></trkpt><trkpt lat="43.4748533" lon="2.7686017"><ele>347.5</ele><time>2026-04-04T13:23:26.444Z</time></trkpt><trkpt lat="43.4747583" lon="2.768515"><ele>347.0</ele><time>2026-04-04T13:23:27.443Z</time></trkpt><trkpt lat="43.4746517" lon="2.7684383"><ele>351.20000000000005</ele><time>2026-04-04T13:23:28.444Z</time></trkpt><trkpt lat="43.4745467" lon="2.76838"><ele>355.4</ele><time>2026-04-04T13:23:29.445Z</time></trkpt><trkpt lat="43.4744383" lon="2.768325"><ele>359.6</ele><time>2026-04-04T13:23:30.445Z</time></trkpt><trkpt lat="43.4743383" lon="2.7682567"><ele>363.79999999999995</ele><time>2026-04-04T13:23:31.446Z</time></trkpt><trkpt lat="43.4742417" lon="2.7681917"><ele>368.0</ele><time>2026-04-04T13:23:32.443Z</time></trkpt><trkpt lat="43.4741483" lon="2.768145"><ele>368.0</ele><time>2026-04-04T13:23:33.446Z</time></trkpt><trkpt lat="43.4740667" lon="2.7681233"><ele>368.0</ele><time>2026-04-04T13:23:34.445Z</time></trkpt><trkpt lat="43.4739883" lon="2.76813"><ele>368.0</ele><time>2026-04-04T13:23:35.446Z</time></trkpt><trkpt lat="43.4739117" lon="2.7681633"><ele>368.0</ele><time>2026-04-04T13:23:36.446Z</time></trkpt><trkpt lat="43.4738433" lon="2.7682267"><ele>368.0</ele><time>2026-04-04T13:23:37.445Z</time></trkpt><trkpt lat="43.473785" lon="2.7683"><ele>368.0</ele><time>2026-04-04T13:23:38.445Z</time></trkpt><trkpt lat="43.4737383" lon="2.76836"><ele>366.83333333333337</ele><time>2026-04-04T13:23:39.445Z</time></trkpt><trkpt lat="43.4736867" lon="2.76841"><ele>365.6666666666667</ele><time>2026-04-04T13:23:41.445Z</time></trkpt><trkpt lat="43.4736183" lon="2.76845"><ele>364.5</ele><time>2026-04-04T13:23:47.446Z</time></trkpt><trkpt lat="43.4735583" lon="2.76849"><ele>363.3333333333333</ele><time>2026-04-04T13:23:49.444Z</time></trkpt><trkpt lat="43.4734317" lon="2.7685017"><ele>362.16666666666663</ele><time>2026-04-04T13:23:51.442Z</time></trkpt><trkpt lat="43.473355" lon="2.7685183"><ele>361.0</ele><time>2026-04-04T13:23:52.443Z</time></trkpt><trkpt lat="43.473275" lon="2.7685367"><ele>365.16666666666663</ele><time>2026-04-04T13:23:53.445Z</time></trkpt><trkpt lat="43.4731933" lon="2.7685667"><ele>369.3333333333333</ele><time>2026-04-04T13:23:54.442Z</time></trkpt><trkpt lat="43.4731117" lon="2.7686"><ele>373.5</ele><time>2026-04-04T13:23:55.445Z</time></trkpt><trkpt lat="43.4730317" lon="2.768635"><ele>377.66666666666663</ele><time>2026-04-04T13:23:56.445Z</time></trkpt><trkpt lat="43.4729583" lon="2.7686767"><ele>381.8333333333333</ele><time>2026-04-04T13:23:57.445Z</time></trkpt><trkpt lat="43.47289" lon="2.7687367"><ele>386.0</ele><time>2026-04-04T13:23:58.445Z</time></trkpt><trkpt lat="43.4728183" lon="2.768805"><ele>385.99999999999994</ele><time>2026-04-04T13:23:59.445Z</time></trkpt><trkpt lat="43.4727483" lon="2.7688767"><ele>386.0</ele><time>2026-04-04T13:24:00.442Z</time></trkpt><trkpt lat="43.472675" lon="2.7689483"><ele>386.0</ele><time>2026-04-04T13:24:01.446Z</time></trkpt><trkpt lat="43.4726" lon="2.7690183"><ele>386.0</ele><time>2026-04-04T13:24:02.444Z</time></trkpt><trkpt lat="43.472525" lon="2.769085"><ele>385.99999999999994</ele><time>2026-04-04T13:24:03.446Z</time></trkpt><trkpt lat="43.4724533" lon="2.76915"><ele>386.0</ele><time>2026-04-04T13:24:04.446Z</time></trkpt><trkpt lat="43.4723833" lon="2.7692067"><ele>385.99999999999994</ele><time>2026-04-04T13:24:05.445Z</time></trkpt><trkpt lat="43.4723133" lon="2.769245"><ele>386.0</ele><time>2026-04-04T13:24:06.445Z</time></trkpt><trkpt lat="43.4722433" lon="2.7692667"><ele>386.0</ele><time>2026-04-04T13:24:07.447Z</time></trkpt><trkpt lat="43.4721733" lon="2.7692667"><ele>386.0</ele><time>2026-04-04T13:24:08.442Z</time></trkpt><trkpt lat="43.472075" lon="2.76929"><ele>385.99999999999994</ele><time>2026-04-04T13:24:10.446Z</time></trkpt><trkpt lat="43.4721717" lon="2.76937"><ele>386.0</ele><time>2026-04-04T13:24:14.443Z</time></trkpt><trkpt lat="43.47224" lon="2.769375"><ele>385.99999999999994</ele><time>2026-04-04T13:24:15.446Z</time></trkpt><trkpt lat="43.4723117" lon="2.76936"><ele>386.0</ele><time>2026-04-04T13:24:16.445Z</time></trkpt><trkpt lat="43.47238" lon="2.769335"><ele>386.0</ele><time>2026-04-04T13:24:17.448Z</time></trkpt><trkpt lat="43.4724533" lon="2.769305"><ele>386.0</ele><time>2026-04-04T13:24:18.446Z</time></trkpt><trkpt lat="43.4725317" lon="2.7692683"><ele>385.99999999999994</ele><time>2026-04-04T13:24:19.443Z</time></trkpt><trkpt lat="43.4726217" lon="2.7692283"><ele>386.0</ele><time>2026-04-04T13:24:20.443Z</time></trkpt><trkpt lat="43.472715" lon="2.76918"><ele>386.0</ele><time>2026-04-04T13:24:21.442Z</time></trkpt><trkpt lat="43.4728083" lon="2.769125"><ele>386.0</ele><time>2026-04-04T13:24:22.446Z</time></trkpt><trkpt lat="43.4728983" lon="2.7690683"><ele>386.0</ele><time>2026-04-04T13:24:23.446Z</time></trkpt><trkpt lat="43.4729883" lon="2.7690217"><ele>386.0</ele><time>2026-04-04T13:24:24.442Z</time></trkpt><trkpt lat="43.4730783" lon="2.76899"><ele>386.0</ele><time>2026-04-04T13:24:25.447Z</time></trkpt><trkpt lat="43.4731717" lon="2.76898"><ele>388.4</ele><time>2026-04-04T13:24:26.442Z</time></trkpt><trkpt lat="43.4732717" lon="2.768985"><ele>390.8</ele><time>2026-04-04T13:24:27.443Z</time></trkpt><trkpt lat="43.473375" lon="2.7689983"><ele>393.2</ele><time>2026-04-04T13:24:28.446Z</time></trkpt><trkpt lat="43.4734817" lon="2.7690133"><ele>395.59999999999997</ele><time>2026-04-04T13:24:29.442Z</time></trkpt><trkpt lat="43.473585" lon="2.769025"><ele>398.0</ele><time>2026-04-04T13:24:30.443Z</time></trkpt><trkpt lat="43.473695" lon="2.76903"><ele>397.2</ele><time>2026-04-04T13:24:31.443Z</time></trkpt><trkpt lat="43.4738" lon="2.7690467"><ele>396.4</ele><time>2026-04-04T13:24:32.443Z</time></trkpt><trkpt lat="43.4738967" lon="2.7690867"><ele>395.59999999999997</ele><time>2026-04-04T13:24:33.442Z</time></trkpt><trkpt lat="43.4739883" lon="2.76915"><ele>394.79999999999995</ele><time>2026-04-04T13:24:34.446Z</time></trkpt><trkpt lat="43.4740783" lon="2.769235"><ele>394.0</ele><time>2026-04-04T13:24:35.448Z</time></trkpt><trkpt lat="43.4741767" lon="2.7693283"><ele>401.5</ele><time>2026-04-04T13:24:36.446Z</time></trkpt><trkpt lat="43.474275" lon="2.7694217"><ele>409.0</ele><time>2026-04-04T13:24:37.446Z</time></trkpt><trkpt lat="43.4743667" lon="2.7695133"><ele>416.5</ele><time>2026-04-04T13:24:38.446Z</time></trkpt><trkpt lat="43.4744567" lon="2.7696183"><ele>424.0</ele><time>2026-04-04T13:24:39.446Z</time></trkpt><trkpt lat="43.4745467" lon="2.7697317"><ele>419.25</ele><time>2026-04-04T13:24:40.443Z</time></trkpt><trkpt lat="43.4746333" lon="2.7698517"><ele>414.5</ele><time>2026-04-04T13:24:41.444Z</time></trkpt><trkpt lat="43.4747067" lon="2.7699767"><ele>409.75</ele><time>2026-04-04T13:24:42.444Z</time></trkpt><trkpt lat="43.474765" lon="2.7701083"><ele>405.0</ele><time>2026-04-04T13:24:43.443Z</time></trkpt><trkpt lat="43.4748017" lon="2.7702567"><ele>405.0</ele><time>2026-04-04T13:24:44.444Z</time></trkpt><trkpt lat="43.4748233" lon="2.7704233"><ele>405.0</ele><time>2026-04-04T13:24:45.443Z</time></trkpt><trkpt lat="43.47484" lon="2.7705883"><ele>405.0</ele><time>2026-04-04T13:24:46.443Z</time></trkpt><trkpt lat="43.4748517" lon="2.7707617"><ele>405.0</ele><time>2026-04-04T13:24:47.444Z</time></trkpt><trkpt lat="43.4748583" lon="2.7709417"><ele>408.25</ele><time>2026-04-04T13:24:48.443Z</time></trkpt><trkpt lat="43.4748567" lon="2.7711217"><ele>411.5</ele><time>2026-04-04T13:24:49.443Z</time></trkpt><trkpt lat="43.4748583" lon="2.771295"><ele>414.75</ele><time>2026-04-04T13:24:50.442Z</time></trkpt><trkpt lat="43.4748533" lon="2.7714617"><ele>418.0</ele><time>2026-04-04T13:24:51.444Z</time></trkpt><trkpt lat="43.4748517" lon="2.771625"><ele>418.0</ele><time>2026-04-04T13:24:52.443Z</time></trkpt><trkpt lat="43.474855" lon="2.77178"><ele>418.0</ele><time>2026-04-04T13:24:53.443Z</time></trkpt><trkpt lat="43.4748733" lon="2.7719283"><ele>418.0</ele><time>2026-04-04T13:24:54.443Z</time></trkpt><trkpt lat="43.4748967" lon="2.7720633"><ele>418.0</ele><time>2026-04-04T13:24:55.444Z</time></trkpt><trkpt lat="43.4749183" lon="2.7721783"><ele>418.0</ele><time>2026-04-04T13:24:56.442Z</time></trkpt><trkpt lat="43.4749333" lon="2.772275"><ele>420.59999999999997</ele><time>2026-04-04T13:24:57.443Z</time></trkpt><trkpt lat="43.4749067" lon="2.7723717"><ele>423.2</ele><time>2026-04-04T13:24:59.445Z</time></trkpt><trkpt lat="43.474845" lon="2.772325"><ele>425.8</ele><time>2026-04-04T13:25:01.444Z</time></trkpt><trkpt lat="43.4748033" lon="2.7721767"><ele>428.4</ele><time>2026-04-04T13:25:02.443Z</time></trkpt><trkpt lat="43.47475" lon="2.7720217"><ele>431.0</ele><time>2026-04-04T13:25:03.444Z</time></trkpt><trkpt lat="43.4746917" lon="2.7718733"><ele>427.75</ele><time>2026-04-04T13:25:04.445Z</time></trkpt><trkpt lat="43.4746433" lon="2.7717217"><ele>424.5</ele><time>2026-04-04T13:25:05.443Z</time></trkpt><trkpt lat="43.4746017" lon="2.771565"><ele>421.25</ele><time>2026-04-04T13:25:06.443Z</time></trkpt><trkpt lat="43.4745683" lon="2.771405"><ele>418.0</ele><time>2026-04-04T13:25:07.443Z</time></trkpt><trkpt lat="43.47455" lon="2.7712417"><ele>424.75</ele><time>2026-04-04T13:25:08.443Z</time></trkpt><trkpt lat="43.4745217" lon="2.77108"><ele>431.5</ele><time>2026-04-04T13:25:09.443Z</time></trkpt><trkpt lat="43.4744917" lon="2.77093"><ele>438.25</ele><time>2026-04-04T13:25:10.444Z</time></trkpt><trkpt lat="43.47444" lon="2.7707883"><ele>445.0</ele><time>2026-04-04T13:25:11.444Z</time></trkpt><trkpt lat="43.474375" lon="2.7706633"><ele>445.0</ele><time>2026-04-04T13:25:12.447Z</time></trkpt><trkpt lat="43.4742917" lon="2.7705567"><ele>445.0</ele><time>2026-04-04T13:25:13.445Z</time></trkpt><trkpt lat="43.4742" lon="2.7704533"><ele>445.0</ele><time>2026-04-04T13:25:14.442Z</time></trkpt><trkpt lat="43.4741033" lon="2.7703567"><ele>445.0</ele><time>2026-04-04T13:25:15.443Z</time></trkpt><trkpt lat="43.4739983" lon="2.7702683"><ele>445.0</ele><time>2026-04-04T13:25:16.443Z</time></trkpt><trkpt lat="43.4738867" lon="2.7702017"><ele>445.0</ele><time>2026-04-04T13:25:17.443Z</time></trkpt><trkpt lat="43.47377" lon="2.770145"><ele>445.0</ele><time>2026-04-04T13:25:18.443Z</time></trkpt><trkpt lat="43.473645" lon="2.7700967"><ele>445.0</ele><time>2026-04-04T13:25:19.443Z</time></trkpt><trkpt lat="43.4735233" lon="2.7700517"><ele>443.0</ele><time>2026-04-04T13:25:20.446Z</time></trkpt><trkpt lat="43.47341" lon="2.7700183"><ele>441.0</ele><time>2026-04-04T13:25:21.443Z</time></trkpt><trkpt lat="43.473305" lon="2.7699967"><ele>439.0</ele><time>2026-04-04T13:25:22.443Z</time></trkpt><trkpt lat="43.473215" lon="2.7699967"><ele>437.0</ele><time>2026-04-04T13:25:23.447Z</time></trkpt><trkpt lat="43.4731267" lon="2.7700233"><ele>435.0</ele><time>2026-04-04T13:25:24.446Z</time></trkpt><trkpt lat="43.4730383" lon="2.7700667"><ele>435.0</ele><time>2026-04-04T13:25:25.446Z</time></trkpt><trkpt lat="43.47296" lon="2.770115"><ele>435.0</ele><time>2026-04-04T13:25:26.446Z</time></trkpt><trkpt lat="43.4728833" lon="2.77016"><ele>435.0</ele><time>2026-04-04T13:25:27.444Z</time></trkpt><trkpt lat="43.472825" lon="2.7702083"><ele>435.0</ele><time>2026-04-04T13:25:28.446Z</time></trkpt><trkpt lat="43.472765" lon="2.7703083"><ele>435.0</ele><time>2026-04-04T13:25:30.446Z</time></trkpt><trkpt lat="43.4728567" lon="2.770325"><ele>435.0</ele><time>2026-04-04T13:25:33.444Z</time></trkpt><trkpt lat="43.4729317" lon="2.77028"><ele>441.8</ele><time>2026-04-04T13:25:34.446Z</time></trkpt><trkpt lat="43.47301" lon="2.770235"><ele>448.6</ele><time>2026-04-04T13:25:35.443Z</time></trkpt><trkpt lat="43.4731017" lon="2.7702083"><ele>455.4</ele><time>2026-04-04T13:25:36.446Z</time></trkpt><trkpt lat="43.4731883" lon="2.7702"><ele>462.2</ele><time>2026-04-04T13:25:37.443Z</time></trkpt><trkpt lat="43.47328" lon="2.7702267"><ele>469.0</ele><time>2026-04-04T13:25:38.447Z</time></trkpt><trkpt lat="43.473365" lon="2.77028"><ele>469.0</ele><time>2026-04-04T13:25:39.443Z</time></trkpt><trkpt lat="43.47345" lon="2.7703633"><ele>469.0</ele><time>2026-04-04T13:25:40.444Z</time></trkpt><trkpt lat="43.4735333" lon="2.770455"><ele>469.0</ele><time>2026-04-04T13:25:41.444Z</time></trkpt><trkpt lat="43.4736167" lon="2.7705467"><ele>469.0</ele><time>2026-04-04T13:25:42.444Z</time></trkpt><trkpt lat="43.473695" lon="2.7706483"><ele>469.0</ele><time>2026-04-04T13:25:43.444Z</time></trkpt><trkpt lat="43.4737717" lon="2.770755"><ele>466.0</ele><time>2026-04-04T13:25:44.443Z</time></trkpt><trkpt lat="43.4738367" lon="2.7708683"><ele>463.0</ele><time>2026-04-04T13:25:45.445Z</time></trkpt><trkpt lat="43.473895" lon="2.7709917"><ele>460.0</ele><time>2026-04-04T13:25:46.445Z</time></trkpt><trkpt lat="43.4739383" lon="2.7711267"><ele>457.0</ele><time>2026-04-04T13:25:47.444Z</time></trkpt><trkpt lat="43.473975" lon="2.77127"><ele>454.0</ele><time>2026-04-04T13:25:48.443Z</time></trkpt><trkpt lat="43.4739983" lon="2.7714217"><ele>454.0</ele><time>2026-04-04T13:25:49.443Z</time></trkpt><trkpt lat="43.4740083" lon="2.771575"><ele>454.0</ele><time>2026-04-04T13:25:50.443Z</time></trkpt><trkpt lat="43.474" lon="2.7717217"><ele>454.0</ele><time>2026-04-04T13:25:51.442Z</time></trkpt><trkpt lat="43.47399" lon="2.7718683"><ele>454.0</ele><time>2026-04-04T13:25:52.445Z</time></trkpt><trkpt lat="43.4739917" lon="2.7720167"><ele>454.0</ele><time>2026-04-04T13:25:53.445Z</time></trkpt><trkpt lat="43.47399" lon="2.772165"><ele>456.25</ele><time>2026-04-04T13:25:54.443Z</time></trkpt><trkpt lat="43.4739917" lon="2.77232"><ele>458.5</ele><time>2026-04-04T13:25:55.444Z</time></trkpt><trkpt lat="43.473995" lon="2.7724783"><ele>460.75</ele><time>2026-04-04T13:25:56.442Z</time></trkpt><trkpt lat="43.4739983" lon="2.7726433"><ele>463.0</ele><time>2026-04-04T13:25:57.442Z</time></trkpt><trkpt lat="43.4739983" lon="2.7727917"><ele>463.4</ele><time>2026-04-04T13:25:58.442Z</time></trkpt><trkpt lat="43.4740067" lon="2.772945"><ele>463.79999999999995</ele><time>2026-04-04T13:25:59.443Z</time></trkpt><trkpt lat="43.4740117" lon="2.773085"><ele>464.2</ele><time>2026-04-04T13:26:00.445Z</time></trkpt><trkpt lat="43.4740367" lon="2.7732167"><ele>464.6</ele><time>2026-04-04T13:26:01.445Z</time></trkpt><trkpt lat="43.4740583" lon="2.77334"><ele>465.0</ele><time>2026-04-04T13:26:02.443Z</time></trkpt><trkpt lat="43.474085" lon="2.773465"><ele>465.0</ele><time>2026-04-04T13:26:03.443Z</time></trkpt><trkpt lat="43.4740883" lon="2.7735583"><ele>465.0</ele><time>2026-04-04T13:26:04.444Z</time></trkpt><trkpt lat="43.4741233" lon="2.77372"><ele>465.0</ele><time>2026-04-04T13:26:06.443Z</time></trkpt><trkpt lat="43.474045" lon="2.77368"><ele>465.0</ele><time>2026-04-04T13:26:09.442Z</time></trkpt><trkpt lat="43.4740067" lon="2.773515"><ele>465.0</ele><time>2026-04-04T13:26:11.442Z</time></trkpt><trkpt lat="43.4739733" lon="2.7733717"><ele>465.0</ele><time>2026-04-04T13:26:12.443Z</time></trkpt><trkpt lat="43.473935" lon="2.7732217"><ele>465.0</ele><time>2026-04-04T13:26:13.444Z</time></trkpt><trkpt lat="43.4738733" lon="2.773035"><ele>465.0</ele><time>2026-04-04T13:26:14.443Z</time></trkpt><trkpt lat="43.4738483" lon="2.7728633"><ele>465.0</ele><time>2026-04-04T13:26:15.442Z</time></trkpt><trkpt lat="43.473825" lon="2.7726833"><ele>464.5</ele><time>2026-04-04T13:26:16.442Z</time></trkpt><trkpt lat="43.4737917" lon="2.7725"><ele>464.0</ele><time>2026-04-04T13:26:17.443Z</time></trkpt><trkpt lat="43.473765" lon="2.7723333"><ele>463.5</ele><time>2026-04-04T13:26:18.443Z</time></trkpt><trkpt lat="43.4737383" lon="2.77217"><ele>463.0</ele><time>2026-04-04T13:26:19.443Z</time></trkpt><trkpt lat="43.47373" lon="2.772025"><ele>470.0</ele><time>2026-04-04T13:26:20.444Z</time></trkpt><trkpt lat="43.47369" lon="2.7718683"><ele>477.0</ele><time>2026-04-04T13:26:21.443Z</time></trkpt><trkpt lat="43.4736483" lon="2.77172"><ele>484.0</ele><time>2026-04-04T13:26:22.443Z</time></trkpt><trkpt lat="43.4736" lon="2.7715833"><ele>491.0</ele><time>2026-04-04T13:26:23.444Z</time></trkpt><trkpt lat="43.4735283" lon="2.77146"><ele>491.0</ele><time>2026-04-04T13:26:24.448Z</time></trkpt><trkpt lat="43.4734267" lon="2.7713317"><ele>491.0</ele><time>2026-04-04T13:26:25.443Z</time></trkpt><trkpt lat="43.4733333" lon="2.77123"><ele>491.0</ele><time>2026-04-04T13:26:26.446Z</time></trkpt><trkpt lat="43.4732433" lon="2.7711467"><ele>491.0</ele><time>2026-04-04T13:26:27.444Z</time></trkpt><trkpt lat="43.4731617" lon="2.7710867"><ele>491.0</ele><time>2026-04-04T13:26:28.445Z</time></trkpt><trkpt lat="43.4730833" lon="2.7710433"><ele>491.0</ele><time>2026-04-04T13:26:29.446Z</time></trkpt><trkpt lat="43.4730117" lon="2.771075"><ele>491.0</ele><time>2026-04-04T13:26:31.446Z</time></trkpt><trkpt lat="43.47303" lon="2.7711617"><ele>491.0</ele><time>2026-04-04T13:26:33.447Z</time></trkpt><trkpt lat="43.4731267" lon="2.7712883"><ele>491.0</ele><time>2026-04-04T13:26:35.442Z</time></trkpt><trkpt lat="43.4732" lon="2.7714017"><ele>491.0</ele><time>2026-04-04T13:26:36.444Z</time></trkpt><trkpt lat="43.4732817" lon="2.7715417"><ele>491.0</ele><time>2026-04-04T13:26:37.443Z</time></trkpt><trkpt lat="43.4733333" lon="2.771705"><ele>491.0</ele><time>2026-04-04T13:26:38.446Z</time></trkpt><trkpt lat="43.47337" lon="2.77188"><ele>491.0</ele><time>2026-04-04T13:26:39.444Z</time></trkpt><trkpt lat="43.4733983" lon="2.7720683"><ele>493.25</ele><time>2026-04-04T13:26:40.446Z</time></trkpt><trkpt lat="43.473415" lon="2.7722567"><ele>495.5</ele><time>2026-04-04T13:26:41.443Z</time></trkpt><trkpt lat="43.473425" lon="2.7724367"><ele>497.75</ele><time>2026-04-04T13:26:42.443Z</time></trkpt><trkpt lat="43.4734317" lon="2.7726133"><ele>500.0</ele><time>2026-04-04T13:26:43.444Z</time></trkpt><trkpt lat="43.4734417" lon="2.7727867"><ele>501.5</ele><time>2026-04-04T13:26:44.443Z</time></trkpt><trkpt lat="43.4734533" lon="2.7729567"><ele>503.0</ele><time>2026-04-04T13:26:45.443Z</time></trkpt><trkpt lat="43.473465" lon="2.7731233"><ele>504.5</ele><time>2026-04-04T13:26:46.444Z</time></trkpt><trkpt lat="43.473485" lon="2.773305"><ele>506.0</ele><time>2026-04-04T13:26:47.444Z</time></trkpt><trkpt lat="43.4735083" lon="2.77349"><ele>508.25</ele><time>2026-04-04T13:26:48.444Z</time></trkpt><trkpt lat="43.473535" lon="2.7736733"><ele>510.5</ele><time>2026-04-04T13:26:49.443Z</time></trkpt><trkpt lat="43.4735683" lon="2.77385"><ele>512.75</ele><time>2026-04-04T13:26:50.444Z</time></trkpt><trkpt lat="43.47359" lon="2.77401"><ele>515.0</ele><time>2026-04-04T13:26:51.442Z</time></trkpt><trkpt lat="43.4736183" lon="2.7741417"><ele>515.0</ele><time>2026-04-04T13:26:52.443Z</time></trkpt><trkpt lat="43.4736333" lon="2.7742417"><ele>515.0</ele><time>2026-04-04T13:26:53.443Z</time></trkpt><trkpt lat="43.4736267" lon="2.774375"><ele>515.0</ele><time>2026-04-04T13:26:55.444Z</time></trkpt><trkpt lat="43.4735383" lon="2.77426"><ele>515.0</ele><time>2026-04-04T13:26:58.447Z</time></trkpt><trkpt lat="43.47351" lon="2.7741733"><ele>515.0</ele><time>2026-04-04T13:26:59.444Z</time></trkpt><trkpt lat="43.473475" lon="2.7740517"><ele>515.0</ele><time>2026-04-04T13:27:00.447Z</time></trkpt><trkpt lat="43.4734283" lon="2.7738883"><ele>515.0</ele><time>2026-04-04T13:27:01.443Z</time></trkpt><trkpt lat="43.4734" lon="2.7736117"><ele>515.0</ele><time>2026-04-04T13:27:02.444Z</time></trkpt><trkpt lat="43.473335" lon="2.77341"><ele>512.0</ele><time>2026-04-04T13:27:03.445Z</time></trkpt><trkpt lat="43.47327" lon="2.77319"><ele>509.0</ele><time>2026-04-04T13:27:04.443Z</time></trkpt><trkpt lat="43.4732317" lon="2.7729917"><ele>506.0</ele><time>2026-04-04T13:27:05.444Z</time></trkpt><trkpt lat="43.4731983" lon="2.7727883"><ele>504.5</ele><time>2026-04-04T13:27:06.443Z</time></trkpt><trkpt lat="43.4731683" lon="2.7725933"><ele>503.0</ele><time>2026-04-04T13:27:07.444Z</time></trkpt><trkpt lat="43.4731317" lon="2.7724"><ele>501.5</ele><time>2026-04-04T13:27:08.444Z</time></trkpt><trkpt lat="43.4730917" lon="2.7722183"><ele>500.0</ele><time>2026-04-04T13:27:09.443Z</time></trkpt><trkpt lat="43.47305" lon="2.7720517"><ele>500.0</ele><time>2026-04-04T13:27:10.443Z</time></trkpt><trkpt lat="43.4729883" lon="2.77191"><ele>500.0</ele><time>2026-04-04T13:27:11.444Z</time></trkpt><trkpt lat="43.4729033" lon="2.7717817"><ele>500.0</ele><time>2026-04-04T13:27:12.446Z</time></trkpt><trkpt lat="43.4728067" lon="2.7716817"><ele>500.0</ele><time>2026-04-04T13:27:13.447Z</time></trkpt><trkpt lat="43.472715" lon="2.7716067"><ele>502.2</ele><time>2026-04-04T13:27:14.445Z</time></trkpt><trkpt lat="43.4726333" lon="2.771565"><ele>504.4</ele><time>2026-04-04T13:27:15.444Z</time></trkpt><trkpt lat="43.47254" lon="2.771565"><ele>506.6</ele><time>2026-04-04T13:27:16.446Z</time></trkpt><trkpt lat="43.472445" lon="2.7715833"><ele>508.8</ele><time>2026-04-04T13:27:17.442Z</time></trkpt><trkpt lat="43.4723433" lon="2.7716033"><ele>511.0</ele><time>2026-04-04T13:27:18.443Z</time></trkpt><trkpt lat="43.472235" lon="2.7716217"><ele>511.0</ele><time>2026-04-04T13:27:19.444Z</time></trkpt><trkpt lat="43.4721117" lon="2.7716433"><ele>511.0</ele><time>2026-04-04T13:27:20.444Z</time></trkpt><trkpt lat="43.4719917" lon="2.7716717"><ele>511.0</ele><time>2026-04-04T13:27:21.445Z</time></trkpt><trkpt lat="43.4718733" lon="2.7717033"><ele>511.0</ele><time>2026-04-04T13:27:22.444Z</time></trkpt><trkpt lat="43.471755" lon="2.7717333"><ele>511.75</ele><time>2026-04-04T13:27:23.443Z</time></trkpt><trkpt lat="43.471635" lon="2.7717583"><ele>512.5</ele><time>2026-04-04T13:27:24.443Z</time></trkpt><trkpt lat="43.4715117" lon="2.77178"><ele>513.25</ele><time>2026-04-04T13:27:25.443Z</time></trkpt><trkpt lat="43.47139" lon="2.7718"><ele>514.0</ele><time>2026-04-04T13:27:26.443Z</time></trkpt><trkpt lat="43.4712717" lon="2.7718183"><ele>515.25</ele><time>2026-04-04T13:27:27.443Z</time></trkpt><trkpt lat="43.471155" lon="2.7718267"><ele>516.5</ele><time>2026-04-04T13:27:28.444Z</time></trkpt><trkpt lat="43.471035" lon="2.7718217"><ele>517.75</ele><time>2026-04-04T13:27:29.443Z</time></trkpt><trkpt lat="43.4709167" lon="2.77181"><ele>519.0</ele><time>2026-04-04T13:27:30.444Z</time></trkpt><trkpt lat="43.470795" lon="2.7717867"><ele>519.0</ele><time>2026-04-04T13:27:31.444Z</time></trkpt><trkpt lat="43.470685" lon="2.771755"><ele>519.0</ele><time>2026-04-04T13:27:32.443Z</time></trkpt><trkpt lat="43.4705733" lon="2.771735"><ele>519.0</ele><time>2026-04-04T13:27:33.446Z</time></trkpt><trkpt lat="43.47046" lon="2.7717317"><ele>519.0</ele><time>2026-04-04T13:27:34.444Z</time></trkpt><trkpt lat="43.4703433" lon="2.771735"><ele>520.5</ele><time>2026-04-04T13:27:35.443Z</time></trkpt><trkpt lat="43.47023" lon="2.7717433"><ele>522.0</ele><time>2026-04-04T13:27:36.444Z</time></trkpt><trkpt lat="43.4701117" lon="2.7717583"><ele>523.5</ele><time>2026-04-04T13:27:37.444Z</time></trkpt><trkpt lat="43.4699933" lon="2.771775"><ele>525.0</ele><time>2026-04-04T13:27:38.443Z</time></trkpt><trkpt lat="43.4698733" lon="2.7717867"><ele>525.0</ele><time>2026-04-04T13:27:39.443Z</time></trkpt><trkpt lat="43.4697433" lon="2.7717833"><ele>525.0</ele><time>2026-04-04T13:27:40.445Z</time></trkpt><trkpt lat="43.46962" lon="2.7717517"><ele>525.0</ele><time>2026-04-04T13:27:41.446Z</time></trkpt><trkpt lat="43.4694983" lon="2.7717117"><ele>525.0</ele><time>2026-04-04T13:27:42.443Z</time></trkpt><trkpt lat="43.469385" lon="2.7716683"><ele>527.0</ele><time>2026-04-04T13:27:43.444Z</time></trkpt><trkpt lat="43.4692767" lon="2.7716267"><ele>529.0</ele><time>2026-04-04T13:27:44.443Z</time></trkpt><trkpt lat="43.46917" lon="2.7715867"><ele>531.0</ele><time>2026-04-04T13:27:45.444Z</time></trkpt><trkpt lat="43.4690583" lon="2.771555"><ele>533.0</ele><time>2026-04-04T13:27:46.446Z</time></trkpt><trkpt lat="43.4689533" lon="2.7715183"><ele>535.0</ele><time>2026-04-04T13:27:47.443Z</time></trkpt><trkpt lat="43.4688367" lon="2.7714717"><ele>536.25</ele><time>2026-04-04T13:27:48.443Z</time></trkpt><trkpt lat="43.4687183" lon="2.7714233"><ele>537.5</ele><time>2026-04-04T13:27:49.443Z</time></trkpt><trkpt lat="43.4685983" lon="2.7713917"><ele>538.75</ele><time>2026-04-04T13:27:50.444Z</time></trkpt><trkpt lat="43.4684767" lon="2.7713717"><ele>540.0</ele><time>2026-04-04T13:27:51.443Z</time></trkpt><trkpt lat="43.468355" lon="2.77136"><ele>540.0</ele><time>2026-04-04T13:27:52.443Z</time></trkpt><trkpt lat="43.4682383" lon="2.77135"><ele>540.0</ele><time>2026-04-04T13:27:53.445Z</time></trkpt><trkpt lat="43.4681183" lon="2.7713267"><ele>540.0</ele><time>2026-04-04T13:27:54.444Z</time></trkpt><trkpt lat="43.468005" lon="2.771295"><ele>540.0</ele><time>2026-04-04T13:27:55.443Z</time></trkpt><trkpt lat="43.4678867" lon="2.7712633"><ele>540.5</ele><time>2026-04-04T13:27:56.444Z</time></trkpt><trkpt lat="43.4677633" lon="2.7712417"><ele>541.0</ele><time>2026-04-04T13:27:57.443Z</time></trkpt><trkpt lat="43.4676483" lon="2.7712333"><ele>541.5</ele><time>2026-04-04T13:27:58.446Z</time></trkpt><trkpt lat="43.4675167" lon="2.7712367"><ele>542.0</ele><time>2026-04-04T13:27:59.443Z</time></trkpt><trkpt lat="43.467385" lon="2.7712517"><ele>542.0</ele><time>2026-04-04T13:28:00.446Z</time></trkpt><trkpt lat="43.4672583" lon="2.7712633"><ele>542.0</ele><time>2026-04-04T13:28:01.444Z</time></trkpt><trkpt lat="43.46713" lon="2.7712683"><ele>542.0</ele><time>2026-04-04T13:28:02.443Z</time></trkpt><trkpt lat="43.4670017" lon="2.7712233"><ele>542.0</ele><time>2026-04-04T13:28:03.443Z</time></trkpt><trkpt lat="43.4668717" lon="2.7711633"><ele>542.75</ele><time>2026-04-04T13:28:04.446Z</time></trkpt><trkpt lat="43.4667383" lon="2.7711033"><ele>543.5</ele><time>2026-04-04T13:28:05.444Z</time></trkpt><trkpt lat="43.4666033" lon="2.771045"><ele>544.25</ele><time>2026-04-04T13:28:06.444Z</time></trkpt><trkpt lat="43.4664717" lon="2.770995"><ele>545.0</ele><time>2026-04-04T13:28:07.444Z</time></trkpt><trkpt lat="43.4663433" lon="2.770965"><ele>545.5</ele><time>2026-04-04T13:28:08.444Z</time></trkpt><trkpt lat="43.46621" lon="2.77097"><ele>546.0</ele><time>2026-04-04T13:28:09.447Z</time></trkpt><trkpt lat="43.4660783" lon="2.771"><ele>546.5</ele><time>2026-04-04T13:28:10.446Z</time></trkpt><trkpt lat="43.4659517" lon="2.77104"><ele>547.0</ele><time>2026-04-04T13:28:11.444Z</time></trkpt><trkpt lat="43.4658183" lon="2.771075"><ele>547.0</ele><time>2026-04-04T13:28:12.444Z</time></trkpt><trkpt lat="43.4656833" lon="2.7711033"><ele>547.0</ele><time>2026-04-04T13:28:13.444Z</time></trkpt><trkpt lat="43.46555" lon="2.77112"><ele>547.0</ele><time>2026-04-04T13:28:14.443Z</time></trkpt><trkpt lat="43.4654233" lon="2.77112"><ele>547.0</ele><time>2026-04-04T13:28:15.443Z</time></trkpt><trkpt lat="43.465295" lon="2.7711017"><ele>546.0</ele><time>2026-04-04T13:28:16.447Z</time></trkpt><trkpt lat="43.465155" lon="2.771075"><ele>545.0</ele><time>2026-04-04T13:28:17.443Z</time></trkpt><trkpt lat="43.4650067" lon="2.7710583"><ele>544.0</ele><time>2026-04-04T13:28:18.443Z</time></trkpt><trkpt lat="43.4648617" lon="2.7710517"><ele>543.0</ele><time>2026-04-04T13:28:19.443Z</time></trkpt><trkpt lat="43.464715" lon="2.7710533"><ele>541.5</ele><time>2026-04-04T13:28:20.443Z</time></trkpt><trkpt lat="43.46457" lon="2.7710583"><ele>540.0</ele><time>2026-04-04T13:28:21.444Z</time></trkpt><trkpt lat="43.4644217" lon="2.771065"><ele>538.5</ele><time>2026-04-04T13:28:22.443Z</time></trkpt><trkpt lat="43.4642767" lon="2.77107"><ele>537.0</ele><time>2026-04-04T13:28:23.445Z</time></trkpt><trkpt lat="43.4641317" lon="2.771075"><ele>537.0</ele><time>2026-04-04T13:28:24.445Z</time></trkpt><trkpt lat="43.4639867" lon="2.77108"><ele>537.0</ele><time>2026-04-04T13:28:25.444Z</time></trkpt><trkpt lat="43.4638483" lon="2.771085"><ele>537.0</ele><time>2026-04-04T13:28:26.443Z</time></trkpt><trkpt lat="43.46371" lon="2.7710883"><ele>537.0</ele><time>2026-04-04T13:28:27.443Z</time></trkpt><trkpt lat="43.4635833" lon="2.7710933"><ele>534.8000000000001</ele><time>2026-04-04T13:28:28.443Z</time></trkpt><trkpt lat="43.4634583" lon="2.7710967"><ele>532.6</ele><time>2026-04-04T13:28:29.445Z</time></trkpt><trkpt lat="43.4633433" lon="2.7710933"><ele>530.4000000000001</ele><time>2026-04-04T13:28:30.448Z</time></trkpt><trkpt lat="43.463245" lon="2.7710683"><ele>528.2</ele><time>2026-04-04T13:28:31.446Z</time></trkpt><trkpt lat="43.4631667" lon="2.77104"><ele>526.0</ele><time>2026-04-04T13:28:32.446Z</time></trkpt><trkpt lat="43.4631" lon="2.7710333"><ele>526.0</ele><time>2026-04-04T13:28:34.447Z</time></trkpt><trkpt lat="43.4630333" lon="2.7710217"><ele>526.0</ele><time>2026-04-04T13:28:53.444Z</time></trkpt><trkpt lat="43.46296" lon="2.7710317"><ele>526.0</ele><time>2026-04-04T13:28:57.443Z</time></trkpt><trkpt lat="43.4629417" lon="2.7711467"><ele>526.0</ele><time>2026-04-04T13:29:56.445Z</time></trkpt><trkpt lat="43.46294" lon="2.7712383"><ele>526.0</ele><time>2026-04-04T13:29:57.443Z</time></trkpt><trkpt lat="43.4629383" lon="2.7713467"><ele>526.0</ele><time>2026-04-04T13:29:58.442Z</time></trkpt><trkpt lat="43.462945" lon="2.7714683"><ele>526.0</ele><time>2026-04-04T13:29:59.443Z</time></trkpt><trkpt lat="43.462965" lon="2.771595"><ele>526.0</ele><time>2026-04-04T13:30:00.442Z</time></trkpt><trkpt lat="43.46299" lon="2.77173"><ele>526.0</ele><time>2026-04-04T13:30:01.443Z</time></trkpt><trkpt lat="43.46302" lon="2.771875"><ele>526.0</ele><time>2026-04-04T13:30:02.443Z</time></trkpt><trkpt lat="43.4630517" lon="2.7720283"><ele>526.0</ele><time>2026-04-04T13:30:03.443Z</time></trkpt><trkpt lat="43.4630833" lon="2.77219"><ele>526.0</ele><time>2026-04-04T13:30:04.443Z</time></trkpt><trkpt lat="43.4631133" lon="2.7723517"><ele>526.0</ele><time>2026-04-04T13:30:05.443Z</time></trkpt><trkpt lat="43.463155" lon="2.77251"><ele>526.0</ele><time>2026-04-04T13:30:06.443Z</time></trkpt><trkpt lat="43.4632017" lon="2.772655"><ele>526.0</ele><time>2026-04-04T13:30:07.443Z</time></trkpt><trkpt lat="43.4632533" lon="2.77279"><ele>526.0</ele><time>2026-04-04T13:30:08.444Z</time></trkpt><trkpt lat="43.4633117" lon="2.7729083"><ele>526.0</ele><time>2026-04-04T13:30:09.442Z</time></trkpt><trkpt lat="43.46337" lon="2.7730217"><ele>526.0</ele><time>2026-04-04T13:30:10.444Z</time></trkpt><trkpt lat="43.4634117" lon="2.7731233"><ele>526.0</ele><time>2026-04-04T13:30:11.444Z</time></trkpt><trkpt lat="43.4634517" lon="2.7732133"><ele>526.0</ele><time>2026-04-04T13:30:12.442Z</time></trkpt><trkpt lat="43.463485" lon="2.7733033"><ele>526.0</ele><time>2026-04-04T13:30:13.444Z</time></trkpt><trkpt lat="43.463505" lon="2.7733967"><ele>526.0</ele><time>2026-04-04T13:30:14.444Z</time></trkpt><trkpt lat="43.4635167" lon="2.77351"><ele>526.0</ele><time>2026-04-04T13:30:15.442Z</time></trkpt><trkpt lat="43.4635217" lon="2.7736233"><ele>526.0</ele><time>2026-04-04T13:30:16.443Z</time></trkpt><trkpt lat="43.4635167" lon="2.77375"><ele>526.0</ele><time>2026-04-04T13:30:17.443Z</time></trkpt><trkpt lat="43.4635067" lon="2.7738733"><ele>526.0</ele><time>2026-04-04T13:30:18.444Z</time></trkpt><trkpt lat="43.4634883" lon="2.7740117"><ele>525.8</ele><time>2026-04-04T13:30:19.445Z</time></trkpt><trkpt lat="43.463465" lon="2.7741533"><ele>525.6</ele><time>2026-04-04T13:30:20.444Z</time></trkpt><trkpt lat="43.4634217" lon="2.7743017"><ele>525.4</ele><time>2026-04-04T13:30:21.443Z</time></trkpt><trkpt lat="43.4633717" lon="2.7744467"><ele>525.2</ele><time>2026-04-04T13:30:22.443Z</time></trkpt><trkpt lat="43.463325" lon="2.7745667"><ele>525.0</ele><time>2026-04-04T13:30:23.443Z</time></trkpt><trkpt lat="43.4632783" lon="2.77468"><ele>525.0</ele><time>2026-04-04T13:30:24.443Z</time></trkpt><trkpt lat="43.4632433" lon="2.7747767"><ele>525.0</ele><time>2026-04-04T13:30:25.446Z</time></trkpt><trkpt lat="43.4632133" lon="2.774865"><ele>525.0</ele><time>2026-04-04T13:30:26.442Z</time></trkpt><trkpt lat="43.4632133" lon="2.7750067"><ele>525.0</ele><time>2026-04-04T13:30:28.445Z</time></trkpt><trkpt lat="43.4632767" lon="2.77511"><ele>525.0</ele><time>2026-04-04T13:30:30.444Z</time></trkpt><trkpt lat="43.4633417" lon="2.775215"><ele>526.4</ele><time>2026-04-04T13:30:32.444Z</time></trkpt><trkpt lat="43.4633533" lon="2.7753283"><ele>527.8</ele><time>2026-04-04T13:30:34.445Z</time></trkpt><trkpt lat="43.46331" lon="2.7754233"><ele>529.2</ele><time>2026-04-04T13:30:36.444Z</time></trkpt><trkpt lat="43.4631983" lon="2.7754867"><ele>530.6</ele><time>2026-04-04T13:30:38.444Z</time></trkpt><trkpt lat="43.4630867" lon="2.775565"><ele>532.0</ele><time>2026-04-04T13:30:40.445Z</time></trkpt><trkpt lat="43.463035" lon="2.7756367"><ele>532.0</ele><time>2026-04-04T13:30:41.442Z</time></trkpt><trkpt lat="43.462975" lon="2.7757133"><ele>532.0</ele><time>2026-04-04T13:30:42.442Z</time></trkpt><trkpt lat="43.4629133" lon="2.77578"><ele>532.0</ele><time>2026-04-04T13:30:43.446Z</time></trkpt><trkpt lat="43.4628383" lon="2.7758433"><ele>532.0</ele><time>2026-04-04T13:30:44.443Z</time></trkpt><trkpt lat="43.462775" lon="2.7758967"><ele>532.0</ele><time>2026-04-04T13:30:45.445Z</time></trkpt><trkpt lat="43.4626717" lon="2.7759933"><ele>532.0</ele><time>2026-04-04T13:30:47.444Z</time></trkpt><trkpt lat="43.4626267" lon="2.7760583"><ele>533.3333333333334</ele><time>2026-04-04T13:30:48.443Z</time></trkpt><trkpt lat="43.4625833" lon="2.776135"><ele>534.6666666666667</ele><time>2026-04-04T13:30:49.444Z</time></trkpt><trkpt lat="43.4625483" lon="2.7762317"><ele>536.0</ele><time>2026-04-04T13:30:50.443Z</time></trkpt><trkpt lat="43.4625083" lon="2.7763467"><ele>537.3333333333334</ele><time>2026-04-04T13:30:51.445Z</time></trkpt><trkpt lat="43.4624733" lon="2.7764583"><ele>538.6666666666666</ele><time>2026-04-04T13:30:52.443Z</time></trkpt><trkpt lat="43.4624367" lon="2.776565"><ele>540.0</ele><time>2026-04-04T13:30:53.444Z</time></trkpt><trkpt lat="43.462395" lon="2.77666"><ele>540.0</ele><time>2026-04-04T13:30:54.443Z</time></trkpt><trkpt lat="43.462345" lon="2.7767267"><ele>540.0</ele><time>2026-04-04T13:30:55.443Z</time></trkpt><trkpt lat="43.46225" lon="2.7767883"><ele>540.0</ele><time>2026-04-04T13:30:57.443Z</time></trkpt><trkpt lat="43.4621483" lon="2.77683"><ele>540.0</ele><time>2026-04-04T13:30:59.442Z</time></trkpt><trkpt lat="43.462055" lon="2.7769017"><ele>540.0</ele><time>2026-04-04T13:31:01.445Z</time></trkpt><trkpt lat="43.462005" lon="2.77696"><ele>541.2</ele><time>2026-04-04T13:31:02.443Z</time></trkpt><trkpt lat="43.4619517" lon="2.7770317"><ele>542.4</ele><time>2026-04-04T13:31:03.444Z</time></trkpt><trkpt lat="43.4619" lon="2.77712"><ele>543.6</ele><time>2026-04-04T13:31:04.445Z</time></trkpt><trkpt lat="43.461845" lon="2.7772217"><ele>544.8</ele><time>2026-04-04T13:31:05.444Z</time></trkpt><trkpt lat="43.4617917" lon="2.7773483"><ele>546.0</ele><time>2026-04-04T13:31:06.444Z</time></trkpt><trkpt lat="43.461745" lon="2.77748"><ele>546.0</ele><time>2026-04-04T13:31:07.446Z</time></trkpt><trkpt lat="43.4616967" lon="2.7776067"><ele>546.0</ele><time>2026-04-04T13:31:08.445Z</time></trkpt><trkpt lat="43.4616467" lon="2.7777333"><ele>546.0</ele><time>2026-04-04T13:31:09.444Z</time></trkpt><trkpt lat="43.4615933" lon="2.777855"><ele>546.0</ele><time>2026-04-04T13:31:10.444Z</time></trkpt><trkpt lat="43.4615167" lon="2.7779817"><ele>546.0</ele><time>2026-04-04T13:31:11.444Z</time></trkpt><trkpt lat="43.46146" lon="2.778095"><ele>546.8</ele><time>2026-04-04T13:31:12.444Z</time></trkpt><trkpt lat="43.4614133" lon="2.778215"><ele>547.6</ele><time>2026-04-04T13:31:13.445Z</time></trkpt><trkpt lat="43.46137" lon="2.7783367"><ele>548.4</ele><time>2026-04-04T13:31:14.444Z</time></trkpt><trkpt lat="43.4613333" lon="2.7784667"><ele>549.2</ele><time>2026-04-04T13:31:15.445Z</time></trkpt><trkpt lat="43.4612917" lon="2.7786033"><ele>550.0</ele><time>2026-04-04T13:31:16.445Z</time></trkpt><trkpt lat="43.46124" lon="2.77874"><ele>550.0</ele><time>2026-04-04T13:31:17.444Z</time></trkpt><trkpt lat="43.461185" lon="2.778865"><ele>550.0</ele><time>2026-04-04T13:31:18.444Z</time></trkpt><trkpt lat="43.461125" lon="2.7789683"><ele>550.0</ele><time>2026-04-04T13:31:19.445Z</time></trkpt><trkpt lat="43.461055" lon="2.7790433"><ele>550.0</ele><time>2026-04-04T13:31:20.445Z</time></trkpt><trkpt lat="43.4609833" lon="2.779105"><ele>550.0</ele><time>2026-04-04T13:31:21.445Z</time></trkpt><trkpt lat="43.460905" lon="2.779155"><ele>550.0</ele><time>2026-04-04T13:31:22.448Z</time></trkpt><trkpt lat="43.4608267" lon="2.7791983"><ele>550.0</ele><time>2026-04-04T13:31:23.445Z</time></trkpt><trkpt lat="43.4607433" lon="2.7792267"><ele>550.0</ele><time>2026-04-04T13:31:24.444Z</time></trkpt><trkpt lat="43.4606567" lon="2.7792517"><ele>550.0</ele><time>2026-04-04T13:31:25.444Z</time></trkpt><trkpt lat="43.460565" lon="2.7792817"><ele>550.0</ele><time>2026-04-04T13:31:26.444Z</time></trkpt><trkpt lat="43.4604717" lon="2.7793167"><ele>551.2</ele><time>2026-04-04T13:31:27.444Z</time></trkpt><trkpt lat="43.4603817" lon="2.7793567"><ele>552.4</ele><time>2026-04-04T13:31:28.445Z</time></trkpt><trkpt lat="43.4602933" lon="2.7794033"><ele>553.6</ele><time>2026-04-04T13:31:29.444Z</time></trkpt><trkpt lat="43.4602017" lon="2.7794517"><ele>554.8</ele><time>2026-04-04T13:31:30.445Z</time></trkpt><trkpt lat="43.46011" lon="2.7794767"><ele>556.0</ele><time>2026-04-04T13:31:31.446Z</time></trkpt><trkpt lat="43.45999" lon="2.7794967"><ele>556.0</ele><time>2026-04-04T13:31:32.444Z</time></trkpt><trkpt lat="43.4598717" lon="2.7795017"><ele>556.0</ele><time>2026-04-04T13:31:33.444Z</time></trkpt><trkpt lat="43.4597583" lon="2.7795033"><ele>556.0</ele><time>2026-04-04T13:31:34.446Z</time></trkpt><trkpt lat="43.459645" lon="2.7795017"><ele>556.0</ele><time>2026-04-04T13:31:35.445Z</time></trkpt><trkpt lat="43.4595483" lon="2.7795033"><ele>556.0</ele><time>2026-04-04T13:31:36.446Z</time></trkpt><trkpt lat="43.4594717" lon="2.7795017"><ele>557.4</ele><time>2026-04-04T13:31:37.445Z</time></trkpt><trkpt lat="43.4593933" lon="2.7794983"><ele>558.8</ele><time>2026-04-04T13:31:38.444Z</time></trkpt><trkpt lat="43.4593067" lon="2.7795333"><ele>560.1999999999999</ele><time>2026-04-04T13:31:40.445Z</time></trkpt><trkpt lat="43.4592333" lon="2.7796133"><ele>561.6</ele><time>2026-04-04T13:31:42.446Z</time></trkpt><trkpt lat="43.4593033" lon="2.7797233"><ele>563.0</ele><time>2026-04-04T13:31:43.445Z</time></trkpt><trkpt lat="43.459345" lon="2.7798317"><ele>563.0</ele><time>2026-04-04T13:31:44.443Z</time></trkpt><trkpt lat="43.459345" lon="2.7799217"><ele>563.0</ele><time>2026-04-04T13:31:45.446Z</time></trkpt><trkpt lat="43.459295" lon="2.78006"><ele>563.0</ele><time>2026-04-04T13:31:47.444Z</time></trkpt><trkpt lat="43.4591683" lon="2.7800967"><ele>563.0</ele><time>2026-04-04T13:31:49.445Z</time></trkpt><trkpt lat="43.4590767" lon="2.7800917"><ele>563.0</ele><time>2026-04-04T13:31:50.444Z</time></trkpt><trkpt lat="43.458975" lon="2.7800667"><ele>563.0</ele><time>2026-04-04T13:31:51.444Z</time></trkpt><trkpt lat="43.4588517" lon="2.780025"><ele>563.0</ele><time>2026-04-04T13:31:52.443Z</time></trkpt><trkpt lat="43.4587533" lon="2.7799767"><ele>563.0</ele><time>2026-04-04T13:31:53.444Z</time></trkpt><trkpt lat="43.4586567" lon="2.7798833"><ele>563.0</ele><time>2026-04-04T13:31:54.444Z</time></trkpt><trkpt lat="43.4585717" lon="2.7797767"><ele>563.5</ele><time>2026-04-04T13:31:55.444Z</time></trkpt><trkpt lat="43.4584767" lon="2.779655"><ele>564.0</ele><time>2026-04-04T13:31:56.445Z</time></trkpt><trkpt lat="43.4583783" lon="2.77953"><ele>564.5</ele><time>2026-04-04T13:31:57.444Z</time></trkpt><trkpt lat="43.4582767" lon="2.77941"><ele>565.0</ele><time>2026-04-04T13:31:58.444Z</time></trkpt><trkpt lat="43.4581633" lon="2.7792983"><ele>566.75</ele><time>2026-04-04T13:31:59.444Z</time></trkpt><trkpt lat="43.458045" lon="2.779215"><ele>568.5</ele><time>2026-04-04T13:32:00.447Z</time></trkpt><trkpt lat="43.4579067" lon="2.7791817"><ele>570.25</ele><time>2026-04-04T13:32:01.445Z</time></trkpt><trkpt lat="43.4577767" lon="2.779185"><ele>572.0</ele><time>2026-04-04T13:32:02.446Z</time></trkpt><trkpt lat="43.4576417" lon="2.7792"><ele>571.0</ele><time>2026-04-04T13:32:03.442Z</time></trkpt><trkpt lat="43.457525" lon="2.77923"><ele>570.0</ele><time>2026-04-04T13:32:04.443Z</time></trkpt><trkpt lat="43.4574217" lon="2.7792767"><ele>569.0</ele><time>2026-04-04T13:32:05.445Z</time></trkpt><trkpt lat="43.4573233" lon="2.7793367"><ele>568.0</ele><time>2026-04-04T13:32:06.444Z</time></trkpt><trkpt lat="43.45723" lon="2.7794"><ele>567.0</ele><time>2026-04-04T13:32:07.443Z</time></trkpt><trkpt lat="43.4571533" lon="2.7794417"><ele>565.8333333333334</ele><time>2026-04-04T13:32:08.443Z</time></trkpt><trkpt lat="43.45708" lon="2.7794683"><ele>564.6666666666666</ele><time>2026-04-04T13:32:09.442Z</time></trkpt><trkpt lat="43.4570033" lon="2.7794683"><ele>563.5</ele><time>2026-04-04T13:32:10.443Z</time></trkpt><trkpt lat="43.4569267" lon="2.779435"><ele>562.3333333333333</ele><time>2026-04-04T13:32:11.444Z</time></trkpt><trkpt lat="43.4568483" lon="2.7793867"><ele>561.1666666666666</ele><time>2026-04-04T13:32:12.444Z</time></trkpt><trkpt lat="43.4567483" lon="2.7793183"><ele>560.0</ele><time>2026-04-04T13:32:13.444Z</time></trkpt><trkpt lat="43.4566483" lon="2.7792367"><ele>565.0</ele><time>2026-04-04T13:32:14.444Z</time></trkpt><trkpt lat="43.45655" lon="2.779155"><ele>570.0</ele><time>2026-04-04T13:32:15.444Z</time></trkpt><trkpt lat="43.456455" lon="2.7790833"><ele>575.0</ele><time>2026-04-04T13:32:16.443Z</time></trkpt><trkpt lat="43.45636" lon="2.7790383"><ele>580.0</ele><time>2026-04-04T13:32:17.444Z</time></trkpt><trkpt lat="43.4562467" lon="2.7790083"><ele>585.0</ele><time>2026-04-04T13:32:18.444Z</time></trkpt><trkpt lat="43.4561217" lon="2.77897"><ele>585.0</ele><time>2026-04-04T13:32:19.444Z</time></trkpt><trkpt lat="43.4559917" lon="2.77893"><ele>585.0</ele><time>2026-04-04T13:32:20.444Z</time></trkpt><trkpt lat="43.45587" lon="2.77891"><ele>585.0</ele><time>2026-04-04T13:32:21.446Z</time></trkpt><trkpt lat="43.4557533" lon="2.7789167"><ele>585.0</ele><time>2026-04-04T13:32:22.444Z</time></trkpt><trkpt lat="43.45565" lon="2.77895"><ele>585.0</ele><time>2026-04-04T13:32:23.442Z</time></trkpt><trkpt lat="43.4555617" lon="2.7790117"><ele>585.0</ele><time>2026-04-04T13:32:24.444Z</time></trkpt><trkpt lat="43.4554967" lon="2.7790883"><ele>585.0</ele><time>2026-04-04T13:32:25.443Z</time></trkpt><trkpt lat="43.4554383" lon="2.779165"><ele>585.0</ele><time>2026-04-04T13:32:26.442Z</time></trkpt><trkpt lat="43.4553783" lon="2.7792217"><ele>585.0</ele><time>2026-04-04T13:32:27.442Z</time></trkpt><trkpt lat="43.455315" lon="2.7792583"><ele>585.0</ele><time>2026-04-04T13:32:28.443Z</time></trkpt><trkpt lat="43.4552433" lon="2.7792633"><ele>585.6</ele><time>2026-04-04T13:32:29.442Z</time></trkpt><trkpt lat="43.45516" lon="2.779225"><ele>586.2</ele><time>2026-04-04T13:32:30.443Z</time></trkpt><trkpt lat="43.455055" lon="2.7791417"><ele>586.8</ele><time>2026-04-04T13:32:31.445Z</time></trkpt><trkpt lat="43.4549517" lon="2.7790483"><ele>587.4</ele><time>2026-04-04T13:32:32.443Z</time></trkpt><trkpt lat="43.4548633" lon="2.7789583"><ele>588.0</ele><time>2026-04-04T13:32:33.443Z</time></trkpt><trkpt lat="43.4547767" lon="2.778855"><ele>588.0</ele><time>2026-04-04T13:32:34.443Z</time></trkpt><trkpt lat="43.4546683" lon="2.778725"><ele>588.0</ele><time>2026-04-04T13:32:35.443Z</time></trkpt><trkpt lat="43.45456" lon="2.7786033"><ele>588.0</ele><time>2026-04-04T13:32:36.444Z</time></trkpt><trkpt lat="43.4544417" lon="2.7785017"><ele>588.0</ele><time>2026-04-04T13:32:37.446Z</time></trkpt><trkpt lat="43.4543133" lon="2.778415"><ele>588.0</ele><time>2026-04-04T13:32:38.442Z</time></trkpt><trkpt lat="43.4541833" lon="2.77833"><ele>588.0</ele><time>2026-04-04T13:32:39.442Z</time></trkpt><trkpt lat="43.4540567" lon="2.7782533"><ele>588.0</ele><time>2026-04-04T13:32:40.446Z</time></trkpt><trkpt lat="43.4539217" lon="2.7781817"><ele>588.0</ele><time>2026-04-04T13:32:41.446Z</time></trkpt><trkpt lat="43.4537917" lon="2.7781167"><ele>585.25</ele><time>2026-04-04T13:32:42.446Z</time></trkpt><trkpt lat="43.4536633" lon="2.7780567"><ele>582.5</ele><time>2026-04-04T13:32:43.443Z</time></trkpt><trkpt lat="43.45353" lon="2.7779867"><ele>579.75</ele><time>2026-04-04T13:32:44.442Z</time></trkpt><trkpt lat="43.4534" lon="2.7779167"><ele>577.0</ele><time>2026-04-04T13:32:45.444Z</time></trkpt><trkpt lat="43.4532817" lon="2.7778533"><ele>577.0</ele><time>2026-04-04T13:32:46.443Z</time></trkpt><trkpt lat="43.4531583" lon="2.77778"><ele>577.0</ele><time>2026-04-04T13:32:47.444Z</time></trkpt><trkpt lat="43.4530333" lon="2.7776883"><ele>577.0</ele><time>2026-04-04T13:32:48.444Z</time></trkpt><trkpt lat="43.4529083" lon="2.7775767"><ele>577.0</ele><time>2026-04-04T13:32:49.445Z</time></trkpt><trkpt lat="43.45279" lon="2.7774733"><ele>580.25</ele><time>2026-04-04T13:32:50.446Z</time></trkpt><trkpt lat="43.452675" lon="2.7774133"><ele>583.5</ele><time>2026-04-04T13:32:51.445Z</time></trkpt><trkpt lat="43.452555" lon="2.77739"><ele>586.75</ele><time>2026-04-04T13:32:52.446Z</time></trkpt><trkpt lat="43.4524417" lon="2.7774083"><ele>590.0</ele><time>2026-04-04T13:32:53.446Z</time></trkpt><trkpt lat="43.4523517" lon="2.777455"><ele>590.0</ele><time>2026-04-04T13:32:54.446Z</time></trkpt><trkpt lat="43.452265" lon="2.7775233"><ele>590.0</ele><time>2026-04-04T13:32:55.443Z</time></trkpt><trkpt lat="43.452185" lon="2.77763"><ele>590.0</ele><time>2026-04-04T13:32:56.446Z</time></trkpt><trkpt lat="43.4521183" lon="2.7777633"><ele>590.0</ele><time>2026-04-04T13:32:57.442Z</time></trkpt><trkpt lat="43.4520483" lon="2.7779133"><ele>591.75</ele><time>2026-04-04T13:32:58.443Z</time></trkpt><trkpt lat="43.45197" lon="2.778075"><ele>593.5</ele><time>2026-04-04T13:32:59.443Z</time></trkpt><trkpt lat="43.4518883" lon="2.778235"><ele>595.25</ele><time>2026-04-04T13:33:00.444Z</time></trkpt><trkpt lat="43.451815" lon="2.7783867"><ele>597.0</ele><time>2026-04-04T13:33:01.443Z</time></trkpt><trkpt lat="43.4517617" lon="2.7785317"><ele>593.8000000000001</ele><time>2026-04-04T13:33:02.443Z</time></trkpt><trkpt lat="43.451725" lon="2.778685"><ele>590.6</ele><time>2026-04-04T13:33:03.443Z</time></trkpt><trkpt lat="43.4516983" lon="2.7788417"><ele>587.4000000000001</ele><time>2026-04-04T13:33:04.444Z</time></trkpt><trkpt lat="43.4516683" lon="2.77897"><ele>584.2</ele><time>2026-04-04T13:33:05.443Z</time></trkpt><trkpt lat="43.4516267" lon="2.7790867"><ele>581.0</ele><time>2026-04-04T13:33:06.444Z</time></trkpt><trkpt lat="43.451565" lon="2.7791967"><ele>581.0</ele><time>2026-04-04T13:33:07.443Z</time></trkpt><trkpt lat="43.451485" lon="2.7792933"><ele>581.0</ele><time>2026-04-04T13:33:08.443Z</time></trkpt><trkpt lat="43.4514017" lon="2.7793717"><ele>581.0</ele><time>2026-04-04T13:33:09.444Z</time></trkpt><trkpt lat="43.45131" lon="2.7794233"><ele>581.0</ele><time>2026-04-04T13:33:10.444Z</time></trkpt><trkpt lat="43.4511983" lon="2.7794367"><ele>581.0</ele><time>2026-04-04T13:33:11.444Z</time></trkpt><trkpt lat="43.451065" lon="2.7794333"><ele>580.0</ele><time>2026-04-04T13:33:12.443Z</time></trkpt><trkpt lat="43.450925" lon="2.7794383"><ele>579.0</ele><time>2026-04-04T13:33:13.444Z</time></trkpt><trkpt lat="43.4507917" lon="2.77946"><ele>578.0</ele><time>2026-04-04T13:33:14.444Z</time></trkpt><trkpt lat="43.45066" lon="2.779485"><ele>577.0</ele><time>2026-04-04T13:33:15.443Z</time></trkpt><trkpt lat="43.4505317" lon="2.7795367"><ele>579.25</ele><time>2026-04-04T13:33:16.446Z</time></trkpt><trkpt lat="43.4503983" lon="2.7796067"><ele>581.5</ele><time>2026-04-04T13:33:17.443Z</time></trkpt><trkpt lat="43.4502767" lon="2.7796917"><ele>583.75</ele><time>2026-04-04T13:33:18.444Z</time></trkpt><trkpt lat="43.4501717" lon="2.7797767"><ele>586.0</ele><time>2026-04-04T13:33:19.443Z</time></trkpt><trkpt lat="43.450065" lon="2.7798483"><ele>586.0</ele><time>2026-04-04T13:33:20.443Z</time></trkpt><trkpt lat="43.4499633" lon="2.7798917"><ele>586.0</ele><time>2026-04-04T13:33:21.442Z</time></trkpt><trkpt lat="43.449855" lon="2.7799267"><ele>586.0</ele><time>2026-04-04T13:33:22.443Z</time></trkpt><trkpt lat="43.4497533" lon="2.77993"><ele>586.0</ele><time>2026-04-04T13:33:23.443Z</time></trkpt><trkpt lat="43.4496583" lon="2.77993"><ele>586.0</ele><time>2026-04-04T13:33:24.443Z</time></trkpt><trkpt lat="43.449575" lon="2.7799333"><ele>587.4</ele><time>2026-04-04T13:33:25.444Z</time></trkpt><trkpt lat="43.4495067" lon="2.77995"><ele>588.8</ele><time>2026-04-04T13:33:26.443Z</time></trkpt><trkpt lat="43.4494467" lon="2.7799867"><ele>590.1999999999999</ele><time>2026-04-04T13:33:27.443Z</time></trkpt><trkpt lat="43.4493667" lon="2.7800817"><ele>591.6</ele><time>2026-04-04T13:33:29.443Z</time></trkpt><trkpt lat="43.449435" lon="2.7801783"><ele>593.0</ele><time>2026-04-04T13:33:30.443Z</time></trkpt><trkpt lat="43.44958" lon="2.7803683"><ele>592.25</ele><time>2026-04-04T13:33:32.444Z</time></trkpt><trkpt lat="43.449655" lon="2.78044"><ele>591.5</ele><time>2026-04-04T13:33:33.444Z</time></trkpt><trkpt lat="43.4498083" lon="2.7804783"><ele>590.75</ele><time>2026-04-04T13:33:34.444Z</time></trkpt><trkpt lat="43.4499517" lon="2.7805333"><ele>590.0</ele><time>2026-04-04T13:33:35.443Z</time></trkpt><trkpt lat="43.450115" lon="2.7806"><ele>590.0</ele><time>2026-04-04T13:33:36.443Z</time></trkpt><trkpt lat="43.45025" lon="2.7806433"><ele>590.0</ele><time>2026-04-04T13:33:37.443Z</time></trkpt><trkpt lat="43.45039" lon="2.7806767"><ele>590.0</ele><time>2026-04-04T13:33:38.443Z</time></trkpt><trkpt lat="43.45056" lon="2.7807233"><ele>590.2</ele><time>2026-04-04T13:33:39.443Z</time></trkpt><trkpt lat="43.4506583" lon="2.7807667"><ele>590.4</ele><time>2026-04-04T13:33:40.444Z</time></trkpt><trkpt lat="43.4507467" lon="2.7808333"><ele>590.6</ele><time>2026-04-04T13:33:41.444Z</time></trkpt><trkpt lat="43.4508133" lon="2.780915"><ele>590.8</ele><time>2026-04-04T13:33:42.444Z</time></trkpt><trkpt lat="43.4508383" lon="2.7810033"><ele>591.0</ele><time>2026-04-04T13:33:43.443Z</time></trkpt><trkpt lat="43.45082" lon="2.7811233"><ele>591.0</ele><time>2026-04-04T13:33:44.448Z</time></trkpt><trkpt lat="43.4508183" lon="2.7812383"><ele>591.0</ele><time>2026-04-04T13:33:45.445Z</time></trkpt><trkpt lat="43.4507983" lon="2.7813583"><ele>591.0</ele><time>2026-04-04T13:33:46.443Z</time></trkpt><trkpt lat="43.4507617" lon="2.7814783"><ele>591.0</ele><time>2026-04-04T13:33:47.444Z</time></trkpt><trkpt lat="43.4507283" lon="2.78161"><ele>591.0</ele><time>2026-04-04T13:33:48.444Z</time></trkpt><trkpt lat="43.450695" lon="2.781735"><ele>592.0</ele><time>2026-04-04T13:33:49.444Z</time></trkpt><trkpt lat="43.450645" lon="2.7818583"><ele>593.0</ele><time>2026-04-04T13:33:50.443Z</time></trkpt><trkpt lat="43.4505933" lon="2.7819717"><ele>594.0</ele><time>2026-04-04T13:33:51.445Z</time></trkpt><trkpt lat="43.450545" lon="2.7820717"><ele>595.0</ele><time>2026-04-04T13:33:52.444Z</time></trkpt><trkpt lat="43.4504917" lon="2.7821567"><ele>596.0</ele><time>2026-04-04T13:33:53.447Z</time></trkpt><trkpt lat="43.45045" lon="2.7822483"><ele>597.0</ele><time>2026-04-04T13:33:54.444Z</time></trkpt><trkpt lat="43.4504067" lon="2.7823333"><ele>599.6666666666666</ele><time>2026-04-04T13:33:55.444Z</time></trkpt><trkpt lat="43.4503783" lon="2.7824117"><ele>602.3333333333334</ele><time>2026-04-04T13:33:56.444Z</time></trkpt><trkpt lat="43.4503767" lon="2.782565"><ele>605.0</ele><time>2026-04-04T13:33:58.443Z</time></trkpt><trkpt lat="43.45039" lon="2.782715"><ele>607.6666666666667</ele><time>2026-04-04T13:34:00.445Z</time></trkpt><trkpt lat="43.450435" lon="2.7827833"><ele>610.3333333333334</ele><time>2026-04-04T13:34:01.443Z</time></trkpt><trkpt lat="43.450495" lon="2.78285"><ele>613.0</ele><time>2026-04-04T13:34:02.444Z</time></trkpt><trkpt lat="43.4505667" lon="2.7829267"><ele>613.5</ele><time>2026-04-04T13:34:03.444Z</time></trkpt><trkpt lat="43.4506817" lon="2.7830217"><ele>614.0</ele><time>2026-04-04T13:34:04.444Z</time></trkpt><trkpt lat="43.450795" lon="2.7831267"><ele>614.5</ele><time>2026-04-04T13:34:05.444Z</time></trkpt><trkpt lat="43.4509" lon="2.7832183"><ele>615.0</ele><time>2026-04-04T13:34:06.443Z</time></trkpt><trkpt lat="43.451025" lon="2.7832967"><ele>615.0</ele><time>2026-04-04T13:34:07.444Z</time></trkpt><trkpt lat="43.451165" lon="2.7833617"><ele>615.0</ele><time>2026-04-04T13:34:08.443Z</time></trkpt><trkpt lat="43.451305" lon="2.7834067"><ele>615.0</ele><time>2026-04-04T13:34:09.444Z</time></trkpt><trkpt lat="43.4514433" lon="2.78345"><ele>615.0</ele><time>2026-04-04T13:34:10.443Z</time></trkpt><trkpt lat="43.4515633" lon="2.7834833"><ele>613.75</ele><time>2026-04-04T13:34:11.444Z</time></trkpt><trkpt lat="43.4516767" lon="2.7835167"><ele>612.5</ele><time>2026-04-04T13:34:12.443Z</time></trkpt><trkpt lat="43.4517883" lon="2.78352"><ele>611.25</ele><time>2026-04-04T13:34:13.444Z</time></trkpt><trkpt lat="43.4519067" lon="2.7835117"><ele>610.0</ele><time>2026-04-04T13:34:14.444Z</time></trkpt><trkpt lat="43.4520117" lon="2.7834633"><ele>610.0</ele><time>2026-04-04T13:34:15.445Z</time></trkpt><trkpt lat="43.4520917" lon="2.783395"><ele>610.0</ele><time>2026-04-04T13:34:16.443Z</time></trkpt><trkpt lat="43.4521383" lon="2.7833183"><ele>610.0</ele><time>2026-04-04T13:34:17.444Z</time></trkpt><trkpt lat="43.4521767" lon="2.7832367"><ele>610.0</ele><time>2026-04-04T13:34:18.443Z</time></trkpt><trkpt lat="43.4521883" lon="2.7831467"><ele>610.0</ele><time>2026-04-04T13:34:19.444Z</time></trkpt><trkpt lat="43.4521983" lon="2.783025"><ele>610.0</ele><time>2026-04-04T13:34:20.445Z</time></trkpt><trkpt lat="43.45205" lon="2.7828917"><ele>610.0</ele><time>2026-04-04T13:34:21.444Z</time></trkpt><trkpt lat="43.4520033" lon="2.78278"><ele>610.0</ele><time>2026-04-04T13:34:22.444Z</time></trkpt><trkpt lat="43.4519717" lon="2.7826767"><ele>610.0</ele><time>2026-04-04T13:34:23.444Z</time></trkpt><trkpt lat="43.4519533" lon="2.7825733"><ele>610.0</ele><time>2026-04-04T13:34:24.444Z</time></trkpt><trkpt lat="43.45195" lon="2.7824683"><ele>610.0</ele><time>2026-04-04T13:34:25.443Z</time></trkpt><trkpt lat="43.45196" lon="2.7823683"><ele>610.0</ele><time>2026-04-04T13:34:26.443Z</time></trkpt><trkpt lat="43.452" lon="2.782275"><ele>608.4</ele><time>2026-04-04T13:34:27.444Z</time></trkpt><trkpt lat="43.4520517" lon="2.7821683"><ele>606.8</ele><time>2026-04-04T13:34:28.444Z</time></trkpt><trkpt lat="43.4521167" lon="2.7820917"><ele>605.2</ele><time>2026-04-04T13:34:29.445Z</time></trkpt><trkpt lat="43.4522117" lon="2.7820417"><ele>603.6</ele><time>2026-04-04T13:34:30.446Z</time></trkpt><trkpt lat="43.452365" lon="2.782035"><ele>602.0</ele><time>2026-04-04T13:34:31.444Z</time></trkpt><trkpt lat="43.4525267" lon="2.78203"><ele>603.25</ele><time>2026-04-04T13:34:32.444Z</time></trkpt><trkpt lat="43.4526917" lon="2.78205"><ele>604.5</ele><time>2026-04-04T13:34:33.444Z</time></trkpt><trkpt lat="43.4528317" lon="2.7820933"><ele>605.75</ele><time>2026-04-04T13:34:34.443Z</time></trkpt><trkpt lat="43.4529433" lon="2.7821567"><ele>607.0</ele><time>2026-04-04T13:34:35.443Z</time></trkpt><trkpt lat="43.4530283" lon="2.78224"><ele>607.0</ele><time>2026-04-04T13:34:36.443Z</time></trkpt><trkpt lat="43.4530967" lon="2.7823467"><ele>607.0</ele><time>2026-04-04T13:34:37.444Z</time></trkpt><trkpt lat="43.4531667" lon="2.7824817"><ele>607.0</ele><time>2026-04-04T13:34:38.443Z</time></trkpt><trkpt lat="43.4531917" lon="2.7826183"><ele>607.0</ele><time>2026-04-04T13:34:39.443Z</time></trkpt><trkpt lat="43.4532033" lon="2.7827667"><ele>607.0</ele><time>2026-04-04T13:34:40.443Z</time></trkpt><trkpt lat="43.453205" lon="2.7829333"><ele>609.5</ele><time>2026-04-04T13:34:41.443Z</time></trkpt><trkpt lat="43.453215" lon="2.783115"><ele>612.0</ele><time>2026-04-04T13:34:42.443Z</time></trkpt><trkpt lat="43.4531917" lon="2.7832983"><ele>614.5</ele><time>2026-04-04T13:34:43.444Z</time></trkpt><trkpt lat="43.4531483" lon="2.7834467"><ele>617.0</ele><time>2026-04-04T13:34:44.444Z</time></trkpt><trkpt lat="43.4530867" lon="2.783575"><ele>618.0</ele><time>2026-04-04T13:34:45.444Z</time></trkpt><trkpt lat="43.453015" lon="2.7837067"><ele>619.0</ele><time>2026-04-04T13:34:46.443Z</time></trkpt><trkpt lat="43.4529217" lon="2.7838433"><ele>620.0</ele><time>2026-04-04T13:34:47.446Z</time></trkpt><trkpt lat="43.4528183" lon="2.7839617"><ele>621.0</ele><time>2026-04-04T13:34:48.443Z</time></trkpt><trkpt lat="43.4527033" lon="2.78407"><ele>622.6666666666666</ele><time>2026-04-04T13:34:49.444Z</time></trkpt><trkpt lat="43.4525867" lon="2.7841833"><ele>624.3333333333333</ele><time>2026-04-04T13:34:50.446Z</time></trkpt><trkpt lat="43.452455" lon="2.7843033"><ele>626.0</ele><time>2026-04-04T13:34:51.443Z</time></trkpt><trkpt lat="43.4523283" lon="2.78443"><ele>630.75</ele><time>2026-04-04T13:34:52.443Z</time></trkpt><trkpt lat="43.4522033" lon="2.78456"><ele>635.5</ele><time>2026-04-04T13:34:53.443Z</time></trkpt><trkpt lat="43.45209" lon="2.7846833"><ele>640.25</ele><time>2026-04-04T13:34:54.443Z</time></trkpt><trkpt lat="43.4519967" lon="2.7848"><ele>645.0</ele><time>2026-04-04T13:34:55.444Z</time></trkpt><trkpt lat="43.451925" lon="2.784875"><ele>645.0</ele><time>2026-04-04T13:34:56.444Z</time></trkpt><trkpt lat="43.4518617" lon="2.7849233"><ele>645.0</ele><time>2026-04-04T13:34:57.443Z</time></trkpt><trkpt lat="43.45179" lon="2.7849467"><ele>645.0</ele><time>2026-04-04T13:34:58.445Z</time></trkpt><trkpt lat="43.4517233" lon="2.7849383"><ele>645.0</ele><time>2026-04-04T13:34:59.445Z</time></trkpt><trkpt lat="43.4515917" lon="2.7845717"><ele>645.0</ele><time>2026-04-04T13:35:01.445Z</time></trkpt><trkpt lat="43.4514867" lon="2.7844583"><ele>645.0</ele><time>2026-04-04T13:35:02.444Z</time></trkpt><trkpt lat="43.4513667" lon="2.784395"><ele>645.0</ele><time>2026-04-04T13:35:03.444Z</time></trkpt><trkpt lat="43.4512417" lon="2.7843633"><ele>645.0</ele><time>2026-04-04T13:35:04.444Z</time></trkpt><trkpt lat="43.451105" lon="2.78436"><ele>648.25</ele><time>2026-04-04T13:35:05.444Z</time></trkpt><trkpt lat="43.4509667" lon="2.7843767"><ele>651.5</ele><time>2026-04-04T13:35:06.443Z</time></trkpt><trkpt lat="43.450815" lon="2.7843817"><ele>654.75</ele><time>2026-04-04T13:35:07.446Z</time></trkpt><trkpt lat="43.4506667" lon="2.7843817"><ele>658.0</ele><time>2026-04-04T13:35:08.443Z</time></trkpt><trkpt lat="43.4505133" lon="2.7843733"><ele>661.0</ele><time>2026-04-04T13:35:09.443Z</time></trkpt><trkpt lat="43.4503517" lon="2.7843533"><ele>664.0</ele><time>2026-04-04T13:35:10.444Z</time></trkpt><trkpt lat="43.4501917" lon="2.7843367"><ele>667.0</ele><time>2026-04-04T13:35:11.444Z</time></trkpt><trkpt lat="43.4500283" lon="2.7843283"><ele>664.6666666666667</ele><time>2026-04-04T13:35:12.443Z</time></trkpt><trkpt lat="43.449865" lon="2.7843133"><ele>662.3333333333334</ele><time>2026-04-04T13:35:13.444Z</time></trkpt><trkpt lat="43.4497133" lon="2.7842783"><ele>660.0</ele><time>2026-04-04T13:35:14.444Z</time></trkpt><trkpt lat="43.4495567" lon="2.7842233"><ele>660.0</ele><time>2026-04-04T13:35:15.444Z</time></trkpt><trkpt lat="43.449415" lon="2.784155"><ele>660.0</ele><time>2026-04-04T13:35:16.445Z</time></trkpt><trkpt lat="43.4492817" lon="2.7840633"><ele>660.0</ele><time>2026-04-04T13:35:17.444Z</time></trkpt><trkpt lat="43.449165" lon="2.7839533"><ele>660.0</ele><time>2026-04-04T13:35:18.443Z</time></trkpt><trkpt lat="43.44907" lon="2.7838133"><ele>660.0</ele><time>2026-04-04T13:35:19.444Z</time></trkpt><trkpt lat="43.4489867" lon="2.7836333"><ele>660.0</ele><time>2026-04-04T13:35:20.444Z</time></trkpt><trkpt lat="43.44891" lon="2.7834483"><ele>660.0</ele><time>2026-04-04T13:35:21.443Z</time></trkpt><trkpt lat="43.4488383" lon="2.7832733"><ele>660.8333333333334</ele><time>2026-04-04T13:35:22.444Z</time></trkpt><trkpt lat="43.4487683" lon="2.7831667"><ele>661.6666666666666</ele><time>2026-04-04T13:35:23.446Z</time></trkpt><trkpt lat="43.4486933" lon="2.7831033"><ele>662.5</ele><time>2026-04-04T13:35:24.444Z</time></trkpt><trkpt lat="43.4486183" lon="2.7830617"><ele>663.3333333333333</ele><time>2026-04-04T13:35:25.444Z</time></trkpt><trkpt lat="43.4485283" lon="2.7830383"><ele>664.1666666666666</ele><time>2026-04-04T13:35:26.446Z</time></trkpt><trkpt lat="43.448445" lon="2.7830567"><ele>665.0</ele><time>2026-04-04T13:35:27.443Z</time></trkpt><trkpt lat="43.4483417" lon="2.7830867"><ele>665.0</ele><time>2026-04-04T13:35:28.444Z</time></trkpt><trkpt lat="43.4482217" lon="2.7831283"><ele>665.0</ele><time>2026-04-04T13:35:29.444Z</time></trkpt><trkpt lat="43.4481117" lon="2.783185"><ele>665.0</ele><time>2026-04-04T13:35:30.444Z</time></trkpt><trkpt lat="43.44801" lon="2.7832367"><ele>665.0</ele><time>2026-04-04T13:35:31.445Z</time></trkpt><trkpt lat="43.4479217" lon="2.7832667"><ele>665.0</ele><time>2026-04-04T13:35:32.444Z</time></trkpt><trkpt lat="43.4478367" lon="2.7832767"><ele>667.5</ele><time>2026-04-04T13:35:33.443Z</time></trkpt><trkpt lat="43.44776" lon="2.7832633"><ele>670.0</ele><time>2026-04-04T13:35:34.444Z</time></trkpt><trkpt lat="43.447685" lon="2.78325"><ele>672.5</ele><time>2026-04-04T13:35:35.445Z</time></trkpt><trkpt lat="43.4476183" lon="2.783215"><ele>675.0</ele><time>2026-04-04T13:35:36.444Z</time></trkpt><trkpt lat="43.447565" lon="2.78315"><ele>677.5</ele><time>2026-04-04T13:35:37.444Z</time></trkpt><trkpt lat="43.447515" lon="2.78305"><ele>680.0</ele><time>2026-04-04T13:35:38.447Z</time></trkpt><trkpt lat="43.447445" lon="2.7829317"><ele>680.0</ele><time>2026-04-04T13:35:39.443Z</time></trkpt><trkpt lat="43.447365" lon="2.782815"><ele>680.0</ele><time>2026-04-04T13:35:40.444Z</time></trkpt><trkpt lat="43.4472583" lon="2.7827117"><ele>680.0</ele><time>2026-04-04T13:35:41.444Z</time></trkpt><trkpt lat="43.4471517" lon="2.7826533"><ele>680.0</ele><time>2026-04-04T13:35:42.446Z</time></trkpt><trkpt lat="43.4470283" lon="2.7826183"><ele>679.6666666666666</ele><time>2026-04-04T13:35:43.446Z</time></trkpt><trkpt lat="43.4468933" lon="2.78258"><ele>679.3333333333334</ele><time>2026-04-04T13:35:44.443Z</time></trkpt><trkpt lat="43.446745" lon="2.7825383"><ele>679.0</ele><time>2026-04-04T13:35:45.446Z</time></trkpt><trkpt lat="43.4465867" lon="2.7824933"><ele>679.0</ele><time>2026-04-04T13:35:46.443Z</time></trkpt><trkpt lat="43.446425" lon="2.7824483"><ele>679.0</ele><time>2026-04-04T13:35:47.443Z</time></trkpt><trkpt lat="43.4462583" lon="2.7824017"><ele>679.0</ele><time>2026-04-04T13:35:48.442Z</time></trkpt><trkpt lat="43.4460983" lon="2.7823483"><ele>682.6666666666667</ele><time>2026-04-04T13:35:49.444Z</time></trkpt><trkpt lat="43.4459417" lon="2.7822617"><ele>686.3333333333334</ele><time>2026-04-04T13:35:50.442Z</time></trkpt><trkpt lat="43.4457833" lon="2.782165"><ele>690.0</ele><time>2026-04-04T13:35:51.443Z</time></trkpt><trkpt lat="43.4456233" lon="2.7820617"><ele>690.0</ele><time>2026-04-04T13:35:52.445Z</time></trkpt><trkpt lat="43.445465" lon="2.7819683"><ele>690.0</ele><time>2026-04-04T13:35:53.443Z</time></trkpt><trkpt lat="43.4452983" lon="2.7818683"><ele>690.0</ele><time>2026-04-04T13:35:54.444Z</time></trkpt><trkpt lat="43.445135" lon="2.78176"><ele>689.0</ele><time>2026-04-04T13:35:55.444Z</time></trkpt><trkpt lat="43.4449783" lon="2.781675"><ele>688.0</ele><time>2026-04-04T13:35:56.443Z</time></trkpt><trkpt lat="43.4448333" lon="2.781585"><ele>687.0</ele><time>2026-04-04T13:35:57.442Z</time></trkpt><trkpt lat="43.444685" lon="2.7815017"><ele>692.5</ele><time>2026-04-04T13:35:58.443Z</time></trkpt><trkpt lat="43.4445417" lon="2.781435"><ele>698.0</ele><time>2026-04-04T13:35:59.442Z</time></trkpt><trkpt lat="43.4444167" lon="2.7813667"><ele>703.5</ele><time>2026-04-04T13:36:00.444Z</time></trkpt><trkpt lat="43.4443067" lon="2.7812983"><ele>709.0</ele><time>2026-04-04T13:36:01.443Z</time></trkpt><trkpt lat="43.44422" lon="2.7812383"><ele>709.0</ele><time>2026-04-04T13:36:02.443Z</time></trkpt><trkpt lat="43.444155" lon="2.7811583"><ele>709.0</ele><time>2026-04-04T13:36:03.443Z</time></trkpt><trkpt lat="43.4440917" lon="2.7810867"><ele>709.0</ele><time>2026-04-04T13:36:04.443Z</time></trkpt><trkpt lat="43.4440583" lon="2.78099"><ele>709.0</ele><time>2026-04-04T13:36:05.444Z</time></trkpt><trkpt lat="43.4441017" lon="2.78089"><ele>709.0</ele><time>2026-04-04T13:36:06.443Z</time></trkpt><trkpt lat="43.44412" lon="2.7807933"><ele>709.0</ele><time>2026-04-04T13:36:07.443Z</time></trkpt><trkpt lat="43.4442517" lon="2.7806917"><ele>709.0</ele><time>2026-04-04T13:36:08.443Z</time></trkpt><trkpt lat="43.4443217" lon="2.7805817"><ele>709.0</ele><time>2026-04-04T13:36:09.446Z</time></trkpt><trkpt lat="43.44452" lon="2.7804367"><ele>709.0</ele><time>2026-04-04T13:36:10.443Z</time></trkpt><trkpt lat="43.4446617" lon="2.7803233"><ele>705.25</ele><time>2026-04-04T13:36:11.443Z</time></trkpt><trkpt lat="43.44477" lon="2.7802133"><ele>701.5</ele><time>2026-04-04T13:36:12.444Z</time></trkpt><trkpt lat="43.4448333" lon="2.7800967"><ele>697.75</ele><time>2026-04-04T13:36:13.444Z</time></trkpt><trkpt lat="43.4448667" lon="2.7799583"><ele>694.0</ele><time>2026-04-04T13:36:14.442Z</time></trkpt><trkpt lat="43.444915" lon="2.7798017"><ele>694.0</ele><time>2026-04-04T13:36:15.444Z</time></trkpt><trkpt lat="43.4449417" lon="2.7796283"><ele>694.0</ele><time>2026-04-04T13:36:16.442Z</time></trkpt><trkpt lat="43.4449317" lon="2.7794433"><ele>694.0</ele><time>2026-04-04T13:36:17.443Z</time></trkpt><trkpt lat="43.4449133" lon="2.7792617"><ele>694.0</ele><time>2026-04-04T13:36:18.445Z</time></trkpt><trkpt lat="43.44487" lon="2.7790933"><ele>695.25</ele><time>2026-04-04T13:36:19.444Z</time></trkpt><trkpt lat="43.44482" lon="2.7789367"><ele>696.5</ele><time>2026-04-04T13:36:20.443Z</time></trkpt><trkpt lat="43.44476" lon="2.778795"><ele>697.75</ele><time>2026-04-04T13:36:21.443Z</time></trkpt><trkpt lat="43.4446817" lon="2.7786717"><ele>699.0</ele><time>2026-04-04T13:36:22.443Z</time></trkpt><trkpt lat="43.44461" lon="2.7785733"><ele>702.6</ele><time>2026-04-04T13:36:23.443Z</time></trkpt><trkpt lat="43.444515" lon="2.7785283"><ele>706.2</ele><time>2026-04-04T13:36:24.445Z</time></trkpt><trkpt lat="43.4444283" lon="2.7785217"><ele>709.8000000000001</ele><time>2026-04-04T13:36:25.443Z</time></trkpt><trkpt lat="43.4443317" lon="2.7785367"><ele>713.4000000000001</ele><time>2026-04-04T13:36:26.442Z</time></trkpt><trkpt lat="43.44423" lon="2.77855"><ele>717.0</ele><time>2026-04-04T13:36:27.443Z</time></trkpt><trkpt lat="43.4441283" lon="2.77856"><ele>717.0</ele><time>2026-04-04T13:36:28.444Z</time></trkpt><trkpt lat="43.4440267" lon="2.7785867"><ele>717.0</ele><time>2026-04-04T13:36:29.442Z</time></trkpt><trkpt lat="43.443935" lon="2.7786317"><ele>717.0</ele><time>2026-04-04T13:36:30.443Z</time></trkpt><trkpt lat="43.4438567" lon="2.7787033"><ele>717.0</ele><time>2026-04-04T13:36:31.443Z</time></trkpt><trkpt lat="43.4437867" lon="2.7788017"><ele>717.0</ele><time>2026-04-04T13:36:32.442Z</time></trkpt><trkpt lat="43.4437217" lon="2.7789133"><ele>716.0</ele><time>2026-04-04T13:36:33.443Z</time></trkpt><trkpt lat="43.4436533" lon="2.7790233"><ele>715.0</ele><time>2026-04-04T13:36:34.443Z</time></trkpt><trkpt lat="43.4435883" lon="2.7791367"><ele>714.0</ele><time>2026-04-04T13:36:35.444Z</time></trkpt><trkpt lat="43.4435283" lon="2.7792567"><ele>713.0</ele><time>2026-04-04T13:36:36.444Z</time></trkpt><trkpt lat="43.44348" lon="2.779385"><ele>712.0</ele><time>2026-04-04T13:36:37.444Z</time></trkpt><trkpt lat="43.4434467" lon="2.7795367"><ele>715.5</ele><time>2026-04-04T13:36:38.443Z</time></trkpt><trkpt lat="43.44342" lon="2.7796967"><ele>719.0</ele><time>2026-04-04T13:36:39.442Z</time></trkpt><trkpt lat="43.4433917" lon="2.77986"><ele>722.5</ele><time>2026-04-04T13:36:40.443Z</time></trkpt><trkpt lat="43.443365" lon="2.7800167"><ele>726.0</ele><time>2026-04-04T13:36:41.443Z</time></trkpt><trkpt lat="43.44334" lon="2.7801583"><ele>727.0</ele><time>2026-04-04T13:36:42.443Z</time></trkpt><trkpt lat="43.4433133" lon="2.78029"><ele>728.0</ele><time>2026-04-04T13:36:43.444Z</time></trkpt><trkpt lat="43.443275" lon="2.7803933"><ele>729.0</ele><time>2026-04-04T13:36:44.442Z</time></trkpt><trkpt lat="43.44324" lon="2.78047"><ele>730.0</ele><time>2026-04-04T13:36:45.442Z</time></trkpt><trkpt lat="43.4431933" lon="2.7805283"><ele>731.0</ele><time>2026-04-04T13:36:46.443Z</time></trkpt><trkpt lat="43.4431267" lon="2.7805583"><ele>732.0</ele><time>2026-04-04T13:36:47.444Z</time></trkpt><trkpt lat="43.4430567" lon="2.780575"><ele>732.0</ele><time>2026-04-04T13:36:48.446Z</time></trkpt><trkpt lat="43.4429783" lon="2.7805783"><ele>732.0</ele><time>2026-04-04T13:36:49.443Z</time></trkpt><trkpt lat="43.442855" lon="2.780565"><ele>732.0</ele><time>2026-04-04T13:36:50.443Z</time></trkpt><trkpt lat="43.4427133" lon="2.78053"><ele>732.0</ele><time>2026-04-04T13:36:51.442Z</time></trkpt><trkpt lat="43.4425733" lon="2.7805217"><ele>735.75</ele><time>2026-04-04T13:36:52.443Z</time></trkpt><trkpt lat="43.4424367" lon="2.7805117"><ele>739.5</ele><time>2026-04-04T13:36:53.443Z</time></trkpt><trkpt lat="43.4422783" lon="2.7805033"><ele>743.25</ele><time>2026-04-04T13:36:54.444Z</time></trkpt><trkpt lat="43.4421417" lon="2.7804883"><ele>747.0</ele><time>2026-04-04T13:36:55.444Z</time></trkpt><trkpt lat="43.4420433" lon="2.7804667"><ele>750.1666666666666</ele><time>2026-04-04T13:36:56.443Z</time></trkpt><trkpt lat="43.4419683" lon="2.7804233"><ele>753.3333333333334</ele><time>2026-04-04T13:36:57.443Z</time></trkpt><trkpt lat="43.44191" lon="2.780325"><ele>756.5</ele><time>2026-04-04T13:36:59.443Z</time></trkpt><trkpt lat="43.4418633" lon="2.780255"><ele>759.6666666666667</ele><time>2026-04-04T13:37:01.443Z</time></trkpt><trkpt lat="43.44193" lon="2.7803617"><ele>762.8333333333334</ele><time>2026-04-04T13:37:05.443Z</time></trkpt><trkpt lat="43.4420083" lon="2.7803917"><ele>766.0</ele><time>2026-04-04T13:37:06.444Z</time></trkpt><trkpt lat="43.4421017" lon="2.7804017"><ele>761.25</ele><time>2026-04-04T13:37:07.445Z</time></trkpt><trkpt lat="43.4422167" lon="2.7804067"><ele>756.5</ele><time>2026-04-04T13:37:08.442Z</time></trkpt><trkpt lat="43.4423417" lon="2.7804233"><ele>751.75</ele><time>2026-04-04T13:37:09.443Z</time></trkpt><trkpt lat="43.4424717" lon="2.7804433"><ele>747.0</ele><time>2026-04-04T13:37:10.443Z</time></trkpt><trkpt lat="43.4426033" lon="2.7804567"><ele>747.0</ele><time>2026-04-04T13:37:11.443Z</time></trkpt><trkpt lat="43.44274" lon="2.7804617"><ele>747.0</ele><time>2026-04-04T13:37:12.443Z</time></trkpt><trkpt lat="43.442865" lon="2.7804617"><ele>747.0</ele><time>2026-04-04T13:37:13.443Z</time></trkpt><trkpt lat="43.4429833" lon="2.78047"><ele>747.0</ele><time>2026-04-04T13:37:14.443Z</time></trkpt><trkpt lat="43.4430767" lon="2.7804983"><ele>745.3333333333334</ele><time>2026-04-04T13:37:15.446Z</time></trkpt><trkpt lat="43.4431383" lon="2.7805467"><ele>743.6666666666666</ele><time>2026-04-04T13:37:16.443Z</time></trkpt><trkpt lat="43.44319" lon="2.7806133"><ele>742.0</ele><time>2026-04-04T13:37:17.444Z</time></trkpt><trkpt lat="43.4432317" lon="2.7807"><ele>740.3333333333333</ele><time>2026-04-04T13:37:18.446Z</time></trkpt><trkpt lat="43.4432517" lon="2.78082"><ele>738.6666666666666</ele><time>2026-04-04T13:37:19.444Z</time></trkpt><trkpt lat="43.44327" lon="2.7809617"><ele>737.0</ele><time>2026-04-04T13:37:20.445Z</time></trkpt><trkpt lat="43.44329" lon="2.7811483"><ele>737.0</ele><time>2026-04-04T13:37:21.446Z</time></trkpt><trkpt lat="43.4433267" lon="2.781345"><ele>737.0</ele><time>2026-04-04T13:37:22.445Z</time></trkpt><trkpt lat="43.44338" lon="2.781555"><ele>737.0</ele><time>2026-04-04T13:37:23.444Z</time></trkpt><trkpt lat="43.4434433" lon="2.7817483"><ele>741.6666666666666</ele><time>2026-04-04T13:37:24.445Z</time></trkpt><trkpt lat="43.44352" lon="2.7819217"><ele>746.3333333333334</ele><time>2026-04-04T13:37:25.446Z</time></trkpt><trkpt lat="43.44361" lon="2.782095"><ele>751.0</ele><time>2026-04-04T13:37:26.443Z</time></trkpt><trkpt lat="43.4436967" lon="2.7822783"><ele>751.0</ele><time>2026-04-04T13:37:27.443Z</time></trkpt><trkpt lat="43.4437883" lon="2.7824783"><ele>751.0</ele><time>2026-04-04T13:37:28.444Z</time></trkpt><trkpt lat="43.44388" lon="2.7826683"><ele>751.0</ele><time>2026-04-04T13:37:29.444Z</time></trkpt><trkpt lat="43.4439833" lon="2.7828183"><ele>750.5</ele><time>2026-04-04T13:37:30.445Z</time></trkpt><trkpt lat="43.4441" lon="2.7829267"><ele>750.0</ele><time>2026-04-04T13:37:31.446Z</time></trkpt><trkpt lat="43.4442283" lon="2.783015"><ele>749.5</ele><time>2026-04-04T13:37:32.443Z</time></trkpt><trkpt lat="43.444375" lon="2.7830733"><ele>749.0</ele><time>2026-04-04T13:37:33.445Z</time></trkpt><trkpt lat="43.4445283" lon="2.7831283"><ele>744.3333333333333</ele><time>2026-04-04T13:37:34.444Z</time></trkpt><trkpt lat="43.4446833" lon="2.7831967"><ele>739.6666666666666</ele><time>2026-04-04T13:37:35.444Z</time></trkpt><trkpt lat="43.4448367" lon="2.7832817"><ele>735.0</ele><time>2026-04-04T13:37:36.445Z</time></trkpt><trkpt lat="43.4449817" lon="2.7833817"><ele>735.0</ele><time>2026-04-04T13:37:37.445Z</time></trkpt><trkpt lat="43.4451283" lon="2.78349"><ele>735.0</ele><time>2026-04-04T13:37:38.444Z</time></trkpt><trkpt lat="43.4452817" lon="2.783605"><ele>735.0</ele><time>2026-04-04T13:37:39.443Z</time></trkpt><trkpt lat="43.4454367" lon="2.7837217"><ele>737.6666666666666</ele><time>2026-04-04T13:37:40.444Z</time></trkpt><trkpt lat="43.4455833" lon="2.78384"><ele>740.3333333333333</ele><time>2026-04-04T13:37:41.445Z</time></trkpt><trkpt lat="43.44573" lon="2.7839567"><ele>743.0</ele><time>2026-04-04T13:37:42.446Z</time></trkpt><trkpt lat="43.4458683" lon="2.78408"><ele>743.0</ele><time>2026-04-04T13:37:43.446Z</time></trkpt><trkpt lat="43.445995" lon="2.7842033"><ele>743.0</ele><time>2026-04-04T13:37:44.446Z</time></trkpt><trkpt lat="43.4461117" lon="2.7843267"><ele>743.0</ele><time>2026-04-04T13:37:45.445Z</time></trkpt><trkpt lat="43.4462033" lon="2.784455"><ele>743.0</ele><time>2026-04-04T13:37:46.442Z</time></trkpt><trkpt lat="43.4462683" lon="2.7845967"><ele>744.0</ele><time>2026-04-04T13:37:47.446Z</time></trkpt><trkpt lat="43.4463217" lon="2.7847667"><ele>745.0</ele><time>2026-04-04T13:37:48.446Z</time></trkpt><trkpt lat="43.44637" lon="2.7849433"><ele>746.0</ele><time>2026-04-04T13:37:49.446Z</time></trkpt><trkpt lat="43.44641" lon="2.78513"><ele>747.0</ele><time>2026-04-04T13:37:50.445Z</time></trkpt><trkpt lat="43.446455" lon="2.785325"><ele>747.0</ele><time>2026-04-04T13:37:51.442Z</time></trkpt><trkpt lat="43.4465" lon="2.78552"><ele>747.0</ele><time>2026-04-04T13:37:52.443Z</time></trkpt><trkpt lat="43.44655" lon="2.7857133"><ele>747.0</ele><time>2026-04-04T13:37:53.446Z</time></trkpt><trkpt lat="43.4465983" lon="2.7858867"><ele>747.0</ele><time>2026-04-04T13:37:54.447Z</time></trkpt><trkpt lat="43.4466517" lon="2.7860217"><ele>748.0</ele><time>2026-04-04T13:37:55.446Z</time></trkpt><trkpt lat="43.4467217" lon="2.786115"><ele>749.0</ele><time>2026-04-04T13:37:56.446Z</time></trkpt><trkpt lat="43.4468" lon="2.786185"><ele>750.0</ele><time>2026-04-04T13:37:57.442Z</time></trkpt><trkpt lat="43.4468967" lon="2.7862383"><ele>751.0</ele><time>2026-04-04T13:37:58.443Z</time></trkpt><trkpt lat="43.4470133" lon="2.786265"><ele>752.0</ele><time>2026-04-04T13:37:59.443Z</time></trkpt><trkpt lat="43.4471533" lon="2.7862617"><ele>752.0</ele><time>2026-04-04T13:38:00.443Z</time></trkpt><trkpt lat="43.4473" lon="2.7862483"><ele>752.0</ele><time>2026-04-04T13:38:01.444Z</time></trkpt><trkpt lat="43.4474417" lon="2.78624"><ele>752.0</ele><time>2026-04-04T13:38:02.442Z</time></trkpt><trkpt lat="43.4475683" lon="2.78625"><ele>752.0</ele><time>2026-04-04T13:38:03.445Z</time></trkpt><trkpt lat="43.4476817" lon="2.7862967"><ele>752.0</ele><time>2026-04-04T13:38:04.444Z</time></trkpt><trkpt lat="43.4477867" lon="2.7863817"><ele>752.0</ele><time>2026-04-04T13:38:05.444Z</time></trkpt><trkpt lat="43.4478983" lon="2.78649"><ele>752.0</ele><time>2026-04-04T13:38:06.443Z</time></trkpt><trkpt lat="43.44802" lon="2.7865933"><ele>752.0</ele><time>2026-04-04T13:38:07.443Z</time></trkpt><trkpt lat="43.4481567" lon="2.786675"><ele>748.3333333333333</ele><time>2026-04-04T13:38:08.444Z</time></trkpt><trkpt lat="43.4483067" lon="2.786735"><ele>744.6666666666666</ele><time>2026-04-04T13:38:09.443Z</time></trkpt><trkpt lat="43.4484683" lon="2.7867783"><ele>741.0</ele><time>2026-04-04T13:38:10.445Z</time></trkpt><trkpt lat="43.4486383" lon="2.78681"><ele>740.0</ele><time>2026-04-04T13:38:11.446Z</time></trkpt><trkpt lat="43.44881" lon="2.78684"><ele>739.0</ele><time>2026-04-04T13:38:12.446Z</time></trkpt><trkpt lat="43.4489683" lon="2.7868767"><ele>738.0</ele><time>2026-04-04T13:38:13.446Z</time></trkpt><trkpt lat="43.4491" lon="2.78693"><ele>738.0</ele><time>2026-04-04T13:38:14.446Z</time></trkpt><trkpt lat="43.4492017" lon="2.7869983"><ele>738.0</ele><time>2026-04-04T13:38:15.447Z</time></trkpt><trkpt lat="43.4492667" lon="2.787075"><ele>738.0</ele><time>2026-04-04T13:38:16.446Z</time></trkpt><trkpt lat="43.449315" lon="2.78715"><ele>738.0</ele><time>2026-04-04T13:38:17.447Z</time></trkpt><trkpt lat="43.449355" lon="2.7872933"><ele>738.0</ele><time>2026-04-04T13:38:19.448Z</time></trkpt><trkpt lat="43.4493067" lon="2.787385"><ele>738.0</ele><time>2026-04-04T13:38:20.446Z</time></trkpt><trkpt lat="43.449225" lon="2.7874917"><ele>738.0</ele><time>2026-04-04T13:38:21.445Z</time></trkpt><trkpt lat="43.4491517" lon="2.7875917"><ele>738.0</ele><time>2026-04-04T13:38:22.446Z</time></trkpt><trkpt lat="43.449025" lon="2.7877117"><ele>738.0</ele><time>2026-04-04T13:38:23.446Z</time></trkpt><trkpt lat="43.4488967" lon="2.7878317"><ele>741.6666666666666</ele><time>2026-04-04T13:38:24.443Z</time></trkpt><trkpt lat="43.4487717" lon="2.787955"><ele>745.3333333333333</ele><time>2026-04-04T13:38:25.443Z</time></trkpt><trkpt lat="43.4486383" lon="2.7880783"><ele>749.0</ele><time>2026-04-04T13:38:26.443Z</time></trkpt><trkpt lat="43.4484983" lon="2.7882083"><ele>749.0</ele><time>2026-04-04T13:38:27.445Z</time></trkpt><trkpt lat="43.448355" lon="2.78836"><ele>749.0</ele><time>2026-04-04T13:38:28.444Z</time></trkpt><trkpt lat="43.4482183" lon="2.788525"><ele>749.0</ele><time>2026-04-04T13:38:29.443Z</time></trkpt><trkpt lat="43.448085" lon="2.788715"><ele>750.6666666666666</ele><time>2026-04-04T13:38:30.443Z</time></trkpt><trkpt lat="43.447965" lon="2.7889167"><ele>752.3333333333334</ele><time>2026-04-04T13:38:31.443Z</time></trkpt><trkpt lat="43.4478267" lon="2.7891183"><ele>754.0</ele><time>2026-04-04T13:38:32.443Z</time></trkpt><trkpt lat="43.4476883" lon="2.7893017"><ele>751.0</ele><time>2026-04-04T13:38:33.443Z</time></trkpt><trkpt lat="43.44756" lon="2.78949"><ele>748.0</ele><time>2026-04-04T13:38:34.443Z</time></trkpt><trkpt lat="43.4474383" lon="2.7896867"><ele>745.0</ele><time>2026-04-04T13:38:35.442Z</time></trkpt><trkpt lat="43.447325" lon="2.7898933"><ele>745.0</ele><time>2026-04-04T13:38:36.443Z</time></trkpt><trkpt lat="43.447215" lon="2.7901117"><ele>745.0</ele><time>2026-04-04T13:38:37.444Z</time></trkpt><trkpt lat="43.447115" lon="2.7903233"><ele>745.0</ele><time>2026-04-04T13:38:38.444Z</time></trkpt><trkpt lat="43.4470183" lon="2.79055"><ele>746.3333333333334</ele><time>2026-04-04T13:38:39.443Z</time></trkpt><trkpt lat="43.446935" lon="2.7907867"><ele>747.6666666666666</ele><time>2026-04-04T13:38:40.445Z</time></trkpt><trkpt lat="43.4468617" lon="2.79103"><ele>749.0</ele><time>2026-04-04T13:38:41.443Z</time></trkpt><trkpt lat="43.44678" lon="2.7912733"><ele>749.0</ele><time>2026-04-04T13:38:42.443Z</time></trkpt><trkpt lat="43.446695" lon="2.791515"><ele>749.0</ele><time>2026-04-04T13:38:43.443Z</time></trkpt><trkpt lat="43.4465983" lon="2.791755"><ele>749.0</ele><time>2026-04-04T13:38:44.442Z</time></trkpt><trkpt lat="43.4465117" lon="2.7919783"><ele>751.6666666666666</ele><time>2026-04-04T13:38:45.444Z</time></trkpt><trkpt lat="43.4464067" lon="2.792185"><ele>754.3333333333334</ele><time>2026-04-04T13:38:46.444Z</time></trkpt><trkpt lat="43.44629" lon="2.7923817"><ele>757.0</ele><time>2026-04-04T13:38:47.444Z</time></trkpt><trkpt lat="43.44617" lon="2.7925633"><ele>753.3333333333334</ele><time>2026-04-04T13:38:48.444Z</time></trkpt><trkpt lat="43.4460317" lon="2.79273"><ele>749.6666666666666</ele><time>2026-04-04T13:38:49.444Z</time></trkpt><trkpt lat="43.445895" lon="2.7928983"><ele>746.0</ele><time>2026-04-04T13:38:50.443Z</time></trkpt><trkpt lat="43.4457583" lon="2.793065"><ele>746.0</ele><time>2026-04-04T13:38:51.445Z</time></trkpt><trkpt lat="43.4456317" lon="2.7932483"><ele>746.0</ele><time>2026-04-04T13:38:52.443Z</time></trkpt><trkpt lat="43.445515" lon="2.7934533"><ele>746.0</ele><time>2026-04-04T13:38:53.443Z</time></trkpt><trkpt lat="43.4454167" lon="2.793665"><ele>747.5</ele><time>2026-04-04T13:38:54.444Z</time></trkpt><trkpt lat="43.4453317" lon="2.7938733"><ele>749.0</ele><time>2026-04-04T13:38:55.443Z</time></trkpt><trkpt lat="43.4452583" lon="2.79406"><ele>750.5</ele><time>2026-04-04T13:38:56.443Z</time></trkpt><trkpt lat="43.445245" lon="2.794205"><ele>752.0</ele><time>2026-04-04T13:38:57.443Z</time></trkpt><trkpt lat="43.4452483" lon="2.794355"><ele>752.0</ele><time>2026-04-04T13:38:58.444Z</time></trkpt><trkpt lat="43.44526" lon="2.7944983"><ele>752.0</ele><time>2026-04-04T13:38:59.443Z</time></trkpt><trkpt lat="43.445305" lon="2.7946433"><ele>752.0</ele><time>2026-04-04T13:39:00.443Z</time></trkpt><trkpt lat="43.4453933" lon="2.7947867"><ele>752.0</ele><time>2026-04-04T13:39:01.443Z</time></trkpt><trkpt lat="43.4455017" lon="2.7949167"><ele>751.0</ele><time>2026-04-04T13:39:02.443Z</time></trkpt><trkpt lat="43.44563" lon="2.7950517"><ele>750.0</ele><time>2026-04-04T13:39:03.443Z</time></trkpt><trkpt lat="43.44578" lon="2.795195"><ele>749.0</ele><time>2026-04-04T13:39:04.444Z</time></trkpt><trkpt lat="43.4459217" lon="2.7953333"><ele>753.0</ele><time>2026-04-04T13:39:05.442Z</time></trkpt><trkpt lat="43.4460483" lon="2.7954733"><ele>757.0</ele><time>2026-04-04T13:39:06.445Z</time></trkpt><trkpt lat="43.4461583" lon="2.7956167"><ele>761.0</ele><time>2026-04-04T13:39:07.443Z</time></trkpt><trkpt lat="43.44627" lon="2.7957617"><ele>757.3333333333333</ele><time>2026-04-04T13:39:08.442Z</time></trkpt><trkpt lat="43.446365" lon="2.7959283"><ele>753.6666666666666</ele><time>2026-04-04T13:39:09.443Z</time></trkpt><trkpt lat="43.4464517" lon="2.7961217"><ele>750.0</ele><time>2026-04-04T13:39:10.444Z</time></trkpt><trkpt lat="43.4465267" lon="2.7963317"><ele>750.0</ele><time>2026-04-04T13:39:11.444Z</time></trkpt><trkpt lat="43.4465933" lon="2.796535"><ele>750.0</ele><time>2026-04-04T13:39:12.443Z</time></trkpt><trkpt lat="43.44664" lon="2.7967333"><ele>750.0</ele><time>2026-04-04T13:39:13.443Z</time></trkpt><trkpt lat="43.4466633" lon="2.7969317"><ele>750.6666666666666</ele><time>2026-04-04T13:39:14.443Z</time></trkpt><trkpt lat="43.44668" lon="2.7971367"><ele>751.3333333333333</ele><time>2026-04-04T13:39:15.443Z</time></trkpt><trkpt lat="43.4466817" lon="2.7973533"><ele>752.0</ele><time>2026-04-04T13:39:16.444Z</time></trkpt><trkpt lat="43.446675" lon="2.7975783"><ele>751.6666666666666</ele><time>2026-04-04T13:39:17.443Z</time></trkpt><trkpt lat="43.4466633" lon="2.79782"><ele>751.3333333333334</ele><time>2026-04-04T13:39:18.443Z</time></trkpt><trkpt lat="43.4466533" lon="2.79807"><ele>751.0</ele><time>2026-04-04T13:39:19.443Z</time></trkpt><trkpt lat="43.44665" lon="2.7983367"><ele>751.0</ele><time>2026-04-04T13:39:20.442Z</time></trkpt><trkpt lat="43.446645" lon="2.7986"><ele>751.0</ele><time>2026-04-04T13:39:21.443Z</time></trkpt><trkpt lat="43.4466483" lon="2.7988517"><ele>751.0</ele><time>2026-04-04T13:39:22.443Z</time></trkpt><trkpt lat="43.446665" lon="2.79909"><ele>751.0</ele><time>2026-04-04T13:39:23.443Z</time></trkpt><trkpt lat="43.4467" lon="2.7993233"><ele>751.0</ele><time>2026-04-04T13:39:24.443Z</time></trkpt><trkpt lat="43.4467517" lon="2.7995633"><ele>751.0</ele><time>2026-04-04T13:39:25.443Z</time></trkpt><trkpt lat="43.4468167" lon="2.7997817"><ele>751.25</ele><time>2026-04-04T13:39:26.444Z</time></trkpt><trkpt lat="43.4469017" lon="2.7999783"><ele>751.5</ele><time>2026-04-04T13:39:27.444Z</time></trkpt><trkpt lat="43.44699" lon="2.8001317"><ele>751.75</ele><time>2026-04-04T13:39:28.444Z</time></trkpt><trkpt lat="43.4470883" lon="2.8002333"><ele>752.0</ele><time>2026-04-04T13:39:29.443Z</time></trkpt><trkpt lat="43.4472" lon="2.8002933"><ele>753.5</ele><time>2026-04-04T13:39:30.444Z</time></trkpt><trkpt lat="43.4473317" lon="2.8003083"><ele>755.0</ele><time>2026-04-04T13:39:31.444Z</time></trkpt><trkpt lat="43.4474717" lon="2.8002883"><ele>756.5</ele><time>2026-04-04T13:39:32.442Z</time></trkpt><trkpt lat="43.4476267" lon="2.800245"><ele>758.0</ele><time>2026-04-04T13:39:33.445Z</time></trkpt><trkpt lat="43.447795" lon="2.800205"><ele>759.0</ele><time>2026-04-04T13:39:34.444Z</time></trkpt><trkpt lat="43.447965" lon="2.8001767"><ele>760.0</ele><time>2026-04-04T13:39:35.443Z</time></trkpt><trkpt lat="43.4481417" lon="2.80016"><ele>761.0</ele><time>2026-04-04T13:39:36.443Z</time></trkpt><trkpt lat="43.44832" lon="2.8001567"><ele>761.0</ele><time>2026-04-04T13:39:37.445Z</time></trkpt><trkpt lat="43.4485033" lon="2.8001683"><ele>761.0</ele><time>2026-04-04T13:39:38.442Z</time></trkpt><trkpt lat="43.44869" lon="2.8002"><ele>761.0</ele><time>2026-04-04T13:39:39.443Z</time></trkpt><trkpt lat="43.4488783" lon="2.8002333"><ele>760.3333333333333</ele><time>2026-04-04T13:39:40.445Z</time></trkpt><trkpt lat="43.4490617" lon="2.8002467"><ele>759.6666666666666</ele><time>2026-04-04T13:39:41.445Z</time></trkpt><trkpt lat="43.4492483" lon="2.8002433"><ele>759.0</ele><time>2026-04-04T13:39:42.445Z</time></trkpt><trkpt lat="43.44944" lon="2.8002383"><ele>759.3333333333334</ele><time>2026-04-04T13:39:43.446Z</time></trkpt><trkpt lat="43.4496283" lon="2.8002383"><ele>759.6666666666667</ele><time>2026-04-04T13:39:44.446Z</time></trkpt><trkpt lat="43.4498167" lon="2.8002583"><ele>760.0</ele><time>2026-04-04T13:39:45.442Z</time></trkpt><trkpt lat="43.4500033" lon="2.8002867"><ele>760.0</ele><time>2026-04-04T13:39:46.446Z</time></trkpt><trkpt lat="43.4501767" lon="2.8003367"><ele>760.0</ele><time>2026-04-04T13:39:47.444Z</time></trkpt><trkpt lat="43.4503283" lon="2.800395"><ele>760.0</ele><time>2026-04-04T13:39:48.443Z</time></trkpt><trkpt lat="43.4504517" lon="2.8004417"><ele>761.0</ele><time>2026-04-04T13:39:49.443Z</time></trkpt><trkpt lat="43.4505467" lon="2.8004417"><ele>762.0</ele><time>2026-04-04T13:39:50.444Z</time></trkpt><trkpt lat="43.450645" lon="2.8003917"><ele>763.0</ele><time>2026-04-04T13:39:51.443Z</time></trkpt><trkpt lat="43.450745" lon="2.8003067"><ele>764.0</ele><time>2026-04-04T13:39:52.443Z</time></trkpt><trkpt lat="43.4508533" lon="2.8002117"><ele>765.0</ele><time>2026-04-04T13:39:53.443Z</time></trkpt><trkpt lat="43.45098" lon="2.8001067"><ele>761.6666666666666</ele><time>2026-04-04T13:39:54.443Z</time></trkpt><trkpt lat="43.4511133" lon="2.80001"><ele>758.3333333333333</ele><time>2026-04-04T13:39:55.444Z</time></trkpt><trkpt lat="43.451255" lon="2.7999217"><ele>755.0</ele><time>2026-04-04T13:39:56.443Z</time></trkpt><trkpt lat="43.45142" lon="2.7998517"><ele>755.0</ele><time>2026-04-04T13:39:57.442Z</time></trkpt><trkpt lat="43.451575" lon="2.7997983"><ele>755.0</ele><time>2026-04-04T13:39:58.443Z</time></trkpt><trkpt lat="43.4517133" lon="2.799765"><ele>755.0</ele><time>2026-04-04T13:39:59.444Z</time></trkpt><trkpt lat="43.4518467" lon="2.7997417"><ele>755.0</ele><time>2026-04-04T13:40:00.444Z</time></trkpt><trkpt lat="43.4519783" lon="2.79974"><ele>754.5</ele><time>2026-04-04T13:40:01.444Z</time></trkpt><trkpt lat="43.452125" lon="2.7997417"><ele>754.0</ele><time>2026-04-04T13:40:02.443Z</time></trkpt><trkpt lat="43.452265" lon="2.7997567"><ele>753.5</ele><time>2026-04-04T13:40:03.444Z</time></trkpt><trkpt lat="43.45239" lon="2.7998"><ele>753.0</ele><time>2026-04-04T13:40:04.444Z</time></trkpt><trkpt lat="43.4525167" lon="2.79988"><ele>753.0</ele><time>2026-04-04T13:40:05.444Z</time></trkpt><trkpt lat="43.4526383" lon="2.800005"><ele>753.0</ele><time>2026-04-04T13:40:06.445Z</time></trkpt><trkpt lat="43.4527767" lon="2.8001367"><ele>753.0</ele><time>2026-04-04T13:40:07.444Z</time></trkpt><trkpt lat="43.45291" lon="2.8002717"><ele>751.6666666666666</ele><time>2026-04-04T13:40:08.443Z</time></trkpt><trkpt lat="43.45306" lon="2.800395"><ele>750.3333333333333</ele><time>2026-04-04T13:40:09.443Z</time></trkpt><trkpt lat="43.453215" lon="2.8005067"><ele>749.0</ele><time>2026-04-04T13:40:10.444Z</time></trkpt><trkpt lat="43.4533467" lon="2.8006083"><ele>749.0</ele><time>2026-04-04T13:40:11.446Z</time></trkpt><trkpt lat="43.453455" lon="2.800715"><ele>749.0</ele><time>2026-04-04T13:40:12.443Z</time></trkpt><trkpt lat="43.4535567" lon="2.80084"><ele>749.0</ele><time>2026-04-04T13:40:13.443Z</time></trkpt><trkpt lat="43.4536367" lon="2.8009833"><ele>749.0</ele><time>2026-04-04T13:40:14.443Z</time></trkpt><trkpt lat="43.4537" lon="2.8011483"><ele>751.5</ele><time>2026-04-04T13:40:15.442Z</time></trkpt><trkpt lat="43.45373" lon="2.8013283"><ele>754.0</ele><time>2026-04-04T13:40:16.443Z</time></trkpt><trkpt lat="43.4537433" lon="2.8014917"><ele>756.5</ele><time>2026-04-04T13:40:17.444Z</time></trkpt><trkpt lat="43.45373" lon="2.801655"><ele>759.0</ele><time>2026-04-04T13:40:18.444Z</time></trkpt><trkpt lat="43.4536983" lon="2.8018267"><ele>758.0</ele><time>2026-04-04T13:40:19.444Z</time></trkpt><trkpt lat="43.4536433" lon="2.80201"><ele>757.0</ele><time>2026-04-04T13:40:20.443Z</time></trkpt><trkpt lat="43.4535767" lon="2.8021983"><ele>756.0</ele><time>2026-04-04T13:40:21.445Z</time></trkpt><trkpt lat="43.4535067" lon="2.8024033"><ele>756.0</ele><time>2026-04-04T13:40:22.444Z</time></trkpt><trkpt lat="43.4534283" lon="2.802615"><ele>756.0</ele><time>2026-04-04T13:40:23.443Z</time></trkpt><trkpt lat="43.4533633" lon="2.8028217"><ele>756.0</ele><time>2026-04-04T13:40:24.443Z</time></trkpt><trkpt lat="43.45332" lon="2.8030283"><ele>754.0</ele><time>2026-04-04T13:40:25.443Z</time></trkpt><trkpt lat="43.4532983" lon="2.8032517"><ele>752.0</ele><time>2026-04-04T13:40:26.442Z</time></trkpt><trkpt lat="43.4532733" lon="2.8034683"><ele>750.0</ele><time>2026-04-04T13:40:27.443Z</time></trkpt><trkpt lat="43.453275" lon="2.8037"><ele>749.6666666666666</ele><time>2026-04-04T13:40:28.443Z</time></trkpt><trkpt lat="43.4533067" lon="2.8039617"><ele>749.3333333333333</ele><time>2026-04-04T13:40:29.443Z</time></trkpt><trkpt lat="43.4533283" lon="2.80423"><ele>749.0</ele><time>2026-04-04T13:40:30.443Z</time></trkpt><trkpt lat="43.453355" lon="2.8045067"><ele>748.6666666666666</ele><time>2026-04-04T13:40:31.443Z</time></trkpt><trkpt lat="43.45339" lon="2.804775"><ele>748.3333333333334</ele><time>2026-04-04T13:40:32.443Z</time></trkpt><trkpt lat="43.45342" lon="2.8050333"><ele>748.0</ele><time>2026-04-04T13:40:33.444Z</time></trkpt><trkpt lat="43.45343" lon="2.8052883"><ele>748.0</ele><time>2026-04-04T13:40:34.444Z</time></trkpt><trkpt lat="43.4534217" lon="2.8055283"><ele>748.0</ele><time>2026-04-04T13:40:35.444Z</time></trkpt><trkpt lat="43.4533933" lon="2.8057583"><ele>748.0</ele><time>2026-04-04T13:40:36.443Z</time></trkpt><trkpt lat="43.4533467" lon="2.8059883"><ele>744.0</ele><time>2026-04-04T13:40:37.444Z</time></trkpt><trkpt lat="43.45329" lon="2.806205"><ele>740.0</ele><time>2026-04-04T13:40:38.443Z</time></trkpt><trkpt lat="43.4532067" lon="2.8064133"><ele>736.0</ele><time>2026-04-04T13:40:39.443Z</time></trkpt><trkpt lat="43.4531167" lon="2.80661"><ele>736.0</ele><time>2026-04-04T13:40:40.444Z</time></trkpt><trkpt lat="43.4530183" lon="2.8068"><ele>736.0</ele><time>2026-04-04T13:40:41.443Z</time></trkpt><trkpt lat="43.4529333" lon="2.807"><ele>736.0</ele><time>2026-04-04T13:40:42.445Z</time></trkpt><trkpt lat="43.4528667" lon="2.807215"><ele>743.0</ele><time>2026-04-04T13:40:43.445Z</time></trkpt><trkpt lat="43.452805" lon="2.8074533"><ele>750.0</ele><time>2026-04-04T13:40:44.443Z</time></trkpt><trkpt lat="43.4527533" lon="2.8077033"><ele>757.0</ele><time>2026-04-04T13:40:45.444Z</time></trkpt><trkpt lat="43.4527117" lon="2.8079633"><ele>757.0</ele><time>2026-04-04T13:40:46.444Z</time></trkpt><trkpt lat="43.4526667" lon="2.8082383"><ele>757.0</ele><time>2026-04-04T13:40:47.443Z</time></trkpt><trkpt lat="43.4526483" lon="2.8085033"><ele>757.0</ele><time>2026-04-04T13:40:48.443Z</time></trkpt><trkpt lat="43.4526267" lon="2.808755"><ele>757.0</ele><time>2026-04-04T13:40:49.445Z</time></trkpt><trkpt lat="43.4526267" lon="2.8089717"><ele>757.0</ele><time>2026-04-04T13:40:50.443Z</time></trkpt><trkpt lat="43.4526467" lon="2.80918"><ele>757.0</ele><time>2026-04-04T13:40:51.443Z</time></trkpt><trkpt lat="43.4526933" lon="2.8094033"><ele>757.0</ele><time>2026-04-04T13:40:52.443Z</time></trkpt><trkpt lat="43.452755" lon="2.8096333"><ele>757.0</ele><time>2026-04-04T13:40:53.447Z</time></trkpt><trkpt lat="43.4528267" lon="2.8098467"><ele>757.0</ele><time>2026-04-04T13:40:54.444Z</time></trkpt><trkpt lat="43.4529167" lon="2.8100267"><ele>755.6666666666667</ele><time>2026-04-04T13:40:55.443Z</time></trkpt><trkpt lat="43.4530233" lon="2.81018"><ele>754.3333333333334</ele><time>2026-04-04T13:40:56.443Z</time></trkpt><trkpt lat="43.45314" lon="2.8103233"><ele>753.0</ele><time>2026-04-04T13:40:57.443Z</time></trkpt><trkpt lat="43.45326" lon="2.81047"><ele>753.0</ele><time>2026-04-04T13:40:58.448Z</time></trkpt><trkpt lat="43.4533817" lon="2.8106283"><ele>753.0</ele><time>2026-04-04T13:40:59.443Z</time></trkpt><trkpt lat="43.4535083" lon="2.8107933"><ele>753.0</ele><time>2026-04-04T13:41:00.443Z</time></trkpt><trkpt lat="43.4536467" lon="2.8109467"><ele>757.3333333333334</ele><time>2026-04-04T13:41:01.443Z</time></trkpt><trkpt lat="43.453795" lon="2.8110833"><ele>761.6666666666667</ele><time>2026-04-04T13:41:02.443Z</time></trkpt><trkpt lat="43.4539583" lon="2.8112067"><ele>766.0</ele><time>2026-04-04T13:41:03.443Z</time></trkpt><trkpt lat="43.4541283" lon="2.81133"><ele>766.0</ele><time>2026-04-04T13:41:04.444Z</time></trkpt><trkpt lat="43.4542883" lon="2.8114483"><ele>766.0</ele><time>2026-04-04T13:41:05.444Z</time></trkpt><trkpt lat="43.4544283" lon="2.8115617"><ele>766.0</ele><time>2026-04-04T13:41:06.444Z</time></trkpt><trkpt lat="43.45456" lon="2.811675"><ele>766.0</ele><time>2026-04-04T13:41:07.444Z</time></trkpt><trkpt lat="43.4546867" lon="2.811795"><ele>766.0</ele><time>2026-04-04T13:41:08.443Z</time></trkpt><trkpt lat="43.45481" lon="2.811935"><ele>766.0</ele><time>2026-04-04T13:41:09.443Z</time></trkpt><trkpt lat="43.454935" lon="2.812095"><ele>766.0</ele><time>2026-04-04T13:41:10.443Z</time></trkpt><trkpt lat="43.4550667" lon="2.8122717"><ele>766.0</ele><time>2026-04-04T13:41:11.443Z</time></trkpt><trkpt lat="43.4551883" lon="2.8124517"><ele>766.0</ele><time>2026-04-04T13:41:12.443Z</time></trkpt><trkpt lat="43.4552933" lon="2.812635"><ele>771.0</ele><time>2026-04-04T13:41:13.443Z</time></trkpt><trkpt lat="43.4553867" lon="2.8128317"><ele>776.0</ele><time>2026-04-04T13:41:14.444Z</time></trkpt><trkpt lat="43.4554717" lon="2.8130483"><ele>781.0</ele><time>2026-04-04T13:41:15.443Z</time></trkpt><trkpt lat="43.4555567" lon="2.8132783"><ele>772.6666666666666</ele><time>2026-04-04T13:41:16.443Z</time></trkpt><trkpt lat="43.4556267" lon="2.81352"><ele>764.3333333333333</ele><time>2026-04-04T13:41:17.445Z</time></trkpt><trkpt lat="43.45569" lon="2.8137683"><ele>756.0</ele><time>2026-04-04T13:41:18.443Z</time></trkpt><trkpt lat="43.4557467" lon="2.8140217"><ele>756.0</ele><time>2026-04-04T13:41:19.443Z</time></trkpt><trkpt lat="43.4558067" lon="2.8142733"><ele>756.0</ele><time>2026-04-04T13:41:20.443Z</time></trkpt><trkpt lat="43.4558733" lon="2.8145133"><ele>756.0</ele><time>2026-04-04T13:41:21.443Z</time></trkpt><trkpt lat="43.4559433" lon="2.814755"><ele>758.6666666666666</ele><time>2026-04-04T13:41:22.443Z</time></trkpt><trkpt lat="43.4559967" lon="2.8149967"><ele>761.3333333333333</ele><time>2026-04-04T13:41:23.444Z</time></trkpt><trkpt lat="43.4560383" lon="2.8152417"><ele>764.0</ele><time>2026-04-04T13:41:24.444Z</time></trkpt><trkpt lat="43.4560967" lon="2.8154867"><ele>765.6666666666666</ele><time>2026-04-04T13:41:25.445Z</time></trkpt><trkpt lat="43.4561767" lon="2.8157233"><ele>767.3333333333333</ele><time>2026-04-04T13:41:26.443Z</time></trkpt><trkpt lat="43.4562683" lon="2.8159517"><ele>769.0</ele><time>2026-04-04T13:41:27.447Z</time></trkpt><trkpt lat="43.4563667" lon="2.8161733"><ele>766.6666666666666</ele><time>2026-04-04T13:41:28.443Z</time></trkpt><trkpt lat="43.4564633" lon="2.8164"><ele>764.3333333333333</ele><time>2026-04-04T13:41:29.443Z</time></trkpt><trkpt lat="43.456555" lon="2.8166317"><ele>762.0</ele><time>2026-04-04T13:41:30.444Z</time></trkpt><trkpt lat="43.4566417" lon="2.8168667"><ele>762.0</ele><time>2026-04-04T13:41:31.443Z</time></trkpt><trkpt lat="43.45673" lon="2.8170967"><ele>762.0</ele><time>2026-04-04T13:41:32.443Z</time></trkpt><trkpt lat="43.456825" lon="2.8173167"><ele>762.0</ele><time>2026-04-04T13:41:33.443Z</time></trkpt><trkpt lat="43.45693" lon="2.8175417"><ele>763.6666666666666</ele><time>2026-04-04T13:41:34.443Z</time></trkpt><trkpt lat="43.4570233" lon="2.8177683"><ele>765.3333333333333</ele><time>2026-04-04T13:41:35.443Z</time></trkpt><trkpt lat="43.4571067" lon="2.8180067"><ele>767.0</ele><time>2026-04-04T13:41:36.444Z</time></trkpt><trkpt lat="43.457185" lon="2.8182483"><ele>761.0</ele><time>2026-04-04T13:41:37.443Z</time></trkpt><trkpt lat="43.4572633" lon="2.8184917"><ele>755.0</ele><time>2026-04-04T13:41:38.443Z</time></trkpt><trkpt lat="43.4573367" lon="2.81874"><ele>749.0</ele><time>2026-04-04T13:41:39.444Z</time></trkpt><trkpt lat="43.4574" lon="2.819"><ele>749.0</ele><time>2026-04-04T13:41:40.443Z</time></trkpt><trkpt lat="43.4574567" lon="2.81925"><ele>749.0</ele><time>2026-04-04T13:41:41.443Z</time></trkpt><trkpt lat="43.457505" lon="2.8195033"><ele>749.0</ele><time>2026-04-04T13:41:42.443Z</time></trkpt><trkpt lat="43.4575533" lon="2.8197333"><ele>749.5</ele><time>2026-04-04T13:41:43.446Z</time></trkpt><trkpt lat="43.4575933" lon="2.8199417"><ele>750.0</ele><time>2026-04-04T13:41:44.443Z</time></trkpt><trkpt lat="43.4576367" lon="2.8201067"><ele>750.5</ele><time>2026-04-04T13:41:45.446Z</time></trkpt><trkpt lat="43.4576883" lon="2.8202233"><ele>751.0</ele><time>2026-04-04T13:41:46.444Z</time></trkpt><trkpt lat="43.45776" lon="2.8203083"><ele>751.4</ele><time>2026-04-04T13:41:47.446Z</time></trkpt><trkpt lat="43.457845" lon="2.8203733"><ele>751.8</ele><time>2026-04-04T13:41:48.447Z</time></trkpt><trkpt lat="43.4579333" lon="2.8204517"><ele>752.1999999999999</ele><time>2026-04-04T13:41:49.446Z</time></trkpt><trkpt lat="43.4580183" lon="2.8205567"><ele>752.5999999999999</ele><time>2026-04-04T13:41:50.446Z</time></trkpt><trkpt lat="43.458095" lon="2.8206883"><ele>753.0</ele><time>2026-04-04T13:41:51.447Z</time></trkpt><trkpt lat="43.4581667" lon="2.8208433"><ele>752.3333333333334</ele><time>2026-04-04T13:41:52.443Z</time></trkpt><trkpt lat="43.458235" lon="2.8210133"><ele>751.6666666666667</ele><time>2026-04-04T13:41:53.446Z</time></trkpt><trkpt lat="43.4583033" lon="2.8212083"><ele>751.0</ele><time>2026-04-04T13:41:54.443Z</time></trkpt><trkpt lat="43.45837" lon="2.8214083"><ele>751.0</ele><time>2026-04-04T13:41:55.444Z</time></trkpt><trkpt lat="43.4584283" lon="2.8216083"><ele>751.0</ele><time>2026-04-04T13:41:56.443Z</time></trkpt><trkpt lat="43.4584617" lon="2.821805"><ele>751.0</ele><time>2026-04-04T13:41:57.444Z</time></trkpt><trkpt lat="43.458475" lon="2.821985"><ele>751.0</ele><time>2026-04-04T13:41:58.444Z</time></trkpt><trkpt lat="43.4584683" lon="2.8221633"><ele>751.3333333333334</ele><time>2026-04-04T13:41:59.444Z</time></trkpt><trkpt lat="43.4584433" lon="2.8223633"><ele>751.6666666666666</ele><time>2026-04-04T13:42:00.444Z</time></trkpt><trkpt lat="43.458425" lon="2.8225733"><ele>752.0</ele><time>2026-04-04T13:42:01.444Z</time></trkpt><trkpt lat="43.4584033" lon="2.8227917"><ele>752.0</ele><time>2026-04-04T13:42:02.444Z</time></trkpt><trkpt lat="43.4583783" lon="2.8230267"><ele>752.0</ele><time>2026-04-04T13:42:03.443Z</time></trkpt><trkpt lat="43.4583433" lon="2.8232733"><ele>752.0</ele><time>2026-04-04T13:42:04.444Z</time></trkpt><trkpt lat="43.4583" lon="2.82352"><ele>750.6666666666666</ele><time>2026-04-04T13:42:05.444Z</time></trkpt><trkpt lat="43.4582633" lon="2.82376"><ele>749.3333333333334</ele><time>2026-04-04T13:42:06.444Z</time></trkpt><trkpt lat="43.45824" lon="2.8240133"><ele>748.0</ele><time>2026-04-04T13:42:07.445Z</time></trkpt><trkpt lat="43.45822" lon="2.8242617"><ele>745.3333333333334</ele><time>2026-04-04T13:42:08.443Z</time></trkpt><trkpt lat="43.4581933" lon="2.8245067"><ele>742.6666666666666</ele><time>2026-04-04T13:42:09.444Z</time></trkpt><trkpt lat="43.4581633" lon="2.8247417"><ele>740.0</ele><time>2026-04-04T13:42:10.443Z</time></trkpt><trkpt lat="43.4581233" lon="2.8249717"><ele>738.6666666666666</ele><time>2026-04-04T13:42:11.444Z</time></trkpt><trkpt lat="43.45808" lon="2.82519"><ele>737.3333333333334</ele><time>2026-04-04T13:42:12.443Z</time></trkpt><trkpt lat="43.45805" lon="2.8254033"><ele>736.0</ele><time>2026-04-04T13:42:13.445Z</time></trkpt><trkpt lat="43.4580333" lon="2.8256317"><ele>736.0</ele><time>2026-04-04T13:42:14.444Z</time></trkpt><trkpt lat="43.4580017" lon="2.8258733"><ele>736.0</ele><time>2026-04-04T13:42:15.445Z</time></trkpt><trkpt lat="43.457965" lon="2.8261317"><ele>736.0</ele><time>2026-04-04T13:42:16.445Z</time></trkpt><trkpt lat="43.4579433" lon="2.8264033"><ele>740.6666666666667</ele><time>2026-04-04T13:42:17.444Z</time></trkpt><trkpt lat="43.4579283" lon="2.8266733"><ele>745.3333333333334</ele><time>2026-04-04T13:42:18.443Z</time></trkpt><trkpt lat="43.4579283" lon="2.8269233"><ele>750.0</ele><time>2026-04-04T13:42:19.445Z</time></trkpt><trkpt lat="43.4579317" lon="2.8271683"><ele>750.0</ele><time>2026-04-04T13:42:20.444Z</time></trkpt><trkpt lat="43.45792" lon="2.827395"><ele>750.0</ele><time>2026-04-04T13:42:21.443Z</time></trkpt><trkpt lat="43.4579017" lon="2.827625"><ele>750.0</ele><time>2026-04-04T13:42:22.444Z</time></trkpt><trkpt lat="43.45788" lon="2.827845"><ele>748.25</ele><time>2026-04-04T13:42:23.444Z</time></trkpt><trkpt lat="43.4578683" lon="2.8280567"><ele>746.5</ele><time>2026-04-04T13:42:24.444Z</time></trkpt><trkpt lat="43.4578683" lon="2.8282517"><ele>744.75</ele><time>2026-04-04T13:42:25.446Z</time></trkpt><trkpt lat="43.45787" lon="2.8284283"><ele>743.0</ele><time>2026-04-04T13:42:26.445Z</time></trkpt><trkpt lat="43.4578617" lon="2.8286083"><ele>739.6666666666666</ele><time>2026-04-04T13:42:27.445Z</time></trkpt><trkpt lat="43.457845" lon="2.8288"><ele>736.3333333333334</ele><time>2026-04-04T13:42:28.444Z</time></trkpt><trkpt lat="43.4578217" lon="2.8290167"><ele>733.0</ele><time>2026-04-04T13:42:29.444Z</time></trkpt><trkpt lat="43.4577933" lon="2.8292667"><ele>730.0</ele><time>2026-04-04T13:42:30.445Z</time></trkpt><trkpt lat="43.4577633" lon="2.8294983"><ele>727.0</ele><time>2026-04-04T13:42:31.444Z</time></trkpt><trkpt lat="43.4577167" lon="2.8297283"><ele>724.0</ele><time>2026-04-04T13:42:32.443Z</time></trkpt><trkpt lat="43.45766" lon="2.82994"><ele>724.0</ele><time>2026-04-04T13:42:33.443Z</time></trkpt><trkpt lat="43.4575867" lon="2.8301267"><ele>724.0</ele><time>2026-04-04T13:42:34.444Z</time></trkpt><trkpt lat="43.457505" lon="2.8303217"><ele>724.0</ele><time>2026-04-04T13:42:35.443Z</time></trkpt><trkpt lat="43.4574283" lon="2.830535"><ele>722.0</ele><time>2026-04-04T13:42:36.446Z</time></trkpt><trkpt lat="43.45736" lon="2.8307683"><ele>720.0</ele><time>2026-04-04T13:42:37.447Z</time></trkpt><trkpt lat="43.4573067" lon="2.830985"><ele>718.0</ele><time>2026-04-04T13:42:38.446Z</time></trkpt><trkpt lat="43.4572683" lon="2.8311733"><ele>717.75</ele><time>2026-04-04T13:42:39.446Z</time></trkpt><trkpt lat="43.457245" lon="2.8313383"><ele>717.5</ele><time>2026-04-04T13:42:40.444Z</time></trkpt><trkpt lat="43.4572433" lon="2.8314933"><ele>717.25</ele><time>2026-04-04T13:42:41.444Z</time></trkpt><trkpt lat="43.45726" lon="2.8316567"><ele>717.0</ele><time>2026-04-04T13:42:42.443Z</time></trkpt><trkpt lat="43.4572833" lon="2.83183"><ele>715.75</ele><time>2026-04-04T13:42:43.444Z</time></trkpt><trkpt lat="43.4572867" lon="2.832015"><ele>714.5</ele><time>2026-04-04T13:42:44.443Z</time></trkpt><trkpt lat="43.4572667" lon="2.8321967"><ele>713.25</ele><time>2026-04-04T13:42:45.443Z</time></trkpt><trkpt lat="43.4572067" lon="2.8323667"><ele>712.0</ele><time>2026-04-04T13:42:46.444Z</time></trkpt><trkpt lat="43.4571483" lon="2.8325367"><ele>712.3333333333334</ele><time>2026-04-04T13:42:47.445Z</time></trkpt><trkpt lat="43.4571033" lon="2.8327283"><ele>712.6666666666666</ele><time>2026-04-04T13:42:48.444Z</time></trkpt><trkpt lat="43.4570733" lon="2.8329483"><ele>713.0</ele><time>2026-04-04T13:42:49.445Z</time></trkpt><trkpt lat="43.45707" lon="2.83316"><ele>713.0</ele><time>2026-04-04T13:42:50.443Z</time></trkpt><trkpt lat="43.4570867" lon="2.8333567"><ele>713.0</ele><time>2026-04-04T13:42:51.443Z</time></trkpt><trkpt lat="43.4571283" lon="2.8335433"><ele>713.0</ele><time>2026-04-04T13:42:52.444Z</time></trkpt><trkpt lat="43.4571817" lon="2.8337483"><ele>713.0</ele><time>2026-04-04T13:42:53.444Z</time></trkpt><trkpt lat="43.45721" lon="2.83395"><ele>712.25</ele><time>2026-04-04T13:42:54.445Z</time></trkpt><trkpt lat="43.45721" lon="2.8341367"><ele>711.5</ele><time>2026-04-04T13:42:55.447Z</time></trkpt><trkpt lat="43.457195" lon="2.8343033"><ele>710.75</ele><time>2026-04-04T13:42:56.447Z</time></trkpt><trkpt lat="43.4571583" lon="2.8344533"><ele>710.0</ele><time>2026-04-04T13:42:57.443Z</time></trkpt><trkpt lat="43.4571133" lon="2.8345617"><ele>709.6</ele><time>2026-04-04T13:42:58.444Z</time></trkpt><trkpt lat="43.4570517" lon="2.8346483"><ele>709.2</ele><time>2026-04-04T13:42:59.449Z</time></trkpt><trkpt lat="43.456965" lon="2.8347"><ele>708.8</ele><time>2026-04-04T13:43:00.443Z</time></trkpt><trkpt lat="43.456885" lon="2.8347733"><ele>708.4</ele><time>2026-04-04T13:43:01.444Z</time></trkpt><trkpt lat="43.4568183" lon="2.834875"><ele>708.0</ele><time>2026-04-04T13:43:02.443Z</time></trkpt><trkpt lat="43.45678" lon="2.8349917"><ele>708.0</ele><time>2026-04-04T13:43:03.446Z</time></trkpt><trkpt lat="43.456755" lon="2.83512"><ele>708.0</ele><time>2026-04-04T13:43:04.445Z</time></trkpt><trkpt lat="43.4567433" lon="2.8352467"><ele>708.0</ele><time>2026-04-04T13:43:05.444Z</time></trkpt><trkpt lat="43.4567433" lon="2.8353683"><ele>708.0</ele><time>2026-04-04T13:43:06.445Z</time></trkpt><trkpt lat="43.4567533" lon="2.8354933"><ele>708.0</ele><time>2026-04-04T13:43:07.445Z</time></trkpt><trkpt lat="43.45676" lon="2.8356267"><ele>706.75</ele><time>2026-04-04T13:43:08.444Z</time></trkpt><trkpt lat="43.4567667" lon="2.8357717"><ele>705.5</ele><time>2026-04-04T13:43:09.443Z</time></trkpt><trkpt lat="43.4567633" lon="2.8359433"><ele>704.25</ele><time>2026-04-04T13:43:10.446Z</time></trkpt><trkpt lat="43.4567533" lon="2.83613"><ele>703.0</ele><time>2026-04-04T13:43:11.443Z</time></trkpt><trkpt lat="43.4567483" lon="2.8363283"><ele>703.0</ele><time>2026-04-04T13:43:12.444Z</time></trkpt><trkpt lat="43.4567433" lon="2.83654"><ele>703.0</ele><time>2026-04-04T13:43:13.448Z</time></trkpt><trkpt lat="43.4567417" lon="2.8367567"><ele>703.0</ele><time>2026-04-04T13:43:14.444Z</time></trkpt><trkpt lat="43.4567467" lon="2.836985"><ele>702.0</ele><time>2026-04-04T13:43:15.448Z</time></trkpt><trkpt lat="43.4567567" lon="2.8372117"><ele>701.0</ele><time>2026-04-04T13:43:16.448Z</time></trkpt><trkpt lat="43.4567817" lon="2.8374417"><ele>700.0</ele><time>2026-04-04T13:43:17.442Z</time></trkpt><trkpt lat="43.456825" lon="2.8376667"><ele>697.25</ele><time>2026-04-04T13:43:18.444Z</time></trkpt><trkpt lat="43.45688" lon="2.83787"><ele>694.5</ele><time>2026-04-04T13:43:19.444Z</time></trkpt><trkpt lat="43.45694" lon="2.8380583"><ele>691.75</ele><time>2026-04-04T13:43:20.445Z</time></trkpt><trkpt lat="43.4569917" lon="2.83822"><ele>689.0</ele><time>2026-04-04T13:43:21.443Z</time></trkpt><trkpt lat="43.4570217" lon="2.8383767"><ele>689.4000000000001</ele><time>2026-04-04T13:43:22.445Z</time></trkpt><trkpt lat="43.4570333" lon="2.8385267"><ele>689.8</ele><time>2026-04-04T13:43:23.444Z</time></trkpt><trkpt lat="43.4570117" lon="2.8386617"><ele>690.2</ele><time>2026-04-04T13:43:24.445Z</time></trkpt><trkpt lat="43.45698" lon="2.8388117"><ele>690.5999999999999</ele><time>2026-04-04T13:43:25.447Z</time></trkpt><trkpt lat="43.4569383" lon="2.83896"><ele>691.0</ele><time>2026-04-04T13:43:26.446Z</time></trkpt><trkpt lat="43.45681" lon="2.839125"><ele>693.3333333333334</ele><time>2026-04-04T13:43:27.446Z</time></trkpt><trkpt lat="43.45668" lon="2.8393017"><ele>695.6666666666666</ele><time>2026-04-04T13:43:28.446Z</time></trkpt><trkpt lat="43.4565767" lon="2.8394833"><ele>698.0</ele><time>2026-04-04T13:43:29.443Z</time></trkpt><trkpt lat="43.4564617" lon="2.839685"><ele>698.0</ele><time>2026-04-04T13:43:30.443Z</time></trkpt><trkpt lat="43.4563633" lon="2.8399017"><ele>698.0</ele><time>2026-04-04T13:43:31.444Z</time></trkpt><trkpt lat="43.4562783" lon="2.8401233"><ele>698.0</ele><time>2026-04-04T13:43:32.445Z</time></trkpt><trkpt lat="43.4562017" lon="2.84036"><ele>689.3333333333333</ele><time>2026-04-04T13:43:33.444Z</time></trkpt><trkpt lat="43.4561533" lon="2.840585"><ele>680.6666666666666</ele><time>2026-04-04T13:43:34.444Z</time></trkpt><trkpt lat="43.45612" lon="2.8408033"><ele>672.0</ele><time>2026-04-04T13:43:35.444Z</time></trkpt><trkpt lat="43.4560983" lon="2.841025"><ele>672.0</ele><time>2026-04-04T13:43:36.444Z</time></trkpt><trkpt lat="43.4560817" lon="2.8412583"><ele>672.0</ele><time>2026-04-04T13:43:37.445Z</time></trkpt><trkpt lat="43.4560683" lon="2.8414983"><ele>672.0</ele><time>2026-04-04T13:43:38.444Z</time></trkpt><trkpt lat="43.4560583" lon="2.8417317"><ele>670.0</ele><time>2026-04-04T13:43:39.443Z</time></trkpt><trkpt lat="43.4560583" lon="2.8419667"><ele>668.0</ele><time>2026-04-04T13:43:40.444Z</time></trkpt><trkpt lat="43.456075" lon="2.8421967"><ele>666.0</ele><time>2026-04-04T13:43:41.445Z</time></trkpt><trkpt lat="43.456105" lon="2.8424283"><ele>662.6666666666666</ele><time>2026-04-04T13:43:42.444Z</time></trkpt><trkpt lat="43.4561433" lon="2.84266"><ele>659.3333333333333</ele><time>2026-04-04T13:43:43.444Z</time></trkpt><trkpt lat="43.45619" lon="2.8429"><ele>656.0</ele><time>2026-04-04T13:43:44.446Z</time></trkpt><trkpt lat="43.456255" lon="2.8431417"><ele>658.3333333333333</ele><time>2026-04-04T13:43:45.445Z</time></trkpt><trkpt lat="43.4563283" lon="2.8433633"><ele>660.6666666666666</ele><time>2026-04-04T13:43:46.445Z</time></trkpt><trkpt lat="43.456405" lon="2.8435683"><ele>663.0</ele><time>2026-04-04T13:43:47.445Z</time></trkpt><trkpt lat="43.4564867" lon="2.84375"><ele>663.0</ele><time>2026-04-04T13:43:48.443Z</time></trkpt><trkpt lat="43.456585" lon="2.843915"><ele>663.0</ele><time>2026-04-04T13:43:49.444Z</time></trkpt><trkpt lat="43.456695" lon="2.8440533"><ele>663.0</ele><time>2026-04-04T13:43:50.446Z</time></trkpt><trkpt lat="43.456825" lon="2.8441767"><ele>663.0</ele><time>2026-04-04T13:43:51.446Z</time></trkpt><trkpt lat="43.456965" lon="2.844295"><ele>663.0</ele><time>2026-04-04T13:43:52.446Z</time></trkpt><trkpt lat="43.4571117" lon="2.8444033"><ele>663.0</ele><time>2026-04-04T13:43:53.442Z</time></trkpt><trkpt lat="43.457255" lon="2.8445317"><ele>661.6666666666666</ele><time>2026-04-04T13:43:54.447Z</time></trkpt><trkpt lat="43.4574" lon="2.84468"><ele>660.3333333333333</ele><time>2026-04-04T13:43:55.446Z</time></trkpt><trkpt lat="43.4575467" lon="2.8448233"><ele>659.0</ele><time>2026-04-04T13:43:56.445Z</time></trkpt><trkpt lat="43.4577" lon="2.8449417"><ele>659.0</ele><time>2026-04-04T13:43:57.443Z</time></trkpt><trkpt lat="43.4578483" lon="2.8450567"><ele>659.0</ele><time>2026-04-04T13:43:58.443Z</time></trkpt><trkpt lat="43.4579883" lon="2.8451917"><ele>659.0</ele><time>2026-04-04T13:43:59.442Z</time></trkpt><trkpt lat="43.458125" lon="2.84534"><ele>656.6666666666666</ele><time>2026-04-04T13:44:00.443Z</time></trkpt><trkpt lat="43.4582633" lon="2.8454917"><ele>654.3333333333334</ele><time>2026-04-04T13:44:01.444Z</time></trkpt><trkpt lat="43.4584" lon="2.84563"><ele>652.0</ele><time>2026-04-04T13:44:02.444Z</time></trkpt><trkpt lat="43.4585267" lon="2.8457417"><ele>652.0</ele><time>2026-04-04T13:44:03.444Z</time></trkpt><trkpt lat="43.4586333" lon="2.8458267"><ele>652.0</ele><time>2026-04-04T13:44:04.443Z</time></trkpt><trkpt lat="43.4587267" lon="2.8458933"><ele>652.0</ele><time>2026-04-04T13:44:05.442Z</time></trkpt><trkpt lat="43.4588033" lon="2.8459533"><ele>652.0</ele><time>2026-04-04T13:44:06.443Z</time></trkpt><trkpt lat="43.458865" lon="2.846005"><ele>652.0</ele><time>2026-04-04T13:44:07.443Z</time></trkpt><trkpt lat="43.4589333" lon="2.8460883"><ele>651.2</ele><time>2026-04-04T13:44:09.443Z</time></trkpt><trkpt lat="43.4589883" lon="2.8461733"><ele>650.4000000000001</ele><time>2026-04-04T13:44:11.443Z</time></trkpt><trkpt lat="43.459095" lon="2.8462217"><ele>649.5999999999999</ele><time>2026-04-04T13:44:13.443Z</time></trkpt><trkpt lat="43.4591667" lon="2.8462467"><ele>648.8</ele><time>2026-04-04T13:44:14.442Z</time></trkpt><trkpt lat="43.4592567" lon="2.84628"><ele>648.0</ele><time>2026-04-04T13:44:15.444Z</time></trkpt><trkpt lat="43.4593633" lon="2.8463333"><ele>648.0</ele><time>2026-04-04T13:44:16.443Z</time></trkpt><trkpt lat="43.4594717" lon="2.846405"><ele>648.0</ele><time>2026-04-04T13:44:17.443Z</time></trkpt><trkpt lat="43.45957" lon="2.8465017"><ele>648.0</ele><time>2026-04-04T13:44:18.444Z</time></trkpt><trkpt lat="43.45965" lon="2.846615"><ele>648.0</ele><time>2026-04-04T13:44:19.443Z</time></trkpt><trkpt lat="43.45973" lon="2.8467417"><ele>651.0</ele><time>2026-04-04T13:44:20.442Z</time></trkpt><trkpt lat="43.4597983" lon="2.8468883"><ele>654.0</ele><time>2026-04-04T13:44:21.443Z</time></trkpt><trkpt lat="43.459875" lon="2.8470333"><ele>657.0</ele><time>2026-04-04T13:44:22.446Z</time></trkpt><trkpt lat="43.4599583" lon="2.8471617"><ele>660.0</ele><time>2026-04-04T13:44:23.445Z</time></trkpt><trkpt lat="43.4600517" lon="2.847265"><ele>660.0</ele><time>2026-04-04T13:44:24.445Z</time></trkpt><trkpt lat="43.4601367" lon="2.8473483"><ele>660.0</ele><time>2026-04-04T13:44:25.444Z</time></trkpt><trkpt lat="43.4602167" lon="2.847415"><ele>660.0</ele><time>2026-04-04T13:44:26.447Z</time></trkpt><trkpt lat="43.4602817" lon="2.84747"><ele>660.0</ele><time>2026-04-04T13:44:27.442Z</time></trkpt><trkpt lat="43.460325" lon="2.8475667"><ele>660.0</ele><time>2026-04-04T13:44:29.442Z</time></trkpt><trkpt lat="43.4602183" lon="2.8476367"><ele>660.0</ele><time>2026-04-04T13:44:31.445Z</time></trkpt><trkpt lat="43.4601467" lon="2.8476633"><ele>660.0</ele><time>2026-04-04T13:44:32.444Z</time></trkpt><trkpt lat="43.4600417" lon="2.8476483"><ele>660.0</ele><time>2026-04-04T13:44:33.444Z</time></trkpt><trkpt lat="43.4599367" lon="2.8475583"><ele>660.0</ele><time>2026-04-04T13:44:34.445Z</time></trkpt><trkpt lat="43.4597867" lon="2.8473967"><ele>660.0</ele><time>2026-04-04T13:44:35.444Z</time></trkpt><trkpt lat="43.4596233" lon="2.8472417"><ele>660.0</ele><time>2026-04-04T13:44:36.446Z</time></trkpt><trkpt lat="43.4594767" lon="2.84712"><ele>660.0</ele><time>2026-04-04T13:44:37.446Z</time></trkpt><trkpt lat="43.4593133" lon="2.8470017"><ele>657.6666666666666</ele><time>2026-04-04T13:44:38.446Z</time></trkpt><trkpt lat="43.4591417" lon="2.8468983"><ele>655.3333333333333</ele><time>2026-04-04T13:44:39.444Z</time></trkpt><trkpt lat="43.45897" lon="2.8468167"><ele>653.0</ele><time>2026-04-04T13:44:40.446Z</time></trkpt><trkpt lat="43.4587833" lon="2.8467467"><ele>647.3333333333333</ele><time>2026-04-04T13:44:41.442Z</time></trkpt><trkpt lat="43.4585833" lon="2.846685"><ele>641.6666666666666</ele><time>2026-04-04T13:44:42.443Z</time></trkpt><trkpt lat="43.4583833" lon="2.8466317"><ele>636.0</ele><time>2026-04-04T13:44:43.443Z</time></trkpt><trkpt lat="43.4581783" lon="2.8465833"><ele>636.0</ele><time>2026-04-04T13:44:44.442Z</time></trkpt><trkpt lat="43.4579667" lon="2.8465517"><ele>636.0</ele><time>2026-04-04T13:44:45.443Z</time></trkpt><trkpt lat="43.45775" lon="2.846515"><ele>636.0</ele><time>2026-04-04T13:44:46.443Z</time></trkpt><trkpt lat="43.457535" lon="2.8464783"><ele>632.0</ele><time>2026-04-04T13:44:47.444Z</time></trkpt><trkpt lat="43.457325" lon="2.8464283"><ele>628.0</ele><time>2026-04-04T13:44:48.443Z</time></trkpt><trkpt lat="43.4571117" lon="2.846365"><ele>624.0</ele><time>2026-04-04T13:44:49.443Z</time></trkpt><trkpt lat="43.4568967" lon="2.8463067"><ele>620.6666666666666</ele><time>2026-04-04T13:44:50.443Z</time></trkpt><trkpt lat="43.45669" lon="2.8462567"><ele>617.3333333333333</ele><time>2026-04-04T13:44:51.442Z</time></trkpt><trkpt lat="43.4564833" lon="2.8462133"><ele>614.0</ele><time>2026-04-04T13:44:52.443Z</time></trkpt><trkpt lat="43.4562783" lon="2.8461583"><ele>611.6666666666666</ele><time>2026-04-04T13:44:53.444Z</time></trkpt><trkpt lat="43.4560767" lon="2.8460683"><ele>609.3333333333334</ele><time>2026-04-04T13:44:54.444Z</time></trkpt><trkpt lat="43.45588" lon="2.8459717"><ele>607.0</ele><time>2026-04-04T13:44:55.444Z</time></trkpt><trkpt lat="43.4556833" lon="2.8458783"><ele>607.0</ele><time>2026-04-04T13:44:56.443Z</time></trkpt><trkpt lat="43.455485" lon="2.845805"><ele>607.0</ele><time>2026-04-04T13:44:57.442Z</time></trkpt><trkpt lat="43.4552833" lon="2.84574"><ele>607.0</ele><time>2026-04-04T13:44:58.443Z</time></trkpt><trkpt lat="43.455085" lon="2.84568"><ele>603.3333333333334</ele><time>2026-04-04T13:44:59.444Z</time></trkpt><trkpt lat="43.4548867" lon="2.8456133"><ele>599.6666666666666</ele><time>2026-04-04T13:45:00.443Z</time></trkpt><trkpt lat="43.4546833" lon="2.845535"><ele>596.0</ele><time>2026-04-04T13:45:01.443Z</time></trkpt><trkpt lat="43.4544867" lon="2.845455"><ele>591.0</ele><time>2026-04-04T13:45:02.443Z</time></trkpt><trkpt lat="43.4542833" lon="2.8453933"><ele>586.0</ele><time>2026-04-04T13:45:03.442Z</time></trkpt><trkpt lat="43.45408" lon="2.8453533"><ele>581.0</ele><time>2026-04-04T13:45:04.443Z</time></trkpt><trkpt lat="43.453875" lon="2.8453133"><ele>576.0</ele><time>2026-04-04T13:45:05.443Z</time></trkpt><trkpt lat="43.453675" lon="2.84528"><ele>571.0</ele><time>2026-04-04T13:45:06.443Z</time></trkpt><trkpt lat="43.4534817" lon="2.84525"><ele>566.0</ele><time>2026-04-04T13:45:07.445Z</time></trkpt><trkpt lat="43.4532933" lon="2.8452217"><ele>566.0</ele><time>2026-04-04T13:45:08.443Z</time></trkpt><trkpt lat="43.4531017" lon="2.8452083"><ele>566.0</ele><time>2026-04-04T13:45:09.444Z</time></trkpt><trkpt lat="43.4529067" lon="2.8452083"><ele>566.0</ele><time>2026-04-04T13:45:10.443Z</time></trkpt><trkpt lat="43.4527117" lon="2.8452233"><ele>563.3333333333333</ele><time>2026-04-04T13:45:11.445Z</time></trkpt><trkpt lat="43.4525183" lon="2.8452367"><ele>560.6666666666666</ele><time>2026-04-04T13:45:12.444Z</time></trkpt><trkpt lat="43.4523267" lon="2.8452467"><ele>558.0</ele><time>2026-04-04T13:45:13.446Z</time></trkpt><trkpt lat="43.4521367" lon="2.84525"><ele>556.6666666666666</ele><time>2026-04-04T13:45:14.443Z</time></trkpt><trkpt lat="43.4519467" lon="2.8452417"><ele>555.3333333333333</ele><time>2026-04-04T13:45:15.442Z</time></trkpt><trkpt lat="43.45176" lon="2.845205"><ele>554.0</ele><time>2026-04-04T13:45:16.444Z</time></trkpt><trkpt lat="43.4515883" lon="2.84515"><ele>555.3333333333333</ele><time>2026-04-04T13:45:17.444Z</time></trkpt><trkpt lat="43.451415" lon="2.8450817"><ele>556.6666666666666</ele><time>2026-04-04T13:45:18.443Z</time></trkpt><trkpt lat="43.4512433" lon="2.845005"><ele>558.0</ele><time>2026-04-04T13:45:19.443Z</time></trkpt><trkpt lat="43.4510767" lon="2.8449333"><ele>558.0</ele><time>2026-04-04T13:45:20.443Z</time></trkpt><trkpt lat="43.450915" lon="2.84489"><ele>558.0</ele><time>2026-04-04T13:45:21.446Z</time></trkpt><trkpt lat="43.4507633" lon="2.84488"><ele>558.0</ele><time>2026-04-04T13:45:22.447Z</time></trkpt><trkpt lat="43.450625" lon="2.84491"><ele>558.0</ele><time>2026-04-04T13:45:23.446Z</time></trkpt><trkpt lat="43.4505067" lon="2.8449983"><ele>558.0</ele><time>2026-04-04T13:45:24.444Z</time></trkpt><trkpt lat="43.4504033" lon="2.84512"><ele>558.0</ele><time>2026-04-04T13:45:25.446Z</time></trkpt><trkpt lat="43.4502967" lon="2.8452883"><ele>558.0</ele><time>2026-04-04T13:45:26.445Z</time></trkpt><trkpt lat="43.4501967" lon="2.84547"><ele>554.3333333333334</ele><time>2026-04-04T13:45:27.442Z</time></trkpt><trkpt lat="43.4500917" lon="2.8456533"><ele>550.6666666666667</ele><time>2026-04-04T13:45:28.444Z</time></trkpt><trkpt lat="43.4499817" lon="2.8458183"><ele>547.0</ele><time>2026-04-04T13:45:29.443Z</time></trkpt><trkpt lat="43.4498567" lon="2.8459483"><ele>544.6666666666667</ele><time>2026-04-04T13:45:30.443Z</time></trkpt><trkpt lat="43.4497" lon="2.846025"><ele>542.3333333333334</ele><time>2026-04-04T13:45:31.443Z</time></trkpt><trkpt lat="43.4495283" lon="2.8460317"><ele>540.0</ele><time>2026-04-04T13:45:32.443Z</time></trkpt><trkpt lat="43.449345" lon="2.84599"><ele>538.0</ele><time>2026-04-04T13:45:33.443Z</time></trkpt><trkpt lat="43.4491567" lon="2.8459267"><ele>536.0</ele><time>2026-04-04T13:45:34.443Z</time></trkpt><trkpt lat="43.44897" lon="2.8458517"><ele>534.0</ele><time>2026-04-04T13:45:35.443Z</time></trkpt><trkpt lat="43.44879" lon="2.8457667"><ele>530.3333333333334</ele><time>2026-04-04T13:45:36.445Z</time></trkpt><trkpt lat="43.4486167" lon="2.845685"><ele>526.6666666666667</ele><time>2026-04-04T13:45:37.443Z</time></trkpt><trkpt lat="43.448445" lon="2.8456167"><ele>523.0</ele><time>2026-04-04T13:45:38.442Z</time></trkpt><trkpt lat="43.4482767" lon="2.845545"><ele>523.0</ele><time>2026-04-04T13:45:39.442Z</time></trkpt><trkpt lat="43.44811" lon="2.84548"><ele>523.0</ele><time>2026-04-04T13:45:40.444Z</time></trkpt><trkpt lat="43.4479583" lon="2.8454217"><ele>523.0</ele><time>2026-04-04T13:45:41.445Z</time></trkpt><trkpt lat="43.4478383" lon="2.8453767"><ele>523.0</ele><time>2026-04-04T13:45:42.445Z</time></trkpt><trkpt lat="43.4477317" lon="2.8453467"><ele>523.0</ele><time>2026-04-04T13:45:43.445Z</time></trkpt><trkpt lat="43.4476533" lon="2.8453433"><ele>523.0</ele><time>2026-04-04T13:45:44.445Z</time></trkpt><trkpt lat="43.4475867" lon="2.8453633"><ele>523.0</ele><time>2026-04-04T13:45:45.445Z</time></trkpt><trkpt lat="43.4475317" lon="2.8454083"><ele>523.0</ele><time>2026-04-04T13:45:46.444Z</time></trkpt><trkpt lat="43.4474817" lon="2.845475"><ele>523.0</ele><time>2026-04-04T13:45:47.444Z</time></trkpt><trkpt lat="43.4474433" lon="2.8455783"><ele>523.0</ele><time>2026-04-04T13:45:48.444Z</time></trkpt><trkpt lat="43.4473983" lon="2.84569"><ele>523.0</ele><time>2026-04-04T13:45:49.444Z</time></trkpt><trkpt lat="43.4473583" lon="2.8458267"><ele>523.0</ele><time>2026-04-04T13:45:50.445Z</time></trkpt><trkpt lat="43.4473183" lon="2.8460267"><ele>523.0</ele><time>2026-04-04T13:45:51.445Z</time></trkpt><trkpt lat="43.4473" lon="2.8462317"><ele>523.0</ele><time>2026-04-04T13:45:52.444Z</time></trkpt><trkpt lat="43.4473" lon="2.8464483"><ele>523.0</ele><time>2026-04-04T13:45:53.444Z</time></trkpt><trkpt lat="43.4472983" lon="2.8466633"><ele>523.0</ele><time>2026-04-04T13:45:54.446Z</time></trkpt><trkpt lat="43.4472883" lon="2.8468717"><ele>523.0</ele><time>2026-04-04T13:45:55.443Z</time></trkpt><trkpt lat="43.4472717" lon="2.8470617"><ele>523.0</ele><time>2026-04-04T13:45:56.445Z</time></trkpt><trkpt lat="43.44724" lon="2.8472317"><ele>523.0</ele><time>2026-04-04T13:45:57.443Z</time></trkpt><trkpt lat="43.447195" lon="2.8473883"><ele>523.0</ele><time>2026-04-04T13:45:58.444Z</time></trkpt><trkpt lat="43.4471267" lon="2.8475417"><ele>524.5</ele><time>2026-04-04T13:45:59.444Z</time></trkpt><trkpt lat="43.447035" lon="2.8477017"><ele>526.0</ele><time>2026-04-04T13:46:00.446Z</time></trkpt><trkpt lat="43.4469567" lon="2.8478683"><ele>527.5</ele><time>2026-04-04T13:46:01.445Z</time></trkpt><trkpt lat="43.4468833" lon="2.8480567"><ele>529.0</ele><time>2026-04-04T13:46:02.444Z</time></trkpt><trkpt lat="43.4468067" lon="2.8482767"><ele>529.6666666666667</ele><time>2026-04-04T13:46:03.444Z</time></trkpt><trkpt lat="43.4467517" lon="2.848485"><ele>530.3333333333334</ele><time>2026-04-04T13:46:04.446Z</time></trkpt><trkpt lat="43.4466883" lon="2.8487033"><ele>531.0</ele><time>2026-04-04T13:46:05.444Z</time></trkpt><trkpt lat="43.44665" lon="2.8489133"><ele>531.0</ele><time>2026-04-04T13:46:06.445Z</time></trkpt><trkpt lat="43.4466133" lon="2.849135"><ele>531.0</ele><time>2026-04-04T13:46:07.445Z</time></trkpt><trkpt lat="43.44657" lon="2.849355"><ele>531.0</ele><time>2026-04-04T13:46:08.444Z</time></trkpt><trkpt lat="43.4465267" lon="2.84957"><ele>531.3333333333334</ele><time>2026-04-04T13:46:09.445Z</time></trkpt><trkpt lat="43.4464717" lon="2.849785"><ele>531.6666666666667</ele><time>2026-04-04T13:46:10.446Z</time></trkpt><trkpt lat="43.446415" lon="2.8499967"><ele>532.0</ele><time>2026-04-04T13:46:11.447Z</time></trkpt><trkpt lat="43.4463617" lon="2.8502067"><ele>532.75</ele><time>2026-04-04T13:46:12.444Z</time></trkpt><trkpt lat="43.4463017" lon="2.8504083"><ele>533.5</ele><time>2026-04-04T13:46:13.446Z</time></trkpt><trkpt lat="43.446245" lon="2.850605"><ele>534.25</ele><time>2026-04-04T13:46:14.443Z</time></trkpt><trkpt lat="43.4461983" lon="2.8507783"><ele>535.0</ele><time>2026-04-04T13:46:15.443Z</time></trkpt><trkpt lat="43.44615" lon="2.8509183"><ele>535.1666666666667</ele><time>2026-04-04T13:46:16.444Z</time></trkpt><trkpt lat="43.4460917" lon="2.85102"><ele>535.3333333333334</ele><time>2026-04-04T13:46:17.443Z</time></trkpt><trkpt lat="43.4460183" lon="2.8510833"><ele>535.5</ele><time>2026-04-04T13:46:18.443Z</time></trkpt><trkpt lat="43.4459467" lon="2.851145"><ele>535.6666666666666</ele><time>2026-04-04T13:46:19.445Z</time></trkpt><trkpt lat="43.4458883" lon="2.8512167"><ele>535.8333333333333</ele><time>2026-04-04T13:46:20.442Z</time></trkpt><trkpt lat="43.4458467" lon="2.8513117"><ele>536.0</ele><time>2026-04-04T13:46:21.443Z</time></trkpt><trkpt lat="43.4458083" lon="2.8514317"><ele>536.0</ele><time>2026-04-04T13:46:22.446Z</time></trkpt><trkpt lat="43.4457533" lon="2.851585"><ele>536.0</ele><time>2026-04-04T13:46:23.447Z</time></trkpt><trkpt lat="43.4457" lon="2.85173"><ele>536.0</ele><time>2026-04-04T13:46:24.442Z</time></trkpt><trkpt lat="43.4456617" lon="2.8518733"><ele>536.0</ele><time>2026-04-04T13:46:25.445Z</time></trkpt><trkpt lat="43.4456383" lon="2.8520283"><ele>534.75</ele><time>2026-04-04T13:46:26.444Z</time></trkpt><trkpt lat="43.4456333" lon="2.852195"><ele>533.5</ele><time>2026-04-04T13:46:27.444Z</time></trkpt><trkpt lat="43.4456383" lon="2.8523767"><ele>532.25</ele><time>2026-04-04T13:46:28.445Z</time></trkpt><trkpt lat="43.4456683" lon="2.852555"><ele>531.0</ele><time>2026-04-04T13:46:29.445Z</time></trkpt><trkpt lat="43.4457117" lon="2.8527283"><ele>530.25</ele><time>2026-04-04T13:46:30.444Z</time></trkpt><trkpt lat="43.4457633" lon="2.8529067"><ele>529.5</ele><time>2026-04-04T13:46:31.445Z</time></trkpt><trkpt lat="43.4458083" lon="2.853085"><ele>528.75</ele><time>2026-04-04T13:46:32.445Z</time></trkpt><trkpt lat="43.445845" lon="2.85327"><ele>528.0</ele><time>2026-04-04T13:46:33.443Z</time></trkpt><trkpt lat="43.4458717" lon="2.8534617"><ele>526.6666666666666</ele><time>2026-04-04T13:46:34.444Z</time></trkpt><trkpt lat="43.4458933" lon="2.8536533"><ele>525.3333333333333</ele><time>2026-04-04T13:46:35.444Z</time></trkpt><trkpt lat="43.4459083" lon="2.8538633"><ele>524.0</ele><time>2026-04-04T13:46:36.444Z</time></trkpt><trkpt lat="43.445915" lon="2.8540833"><ele>523.3333333333333</ele><time>2026-04-04T13:46:37.445Z</time></trkpt><trkpt lat="43.4459233" lon="2.8543067"><ele>522.6666666666666</ele><time>2026-04-04T13:46:38.444Z</time></trkpt><trkpt lat="43.4459217" lon="2.8545483"><ele>522.0</ele><time>2026-04-04T13:46:39.445Z</time></trkpt><trkpt lat="43.4459083" lon="2.8547867"><ele>522.0</ele><time>2026-04-04T13:46:40.444Z</time></trkpt><trkpt lat="43.4458817" lon="2.8550317"><ele>522.0</ele><time>2026-04-04T13:46:41.444Z</time></trkpt><trkpt lat="43.4458567" lon="2.8552767"><ele>522.0</ele><time>2026-04-04T13:46:42.444Z</time></trkpt><trkpt lat="43.4458283" lon="2.8555217"><ele>521.0</ele><time>2026-04-04T13:46:43.445Z</time></trkpt><trkpt lat="43.445805" lon="2.8557717"><ele>520.0</ele><time>2026-04-04T13:46:44.444Z</time></trkpt><trkpt lat="43.445785" lon="2.85602"><ele>519.0</ele><time>2026-04-04T13:46:45.444Z</time></trkpt><trkpt lat="43.44577" lon="2.8562617"><ele>519.0</ele><time>2026-04-04T13:46:46.444Z</time></trkpt><trkpt lat="43.4457633" lon="2.8565"><ele>519.0</ele><time>2026-04-04T13:46:47.444Z</time></trkpt><trkpt lat="43.4457617" lon="2.8567367"><ele>519.0</ele><time>2026-04-04T13:46:48.446Z</time></trkpt><trkpt lat="43.4457583" lon="2.856975"><ele>519.0</ele><time>2026-04-04T13:46:49.445Z</time></trkpt><trkpt lat="43.445745" lon="2.8572083"><ele>519.0</ele><time>2026-04-04T13:46:50.444Z</time></trkpt><trkpt lat="43.44573" lon="2.8574317"><ele>519.0</ele><time>2026-04-04T13:46:51.445Z</time></trkpt><trkpt lat="43.4456933" lon="2.8576283"><ele>518.6666666666666</ele><time>2026-04-04T13:46:52.445Z</time></trkpt><trkpt lat="43.445635" lon="2.8578283"><ele>518.3333333333333</ele><time>2026-04-04T13:46:53.445Z</time></trkpt><trkpt lat="43.4455617" lon="2.8580267"><ele>518.0</ele><time>2026-04-04T13:46:54.449Z</time></trkpt><trkpt lat="43.4454717" lon="2.858235"><ele>522.3333333333333</ele><time>2026-04-04T13:46:55.445Z</time></trkpt><trkpt lat="43.44539" lon="2.858455"><ele>526.6666666666666</ele><time>2026-04-04T13:46:56.447Z</time></trkpt><trkpt lat="43.4453183" lon="2.8586767"><ele>531.0</ele><time>2026-04-04T13:46:57.442Z</time></trkpt><trkpt lat="43.4452483" lon="2.8588967"><ele>531.0</ele><time>2026-04-04T13:46:58.443Z</time></trkpt><trkpt lat="43.44518" lon="2.8591033"><ele>531.0</ele><time>2026-04-04T13:46:59.443Z</time></trkpt><trkpt lat="43.4451017" lon="2.8593"><ele>531.0</ele><time>2026-04-04T13:47:00.443Z</time></trkpt><trkpt lat="43.445005" lon="2.85948"><ele>529.3333333333334</ele><time>2026-04-04T13:47:01.444Z</time></trkpt><trkpt lat="43.4448983" lon="2.8596483"><ele>527.6666666666667</ele><time>2026-04-04T13:47:02.443Z</time></trkpt><trkpt lat="43.4447817" lon="2.85983"><ele>526.0</ele><time>2026-04-04T13:47:03.443Z</time></trkpt><trkpt lat="43.4446683" lon="2.8600217"><ele>529.6666666666667</ele><time>2026-04-04T13:47:04.443Z</time></trkpt><trkpt lat="43.4445667" lon="2.86022"><ele>533.3333333333334</ele><time>2026-04-04T13:47:05.442Z</time></trkpt><trkpt lat="43.444485" lon="2.8604217"><ele>537.0</ele><time>2026-04-04T13:47:06.443Z</time></trkpt><trkpt lat="43.44443" lon="2.8606233"><ele>537.0</ele><time>2026-04-04T13:47:07.448Z</time></trkpt><trkpt lat="43.4443983" lon="2.8608083"><ele>537.0</ele><time>2026-04-04T13:47:08.444Z</time></trkpt><trkpt lat="43.4443683" lon="2.8609717"><ele>537.0</ele><time>2026-04-04T13:47:09.444Z</time></trkpt><trkpt lat="43.4443183" lon="2.861115"><ele>537.0</ele><time>2026-04-04T13:47:10.444Z</time></trkpt><trkpt lat="43.4442517" lon="2.8612267"><ele>538.0</ele><time>2026-04-04T13:47:11.447Z</time></trkpt><trkpt lat="43.444165" lon="2.8613"><ele>539.0</ele><time>2026-04-04T13:47:12.446Z</time></trkpt><trkpt lat="43.4440633" lon="2.86133"><ele>540.0</ele><time>2026-04-04T13:47:13.444Z</time></trkpt><trkpt lat="43.4439467" lon="2.8613283"><ele>541.0</ele><time>2026-04-04T13:47:14.444Z</time></trkpt><trkpt lat="43.443835" lon="2.8613367"><ele>542.0</ele><time>2026-04-04T13:47:15.446Z</time></trkpt><trkpt lat="43.4437383" lon="2.86138"><ele>542.0</ele><time>2026-04-04T13:47:16.443Z</time></trkpt><trkpt lat="43.4436533" lon="2.8614567"><ele>542.0</ele><time>2026-04-04T13:47:17.444Z</time></trkpt><trkpt lat="43.4435667" lon="2.8615783"><ele>542.0</ele><time>2026-04-04T13:47:18.444Z</time></trkpt><trkpt lat="43.44348" lon="2.8617317"><ele>542.0</ele><time>2026-04-04T13:47:19.444Z</time></trkpt><trkpt lat="43.4433867" lon="2.8618933"><ele>536.6666666666666</ele><time>2026-04-04T13:47:20.443Z</time></trkpt><trkpt lat="43.443275" lon="2.8620433"><ele>531.3333333333334</ele><time>2026-04-04T13:47:21.444Z</time></trkpt><trkpt lat="43.4431483" lon="2.8621867"><ele>526.0</ele><time>2026-04-04T13:47:22.443Z</time></trkpt><trkpt lat="43.4430117" lon="2.8623333"><ele>528.3333333333334</ele><time>2026-04-04T13:47:23.443Z</time></trkpt><trkpt lat="43.4428733" lon="2.8624883"><ele>530.6666666666666</ele><time>2026-04-04T13:47:24.446Z</time></trkpt><trkpt lat="43.4427617" lon="2.8626633"><ele>533.0</ele><time>2026-04-04T13:47:25.446Z</time></trkpt><trkpt lat="43.4426667" lon="2.8628533"><ele>533.0</ele><time>2026-04-04T13:47:26.442Z</time></trkpt><trkpt lat="43.4425933" lon="2.8630533"><ele>533.0</ele><time>2026-04-04T13:47:27.444Z</time></trkpt><trkpt lat="43.4425383" lon="2.8632567"><ele>533.0</ele><time>2026-04-04T13:47:28.443Z</time></trkpt><trkpt lat="43.44249" lon="2.863465"><ele>530.6666666666666</ele><time>2026-04-04T13:47:29.443Z</time></trkpt><trkpt lat="43.4424183" lon="2.8636783"><ele>528.3333333333334</ele><time>2026-04-04T13:47:30.443Z</time></trkpt><trkpt lat="43.4423317" lon="2.8638833"><ele>526.0</ele><time>2026-04-04T13:47:31.443Z</time></trkpt><trkpt lat="43.4422283" lon="2.8640817"><ele>526.25</ele><time>2026-04-04T13:47:32.444Z</time></trkpt><trkpt lat="43.4421233" lon="2.864245"><ele>526.5</ele><time>2026-04-04T13:47:33.443Z</time></trkpt><trkpt lat="43.4420317" lon="2.864385"><ele>526.75</ele><time>2026-04-04T13:47:34.443Z</time></trkpt><trkpt lat="43.4419533" lon="2.8644917"><ele>527.0</ele><time>2026-04-04T13:47:35.444Z</time></trkpt><trkpt lat="43.4418867" lon="2.864575"><ele>527.7142857142858</ele><time>2026-04-04T13:47:36.444Z</time></trkpt><trkpt lat="43.4418267" lon="2.8646517"><ele>528.4285714285714</ele><time>2026-04-04T13:47:37.444Z</time></trkpt><trkpt lat="43.4417717" lon="2.8647183"><ele>529.1428571428571</ele><time>2026-04-04T13:47:38.443Z</time></trkpt><trkpt lat="43.4417233" lon="2.8647817"><ele>529.8571428571429</ele><time>2026-04-04T13:47:39.442Z</time></trkpt><trkpt lat="43.44167" lon="2.864835"><ele>530.5714285714286</ele><time>2026-04-04T13:47:40.443Z</time></trkpt><trkpt lat="43.4416117" lon="2.8648933"><ele>531.2857142857143</ele><time>2026-04-04T13:47:41.443Z</time></trkpt><trkpt lat="43.441545" lon="2.864955"><ele>532.0</ele><time>2026-04-04T13:47:42.444Z</time></trkpt><trkpt lat="43.44147" lon="2.8650283"><ele>531.75</ele><time>2026-04-04T13:47:43.446Z</time></trkpt><trkpt lat="43.441385" lon="2.8651183"><ele>531.5</ele><time>2026-04-04T13:47:44.446Z</time></trkpt><trkpt lat="43.4412933" lon="2.8652167"><ele>531.25</ele><time>2026-04-04T13:47:45.446Z</time></trkpt><trkpt lat="43.441195" lon="2.8653217"><ele>531.0</ele><time>2026-04-04T13:47:46.443Z</time></trkpt><trkpt lat="43.4411067" lon="2.8654267"><ele>531.0</ele><time>2026-04-04T13:47:47.444Z</time></trkpt><trkpt lat="43.441025" lon="2.86553"><ele>531.0</ele><time>2026-04-04T13:47:48.443Z</time></trkpt><trkpt lat="43.4409467" lon="2.8656333"><ele>531.0</ele><time>2026-04-04T13:47:49.446Z</time></trkpt><trkpt lat="43.4408883" lon="2.8657283"><ele>531.0</ele><time>2026-04-04T13:47:50.446Z</time></trkpt><trkpt lat="43.4408433" lon="2.8658333"><ele>531.0</ele><time>2026-04-04T13:47:51.445Z</time></trkpt><trkpt lat="43.4408167" lon="2.86596"><ele>530.5</ele><time>2026-04-04T13:47:52.447Z</time></trkpt><trkpt lat="43.4407917" lon="2.86611"><ele>530.0</ele><time>2026-04-04T13:47:53.443Z</time></trkpt><trkpt lat="43.4407717" lon="2.8662817"><ele>529.5</ele><time>2026-04-04T13:47:54.444Z</time></trkpt><trkpt lat="43.4407367" lon="2.8664517"><ele>529.0</ele><time>2026-04-04T13:47:55.446Z</time></trkpt><trkpt lat="43.4406967" lon="2.8666217"><ele>529.0</ele><time>2026-04-04T13:47:56.447Z</time></trkpt><trkpt lat="43.4406567" lon="2.86677"><ele>529.0</ele><time>2026-04-04T13:47:57.446Z</time></trkpt><trkpt lat="43.44061" lon="2.866905"><ele>529.0</ele><time>2026-04-04T13:47:58.444Z</time></trkpt><trkpt lat="43.4405533" lon="2.86702"><ele>529.0</ele><time>2026-04-04T13:47:59.444Z</time></trkpt><trkpt lat="43.4404833" lon="2.8671283"><ele>529.0</ele><time>2026-04-04T13:48:00.443Z</time></trkpt><trkpt lat="43.4404017" lon="2.86725"><ele>527.2</ele><time>2026-04-04T13:48:01.444Z</time></trkpt><trkpt lat="43.4403333" lon="2.867385"><ele>525.4</ele><time>2026-04-04T13:48:02.443Z</time></trkpt><trkpt lat="43.4402867" lon="2.8675267"><ele>523.6</ele><time>2026-04-04T13:48:03.443Z</time></trkpt><trkpt lat="43.440265" lon="2.8676733"><ele>521.8</ele><time>2026-04-04T13:48:04.445Z</time></trkpt><trkpt lat="43.4402717" lon="2.86782"><ele>520.0</ele><time>2026-04-04T13:48:05.443Z</time></trkpt><trkpt lat="43.4403067" lon="2.8679483"><ele>519.2</ele><time>2026-04-04T13:48:06.444Z</time></trkpt><trkpt lat="43.4403617" lon="2.86807"><ele>518.4</ele><time>2026-04-04T13:48:07.443Z</time></trkpt><trkpt lat="43.44043" lon="2.8681717"><ele>517.6</ele><time>2026-04-04T13:48:08.443Z</time></trkpt><trkpt lat="43.4405083" lon="2.86827"><ele>516.8</ele><time>2026-04-04T13:48:09.443Z</time></trkpt><trkpt lat="43.4405833" lon="2.8683683"><ele>516.0</ele><time>2026-04-04T13:48:10.443Z</time></trkpt><trkpt lat="43.4406417" lon="2.8684783"><ele>516.0</ele><time>2026-04-04T13:48:11.444Z</time></trkpt><trkpt lat="43.4406717" lon="2.8685817"><ele>516.0</ele><time>2026-04-04T13:48:12.443Z</time></trkpt><trkpt lat="43.4406817" lon="2.8686833"><ele>516.0</ele><time>2026-04-04T13:48:13.446Z</time></trkpt><trkpt lat="43.4406717" lon="2.8687717"><ele>516.0</ele><time>2026-04-04T13:48:14.443Z</time></trkpt><trkpt lat="43.4406267" lon="2.8688483"><ele>516.0</ele><time>2026-04-04T13:48:15.444Z</time></trkpt><trkpt lat="43.440565" lon="2.868915"><ele>516.0</ele><time>2026-04-04T13:48:16.443Z</time></trkpt><trkpt lat="43.4404467" lon="2.86896"><ele>511.66666666666663</ele><time>2026-04-04T13:48:17.443Z</time></trkpt><trkpt lat="43.4402233" lon="2.8690183"><ele>507.3333333333333</ele><time>2026-04-04T13:48:18.443Z</time></trkpt><trkpt lat="43.440025" lon="2.8690683"><ele>503.0</ele><time>2026-04-04T13:48:19.444Z</time></trkpt><trkpt lat="43.4398333" lon="2.8691317"><ele>503.0</ele><time>2026-04-04T13:48:20.443Z</time></trkpt><trkpt lat="43.4396683" lon="2.86921"><ele>503.0</ele><time>2026-04-04T13:48:21.443Z</time></trkpt><trkpt lat="43.4395033" lon="2.8692917"><ele>503.0</ele><time>2026-04-04T13:48:22.443Z</time></trkpt><trkpt lat="43.439325" lon="2.8693617"><ele>501.3333333333333</ele><time>2026-04-04T13:48:23.443Z</time></trkpt><trkpt lat="43.4391483" lon="2.8694417"><ele>499.66666666666663</ele><time>2026-04-04T13:48:24.443Z</time></trkpt><trkpt lat="43.438985" lon="2.8695383"><ele>498.0</ele><time>2026-04-04T13:48:25.443Z</time></trkpt><trkpt lat="43.43884" lon="2.86965"><ele>495.0</ele><time>2026-04-04T13:48:26.444Z</time></trkpt><trkpt lat="43.4387283" lon="2.8697733"><ele>492.0</ele><time>2026-04-04T13:48:27.444Z</time></trkpt><trkpt lat="43.4386417" lon="2.8699017"><ele>489.0</ele><time>2026-04-04T13:48:28.443Z</time></trkpt><trkpt lat="43.4385867" lon="2.8700283"><ele>486.0</ele><time>2026-04-04T13:48:29.446Z</time></trkpt><trkpt lat="43.43856" lon="2.87017"><ele>485.0</ele><time>2026-04-04T13:48:30.446Z</time></trkpt><trkpt lat="43.4385483" lon="2.8703317"><ele>484.0</ele><time>2026-04-04T13:48:31.443Z</time></trkpt><trkpt lat="43.4385483" lon="2.870515"><ele>483.0</ele><time>2026-04-04T13:48:32.445Z</time></trkpt><trkpt lat="43.4385567" lon="2.8707133"><ele>482.0</ele><time>2026-04-04T13:48:33.445Z</time></trkpt><trkpt lat="43.4385683" lon="2.8709183"><ele>479.40000000000003</ele><time>2026-04-04T13:48:34.444Z</time></trkpt><trkpt lat="43.4385883" lon="2.871095"><ele>476.80000000000007</ele><time>2026-04-04T13:48:35.444Z</time></trkpt><trkpt lat="43.4386083" lon="2.8712383"><ele>474.2</ele><time>2026-04-04T13:48:36.445Z</time></trkpt><trkpt lat="43.4386483" lon="2.8713633"><ele>471.6</ele><time>2026-04-04T13:48:37.446Z</time></trkpt><trkpt lat="43.4387117" lon="2.8714833"><ele>469.0</ele><time>2026-04-04T13:48:38.443Z</time></trkpt><trkpt lat="43.4387967" lon="2.8716033"><ele>470.0</ele><time>2026-04-04T13:48:39.444Z</time></trkpt><trkpt lat="43.4388933" lon="2.8717317"><ele>471.0</ele><time>2026-04-04T13:48:40.446Z</time></trkpt><trkpt lat="43.438995" lon="2.87189"><ele>472.0</ele><time>2026-04-04T13:48:41.446Z</time></trkpt><trkpt lat="43.4390867" lon="2.872065"><ele>473.0</ele><time>2026-04-04T13:48:42.446Z</time></trkpt><trkpt lat="43.4391567" lon="2.872245"><ele>473.0</ele><time>2026-04-04T13:48:43.446Z</time></trkpt><trkpt lat="43.4391983" lon="2.87242"><ele>473.0</ele><time>2026-04-04T13:48:44.443Z</time></trkpt><trkpt lat="43.43921" lon="2.8725867"><ele>473.0</ele><time>2026-04-04T13:48:45.447Z</time></trkpt><trkpt lat="43.4391883" lon="2.8727333"><ele>473.0</ele><time>2026-04-04T13:48:46.444Z</time></trkpt><trkpt lat="43.4391483" lon="2.8728533"><ele>473.4</ele><time>2026-04-04T13:48:47.443Z</time></trkpt><trkpt lat="43.4390817" lon="2.8729417"><ele>473.79999999999995</ele><time>2026-04-04T13:48:48.446Z</time></trkpt><trkpt lat="43.43899" lon="2.8730067"><ele>474.2</ele><time>2026-04-04T13:48:49.444Z</time></trkpt><trkpt lat="43.4388783" lon="2.8730233"><ele>474.6</ele><time>2026-04-04T13:48:50.444Z</time></trkpt><trkpt lat="43.4387617" lon="2.873005"><ele>475.0</ele><time>2026-04-04T13:48:51.446Z</time></trkpt><trkpt lat="43.43863" lon="2.8729767"><ele>475.0</ele><time>2026-04-04T13:48:52.445Z</time></trkpt><trkpt lat="43.4384883" lon="2.8729617"><ele>475.0</ele><time>2026-04-04T13:48:53.444Z</time></trkpt><trkpt lat="43.4383467" lon="2.8729633"><ele>475.0</ele><time>2026-04-04T13:48:54.443Z</time></trkpt><trkpt lat="43.4382017" lon="2.8729733"><ele>475.0</ele><time>2026-04-04T13:48:55.446Z</time></trkpt><trkpt lat="43.4380517" lon="2.8729783"><ele>478.0</ele><time>2026-04-04T13:48:56.446Z</time></trkpt><trkpt lat="43.4378967" lon="2.872985"><ele>481.0</ele><time>2026-04-04T13:48:57.443Z</time></trkpt><trkpt lat="43.4377433" lon="2.87301"><ele>484.0</ele><time>2026-04-04T13:48:58.446Z</time></trkpt><trkpt lat="43.43759" lon="2.8730533"><ele>484.0</ele><time>2026-04-04T13:48:59.443Z</time></trkpt><trkpt lat="43.4374383" lon="2.8730917"><ele>484.0</ele><time>2026-04-04T13:49:00.443Z</time></trkpt><trkpt lat="43.437285" lon="2.8731133"><ele>484.0</ele><time>2026-04-04T13:49:01.444Z</time></trkpt><trkpt lat="43.43713" lon="2.8731483"><ele>483.33333333333337</ele><time>2026-04-04T13:49:02.443Z</time></trkpt><trkpt lat="43.4369767" lon="2.8732017"><ele>482.66666666666663</ele><time>2026-04-04T13:49:03.443Z</time></trkpt><trkpt lat="43.4368183" lon="2.8732583"><ele>482.0</ele><time>2026-04-04T13:49:04.446Z</time></trkpt><trkpt lat="43.4366717" lon="2.8733083"><ele>482.0</ele><time>2026-04-04T13:49:05.442Z</time></trkpt><trkpt lat="43.436545" lon="2.8733617"><ele>482.0</ele><time>2026-04-04T13:49:06.443Z</time></trkpt><trkpt lat="43.4364417" lon="2.8734417"><ele>482.0</ele><time>2026-04-04T13:49:07.444Z</time></trkpt><trkpt lat="43.4363617" lon="2.8735617"><ele>482.0</ele><time>2026-04-04T13:49:08.443Z</time></trkpt><trkpt lat="43.43629" lon="2.8737183"><ele>480.66666666666663</ele><time>2026-04-04T13:49:09.442Z</time></trkpt><trkpt lat="43.4362183" lon="2.8739017"><ele>479.33333333333337</ele><time>2026-04-04T13:49:10.447Z</time></trkpt><trkpt lat="43.43615" lon="2.874105"><ele>478.0</ele><time>2026-04-04T13:49:11.445Z</time></trkpt><trkpt lat="43.4360883" lon="2.8743167"><ele>477.33333333333337</ele><time>2026-04-04T13:49:12.448Z</time></trkpt><trkpt lat="43.4360217" lon="2.8745333"><ele>476.66666666666663</ele><time>2026-04-04T13:49:13.447Z</time></trkpt><trkpt lat="43.4359567" lon="2.8747567"><ele>476.0</ele><time>2026-04-04T13:49:14.446Z</time></trkpt><trkpt lat="43.4358933" lon="2.875"><ele>476.0</ele><time>2026-04-04T13:49:15.443Z</time></trkpt><trkpt lat="43.435825" lon="2.8752467"><ele>476.0</ele><time>2026-04-04T13:49:16.445Z</time></trkpt><trkpt lat="43.4357367" lon="2.8754817"><ele>476.0</ele><time>2026-04-04T13:49:17.446Z</time></trkpt><trkpt lat="43.4356317" lon="2.8756967"><ele>476.0</ele><time>2026-04-04T13:49:18.443Z</time></trkpt><trkpt lat="43.435525" lon="2.8759"><ele>476.0</ele><time>2026-04-04T13:49:19.446Z</time></trkpt><trkpt lat="43.4354133" lon="2.8760967"><ele>476.0</ele><time>2026-04-04T13:49:20.446Z</time></trkpt><trkpt lat="43.4352883" lon="2.8762933"><ele>474.66666666666663</ele><time>2026-04-04T13:49:21.446Z</time></trkpt><trkpt lat="43.4351617" lon="2.8764867"><ele>473.33333333333337</ele><time>2026-04-04T13:49:22.444Z</time></trkpt><trkpt lat="43.4350317" lon="2.8766767"><ele>472.0</ele><time>2026-04-04T13:49:23.444Z</time></trkpt><trkpt lat="43.4349083" lon="2.8768717"><ele>472.0</ele><time>2026-04-04T13:49:24.443Z</time></trkpt><trkpt lat="43.4347933" lon="2.87707"><ele>472.0</ele><time>2026-04-04T13:49:25.446Z</time></trkpt><trkpt lat="43.434695" lon="2.877265"><ele>472.0</ele><time>2026-04-04T13:49:26.447Z</time></trkpt><trkpt lat="43.4346217" lon="2.87744"><ele>467.0</ele><time>2026-04-04T13:49:27.443Z</time></trkpt><trkpt lat="43.4345733" lon="2.8775967"><ele>462.0</ele><time>2026-04-04T13:49:28.443Z</time></trkpt><trkpt lat="43.434545" lon="2.8777417"><ele>457.0</ele><time>2026-04-04T13:49:29.444Z</time></trkpt><trkpt lat="43.4345267" lon="2.8778933"><ele>452.0</ele><time>2026-04-04T13:49:30.444Z</time></trkpt><trkpt lat="43.4345167" lon="2.8780633"><ele>450.25</ele><time>2026-04-04T13:49:31.444Z</time></trkpt><trkpt lat="43.4345133" lon="2.8782483"><ele>448.5</ele><time>2026-04-04T13:49:32.443Z</time></trkpt><trkpt lat="43.43451" lon="2.87844"><ele>446.75</ele><time>2026-04-04T13:49:33.443Z</time></trkpt><trkpt lat="43.4345033" lon="2.87862"><ele>445.0</ele><time>2026-04-04T13:49:34.443Z</time></trkpt><trkpt lat="43.4345017" lon="2.8788033"><ele>442.25</ele><time>2026-04-04T13:49:35.443Z</time></trkpt><trkpt lat="43.434505" lon="2.8789933"><ele>439.5</ele><time>2026-04-04T13:49:36.444Z</time></trkpt><trkpt lat="43.4345083" lon="2.8791917"><ele>436.75</ele><time>2026-04-04T13:49:37.444Z</time></trkpt><trkpt lat="43.434495" lon="2.8793983"><ele>434.0</ele><time>2026-04-04T13:49:38.446Z</time></trkpt><trkpt lat="43.43447" lon="2.8796133"><ele>431.3333333333333</ele><time>2026-04-04T13:49:39.443Z</time></trkpt><trkpt lat="43.4344383" lon="2.879835"><ele>428.66666666666663</ele><time>2026-04-04T13:49:40.446Z</time></trkpt><trkpt lat="43.4343967" lon="2.8800583"><ele>426.0</ele><time>2026-04-04T13:49:41.445Z</time></trkpt><trkpt lat="43.4343517" lon="2.880275"><ele>426.0</ele><time>2026-04-04T13:49:42.446Z</time></trkpt><trkpt lat="43.4343117" lon="2.880495"><ele>426.0</ele><time>2026-04-04T13:49:43.443Z</time></trkpt><trkpt lat="43.4342767" lon="2.88072"><ele>426.0</ele><time>2026-04-04T13:49:44.443Z</time></trkpt><trkpt lat="43.4342333" lon="2.8809383"><ele>426.33333333333337</ele><time>2026-04-04T13:49:45.447Z</time></trkpt><trkpt lat="43.4341833" lon="2.8811567"><ele>426.6666666666667</ele><time>2026-04-04T13:49:46.446Z</time></trkpt><trkpt lat="43.4341267" lon="2.8813733"><ele>427.0</ele><time>2026-04-04T13:49:47.447Z</time></trkpt><trkpt lat="43.4340583" lon="2.8815667"><ele>427.0</ele><time>2026-04-04T13:49:48.446Z</time></trkpt><trkpt lat="43.43399" lon="2.8817333"><ele>427.00000000000006</ele><time>2026-04-04T13:49:49.444Z</time></trkpt><trkpt lat="43.4339367" lon="2.881875"><ele>427.00000000000006</ele><time>2026-04-04T13:49:50.443Z</time></trkpt><trkpt lat="43.433895" lon="2.882"><ele>427.0</ele><time>2026-04-04T13:49:51.447Z</time></trkpt><trkpt lat="43.4338617" lon="2.88211"><ele>427.0</ele><time>2026-04-04T13:49:52.446Z</time></trkpt><trkpt lat="43.4338367" lon="2.8822233"><ele>426.20000000000005</ele><time>2026-04-04T13:49:53.446Z</time></trkpt><trkpt lat="43.4338267" lon="2.882345"><ele>425.40000000000003</ele><time>2026-04-04T13:49:54.446Z</time></trkpt><trkpt lat="43.43382" lon="2.8824717"><ele>424.6</ele><time>2026-04-04T13:49:55.446Z</time></trkpt><trkpt lat="43.4338067" lon="2.8826033"><ele>423.79999999999995</ele><time>2026-04-04T13:49:56.446Z</time></trkpt><trkpt lat="43.4337833" lon="2.8827317"><ele>423.0</ele><time>2026-04-04T13:49:57.443Z</time></trkpt><trkpt lat="43.433755" lon="2.882845"><ele>420.79999999999995</ele><time>2026-04-04T13:49:58.443Z</time></trkpt><trkpt lat="43.43373" lon="2.88293"><ele>418.6</ele><time>2026-04-04T13:49:59.443Z</time></trkpt><trkpt lat="43.4336983" lon="2.8830583"><ele>416.4</ele><time>2026-04-04T13:50:01.445Z</time></trkpt><trkpt lat="43.4337317" lon="2.883205"><ele>414.20000000000005</ele><time>2026-04-04T13:50:03.447Z</time></trkpt><trkpt lat="43.4337717" lon="2.88331"><ele>412.0</ele><time>2026-04-04T13:50:04.446Z</time></trkpt><trkpt lat="43.433825" lon="2.8834217"><ele>407.5</ele><time>2026-04-04T13:50:05.443Z</time></trkpt><trkpt lat="43.4338883" lon="2.88354"><ele>403.0</ele><time>2026-04-04T13:50:06.444Z</time></trkpt><trkpt lat="43.4339633" lon="2.8836633"><ele>398.5</ele><time>2026-04-04T13:50:07.444Z</time></trkpt><trkpt lat="43.43405" lon="2.8837933"><ele>394.0</ele><time>2026-04-04T13:50:08.443Z</time></trkpt><trkpt lat="43.4341533" lon="2.8839417"><ele>394.0</ele><time>2026-04-04T13:50:09.443Z</time></trkpt><trkpt lat="43.4342717" lon="2.884085"><ele>394.0</ele><time>2026-04-04T13:50:10.446Z</time></trkpt><trkpt lat="43.4343883" lon="2.88421"><ele>394.0</ele><time>2026-04-04T13:50:11.446Z</time></trkpt><trkpt lat="43.4344933" lon="2.88433"><ele>394.0</ele><time>2026-04-04T13:50:12.446Z</time></trkpt><trkpt lat="43.4345817" lon="2.884425"><ele>392.83333333333337</ele><time>2026-04-04T13:50:13.447Z</time></trkpt><trkpt lat="43.4346533" lon="2.8845067"><ele>391.6666666666667</ele><time>2026-04-04T13:50:14.446Z</time></trkpt><trkpt lat="43.434705" lon="2.8845733"><ele>390.5</ele><time>2026-04-04T13:50:15.446Z</time></trkpt><trkpt lat="43.43471" lon="2.8846667"><ele>389.33333333333337</ele><time>2026-04-04T13:50:18.447Z</time></trkpt><trkpt lat="43.4346433" lon="2.8846533"><ele>388.1666666666667</ele><time>2026-04-04T13:50:20.444Z</time></trkpt><trkpt lat="43.43455" lon="2.8846067"><ele>387.0</ele><time>2026-04-04T13:50:21.446Z</time></trkpt><trkpt lat="43.434465" lon="2.8845733"><ele>383.5</ele><time>2026-04-04T13:50:22.446Z</time></trkpt><trkpt lat="43.4343483" lon="2.88454"><ele>380.0</ele><time>2026-04-04T13:50:23.443Z</time></trkpt><trkpt lat="43.4342067" lon="2.884505"><ele>376.5</ele><time>2026-04-04T13:50:24.446Z</time></trkpt><trkpt lat="43.4340617" lon="2.88446"><ele>373.0</ele><time>2026-04-04T13:50:25.444Z</time></trkpt><trkpt lat="43.433915" lon="2.8844117"><ele>369.0</ele><time>2026-04-04T13:50:26.443Z</time></trkpt><trkpt lat="43.43376" lon="2.8843617"><ele>365.0</ele><time>2026-04-04T13:50:27.443Z</time></trkpt><trkpt lat="43.4335933" lon="2.8843183"><ele>361.0</ele><time>2026-04-04T13:50:28.446Z</time></trkpt><trkpt lat="43.4334317" lon="2.8842817"><ele>362.75</ele><time>2026-04-04T13:50:29.443Z</time></trkpt><trkpt lat="43.433275" lon="2.88425"><ele>364.5</ele><time>2026-04-04T13:50:30.444Z</time></trkpt><trkpt lat="43.4331367" lon="2.884215"><ele>366.25</ele><time>2026-04-04T13:50:31.444Z</time></trkpt><trkpt lat="43.4330033" lon="2.8841667"><ele>368.0</ele><time>2026-04-04T13:50:32.445Z</time></trkpt><trkpt lat="43.432865" lon="2.8841083"><ele>368.0</ele><time>2026-04-04T13:50:33.444Z</time></trkpt><trkpt lat="43.4327217" lon="2.8840367"><ele>368.0</ele><time>2026-04-04T13:50:34.444Z</time></trkpt><trkpt lat="43.4325767" lon="2.8839567"><ele>368.0</ele><time>2026-04-04T13:50:35.445Z</time></trkpt><trkpt lat="43.4324267" lon="2.8838733"><ele>368.0</ele><time>2026-04-04T13:50:36.444Z</time></trkpt><trkpt lat="43.4322683" lon="2.8837883"><ele>368.0</ele><time>2026-04-04T13:50:37.445Z</time></trkpt><trkpt lat="43.4320983" lon="2.8836967"><ele>368.0</ele><time>2026-04-04T13:50:38.443Z</time></trkpt><trkpt lat="43.4319233" lon="2.8836067"><ele>367.0</ele><time>2026-04-04T13:50:39.443Z</time></trkpt><trkpt lat="43.4317417" lon="2.8835183"><ele>366.0</ele><time>2026-04-04T13:50:40.443Z</time></trkpt><trkpt lat="43.4315733" lon="2.8834367"><ele>365.0</ele><time>2026-04-04T13:50:41.446Z</time></trkpt><trkpt lat="43.431415" lon="2.883365"><ele>359.25</ele><time>2026-04-04T13:50:42.446Z</time></trkpt><trkpt lat="43.43127" lon="2.883295"><ele>353.5</ele><time>2026-04-04T13:50:43.446Z</time></trkpt><trkpt lat="43.431145" lon="2.8832233"><ele>347.75</ele><time>2026-04-04T13:50:44.443Z</time></trkpt><trkpt lat="43.4310417" lon="2.8831367"><ele>342.0</ele><time>2026-04-04T13:50:45.444Z</time></trkpt><trkpt lat="43.4309617" lon="2.8830483"><ele>342.0</ele><time>2026-04-04T13:50:46.444Z</time></trkpt><trkpt lat="43.4309117" lon="2.88299"><ele>342.0</ele><time>2026-04-04T13:50:47.444Z</time></trkpt><trkpt lat="43.4308433" lon="2.8829683"><ele>342.0</ele><time>2026-04-04T13:50:49.448Z</time></trkpt><trkpt lat="43.43087" lon="2.883095"><ele>342.0</ele><time>2026-04-04T13:50:51.446Z</time></trkpt><trkpt lat="43.43091" lon="2.8832217"><ele>342.0</ele><time>2026-04-04T13:50:52.446Z</time></trkpt><trkpt lat="43.4309583" lon="2.8833833"><ele>337.6666666666667</ele><time>2026-04-04T13:50:53.446Z</time></trkpt><trkpt lat="43.4310167" lon="2.8835967"><ele>333.33333333333337</ele><time>2026-04-04T13:50:54.446Z</time></trkpt><trkpt lat="43.4310717" lon="2.883815"><ele>329.0</ele><time>2026-04-04T13:50:55.444Z</time></trkpt><trkpt lat="43.4311317" lon="2.8840467"><ele>331.33333333333337</ele><time>2026-04-04T13:50:56.444Z</time></trkpt><trkpt lat="43.431195" lon="2.8842633"><ele>333.6666666666667</ele><time>2026-04-04T13:50:57.446Z</time></trkpt><trkpt lat="43.43126" lon="2.8844617"><ele>336.0</ele><time>2026-04-04T13:50:58.446Z</time></trkpt><trkpt lat="43.431315" lon="2.8846433"><ele>336.0</ele><time>2026-04-04T13:50:59.444Z</time></trkpt><trkpt lat="43.4313567" lon="2.884825"><ele>336.0</ele><time>2026-04-04T13:51:00.443Z</time></trkpt><trkpt lat="43.43139" lon="2.885015"><ele>336.0</ele><time>2026-04-04T13:51:01.447Z</time></trkpt><trkpt lat="43.4314233" lon="2.8852083"><ele>336.0</ele><time>2026-04-04T13:51:02.444Z</time></trkpt><trkpt lat="43.4314617" lon="2.88538"><ele>332.0</ele><time>2026-04-04T13:51:03.446Z</time></trkpt><trkpt lat="43.4315117" lon="2.8855233"><ele>328.0</ele><time>2026-04-04T13:51:04.446Z</time></trkpt><trkpt lat="43.4315733" lon="2.8856567"><ele>324.0</ele><time>2026-04-04T13:51:05.445Z</time></trkpt><trkpt lat="43.43165" lon="2.8857817"><ele>320.0</ele><time>2026-04-04T13:51:06.443Z</time></trkpt><trkpt lat="43.43174" lon="2.8858967"><ele>315.0</ele><time>2026-04-04T13:51:07.446Z</time></trkpt><trkpt lat="43.4318417" lon="2.8859983"><ele>310.0</ele><time>2026-04-04T13:51:08.444Z</time></trkpt><trkpt lat="43.4319667" lon="2.886095"><ele>305.0</ele><time>2026-04-04T13:51:09.445Z</time></trkpt><trkpt lat="43.4320883" lon="2.88617"><ele>300.0</ele><time>2026-04-04T13:51:10.447Z</time></trkpt><trkpt lat="43.43219" lon="2.8862183"><ele>300.0</ele><time>2026-04-04T13:51:11.446Z</time></trkpt><trkpt lat="43.4322633" lon="2.8862567"><ele>300.0</ele><time>2026-04-04T13:51:12.446Z</time></trkpt><trkpt lat="43.4323183" lon="2.8863033"><ele>300.0</ele><time>2026-04-04T13:51:13.445Z</time></trkpt><trkpt lat="43.4323083" lon="2.88639"><ele>300.0</ele><time>2026-04-04T13:51:16.444Z</time></trkpt><trkpt lat="43.4321567" lon="2.8864217"><ele>300.0</ele><time>2026-04-04T13:51:18.444Z</time></trkpt><trkpt lat="43.43204" lon="2.8864417"><ele>299.6666666666667</ele><time>2026-04-04T13:51:19.445Z</time></trkpt><trkpt lat="43.4318967" lon="2.8864733"><ele>299.33333333333337</ele><time>2026-04-04T13:51:20.444Z</time></trkpt><trkpt lat="43.4317233" lon="2.8865433"><ele>299.0</ele><time>2026-04-04T13:51:21.444Z</time></trkpt><trkpt lat="43.431565" lon="2.8866133"><ele>299.0</ele><time>2026-04-04T13:51:22.444Z</time></trkpt><trkpt lat="43.4313967" lon="2.8866983"><ele>299.0</ele><time>2026-04-04T13:51:23.444Z</time></trkpt><trkpt lat="43.4312383" lon="2.8867883"><ele>299.0</ele><time>2026-04-04T13:51:24.444Z</time></trkpt><trkpt lat="43.4310467" lon="2.8868733"><ele>291.33333333333337</ele><time>2026-04-04T13:51:25.444Z</time></trkpt><trkpt lat="43.4308733" lon="2.88697"><ele>283.6666666666667</ele><time>2026-04-04T13:51:26.444Z</time></trkpt><trkpt lat="43.4307067" lon="2.8870767"><ele>276.0</ele><time>2026-04-04T13:51:27.444Z</time></trkpt><trkpt lat="43.4305517" lon="2.8871917"><ele>273.3333333333333</ele><time>2026-04-04T13:51:28.444Z</time></trkpt><trkpt lat="43.4304133" lon="2.887325"><ele>270.66666666666663</ele><time>2026-04-04T13:51:29.444Z</time></trkpt><trkpt lat="43.4302817" lon="2.8874783"><ele>268.0</ele><time>2026-04-04T13:51:30.446Z</time></trkpt><trkpt lat="43.4301533" lon="2.887645"><ele>266.66666666666663</ele><time>2026-04-04T13:51:31.444Z</time></trkpt><trkpt lat="43.430035" lon="2.88782"><ele>265.3333333333333</ele><time>2026-04-04T13:51:32.443Z</time></trkpt><trkpt lat="43.4299183" lon="2.888005"><ele>264.0</ele><time>2026-04-04T13:51:33.448Z</time></trkpt><trkpt lat="43.4297917" lon="2.888185"><ele>264.0</ele><time>2026-04-04T13:51:34.447Z</time></trkpt><trkpt lat="43.4296583" lon="2.8883533"><ele>264.0</ele><time>2026-04-04T13:51:35.443Z</time></trkpt><trkpt lat="43.4295217" lon="2.888505"><ele>264.0</ele><time>2026-04-04T13:51:36.444Z</time></trkpt><trkpt lat="43.4293867" lon="2.88865"><ele>263.6666666666667</ele><time>2026-04-04T13:51:37.445Z</time></trkpt><trkpt lat="43.4292583" lon="2.88879"><ele>263.33333333333337</ele><time>2026-04-04T13:51:38.443Z</time></trkpt><trkpt lat="43.4291317" lon="2.8889383"><ele>263.0</ele><time>2026-04-04T13:51:39.443Z</time></trkpt><trkpt lat="43.4290017" lon="2.8891"><ele>262.0</ele><time>2026-04-04T13:51:40.445Z</time></trkpt><trkpt lat="43.4288617" lon="2.8892633"><ele>261.0</ele><time>2026-04-04T13:51:41.445Z</time></trkpt><trkpt lat="43.4287117" lon="2.889405"><ele>260.0</ele><time>2026-04-04T13:51:42.446Z</time></trkpt><trkpt lat="43.4285567" lon="2.8895317"><ele>259.0</ele><time>2026-04-04T13:51:43.446Z</time></trkpt><trkpt lat="43.428405" lon="2.889645"><ele>258.0</ele><time>2026-04-04T13:51:44.445Z</time></trkpt><trkpt lat="43.4282633" lon="2.88975"><ele>257.0</ele><time>2026-04-04T13:51:45.445Z</time></trkpt><trkpt lat="43.4281317" lon="2.8898417"><ele>257.0</ele><time>2026-04-04T13:51:46.445Z</time></trkpt><trkpt lat="43.4280067" lon="2.8899183"><ele>257.0</ele><time>2026-04-04T13:51:47.443Z</time></trkpt><trkpt lat="43.4278933" lon="2.88999"><ele>257.0</ele><time>2026-04-04T13:51:48.444Z</time></trkpt><trkpt lat="43.4277917" lon="2.8900617"><ele>257.0</ele><time>2026-04-04T13:51:49.444Z</time></trkpt><trkpt lat="43.427695" lon="2.8901517"><ele>253.75</ele><time>2026-04-04T13:51:50.443Z</time></trkpt><trkpt lat="43.42759" lon="2.8902633"><ele>250.5</ele><time>2026-04-04T13:51:51.446Z</time></trkpt><trkpt lat="43.4274833" lon="2.8903933"><ele>247.25</ele><time>2026-04-04T13:51:52.445Z</time></trkpt><trkpt lat="43.4273833" lon="2.8905317"><ele>244.0</ele><time>2026-04-04T13:51:53.443Z</time></trkpt><trkpt lat="43.4272767" lon="2.89067"><ele>244.0</ele><time>2026-04-04T13:51:54.445Z</time></trkpt><trkpt lat="43.42716" lon="2.8908017"><ele>244.0</ele><time>2026-04-04T13:51:55.444Z</time></trkpt><trkpt lat="43.4270383" lon="2.8909167"><ele>244.0</ele><time>2026-04-04T13:51:56.444Z</time></trkpt><trkpt lat="43.42691" lon="2.8910333"><ele>238.66666666666666</ele><time>2026-04-04T13:51:57.444Z</time></trkpt><trkpt lat="43.426775" lon="2.891145"><ele>233.33333333333331</ele><time>2026-04-04T13:51:58.443Z</time></trkpt><trkpt lat="43.42664" lon="2.89125"><ele>228.0</ele><time>2026-04-04T13:51:59.444Z</time></trkpt><trkpt lat="43.42651" lon="2.8913433"><ele>228.0</ele><time>2026-04-04T13:52:00.444Z</time></trkpt><trkpt lat="43.4263833" lon="2.891425"><ele>228.0</ele><time>2026-04-04T13:52:01.444Z</time></trkpt><trkpt lat="43.426245" lon="2.8914917"><ele>228.0</ele><time>2026-04-04T13:52:02.444Z</time></trkpt><trkpt lat="43.4260917" lon="2.891555"><ele>228.0</ele><time>2026-04-04T13:52:03.445Z</time></trkpt><trkpt lat="43.42594" lon="2.891615"><ele>225.5</ele><time>2026-04-04T13:52:04.445Z</time></trkpt><trkpt lat="43.4258" lon="2.8916767"><ele>223.0</ele><time>2026-04-04T13:52:05.444Z</time></trkpt><trkpt lat="43.425685" lon="2.8917383"><ele>220.5</ele><time>2026-04-04T13:52:06.444Z</time></trkpt><trkpt lat="43.42559" lon="2.8917983"><ele>218.0</ele><time>2026-04-04T13:52:07.444Z</time></trkpt><trkpt lat="43.4254933" lon="2.8918483"><ele>216.0</ele><time>2026-04-04T13:52:08.444Z</time></trkpt><trkpt lat="43.4253883" lon="2.8918867"><ele>214.0</ele><time>2026-04-04T13:52:09.444Z</time></trkpt><trkpt lat="43.4252733" lon="2.8919183"><ele>212.0</ele><time>2026-04-04T13:52:10.445Z</time></trkpt><trkpt lat="43.42516" lon="2.8919467"><ele>210.0</ele><time>2026-04-04T13:52:11.445Z</time></trkpt><trkpt lat="43.4250467" lon="2.8919683"><ele>210.0</ele><time>2026-04-04T13:52:12.443Z</time></trkpt><trkpt lat="43.424945" lon="2.8919833"><ele>210.0</ele><time>2026-04-04T13:52:13.445Z</time></trkpt><trkpt lat="43.4248667" lon="2.8919883"><ele>210.0</ele><time>2026-04-04T13:52:14.445Z</time></trkpt><trkpt lat="43.4247633" lon="2.8919883"><ele>210.0</ele><time>2026-04-04T13:52:16.444Z</time></trkpt><trkpt lat="43.4246717" lon="2.89202"><ele>210.0</ele><time>2026-04-04T13:52:18.444Z</time></trkpt><trkpt lat="43.4245817" lon="2.892125"><ele>209.0</ele><time>2026-04-04T13:52:20.444Z</time></trkpt><trkpt lat="43.4245317" lon="2.8921867"><ele>208.0</ele><time>2026-04-04T13:52:21.446Z</time></trkpt><trkpt lat="43.424475" lon="2.892245"><ele>207.0</ele><time>2026-04-04T13:52:22.444Z</time></trkpt><trkpt lat="43.4244133" lon="2.8923017"><ele>206.0</ele><time>2026-04-04T13:52:23.444Z</time></trkpt><trkpt lat="43.42435" lon="2.8923617"><ele>205.0</ele><time>2026-04-04T13:52:24.444Z</time></trkpt><trkpt lat="43.4242833" lon="2.8924133"><ele>204.0</ele><time>2026-04-04T13:52:25.447Z</time></trkpt><trkpt lat="43.4242133" lon="2.8924683"><ele>203.0</ele><time>2026-04-04T13:52:26.444Z</time></trkpt><trkpt lat="43.4241417" lon="2.8925267"><ele>203.00000000000003</ele><time>2026-04-04T13:52:27.444Z</time></trkpt><trkpt lat="43.4240717" lon="2.8925867"><ele>203.0</ele><time>2026-04-04T13:52:28.445Z</time></trkpt><trkpt lat="43.4240033" lon="2.89265"><ele>203.0</ele><time>2026-04-04T13:52:29.445Z</time></trkpt><trkpt lat="43.4239383" lon="2.89272"><ele>203.0</ele><time>2026-04-04T13:52:30.444Z</time></trkpt><trkpt lat="43.42387" lon="2.8927933"><ele>203.00000000000003</ele><time>2026-04-04T13:52:31.446Z</time></trkpt><trkpt lat="43.4238017" lon="2.8928733"><ele>203.0</ele><time>2026-04-04T13:52:32.445Z</time></trkpt><trkpt lat="43.42373" lon="2.8929533"><ele>203.0</ele><time>2026-04-04T13:52:33.442Z</time></trkpt><trkpt lat="43.4236567" lon="2.893035"><ele>203.0</ele><time>2026-04-04T13:52:34.443Z</time></trkpt><trkpt lat="43.423075" lon="2.8936367"><ele>203.2</ele><time>2026-04-04T13:52:41.446Z</time></trkpt><trkpt lat="43.4230183" lon="2.8937467"><ele>203.4</ele><time>2026-04-04T13:52:42.442Z</time></trkpt><trkpt lat="43.4229767" lon="2.89386"><ele>203.6</ele><time>2026-04-04T13:52:43.446Z</time></trkpt><trkpt lat="43.422945" lon="2.8939783"><ele>203.79999999999998</ele><time>2026-04-04T13:52:44.446Z</time></trkpt><trkpt lat="43.4229183" lon="2.894095"><ele>204.0</ele><time>2026-04-04T13:52:45.442Z</time></trkpt><trkpt lat="43.4228883" lon="2.8942183"><ele>203.0</ele><time>2026-04-04T13:52:46.445Z</time></trkpt><trkpt lat="43.4228567" lon="2.89436"><ele>202.0</ele><time>2026-04-04T13:52:47.442Z</time></trkpt><trkpt lat="43.4228217" lon="2.89452"><ele>201.0</ele><time>2026-04-04T13:52:48.443Z</time></trkpt><trkpt lat="43.422785" lon="2.894695"><ele>200.0</ele><time>2026-04-04T13:52:49.444Z</time></trkpt><trkpt lat="43.4227533" lon="2.894875"><ele>200.0</ele><time>2026-04-04T13:52:50.444Z</time></trkpt><trkpt lat="43.4227283" lon="2.8950567"><ele>200.0</ele><time>2026-04-04T13:52:51.444Z</time></trkpt><trkpt lat="43.4227083" lon="2.8952383"><ele>200.0</ele><time>2026-04-04T13:52:52.445Z</time></trkpt><trkpt lat="43.4226967" lon="2.8954183"><ele>200.0</ele><time>2026-04-04T13:52:53.445Z</time></trkpt><trkpt lat="43.422695" lon="2.895595"><ele>198.0</ele><time>2026-04-04T13:52:54.444Z</time></trkpt><trkpt lat="43.42271" lon="2.89577"><ele>196.0</ele><time>2026-04-04T13:52:55.445Z</time></trkpt><trkpt lat="43.4227233" lon="2.8959433"><ele>194.0</ele><time>2026-04-04T13:52:56.444Z</time></trkpt><trkpt lat="43.4227267" lon="2.8963"><ele>192.0</ele><time>2026-04-04T13:52:58.445Z</time></trkpt><trkpt lat="43.4227217" lon="2.8965"><ele>190.0</ele><time>2026-04-04T13:52:59.442Z</time></trkpt><trkpt lat="43.4227183" lon="2.8967183"><ele>188.0</ele><time>2026-04-04T13:53:00.446Z</time></trkpt><trkpt lat="43.4227317" lon="2.8969567"><ele>186.33333333333331</ele><time>2026-04-04T13:53:01.443Z</time></trkpt><trkpt lat="43.4227617" lon="2.8972067"><ele>184.66666666666666</ele><time>2026-04-04T13:53:02.443Z</time></trkpt><trkpt lat="43.42281" lon="2.8974667"><ele>183.0</ele><time>2026-04-04T13:53:03.444Z</time></trkpt><trkpt lat="43.4228917" lon="2.89773"><ele>181.0</ele><time>2026-04-04T13:53:04.445Z</time></trkpt><trkpt lat="43.4230033" lon="2.8979833"><ele>179.0</ele><time>2026-04-04T13:53:05.442Z</time></trkpt><trkpt lat="43.423125" lon="2.898235"><ele>177.0</ele><time>2026-04-04T13:53:06.443Z</time></trkpt><trkpt lat="43.4232567" lon="2.898485"><ele>176.66666666666666</ele><time>2026-04-04T13:53:07.443Z</time></trkpt><trkpt lat="43.4233833" lon="2.8987283"><ele>176.33333333333331</ele><time>2026-04-04T13:53:08.442Z</time></trkpt><trkpt lat="43.4235" lon="2.8989567"><ele>176.0</ele><time>2026-04-04T13:53:09.443Z</time></trkpt><trkpt lat="43.4236017" lon="2.8991767"><ele>176.0</ele><time>2026-04-04T13:53:10.447Z</time></trkpt><trkpt lat="43.42368" lon="2.899405"><ele>176.0</ele><time>2026-04-04T13:53:11.445Z</time></trkpt><trkpt lat="43.42373" lon="2.89965"><ele>176.0</ele><time>2026-04-04T13:53:12.445Z</time></trkpt><trkpt lat="43.4237483" lon="2.89992"><ele>175.33333333333331</ele><time>2026-04-04T13:53:13.445Z</time></trkpt><trkpt lat="43.4237483" lon="2.9001967"><ele>174.66666666666666</ele><time>2026-04-04T13:53:14.442Z</time></trkpt><trkpt lat="43.4237367" lon="2.90048"><ele>174.0</ele><time>2026-04-04T13:53:15.446Z</time></trkpt><trkpt lat="43.4237117" lon="2.9007617"><ele>172.66666666666666</ele><time>2026-04-04T13:53:16.443Z</time></trkpt><trkpt lat="43.42368" lon="2.9010483"><ele>171.33333333333331</ele><time>2026-04-04T13:53:17.443Z</time></trkpt><trkpt lat="43.423655" lon="2.90134"><ele>170.0</ele><time>2026-04-04T13:53:18.443Z</time></trkpt><trkpt lat="43.4236467" lon="2.9016383"><ele>168.5</ele><time>2026-04-04T13:53:19.443Z</time></trkpt><trkpt lat="43.4236533" lon="2.9019467"><ele>167.0</ele><time>2026-04-04T13:53:20.443Z</time></trkpt><trkpt lat="43.423675" lon="2.9022567"><ele>167.0</ele><time>2026-04-04T13:53:21.443Z</time></trkpt><trkpt lat="43.4237083" lon="2.9025617"><ele>167.0</ele><time>2026-04-04T13:53:22.443Z</time></trkpt><trkpt lat="43.4237433" lon="2.9028683"><ele>167.0</ele><time>2026-04-04T13:53:23.446Z</time></trkpt><trkpt lat="43.4237783" lon="2.9031717"><ele>167.0</ele><time>2026-04-04T13:53:24.445Z</time></trkpt><trkpt lat="43.4238117" lon="2.903475"><ele>167.0</ele><time>2026-04-04T13:53:25.446Z</time></trkpt><trkpt lat="43.423845" lon="2.9037817"><ele>167.0</ele><time>2026-04-04T13:53:26.445Z</time></trkpt><trkpt lat="43.42388" lon="2.9040867"><ele>166.0</ele><time>2026-04-04T13:53:27.446Z</time></trkpt><trkpt lat="43.4239167" lon="2.9043883"><ele>165.0</ele><time>2026-04-04T13:53:28.448Z</time></trkpt><trkpt lat="43.4239467" lon="2.9046917"><ele>164.0</ele><time>2026-04-04T13:53:29.445Z</time></trkpt><trkpt lat="43.4239583" lon="2.904995"><ele>163.66666666666666</ele><time>2026-04-04T13:53:30.446Z</time></trkpt><trkpt lat="43.4239667" lon="2.9052967"><ele>163.33333333333334</ele><time>2026-04-04T13:53:31.447Z</time></trkpt><trkpt lat="43.4239667" lon="2.9056"><ele>163.0</ele><time>2026-04-04T13:53:32.445Z</time></trkpt><trkpt lat="43.42396" lon="2.9059067"><ele>163.0</ele><time>2026-04-04T13:53:33.447Z</time></trkpt><trkpt lat="43.4239483" lon="2.9062117"><ele>163.0</ele><time>2026-04-04T13:53:34.445Z</time></trkpt><trkpt lat="43.423925" lon="2.9065117"><ele>163.0</ele><time>2026-04-04T13:53:35.445Z</time></trkpt><trkpt lat="43.4238967" lon="2.906805"><ele>162.0</ele><time>2026-04-04T13:53:36.446Z</time></trkpt><trkpt lat="43.4238717" lon="2.9070867"><ele>161.0</ele><time>2026-04-04T13:53:37.448Z</time></trkpt><trkpt lat="43.423865" lon="2.9073667"><ele>160.0</ele><time>2026-04-04T13:53:38.442Z</time></trkpt><trkpt lat="43.4238817" lon="2.907655"><ele>159.33333333333334</ele><time>2026-04-04T13:53:39.444Z</time></trkpt><trkpt lat="43.4239117" lon="2.90795"><ele>158.66666666666666</ele><time>2026-04-04T13:53:40.446Z</time></trkpt><trkpt lat="43.4239433" lon="2.9082383"><ele>158.0</ele><time>2026-04-04T13:53:41.446Z</time></trkpt><trkpt lat="43.42397" lon="2.9085133"><ele>158.0</ele><time>2026-04-04T13:53:42.445Z</time></trkpt><trkpt lat="43.4239933" lon="2.9087733"><ele>158.0</ele><time>2026-04-04T13:53:43.446Z</time></trkpt><trkpt lat="43.4240133" lon="2.909025"><ele>158.0</ele><time>2026-04-04T13:53:44.445Z</time></trkpt><trkpt lat="43.4240367" lon="2.909265"><ele>158.0</ele><time>2026-04-04T13:53:45.445Z</time></trkpt><trkpt lat="43.4240583" lon="2.90949"><ele>158.0</ele><time>2026-04-04T13:53:46.443Z</time></trkpt><trkpt lat="43.42408" lon="2.9096967"><ele>158.0</ele><time>2026-04-04T13:53:47.446Z</time></trkpt><trkpt lat="43.4240967" lon="2.909875"><ele>158.0</ele><time>2026-04-04T13:53:48.444Z</time></trkpt><trkpt lat="43.4241033" lon="2.9100083"><ele>158.0</ele><time>2026-04-04T13:53:49.443Z</time></trkpt><trkpt lat="43.4241117" lon="2.9101033"><ele>158.0</ele><time>2026-04-04T13:53:50.442Z</time></trkpt><trkpt lat="43.4241017" lon="2.9099517"><ele>158.0</ele><time>2026-04-04T13:53:55.443Z</time></trkpt><trkpt lat="43.4240883" lon="2.9098167"><ele>158.0</ele><time>2026-04-04T13:53:56.444Z</time></trkpt><trkpt lat="43.4240833" lon="2.9096783"><ele>158.0</ele><time>2026-04-04T13:53:57.443Z</time></trkpt><trkpt lat="43.424075" lon="2.9095067"><ele>158.0</ele><time>2026-04-04T13:53:58.444Z</time></trkpt><trkpt lat="43.424055" lon="2.909275"><ele>158.0</ele><time>2026-04-04T13:53:59.442Z</time></trkpt><trkpt lat="43.4240317" lon="2.9090433"><ele>158.0</ele><time>2026-04-04T13:54:00.443Z</time></trkpt><trkpt lat="43.4240067" lon="2.908815"><ele>158.0</ele><time>2026-04-04T13:54:01.443Z</time></trkpt><trkpt lat="43.4239833" lon="2.9085867"><ele>158.0</ele><time>2026-04-04T13:54:02.443Z</time></trkpt><trkpt lat="43.423965" lon="2.9083783"><ele>158.0</ele><time>2026-04-04T13:54:03.442Z</time></trkpt><trkpt lat="43.4239433" lon="2.9081883"><ele>158.0</ele><time>2026-04-04T13:54:04.443Z</time></trkpt><trkpt lat="43.4239183" lon="2.9080117"><ele>158.0</ele><time>2026-04-04T13:54:05.443Z</time></trkpt><trkpt lat="43.4239017" lon="2.9078583"><ele>158.0</ele><time>2026-04-04T13:54:06.443Z</time></trkpt><trkpt lat="43.42388" lon="2.9077367"><ele>158.0</ele><time>2026-04-04T13:54:07.443Z</time></trkpt><trkpt lat="43.4238583" lon="2.9076467"><ele>158.0</ele><time>2026-04-04T13:54:08.442Z</time></trkpt><trkpt lat="43.42377" lon="2.9075817"><ele>158.20000000000002</ele><time>2026-04-04T13:54:10.446Z</time></trkpt><trkpt lat="43.4237067" lon="2.9075767"><ele>158.4</ele><time>2026-04-04T13:54:11.445Z</time></trkpt><trkpt lat="43.4236333" lon="2.9075833"><ele>158.60000000000002</ele><time>2026-04-04T13:54:12.445Z</time></trkpt><trkpt lat="43.423545" lon="2.9075917"><ele>158.8</ele><time>2026-04-04T13:54:13.446Z</time></trkpt><trkpt lat="43.4234417" lon="2.9075967"><ele>159.0</ele><time>2026-04-04T13:54:14.445Z</time></trkpt><trkpt lat="43.42332" lon="2.9075967"><ele>159.0</ele><time>2026-04-04T13:54:15.446Z</time></trkpt><trkpt lat="43.4232083" lon="2.9075717"><ele>159.0</ele><time>2026-04-04T13:54:16.442Z</time></trkpt><trkpt lat="43.4231067" lon="2.9075067"><ele>159.0</ele><time>2026-04-04T13:54:17.442Z</time></trkpt><trkpt lat="43.4230217" lon="2.90741"><ele>159.0</ele><time>2026-04-04T13:54:18.446Z</time></trkpt><trkpt lat="43.4229383" lon="2.9072983"><ele>159.0</ele><time>2026-04-04T13:54:19.446Z</time></trkpt><trkpt lat="43.42285" lon="2.9072"><ele>159.0</ele><time>2026-04-04T13:54:20.446Z</time></trkpt><trkpt lat="43.4227583" lon="2.9071267"><ele>159.0</ele><time>2026-04-04T13:54:21.446Z</time></trkpt><trkpt lat="43.4226583" lon="2.9070867"><ele>159.0</ele><time>2026-04-04T13:54:22.446Z</time></trkpt><trkpt lat="43.4225467" lon="2.90706"><ele>159.0</ele><time>2026-04-04T13:54:23.445Z</time></trkpt><trkpt lat="43.4224433" lon="2.90702"><ele>159.0</ele><time>2026-04-04T13:54:24.446Z</time></trkpt><trkpt lat="43.42236" lon="2.9069567"><ele>159.0</ele><time>2026-04-04T13:54:25.447Z</time></trkpt><trkpt lat="43.422295" lon="2.9068533"><ele>159.0</ele><time>2026-04-04T13:54:26.442Z</time></trkpt><trkpt lat="43.4222383" lon="2.9067467"><ele>159.0</ele><time>2026-04-04T13:54:27.443Z</time></trkpt><trkpt lat="43.4221833" lon="2.9066633"><ele>159.0</ele><time>2026-04-04T13:54:28.445Z</time></trkpt><trkpt lat="43.4221217" lon="2.9066067"><ele>159.0</ele><time>2026-04-04T13:54:29.444Z</time></trkpt><trkpt lat="43.422055" lon="2.9065767"><ele>160.83333333333334</ele><time>2026-04-04T13:54:30.444Z</time></trkpt><trkpt lat="43.4219833" lon="2.9065717"><ele>162.66666666666666</ele><time>2026-04-04T13:54:31.444Z</time></trkpt><trkpt lat="43.4218983" lon="2.90658"><ele>164.5</ele><time>2026-04-04T13:54:32.444Z</time></trkpt><trkpt lat="43.4218017" lon="2.906585"><ele>166.33333333333331</ele><time>2026-04-04T13:54:33.443Z</time></trkpt><trkpt lat="43.4217067" lon="2.9065983"><ele>168.16666666666666</ele><time>2026-04-04T13:54:34.444Z</time></trkpt><trkpt lat="43.4216083" lon="2.9065967"><ele>170.0</ele><time>2026-04-04T13:54:35.445Z</time></trkpt><trkpt lat="43.4215067" lon="2.906575"><ele>170.0</ele><time>2026-04-04T13:54:36.444Z</time></trkpt><trkpt lat="43.4214067" lon="2.9065367"><ele>170.0</ele><time>2026-04-04T13:54:37.444Z</time></trkpt><trkpt lat="43.4213067" lon="2.9064883"><ele>170.0</ele><time>2026-04-04T13:54:38.444Z</time></trkpt><trkpt lat="43.4212217" lon="2.90643"><ele>170.0</ele><time>2026-04-04T13:54:39.444Z</time></trkpt><trkpt lat="43.421135" lon="2.9063583"><ele>170.0</ele><time>2026-04-04T13:54:40.444Z</time></trkpt><trkpt lat="43.42106" lon="2.9062533"><ele>171.0</ele><time>2026-04-04T13:54:41.444Z</time></trkpt><trkpt lat="43.4209983" lon="2.9061433"><ele>172.0</ele><time>2026-04-04T13:54:42.444Z</time></trkpt><trkpt lat="43.4209333" lon="2.9060183"><ele>173.0</ele><time>2026-04-04T13:54:43.444Z</time></trkpt><trkpt lat="43.4208667" lon="2.9058717"><ele>174.0</ele><time>2026-04-04T13:54:44.444Z</time></trkpt><trkpt lat="43.4207883" lon="2.9057267"><ele>174.25</ele><time>2026-04-04T13:54:45.446Z</time></trkpt><trkpt lat="43.4206967" lon="2.9055833"><ele>174.5</ele><time>2026-04-04T13:54:46.445Z</time></trkpt><trkpt lat="43.4206" lon="2.90545"><ele>174.75</ele><time>2026-04-04T13:54:47.446Z</time></trkpt><trkpt lat="43.4205117" lon="2.905315"><ele>175.0</ele><time>2026-04-04T13:54:48.446Z</time></trkpt><trkpt lat="43.4204217" lon="2.90518"><ele>175.5</ele><time>2026-04-04T13:54:49.446Z</time></trkpt><trkpt lat="43.4203167" lon="2.90505"><ele>176.0</ele><time>2026-04-04T13:54:50.448Z</time></trkpt><trkpt lat="43.420195" lon="2.904945"><ele>176.5</ele><time>2026-04-04T13:54:51.445Z</time></trkpt><trkpt lat="43.42006" lon="2.9048517"><ele>177.0</ele><time>2026-04-04T13:54:52.447Z</time></trkpt><trkpt lat="43.4199217" lon="2.9047533"><ele>177.0</ele><time>2026-04-04T13:54:53.447Z</time></trkpt><trkpt lat="43.4197933" lon="2.9046467"><ele>177.0</ele><time>2026-04-04T13:54:54.444Z</time></trkpt><trkpt lat="43.419675" lon="2.90453"><ele>177.0</ele><time>2026-04-04T13:54:55.443Z</time></trkpt><trkpt lat="43.4195717" lon="2.9044217"><ele>177.0</ele><time>2026-04-04T13:54:56.443Z</time></trkpt><trkpt lat="43.4194833" lon="2.904355"><ele>176.8</ele><time>2026-04-04T13:54:57.443Z</time></trkpt><trkpt lat="43.4193917" lon="2.9043367"><ele>176.6</ele><time>2026-04-04T13:54:58.444Z</time></trkpt><trkpt lat="43.4192967" lon="2.90434"><ele>176.4</ele><time>2026-04-04T13:54:59.444Z</time></trkpt><trkpt lat="43.419195" lon="2.9043583"><ele>176.20000000000002</ele><time>2026-04-04T13:55:00.443Z</time></trkpt><trkpt lat="43.4190967" lon="2.9043883"><ele>176.0</ele><time>2026-04-04T13:55:01.444Z</time></trkpt><trkpt lat="43.4190017" lon="2.90443"><ele>176.0</ele><time>2026-04-04T13:55:02.443Z</time></trkpt><trkpt lat="43.41893" lon="2.9045"><ele>176.0</ele><time>2026-04-04T13:55:03.443Z</time></trkpt><trkpt lat="43.418875" lon="2.90461"><ele>176.0</ele><time>2026-04-04T13:55:04.446Z</time></trkpt><trkpt lat="43.41883" lon="2.9047467"><ele>176.0</ele><time>2026-04-04T13:55:05.445Z</time></trkpt><trkpt lat="43.418785" lon="2.9048783"><ele>176.0</ele><time>2026-04-04T13:55:06.443Z</time></trkpt><trkpt lat="43.41874" lon="2.904975"><ele>175.4</ele><time>2026-04-04T13:55:07.446Z</time></trkpt><trkpt lat="43.4186867" lon="2.9050317"><ele>174.8</ele><time>2026-04-04T13:55:08.447Z</time></trkpt><trkpt lat="43.4185567" lon="2.9049817"><ele>174.20000000000002</ele><time>2026-04-04T13:55:10.443Z</time></trkpt><trkpt lat="43.4184717" lon="2.9048983"><ele>173.60000000000002</ele><time>2026-04-04T13:55:11.443Z</time></trkpt><trkpt lat="43.4183783" lon="2.9048067"><ele>173.0</ele><time>2026-04-04T13:55:12.444Z</time></trkpt><trkpt lat="43.418275" lon="2.9046933"><ele>173.0</ele><time>2026-04-04T13:55:13.443Z</time></trkpt><trkpt lat="43.41818" lon="2.904595"><ele>173.0</ele><time>2026-04-04T13:55:14.446Z</time></trkpt><trkpt lat="43.41809" lon="2.9045133"><ele>173.0</ele><time>2026-04-04T13:55:15.444Z</time></trkpt><trkpt lat="43.4180167" lon="2.9044317"><ele>173.0</ele><time>2026-04-04T13:55:16.443Z</time></trkpt><trkpt lat="43.4179417" lon="2.90436"><ele>173.0</ele><time>2026-04-04T13:55:17.445Z</time></trkpt><trkpt lat="43.4178683" lon="2.904305"><ele>171.2</ele><time>2026-04-04T13:55:18.446Z</time></trkpt><trkpt lat="43.417785" lon="2.9042717"><ele>169.4</ele><time>2026-04-04T13:55:19.446Z</time></trkpt><trkpt lat="43.41769" lon="2.9042767"><ele>167.6</ele><time>2026-04-04T13:55:20.446Z</time></trkpt><trkpt lat="43.4175733" lon="2.90427"><ele>165.79999999999998</ele><time>2026-04-04T13:55:21.446Z</time></trkpt><trkpt lat="43.417445" lon="2.9042467"><ele>164.0</ele><time>2026-04-04T13:55:22.446Z</time></trkpt><trkpt lat="43.41732" lon="2.9042183"><ele>164.0</ele><time>2026-04-04T13:55:23.442Z</time></trkpt><trkpt lat="43.4172033" lon="2.904205"><ele>164.0</ele><time>2026-04-04T13:55:24.446Z</time></trkpt><trkpt lat="43.4171067" lon="2.9042083"><ele>164.0</ele><time>2026-04-04T13:55:25.444Z</time></trkpt><trkpt lat="43.4170167" lon="2.9042417"><ele>164.0</ele><time>2026-04-04T13:55:26.446Z</time></trkpt><trkpt lat="43.4169333" lon="2.90431"><ele>164.0</ele><time>2026-04-04T13:55:27.442Z</time></trkpt><trkpt lat="43.416845" lon="2.9044"><ele>163.0</ele><time>2026-04-04T13:55:28.446Z</time></trkpt><trkpt lat="43.4167517" lon="2.9044867"><ele>162.0</ele><time>2026-04-04T13:55:29.445Z</time></trkpt><trkpt lat="43.4166517" lon="2.9045783"><ele>161.0</ele><time>2026-04-04T13:55:30.446Z</time></trkpt><trkpt lat="43.41655" lon="2.904685"><ele>160.0</ele><time>2026-04-04T13:55:31.443Z</time></trkpt><trkpt lat="43.4164517" lon="2.9048017"><ele>160.0</ele><time>2026-04-04T13:55:32.446Z</time></trkpt><trkpt lat="43.4163717" lon="2.9049283"><ele>160.0</ele><time>2026-04-04T13:55:33.443Z</time></trkpt><trkpt lat="43.41631" lon="2.90508"><ele>160.0</ele><time>2026-04-04T13:55:34.447Z</time></trkpt><trkpt lat="43.4162633" lon="2.905255"><ele>160.0</ele><time>2026-04-04T13:55:35.447Z</time></trkpt><trkpt lat="43.4162383" lon="2.9054517"><ele>161.75</ele><time>2026-04-04T13:55:36.447Z</time></trkpt><trkpt lat="43.416225" lon="2.905645"><ele>163.5</ele><time>2026-04-04T13:55:37.446Z</time></trkpt><trkpt lat="43.416215" lon="2.905835"><ele>165.25</ele><time>2026-04-04T13:55:38.443Z</time></trkpt><trkpt lat="43.4162167" lon="2.9060217"><ele>167.0</ele><time>2026-04-04T13:55:39.446Z</time></trkpt><trkpt lat="43.4162183" lon="2.9062017"><ele>167.0</ele><time>2026-04-04T13:55:40.447Z</time></trkpt><trkpt lat="43.4162267" lon="2.906385"><ele>167.0</ele><time>2026-04-04T13:55:41.447Z</time></trkpt><trkpt lat="43.4162133" lon="2.9065583"><ele>167.0</ele><time>2026-04-04T13:55:42.443Z</time></trkpt><trkpt lat="43.4162017" lon="2.9067383"><ele>167.0</ele><time>2026-04-04T13:55:43.445Z</time></trkpt><trkpt lat="43.4161783" lon="2.9069133"><ele>167.0</ele><time>2026-04-04T13:55:44.444Z</time></trkpt><trkpt lat="43.4161583" lon="2.9070933"><ele>167.0</ele><time>2026-04-04T13:55:45.444Z</time></trkpt><trkpt lat="43.416135" lon="2.90727"><ele>167.0</ele><time>2026-04-04T13:55:46.445Z</time></trkpt><trkpt lat="43.416115" lon="2.9074533"><ele>167.0</ele><time>2026-04-04T13:55:47.444Z</time></trkpt><trkpt lat="43.416095" lon="2.9076433"><ele>166.5</ele><time>2026-04-04T13:55:48.445Z</time></trkpt><trkpt lat="43.4160783" lon="2.9078317"><ele>166.0</ele><time>2026-04-04T13:55:49.446Z</time></trkpt><trkpt lat="43.41607" lon="2.9080183"><ele>165.5</ele><time>2026-04-04T13:55:50.446Z</time></trkpt><trkpt lat="43.4160667" lon="2.9081983"><ele>165.0</ele><time>2026-04-04T13:55:51.446Z</time></trkpt><trkpt lat="43.41608" lon="2.9083683"><ele>164.25</ele><time>2026-04-04T13:55:52.446Z</time></trkpt><trkpt lat="43.416105" lon="2.9085283"><ele>163.5</ele><time>2026-04-04T13:55:53.444Z</time></trkpt><trkpt lat="43.4161433" lon="2.9086883"><ele>162.75</ele><time>2026-04-04T13:55:54.443Z</time></trkpt><trkpt lat="43.416195" lon="2.9088433"><ele>162.0</ele><time>2026-04-04T13:55:55.446Z</time></trkpt><trkpt lat="43.4162567" lon="2.909"><ele>160.75</ele><time>2026-04-04T13:55:56.444Z</time></trkpt><trkpt lat="43.4163283" lon="2.9091633"><ele>159.5</ele><time>2026-04-04T13:55:57.447Z</time></trkpt><trkpt lat="43.4164133" lon="2.9093233"><ele>158.25</ele><time>2026-04-04T13:55:58.446Z</time></trkpt><trkpt lat="43.4165083" lon="2.9094667"><ele>157.0</ele><time>2026-04-04T13:55:59.444Z</time></trkpt><trkpt lat="43.4166183" lon="2.9095933"><ele>157.0</ele><time>2026-04-04T13:56:00.446Z</time></trkpt><trkpt lat="43.4167317" lon="2.9097133"><ele>157.0</ele><time>2026-04-04T13:56:01.446Z</time></trkpt><trkpt lat="43.4168383" lon="2.9098317"><ele>157.0</ele><time>2026-04-04T13:56:02.444Z</time></trkpt><trkpt lat="43.4169417" lon="2.9099433"><ele>157.0</ele><time>2026-04-04T13:56:03.445Z</time></trkpt><trkpt lat="43.4170383" lon="2.9100433"><ele>157.4</ele><time>2026-04-04T13:56:04.444Z</time></trkpt><trkpt lat="43.4171267" lon="2.9101267"><ele>157.79999999999998</ele><time>2026-04-04T13:56:05.446Z</time></trkpt><trkpt lat="43.4172017" lon="2.9101967"><ele>158.2</ele><time>2026-04-04T13:56:06.447Z</time></trkpt><trkpt lat="43.417255" lon="2.9102517"><ele>158.6</ele><time>2026-04-04T13:56:07.446Z</time></trkpt><trkpt lat="43.4173117" lon="2.9103633"><ele>159.0</ele><time>2026-04-04T13:56:09.446Z</time></trkpt><trkpt lat="43.417365" lon="2.91052"><ele>157.6</ele><time>2026-04-04T13:56:11.446Z</time></trkpt><trkpt lat="43.4174033" lon="2.91062"><ele>156.2</ele><time>2026-04-04T13:56:12.445Z</time></trkpt><trkpt lat="43.4174417" lon="2.910735"><ele>154.79999999999998</ele><time>2026-04-04T13:56:13.446Z</time></trkpt><trkpt lat="43.4174833" lon="2.910865"><ele>153.4</ele><time>2026-04-04T13:56:14.447Z</time></trkpt><trkpt lat="43.4175283" lon="2.9110033"><ele>152.0</ele><time>2026-04-04T13:56:15.443Z</time></trkpt><trkpt lat="43.4175717" lon="2.9111367"><ele>152.0</ele><time>2026-04-04T13:56:16.444Z</time></trkpt><trkpt lat="43.417615" lon="2.911265"><ele>152.0</ele><time>2026-04-04T13:56:17.446Z</time></trkpt><trkpt lat="43.417655" lon="2.9113917"><ele>152.0</ele><time>2026-04-04T13:56:18.447Z</time></trkpt><trkpt lat="43.4176933" lon="2.9115333"><ele>152.0</ele><time>2026-04-04T13:56:19.446Z</time></trkpt><trkpt lat="43.4177433" lon="2.9116983"><ele>152.0</ele><time>2026-04-04T13:56:20.447Z</time></trkpt><trkpt lat="43.4177967" lon="2.9118817"><ele>153.66666666666666</ele><time>2026-04-04T13:56:21.446Z</time></trkpt><trkpt lat="43.417855" lon="2.9120717"><ele>155.33333333333334</ele><time>2026-04-04T13:56:22.446Z</time></trkpt><trkpt lat="43.4179183" lon="2.91227"><ele>157.0</ele><time>2026-04-04T13:56:23.443Z</time></trkpt><trkpt lat="43.4179817" lon="2.9124733"><ele>155.66666666666669</ele><time>2026-04-04T13:56:24.446Z</time></trkpt><trkpt lat="43.4180483" lon="2.9126883"><ele>154.33333333333334</ele><time>2026-04-04T13:56:25.447Z</time></trkpt><trkpt lat="43.4181117" lon="2.9129017"><ele>153.0</ele><time>2026-04-04T13:56:26.446Z</time></trkpt><trkpt lat="43.4181767" lon="2.9131117"><ele>153.0</ele><time>2026-04-04T13:56:27.443Z</time></trkpt><trkpt lat="43.4182433" lon="2.9133183"><ele>153.0</ele><time>2026-04-04T13:56:28.446Z</time></trkpt><trkpt lat="43.418305" lon="2.91352"><ele>153.0</ele><time>2026-04-04T13:56:29.446Z</time></trkpt><trkpt lat="43.4183633" lon="2.9137083"><ele>154.33333333333334</ele><time>2026-04-04T13:56:30.446Z</time></trkpt><trkpt lat="43.4184167" lon="2.9139"><ele>155.66666666666669</ele><time>2026-04-04T13:56:31.446Z</time></trkpt><trkpt lat="43.41848" lon="2.9141017"><ele>157.0</ele><time>2026-04-04T13:56:32.446Z</time></trkpt><trkpt lat="43.4185483" lon="2.9143083"><ele>160.33333333333334</ele><time>2026-04-04T13:56:33.446Z</time></trkpt><trkpt lat="43.4186167" lon="2.9145233"><ele>163.66666666666666</ele><time>2026-04-04T13:56:34.444Z</time></trkpt><trkpt lat="43.418685" lon="2.914745"><ele>167.0</ele><time>2026-04-04T13:56:35.446Z</time></trkpt><trkpt lat="43.4187467" lon="2.9149633"><ele>168.0</ele><time>2026-04-04T13:56:36.444Z</time></trkpt><trkpt lat="43.4187983" lon="2.9151683"><ele>169.0</ele><time>2026-04-04T13:56:37.445Z</time></trkpt><trkpt lat="43.4188517" lon="2.9153517"><ele>170.0</ele><time>2026-04-04T13:56:38.445Z</time></trkpt><trkpt lat="43.4189117" lon="2.91552"><ele>171.0</ele><time>2026-04-04T13:56:39.445Z</time></trkpt><trkpt lat="43.41898" lon="2.9156817"><ele>167.25</ele><time>2026-04-04T13:56:40.447Z</time></trkpt><trkpt lat="43.4190517" lon="2.9158383"><ele>163.5</ele><time>2026-04-04T13:56:41.446Z</time></trkpt><trkpt lat="43.4191167" lon="2.9159933"><ele>159.75</ele><time>2026-04-04T13:56:42.444Z</time></trkpt><trkpt lat="43.4191617" lon="2.9161517"><ele>156.0</ele><time>2026-04-04T13:56:43.444Z</time></trkpt><trkpt lat="43.4191883" lon="2.9163167"><ele>156.0</ele><time>2026-04-04T13:56:44.443Z</time></trkpt><trkpt lat="43.4192217" lon="2.9164917"><ele>156.0</ele><time>2026-04-04T13:56:45.447Z</time></trkpt><trkpt lat="43.4192583" lon="2.91667"><ele>156.0</ele><time>2026-04-04T13:56:46.446Z</time></trkpt><trkpt lat="43.4193" lon="2.9168567"><ele>156.0</ele><time>2026-04-04T13:56:47.446Z</time></trkpt><trkpt lat="43.4193367" lon="2.917055"><ele>157.5</ele><time>2026-04-04T13:56:48.444Z</time></trkpt><trkpt lat="43.4193633" lon="2.9172467"><ele>159.0</ele><time>2026-04-04T13:56:49.446Z</time></trkpt><trkpt lat="43.419385" lon="2.9174367"><ele>160.5</ele><time>2026-04-04T13:56:50.446Z</time></trkpt><trkpt lat="43.4194017" lon="2.9176183"><ele>162.0</ele><time>2026-04-04T13:56:51.443Z</time></trkpt><trkpt lat="43.4194083" lon="2.9178033"><ele>162.75</ele><time>2026-04-04T13:56:52.445Z</time></trkpt><trkpt lat="43.4194183" lon="2.9179967"><ele>163.5</ele><time>2026-04-04T13:56:53.448Z</time></trkpt><trkpt lat="43.4194367" lon="2.91819"><ele>164.25</ele><time>2026-04-04T13:56:54.444Z</time></trkpt><trkpt lat="43.41945" lon="2.9183733"><ele>165.0</ele><time>2026-04-04T13:56:55.445Z</time></trkpt><trkpt lat="43.4194433" lon="2.9185583"><ele>163.25</ele><time>2026-04-04T13:56:56.443Z</time></trkpt><trkpt lat="43.4194183" lon="2.9187483"><ele>161.5</ele><time>2026-04-04T13:56:57.443Z</time></trkpt><trkpt lat="43.4193717" lon="2.91894"><ele>159.75</ele><time>2026-04-04T13:56:58.446Z</time></trkpt><trkpt lat="43.419325" lon="2.9191383"><ele>158.0</ele><time>2026-04-04T13:56:59.447Z</time></trkpt><trkpt lat="43.4192783" lon="2.9193433"><ele>156.5</ele><time>2026-04-04T13:57:00.446Z</time></trkpt><trkpt lat="43.4192267" lon="2.9195417"><ele>155.0</ele><time>2026-04-04T13:57:01.444Z</time></trkpt><trkpt lat="43.41916" lon="2.919725"><ele>153.5</ele><time>2026-04-04T13:57:02.444Z</time></trkpt><trkpt lat="43.41908" lon="2.9198917"><ele>152.0</ele><time>2026-04-04T13:57:03.443Z</time></trkpt><trkpt lat="43.4189933" lon="2.920045"><ele>152.0</ele><time>2026-04-04T13:57:04.443Z</time></trkpt><trkpt lat="43.4188917" lon="2.92018"><ele>152.0</ele><time>2026-04-04T13:57:05.443Z</time></trkpt><trkpt lat="43.41878" lon="2.9203117"><ele>152.0</ele><time>2026-04-04T13:57:06.445Z</time></trkpt><trkpt lat="43.4186717" lon="2.9204433"><ele>152.0</ele><time>2026-04-04T13:57:07.443Z</time></trkpt><trkpt lat="43.41857" lon="2.92057"><ele>152.0</ele><time>2026-04-04T13:57:08.443Z</time></trkpt><trkpt lat="43.4184867" lon="2.9206967"><ele>152.0</ele><time>2026-04-04T13:57:09.447Z</time></trkpt><trkpt lat="43.4184217" lon="2.9208217"><ele>152.0</ele><time>2026-04-04T13:57:10.447Z</time></trkpt><trkpt lat="43.41836" lon="2.9209483"><ele>152.0</ele><time>2026-04-04T13:57:11.447Z</time></trkpt><trkpt lat="43.418295" lon="2.9210917"><ele>150.25</ele><time>2026-04-04T13:57:12.446Z</time></trkpt><trkpt lat="43.4182333" lon="2.9212583"><ele>148.5</ele><time>2026-04-04T13:57:13.447Z</time></trkpt><trkpt lat="43.41818" lon="2.9214367"><ele>146.75</ele><time>2026-04-04T13:57:14.446Z</time></trkpt><trkpt lat="43.41812" lon="2.9216233"><ele>145.0</ele><time>2026-04-04T13:57:15.444Z</time></trkpt><trkpt lat="43.4180483" lon="2.921815"><ele>146.0</ele><time>2026-04-04T13:57:16.448Z</time></trkpt><trkpt lat="43.4179717" lon="2.9220117"><ele>147.0</ele><time>2026-04-04T13:57:17.447Z</time></trkpt><trkpt lat="43.41791" lon="2.9222083"><ele>148.0</ele><time>2026-04-04T13:57:18.446Z</time></trkpt><trkpt lat="43.4178567" lon="2.9224017"><ele>148.0</ele><time>2026-04-04T13:57:19.446Z</time></trkpt><trkpt lat="43.417815" lon="2.922585"><ele>148.0</ele><time>2026-04-04T13:57:20.447Z</time></trkpt><trkpt lat="43.4177667" lon="2.9227467"><ele>148.0</ele><time>2026-04-04T13:57:21.444Z</time></trkpt><trkpt lat="43.417705" lon="2.922885"><ele>148.0</ele><time>2026-04-04T13:57:22.447Z</time></trkpt><trkpt lat="43.41763" lon="2.9230033"><ele>148.0</ele><time>2026-04-04T13:57:23.443Z</time></trkpt><trkpt lat="43.4175517" lon="2.923115"><ele>148.0</ele><time>2026-04-04T13:57:24.443Z</time></trkpt><trkpt lat="43.417485" lon="2.92323"><ele>148.0</ele><time>2026-04-04T13:57:25.444Z</time></trkpt><trkpt lat="43.4174417" lon="2.9233683"><ele>148.0</ele><time>2026-04-04T13:57:26.445Z</time></trkpt><trkpt lat="43.417415" lon="2.92352"><ele>148.0</ele><time>2026-04-04T13:57:27.446Z</time></trkpt><trkpt lat="43.4173933" lon="2.92367"><ele>147.0</ele><time>2026-04-04T13:57:28.444Z</time></trkpt><trkpt lat="43.4173567" lon="2.923825"><ele>146.0</ele><time>2026-04-04T13:57:29.447Z</time></trkpt><trkpt lat="43.4173067" lon="2.9239833"><ele>145.0</ele><time>2026-04-04T13:57:30.448Z</time></trkpt><trkpt lat="43.4172683" lon="2.9241567"><ele>144.0</ele><time>2026-04-04T13:57:31.446Z</time></trkpt><trkpt lat="43.4172433" lon="2.92434"><ele>144.0</ele><time>2026-04-04T13:57:32.445Z</time></trkpt><trkpt lat="43.4172267" lon="2.9245367"><ele>144.0</ele><time>2026-04-04T13:57:33.445Z</time></trkpt><trkpt lat="43.417205" lon="2.92474"><ele>144.0</ele><time>2026-04-04T13:57:34.445Z</time></trkpt><trkpt lat="43.41717" lon="2.92495"><ele>146.75</ele><time>2026-04-04T13:57:35.447Z</time></trkpt><trkpt lat="43.4171317" lon="2.925155"><ele>149.5</ele><time>2026-04-04T13:57:36.447Z</time></trkpt><trkpt lat="43.4170933" lon="2.9253417"><ele>152.25</ele><time>2026-04-04T13:57:37.447Z</time></trkpt><trkpt lat="43.4170567" lon="2.9255"><ele>155.0</ele><time>2026-04-04T13:57:38.448Z</time></trkpt><trkpt lat="43.4170133" lon="2.92564"><ele>155.0</ele><time>2026-04-04T13:57:39.443Z</time></trkpt><trkpt lat="43.4169817" lon="2.925775"><ele>155.0</ele><time>2026-04-04T13:57:40.446Z</time></trkpt><trkpt lat="43.416975" lon="2.925895"><ele>155.0</ele><time>2026-04-04T13:57:41.447Z</time></trkpt><trkpt lat="43.416985" lon="2.926015"><ele>155.0</ele><time>2026-04-04T13:57:42.446Z</time></trkpt><trkpt lat="43.4170133" lon="2.9261317"><ele>155.0</ele><time>2026-04-04T13:57:43.445Z</time></trkpt><trkpt lat="43.4170783" lon="2.92625"><ele>151.0</ele><time>2026-04-04T13:57:44.446Z</time></trkpt><trkpt lat="43.417155" lon="2.9263733"><ele>147.0</ele><time>2026-04-04T13:57:45.446Z</time></trkpt><trkpt lat="43.4172417" lon="2.9265"><ele>143.0</ele><time>2026-04-04T13:57:46.443Z</time></trkpt><trkpt lat="43.4173267" lon="2.9266267"><ele>139.0</ele><time>2026-04-04T13:57:47.444Z</time></trkpt><trkpt lat="43.417385" lon="2.926745"><ele>139.0</ele><time>2026-04-04T13:57:48.446Z</time></trkpt><trkpt lat="43.41742" lon="2.926835"><ele>139.0</ele><time>2026-04-04T13:57:49.446Z</time></trkpt><trkpt lat="43.4174717" lon="2.9269317"><ele>139.0</ele><time>2026-04-04T13:57:51.445Z</time></trkpt><trkpt lat="43.4175467" lon="2.9268683"><ele>139.0</ele><time>2026-04-04T13:57:53.444Z</time></trkpt><trkpt lat="43.4176083" lon="2.9267967"><ele>139.0</ele><time>2026-04-04T13:57:54.444Z</time></trkpt><trkpt lat="43.41768" lon="2.9267233"><ele>139.0</ele><time>2026-04-04T13:57:55.445Z</time></trkpt><trkpt lat="43.4177583" lon="2.9266467"><ele>139.0</ele><time>2026-04-04T13:57:56.446Z</time></trkpt><trkpt lat="43.4178333" lon="2.9265767"><ele>139.0</ele><time>2026-04-04T13:57:57.447Z</time></trkpt><trkpt lat="43.417905" lon="2.9265267"><ele>139.0</ele><time>2026-04-04T13:57:58.443Z</time></trkpt><trkpt lat="43.4179733" lon="2.9265"><ele>139.0</ele><time>2026-04-04T13:57:59.443Z</time></trkpt><trkpt lat="43.4180367" lon="2.9265017"><ele>139.0</ele><time>2026-04-04T13:58:00.444Z</time></trkpt><trkpt lat="43.4180783" lon="2.9265767"><ele>139.0</ele><time>2026-04-04T13:58:01.446Z</time></trkpt><trkpt lat="43.4181217" lon="2.9266867"><ele>138.6</ele><time>2026-04-04T13:58:02.446Z</time></trkpt><trkpt lat="43.4181683" lon="2.9268117"><ele>138.2</ele><time>2026-04-04T13:58:03.446Z</time></trkpt><trkpt lat="43.4182167" lon="2.9269483"><ele>137.79999999999998</ele><time>2026-04-04T13:58:04.446Z</time></trkpt><trkpt lat="43.4182517" lon="2.9270783"><ele>137.4</ele><time>2026-04-04T13:58:05.446Z</time></trkpt><trkpt lat="43.4182633" lon="2.9272117"><ele>137.0</ele><time>2026-04-04T13:58:06.446Z</time></trkpt><trkpt lat="43.4182517" lon="2.9273333"><ele>137.0</ele><time>2026-04-04T13:58:07.445Z</time></trkpt><trkpt lat="43.4182167" lon="2.927445"><ele>137.0</ele><time>2026-04-04T13:58:08.446Z</time></trkpt><trkpt lat="43.41818" lon="2.9275483"><ele>137.0</ele><time>2026-04-04T13:58:09.447Z</time></trkpt><trkpt lat="43.4181483" lon="2.9276383"><ele>137.0</ele><time>2026-04-04T13:58:10.446Z</time></trkpt><trkpt lat="43.4181067" lon="2.9278"><ele>137.0</ele><time>2026-04-04T13:58:12.445Z</time></trkpt><trkpt lat="43.4180933" lon="2.927975"><ele>137.00000000000003</ele><time>2026-04-04T13:58:14.443Z</time></trkpt><trkpt lat="43.41809" lon="2.928065"><ele>137.0</ele><time>2026-04-04T13:58:15.445Z</time></trkpt><trkpt lat="43.4180833" lon="2.9281533"><ele>137.0</ele><time>2026-04-04T13:58:16.443Z</time></trkpt><trkpt lat="43.4180717" lon="2.92824"><ele>137.0</ele><time>2026-04-04T13:58:17.443Z</time></trkpt><trkpt lat="43.4180617" lon="2.9283267"><ele>137.0</ele><time>2026-04-04T13:58:18.444Z</time></trkpt><trkpt lat="43.4180467" lon="2.9284117"><ele>137.00000000000003</ele><time>2026-04-04T13:58:19.443Z</time></trkpt><trkpt lat="43.4180117" lon="2.928575"><ele>137.0</ele><time>2026-04-04T13:58:21.442Z</time></trkpt><trkpt lat="43.4179817" lon="2.928655"><ele>136.71428571428572</ele><time>2026-04-04T13:58:22.445Z</time></trkpt><trkpt lat="43.4179467" lon="2.9287333"><ele>136.42857142857144</ele><time>2026-04-04T13:58:23.447Z</time></trkpt><trkpt lat="43.4179167" lon="2.9288167"><ele>136.14285714285714</ele><time>2026-04-04T13:58:24.443Z</time></trkpt><trkpt lat="43.4178883" lon="2.9289033"><ele>135.85714285714286</ele><time>2026-04-04T13:58:25.443Z</time></trkpt><trkpt lat="43.4178683" lon="2.9289967"><ele>135.57142857142856</ele><time>2026-04-04T13:58:26.443Z</time></trkpt><trkpt lat="43.4178483" lon="2.9290933"><ele>135.28571428571428</ele><time>2026-04-04T13:58:27.445Z</time></trkpt><trkpt lat="43.4178417" lon="2.9291883"><ele>135.0</ele><time>2026-04-04T13:58:28.446Z</time></trkpt><trkpt lat="43.41784" lon="2.9292883"><ele>134.83333333333334</ele><time>2026-04-04T13:58:29.446Z</time></trkpt><trkpt lat="43.4178467" lon="2.9293967"><ele>134.66666666666666</ele><time>2026-04-04T13:58:30.446Z</time></trkpt><trkpt lat="43.4178617" lon="2.9295067"><ele>134.5</ele><time>2026-04-04T13:58:31.446Z</time></trkpt><trkpt lat="43.41788" lon="2.9296183"><ele>134.33333333333331</ele><time>2026-04-04T13:58:32.446Z</time></trkpt><trkpt lat="43.417905" lon="2.9297317"><ele>134.16666666666666</ele><time>2026-04-04T13:58:33.445Z</time></trkpt><trkpt lat="43.4179333" lon="2.9298417"><ele>134.0</ele><time>2026-04-04T13:58:34.444Z</time></trkpt><trkpt lat="43.4179633" lon="2.9299483"><ele>134.0</ele><time>2026-04-04T13:58:35.442Z</time></trkpt><trkpt lat="43.4179967" lon="2.9300517"><ele>134.0</ele><time>2026-04-04T13:58:36.447Z</time></trkpt><trkpt lat="43.4180417" lon="2.9301417"><ele>134.0</ele><time>2026-04-04T13:58:37.443Z</time></trkpt><trkpt lat="43.41809" lon="2.9302217"><ele>134.0</ele><time>2026-04-04T13:58:38.446Z</time></trkpt><trkpt lat="43.418135" lon="2.93029"><ele>134.0</ele><time>2026-04-04T13:58:39.445Z</time></trkpt><trkpt lat="43.4181867" lon="2.9304067"><ele>134.0</ele><time>2026-04-04T13:58:41.444Z</time></trkpt><trkpt lat="43.4181483" lon="2.9305"><ele>134.0</ele><time>2026-04-04T13:58:44.442Z</time></trkpt><trkpt lat="43.4181467" lon="2.9306083"><ele>134.0</ele><time>2026-04-04T13:58:49.444Z</time></trkpt><trkpt lat="43.418185" lon="2.930715"><ele>134.0</ele><time>2026-04-04T13:59:37.446Z</time></trkpt><trkpt lat="43.4181883" lon="2.930845"><ele>134.0</ele><time>2026-04-04T13:59:40.45Z</time></trkpt><trkpt lat="43.4181983" lon="2.9309817"><ele>134.0</ele><time>2026-04-04T14:53:39.448Z</time></trkpt><trkpt lat="43.418205" lon="2.9310817"><ele>134.0</ele><time>2026-04-04T14:53:41.445Z</time></trkpt><trkpt lat="43.41821" lon="2.9312083"><ele>134.2</ele><time>2026-04-04T14:53:43.442Z</time></trkpt><trkpt lat="43.418215" lon="2.9313483"><ele>134.4</ele><time>2026-04-04T14:53:45.442Z</time></trkpt><trkpt lat="43.41822" lon="2.931485"><ele>134.6</ele><time>2026-04-04T14:53:47.443Z</time></trkpt><trkpt lat="43.4182367" lon="2.9316033"><ele>134.8</ele><time>2026-04-04T14:53:49.443Z</time></trkpt><trkpt lat="43.4183017" lon="2.9317017"><ele>135.0</ele><time>2026-04-04T14:54:07.445Z</time></trkpt><trkpt lat="43.418385" lon="2.9317917"><ele>135.0</ele><time>2026-04-04T14:54:09.443Z</time></trkpt><trkpt lat="43.41844" lon="2.9318483"><ele>135.0</ele><time>2026-04-04T14:54:10.445Z</time></trkpt><trkpt lat="43.4185" lon="2.9319083"><ele>135.0</ele><time>2026-04-04T14:54:11.445Z</time></trkpt><trkpt lat="43.418565" lon="2.9319633"><ele>135.0</ele><time>2026-04-04T14:54:12.445Z</time></trkpt><trkpt lat="43.4186333" lon="2.9320233"><ele>135.0</ele><time>2026-04-04T14:54:13.444Z</time></trkpt><trkpt lat="43.4186967" lon="2.9320783"><ele>135.0</ele><time>2026-04-04T14:54:14.445Z</time></trkpt><trkpt lat="43.41876" lon="2.93213"><ele>135.0</ele><time>2026-04-04T14:54:15.445Z</time></trkpt><trkpt lat="43.4188183" lon="2.93218"><ele>136.0</ele><time>2026-04-04T14:54:16.446Z</time></trkpt><trkpt lat="43.41888" lon="2.9322217"><ele>137.0</ele><time>2026-04-04T14:54:17.445Z</time></trkpt><trkpt lat="43.4189383" lon="2.9322583"><ele>138.0</ele><time>2026-04-04T14:54:18.443Z</time></trkpt><trkpt lat="43.4189983" lon="2.932285"><ele>139.0</ele><time>2026-04-04T14:54:19.443Z</time></trkpt><trkpt lat="43.4190983" lon="2.9323183"><ele>140.0</ele><time>2026-04-04T14:54:21.444Z</time></trkpt><trkpt lat="43.419175" lon="2.9323467"><ele>141.0</ele><time>2026-04-04T14:54:23.442Z</time></trkpt><trkpt lat="43.4192633" lon="2.932375"><ele>141.0</ele><time>2026-04-04T14:54:25.443Z</time></trkpt><trkpt lat="43.4193533" lon="2.9323933"><ele>141.0</ele><time>2026-04-04T14:54:27.445Z</time></trkpt><trkpt lat="43.419445" lon="2.9324"><ele>141.0</ele><time>2026-04-04T14:54:29.445Z</time></trkpt><trkpt lat="43.419555" lon="2.9324133"><ele>141.0</ele><time>2026-04-04T14:54:31.448Z</time></trkpt><trkpt lat="43.4196717" lon="2.9324067"><ele>141.0</ele><time>2026-04-04T14:54:33.442Z</time></trkpt><trkpt lat="43.41979" lon="2.932385"><ele>141.83333333333334</ele><time>2026-04-04T14:54:35.443Z</time></trkpt><trkpt lat="43.4198917" lon="2.9324033"><ele>142.66666666666666</ele><time>2026-04-04T14:54:37.443Z</time></trkpt><trkpt lat="43.4199617" lon="2.9324883"><ele>143.5</ele><time>2026-04-04T14:54:39.442Z</time></trkpt><trkpt lat="43.4199783" lon="2.9325733"><ele>144.33333333333331</ele><time>2026-04-04T14:54:40.444Z</time></trkpt><trkpt lat="43.4199967" lon="2.9326717"><ele>145.16666666666666</ele><time>2026-04-04T14:54:41.443Z</time></trkpt><trkpt lat="43.420015" lon="2.9327733"><ele>146.0</ele><time>2026-04-04T14:54:42.443Z</time></trkpt><trkpt lat="43.4200333" lon="2.932885"><ele>146.0</ele><time>2026-04-04T14:54:43.444Z</time></trkpt><trkpt lat="43.420055" lon="2.9330117"><ele>146.0</ele><time>2026-04-04T14:54:44.444Z</time></trkpt><trkpt lat="43.4200783" lon="2.933145"><ele>146.0</ele><time>2026-04-04T14:54:45.442Z</time></trkpt><trkpt lat="43.4201067" lon="2.9332733"><ele>146.0</ele><time>2026-04-04T14:54:46.445Z</time></trkpt><trkpt lat="43.42014" lon="2.9334017"><ele>146.0</ele><time>2026-04-04T14:54:47.442Z</time></trkpt><trkpt lat="43.4201767" lon="2.9335283"><ele>145.6</ele><time>2026-04-04T14:54:48.444Z</time></trkpt><trkpt lat="43.420215" lon="2.9336567"><ele>145.2</ele><time>2026-04-04T14:54:49.443Z</time></trkpt><trkpt lat="43.4202533" lon="2.9337817"><ele>144.8</ele><time>2026-04-04T14:54:50.443Z</time></trkpt><trkpt lat="43.4202933" lon="2.933905"><ele>144.4</ele><time>2026-04-04T14:54:51.443Z</time></trkpt><trkpt lat="43.4203367" lon="2.9340283"><ele>144.0</ele><time>2026-04-04T14:54:52.444Z</time></trkpt><trkpt lat="43.4203817" lon="2.934145"><ele>144.2</ele><time>2026-04-04T14:54:53.446Z</time></trkpt><trkpt lat="43.42043" lon="2.9342633"><ele>144.4</ele><time>2026-04-04T14:54:54.445Z</time></trkpt><trkpt lat="43.4204783" lon="2.9343867"><ele>144.6</ele><time>2026-04-04T14:54:55.446Z</time></trkpt><trkpt lat="43.4205267" lon="2.93451"><ele>144.8</ele><time>2026-04-04T14:54:56.447Z</time></trkpt><trkpt lat="43.420575" lon="2.9346317"><ele>145.0</ele><time>2026-04-04T14:54:57.443Z</time></trkpt><trkpt lat="43.420625" lon="2.934755"><ele>145.0</ele><time>2026-04-04T14:54:58.443Z</time></trkpt><trkpt lat="43.420675" lon="2.9348817"><ele>145.0</ele><time>2026-04-04T14:54:59.443Z</time></trkpt><trkpt lat="43.420725" lon="2.9350033"><ele>145.0</ele><time>2026-04-04T14:55:00.446Z</time></trkpt><trkpt lat="43.4207733" lon="2.935125"><ele>145.0</ele><time>2026-04-04T14:55:01.447Z</time></trkpt><trkpt lat="43.4208267" lon="2.93524"><ele>145.0</ele><time>2026-04-04T14:55:02.445Z</time></trkpt><trkpt lat="43.4208883" lon="2.9353517"><ele>144.6</ele><time>2026-04-04T14:55:03.447Z</time></trkpt><trkpt lat="43.4209567" lon="2.93546"><ele>144.2</ele><time>2026-04-04T14:55:04.445Z</time></trkpt><trkpt lat="43.4210267" lon="2.9355567"><ele>143.8</ele><time>2026-04-04T14:55:05.445Z</time></trkpt><trkpt lat="43.4210983" lon="2.935655"><ele>143.4</ele><time>2026-04-04T14:55:06.448Z</time></trkpt><trkpt lat="43.421165" lon="2.9357567"><ele>143.0</ele><time>2026-04-04T14:55:07.447Z</time></trkpt><trkpt lat="43.42123" lon="2.9358567"><ele>142.8</ele><time>2026-04-04T14:55:08.445Z</time></trkpt><trkpt lat="43.4212917" lon="2.9359583"><ele>142.60000000000002</ele><time>2026-04-04T14:55:09.442Z</time></trkpt><trkpt lat="43.4213533" lon="2.9360583"><ele>142.39999999999998</ele><time>2026-04-04T14:55:10.446Z</time></trkpt><trkpt lat="43.421415" lon="2.93616"><ele>142.2</ele><time>2026-04-04T14:55:11.442Z</time></trkpt><trkpt lat="43.42148" lon="2.936265"><ele>142.0</ele><time>2026-04-04T14:55:12.447Z</time></trkpt><trkpt lat="43.4215483" lon="2.93636"><ele>143.0</ele><time>2026-04-04T14:55:13.446Z</time></trkpt><trkpt lat="43.4216167" lon="2.9364483"><ele>144.0</ele><time>2026-04-04T14:55:14.445Z</time></trkpt><trkpt lat="43.4216783" lon="2.9365267"><ele>145.0</ele><time>2026-04-04T14:55:15.443Z</time></trkpt><trkpt lat="43.4217383" lon="2.9366017"><ele>146.0</ele><time>2026-04-04T14:55:16.445Z</time></trkpt><trkpt lat="43.42179" lon="2.9366633"><ele>147.0</ele><time>2026-04-04T14:55:17.442Z</time></trkpt><trkpt lat="43.421865" lon="2.9367867"><ele>148.0</ele><time>2026-04-04T14:55:19.443Z</time></trkpt><trkpt lat="43.421885" lon="2.936975"><ele>148.0</ele><time>2026-04-04T14:55:21.445Z</time></trkpt><trkpt lat="43.42189" lon="2.9371083"><ele>148.0</ele><time>2026-04-04T14:55:22.445Z</time></trkpt><trkpt lat="43.4218833" lon="2.93727"><ele>148.0</ele><time>2026-04-04T14:55:23.446Z</time></trkpt><trkpt lat="43.421885" lon="2.9374317"><ele>148.0</ele><time>2026-04-04T14:55:24.445Z</time></trkpt><trkpt lat="43.4218867" lon="2.93759"><ele>148.0</ele><time>2026-04-04T14:55:25.443Z</time></trkpt><trkpt lat="43.4218917" lon="2.9377467"><ele>148.0</ele><time>2026-04-04T14:55:26.443Z</time></trkpt><trkpt lat="43.4218967" lon="2.93789"><ele>148.0</ele><time>2026-04-04T14:55:27.444Z</time></trkpt><trkpt lat="43.4218967" lon="2.938025"><ele>148.0</ele><time>2026-04-04T14:55:28.444Z</time></trkpt><trkpt lat="43.4218883" lon="2.9381583"><ele>148.0</ele><time>2026-04-04T14:55:29.445Z</time></trkpt><trkpt lat="43.4218667" lon="2.9382933"><ele>148.0</ele><time>2026-04-04T14:55:30.446Z</time></trkpt><trkpt lat="43.4218383" lon="2.9384317"><ele>147.8</ele><time>2026-04-04T14:55:31.443Z</time></trkpt><trkpt lat="43.4217983" lon="2.9385667"><ele>147.60000000000002</ele><time>2026-04-04T14:55:32.446Z</time></trkpt><trkpt lat="43.4217433" lon="2.938695"><ele>147.39999999999998</ele><time>2026-04-04T14:55:33.445Z</time></trkpt><trkpt lat="43.421675" lon="2.93881"><ele>147.2</ele><time>2026-04-04T14:55:34.446Z</time></trkpt><trkpt lat="43.4216117" lon="2.9389233"><ele>147.0</ele><time>2026-04-04T14:55:35.445Z</time></trkpt><trkpt lat="43.421565" lon="2.9390383"><ele>147.0</ele><time>2026-04-04T14:55:36.446Z</time></trkpt><trkpt lat="43.421545" lon="2.9391467"><ele>147.0</ele><time>2026-04-04T14:55:37.443Z</time></trkpt><trkpt lat="43.4215433" lon="2.9392417"><ele>147.0</ele><time>2026-04-04T14:55:38.445Z</time></trkpt><trkpt lat="43.4215917" lon="2.939305"><ele>147.0</ele><time>2026-04-04T14:55:40.446Z</time></trkpt><trkpt lat="43.4216683" lon="2.939315"><ele>147.0</ele><time>2026-04-04T14:55:42.446Z</time></trkpt><trkpt lat="43.4217617" lon="2.9394533"><ele>147.0</ele><time>2026-04-04T14:55:44.443Z</time></trkpt><trkpt lat="43.4218233" lon="2.9395617"><ele>146.5</ele><time>2026-04-04T14:55:45.447Z</time></trkpt><trkpt lat="43.42187" lon="2.9396983"><ele>146.0</ele><time>2026-04-04T14:55:46.445Z</time></trkpt><trkpt lat="43.4219017" lon="2.9398483"><ele>145.5</ele><time>2026-04-04T14:55:47.443Z</time></trkpt><trkpt lat="43.4219283" lon="2.9400117"><ele>145.0</ele><time>2026-04-04T14:55:48.447Z</time></trkpt><trkpt lat="43.4219567" lon="2.9401833"><ele>144.25</ele><time>2026-04-04T14:55:49.444Z</time></trkpt><trkpt lat="43.421985" lon="2.94036"><ele>143.5</ele><time>2026-04-04T14:55:50.443Z</time></trkpt><trkpt lat="43.4220167" lon="2.9405383"><ele>142.75</ele><time>2026-04-04T14:55:51.445Z</time></trkpt><trkpt lat="43.4220533" lon="2.94072"><ele>142.0</ele><time>2026-04-04T14:55:52.444Z</time></trkpt><trkpt lat="43.4220867" lon="2.9409033"><ele>140.5</ele><time>2026-04-04T14:55:53.444Z</time></trkpt><trkpt lat="43.4221167" lon="2.941085"><ele>139.0</ele><time>2026-04-04T14:55:54.444Z</time></trkpt><trkpt lat="43.4221533" lon="2.9412733"><ele>137.5</ele><time>2026-04-04T14:55:55.446Z</time></trkpt><trkpt lat="43.42219" lon="2.9414633"><ele>136.0</ele><time>2026-04-04T14:55:56.446Z</time></trkpt><trkpt lat="43.42223" lon="2.941655"><ele>134.75</ele><time>2026-04-04T14:55:57.442Z</time></trkpt><trkpt lat="43.42227" lon="2.9418483"><ele>133.5</ele><time>2026-04-04T14:55:58.444Z</time></trkpt><trkpt lat="43.4223017" lon="2.9420367"><ele>132.25</ele><time>2026-04-04T14:55:59.444Z</time></trkpt><trkpt lat="43.422335" lon="2.94222"><ele>131.0</ele><time>2026-04-04T14:56:00.447Z</time></trkpt><trkpt lat="43.42237" lon="2.942405"><ele>130.5</ele><time>2026-04-04T14:56:01.446Z</time></trkpt><trkpt lat="43.4224083" lon="2.94259"><ele>130.0</ele><time>2026-04-04T14:56:02.443Z</time></trkpt><trkpt lat="43.422445" lon="2.942775"><ele>129.5</ele><time>2026-04-04T14:56:03.446Z</time></trkpt><trkpt lat="43.422485" lon="2.94296"><ele>129.0</ele><time>2026-04-04T14:56:04.447Z</time></trkpt><trkpt lat="43.4225267" lon="2.9431433"><ele>129.0</ele><time>2026-04-04T14:56:05.446Z</time></trkpt><trkpt lat="43.4225683" lon="2.943325"><ele>129.0</ele><time>2026-04-04T14:56:06.446Z</time></trkpt><trkpt lat="43.42261" lon="2.943505"><ele>129.0</ele><time>2026-04-04T14:56:07.446Z</time></trkpt><trkpt lat="43.4226533" lon="2.94368"><ele>129.0</ele><time>2026-04-04T14:56:08.446Z</time></trkpt><trkpt lat="43.4227017" lon="2.9438467"><ele>128.25</ele><time>2026-04-04T14:56:09.446Z</time></trkpt><trkpt lat="43.42275" lon="2.9440067"><ele>127.5</ele><time>2026-04-04T14:56:10.446Z</time></trkpt><trkpt lat="43.422795" lon="2.944165"><ele>126.75</ele><time>2026-04-04T14:56:11.446Z</time></trkpt><trkpt lat="43.4228367" lon="2.9443217"><ele>126.0</ele><time>2026-04-04T14:56:12.446Z</time></trkpt><trkpt lat="43.4228767" lon="2.94447"><ele>125.6</ele><time>2026-04-04T14:56:13.446Z</time></trkpt><trkpt lat="43.4229167" lon="2.9446133"><ele>125.19999999999999</ele><time>2026-04-04T14:56:14.443Z</time></trkpt><trkpt lat="43.4229417" lon="2.9447583"><ele>124.80000000000001</ele><time>2026-04-04T14:56:15.447Z</time></trkpt><trkpt lat="43.4229583" lon="2.9449117"><ele>124.4</ele><time>2026-04-04T14:56:16.447Z</time></trkpt><trkpt lat="43.422965" lon="2.945065"><ele>124.0</ele><time>2026-04-04T14:56:17.442Z</time></trkpt><trkpt lat="43.4229667" lon="2.9452183"><ele>124.0</ele><time>2026-04-04T14:56:18.445Z</time></trkpt><trkpt lat="43.4229667" lon="2.9453633"><ele>124.0</ele><time>2026-04-04T14:56:19.446Z</time></trkpt><trkpt lat="43.4229717" lon="2.94551"><ele>124.0</ele><time>2026-04-04T14:56:20.445Z</time></trkpt><trkpt lat="43.42296" lon="2.9456483"><ele>124.0</ele><time>2026-04-04T14:56:21.445Z</time></trkpt><trkpt lat="43.4229567" lon="2.9457817"><ele>124.0</ele><time>2026-04-04T14:56:22.445Z</time></trkpt><trkpt lat="43.4229467" lon="2.9459083"><ele>124.00000000000001</ele><time>2026-04-04T14:56:23.445Z</time></trkpt><trkpt lat="43.4229183" lon="2.9460267"><ele>124.0</ele><time>2026-04-04T14:56:24.448Z</time></trkpt><trkpt lat="43.4228533" lon="2.946115"><ele>124.0</ele><time>2026-04-04T14:56:25.445Z</time></trkpt><trkpt lat="43.4227717" lon="2.946175"><ele>124.0</ele><time>2026-04-04T14:56:26.445Z</time></trkpt><trkpt lat="43.4226867" lon="2.94621"><ele>124.00000000000001</ele><time>2026-04-04T14:56:27.446Z</time></trkpt><trkpt lat="43.4226067" lon="2.9462367"><ele>124.0</ele><time>2026-04-04T14:56:28.444Z</time></trkpt><trkpt lat="43.4225283" lon="2.9462667"><ele>124.00000000000001</ele><time>2026-04-04T14:56:29.445Z</time></trkpt><trkpt lat="43.422455" lon="2.9463"><ele>124.0</ele><time>2026-04-04T14:56:30.446Z</time></trkpt><trkpt lat="43.422385" lon="2.9463367"><ele>124.0</ele><time>2026-04-04T14:56:31.444Z</time></trkpt><trkpt lat="43.4223183" lon="2.9463767"><ele>124.0</ele><time>2026-04-04T14:56:32.446Z</time></trkpt><trkpt lat="43.42226" lon="2.9464133"><ele>124.00000000000001</ele><time>2026-04-04T14:56:33.446Z</time></trkpt><trkpt lat="43.422195" lon="2.9464567"><ele>124.0</ele><time>2026-04-04T14:56:34.444Z</time></trkpt><trkpt lat="43.42209" lon="2.9465533"><ele>124.16666666666667</ele><time>2026-04-04T14:56:36.447Z</time></trkpt><trkpt lat="43.4219983" lon="2.946655"><ele>124.33333333333334</ele><time>2026-04-04T14:56:38.445Z</time></trkpt><trkpt lat="43.4218983" lon="2.9467483"><ele>124.5</ele><time>2026-04-04T14:56:40.444Z</time></trkpt><trkpt lat="43.4218383" lon="2.9467917"><ele>124.66666666666666</ele><time>2026-04-04T14:56:41.446Z</time></trkpt><trkpt lat="43.4217767" lon="2.9468267"><ele>124.83333333333333</ele><time>2026-04-04T14:56:42.445Z</time></trkpt><trkpt lat="43.42171" lon="2.9468567"><ele>125.0</ele><time>2026-04-04T14:56:43.445Z</time></trkpt><trkpt lat="43.4216433" lon="2.9468717"><ele>124.99999999999999</ele><time>2026-04-04T14:56:44.444Z</time></trkpt><trkpt lat="43.4215783" lon="2.9468917"><ele>125.0</ele><time>2026-04-04T14:56:45.448Z</time></trkpt><trkpt lat="43.4215083" lon="2.9469067"><ele>125.0</ele><time>2026-04-04T14:56:46.444Z</time></trkpt><trkpt lat="43.421435" lon="2.9469167"><ele>125.0</ele><time>2026-04-04T14:56:47.445Z</time></trkpt><trkpt lat="43.4213567" lon="2.9469117"><ele>124.99999999999999</ele><time>2026-04-04T14:56:48.445Z</time></trkpt><trkpt lat="43.4212767" lon="2.9469067"><ele>125.0</ele><time>2026-04-04T14:56:49.445Z</time></trkpt><trkpt lat="43.4211983" lon="2.9469283"><ele>125.33333333333333</ele><time>2026-04-04T14:56:50.446Z</time></trkpt><trkpt lat="43.4211233" lon="2.946955"><ele>125.66666666666666</ele><time>2026-04-04T14:56:51.444Z</time></trkpt><trkpt lat="43.4210533" lon="2.946985"><ele>126.0</ele><time>2026-04-04T14:56:52.446Z</time></trkpt><trkpt lat="43.42098" lon="2.947025"><ele>126.33333333333334</ele><time>2026-04-04T14:56:53.444Z</time></trkpt><trkpt lat="43.420905" lon="2.9470583"><ele>126.66666666666667</ele><time>2026-04-04T14:56:54.444Z</time></trkpt><trkpt lat="43.4208417" lon="2.9470917"><ele>127.0</ele><time>2026-04-04T14:56:55.445Z</time></trkpt><trkpt lat="43.4207433" lon="2.947145"><ele>127.0</ele><time>2026-04-04T14:56:57.443Z</time></trkpt><trkpt lat="43.4206233" lon="2.9472033"><ele>126.99999999999999</ele><time>2026-04-04T14:56:59.443Z</time></trkpt><trkpt lat="43.42053" lon="2.9472767"><ele>126.99999999999999</ele><time>2026-04-04T14:57:01.445Z</time></trkpt><trkpt lat="43.4204533" lon="2.9473117"><ele>127.0</ele><time>2026-04-04T14:57:03.441Z</time></trkpt><trkpt lat="43.42037" lon="2.94734"><ele>127.0</ele><time>2026-04-04T14:57:05.442Z</time></trkpt><trkpt lat="43.4203017" lon="2.9473817"><ele>127.50000000000001</ele><time>2026-04-04T14:57:07.442Z</time></trkpt><trkpt lat="43.4202517" lon="2.9474383"><ele>128.0</ele><time>2026-04-04T14:57:09.443Z</time></trkpt><trkpt lat="43.420225" lon="2.9475567"><ele>128.5</ele><time>2026-04-04T14:57:11.444Z</time></trkpt><trkpt lat="43.4202217" lon="2.9476467"><ele>129.0</ele><time>2026-04-04T14:57:12.443Z</time></trkpt><trkpt lat="43.420215" lon="2.94775"><ele>129.5</ele><time>2026-04-04T14:57:13.443Z</time></trkpt><trkpt lat="43.4202083" lon="2.947865"><ele>130.0</ele><time>2026-04-04T14:57:14.442Z</time></trkpt><trkpt lat="43.4202033" lon="2.9479983"><ele>131.2</ele><time>2026-04-04T14:57:15.445Z</time></trkpt><trkpt lat="43.4201917" lon="2.9481383"><ele>132.4</ele><time>2026-04-04T14:57:16.445Z</time></trkpt><trkpt lat="43.4201817" lon="2.9482883"><ele>133.6</ele><time>2026-04-04T14:57:17.445Z</time></trkpt><trkpt lat="43.4201817" lon="2.9484467"><ele>134.8</ele><time>2026-04-04T14:57:18.445Z</time></trkpt><trkpt lat="43.4201833" lon="2.9486117"><ele>136.0</ele><time>2026-04-04T14:57:19.446Z</time></trkpt><trkpt lat="43.4201767" lon="2.948775"><ele>137.5</ele><time>2026-04-04T14:57:20.446Z</time></trkpt><trkpt lat="43.420165" lon="2.9489417"><ele>139.0</ele><time>2026-04-04T14:57:21.448Z</time></trkpt><trkpt lat="43.4201583" lon="2.9491167"><ele>140.5</ele><time>2026-04-04T14:57:22.445Z</time></trkpt><trkpt lat="43.4201483" lon="2.9493"><ele>142.0</ele><time>2026-04-04T14:57:23.445Z</time></trkpt><trkpt lat="43.4201383" lon="2.949485"><ele>142.5</ele><time>2026-04-04T14:57:24.442Z</time></trkpt><trkpt lat="43.42013" lon="2.94967"><ele>143.0</ele><time>2026-04-04T14:57:25.446Z</time></trkpt><trkpt lat="43.42012" lon="2.9498633"><ele>143.5</ele><time>2026-04-04T14:57:26.445Z</time></trkpt><trkpt lat="43.4201067" lon="2.9500617"><ele>144.0</ele><time>2026-04-04T14:57:27.445Z</time></trkpt><trkpt lat="43.4200917" lon="2.9502633"><ele>145.0</ele><time>2026-04-04T14:57:28.442Z</time></trkpt><trkpt lat="43.4200717" lon="2.9504717"><ele>146.0</ele><time>2026-04-04T14:57:29.443Z</time></trkpt><trkpt lat="43.4200567" lon="2.950685"><ele>147.0</ele><time>2026-04-04T14:57:30.444Z</time></trkpt><trkpt lat="43.420045" lon="2.9509"><ele>148.0</ele><time>2026-04-04T14:57:31.445Z</time></trkpt><trkpt lat="43.4200317" lon="2.9511133"><ele>149.0</ele><time>2026-04-04T14:57:32.446Z</time></trkpt><trkpt lat="43.4200183" lon="2.9513267"><ele>150.0</ele><time>2026-04-04T14:57:33.445Z</time></trkpt><trkpt lat="43.4200017" lon="2.9515417"><ele>151.33333333333334</ele><time>2026-04-04T14:57:34.445Z</time></trkpt><trkpt lat="43.4199867" lon="2.9517567"><ele>152.66666666666669</ele><time>2026-04-04T14:57:35.445Z</time></trkpt><trkpt lat="43.41997" lon="2.9519667"><ele>154.0</ele><time>2026-04-04T14:57:36.445Z</time></trkpt><trkpt lat="43.4199583" lon="2.9521667"><ele>154.0</ele><time>2026-04-04T14:57:37.446Z</time></trkpt><trkpt lat="43.419945" lon="2.952345"><ele>154.0</ele><time>2026-04-04T14:57:38.445Z</time></trkpt><trkpt lat="43.4199333" lon="2.9525"><ele>154.0</ele><time>2026-04-04T14:57:39.448Z</time></trkpt><trkpt lat="43.4199167" lon="2.952615"><ele>154.0</ele><time>2026-04-04T14:57:40.443Z</time></trkpt><trkpt lat="43.419885" lon="2.95271"><ele>154.0</ele><time>2026-04-04T14:57:41.445Z</time></trkpt><trkpt lat="43.4198067" lon="2.9527417"><ele>154.0</ele><time>2026-04-04T14:57:43.445Z</time></trkpt><trkpt lat="43.4197567" lon="2.9526667"><ele>154.0</ele><time>2026-04-04T14:57:44.446Z</time></trkpt><trkpt lat="43.4197183" lon="2.95256"><ele>154.0</ele><time>2026-04-04T14:57:45.445Z</time></trkpt><trkpt lat="43.4196767" lon="2.9523783"><ele>154.0</ele><time>2026-04-04T14:57:46.443Z</time></trkpt><trkpt lat="43.419625" lon="2.9522183"><ele>154.0</ele><time>2026-04-04T14:57:47.443Z</time></trkpt><trkpt lat="43.41957" lon="2.9520783"><ele>158.0</ele><time>2026-04-04T14:57:48.443Z</time></trkpt><trkpt lat="43.4195117" lon="2.951935"><ele>162.0</ele><time>2026-04-04T14:57:49.443Z</time></trkpt><trkpt lat="43.4194533" lon="2.9517783"><ele>166.0</ele><time>2026-04-04T14:57:50.442Z</time></trkpt><trkpt lat="43.4193933" lon="2.9516133"><ele>170.0</ele><time>2026-04-04T14:57:51.443Z</time></trkpt><trkpt lat="43.41933" lon="2.9514433"><ele>170.0</ele><time>2026-04-04T14:57:52.443Z</time></trkpt><trkpt lat="43.4192633" lon="2.9512733"><ele>170.0</ele><time>2026-04-04T14:57:53.445Z</time></trkpt><trkpt lat="43.4191967" lon="2.9510933"><ele>170.0</ele><time>2026-04-04T14:57:54.442Z</time></trkpt><trkpt lat="43.4191283" lon="2.95091"><ele>170.0</ele><time>2026-04-04T14:57:55.445Z</time></trkpt><trkpt lat="43.4190583" lon="2.9507267"><ele>168.66666666666666</ele><time>2026-04-04T14:57:56.445Z</time></trkpt><trkpt lat="43.41899" lon="2.9505417"><ele>167.33333333333334</ele><time>2026-04-04T14:57:57.445Z</time></trkpt><trkpt lat="43.4189167" lon="2.950355"><ele>166.0</ele><time>2026-04-04T14:57:58.446Z</time></trkpt><trkpt lat="43.41884" lon="2.9501733"><ele>171.33333333333334</ele><time>2026-04-04T14:57:59.446Z</time></trkpt><trkpt lat="43.418765" lon="2.9499917"><ele>176.66666666666666</ele><time>2026-04-04T14:58:00.445Z</time></trkpt><trkpt lat="43.4186867" lon="2.94981"><ele>182.0</ele><time>2026-04-04T14:58:01.447Z</time></trkpt><trkpt lat="43.4186033" lon="2.949635"><ele>182.0</ele><time>2026-04-04T14:58:02.445Z</time></trkpt><trkpt lat="43.4185133" lon="2.949465"><ele>182.0</ele><time>2026-04-04T14:58:03.445Z</time></trkpt><trkpt lat="43.418415" lon="2.9493"><ele>182.0</ele><time>2026-04-04T14:58:04.445Z</time></trkpt><trkpt lat="43.4183183" lon="2.9491367"><ele>181.33333333333331</ele><time>2026-04-04T14:58:05.447Z</time></trkpt><trkpt lat="43.4182233" lon="2.9489667"><ele>180.66666666666666</ele><time>2026-04-04T14:58:06.447Z</time></trkpt><trkpt lat="43.4181283" lon="2.9488017"><ele>180.0</ele><time>2026-04-04T14:58:07.447Z</time></trkpt><trkpt lat="43.4180367" lon="2.948635"><ele>184.66666666666669</ele><time>2026-04-04T14:58:08.445Z</time></trkpt><trkpt lat="43.417945" lon="2.9484667"><ele>189.33333333333334</ele><time>2026-04-04T14:58:09.445Z</time></trkpt><trkpt lat="43.4178467" lon="2.948295"><ele>194.0</ele><time>2026-04-04T14:58:10.445Z</time></trkpt><trkpt lat="43.4177517" lon="2.948125"><ele>194.0</ele><time>2026-04-04T14:58:11.446Z</time></trkpt><trkpt lat="43.4176583" lon="2.9479583"><ele>194.0</ele><time>2026-04-04T14:58:12.445Z</time></trkpt><trkpt lat="43.4175633" lon="2.94779"><ele>194.0</ele><time>2026-04-04T14:58:13.446Z</time></trkpt><trkpt lat="43.41747" lon="2.9476283"><ele>192.25</ele><time>2026-04-04T14:58:14.445Z</time></trkpt><trkpt lat="43.4173833" lon="2.9474783"><ele>190.5</ele><time>2026-04-04T14:58:15.445Z</time></trkpt><trkpt lat="43.4173017" lon="2.947345"><ele>188.75</ele><time>2026-04-04T14:58:16.443Z</time></trkpt><trkpt lat="43.417215" lon="2.9472333"><ele>187.0</ele><time>2026-04-04T14:58:17.442Z</time></trkpt><trkpt lat="43.4171217" lon="2.9471517"><ele>190.0</ele><time>2026-04-04T14:58:18.442Z</time></trkpt><trkpt lat="43.4170183" lon="2.9471083"><ele>193.0</ele><time>2026-04-04T14:58:19.446Z</time></trkpt><trkpt lat="43.4169117" lon="2.9471017"><ele>196.0</ele><time>2026-04-04T14:58:20.442Z</time></trkpt><trkpt lat="43.41681" lon="2.9471217"><ele>199.0</ele><time>2026-04-04T14:58:21.443Z</time></trkpt><trkpt lat="43.41673" lon="2.9471617"><ele>202.0</ele><time>2026-04-04T14:58:22.446Z</time></trkpt><trkpt lat="43.416665" lon="2.947205"><ele>201.99999999999997</ele><time>2026-04-04T14:58:23.443Z</time></trkpt><trkpt lat="43.4166183" lon="2.9472917"><ele>202.0</ele><time>2026-04-04T14:58:25.446Z</time></trkpt><trkpt lat="43.4166667" lon="2.9474217"><ele>202.0</ele><time>2026-04-04T14:58:27.445Z</time></trkpt><trkpt lat="43.416705" lon="2.9475133"><ele>202.0</ele><time>2026-04-04T14:58:28.445Z</time></trkpt><trkpt lat="43.41675" lon="2.9476117"><ele>201.99999999999997</ele><time>2026-04-04T14:58:29.445Z</time></trkpt><trkpt lat="43.4168" lon="2.9477083"><ele>202.0</ele><time>2026-04-04T14:58:30.445Z</time></trkpt><trkpt lat="43.4168583" lon="2.9477933"><ele>203.16666666666666</ele><time>2026-04-04T14:58:31.443Z</time></trkpt><trkpt lat="43.4169133" lon="2.9478717"><ele>204.33333333333331</ele><time>2026-04-04T14:58:32.446Z</time></trkpt><trkpt lat="43.4169667" lon="2.9479483"><ele>205.5</ele><time>2026-04-04T14:58:33.445Z</time></trkpt><trkpt lat="43.4170233" lon="2.948025"><ele>206.66666666666669</ele><time>2026-04-04T14:58:34.446Z</time></trkpt><trkpt lat="43.4170717" lon="2.9481017"><ele>207.83333333333334</ele><time>2026-04-04T14:58:35.446Z</time></trkpt><trkpt lat="43.4171167" lon="2.9481883"><ele>209.0</ele><time>2026-04-04T14:58:36.445Z</time></trkpt><trkpt lat="43.4171567" lon="2.9482867"><ele>207.33333333333334</ele><time>2026-04-04T14:58:37.447Z</time></trkpt><trkpt lat="43.4171867" lon="2.9484017"><ele>205.66666666666669</ele><time>2026-04-04T14:58:38.445Z</time></trkpt><trkpt lat="43.4172083" lon="2.9485167"><ele>204.0</ele><time>2026-04-04T14:58:39.444Z</time></trkpt><trkpt lat="43.417225" lon="2.948635"><ele>202.33333333333331</ele><time>2026-04-04T14:58:40.447Z</time></trkpt><trkpt lat="43.4172333" lon="2.9487617"><ele>200.66666666666666</ele><time>2026-04-04T14:58:41.446Z</time></trkpt><trkpt lat="43.41724" lon="2.948885"><ele>199.0</ele><time>2026-04-04T14:58:42.444Z</time></trkpt><trkpt lat="43.41724" lon="2.9490083"><ele>199.0</ele><time>2026-04-04T14:58:43.443Z</time></trkpt><trkpt lat="43.4172267" lon="2.949135"><ele>199.0</ele><time>2026-04-04T14:58:44.447Z</time></trkpt><trkpt lat="43.4172033" lon="2.94926"><ele>199.0</ele><time>2026-04-04T14:58:45.445Z</time></trkpt><trkpt lat="43.4171783" lon="2.9493833"><ele>199.0</ele><time>2026-04-04T14:58:46.442Z</time></trkpt><trkpt lat="43.4171517" lon="2.9495017"><ele>199.0</ele><time>2026-04-04T14:58:47.444Z</time></trkpt><trkpt lat="43.4171317" lon="2.949615"><ele>200.99999999999997</ele><time>2026-04-04T14:58:48.442Z</time></trkpt><trkpt lat="43.4171067" lon="2.949715"><ele>203.0</ele><time>2026-04-04T14:58:49.446Z</time></trkpt><trkpt lat="43.4170633" lon="2.9497833"><ele>205.0</ele><time>2026-04-04T14:58:50.442Z</time></trkpt><trkpt lat="43.417005" lon="2.9498233"><ele>207.0</ele><time>2026-04-04T14:58:51.443Z</time></trkpt><trkpt lat="43.41694" lon="2.9498517"><ele>208.99999999999997</ele><time>2026-04-04T14:58:52.443Z</time></trkpt><trkpt lat="43.4168367" lon="2.9499367"><ele>211.0</ele><time>2026-04-04T14:58:54.446Z</time></trkpt><trkpt lat="43.4167867" lon="2.950105"><ele>211.20000000000002</ele><time>2026-04-04T14:58:56.447Z</time></trkpt><trkpt lat="43.4167833" lon="2.9502217"><ele>211.4</ele><time>2026-04-04T14:58:57.445Z</time></trkpt><trkpt lat="43.416785" lon="2.9503467"><ele>211.6</ele><time>2026-04-04T14:58:58.445Z</time></trkpt><trkpt lat="43.4167867" lon="2.9504933"><ele>211.8</ele><time>2026-04-04T14:58:59.443Z</time></trkpt><trkpt lat="43.4167883" lon="2.9506483"><ele>212.0</ele><time>2026-04-04T14:59:00.446Z</time></trkpt><trkpt lat="43.4167983" lon="2.950815"><ele>212.25</ele><time>2026-04-04T14:59:01.447Z</time></trkpt><trkpt lat="43.4168183" lon="2.9509933"><ele>212.5</ele><time>2026-04-04T14:59:02.445Z</time></trkpt><trkpt lat="43.416855" lon="2.9511683"><ele>212.75</ele><time>2026-04-04T14:59:03.445Z</time></trkpt><trkpt lat="43.4168933" lon="2.9513483"><ele>213.0</ele><time>2026-04-04T14:59:04.445Z</time></trkpt><trkpt lat="43.41692" lon="2.9515317"><ele>213.5</ele><time>2026-04-04T14:59:05.442Z</time></trkpt><trkpt lat="43.41693" lon="2.9517267"><ele>214.0</ele><time>2026-04-04T14:59:06.446Z</time></trkpt><trkpt lat="43.4169267" lon="2.9519283"><ele>214.5</ele><time>2026-04-04T14:59:07.446Z</time></trkpt><trkpt lat="43.4169133" lon="2.952135"><ele>215.0</ele><time>2026-04-04T14:59:08.446Z</time></trkpt><trkpt lat="43.4168983" lon="2.9523383"><ele>215.0</ele><time>2026-04-04T14:59:09.442Z</time></trkpt><trkpt lat="43.4168867" lon="2.9525367"><ele>215.0</ele><time>2026-04-04T14:59:10.446Z</time></trkpt><trkpt lat="43.41689" lon="2.9527317"><ele>215.0</ele><time>2026-04-04T14:59:11.446Z</time></trkpt><trkpt lat="43.4169017" lon="2.95293"><ele>215.0</ele><time>2026-04-04T14:59:12.443Z</time></trkpt><trkpt lat="43.41691" lon="2.9531333"><ele>215.75</ele><time>2026-04-04T14:59:13.443Z</time></trkpt><trkpt lat="43.4169117" lon="2.9533383"><ele>216.5</ele><time>2026-04-04T14:59:14.442Z</time></trkpt><trkpt lat="43.4169167" lon="2.9535367"><ele>217.25</ele><time>2026-04-04T14:59:15.447Z</time></trkpt><trkpt lat="43.41693" lon="2.9537183"><ele>218.0</ele><time>2026-04-04T14:59:16.443Z</time></trkpt><trkpt lat="43.416945" lon="2.9538917"><ele>218.8</ele><time>2026-04-04T14:59:17.443Z</time></trkpt><trkpt lat="43.416955" lon="2.954055"><ele>219.60000000000002</ele><time>2026-04-04T14:59:18.443Z</time></trkpt><trkpt lat="43.4169533" lon="2.9541933"><ele>220.39999999999998</ele><time>2026-04-04T14:59:19.444Z</time></trkpt><trkpt lat="43.4169283" lon="2.9543117"><ele>221.2</ele><time>2026-04-04T14:59:20.443Z</time></trkpt><trkpt lat="43.4168733" lon="2.954405"><ele>222.0</ele><time>2026-04-04T14:59:21.442Z</time></trkpt><trkpt lat="43.4167967" lon="2.9544783"><ele>223.8</ele><time>2026-04-04T14:59:22.443Z</time></trkpt><trkpt lat="43.416705" lon="2.9545333"><ele>225.6</ele><time>2026-04-04T14:59:23.443Z</time></trkpt><trkpt lat="43.4166083" lon="2.9545933"><ele>227.40000000000003</ele><time>2026-04-04T14:59:24.443Z</time></trkpt><trkpt lat="43.4165117" lon="2.954665"><ele>229.20000000000002</ele><time>2026-04-04T14:59:25.446Z</time></trkpt><trkpt lat="43.4164183" lon="2.9547217"><ele>231.0</ele><time>2026-04-04T14:59:26.443Z</time></trkpt><trkpt lat="43.4163267" lon="2.954745"><ele>229.0</ele><time>2026-04-04T14:59:27.446Z</time></trkpt><trkpt lat="43.4162517" lon="2.95475"><ele>227.00000000000003</ele><time>2026-04-04T14:59:28.443Z</time></trkpt><trkpt lat="43.4161717" lon="2.9548267"><ele>225.00000000000003</ele><time>2026-04-04T14:59:30.446Z</time></trkpt><trkpt lat="43.4161683" lon="2.9549967"><ele>223.0</ele><time>2026-04-04T14:59:32.446Z</time></trkpt><trkpt lat="43.4161833" lon="2.9551183"><ele>221.0</ele><time>2026-04-04T14:59:33.447Z</time></trkpt><trkpt lat="43.416205" lon="2.95527"><ele>220.75</ele><time>2026-04-04T14:59:34.447Z</time></trkpt><trkpt lat="43.41621" lon="2.9554417"><ele>220.5</ele><time>2026-04-04T14:59:35.447Z</time></trkpt><trkpt lat="43.4162" lon="2.95562"><ele>220.25</ele><time>2026-04-04T14:59:36.446Z</time></trkpt><trkpt lat="43.416185" lon="2.9558133"><ele>220.0</ele><time>2026-04-04T14:59:37.446Z</time></trkpt><trkpt lat="43.4161733" lon="2.9560167"><ele>221.0</ele><time>2026-04-04T14:59:38.446Z</time></trkpt><trkpt lat="43.416165" lon="2.9562283"><ele>222.0</ele><time>2026-04-04T14:59:39.446Z</time></trkpt><trkpt lat="43.4161533" lon="2.95643"><ele>223.0</ele><time>2026-04-04T14:59:40.444Z</time></trkpt><trkpt lat="43.4161433" lon="2.9566167"><ele>224.0</ele><time>2026-04-04T14:59:41.448Z</time></trkpt><trkpt lat="43.4161317" lon="2.9567967"><ele>224.5</ele><time>2026-04-04T14:59:42.443Z</time></trkpt><trkpt lat="43.416115" lon="2.9569633"><ele>225.0</ele><time>2026-04-04T14:59:43.446Z</time></trkpt><trkpt lat="43.4160933" lon="2.9571167"><ele>225.5</ele><time>2026-04-04T14:59:44.443Z</time></trkpt><trkpt lat="43.416065" lon="2.9572667"><ele>226.0</ele><time>2026-04-04T14:59:45.444Z</time></trkpt><trkpt lat="43.4160517" lon="2.9574133"><ele>227.20000000000002</ele><time>2026-04-04T14:59:46.446Z</time></trkpt><trkpt lat="43.4160567" lon="2.95757"><ele>228.40000000000003</ele><time>2026-04-04T14:59:47.446Z</time></trkpt><trkpt lat="43.416065" lon="2.9577267"><ele>229.6</ele><time>2026-04-04T14:59:48.444Z</time></trkpt><trkpt lat="43.4160617" lon="2.95788"><ele>230.8</ele><time>2026-04-04T14:59:49.446Z</time></trkpt><trkpt lat="43.41604" lon="2.95802"><ele>232.0</ele><time>2026-04-04T14:59:50.444Z</time></trkpt><trkpt lat="43.416" lon="2.958145"><ele>232.0</ele><time>2026-04-04T14:59:51.446Z</time></trkpt><trkpt lat="43.4159483" lon="2.9582583"><ele>232.0</ele><time>2026-04-04T14:59:52.446Z</time></trkpt><trkpt lat="43.4158833" lon="2.95836"><ele>232.0</ele><time>2026-04-04T14:59:53.446Z</time></trkpt><trkpt lat="43.4158117" lon="2.9584533"><ele>232.0</ele><time>2026-04-04T14:59:54.443Z</time></trkpt><trkpt lat="43.4157433" lon="2.958545"><ele>232.0</ele><time>2026-04-04T14:59:55.446Z</time></trkpt><trkpt lat="43.4156833" lon="2.9586483"><ele>233.2</ele><time>2026-04-04T14:59:56.443Z</time></trkpt><trkpt lat="43.4156383" lon="2.958765"><ele>234.39999999999998</ele><time>2026-04-04T14:59:57.443Z</time></trkpt><trkpt lat="43.4156083" lon="2.9589"><ele>235.60000000000002</ele><time>2026-04-04T14:59:58.444Z</time></trkpt><trkpt lat="43.415585" lon="2.95905"><ele>236.8</ele><time>2026-04-04T14:59:59.443Z</time></trkpt><trkpt lat="43.4155583" lon="2.9592117"><ele>238.0</ele><time>2026-04-04T15:00:00.445Z</time></trkpt><trkpt lat="43.415525" lon="2.95938"><ele>238.5</ele><time>2026-04-04T15:00:01.443Z</time></trkpt><trkpt lat="43.4154917" lon="2.9595583"><ele>239.0</ele><time>2026-04-04T15:00:02.443Z</time></trkpt><trkpt lat="43.4154617" lon="2.9597417"><ele>239.5</ele><time>2026-04-04T15:00:03.445Z</time></trkpt><trkpt lat="43.41543" lon="2.9599233"><ele>240.0</ele><time>2026-04-04T15:00:04.443Z</time></trkpt><trkpt lat="43.4153933" lon="2.960105"><ele>240.5</ele><time>2026-04-04T15:00:05.444Z</time></trkpt><trkpt lat="43.41535" lon="2.9602833"><ele>241.0</ele><time>2026-04-04T15:00:06.444Z</time></trkpt><trkpt lat="43.4153" lon="2.9604617"><ele>241.5</ele><time>2026-04-04T15:00:07.445Z</time></trkpt><trkpt lat="43.4152533" lon="2.9606383"><ele>242.0</ele><time>2026-04-04T15:00:08.443Z</time></trkpt><trkpt lat="43.4152117" lon="2.9607967"><ele>242.0</ele><time>2026-04-04T15:00:09.444Z</time></trkpt><trkpt lat="43.4151617" lon="2.9609367"><ele>242.0</ele><time>2026-04-04T15:00:10.444Z</time></trkpt><trkpt lat="43.4151" lon="2.9610617"><ele>242.0</ele><time>2026-04-04T15:00:11.443Z</time></trkpt><trkpt lat="43.41502" lon="2.96118"><ele>242.0</ele><time>2026-04-04T15:00:12.444Z</time></trkpt><trkpt lat="43.4149333" lon="2.9612783"><ele>242.00000000000003</ele><time>2026-04-04T15:00:13.444Z</time></trkpt><trkpt lat="43.4148567" lon="2.9613667"><ele>242.0</ele><time>2026-04-04T15:00:14.443Z</time></trkpt><trkpt lat="43.41479" lon="2.9614533"><ele>242.0</ele><time>2026-04-04T15:00:15.447Z</time></trkpt><trkpt lat="43.4147433" lon="2.9615417"><ele>242.0</ele><time>2026-04-04T15:00:16.443Z</time></trkpt><trkpt lat="43.4147117" lon="2.9616383"><ele>242.00000000000003</ele><time>2026-04-04T15:00:17.446Z</time></trkpt><trkpt lat="43.4147017" lon="2.9617433"><ele>242.0</ele><time>2026-04-04T15:00:18.445Z</time></trkpt><trkpt lat="43.4147083" lon="2.9618667"><ele>241.75</ele><time>2026-04-04T15:00:19.444Z</time></trkpt><trkpt lat="43.41473" lon="2.9620117"><ele>241.5</ele><time>2026-04-04T15:00:20.446Z</time></trkpt><trkpt lat="43.4147467" lon="2.9621733"><ele>241.25</ele><time>2026-04-04T15:00:21.444Z</time></trkpt><trkpt lat="43.4147533" lon="2.9623433"><ele>241.0</ele><time>2026-04-04T15:00:22.443Z</time></trkpt><trkpt lat="43.41475" lon="2.9625133"><ele>240.75</ele><time>2026-04-04T15:00:23.444Z</time></trkpt><trkpt lat="43.4147467" lon="2.9626833"><ele>240.5</ele><time>2026-04-04T15:00:24.443Z</time></trkpt><trkpt lat="43.4147433" lon="2.9628517"><ele>240.25</ele><time>2026-04-04T15:00:25.446Z</time></trkpt><trkpt lat="43.4147467" lon="2.963005"><ele>240.0</ele><time>2026-04-04T15:00:26.444Z</time></trkpt><trkpt lat="43.4147517" lon="2.9631517"><ele>240.0</ele><time>2026-04-04T15:00:27.445Z</time></trkpt><trkpt lat="43.4147533" lon="2.9632883"><ele>240.0</ele><time>2026-04-04T15:00:28.444Z</time></trkpt><trkpt lat="43.4147517" lon="2.9634067"><ele>240.0</ele><time>2026-04-04T15:00:29.443Z</time></trkpt><trkpt lat="43.4147433" lon="2.96351"><ele>240.0</ele><time>2026-04-04T15:00:30.444Z</time></trkpt><trkpt lat="43.4147217" lon="2.9636083"><ele>240.0</ele><time>2026-04-04T15:00:31.444Z</time></trkpt><trkpt lat="43.414695" lon="2.9637"><ele>240.0</ele><time>2026-04-04T15:00:32.443Z</time></trkpt><trkpt lat="43.414675" lon="2.9637933"><ele>239.8</ele><time>2026-04-04T15:00:33.443Z</time></trkpt><trkpt lat="43.414675" lon="2.963905"><ele>239.6</ele><time>2026-04-04T15:00:34.444Z</time></trkpt><trkpt lat="43.41468" lon="2.9640367"><ele>239.39999999999998</ele><time>2026-04-04T15:00:35.444Z</time></trkpt><trkpt lat="43.4146833" lon="2.9642033"><ele>239.2</ele><time>2026-04-04T15:00:36.444Z</time></trkpt><trkpt lat="43.4147" lon="2.9643867"><ele>239.0</ele><time>2026-04-04T15:00:37.444Z</time></trkpt><trkpt lat="43.414725" lon="2.9645783"><ele>238.33333333333334</ele><time>2026-04-04T15:00:38.443Z</time></trkpt><trkpt lat="43.414755" lon="2.96478"><ele>237.66666666666669</ele><time>2026-04-04T15:00:39.443Z</time></trkpt><trkpt lat="43.414785" lon="2.9649917"><ele>237.0</ele><time>2026-04-04T15:00:40.443Z</time></trkpt><trkpt lat="43.4148167" lon="2.965205"><ele>235.33333333333331</ele><time>2026-04-04T15:00:41.444Z</time></trkpt><trkpt lat="43.4148567" lon="2.96541"><ele>233.66666666666666</ele><time>2026-04-04T15:00:42.443Z</time></trkpt><trkpt lat="43.414905" lon="2.9656167"><ele>232.0</ele><time>2026-04-04T15:00:43.446Z</time></trkpt><trkpt lat="43.41496" lon="2.965825"><ele>231.66666666666666</ele><time>2026-04-04T15:00:44.446Z</time></trkpt><trkpt lat="43.4150167" lon="2.96603"><ele>231.33333333333331</ele><time>2026-04-04T15:00:45.447Z</time></trkpt><trkpt lat="43.4150717" lon="2.9662317"><ele>231.0</ele><time>2026-04-04T15:00:46.446Z</time></trkpt><trkpt lat="43.415125" lon="2.9664333"><ele>231.0</ele><time>2026-04-04T15:00:47.446Z</time></trkpt><trkpt lat="43.4151783" lon="2.9666417"><ele>231.0</ele><time>2026-04-04T15:00:48.446Z</time></trkpt><trkpt lat="43.4152283" lon="2.9668517"><ele>231.0</ele><time>2026-04-04T15:00:49.447Z</time></trkpt><trkpt lat="43.4152717" lon="2.9670633"><ele>230.66666666666669</ele><time>2026-04-04T15:00:50.446Z</time></trkpt><trkpt lat="43.4153017" lon="2.96728"><ele>230.33333333333334</ele><time>2026-04-04T15:00:51.446Z</time></trkpt><trkpt lat="43.4153167" lon="2.9675017"><ele>230.0</ele><time>2026-04-04T15:00:52.445Z</time></trkpt><trkpt lat="43.4153317" lon="2.9677233"><ele>229.33333333333334</ele><time>2026-04-04T15:00:53.444Z</time></trkpt><trkpt lat="43.415345" lon="2.9679483"><ele>228.66666666666669</ele><time>2026-04-04T15:00:54.446Z</time></trkpt><trkpt lat="43.415355" lon="2.96817"><ele>228.0</ele><time>2026-04-04T15:00:55.445Z</time></trkpt><trkpt lat="43.4153583" lon="2.9683883"><ele>227.33333333333331</ele><time>2026-04-04T15:00:56.443Z</time></trkpt><trkpt lat="43.415365" lon="2.96861"><ele>226.66666666666666</ele><time>2026-04-04T15:00:57.443Z</time></trkpt><trkpt lat="43.4153783" lon="2.9688283"><ele>226.0</ele><time>2026-04-04T15:00:58.442Z</time></trkpt><trkpt lat="43.4153917" lon="2.96905"><ele>224.66666666666666</ele><time>2026-04-04T15:00:59.442Z</time></trkpt><trkpt lat="43.4154" lon="2.9692717"><ele>223.33333333333331</ele><time>2026-04-04T15:01:00.443Z</time></trkpt><trkpt lat="43.4153967" lon="2.9694967"><ele>222.0</ele><time>2026-04-04T15:01:01.443Z</time></trkpt><trkpt lat="43.4153917" lon="2.9697217"><ele>222.0</ele><time>2026-04-04T15:01:02.442Z</time></trkpt><trkpt lat="43.4153917" lon="2.96994"><ele>222.0</ele><time>2026-04-04T15:01:03.444Z</time></trkpt><trkpt lat="43.4153933" lon="2.9701467"><ele>222.0</ele><time>2026-04-04T15:01:04.443Z</time></trkpt><trkpt lat="43.4154083" lon="2.97034"><ele>222.0</ele><time>2026-04-04T15:01:05.442Z</time></trkpt><trkpt lat="43.41544" lon="2.9705383"><ele>222.0</ele><time>2026-04-04T15:01:06.442Z</time></trkpt><trkpt lat="43.415485" lon="2.9707283"><ele>222.0</ele><time>2026-04-04T15:01:07.445Z</time></trkpt><trkpt lat="43.4155417" lon="2.9709083"><ele>222.0</ele><time>2026-04-04T15:01:08.442Z</time></trkpt><trkpt lat="43.4156017" lon="2.9710867"><ele>224.0</ele><time>2026-04-04T15:01:09.442Z</time></trkpt><trkpt lat="43.4156517" lon="2.971275"><ele>226.0</ele><time>2026-04-04T15:01:10.445Z</time></trkpt><trkpt lat="43.4156833" lon="2.9714533"><ele>228.0</ele><time>2026-04-04T15:01:11.445Z</time></trkpt><trkpt lat="43.4157" lon="2.9716"><ele>230.0</ele><time>2026-04-04T15:01:12.442Z</time></trkpt><trkpt lat="43.4157033" lon="2.97171"><ele>230.0</ele><time>2026-04-04T15:01:13.443Z</time></trkpt><trkpt lat="43.4156583" lon="2.9718367"><ele>230.0</ele><time>2026-04-04T15:01:15.442Z</time></trkpt><trkpt lat="43.4155317" lon="2.97191"><ele>230.0</ele><time>2026-04-04T15:01:17.444Z</time></trkpt><trkpt lat="43.4154417" lon="2.9719267"><ele>230.0</ele><time>2026-04-04T15:01:18.443Z</time></trkpt><trkpt lat="43.41534" lon="2.97193"><ele>230.0</ele><time>2026-04-04T15:01:19.444Z</time></trkpt><trkpt lat="43.4152333" lon="2.97193"><ele>228.2</ele><time>2026-04-04T15:01:20.442Z</time></trkpt><trkpt lat="43.4151217" lon="2.9719283"><ele>226.4</ele><time>2026-04-04T15:01:21.443Z</time></trkpt><trkpt lat="43.4150183" lon="2.9719333"><ele>224.60000000000002</ele><time>2026-04-04T15:01:22.443Z</time></trkpt><trkpt lat="43.414925" lon="2.9719383"><ele>222.8</ele><time>2026-04-04T15:01:23.445Z</time></trkpt><trkpt lat="43.4148367" lon="2.971945"><ele>221.0</ele><time>2026-04-04T15:01:24.442Z</time></trkpt><trkpt lat="43.4147583" lon="2.97196"><ele>221.00000000000003</ele><time>2026-04-04T15:01:25.445Z</time></trkpt><trkpt lat="43.4146933" lon="2.9719833"><ele>221.0</ele><time>2026-04-04T15:01:26.443Z</time></trkpt><trkpt lat="43.4146283" lon="2.9720083"><ele>221.0</ele><time>2026-04-04T15:01:27.443Z</time></trkpt><trkpt lat="43.4145667" lon="2.9720367"><ele>221.0</ele><time>2026-04-04T15:01:28.443Z</time></trkpt><trkpt lat="43.4145133" lon="2.97214"><ele>221.00000000000003</ele><time>2026-04-04T15:01:30.445Z</time></trkpt><trkpt lat="43.4145367" lon="2.97231"><ele>221.0</ele><time>2026-04-04T15:01:32.443Z</time></trkpt><trkpt lat="43.4145517" lon="2.9724083"><ele>220.66666666666669</ele><time>2026-04-04T15:01:33.444Z</time></trkpt><trkpt lat="43.4145483" lon="2.9725017"><ele>220.33333333333334</ele><time>2026-04-04T15:01:34.443Z</time></trkpt><trkpt lat="43.4145467" lon="2.9726083"><ele>220.0</ele><time>2026-04-04T15:01:35.443Z</time></trkpt><trkpt lat="43.4145417" lon="2.9727133"><ele>219.66666666666669</ele><time>2026-04-04T15:01:36.444Z</time></trkpt><trkpt lat="43.4145417" lon="2.9728167"><ele>219.33333333333334</ele><time>2026-04-04T15:01:37.444Z</time></trkpt><trkpt lat="43.41453" lon="2.97291"><ele>219.0</ele><time>2026-04-04T15:01:38.442Z</time></trkpt><trkpt lat="43.4145233" lon="2.97309"><ele>218.83333333333334</ele><time>2026-04-04T15:01:40.447Z</time></trkpt><trkpt lat="43.4145183" lon="2.97319"><ele>218.66666666666669</ele><time>2026-04-04T15:01:41.443Z</time></trkpt><trkpt lat="43.4145117" lon="2.9732767"><ele>218.5</ele><time>2026-04-04T15:01:42.443Z</time></trkpt><trkpt lat="43.4144967" lon="2.9733733"><ele>218.33333333333334</ele><time>2026-04-04T15:01:44.445Z</time></trkpt><trkpt lat="43.4145133" lon="2.973485"><ele>218.16666666666669</ele><time>2026-04-04T15:01:48.442Z</time></trkpt><trkpt lat="43.4145667" lon="2.9736033"><ele>218.0</ele><time>2026-04-04T15:01:50.445Z</time></trkpt><trkpt lat="43.414565" lon="2.9737767"><ele>218.0</ele><time>2026-04-04T15:01:52.443Z</time></trkpt><trkpt lat="43.4145517" lon="2.97389"><ele>218.0</ele><time>2026-04-04T15:01:53.446Z</time></trkpt><trkpt lat="43.4145417" lon="2.974015"><ele>218.0</ele><time>2026-04-04T15:01:54.446Z</time></trkpt><trkpt lat="43.4145233" lon="2.97413"><ele>218.0</ele><time>2026-04-04T15:01:55.444Z</time></trkpt><trkpt lat="43.4145017" lon="2.9742383"><ele>218.0</ele><time>2026-04-04T15:01:56.443Z</time></trkpt><trkpt lat="43.41444" lon="2.9743633"><ele>218.00000000000003</ele><time>2026-04-04T15:01:58.445Z</time></trkpt><trkpt lat="43.4144983" lon="2.9742233"><ele>218.0</ele><time>2026-04-04T15:02:05.444Z</time></trkpt><trkpt lat="43.4145167" lon="2.9741383"><ele>218.0</ele><time>2026-04-04T15:02:06.444Z</time></trkpt><trkpt lat="43.4145317" lon="2.9740417"><ele>218.0</ele><time>2026-04-04T15:02:07.443Z</time></trkpt><trkpt lat="43.4145383" lon="2.97394"><ele>218.00000000000003</ele><time>2026-04-04T15:02:08.442Z</time></trkpt><trkpt lat="43.4145417" lon="2.9738467"><ele>218.0</ele><time>2026-04-04T15:02:09.443Z</time></trkpt><trkpt lat="43.4146" lon="2.97372"><ele>219.75</ele><time>2026-04-04T15:02:11.442Z</time></trkpt><trkpt lat="43.414695" lon="2.9737"><ele>221.5</ele><time>2026-04-04T15:02:13.443Z</time></trkpt><trkpt lat="43.4147833" lon="2.97376"><ele>223.25</ele><time>2026-04-04T15:02:14.443Z</time></trkpt><trkpt lat="43.414895" lon="2.9738733"><ele>225.0</ele><time>2026-04-04T15:02:15.446Z</time></trkpt><trkpt lat="43.4149683" lon="2.97401"><ele>225.0</ele><time>2026-04-04T15:02:16.445Z</time></trkpt><trkpt lat="43.4150167" lon="2.9741733"><ele>225.0</ele><time>2026-04-04T15:02:17.445Z</time></trkpt><trkpt lat="43.4150383" lon="2.9743333"><ele>225.0</ele><time>2026-04-04T15:02:18.445Z</time></trkpt><trkpt lat="43.4150472" lon="2.9744903"><ele>225.0</ele><time>2026-04-04T15:02:19.444Z</time></trkpt><trkpt lat="43.4150302" lon="2.974654"><ele>225.0</ele><time>2026-04-04T15:02:20.442Z</time></trkpt><trkpt lat="43.4149881" lon="2.9748207"><ele>225.0</ele><time>2026-04-04T15:02:21.445Z</time></trkpt><trkpt lat="43.4149316" lon="2.9749943"><ele>225.0</ele><time>2026-04-04T15:02:22.445Z</time></trkpt><trkpt lat="43.4148742" lon="2.9751789"><ele>225.0</ele><time>2026-04-04T15:02:23.446Z</time></trkpt><trkpt lat="43.4148153" lon="2.9753693"><ele>226.0</ele><time>2026-04-04T15:02:24.443Z</time></trkpt><trkpt lat="43.4147539" lon="2.9755646"><ele>227.0</ele><time>2026-04-04T15:02:25.444Z</time></trkpt><trkpt lat="43.4146874" lon="2.9757544"><ele>228.0</ele><time>2026-04-04T15:02:26.443Z</time></trkpt><trkpt lat="43.4146128" lon="2.9759397"><ele>226.25</ele><time>2026-04-04T15:02:27.443Z</time></trkpt><trkpt lat="43.4145315" lon="2.9761154"><ele>224.5</ele><time>2026-04-04T15:02:28.443Z</time></trkpt><trkpt lat="43.4144488" lon="2.9762834"><ele>222.75</ele><time>2026-04-04T15:02:29.445Z</time></trkpt><trkpt lat="43.4143644" lon="2.9764467"><ele>221.0</ele><time>2026-04-04T15:02:30.443Z</time></trkpt><trkpt lat="43.4142789" lon="2.9766064"><ele>221.5</ele><time>2026-04-04T15:02:31.444Z</time></trkpt><trkpt lat="43.4141974" lon="2.9767713"><ele>222.0</ele><time>2026-04-04T15:02:32.444Z</time></trkpt><trkpt lat="43.4141202" lon="2.9769401"><ele>222.5</ele><time>2026-04-04T15:02:33.443Z</time></trkpt><trkpt lat="43.4140567" lon="2.9771071"><ele>223.0</ele><time>2026-04-04T15:02:34.444Z</time></trkpt><trkpt lat="43.4140113" lon="2.9772709"><ele>223.0</ele><time>2026-04-04T15:02:35.444Z</time></trkpt><trkpt lat="43.4139844" lon="2.9774394"><ele>223.0</ele><time>2026-04-04T15:02:36.444Z</time></trkpt><trkpt lat="43.4139767" lon="2.9776061"><ele>223.0</ele><time>2026-04-04T15:02:37.444Z</time></trkpt><trkpt lat="43.4139725" lon="2.9777768"><ele>223.0</ele><time>2026-04-04T15:02:38.443Z</time></trkpt><trkpt lat="43.4139664" lon="2.9779537"><ele>223.5</ele><time>2026-04-04T15:02:39.443Z</time></trkpt><trkpt lat="43.4139599" lon="2.9781333"><ele>224.0</ele><time>2026-04-04T15:02:40.443Z</time></trkpt><trkpt lat="43.4139593" lon="2.9783138"><ele>224.5</ele><time>2026-04-04T15:02:41.444Z</time></trkpt><trkpt lat="43.4139604" lon="2.9785002"><ele>225.0</ele><time>2026-04-04T15:02:42.443Z</time></trkpt><trkpt lat="43.4139481" lon="2.9786849"><ele>225.25</ele><time>2026-04-04T15:02:43.446Z</time></trkpt><trkpt lat="43.413908" lon="2.9788609"><ele>225.5</ele><time>2026-04-04T15:02:44.443Z</time></trkpt><trkpt lat="43.4138562" lon="2.9790354"><ele>225.75</ele><time>2026-04-04T15:02:45.442Z</time></trkpt><trkpt lat="43.4138127" lon="2.9792153"><ele>226.0</ele><time>2026-04-04T15:02:46.445Z</time></trkpt><trkpt lat="43.4137792" lon="2.9794022"><ele>225.25</ele><time>2026-04-04T15:02:47.449Z</time></trkpt><trkpt lat="43.4137529" lon="2.979591"><ele>224.5</ele><time>2026-04-04T15:02:48.444Z</time></trkpt><trkpt lat="43.413726" lon="2.9797847"><ele>223.75</ele><time>2026-04-04T15:02:49.446Z</time></trkpt><trkpt lat="43.4136953" lon="2.9799817"><ele>223.0</ele><time>2026-04-04T15:02:50.444Z</time></trkpt><trkpt lat="43.4136683" lon="2.9801764"><ele>223.0</ele><time>2026-04-04T15:02:51.446Z</time></trkpt><trkpt lat="43.4136507" lon="2.9803713"><ele>223.0</ele><time>2026-04-04T15:02:52.444Z</time></trkpt><trkpt lat="43.4136287" lon="2.9805591"><ele>223.0</ele><time>2026-04-04T15:02:53.443Z</time></trkpt><trkpt lat="43.4135917" lon="2.9807442"><ele>223.0</ele><time>2026-04-04T15:02:54.443Z</time></trkpt><trkpt lat="43.4135394" lon="2.9809281"><ele>223.0</ele><time>2026-04-04T15:02:55.445Z</time></trkpt><trkpt lat="43.4134817" lon="2.9811179"><ele>223.0</ele><time>2026-04-04T15:02:56.442Z</time></trkpt><trkpt lat="43.4134248" lon="2.9813096"><ele>223.0</ele><time>2026-04-04T15:02:57.443Z</time></trkpt><trkpt lat="43.413366" lon="2.981499"><ele>223.0</ele><time>2026-04-04T15:02:58.443Z</time></trkpt><trkpt lat="43.4133045" lon="2.9816816"><ele>223.0</ele><time>2026-04-04T15:02:59.442Z</time></trkpt><trkpt lat="43.4132469" lon="2.9818642"><ele>223.0</ele><time>2026-04-04T15:03:00.444Z</time></trkpt><trkpt lat="43.4131967" lon="2.9820487"><ele>223.0</ele><time>2026-04-04T15:03:01.444Z</time></trkpt><trkpt lat="43.4131503" lon="2.982232"><ele>223.0</ele><time>2026-04-04T15:03:02.442Z</time></trkpt><trkpt lat="43.4131068" lon="2.9824139"><ele>222.5</ele><time>2026-04-04T15:03:03.443Z</time></trkpt><trkpt lat="43.4130784" lon="2.9826013"><ele>222.0</ele><time>2026-04-04T15:03:04.444Z</time></trkpt><trkpt lat="43.4130646" lon="2.9827914"><ele>221.5</ele><time>2026-04-04T15:03:05.442Z</time></trkpt><trkpt lat="43.4130555" lon="2.9829802"><ele>221.0</ele><time>2026-04-04T15:03:06.442Z</time></trkpt><trkpt lat="43.4130434" lon="2.9831628"><ele>221.0</ele><time>2026-04-04T15:03:07.444Z</time></trkpt><trkpt lat="43.4130306" lon="2.98332"><ele>221.00000000000003</ele><time>2026-04-04T15:03:08.442Z</time></trkpt><trkpt lat="43.413016" lon="2.983454"><ele>221.00000000000003</ele><time>2026-04-04T15:03:09.443Z</time></trkpt><trkpt lat="43.4129935" lon="2.9835544"><ele>221.0</ele><time>2026-04-04T15:03:10.446Z</time></trkpt><trkpt lat="43.4129568" lon="2.9836485"><ele>221.0</ele><time>2026-04-04T15:03:11.442Z</time></trkpt><trkpt lat="43.4129163" lon="2.9837522"><ele>221.4</ele><time>2026-04-04T15:03:12.445Z</time></trkpt><trkpt lat="43.4128826" lon="2.9838701"><ele>221.8</ele><time>2026-04-04T15:03:13.446Z</time></trkpt><trkpt lat="43.4128578" lon="2.9839976"><ele>222.20000000000002</ele><time>2026-04-04T15:03:14.445Z</time></trkpt><trkpt lat="43.4128281" lon="2.9841331"><ele>222.60000000000002</ele><time>2026-04-04T15:03:15.445Z</time></trkpt><trkpt lat="43.4127918" lon="2.9842681"><ele>223.0</ele><time>2026-04-04T15:03:16.443Z</time></trkpt><trkpt lat="43.4127589" lon="2.9844082"><ele>223.0</ele><time>2026-04-04T15:03:17.444Z</time></trkpt><trkpt lat="43.412734" lon="2.9845551"><ele>223.0</ele><time>2026-04-04T15:03:18.443Z</time></trkpt><trkpt lat="43.4127196" lon="2.9847115"><ele>223.0</ele><time>2026-04-04T15:03:19.443Z</time></trkpt><trkpt lat="43.4127129" lon="2.9848828"><ele>223.0</ele><time>2026-04-04T15:03:20.443Z</time></trkpt><trkpt lat="43.4127059" lon="2.9850588"><ele>222.25</ele><time>2026-04-04T15:03:21.445Z</time></trkpt><trkpt lat="43.4126937" lon="2.9852361"><ele>221.5</ele><time>2026-04-04T15:03:22.443Z</time></trkpt><trkpt lat="43.4126831" lon="2.9854129"><ele>220.75</ele><time>2026-04-04T15:03:23.443Z</time></trkpt><trkpt lat="43.41268" lon="2.9855762"><ele>220.0</ele><time>2026-04-04T15:03:24.443Z</time></trkpt><trkpt lat="43.4126847" lon="2.985728"><ele>218.8</ele><time>2026-04-04T15:03:25.444Z</time></trkpt><trkpt lat="43.412691" lon="2.9858717"><ele>217.6</ele><time>2026-04-04T15:03:26.443Z</time></trkpt><trkpt lat="43.4126927" lon="2.9860152"><ele>216.39999999999998</ele><time>2026-04-04T15:03:27.444Z</time></trkpt><trkpt lat="43.4126869" lon="2.986159"><ele>215.2</ele><time>2026-04-04T15:03:28.444Z</time></trkpt><trkpt lat="43.4126688" lon="2.9862994"><ele>214.0</ele><time>2026-04-04T15:03:29.444Z</time></trkpt><trkpt lat="43.4126544" lon="2.986438"><ele>213.99999999999997</ele><time>2026-04-04T15:03:30.444Z</time></trkpt><trkpt lat="43.4126461" lon="2.9865789"><ele>214.0</ele><time>2026-04-04T15:03:31.446Z</time></trkpt><trkpt lat="43.4126355" lon="2.9867156"><ele>214.0</ele><time>2026-04-04T15:03:32.444Z</time></trkpt><trkpt lat="43.4126238" lon="2.9868342"><ele>214.0</ele><time>2026-04-04T15:03:33.443Z</time></trkpt><trkpt lat="43.4126109" lon="2.9869321"><ele>213.99999999999997</ele><time>2026-04-04T15:03:34.443Z</time></trkpt><trkpt lat="43.4126326" lon="2.9870375"><ele>214.0</ele><time>2026-04-04T15:03:36.444Z</time></trkpt><trkpt lat="43.4127065" lon="2.9870255"><ele>212.6</ele><time>2026-04-04T15:03:38.445Z</time></trkpt><trkpt lat="43.412832" lon="2.9869497"><ele>211.2</ele><time>2026-04-04T15:03:40.446Z</time></trkpt><trkpt lat="43.4129124" lon="2.9869163"><ele>209.79999999999998</ele><time>2026-04-04T15:03:41.445Z</time></trkpt><trkpt lat="43.4130072" lon="2.9868911"><ele>208.39999999999998</ele><time>2026-04-04T15:03:42.446Z</time></trkpt><trkpt lat="43.4131146" lon="2.9868756"><ele>207.0</ele><time>2026-04-04T15:03:43.446Z</time></trkpt><trkpt lat="43.4132288" lon="2.9868646"><ele>207.0</ele><time>2026-04-04T15:03:44.442Z</time></trkpt><trkpt lat="43.4133439" lon="2.986852"><ele>207.0</ele><time>2026-04-04T15:03:45.443Z</time></trkpt><trkpt lat="43.4134623" lon="2.9868397"><ele>207.0</ele><time>2026-04-04T15:03:46.447Z</time></trkpt><trkpt lat="43.413584" lon="2.9868295"><ele>207.0</ele><time>2026-04-04T15:03:47.442Z</time></trkpt><trkpt lat="43.4136923" lon="2.9868222"><ele>207.0</ele><time>2026-04-04T15:03:48.444Z</time></trkpt><trkpt lat="43.4137874" lon="2.9868189"><ele>207.0</ele><time>2026-04-04T15:03:49.443Z</time></trkpt><trkpt lat="43.4138669" lon="2.9868247"><ele>207.0</ele><time>2026-04-04T15:03:50.443Z</time></trkpt><trkpt lat="43.4139355" lon="2.9868344"><ele>207.0</ele><time>2026-04-04T15:03:51.443Z</time></trkpt><trkpt lat="43.4139864" lon="2.9869299"><ele>207.0</ele><time>2026-04-04T15:03:53.443Z</time></trkpt><trkpt lat="43.4139742" lon="2.9870459"><ele>207.0</ele><time>2026-04-04T15:03:54.443Z</time></trkpt><trkpt lat="43.413959" lon="2.9871851"><ele>209.25</ele><time>2026-04-04T15:03:55.443Z</time></trkpt><trkpt lat="43.4139466" lon="2.9873422"><ele>211.5</ele><time>2026-04-04T15:03:56.443Z</time></trkpt><trkpt lat="43.4139399" lon="2.9875103"><ele>213.75</ele><time>2026-04-04T15:03:57.443Z</time></trkpt><trkpt lat="43.4139358" lon="2.9876912"><ele>216.0</ele><time>2026-04-04T15:03:58.443Z</time></trkpt><trkpt lat="43.4139363" lon="2.9878689"><ele>216.0</ele><time>2026-04-04T15:03:59.444Z</time></trkpt><trkpt lat="43.4139364" lon="2.9880373"><ele>216.00000000000003</ele><time>2026-04-04T15:04:00.445Z</time></trkpt><trkpt lat="43.4139347" lon="2.9881782"><ele>216.00000000000003</ele><time>2026-04-04T15:04:01.447Z</time></trkpt><trkpt lat="43.4139328" lon="2.9882907"><ele>216.0</ele><time>2026-04-04T15:04:02.442Z</time></trkpt><trkpt lat="43.41392" lon="2.9883785"><ele>216.0</ele><time>2026-04-04T15:04:03.442Z</time></trkpt><trkpt lat="43.4138224" lon="2.9884653"><ele>214.8</ele><time>2026-04-04T15:04:05.442Z</time></trkpt><trkpt lat="43.4137377" lon="2.9884701"><ele>213.60000000000002</ele><time>2026-04-04T15:04:06.443Z</time></trkpt><trkpt lat="43.4136294" lon="2.9884651"><ele>212.4</ele><time>2026-04-04T15:04:07.446Z</time></trkpt><trkpt lat="43.4135175" lon="2.988464"><ele>211.2</ele><time>2026-04-04T15:04:08.443Z</time></trkpt><trkpt lat="43.4134211" lon="2.9884685"><ele>210.0</ele><time>2026-04-04T15:04:09.442Z</time></trkpt><trkpt lat="43.4133496" lon="2.9884895"><ele>210.0</ele><time>2026-04-04T15:04:10.444Z</time></trkpt><trkpt lat="43.4133074" lon="2.9886028"><ele>210.0</ele><time>2026-04-04T15:04:12.445Z</time></trkpt><trkpt lat="43.4133207" lon="2.9887025"><ele>210.0</ele><time>2026-04-04T15:04:13.443Z</time></trkpt><trkpt lat="43.4133394" lon="2.9888269"><ele>210.0</ele><time>2026-04-04T15:04:14.443Z</time></trkpt><trkpt lat="43.413352" lon="2.98898"><ele>210.0</ele><time>2026-04-04T15:04:15.443Z</time></trkpt><trkpt lat="43.4133631" lon="2.9891487"><ele>210.75</ele><time>2026-04-04T15:04:16.443Z</time></trkpt><trkpt lat="43.4133729" lon="2.9893286"><ele>211.5</ele><time>2026-04-04T15:04:17.443Z</time></trkpt><trkpt lat="43.4133803" lon="2.9895134"><ele>212.25</ele><time>2026-04-04T15:04:18.443Z</time></trkpt><trkpt lat="43.4133869" lon="2.9897015"><ele>213.0</ele><time>2026-04-04T15:04:19.443Z</time></trkpt><trkpt lat="43.4133922" lon="2.9898876"><ele>213.0</ele><time>2026-04-04T15:04:20.444Z</time></trkpt><trkpt lat="43.4133956" lon="2.9900609"><ele>213.0</ele><time>2026-04-04T15:04:21.444Z</time></trkpt><trkpt lat="43.4134001" lon="2.9902075"><ele>213.0</ele><time>2026-04-04T15:04:22.444Z</time></trkpt><trkpt lat="43.4134068" lon="2.990328"><ele>213.0</ele><time>2026-04-04T15:04:23.443Z</time></trkpt><trkpt lat="43.4134179" lon="2.9904312"><ele>213.0</ele><time>2026-04-04T15:04:24.444Z</time></trkpt><trkpt lat="43.4134387" lon="2.9905203"><ele>213.0</ele><time>2026-04-04T15:04:25.445Z</time></trkpt><trkpt lat="43.4135252" lon="2.9905836"><ele>213.0</ele><time>2026-04-04T15:04:27.446Z</time></trkpt><trkpt lat="43.4136027" lon="2.9905823"><ele>213.0</ele><time>2026-04-04T15:04:28.443Z</time></trkpt><trkpt lat="43.4136935" lon="2.9905741"><ele>213.0</ele><time>2026-04-04T15:04:29.444Z</time></trkpt><trkpt lat="43.4137707" lon="2.9905856"><ele>213.0</ele><time>2026-04-04T15:04:30.443Z</time></trkpt><trkpt lat="43.4138569" lon="2.9906654"><ele>213.0</ele><time>2026-04-04T15:04:32.443Z</time></trkpt><trkpt lat="43.413823" lon="2.9908621"><ele>213.5</ele><time>2026-04-04T15:04:34.445Z</time></trkpt><trkpt lat="43.4137831" lon="2.9910159"><ele>214.0</ele><time>2026-04-04T15:04:35.446Z</time></trkpt><trkpt lat="43.4137578" lon="2.9911973"><ele>214.5</ele><time>2026-04-04T15:04:36.444Z</time></trkpt><trkpt lat="43.4137437" lon="2.991388"><ele>215.0</ele><time>2026-04-04T15:04:37.443Z</time></trkpt><trkpt lat="43.4137367" lon="2.9915877"><ele>214.66666666666669</ele><time>2026-04-04T15:04:38.444Z</time></trkpt><trkpt lat="43.4137388" lon="2.9917888"><ele>214.33333333333331</ele><time>2026-04-04T15:04:39.443Z</time></trkpt><trkpt lat="43.4137371" lon="2.9919977"><ele>214.0</ele><time>2026-04-04T15:04:40.444Z</time></trkpt><trkpt lat="43.4137235" lon="2.9922199"><ele>214.0</ele><time>2026-04-04T15:04:41.444Z</time></trkpt><trkpt lat="43.4137087" lon="2.9924402"><ele>214.0</ele><time>2026-04-04T15:04:42.446Z</time></trkpt><trkpt lat="43.4136959" lon="2.9926471"><ele>214.0</ele><time>2026-04-04T15:04:43.445Z</time></trkpt><trkpt lat="43.4136845" lon="2.9928432"><ele>213.79999999999998</ele><time>2026-04-04T15:04:44.443Z</time></trkpt><trkpt lat="43.4136793" lon="2.9930106"><ele>213.59999999999997</ele><time>2026-04-04T15:04:45.443Z</time></trkpt><trkpt lat="43.4136815" lon="2.9931404"><ele>213.4</ele><time>2026-04-04T15:04:46.444Z</time></trkpt><trkpt lat="43.4136843" lon="2.9932393"><ele>213.2</ele><time>2026-04-04T15:04:47.443Z</time></trkpt><trkpt lat="43.4136728" lon="2.9933253"><ele>213.0</ele><time>2026-04-04T15:04:48.445Z</time></trkpt><trkpt lat="43.4135752" lon="2.9934432"><ele>213.83333333333334</ele><time>2026-04-04T15:04:50.445Z</time></trkpt><trkpt lat="43.4134884" lon="2.9934817"><ele>214.66666666666669</ele><time>2026-04-04T15:04:51.443Z</time></trkpt><trkpt lat="43.4134006" lon="2.9935273"><ele>215.5</ele><time>2026-04-04T15:04:52.443Z</time></trkpt><trkpt lat="43.4133209" lon="2.9935691"><ele>216.33333333333334</ele><time>2026-04-04T15:04:53.444Z</time></trkpt><trkpt lat="43.413247" lon="2.9935982"><ele>217.16666666666669</ele><time>2026-04-04T15:04:54.443Z</time></trkpt><trkpt lat="43.4131745" lon="2.9936027"><ele>218.0</ele><time>2026-04-04T15:04:55.444Z</time></trkpt><trkpt lat="43.4131012" lon="2.9935792"><ele>218.0</ele><time>2026-04-04T15:04:56.443Z</time></trkpt><trkpt lat="43.4130218" lon="2.9935284"><ele>218.0</ele><time>2026-04-04T15:04:57.444Z</time></trkpt><trkpt lat="43.4129396" lon="2.9934842"><ele>218.0</ele><time>2026-04-04T15:04:58.444Z</time></trkpt><trkpt lat="43.4128496" lon="2.9934542"><ele>218.0</ele><time>2026-04-04T15:04:59.443Z</time></trkpt><trkpt lat="43.4127547" lon="2.9934541"><ele>218.0</ele><time>2026-04-04T15:05:00.443Z</time></trkpt><trkpt lat="43.4126438" lon="2.9934941"><ele>217.75</ele><time>2026-04-04T15:05:01.444Z</time></trkpt><trkpt lat="43.4125241" lon="2.9935323"><ele>217.5</ele><time>2026-04-04T15:05:02.443Z</time></trkpt><trkpt lat="43.4124054" lon="2.9935699"><ele>217.25</ele><time>2026-04-04T15:05:03.444Z</time></trkpt><trkpt lat="43.4122913" lon="2.9936094"><ele>217.0</ele><time>2026-04-04T15:05:04.444Z</time></trkpt><trkpt lat="43.4121851" lon="2.9936674"><ele>214.25</ele><time>2026-04-04T15:05:05.444Z</time></trkpt><trkpt lat="43.4120786" lon="2.9937391"><ele>211.5</ele><time>2026-04-04T15:05:06.444Z</time></trkpt><trkpt lat="43.4119733" lon="2.9938367"><ele>208.75</ele><time>2026-04-04T15:05:07.444Z</time></trkpt><trkpt lat="43.4118533" lon="2.9939617"><ele>206.0</ele><time>2026-04-04T15:05:08.444Z</time></trkpt><trkpt lat="43.41173" lon="2.994085"><ele>206.75</ele><time>2026-04-04T15:05:09.443Z</time></trkpt><trkpt lat="43.41161" lon="2.9942133"><ele>207.5</ele><time>2026-04-04T15:05:10.443Z</time></trkpt><trkpt lat="43.4114967" lon="2.9943517"><ele>208.25</ele><time>2026-04-04T15:05:11.443Z</time></trkpt><trkpt lat="43.411385" lon="2.9944733"><ele>209.0</ele><time>2026-04-04T15:05:12.446Z</time></trkpt><trkpt lat="43.4112733" lon="2.9945917"><ele>204.25</ele><time>2026-04-04T15:05:13.445Z</time></trkpt><trkpt lat="43.4111567" lon="2.9946883"><ele>199.5</ele><time>2026-04-04T15:05:14.445Z</time></trkpt><trkpt lat="43.4110433" lon="2.9947767"><ele>194.75</ele><time>2026-04-04T15:05:15.442Z</time></trkpt><trkpt lat="43.4109333" lon="2.9948683"><ele>190.0</ele><time>2026-04-04T15:05:16.443Z</time></trkpt><trkpt lat="43.410825" lon="2.9949433"><ele>190.75</ele><time>2026-04-04T15:05:17.447Z</time></trkpt><trkpt lat="43.41071" lon="2.99501"><ele>191.5</ele><time>2026-04-04T15:05:18.443Z</time></trkpt><trkpt lat="43.4105833" lon="2.9950417"><ele>192.25</ele><time>2026-04-04T15:05:19.445Z</time></trkpt><trkpt lat="43.4104617" lon="2.9950767"><ele>193.0</ele><time>2026-04-04T15:05:20.443Z</time></trkpt><trkpt lat="43.4103267" lon="2.9950783"><ele>190.0</ele><time>2026-04-04T15:05:21.445Z</time></trkpt><trkpt lat="43.4101933" lon="2.9950533"><ele>187.0</ele><time>2026-04-04T15:05:22.442Z</time></trkpt><trkpt lat="43.4100767" lon="2.995015"><ele>184.0</ele><time>2026-04-04T15:05:23.449Z</time></trkpt><trkpt lat="43.4099883" lon="2.9949783"><ele>181.0</ele><time>2026-04-04T15:05:24.444Z</time></trkpt><trkpt lat="43.4099117" lon="2.9949567"><ele>178.0</ele><time>2026-04-04T15:05:25.443Z</time></trkpt><trkpt lat="43.4098217" lon="2.994985"><ele>178.0</ele><time>2026-04-04T15:05:27.442Z</time></trkpt><trkpt lat="43.4098217" lon="2.9951233"><ele>178.0</ele><time>2026-04-04T15:05:29.442Z</time></trkpt><trkpt lat="43.40987" lon="2.995245"><ele>178.0</ele><time>2026-04-04T15:05:30.443Z</time></trkpt><trkpt lat="43.4099517" lon="2.9954167"><ele>178.0</ele><time>2026-04-04T15:05:31.446Z</time></trkpt><trkpt lat="43.4099983" lon="2.9955917"><ele>178.0</ele><time>2026-04-04T15:05:32.444Z</time></trkpt><trkpt lat="43.4100433" lon="2.9958117"><ele>178.0</ele><time>2026-04-04T15:05:33.446Z</time></trkpt><trkpt lat="43.41007" lon="2.996015"><ele>178.0</ele><time>2026-04-04T15:05:34.442Z</time></trkpt><trkpt lat="43.41011" lon="2.9962317"><ele>177.0</ele><time>2026-04-04T15:05:35.443Z</time></trkpt><trkpt lat="43.41016" lon="2.9964483"><ele>176.0</ele><time>2026-04-04T15:05:36.446Z</time></trkpt><trkpt lat="43.41021" lon="2.996665"><ele>175.0</ele><time>2026-04-04T15:05:37.444Z</time></trkpt><trkpt lat="43.41024" lon="2.996885"><ele>174.66666666666669</ele><time>2026-04-04T15:05:38.445Z</time></trkpt><trkpt lat="43.4102433" lon="2.9971"><ele>174.33333333333334</ele><time>2026-04-04T15:05:39.444Z</time></trkpt><trkpt lat="43.4102367" lon="2.99733"><ele>174.0</ele><time>2026-04-04T15:05:40.443Z</time></trkpt><trkpt lat="43.4102217" lon="2.9975667"><ele>173.0</ele><time>2026-04-04T15:05:41.443Z</time></trkpt><trkpt lat="43.4102067" lon="2.9978017"><ele>172.0</ele><time>2026-04-04T15:05:42.445Z</time></trkpt><trkpt lat="43.4101867" lon="2.9980267"><ele>171.0</ele><time>2026-04-04T15:05:43.446Z</time></trkpt><trkpt lat="43.4101633" lon="2.9982383"><ele>171.0</ele><time>2026-04-04T15:05:44.445Z</time></trkpt><trkpt lat="43.41014" lon="2.99844"><ele>171.0</ele><time>2026-04-04T15:05:45.442Z</time></trkpt><trkpt lat="43.4101317" lon="2.9986233"><ele>171.0</ele><time>2026-04-04T15:05:46.444Z</time></trkpt><trkpt lat="43.4101433" lon="2.9987817"><ele>171.0</ele><time>2026-04-04T15:05:47.442Z</time></trkpt><trkpt lat="43.4101783" lon="2.9989267"><ele>171.0</ele><time>2026-04-04T15:05:48.444Z</time></trkpt><trkpt lat="43.41024" lon="2.9990633"><ele>171.0</ele><time>2026-04-04T15:05:49.444Z</time></trkpt><trkpt lat="43.4103033" lon="2.99921"><ele>171.0</ele><time>2026-04-04T15:05:50.442Z</time></trkpt><trkpt lat="43.4103567" lon="2.9993717"><ele>171.0</ele><time>2026-04-04T15:05:51.443Z</time></trkpt><trkpt lat="43.4104017" lon="2.999555"><ele>170.4</ele><time>2026-04-04T15:05:52.443Z</time></trkpt><trkpt lat="43.4104433" lon="2.999745"><ele>169.8</ele><time>2026-04-04T15:05:53.442Z</time></trkpt><trkpt lat="43.41048" lon="2.9999133"><ele>169.20000000000002</ele><time>2026-04-04T15:05:54.444Z</time></trkpt><trkpt lat="43.4104983" lon="3.00003"><ele>168.60000000000002</ele><time>2026-04-04T15:05:55.443Z</time></trkpt><trkpt lat="43.4105033" lon="3.0001183"><ele>168.0</ele><time>2026-04-04T15:05:56.442Z</time></trkpt><trkpt lat="43.4104517" lon="3.0001817"><ele>168.0</ele><time>2026-04-04T15:05:58.443Z</time></trkpt><trkpt lat="43.4103867" lon="3.000175"><ele>168.0</ele><time>2026-04-04T15:05:59.443Z</time></trkpt><trkpt lat="43.4103217" lon="3.00018"><ele>168.0</ele><time>2026-04-04T15:06:00.443Z</time></trkpt><trkpt lat="43.4102533" lon="3.0001883"><ele>168.0</ele><time>2026-04-04T15:06:01.443Z</time></trkpt><trkpt lat="43.4101833" lon="3.0002067"><ele>168.0</ele><time>2026-04-04T15:06:02.443Z</time></trkpt><trkpt lat="43.4101" lon="3.0002333"><ele>168.0</ele><time>2026-04-04T15:06:03.442Z</time></trkpt><trkpt lat="43.40999" lon="3.00027"><ele>168.0</ele><time>2026-04-04T15:06:04.442Z</time></trkpt><trkpt lat="43.4098617" lon="3.00031"><ele>168.0</ele><time>2026-04-04T15:06:05.443Z</time></trkpt><trkpt lat="43.4097167" lon="3.000355"><ele>168.0</ele><time>2026-04-04T15:06:06.443Z</time></trkpt><trkpt lat="43.4095617" lon="3.000415"><ele>168.0</ele><time>2026-04-04T15:06:07.443Z</time></trkpt><trkpt lat="43.4093967" lon="3.0004717"><ele>167.0</ele><time>2026-04-04T15:06:08.442Z</time></trkpt><trkpt lat="43.4092333" lon="3.00053"><ele>166.0</ele><time>2026-04-04T15:06:09.444Z</time></trkpt><trkpt lat="43.409075" lon="3.0005833"><ele>165.0</ele><time>2026-04-04T15:06:10.443Z</time></trkpt><trkpt lat="43.408925" lon="3.0006383"><ele>164.75</ele><time>2026-04-04T15:06:11.442Z</time></trkpt><trkpt lat="43.4087917" lon="3.0006933"><ele>164.5</ele><time>2026-04-04T15:06:12.442Z</time></trkpt><trkpt lat="43.408685" lon="3.00074"><ele>164.25</ele><time>2026-04-04T15:06:13.444Z</time></trkpt><trkpt lat="43.408605" lon="3.0007733"><ele>164.0</ele><time>2026-04-04T15:06:14.442Z</time></trkpt><trkpt lat="43.4085033" lon="3.0008583"><ele>164.79999999999998</ele><time>2026-04-04T15:06:16.446Z</time></trkpt><trkpt lat="43.4084583" lon="3.0009317"><ele>165.6</ele><time>2026-04-04T15:06:17.445Z</time></trkpt><trkpt lat="43.4084133" lon="3.0010333"><ele>166.4</ele><time>2026-04-04T15:06:18.443Z</time></trkpt><trkpt lat="43.40836" lon="3.001155"><ele>167.2</ele><time>2026-04-04T15:06:19.443Z</time></trkpt><trkpt lat="43.4083033" lon="3.0012917"><ele>168.0</ele><time>2026-04-04T15:06:20.443Z</time></trkpt><trkpt lat="43.4082417" lon="3.0014483"><ele>168.0</ele><time>2026-04-04T15:06:21.442Z</time></trkpt><trkpt lat="43.4081767" lon="3.00162"><ele>168.0</ele><time>2026-04-04T15:06:22.443Z</time></trkpt><trkpt lat="43.4081083" lon="3.0018067"><ele>168.0</ele><time>2026-04-04T15:06:23.443Z</time></trkpt><trkpt lat="43.4080367" lon="3.001995"><ele>168.0</ele><time>2026-04-04T15:06:24.442Z</time></trkpt><trkpt lat="43.4079667" lon="3.0021867"><ele>173.0</ele><time>2026-04-04T15:06:25.445Z</time></trkpt><trkpt lat="43.407895" lon="3.0023933"><ele>178.0</ele><time>2026-04-04T15:06:26.442Z</time></trkpt><trkpt lat="43.4078217" lon="3.0026083"><ele>183.0</ele><time>2026-04-04T15:06:27.443Z</time></trkpt><trkpt lat="43.4077583" lon="3.0028333"><ele>183.0</ele><time>2026-04-04T15:06:28.444Z</time></trkpt><trkpt lat="43.407695" lon="3.00306"><ele>183.0</ele><time>2026-04-04T15:06:29.443Z</time></trkpt><trkpt lat="43.4076317" lon="3.0032867"><ele>183.0</ele><time>2026-04-04T15:06:30.444Z</time></trkpt><trkpt lat="43.4075717" lon="3.00351"><ele>183.0</ele><time>2026-04-04T15:06:31.444Z</time></trkpt><trkpt lat="43.407525" lon="3.003735"><ele>183.0</ele><time>2026-04-04T15:06:32.445Z</time></trkpt><trkpt lat="43.407495" lon="3.0039633"><ele>183.0</ele><time>2026-04-04T15:06:33.444Z</time></trkpt><trkpt lat="43.4074717" lon="3.0041917"><ele>184.33333333333334</ele><time>2026-04-04T15:06:34.443Z</time></trkpt><trkpt lat="43.4074517" lon="3.00442"><ele>185.66666666666669</ele><time>2026-04-04T15:06:35.447Z</time></trkpt><trkpt lat="43.4074267" lon="3.0046333"><ele>187.0</ele><time>2026-04-04T15:06:36.445Z</time></trkpt><trkpt lat="43.4074033" lon="3.00482"><ele>187.0</ele><time>2026-04-04T15:06:37.444Z</time></trkpt><trkpt lat="43.4073717" lon="3.004985"><ele>187.0</ele><time>2026-04-04T15:06:38.445Z</time></trkpt><trkpt lat="43.4073317" lon="3.0051267"><ele>187.0</ele><time>2026-04-04T15:06:39.446Z</time></trkpt><trkpt lat="43.4072833" lon="3.0052483"><ele>187.0</ele><time>2026-04-04T15:06:40.446Z</time></trkpt><trkpt lat="43.4072233" lon="3.0053433"><ele>187.0</ele><time>2026-04-04T15:06:41.443Z</time></trkpt><trkpt lat="43.4071533" lon="3.0054117"><ele>187.66666666666669</ele><time>2026-04-04T15:06:42.443Z</time></trkpt><trkpt lat="43.4070817" lon="3.0054633"><ele>188.33333333333334</ele><time>2026-04-04T15:06:43.444Z</time></trkpt><trkpt lat="43.4070167" lon="3.0055067"><ele>189.0</ele><time>2026-04-04T15:06:44.443Z</time></trkpt><trkpt lat="43.406935" lon="3.0056183"><ele>189.66666666666666</ele><time>2026-04-04T15:06:46.444Z</time></trkpt><trkpt lat="43.4069267" lon="3.005705"><ele>190.33333333333331</ele><time>2026-04-04T15:06:47.442Z</time></trkpt><trkpt lat="43.406925" lon="3.0058033"><ele>191.0</ele><time>2026-04-04T15:06:48.445Z</time></trkpt><trkpt lat="43.4069283" lon="3.00592"><ele>189.0</ele><time>2026-04-04T15:06:49.443Z</time></trkpt><trkpt lat="43.4069583" lon="3.0060733"><ele>187.0</ele><time>2026-04-04T15:06:50.442Z</time></trkpt><trkpt lat="43.4069917" lon="3.006245"><ele>185.0</ele><time>2026-04-04T15:06:51.443Z</time></trkpt><trkpt lat="43.4070233" lon="3.00642"><ele>183.0</ele><time>2026-04-04T15:06:52.445Z</time></trkpt><trkpt lat="43.4070583" lon="3.0066083"><ele>182.75</ele><time>2026-04-04T15:06:53.443Z</time></trkpt><trkpt lat="43.407095" lon="3.0068033"><ele>182.5</ele><time>2026-04-04T15:06:54.443Z</time></trkpt><trkpt lat="43.4071233" lon="3.0070033"><ele>182.25</ele><time>2026-04-04T15:06:55.444Z</time></trkpt><trkpt lat="43.4071433" lon="3.0072067"><ele>182.0</ele><time>2026-04-04T15:06:56.442Z</time></trkpt><trkpt lat="43.4071633" lon="3.0074183"><ele>186.33333333333331</ele><time>2026-04-04T15:06:57.443Z</time></trkpt><trkpt lat="43.40719" lon="3.0076283"><ele>190.66666666666666</ele><time>2026-04-04T15:06:58.443Z</time></trkpt><trkpt lat="43.4072217" lon="3.007835"><ele>195.0</ele><time>2026-04-04T15:06:59.443Z</time></trkpt><trkpt lat="43.407255" lon="3.008035"><ele>195.0</ele><time>2026-04-04T15:07:00.444Z</time></trkpt><trkpt lat="43.4072883" lon="3.0082133"><ele>195.0</ele><time>2026-04-04T15:07:01.446Z</time></trkpt><trkpt lat="43.407335" lon="3.0083633"><ele>195.0</ele><time>2026-04-04T15:07:02.442Z</time></trkpt><trkpt lat="43.4073933" lon="3.0085083"><ele>195.0</ele><time>2026-04-04T15:07:03.446Z</time></trkpt><trkpt lat="43.4074533" lon="3.0086617"><ele>194.5</ele><time>2026-04-04T15:07:04.446Z</time></trkpt><trkpt lat="43.4074933" lon="3.00883"><ele>194.0</ele><time>2026-04-04T15:07:05.446Z</time></trkpt><trkpt lat="43.407515" lon="3.0090167"><ele>193.5</ele><time>2026-04-04T15:07:06.446Z</time></trkpt><trkpt lat="43.4075317" lon="3.0092117"><ele>193.0</ele><time>2026-04-04T15:07:07.443Z</time></trkpt><trkpt lat="43.4075533" lon="3.00941"><ele>192.0</ele><time>2026-04-04T15:07:08.442Z</time></trkpt><trkpt lat="43.4075717" lon="3.009615"><ele>191.0</ele><time>2026-04-04T15:07:09.443Z</time></trkpt><trkpt lat="43.4075917" lon="3.00982"><ele>190.0</ele><time>2026-04-04T15:07:10.442Z</time></trkpt><trkpt lat="43.4076133" lon="3.009995"><ele>189.0</ele><time>2026-04-04T15:07:11.446Z</time></trkpt><trkpt lat="43.407645" lon="3.0101317"><ele>188.39999999999998</ele><time>2026-04-04T15:07:12.445Z</time></trkpt><trkpt lat="43.4076883" lon="3.0102583"><ele>187.8</ele><time>2026-04-04T15:07:13.446Z</time></trkpt><trkpt lat="43.40775" lon="3.0103833"><ele>187.2</ele><time>2026-04-04T15:07:14.447Z</time></trkpt><trkpt lat="43.4078167" lon="3.01051"><ele>186.60000000000002</ele><time>2026-04-04T15:07:15.446Z</time></trkpt><trkpt lat="43.4078833" lon="3.01065"><ele>186.0</ele><time>2026-04-04T15:07:16.446Z</time></trkpt><trkpt lat="43.4079483" lon="3.0108017"><ele>189.25</ele><time>2026-04-04T15:07:17.447Z</time></trkpt><trkpt lat="43.4080133" lon="3.0109667"><ele>192.5</ele><time>2026-04-04T15:07:18.444Z</time></trkpt><trkpt lat="43.4080717" lon="3.0111383"><ele>195.75</ele><time>2026-04-04T15:07:19.446Z</time></trkpt><trkpt lat="43.4081267" lon="3.011275"><ele>199.0</ele><time>2026-04-04T15:07:20.446Z</time></trkpt><trkpt lat="43.4081617" lon="3.0113717"><ele>198.99999999999997</ele><time>2026-04-04T15:07:21.446Z</time></trkpt><trkpt lat="43.4081767" lon="3.011465"><ele>199.0</ele><time>2026-04-04T15:07:22.446Z</time></trkpt><trkpt lat="43.4081783" lon="3.0115533"><ele>199.0</ele><time>2026-04-04T15:07:23.446Z</time></trkpt><trkpt lat="43.40818" lon="3.0116667"><ele>199.0</ele><time>2026-04-04T15:07:24.444Z</time></trkpt><trkpt lat="43.4081783" lon="3.01179"><ele>198.99999999999997</ele><time>2026-04-04T15:07:25.444Z</time></trkpt><trkpt lat="43.4081617" lon="3.0119217"><ele>199.0</ele><time>2026-04-04T15:07:26.443Z</time></trkpt><trkpt lat="43.4081133" lon="3.0120517"><ele>197.75</ele><time>2026-04-04T15:07:27.446Z</time></trkpt><trkpt lat="43.4080517" lon="3.0121917"><ele>196.5</ele><time>2026-04-04T15:07:28.443Z</time></trkpt><trkpt lat="43.4079767" lon="3.012355"><ele>195.25</ele><time>2026-04-04T15:07:29.442Z</time></trkpt><trkpt lat="43.4079" lon="3.0125233"><ele>194.0</ele><time>2026-04-04T15:07:30.447Z</time></trkpt><trkpt lat="43.40783" lon="3.012695"><ele>190.75</ele><time>2026-04-04T15:07:31.446Z</time></trkpt><trkpt lat="43.4077717" lon="3.0128633"><ele>187.5</ele><time>2026-04-04T15:07:32.446Z</time></trkpt><trkpt lat="43.4077233" lon="3.0130333"><ele>184.25</ele><time>2026-04-04T15:07:33.446Z</time></trkpt><trkpt lat="43.40768" lon="3.0132183"><ele>181.0</ele><time>2026-04-04T15:07:34.443Z</time></trkpt><trkpt lat="43.407645" lon="3.0134217"><ele>180.66666666666669</ele><time>2026-04-04T15:07:35.444Z</time></trkpt><trkpt lat="43.4076117" lon="3.01363"><ele>180.33333333333334</ele><time>2026-04-04T15:07:36.445Z</time></trkpt><trkpt lat="43.4075767" lon="3.0138433"><ele>180.0</ele><time>2026-04-04T15:07:37.444Z</time></trkpt><trkpt lat="43.407535" lon="3.0140583"><ele>180.0</ele><time>2026-04-04T15:07:38.447Z</time></trkpt><trkpt lat="43.4074867" lon="3.0142783"><ele>180.0</ele><time>2026-04-04T15:07:39.443Z</time></trkpt><trkpt lat="43.407435" lon="3.0144933"><ele>180.0</ele><time>2026-04-04T15:07:40.444Z</time></trkpt><trkpt lat="43.4073867" lon="3.0146967"><ele>180.0</ele><time>2026-04-04T15:07:41.443Z</time></trkpt><trkpt lat="43.4073433" lon="3.0149"><ele>180.0</ele><time>2026-04-04T15:07:42.443Z</time></trkpt><trkpt lat="43.407305" lon="3.015095"><ele>180.0</ele><time>2026-04-04T15:07:43.447Z</time></trkpt><trkpt lat="43.4072733" lon="3.01528"><ele>180.0</ele><time>2026-04-04T15:07:44.447Z</time></trkpt><trkpt lat="43.4072467" lon="3.0154367"><ele>179.83333333333334</ele><time>2026-04-04T15:07:45.446Z</time></trkpt><trkpt lat="43.4072117" lon="3.015565"><ele>179.66666666666666</ele><time>2026-04-04T15:07:46.446Z</time></trkpt><trkpt lat="43.4071683" lon="3.0156567"><ele>179.5</ele><time>2026-04-04T15:07:47.444Z</time></trkpt><trkpt lat="43.4071117" lon="3.0157267"><ele>179.33333333333331</ele><time>2026-04-04T15:07:48.443Z</time></trkpt><trkpt lat="43.407045" lon="3.0157833"><ele>179.16666666666666</ele><time>2026-04-04T15:07:49.444Z</time></trkpt><trkpt lat="43.4069833" lon="3.015845"><ele>179.0</ele><time>2026-04-04T15:07:50.443Z</time></trkpt><trkpt lat="43.4069367" lon="3.01592"><ele>178.39999999999998</ele><time>2026-04-04T15:07:51.443Z</time></trkpt><trkpt lat="43.4069133" lon="3.0160133"><ele>177.8</ele><time>2026-04-04T15:07:52.443Z</time></trkpt><trkpt lat="43.4069133" lon="3.0161367"><ele>177.2</ele><time>2026-04-04T15:07:53.442Z</time></trkpt><trkpt lat="43.40692" lon="3.0162733"><ele>176.60000000000002</ele><time>2026-04-04T15:07:54.444Z</time></trkpt><trkpt lat="43.4069367" lon="3.0164567"><ele>176.0</ele><time>2026-04-04T15:07:55.443Z</time></trkpt><trkpt lat="43.4069483" lon="3.0166317"><ele>175.8</ele><time>2026-04-04T15:07:56.442Z</time></trkpt><trkpt lat="43.40695" lon="3.0168133"><ele>175.60000000000002</ele><time>2026-04-04T15:07:57.443Z</time></trkpt><trkpt lat="43.4069333" lon="3.01697"><ele>175.4</ele><time>2026-04-04T15:07:58.444Z</time></trkpt><trkpt lat="43.4069133" lon="3.01711"><ele>175.2</ele><time>2026-04-04T15:07:59.444Z</time></trkpt><trkpt lat="43.4069133" lon="3.0172317"><ele>175.0</ele><time>2026-04-04T15:08:00.443Z</time></trkpt><trkpt lat="43.406945" lon="3.0173383"><ele>175.0</ele><time>2026-04-04T15:08:01.445Z</time></trkpt><trkpt lat="43.4069783" lon="3.017465"><ele>175.0</ele><time>2026-04-04T15:08:02.445Z</time></trkpt><trkpt lat="43.4069933" lon="3.0176083"><ele>175.0</ele><time>2026-04-04T15:08:03.446Z</time></trkpt><trkpt lat="43.407005" lon="3.017765"><ele>175.0</ele><time>2026-04-04T15:08:04.446Z</time></trkpt><trkpt lat="43.4070267" lon="3.0179383"><ele>175.0</ele><time>2026-04-04T15:08:05.445Z</time></trkpt><trkpt lat="43.407045" lon="3.0181267"><ele>175.25</ele><time>2026-04-04T15:08:06.442Z</time></trkpt><trkpt lat="43.4070617" lon="3.0183167"><ele>175.5</ele><time>2026-04-04T15:08:07.446Z</time></trkpt><trkpt lat="43.4070783" lon="3.0185217"><ele>175.75</ele><time>2026-04-04T15:08:08.442Z</time></trkpt><trkpt lat="43.4070967" lon="3.0187333"><ele>176.0</ele><time>2026-04-04T15:08:09.444Z</time></trkpt><trkpt lat="43.40711" lon="3.0189283"><ele>176.4</ele><time>2026-04-04T15:08:10.443Z</time></trkpt><trkpt lat="43.40712" lon="3.0190867"><ele>176.8</ele><time>2026-04-04T15:08:11.443Z</time></trkpt><trkpt lat="43.4071383" lon="3.0191967"><ele>177.20000000000002</ele><time>2026-04-04T15:08:12.443Z</time></trkpt><trkpt lat="43.4071717" lon="3.01928"><ele>177.60000000000002</ele><time>2026-04-04T15:08:13.446Z</time></trkpt><trkpt lat="43.4072617" lon="3.0193883"><ele>178.0</ele><time>2026-04-04T15:08:15.446Z</time></trkpt><trkpt lat="43.4073067" lon="3.0194517"><ele>178.2</ele><time>2026-04-04T15:08:16.446Z</time></trkpt><trkpt lat="43.4073167" lon="3.01964"><ele>178.4</ele><time>2026-04-04T15:08:18.444Z</time></trkpt><trkpt lat="43.4073183" lon="3.0197517"><ele>178.6</ele><time>2026-04-04T15:08:19.444Z</time></trkpt><trkpt lat="43.4073267" lon="3.0198833"><ele>178.79999999999998</ele><time>2026-04-04T15:08:20.444Z</time></trkpt><trkpt lat="43.4073417" lon="3.0200417"><ele>179.0</ele><time>2026-04-04T15:08:21.446Z</time></trkpt><trkpt lat="43.4073583" lon="3.0202117"><ele>179.25</ele><time>2026-04-04T15:08:22.444Z</time></trkpt><trkpt lat="43.407365" lon="3.0204083"><ele>179.5</ele><time>2026-04-04T15:08:23.443Z</time></trkpt><trkpt lat="43.4073567" lon="3.020605"><ele>179.75</ele><time>2026-04-04T15:08:24.446Z</time></trkpt><trkpt lat="43.407325" lon="3.0208233"><ele>180.0</ele><time>2026-04-04T15:08:25.446Z</time></trkpt><trkpt lat="43.40729" lon="3.0210267"><ele>180.75</ele><time>2026-04-04T15:08:26.442Z</time></trkpt><trkpt lat="43.4072733" lon="3.02122"><ele>181.5</ele><time>2026-04-04T15:08:27.445Z</time></trkpt><trkpt lat="43.4072767" lon="3.0214167"><ele>182.25</ele><time>2026-04-04T15:08:28.445Z</time></trkpt><trkpt lat="43.4073033" lon="3.021615"><ele>183.0</ele><time>2026-04-04T15:08:29.445Z</time></trkpt><trkpt lat="43.4073433" lon="3.0218217"><ele>183.25</ele><time>2026-04-04T15:08:30.447Z</time></trkpt><trkpt lat="43.4073833" lon="3.0220183"><ele>183.5</ele><time>2026-04-04T15:08:31.446Z</time></trkpt><trkpt lat="43.40741" lon="3.0222083"><ele>183.75</ele><time>2026-04-04T15:08:32.444Z</time></trkpt><trkpt lat="43.4074167" lon="3.0224233"><ele>184.0</ele><time>2026-04-04T15:08:33.446Z</time></trkpt><trkpt lat="43.4074117" lon="3.022645"><ele>184.75</ele><time>2026-04-04T15:08:34.444Z</time></trkpt><trkpt lat="43.4074117" lon="3.022845"><ele>185.5</ele><time>2026-04-04T15:08:35.446Z</time></trkpt><trkpt lat="43.407425" lon="3.0230183"><ele>186.25</ele><time>2026-04-04T15:08:36.445Z</time></trkpt><trkpt lat="43.4074283" lon="3.0231767"><ele>187.0</ele><time>2026-04-04T15:08:37.447Z</time></trkpt><trkpt lat="43.4074117" lon="3.023325"><ele>187.0</ele><time>2026-04-04T15:08:38.447Z</time></trkpt><trkpt lat="43.4073783" lon="3.02348"><ele>187.0</ele><time>2026-04-04T15:08:39.443Z</time></trkpt><trkpt lat="43.407345" lon="3.0236417"><ele>187.0</ele><time>2026-04-04T15:08:40.445Z</time></trkpt><trkpt lat="43.407315" lon="3.02382"><ele>187.0</ele><time>2026-04-04T15:08:41.444Z</time></trkpt><trkpt lat="43.407295" lon="3.0240117"><ele>187.0</ele><time>2026-04-04T15:08:42.444Z</time></trkpt><trkpt lat="43.40729" lon="3.0241983"><ele>187.0</ele><time>2026-04-04T15:08:43.446Z</time></trkpt><trkpt lat="43.4072933" lon="3.0243667"><ele>187.0</ele><time>2026-04-04T15:08:44.445Z</time></trkpt><trkpt lat="43.4072967" lon="3.0245233"><ele>187.0</ele><time>2026-04-04T15:08:45.444Z</time></trkpt><trkpt lat="43.4072967" lon="3.024675"><ele>187.0</ele><time>2026-04-04T15:08:46.446Z</time></trkpt><trkpt lat="43.4072967" lon="3.0248233"><ele>187.0</ele><time>2026-04-04T15:08:47.446Z</time></trkpt><trkpt lat="43.4073117" lon="3.0249633"><ele>187.0</ele><time>2026-04-04T15:08:48.443Z</time></trkpt><trkpt lat="43.4073483" lon="3.0250967"><ele>187.0</ele><time>2026-04-04T15:08:49.447Z</time></trkpt><trkpt lat="43.4074067" lon="3.0252167"><ele>187.0</ele><time>2026-04-04T15:08:50.444Z</time></trkpt><trkpt lat="43.4074817" lon="3.0253333"><ele>187.5</ele><time>2026-04-04T15:08:51.444Z</time></trkpt><trkpt lat="43.4075617" lon="3.0254583"><ele>188.0</ele><time>2026-04-04T15:08:52.444Z</time></trkpt><trkpt lat="43.4076317" lon="3.0255917"><ele>188.5</ele><time>2026-04-04T15:08:53.444Z</time></trkpt><trkpt lat="43.4076983" lon="3.0257217"><ele>189.0</ele><time>2026-04-04T15:08:54.446Z</time></trkpt><trkpt lat="43.4077667" lon="3.025825"><ele>189.0</ele><time>2026-04-04T15:08:55.444Z</time></trkpt><trkpt lat="43.40783" lon="3.0258983"><ele>189.0</ele><time>2026-04-04T15:08:56.447Z</time></trkpt><trkpt lat="43.40794" lon="3.0259067"><ele>189.0</ele><time>2026-04-04T15:08:58.445Z</time></trkpt><trkpt lat="43.4080067" lon="3.025825"><ele>189.0</ele><time>2026-04-04T15:08:59.444Z</time></trkpt><trkpt lat="43.4080883" lon="3.0257433"><ele>189.0</ele><time>2026-04-04T15:09:00.445Z</time></trkpt><trkpt lat="43.408185" lon="3.02567"><ele>188.66666666666666</ele><time>2026-04-04T15:09:01.446Z</time></trkpt><trkpt lat="43.4083217" lon="3.0255683"><ele>188.33333333333331</ele><time>2026-04-04T15:09:02.446Z</time></trkpt><trkpt lat="43.4084783" lon="3.0254883"><ele>188.0</ele><time>2026-04-04T15:09:03.443Z</time></trkpt><trkpt lat="43.40863" lon="3.0254233"><ele>188.0</ele><time>2026-04-04T15:09:04.443Z</time></trkpt><trkpt lat="43.4087717" lon="3.02536"><ele>188.0</ele><time>2026-04-04T15:09:05.447Z</time></trkpt><trkpt lat="43.4089067" lon="3.0252867"><ele>188.0</ele><time>2026-04-04T15:09:06.443Z</time></trkpt><trkpt lat="43.409035" lon="3.0252167"><ele>188.0</ele><time>2026-04-04T15:09:07.446Z</time></trkpt><trkpt lat="43.409145" lon="3.025155"><ele>187.5</ele><time>2026-04-04T15:09:08.446Z</time></trkpt><trkpt lat="43.4092483" lon="3.0251067"><ele>187.0</ele><time>2026-04-04T15:09:09.443Z</time></trkpt><trkpt lat="43.4093383" lon="3.02509"><ele>186.5</ele><time>2026-04-04T15:09:10.446Z</time></trkpt><trkpt lat="43.40942" lon="3.0251033"><ele>186.0</ele><time>2026-04-04T15:09:11.447Z</time></trkpt><trkpt lat="43.4094833" lon="3.0251167"><ele>185.5</ele><time>2026-04-04T15:09:12.445Z</time></trkpt><trkpt lat="43.409415" lon="3.0251833"><ele>185.0</ele><time>2026-04-04T15:09:17.445Z</time></trkpt><trkpt lat="43.409305" lon="3.0252717"><ele>185.0</ele><time>2026-04-04T15:09:19.447Z</time></trkpt><trkpt lat="43.4092533" lon="3.02536"><ele>185.0</ele><time>2026-04-04T15:09:20.444Z</time></trkpt><trkpt lat="43.4092033" lon="3.02548"><ele>185.0</ele><time>2026-04-04T15:09:21.444Z</time></trkpt><trkpt lat="43.409145" lon="3.025635"><ele>185.0</ele><time>2026-04-04T15:09:22.446Z</time></trkpt><trkpt lat="43.4090917" lon="3.025775"><ele>185.0</ele><time>2026-04-04T15:09:23.443Z</time></trkpt><trkpt lat="43.409035" lon="3.02591"><ele>185.0</ele><time>2026-04-04T15:09:24.447Z</time></trkpt><trkpt lat="43.40899" lon="3.02605"><ele>185.0</ele><time>2026-04-04T15:09:25.444Z</time></trkpt><trkpt lat="43.40896" lon="3.0262133"><ele>185.0</ele><time>2026-04-04T15:09:26.446Z</time></trkpt><trkpt lat="43.408935" lon="3.0263933"><ele>185.0</ele><time>2026-04-04T15:09:27.443Z</time></trkpt><trkpt lat="43.40891" lon="3.02655"><ele>185.16666666666666</ele><time>2026-04-04T15:09:28.444Z</time></trkpt><trkpt lat="43.4088883" lon="3.0266767"><ele>185.33333333333331</ele><time>2026-04-04T15:09:29.444Z</time></trkpt><trkpt lat="43.4088667" lon="3.0267783"><ele>185.5</ele><time>2026-04-04T15:09:30.445Z</time></trkpt><trkpt lat="43.4088367" lon="3.0268833"><ele>185.66666666666666</ele><time>2026-04-04T15:09:31.445Z</time></trkpt><trkpt lat="43.4088017" lon="3.0269933"><ele>185.83333333333334</ele><time>2026-04-04T15:09:32.444Z</time></trkpt><trkpt lat="43.4087683" lon="3.0271083"><ele>186.0</ele><time>2026-04-04T15:09:33.444Z</time></trkpt><trkpt lat="43.408745" lon="3.0272133"><ele>186.0</ele><time>2026-04-04T15:09:34.446Z</time></trkpt><trkpt lat="43.4087267" lon="3.0273567"><ele>186.0</ele><time>2026-04-04T15:09:36.445Z</time></trkpt><trkpt lat="43.4087883" lon="3.02731"><ele>186.0</ele><time>2026-04-04T15:09:38.443Z</time></trkpt><trkpt lat="43.4088717" lon="3.0271817"><ele>186.0</ele><time>2026-04-04T15:09:40.443Z</time></trkpt><trkpt lat="43.4089633" lon="3.0270917"><ele>186.0</ele><time>2026-04-04T15:09:42.444Z</time></trkpt><trkpt lat="43.40898" lon="3.02719"><ele>186.0</ele><time>2026-04-04T15:09:45.444Z</time></trkpt><trkpt lat="43.40895" lon="3.0272883"><ele>186.0</ele><time>2026-04-04T15:09:46.444Z</time></trkpt><trkpt lat="43.4089317" lon="3.0273883"><ele>186.0</ele><time>2026-04-04T15:09:47.443Z</time></trkpt><trkpt lat="43.40892" lon="3.02751"><ele>186.0</ele><time>2026-04-04T15:09:48.443Z</time></trkpt><trkpt lat="43.40891" lon="3.0276383"><ele>186.0</ele><time>2026-04-04T15:09:49.443Z</time></trkpt><trkpt lat="43.40891" lon="3.0277683"><ele>186.0</ele><time>2026-04-04T15:09:50.443Z</time></trkpt><trkpt lat="43.4089133" lon="3.0279017"><ele>186.4</ele><time>2026-04-04T15:09:51.443Z</time></trkpt><trkpt lat="43.40892" lon="3.02803"><ele>186.8</ele><time>2026-04-04T15:09:52.443Z</time></trkpt><trkpt lat="43.408925" lon="3.0281533"><ele>187.20000000000002</ele><time>2026-04-04T15:09:53.443Z</time></trkpt><trkpt lat="43.408925" lon="3.0282783"><ele>187.60000000000002</ele><time>2026-04-04T15:09:54.444Z</time></trkpt><trkpt lat="43.408915" lon="3.0284083"><ele>188.0</ele><time>2026-04-04T15:09:55.447Z</time></trkpt><trkpt lat="43.4088933" lon="3.0285383"><ele>188.0</ele><time>2026-04-04T15:09:56.444Z</time></trkpt><trkpt lat="43.4088733" lon="3.02866"><ele>188.0</ele><time>2026-04-04T15:09:57.446Z</time></trkpt><trkpt lat="43.4088483" lon="3.0287733"><ele>188.0</ele><time>2026-04-04T15:09:58.444Z</time></trkpt><trkpt lat="43.40883" lon="3.028875"><ele>188.0</ele><time>2026-04-04T15:09:59.443Z</time></trkpt><trkpt lat="43.4088583" lon="3.0289717"><ele>188.0</ele><time>2026-04-04T15:10:01.443Z</time></trkpt><trkpt lat="43.408945" lon="3.02885"><ele>188.0</ele><time>2026-04-04T15:10:04.443Z</time></trkpt><trkpt lat="43.409015" lon="3.0287617"><ele>188.0</ele><time>2026-04-04T15:10:05.443Z</time></trkpt><trkpt lat="43.4091017" lon="3.0286767"><ele>188.0</ele><time>2026-04-04T15:10:06.443Z</time></trkpt><trkpt lat="43.4091783" lon="3.0286167"><ele>188.0</ele><time>2026-04-04T15:10:07.445Z</time></trkpt><trkpt lat="43.4092583" lon="3.0285783"><ele>188.0</ele><time>2026-04-04T15:10:08.442Z</time></trkpt><trkpt lat="43.409345" lon="3.0285717"><ele>188.0</ele><time>2026-04-04T15:10:09.443Z</time></trkpt><trkpt lat="43.4094167" lon="3.02858"><ele>188.0</ele><time>2026-04-04T15:10:10.445Z</time></trkpt><trkpt lat="43.4094783" lon="3.0287333"><ele>188.0</ele><time>2026-04-04T15:10:12.442Z</time></trkpt><trkpt lat="43.4094983" lon="3.0288733"><ele>188.0</ele><time>2026-04-04T15:10:13.446Z</time></trkpt><trkpt lat="43.4095267" lon="3.0290467"><ele>188.0</ele><time>2026-04-04T15:10:14.446Z</time></trkpt><trkpt lat="43.4095617" lon="3.0292533"><ele>187.5</ele><time>2026-04-04T15:10:15.443Z</time></trkpt><trkpt lat="43.4096" lon="3.029475"><ele>187.0</ele><time>2026-04-04T15:10:16.443Z</time></trkpt><trkpt lat="43.40965" lon="3.0296617"><ele>186.5</ele><time>2026-04-04T15:10:17.443Z</time></trkpt><trkpt lat="43.4096867" lon="3.0298467"><ele>186.0</ele><time>2026-04-04T15:10:18.444Z</time></trkpt><trkpt lat="43.4097167" lon="3.0300067"><ele>186.0</ele><time>2026-04-04T15:10:19.444Z</time></trkpt><trkpt lat="43.4097317" lon="3.0301533"><ele>186.0</ele><time>2026-04-04T15:10:20.443Z</time></trkpt><trkpt lat="43.409745" lon="3.0302983"><ele>186.0</ele><time>2026-04-04T15:10:21.443Z</time></trkpt><trkpt lat="43.4097667" lon="3.0304367"><ele>186.0</ele><time>2026-04-04T15:10:22.444Z</time></trkpt><trkpt lat="43.4098" lon="3.0305783"><ele>186.0</ele><time>2026-04-04T15:10:23.447Z</time></trkpt><trkpt lat="43.4098483" lon="3.0307217"><ele>187.5</ele><time>2026-04-04T15:10:24.445Z</time></trkpt><trkpt lat="43.4098983" lon="3.030875"><ele>189.0</ele><time>2026-04-04T15:10:25.445Z</time></trkpt><trkpt lat="43.4099433" lon="3.0310317"><ele>190.5</ele><time>2026-04-04T15:10:26.445Z</time></trkpt><trkpt lat="43.4099933" lon="3.031165"><ele>192.0</ele><time>2026-04-04T15:10:27.445Z</time></trkpt><trkpt lat="43.4100567" lon="3.031275"><ele>192.0</ele><time>2026-04-04T15:10:28.442Z</time></trkpt><trkpt lat="43.4101333" lon="3.031365"><ele>192.0</ele><time>2026-04-04T15:10:29.446Z</time></trkpt><trkpt lat="43.41022" lon="3.031415"><ele>192.0</ele><time>2026-04-04T15:10:30.442Z</time></trkpt><trkpt lat="43.41033" lon="3.0314683"><ele>192.0</ele><time>2026-04-04T15:10:32.445Z</time></trkpt><trkpt lat="43.41039" lon="3.0315967"><ele>192.0</ele><time>2026-04-04T15:10:34.442Z</time></trkpt><trkpt lat="43.410405" lon="3.0317133"><ele>193.25</ele><time>2026-04-04T15:10:35.446Z</time></trkpt><trkpt lat="43.4104267" lon="3.031845"><ele>194.5</ele><time>2026-04-04T15:10:36.446Z</time></trkpt><trkpt lat="43.410465" lon="3.0319967"><ele>195.75</ele><time>2026-04-04T15:10:37.446Z</time></trkpt><trkpt lat="43.4105117" lon="3.0321817"><ele>197.0</ele><time>2026-04-04T15:10:38.443Z</time></trkpt><trkpt lat="43.4105617" lon="3.0323683"><ele>196.33333333333334</ele><time>2026-04-04T15:10:39.445Z</time></trkpt><trkpt lat="43.4106167" lon="3.0325683"><ele>195.66666666666669</ele><time>2026-04-04T15:10:40.445Z</time></trkpt><trkpt lat="43.4106867" lon="3.03277"><ele>195.0</ele><time>2026-04-04T15:10:41.445Z</time></trkpt><trkpt lat="43.4107617" lon="3.0329783"><ele>195.0</ele><time>2026-04-04T15:10:42.445Z</time></trkpt><trkpt lat="43.410845" lon="3.0331833"><ele>195.0</ele><time>2026-04-04T15:10:43.446Z</time></trkpt><trkpt lat="43.41093" lon="3.0334"><ele>195.0</ele><time>2026-04-04T15:10:44.446Z</time></trkpt><trkpt lat="43.41102" lon="3.0336067"><ele>195.0</ele><time>2026-04-04T15:10:45.445Z</time></trkpt><trkpt lat="43.4111033" lon="3.0338067"><ele>195.0</ele><time>2026-04-04T15:10:46.444Z</time></trkpt><trkpt lat="43.411175" lon="3.0340033"><ele>195.0</ele><time>2026-04-04T15:10:47.443Z</time></trkpt><trkpt lat="43.4112383" lon="3.0342117"><ele>195.0</ele><time>2026-04-04T15:10:48.443Z</time></trkpt><trkpt lat="43.4113033" lon="3.0344183"><ele>195.0</ele><time>2026-04-04T15:10:49.446Z</time></trkpt><trkpt lat="43.4113717" lon="3.034615"><ele>195.0</ele><time>2026-04-04T15:10:50.444Z</time></trkpt><trkpt lat="43.41144" lon="3.0347917"><ele>194.8</ele><time>2026-04-04T15:10:51.444Z</time></trkpt><trkpt lat="43.4115017" lon="3.0349367"><ele>194.6</ele><time>2026-04-04T15:10:52.443Z</time></trkpt><trkpt lat="43.41155" lon="3.0350267"><ele>194.39999999999998</ele><time>2026-04-04T15:10:53.446Z</time></trkpt><trkpt lat="43.4116483" lon="3.03509"><ele>194.2</ele><time>2026-04-04T15:10:55.445Z</time></trkpt><trkpt lat="43.4117633" lon="3.0351717"><ele>194.0</ele><time>2026-04-04T15:10:57.445Z</time></trkpt><trkpt lat="43.41184" lon="3.0352317"><ele>194.00000000000003</ele><time>2026-04-04T15:10:58.443Z</time></trkpt><trkpt lat="43.411915" lon="3.0352783"><ele>194.0</ele><time>2026-04-04T15:10:59.443Z</time></trkpt><trkpt lat="43.4119867" lon="3.0353167"><ele>194.0</ele><time>2026-04-04T15:11:00.443Z</time></trkpt><trkpt lat="43.412045" lon="3.0353517"><ele>194.0</ele><time>2026-04-04T15:11:01.443Z</time></trkpt><trkpt lat="43.4121133" lon="3.03543"><ele>194.00000000000003</ele><time>2026-04-04T15:11:03.445Z</time></trkpt><trkpt lat="43.41208" lon="3.03555"><ele>194.0</ele><time>2026-04-04T15:11:05.446Z</time></trkpt><trkpt lat="43.412025" lon="3.0356217"><ele>194.0</ele><time>2026-04-04T15:11:06.443Z</time></trkpt><trkpt lat="43.4119617" lon="3.0356983"><ele>194.0</ele><time>2026-04-04T15:11:07.446Z</time></trkpt><trkpt lat="43.4118933" lon="3.0357883"><ele>194.0</ele><time>2026-04-04T15:11:08.442Z</time></trkpt><trkpt lat="43.4118083" lon="3.03588"><ele>194.0</ele><time>2026-04-04T15:11:09.442Z</time></trkpt><trkpt lat="43.4117" lon="3.03596"><ele>194.0</ele><time>2026-04-04T15:11:10.444Z</time></trkpt><trkpt lat="43.4115767" lon="3.0360317"><ele>194.0</ele><time>2026-04-04T15:11:11.443Z</time></trkpt><trkpt lat="43.4114383" lon="3.0360933"><ele>194.0</ele><time>2026-04-04T15:11:12.443Z</time></trkpt><trkpt lat="43.4112983" lon="3.03614"><ele>194.0</ele><time>2026-04-04T15:11:13.443Z</time></trkpt><trkpt lat="43.411155" lon="3.0361567"><ele>194.0</ele><time>2026-04-04T15:11:14.445Z</time></trkpt><trkpt lat="43.411015" lon="3.0361533"><ele>194.0</ele><time>2026-04-04T15:11:15.446Z</time></trkpt><trkpt lat="43.4108917" lon="3.036125"><ele>194.0</ele><time>2026-04-04T15:11:16.445Z</time></trkpt><trkpt lat="43.4107917" lon="3.0361017"><ele>194.0</ele><time>2026-04-04T15:11:17.442Z</time></trkpt><trkpt lat="43.4107167" lon="3.0361"><ele>194.0</ele><time>2026-04-04T15:11:18.444Z</time></trkpt><trkpt lat="43.4106333" lon="3.0361533"><ele>194.0</ele><time>2026-04-04T15:11:20.443Z</time></trkpt><trkpt lat="43.4106983" lon="3.036205"><ele>194.0</ele><time>2026-04-04T15:11:23.443Z</time></trkpt><trkpt lat="43.4108017" lon="3.0361583"><ele>194.0</ele><time>2026-04-04T15:11:25.446Z</time></trkpt><trkpt lat="43.41088" lon="3.0361567"><ele>194.0</ele><time>2026-04-04T15:11:26.445Z</time></trkpt><trkpt lat="43.410975" lon="3.0361733"><ele>194.0</ele><time>2026-04-04T15:11:27.443Z</time></trkpt><trkpt lat="43.411065" lon="3.0361883"><ele>194.0</ele><time>2026-04-04T15:11:28.445Z</time></trkpt><trkpt lat="43.4111817" lon="3.0361917"><ele>194.0</ele><time>2026-04-04T15:11:29.442Z</time></trkpt><trkpt lat="43.41131" lon="3.0361583"><ele>194.0</ele><time>2026-04-04T15:11:30.444Z</time></trkpt><trkpt lat="43.4114317" lon="3.036105"><ele>194.0</ele><time>2026-04-04T15:11:31.446Z</time></trkpt><trkpt lat="43.4115417" lon="3.0360517"><ele>194.0</ele><time>2026-04-04T15:11:32.446Z</time></trkpt><trkpt lat="43.411635" lon="3.0360033"><ele>193.79999999999998</ele><time>2026-04-04T15:11:33.443Z</time></trkpt><trkpt lat="43.411715" lon="3.0359717"><ele>193.6</ele><time>2026-04-04T15:11:34.444Z</time></trkpt><trkpt lat="43.41179" lon="3.0359683"><ele>193.4</ele><time>2026-04-04T15:11:35.442Z</time></trkpt><trkpt lat="43.4118717" lon="3.0360833"><ele>193.2</ele><time>2026-04-04T15:11:37.446Z</time></trkpt><trkpt lat="43.411875" lon="3.0362083"><ele>193.0</ele><time>2026-04-04T15:11:38.447Z</time></trkpt><trkpt lat="43.411865" lon="3.036345"><ele>193.0</ele><time>2026-04-04T15:11:39.443Z</time></trkpt><trkpt lat="43.4118383" lon="3.0365217"><ele>193.0</ele><time>2026-04-04T15:11:40.443Z</time></trkpt><trkpt lat="43.4118233" lon="3.03671"><ele>193.0</ele><time>2026-04-04T15:11:41.443Z</time></trkpt><trkpt lat="43.4118117" lon="3.036915"><ele>193.0</ele><time>2026-04-04T15:11:42.447Z</time></trkpt><trkpt lat="43.411805" lon="3.0371017"><ele>193.0</ele><time>2026-04-04T15:11:43.444Z</time></trkpt><trkpt lat="43.411805" lon="3.0372667"><ele>193.0</ele><time>2026-04-04T15:11:44.446Z</time></trkpt><trkpt lat="43.4118183" lon="3.0374133"><ele>193.0</ele><time>2026-04-04T15:11:45.443Z</time></trkpt><trkpt lat="43.4118367" lon="3.0375483"><ele>193.0</ele><time>2026-04-04T15:11:46.447Z</time></trkpt><trkpt lat="43.4118433" lon="3.037675"><ele>193.0</ele><time>2026-04-04T15:11:47.442Z</time></trkpt><trkpt lat="43.41184" lon="3.0378133"><ele>192.75</ele><time>2026-04-04T15:11:48.443Z</time></trkpt><trkpt lat="43.411845" lon="3.0379683"><ele>192.5</ele><time>2026-04-04T15:11:49.443Z</time></trkpt><trkpt lat="43.4118517" lon="3.03814"><ele>192.25</ele><time>2026-04-04T15:11:50.443Z</time></trkpt><trkpt lat="43.41186" lon="3.03832"><ele>192.0</ele><time>2026-04-04T15:11:51.442Z</time></trkpt><trkpt lat="43.411865" lon="3.0385167"><ele>192.0</ele><time>2026-04-04T15:11:52.447Z</time></trkpt><trkpt lat="43.4118667" lon="3.0387167"><ele>192.0</ele><time>2026-04-04T15:11:53.442Z</time></trkpt><trkpt lat="43.4118617" lon="3.0389217"><ele>192.0</ele><time>2026-04-04T15:11:54.444Z</time></trkpt><trkpt lat="43.411865" lon="3.0391183"><ele>192.0</ele><time>2026-04-04T15:11:55.446Z</time></trkpt><trkpt lat="43.4118683" lon="3.039315"><ele>192.0</ele><time>2026-04-04T15:11:56.443Z</time></trkpt><trkpt lat="43.41186" lon="3.0395033"><ele>192.0</ele><time>2026-04-04T15:11:57.443Z</time></trkpt><trkpt lat="43.411845" lon="3.03969"><ele>192.0</ele><time>2026-04-04T15:11:58.446Z</time></trkpt><trkpt lat="43.4118467" lon="3.0398767"><ele>192.0</ele><time>2026-04-04T15:11:59.442Z</time></trkpt><trkpt lat="43.411855" lon="3.040055"><ele>192.0</ele><time>2026-04-04T15:12:00.446Z</time></trkpt><trkpt lat="43.4118533" lon="3.0402083"><ele>192.0</ele><time>2026-04-04T15:12:01.446Z</time></trkpt><trkpt lat="43.4118317" lon="3.04035"><ele>192.0</ele><time>2026-04-04T15:12:02.445Z</time></trkpt><trkpt lat="43.411815" lon="3.040465"><ele>192.0</ele><time>2026-04-04T15:12:03.446Z</time></trkpt><trkpt lat="43.4118017" lon="3.04057"><ele>192.0</ele><time>2026-04-04T15:12:04.446Z</time></trkpt><trkpt lat="43.4117783" lon="3.0406633"><ele>192.0</ele><time>2026-04-04T15:12:05.445Z</time></trkpt><trkpt lat="43.411735" lon="3.04075"><ele>192.0</ele><time>2026-04-04T15:12:06.446Z</time></trkpt><trkpt lat="43.411675" lon="3.0408383"><ele>192.0</ele><time>2026-04-04T15:12:07.446Z</time></trkpt><trkpt lat="43.4116" lon="3.0409133"><ele>192.0</ele><time>2026-04-04T15:12:08.443Z</time></trkpt><trkpt lat="43.4115217" lon="3.0409883"><ele>192.0</ele><time>2026-04-04T15:12:09.444Z</time></trkpt><trkpt lat="43.4114233" lon="3.0410667"><ele>191.75</ele><time>2026-04-04T15:12:10.444Z</time></trkpt><trkpt lat="43.411325" lon="3.04116"><ele>191.5</ele><time>2026-04-04T15:12:11.446Z</time></trkpt><trkpt lat="43.4112267" lon="3.0412617"><ele>191.25</ele><time>2026-04-04T15:12:12.444Z</time></trkpt><trkpt lat="43.4111283" lon="3.04137"><ele>191.0</ele><time>2026-04-04T15:12:13.443Z</time></trkpt><trkpt lat="43.41103" lon="3.0414783"><ele>190.75</ele><time>2026-04-04T15:12:14.443Z</time></trkpt><trkpt lat="43.4109333" lon="3.0415817"><ele>190.5</ele><time>2026-04-04T15:12:15.443Z</time></trkpt><trkpt lat="43.4108333" lon="3.0416833"><ele>190.25</ele><time>2026-04-04T15:12:16.443Z</time></trkpt><trkpt lat="43.410735" lon="3.0417783"><ele>190.0</ele><time>2026-04-04T15:12:17.442Z</time></trkpt><trkpt lat="43.4106367" lon="3.0418633"><ele>190.0</ele><time>2026-04-04T15:12:18.443Z</time></trkpt><trkpt lat="43.4105383" lon="3.0419383"><ele>190.0</ele><time>2026-04-04T15:12:19.444Z</time></trkpt><trkpt lat="43.4104483" lon="3.0420033"><ele>190.0</ele><time>2026-04-04T15:12:20.443Z</time></trkpt><trkpt lat="43.4103617" lon="3.0420567"><ele>190.0</ele><time>2026-04-04T15:12:21.445Z</time></trkpt><trkpt lat="43.4102783" lon="3.0420933"><ele>190.0</ele><time>2026-04-04T15:12:22.443Z</time></trkpt><trkpt lat="43.4102033" lon="3.0421267"><ele>190.2</ele><time>2026-04-04T15:12:23.446Z</time></trkpt><trkpt lat="43.410135" lon="3.0421583"><ele>190.4</ele><time>2026-04-04T15:12:24.443Z</time></trkpt><trkpt lat="43.4100783" lon="3.0421967"><ele>190.60000000000002</ele><time>2026-04-04T15:12:25.444Z</time></trkpt><trkpt lat="43.40997" lon="3.042275"><ele>190.8</ele><time>2026-04-04T15:12:27.444Z</time></trkpt><trkpt lat="43.40986" lon="3.042345"><ele>191.0</ele><time>2026-04-04T15:12:29.442Z</time></trkpt><trkpt lat="43.4097567" lon="3.0424417"><ele>191.14285714285714</ele><time>2026-04-04T15:12:31.535Z</time></trkpt><trkpt lat="43.40971" lon="3.0425017"><ele>191.28571428571428</ele><time>2026-04-04T15:12:32.442Z</time></trkpt><trkpt lat="43.4096617" lon="3.0425667"><ele>191.42857142857142</ele><time>2026-04-04T15:12:33.442Z</time></trkpt><trkpt lat="43.4096133" lon="3.0426233"><ele>191.57142857142856</ele><time>2026-04-04T15:12:34.445Z</time></trkpt><trkpt lat="43.409555" lon="3.0426783"><ele>191.71428571428572</ele><time>2026-04-04T15:12:35.446Z</time></trkpt><trkpt lat="43.4094817" lon="3.0427317"><ele>191.85714285714283</ele><time>2026-04-04T15:12:36.446Z</time></trkpt><trkpt lat="43.4093967" lon="3.0427683"><ele>192.0</ele><time>2026-04-04T15:12:37.448Z</time></trkpt><trkpt lat="43.4092967" lon="3.0427883"><ele>192.8</ele><time>2026-04-04T15:12:38.446Z</time></trkpt><trkpt lat="43.4091883" lon="3.0427583"><ele>193.6</ele><time>2026-04-04T15:12:39.442Z</time></trkpt><trkpt lat="43.4090817" lon="3.0427333"><ele>194.4</ele><time>2026-04-04T15:12:40.444Z</time></trkpt><trkpt lat="43.4089767" lon="3.0427317"><ele>195.20000000000002</ele><time>2026-04-04T15:12:41.447Z</time></trkpt><trkpt lat="43.40888" lon="3.0427717"><ele>196.0</ele><time>2026-04-04T15:12:42.445Z</time></trkpt><trkpt lat="43.4087883" lon="3.0428383"><ele>197.0</ele><time>2026-04-04T15:12:43.446Z</time></trkpt><trkpt lat="43.4086883" lon="3.0429217"><ele>198.0</ele><time>2026-04-04T15:12:44.446Z</time></trkpt><trkpt lat="43.4085867" lon="3.0430083"><ele>199.0</ele><time>2026-04-04T15:12:45.447Z</time></trkpt><trkpt lat="43.408475" lon="3.04308"><ele>200.0</ele><time>2026-04-04T15:12:46.445Z</time></trkpt><trkpt lat="43.4083567" lon="3.0431533"><ele>200.0</ele><time>2026-04-04T15:12:47.449Z</time></trkpt><trkpt lat="43.40824" lon="3.04323"><ele>200.0</ele><time>2026-04-04T15:12:48.444Z</time></trkpt><trkpt lat="43.4081217" lon="3.04331"><ele>200.0</ele><time>2026-04-04T15:12:49.444Z</time></trkpt><trkpt lat="43.408005" lon="3.0433933"><ele>200.0</ele><time>2026-04-04T15:12:50.443Z</time></trkpt><trkpt lat="43.4078917" lon="3.0434867"><ele>200.0</ele><time>2026-04-04T15:12:51.445Z</time></trkpt><trkpt lat="43.407785" lon="3.0436033"><ele>200.0</ele><time>2026-04-04T15:12:52.446Z</time></trkpt><trkpt lat="43.4076767" lon="3.043735"><ele>200.0</ele><time>2026-04-04T15:12:53.442Z</time></trkpt><trkpt lat="43.4075717" lon="3.0438667"><ele>200.0</ele><time>2026-04-04T15:12:54.443Z</time></trkpt><trkpt lat="43.407475" lon="3.04401"><ele>199.33333333333334</ele><time>2026-04-04T15:12:55.444Z</time></trkpt><trkpt lat="43.4073783" lon="3.044175"><ele>198.66666666666669</ele><time>2026-04-04T15:12:56.443Z</time></trkpt><trkpt lat="43.4072717" lon="3.0443283"><ele>198.0</ele><time>2026-04-04T15:12:57.443Z</time></trkpt><trkpt lat="43.4071467" lon="3.0444683"><ele>196.66666666666669</ele><time>2026-04-04T15:12:58.444Z</time></trkpt><trkpt lat="43.4070067" lon="3.0446017"><ele>195.33333333333334</ele><time>2026-04-04T15:12:59.444Z</time></trkpt><trkpt lat="43.406865" lon="3.0447317"><ele>194.0</ele><time>2026-04-04T15:13:00.444Z</time></trkpt><trkpt lat="43.4067217" lon="3.0448683"><ele>194.0</ele><time>2026-04-04T15:13:01.445Z</time></trkpt><trkpt lat="43.4065839" lon="3.0450053"><ele>194.0</ele><time>2026-04-04T15:13:02.444Z</time></trkpt><trkpt lat="43.4064488" lon="3.045145"><ele>194.0</ele><time>2026-04-04T15:13:03.444Z</time></trkpt><trkpt lat="43.4063252" lon="3.0452835"><ele>194.0</ele><time>2026-04-04T15:13:04.443Z</time></trkpt><trkpt lat="43.4062216" lon="3.0454243"><ele>194.0</ele><time>2026-04-04T15:13:05.445Z</time></trkpt><trkpt lat="43.4061273" lon="3.0455705"><ele>194.0</ele><time>2026-04-04T15:13:06.446Z</time></trkpt><trkpt lat="43.4060263" lon="3.0457184"><ele>194.0</ele><time>2026-04-04T15:13:07.446Z</time></trkpt><trkpt lat="43.4059121" lon="3.0458622"><ele>194.66666666666669</ele><time>2026-04-04T15:13:08.446Z</time></trkpt><trkpt lat="43.4057835" lon="3.0460014"><ele>195.33333333333331</ele><time>2026-04-04T15:13:09.444Z</time></trkpt><trkpt lat="43.4056504" lon="3.0461349"><ele>196.0</ele><time>2026-04-04T15:13:10.445Z</time></trkpt><trkpt lat="43.4055271" lon="3.0462708"><ele>196.33333333333331</ele><time>2026-04-04T15:13:11.443Z</time></trkpt><trkpt lat="43.4054201" lon="3.0464228"><ele>196.66666666666669</ele><time>2026-04-04T15:13:12.443Z</time></trkpt><trkpt lat="43.4053286" lon="3.0465933"><ele>197.0</ele><time>2026-04-04T15:13:13.444Z</time></trkpt><trkpt lat="43.4052543" lon="3.0467666"><ele>197.0</ele><time>2026-04-04T15:13:14.442Z</time></trkpt><trkpt lat="43.4051942" lon="3.0469315"><ele>197.0</ele><time>2026-04-04T15:13:15.443Z</time></trkpt><trkpt lat="43.4051337" lon="3.0470853"><ele>197.0</ele><time>2026-04-04T15:13:16.444Z</time></trkpt><trkpt lat="43.4050643" lon="3.0472286"><ele>197.0</ele><time>2026-04-04T15:13:17.443Z</time></trkpt><trkpt lat="43.404985" lon="3.0473654"><ele>196.25</ele><time>2026-04-04T15:13:18.444Z</time></trkpt><trkpt lat="43.40489" lon="3.0474977"><ele>195.5</ele><time>2026-04-04T15:13:19.444Z</time></trkpt><trkpt lat="43.4047797" lon="3.0476197"><ele>194.75</ele><time>2026-04-04T15:13:20.443Z</time></trkpt><trkpt lat="43.4046577" lon="3.0477434"><ele>194.0</ele><time>2026-04-04T15:13:21.444Z</time></trkpt><trkpt lat="43.4045431" lon="3.0478661"><ele>194.0</ele><time>2026-04-04T15:13:22.445Z</time></trkpt><trkpt lat="43.404439" lon="3.047962"><ele>194.0</ele><time>2026-04-04T15:13:23.445Z</time></trkpt><trkpt lat="43.4043388" lon="3.0480218"><ele>194.0</ele><time>2026-04-04T15:13:24.444Z</time></trkpt><trkpt lat="43.4042363" lon="3.0480467"><ele>194.0</ele><time>2026-04-04T15:13:25.446Z</time></trkpt><trkpt lat="43.4041236" lon="3.0480616"><ele>194.0</ele><time>2026-04-04T15:13:26.445Z</time></trkpt><trkpt lat="43.4039953" lon="3.0481023"><ele>194.0</ele><time>2026-04-04T15:13:27.445Z</time></trkpt><trkpt lat="43.4038611" lon="3.0481849"><ele>194.0</ele><time>2026-04-04T15:13:28.444Z</time></trkpt><trkpt lat="43.4037271" lon="3.0483097"><ele>194.0</ele><time>2026-04-04T15:13:29.446Z</time></trkpt><trkpt lat="43.4035976" lon="3.048465"><ele>190.33333333333334</ele><time>2026-04-04T15:13:30.445Z</time></trkpt><trkpt lat="43.4034715" lon="3.0486367"><ele>186.66666666666669</ele><time>2026-04-04T15:13:31.445Z</time></trkpt><trkpt lat="43.4033467" lon="3.0488146"><ele>183.0</ele><time>2026-04-04T15:13:32.447Z</time></trkpt><trkpt lat="43.4032249" lon="3.0489873"><ele>181.66666666666666</ele><time>2026-04-04T15:13:33.443Z</time></trkpt><trkpt lat="43.4031121" lon="3.0491509"><ele>180.33333333333331</ele><time>2026-04-04T15:13:34.447Z</time></trkpt><trkpt lat="43.403006" lon="3.0492997"><ele>179.0</ele><time>2026-04-04T15:13:35.446Z</time></trkpt><trkpt lat="43.4029002" lon="3.0494385"><ele>179.0</ele><time>2026-04-04T15:13:36.446Z</time></trkpt><trkpt lat="43.4028027" lon="3.0495812"><ele>179.0</ele><time>2026-04-04T15:13:37.444Z</time></trkpt><trkpt lat="43.4027191" lon="3.0497242"><ele>179.0</ele><time>2026-04-04T15:13:38.443Z</time></trkpt><trkpt lat="43.4026314" lon="3.0498567"><ele>179.0</ele><time>2026-04-04T15:13:39.444Z</time></trkpt><trkpt lat="43.4025448" lon="3.0499616"><ele>178.79999999999998</ele><time>2026-04-04T15:13:40.443Z</time></trkpt><trkpt lat="43.4024638" lon="3.0500405"><ele>178.6</ele><time>2026-04-04T15:13:41.443Z</time></trkpt><trkpt lat="43.4023839" lon="3.0500837"><ele>178.4</ele><time>2026-04-04T15:13:42.443Z</time></trkpt><trkpt lat="43.4022962" lon="3.0501025"><ele>178.2</ele><time>2026-04-04T15:13:43.443Z</time></trkpt><trkpt lat="43.4022032" lon="3.050123"><ele>178.0</ele><time>2026-04-04T15:13:44.443Z</time></trkpt><trkpt lat="43.4021079" lon="3.0501676"><ele>177.16666666666669</ele><time>2026-04-04T15:13:45.446Z</time></trkpt><trkpt lat="43.4020224" lon="3.0502297"><ele>176.33333333333334</ele><time>2026-04-04T15:13:46.443Z</time></trkpt><trkpt lat="43.4019394" lon="3.0502943"><ele>175.5</ele><time>2026-04-04T15:13:47.443Z</time></trkpt><trkpt lat="43.4018592" lon="3.0503474"><ele>174.66666666666666</ele><time>2026-04-04T15:13:48.443Z</time></trkpt><trkpt lat="43.401781" lon="3.0503953"><ele>173.83333333333331</ele><time>2026-04-04T15:13:49.444Z</time></trkpt><trkpt lat="43.4017099" lon="3.0504402"><ele>173.0</ele><time>2026-04-04T15:13:50.443Z</time></trkpt><trkpt lat="43.4016393" lon="3.0504833"><ele>173.0</ele><time>2026-04-04T15:13:51.444Z</time></trkpt><trkpt lat="43.4015697" lon="3.0505278"><ele>173.0</ele><time>2026-04-04T15:13:52.444Z</time></trkpt><trkpt lat="43.4015026" lon="3.0505751"><ele>173.0</ele><time>2026-04-04T15:13:53.443Z</time></trkpt><trkpt lat="43.4014345" lon="3.0506246"><ele>173.0</ele><time>2026-04-04T15:13:54.443Z</time></trkpt><trkpt lat="43.4013632" lon="3.0506789"><ele>173.0</ele><time>2026-04-04T15:13:55.444Z</time></trkpt><trkpt lat="43.4012862" lon="3.0507402"><ele>173.0</ele><time>2026-04-04T15:13:56.443Z</time></trkpt><trkpt lat="43.4011967" lon="3.0508056"><ele>170.5</ele><time>2026-04-04T15:13:57.443Z</time></trkpt><trkpt lat="43.4010944" lon="3.0508729"><ele>168.0</ele><time>2026-04-04T15:13:58.444Z</time></trkpt><trkpt lat="43.4009839" lon="3.0509457"><ele>165.5</ele><time>2026-04-04T15:13:59.443Z</time></trkpt><trkpt lat="43.4008615" lon="3.0510299"><ele>163.0</ele><time>2026-04-04T15:14:00.443Z</time></trkpt><trkpt lat="43.4007341" lon="3.0511203"><ele>163.0</ele><time>2026-04-04T15:14:01.444Z</time></trkpt><trkpt lat="43.4006093" lon="3.0512137"><ele>163.0</ele><time>2026-04-04T15:14:02.443Z</time></trkpt><trkpt lat="43.4004872" lon="3.0513092"><ele>163.0</ele><time>2026-04-04T15:14:03.444Z</time></trkpt><trkpt lat="43.4003698" lon="3.0514089"><ele>163.0</ele><time>2026-04-04T15:14:04.445Z</time></trkpt><trkpt lat="43.4002563" lon="3.0514979"><ele>161.0</ele><time>2026-04-04T15:14:05.447Z</time></trkpt><trkpt lat="43.4001533" lon="3.0515599"><ele>159.0</ele><time>2026-04-04T15:14:06.445Z</time></trkpt><trkpt lat="43.4000548" lon="3.0515827"><ele>157.0</ele><time>2026-04-04T15:14:07.444Z</time></trkpt><trkpt lat="43.3999661" lon="3.0515818"><ele>155.0</ele><time>2026-04-04T15:14:08.444Z</time></trkpt><trkpt lat="43.3998867" lon="3.051575"><ele>153.0</ele><time>2026-04-04T15:14:09.444Z</time></trkpt><trkpt lat="43.39981" lon="3.0515933"><ele>153.0</ele><time>2026-04-04T15:14:10.445Z</time></trkpt><trkpt lat="43.3997317" lon="3.051645"><ele>153.0</ele><time>2026-04-04T15:14:11.445Z</time></trkpt><trkpt lat="43.3996483" lon="3.051695"><ele>153.0</ele><time>2026-04-04T15:14:12.446Z</time></trkpt><trkpt lat="43.3995417" lon="3.0517333"><ele>153.0</ele><time>2026-04-04T15:14:13.446Z</time></trkpt><trkpt lat="43.3994183" lon="3.0517533"><ele>153.0</ele><time>2026-04-04T15:14:14.446Z</time></trkpt><trkpt lat="43.3992933" lon="3.0517633"><ele>151.75</ele><time>2026-04-04T15:14:15.446Z</time></trkpt><trkpt lat="43.3991683" lon="3.05177"><ele>150.5</ele><time>2026-04-04T15:14:16.443Z</time></trkpt><trkpt lat="43.399035" lon="3.0517917"><ele>149.25</ele><time>2026-04-04T15:14:17.446Z</time></trkpt><trkpt lat="43.3988967" lon="3.0518433"><ele>148.0</ele><time>2026-04-04T15:14:18.443Z</time></trkpt><trkpt lat="43.3987617" lon="3.0519167"><ele>147.75</ele><time>2026-04-04T15:14:19.444Z</time></trkpt><trkpt lat="43.398625" lon="3.0520033"><ele>147.5</ele><time>2026-04-04T15:14:20.444Z</time></trkpt><trkpt lat="43.3984967" lon="3.0521033"><ele>147.25</ele><time>2026-04-04T15:14:21.445Z</time></trkpt><trkpt lat="43.398375" lon="3.0521967"><ele>147.0</ele><time>2026-04-04T15:14:22.444Z</time></trkpt><trkpt lat="43.3982717" lon="3.0522667"><ele>147.0</ele><time>2026-04-04T15:14:23.442Z</time></trkpt><trkpt lat="43.3981717" lon="3.0523017"><ele>147.0</ele><time>2026-04-04T15:14:24.443Z</time></trkpt><trkpt lat="43.3980617" lon="3.0523"><ele>147.0</ele><time>2026-04-04T15:14:25.447Z</time></trkpt><trkpt lat="43.3979383" lon="3.0522783"><ele>147.0</ele><time>2026-04-04T15:14:26.443Z</time></trkpt><trkpt lat="43.3978067" lon="3.05225"><ele>147.25</ele><time>2026-04-04T15:14:27.443Z</time></trkpt><trkpt lat="43.3976667" lon="3.0522233"><ele>147.5</ele><time>2026-04-04T15:14:28.443Z</time></trkpt><trkpt lat="43.3975267" lon="3.05221"><ele>147.75</ele><time>2026-04-04T15:14:29.442Z</time></trkpt><trkpt lat="43.3973917" lon="3.052215"><ele>148.0</ele><time>2026-04-04T15:14:30.443Z</time></trkpt><trkpt lat="43.3972667" lon="3.0522633"><ele>148.25</ele><time>2026-04-04T15:14:31.443Z</time></trkpt><trkpt lat="43.3971467" lon="3.0523383"><ele>148.5</ele><time>2026-04-04T15:14:32.442Z</time></trkpt><trkpt lat="43.39702" lon="3.0524317"><ele>148.75</ele><time>2026-04-04T15:14:33.443Z</time></trkpt><trkpt lat="43.3968967" lon="3.0525133"><ele>149.0</ele><time>2026-04-04T15:14:34.444Z</time></trkpt><trkpt lat="43.396775" lon="3.05258"><ele>149.2</ele><time>2026-04-04T15:14:35.442Z</time></trkpt><trkpt lat="43.3966583" lon="3.0526233"><ele>149.4</ele><time>2026-04-04T15:14:36.443Z</time></trkpt><trkpt lat="43.3965483" lon="3.0526567"><ele>149.6</ele><time>2026-04-04T15:14:37.443Z</time></trkpt><trkpt lat="43.3964583" lon="3.0526783"><ele>149.8</ele><time>2026-04-04T15:14:38.442Z</time></trkpt><trkpt lat="43.3963817" lon="3.0526983"><ele>150.0</ele><time>2026-04-04T15:14:39.443Z</time></trkpt><trkpt lat="43.3963167" lon="3.0527383"><ele>150.0</ele><time>2026-04-04T15:14:40.442Z</time></trkpt><trkpt lat="43.3962283" lon="3.05288"><ele>150.0</ele><time>2026-04-04T15:14:42.442Z</time></trkpt><trkpt lat="43.396195" lon="3.05299"><ele>150.0</ele><time>2026-04-04T15:14:43.443Z</time></trkpt><trkpt lat="43.39614" lon="3.0530883"><ele>150.0</ele><time>2026-04-04T15:14:44.445Z</time></trkpt><trkpt lat="43.3960783" lon="3.053175"><ele>150.0</ele><time>2026-04-04T15:14:45.444Z</time></trkpt><trkpt lat="43.3959983" lon="3.05327"><ele>148.8</ele><time>2026-04-04T15:14:46.446Z</time></trkpt><trkpt lat="43.395905" lon="3.0533533"><ele>147.6</ele><time>2026-04-04T15:14:47.446Z</time></trkpt><trkpt lat="43.3958083" lon="3.053435"><ele>146.4</ele><time>2026-04-04T15:14:48.443Z</time></trkpt><trkpt lat="43.3957283" lon="3.0534917"><ele>145.2</ele><time>2026-04-04T15:14:49.446Z</time></trkpt><trkpt lat="43.395665" lon="3.053535"><ele>144.0</ele><time>2026-04-04T15:14:50.445Z</time></trkpt><trkpt lat="43.39555" lon="3.05356"><ele>144.2</ele><time>2026-04-04T15:14:52.444Z</time></trkpt><trkpt lat="43.3954517" lon="3.0535033"><ele>144.4</ele><time>2026-04-04T15:14:54.442Z</time></trkpt><trkpt lat="43.39541" lon="3.05341"><ele>144.6</ele><time>2026-04-04T15:14:55.445Z</time></trkpt><trkpt lat="43.39536" lon="3.0532983"><ele>144.8</ele><time>2026-04-04T15:14:56.443Z</time></trkpt><trkpt lat="43.395305" lon="3.05318"><ele>145.0</ele><time>2026-04-04T15:14:57.443Z</time></trkpt><trkpt lat="43.395255" lon="3.05305"><ele>145.0</ele><time>2026-04-04T15:14:58.443Z</time></trkpt><trkpt lat="43.395205" lon="3.0529167"><ele>145.0</ele><time>2026-04-04T15:14:59.444Z</time></trkpt><trkpt lat="43.395165" lon="3.05278"><ele>145.0</ele><time>2026-04-04T15:15:00.443Z</time></trkpt><trkpt lat="43.3951433" lon="3.0526483"><ele>145.0</ele><time>2026-04-04T15:15:01.444Z</time></trkpt><trkpt lat="43.3951217" lon="3.0525217"><ele>145.0</ele><time>2026-04-04T15:15:02.443Z</time></trkpt><trkpt lat="43.3951067" lon="3.0524"><ele>144.8</ele><time>2026-04-04T15:15:03.446Z</time></trkpt><trkpt lat="43.39508" lon="3.0522883"><ele>144.6</ele><time>2026-04-04T15:15:04.443Z</time></trkpt><trkpt lat="43.3950283" lon="3.0522033"><ele>144.4</ele><time>2026-04-04T15:15:05.444Z</time></trkpt><trkpt lat="43.3949283" lon="3.0521433"><ele>144.2</ele><time>2026-04-04T15:15:06.445Z</time></trkpt><trkpt lat="43.39481" lon="3.0521333"><ele>144.0</ele><time>2026-04-04T15:15:07.446Z</time></trkpt><trkpt lat="43.3946433" lon="3.0521683"><ele>143.33333333333334</ele><time>2026-04-04T15:15:08.442Z</time></trkpt><trkpt lat="43.3944867" lon="3.0522033"><ele>142.66666666666669</ele><time>2026-04-04T15:15:09.443Z</time></trkpt><trkpt lat="43.394325" lon="3.0522383"><ele>142.0</ele><time>2026-04-04T15:15:10.443Z</time></trkpt><trkpt lat="43.3941617" lon="3.0522833"><ele>142.0</ele><time>2026-04-04T15:15:11.442Z</time></trkpt><trkpt lat="43.3940067" lon="3.052355"><ele>142.0</ele><time>2026-04-04T15:15:12.443Z</time></trkpt><trkpt lat="43.393855" lon="3.052445"><ele>142.0</ele><time>2026-04-04T15:15:13.443Z</time></trkpt><trkpt lat="43.3937" lon="3.0525433"><ele>141.0</ele><time>2026-04-04T15:15:14.442Z</time></trkpt><trkpt lat="43.393545" lon="3.0526083"><ele>140.0</ele><time>2026-04-04T15:15:15.442Z</time></trkpt><trkpt lat="43.393385" lon="3.05264"><ele>139.0</ele><time>2026-04-04T15:15:16.444Z</time></trkpt><trkpt lat="43.393225" lon="3.0526383"><ele>139.0</ele><time>2026-04-04T15:15:17.442Z</time></trkpt><trkpt lat="43.39306" lon="3.0526083"><ele>139.0</ele><time>2026-04-04T15:15:18.443Z</time></trkpt><trkpt lat="43.39289" lon="3.0525583"><ele>139.0</ele><time>2026-04-04T15:15:19.444Z</time></trkpt><trkpt lat="43.3927217" lon="3.0525"><ele>140.33333333333334</ele><time>2026-04-04T15:15:20.442Z</time></trkpt><trkpt lat="43.3925567" lon="3.05244"><ele>141.66666666666666</ele><time>2026-04-04T15:15:21.443Z</time></trkpt><trkpt lat="43.3924017" lon="3.052385"><ele>143.0</ele><time>2026-04-04T15:15:22.443Z</time></trkpt><trkpt lat="43.392255" lon="3.0523383"><ele>142.5</ele><time>2026-04-04T15:15:23.443Z</time></trkpt><trkpt lat="43.3921083" lon="3.0522933"><ele>142.0</ele><time>2026-04-04T15:15:24.442Z</time></trkpt><trkpt lat="43.39196" lon="3.0522467"><ele>141.5</ele><time>2026-04-04T15:15:25.443Z</time></trkpt><trkpt lat="43.3918233" lon="3.052205"><ele>141.0</ele><time>2026-04-04T15:15:26.442Z</time></trkpt><trkpt lat="43.39171" lon="3.0521733"><ele>141.0</ele><time>2026-04-04T15:15:27.443Z</time></trkpt><trkpt lat="43.3916233" lon="3.0521567"><ele>141.0</ele><time>2026-04-04T15:15:28.444Z</time></trkpt><trkpt lat="43.3915533" lon="3.0521383"><ele>141.0</ele><time>2026-04-04T15:15:29.446Z</time></trkpt><trkpt lat="43.3914783" lon="3.05211"><ele>141.0</ele><time>2026-04-04T15:15:30.445Z</time></trkpt><trkpt lat="43.3913917" lon="3.05207"><ele>141.0</ele><time>2026-04-04T15:15:31.444Z</time></trkpt><trkpt lat="43.3912983" lon="3.05202"><ele>141.0</ele><time>2026-04-04T15:15:32.442Z</time></trkpt><trkpt lat="43.3912" lon="3.0519583"><ele>140.0</ele><time>2026-04-04T15:15:33.442Z</time></trkpt><trkpt lat="43.3911033" lon="3.0518833"><ele>139.0</ele><time>2026-04-04T15:15:34.443Z</time></trkpt><trkpt lat="43.3910183" lon="3.0517983"><ele>138.0</ele><time>2026-04-04T15:15:35.442Z</time></trkpt><trkpt lat="43.3909583" lon="3.0517283"><ele>137.0</ele><time>2026-04-04T15:15:36.444Z</time></trkpt><trkpt lat="43.3908833" lon="3.051705"><ele>136.0</ele><time>2026-04-04T15:15:38.442Z</time></trkpt><trkpt lat="43.3908217" lon="3.0518417"><ele>136.0</ele><time>2026-04-04T15:15:40.442Z</time></trkpt><trkpt lat="43.3907733" lon="3.0519517"><ele>136.0</ele><time>2026-04-04T15:15:41.442Z</time></trkpt><trkpt lat="43.3907183" lon="3.052095"><ele>136.0</ele><time>2026-04-04T15:15:42.445Z</time></trkpt><trkpt lat="43.3906533" lon="3.0522783"><ele>136.0</ele><time>2026-04-04T15:15:43.442Z</time></trkpt><trkpt lat="43.3905767" lon="3.0524883"><ele>134.33333333333334</ele><time>2026-04-04T15:15:44.443Z</time></trkpt><trkpt lat="43.3904967" lon="3.0527"><ele>132.66666666666666</ele><time>2026-04-04T15:15:45.444Z</time></trkpt><trkpt lat="43.39041" lon="3.052915"><ele>131.0</ele><time>2026-04-04T15:15:46.442Z</time></trkpt><trkpt lat="43.3903217" lon="3.0531333"><ele>130.33333333333331</ele><time>2026-04-04T15:15:47.443Z</time></trkpt><trkpt lat="43.3902383" lon="3.0533583"><ele>129.66666666666666</ele><time>2026-04-04T15:15:48.443Z</time></trkpt><trkpt lat="43.3901533" lon="3.0535817"><ele>129.0</ele><time>2026-04-04T15:15:49.445Z</time></trkpt><trkpt lat="43.3900633" lon="3.0538083"><ele>129.0</ele><time>2026-04-04T15:15:50.442Z</time></trkpt><trkpt lat="43.3899717" lon="3.0540383"><ele>129.0</ele><time>2026-04-04T15:15:51.443Z</time></trkpt><trkpt lat="43.3898867" lon="3.05426"><ele>129.0</ele><time>2026-04-04T15:15:52.442Z</time></trkpt><trkpt lat="43.3897967" lon="3.054485"><ele>128.66666666666666</ele><time>2026-04-04T15:15:53.442Z</time></trkpt><trkpt lat="43.3897083" lon="3.0547117"><ele>128.33333333333331</ele><time>2026-04-04T15:15:54.443Z</time></trkpt><trkpt lat="43.38962" lon="3.0549283"><ele>128.0</ele><time>2026-04-04T15:15:55.443Z</time></trkpt><trkpt lat="43.3895367" lon="3.0551383"><ele>126.66666666666666</ele><time>2026-04-04T15:15:56.442Z</time></trkpt><trkpt lat="43.389455" lon="3.0553483"><ele>125.33333333333334</ele><time>2026-04-04T15:15:57.442Z</time></trkpt><trkpt lat="43.389375" lon="3.0555517"><ele>124.0</ele><time>2026-04-04T15:15:58.444Z</time></trkpt><trkpt lat="43.3892917" lon="3.0557467"><ele>124.0</ele><time>2026-04-04T15:15:59.444Z</time></trkpt><trkpt lat="43.3892033" lon="3.055955"><ele>124.0</ele><time>2026-04-04T15:16:00.444Z</time></trkpt><trkpt lat="43.3891133" lon="3.0561767"><ele>124.0</ele><time>2026-04-04T15:16:01.442Z</time></trkpt><trkpt lat="43.389025" lon="3.056405"><ele>124.33333333333334</ele><time>2026-04-04T15:16:02.442Z</time></trkpt><trkpt lat="43.3889367" lon="3.0566383"><ele>124.66666666666666</ele><time>2026-04-04T15:16:03.446Z</time></trkpt><trkpt lat="43.3888433" lon="3.0568717"><ele>125.0</ele><time>2026-04-04T15:16:04.446Z</time></trkpt><trkpt lat="43.38875" lon="3.0571133"><ele>123.33333333333333</ele><time>2026-04-04T15:16:05.445Z</time></trkpt><trkpt lat="43.3886583" lon="3.057345"><ele>121.66666666666666</ele><time>2026-04-04T15:16:06.443Z</time></trkpt><trkpt lat="43.3885667" lon="3.057585"><ele>120.0</ele><time>2026-04-04T15:16:07.446Z</time></trkpt><trkpt lat="43.3884717" lon="3.0578183"><ele>120.0</ele><time>2026-04-04T15:16:08.445Z</time></trkpt><trkpt lat="43.38838" lon="3.05804"><ele>120.0</ele><time>2026-04-04T15:16:09.443Z</time></trkpt><trkpt lat="43.38829" lon="3.0582517"><ele>120.0</ele><time>2026-04-04T15:16:10.443Z</time></trkpt><trkpt lat="43.3882017" lon="3.0584633"><ele>120.33333333333334</ele><time>2026-04-04T15:16:11.443Z</time></trkpt><trkpt lat="43.38812" lon="3.0586767"><ele>120.66666666666667</ele><time>2026-04-04T15:16:12.446Z</time></trkpt><trkpt lat="43.38804" lon="3.05889"><ele>121.0</ele><time>2026-04-04T15:16:13.443Z</time></trkpt><trkpt lat="43.3879633" lon="3.0590833"><ele>119.0</ele><time>2026-04-04T15:16:14.443Z</time></trkpt><trkpt lat="43.3878783" lon="3.0592867"><ele>117.0</ele><time>2026-04-04T15:16:15.443Z</time></trkpt><trkpt lat="43.3878033" lon="3.0595"><ele>115.0</ele><time>2026-04-04T15:16:16.449Z</time></trkpt><trkpt lat="43.38773" lon="3.05973"><ele>115.66666666666667</ele><time>2026-04-04T15:16:17.442Z</time></trkpt><trkpt lat="43.3876517" lon="3.0599667"><ele>116.33333333333334</ele><time>2026-04-04T15:16:18.443Z</time></trkpt><trkpt lat="43.3875683" lon="3.060205"><ele>117.0</ele><time>2026-04-04T15:16:19.443Z</time></trkpt><trkpt lat="43.387485" lon="3.0604467"><ele>117.0</ele><time>2026-04-04T15:16:20.442Z</time></trkpt><trkpt lat="43.3874033" lon="3.06069"><ele>117.0</ele><time>2026-04-04T15:16:21.443Z</time></trkpt><trkpt lat="43.38732" lon="3.060935"><ele>117.0</ele><time>2026-04-04T15:16:22.444Z</time></trkpt><trkpt lat="43.3872383" lon="3.06117"><ele>114.0</ele><time>2026-04-04T15:16:23.443Z</time></trkpt><trkpt lat="43.38716" lon="3.06141"><ele>111.0</ele><time>2026-04-04T15:16:24.443Z</time></trkpt><trkpt lat="43.387085" lon="3.0616483"><ele>108.0</ele><time>2026-04-04T15:16:25.443Z</time></trkpt><trkpt lat="43.38701" lon="3.0618833"><ele>108.0</ele><time>2026-04-04T15:16:26.442Z</time></trkpt><trkpt lat="43.386935" lon="3.0621133"><ele>108.0</ele><time>2026-04-04T15:16:27.443Z</time></trkpt><trkpt lat="43.3868617" lon="3.0623317"><ele>108.0</ele><time>2026-04-04T15:16:28.444Z</time></trkpt><trkpt lat="43.3867917" lon="3.062545"><ele>108.0</ele><time>2026-04-04T15:16:29.442Z</time></trkpt><trkpt lat="43.3867317" lon="3.0627333"><ele>108.00000000000001</ele><time>2026-04-04T15:16:30.443Z</time></trkpt><trkpt lat="43.3866817" lon="3.0628883"><ele>108.00000000000001</ele><time>2026-04-04T15:16:31.444Z</time></trkpt><trkpt lat="43.3866333" lon="3.0629933"><ele>108.0</ele><time>2026-04-04T15:16:32.445Z</time></trkpt><trkpt lat="43.3865833" lon="3.0630683"><ele>108.0</ele><time>2026-04-04T15:16:33.445Z</time></trkpt><trkpt lat="43.3865283" lon="3.0631133"><ele>108.0</ele><time>2026-04-04T15:16:34.443Z</time></trkpt><trkpt lat="43.3864567" lon="3.0631183"><ele>108.00000000000001</ele><time>2026-04-04T15:16:35.442Z</time></trkpt><trkpt lat="43.3863817" lon="3.0631067"><ele>108.00000000000001</ele><time>2026-04-04T15:16:36.444Z</time></trkpt><trkpt lat="43.38628" lon="3.063065"><ele>108.0</ele><time>2026-04-04T15:16:37.444Z</time></trkpt><trkpt lat="43.3861417" lon="3.06301"><ele>108.0</ele><time>2026-04-04T15:16:38.442Z</time></trkpt><trkpt lat="43.386005" lon="3.0629783"><ele>107.2</ele><time>2026-04-04T15:16:39.445Z</time></trkpt><trkpt lat="43.38587" lon="3.0629317"><ele>106.4</ele><time>2026-04-04T15:16:40.443Z</time></trkpt><trkpt lat="43.3857617" lon="3.0628967"><ele>105.60000000000001</ele><time>2026-04-04T15:16:41.444Z</time></trkpt><trkpt lat="43.3856767" lon="3.0628583"><ele>104.80000000000001</ele><time>2026-04-04T15:16:42.445Z</time></trkpt><trkpt lat="43.3856017" lon="3.0628117"><ele>104.0</ele><time>2026-04-04T15:16:43.444Z</time></trkpt><trkpt lat="43.3855067" lon="3.0627017"><ele>103.99999999999999</ele><time>2026-04-04T15:16:45.442Z</time></trkpt><trkpt lat="43.3855017" lon="3.0626083"><ele>104.0</ele><time>2026-04-04T15:16:47.443Z</time></trkpt><trkpt lat="43.3855367" lon="3.0627433"><ele>104.0</ele><time>2026-04-04T15:16:53.442Z</time></trkpt><trkpt lat="43.3854933" lon="3.0628817"><ele>104.0</ele><time>2026-04-04T15:16:55.443Z</time></trkpt><trkpt lat="43.3854267" lon="3.0629417"><ele>103.99999999999999</ele><time>2026-04-04T15:16:56.442Z</time></trkpt><trkpt lat="43.38535" lon="3.062995"><ele>104.0</ele><time>2026-04-04T15:16:57.444Z</time></trkpt><trkpt lat="43.3852583" lon="3.06304"><ele>103.75</ele><time>2026-04-04T15:16:58.443Z</time></trkpt><trkpt lat="43.3851483" lon="3.0630683"><ele>103.5</ele><time>2026-04-04T15:16:59.444Z</time></trkpt><trkpt lat="43.385025" lon="3.0630733"><ele>103.25</ele><time>2026-04-04T15:17:00.443Z</time></trkpt><trkpt lat="43.3848967" lon="3.0630617"><ele>103.0</ele><time>2026-04-04T15:17:01.446Z</time></trkpt><trkpt lat="43.3847633" lon="3.06304"><ele>102.75</ele><time>2026-04-04T15:17:02.445Z</time></trkpt><trkpt lat="43.3846283" lon="3.063015"><ele>102.5</ele><time>2026-04-04T15:17:03.443Z</time></trkpt><trkpt lat="43.38449" lon="3.0629817"><ele>102.25</ele><time>2026-04-04T15:17:04.443Z</time></trkpt><trkpt lat="43.38438" lon="3.0629567"><ele>102.0</ele><time>2026-04-04T15:17:05.443Z</time></trkpt><trkpt lat="43.38429" lon="3.06295"><ele>102.0</ele><time>2026-04-04T15:17:06.445Z</time></trkpt><trkpt lat="43.3841767" lon="3.063"><ele>102.0</ele><time>2026-04-04T15:17:08.445Z</time></trkpt><trkpt lat="43.3841867" lon="3.063105"><ele>102.0</ele><time>2026-04-04T15:17:10.444Z</time></trkpt><trkpt lat="43.3842483" lon="3.063185"><ele>102.0</ele><time>2026-04-04T15:17:11.443Z</time></trkpt><trkpt lat="43.3844167" lon="3.0633183"><ele>101.66666666666666</ele><time>2026-04-04T15:17:12.443Z</time></trkpt><trkpt lat="43.3846067" lon="3.06347"><ele>101.33333333333333</ele><time>2026-04-04T15:17:13.444Z</time></trkpt><trkpt lat="43.3847167" lon="3.063615"><ele>101.0</ele><time>2026-04-04T15:17:14.442Z</time></trkpt><trkpt lat="43.38482" lon="3.0637383"><ele>101.4</ele><time>2026-04-04T15:17:15.445Z</time></trkpt><trkpt lat="43.384895" lon="3.063835"><ele>101.8</ele><time>2026-04-04T15:17:16.444Z</time></trkpt><trkpt lat="43.3849483" lon="3.0639133"><ele>102.2</ele><time>2026-04-04T15:17:17.442Z</time></trkpt><trkpt lat="43.384945" lon="3.0640717"><ele>102.60000000000001</ele><time>2026-04-04T15:17:19.446Z</time></trkpt><trkpt lat="43.3848667" lon="3.0641583"><ele>103.0</ele><time>2026-04-04T15:17:20.442Z</time></trkpt><trkpt lat="43.3847783" lon="3.0642633"><ele>102.75</ele><time>2026-04-04T15:17:21.443Z</time></trkpt><trkpt lat="43.3846633" lon="3.0643817"><ele>102.5</ele><time>2026-04-04T15:17:22.443Z</time></trkpt><trkpt lat="43.3845633" lon="3.0645167"><ele>102.25</ele><time>2026-04-04T15:17:23.444Z</time></trkpt><trkpt lat="43.3844567" lon="3.0646567"><ele>102.0</ele><time>2026-04-04T15:17:24.443Z</time></trkpt><trkpt lat="43.3843567" lon="3.0647917"><ele>102.0</ele><time>2026-04-04T15:17:25.443Z</time></trkpt><trkpt lat="43.3842683" lon="3.0649033"><ele>102.0</ele><time>2026-04-04T15:17:26.443Z</time></trkpt><trkpt lat="43.3841983" lon="3.0649817"><ele>102.0</ele><time>2026-04-04T15:17:27.443Z</time></trkpt><trkpt lat="43.3841367" lon="3.0650333"><ele>102.0</ele><time>2026-04-04T15:17:28.443Z</time></trkpt><trkpt lat="43.38401" lon="3.0650217"><ele>102.0</ele><time>2026-04-04T15:17:30.443Z</time></trkpt><trkpt lat="43.383945" lon="3.0649617"><ele>102.0</ele><time>2026-04-04T15:17:31.443Z</time></trkpt><trkpt lat="43.38388" lon="3.0648433"><ele>102.0</ele><time>2026-04-04T15:17:32.442Z</time></trkpt><trkpt lat="43.383815" lon="3.0647233"><ele>102.0</ele><time>2026-04-04T15:17:33.443Z</time></trkpt><trkpt lat="43.3837567" lon="3.0646333"><ele>102.0</ele><time>2026-04-04T15:17:34.445Z</time></trkpt><trkpt lat="43.3837017" lon="3.0645817"><ele>102.0</ele><time>2026-04-04T15:17:35.442Z</time></trkpt><trkpt lat="43.3835783" lon="3.064605"><ele>101.5</ele><time>2026-04-04T15:17:37.443Z</time></trkpt><trkpt lat="43.38352" lon="3.064645"><ele>101.0</ele><time>2026-04-04T15:17:38.443Z</time></trkpt><trkpt lat="43.383445" lon="3.0647183"><ele>100.5</ele><time>2026-04-04T15:17:39.444Z</time></trkpt><trkpt lat="43.3833483" lon="3.064835"><ele>100.0</ele><time>2026-04-04T15:17:40.443Z</time></trkpt><trkpt lat="43.3832" lon="3.0650417"><ele>100.0</ele><time>2026-04-04T15:17:41.444Z</time></trkpt><trkpt lat="43.383045" lon="3.0652417"><ele>100.0</ele><time>2026-04-04T15:17:42.443Z</time></trkpt><trkpt lat="43.3829033" lon="3.0654083"><ele>100.0</ele><time>2026-04-04T15:17:43.444Z</time></trkpt><trkpt lat="43.382765" lon="3.065565"><ele>99.75</ele><time>2026-04-04T15:17:44.443Z</time></trkpt><trkpt lat="43.3826467" lon="3.0657117"><ele>99.5</ele><time>2026-04-04T15:17:45.444Z</time></trkpt><trkpt lat="43.3825517" lon="3.06584"><ele>99.25</ele><time>2026-04-04T15:17:46.443Z</time></trkpt><trkpt lat="43.382455" lon="3.0659683"><ele>99.0</ele><time>2026-04-04T15:17:47.443Z</time></trkpt><trkpt lat="43.3823583" lon="3.066105"><ele>99.0</ele><time>2026-04-04T15:17:48.443Z</time></trkpt><trkpt lat="43.3822717" lon="3.06625"><ele>99.0</ele><time>2026-04-04T15:17:49.443Z</time></trkpt><trkpt lat="43.382195" lon="3.0664167"><ele>99.0</ele><time>2026-04-04T15:17:50.443Z</time></trkpt><trkpt lat="43.38213" lon="3.0665983"><ele>99.0</ele><time>2026-04-04T15:17:51.442Z</time></trkpt><trkpt lat="43.3820733" lon="3.0667883"><ele>97.33333333333333</ele><time>2026-04-04T15:17:52.443Z</time></trkpt><trkpt lat="43.3820117" lon="3.0669817"><ele>95.66666666666666</ele><time>2026-04-04T15:17:53.444Z</time></trkpt><trkpt lat="43.3819517" lon="3.0671833"><ele>94.0</ele><time>2026-04-04T15:17:54.444Z</time></trkpt><trkpt lat="43.3818983" lon="3.0673967"><ele>94.0</ele><time>2026-04-04T15:17:55.446Z</time></trkpt><trkpt lat="43.3818517" lon="3.0676183"><ele>94.0</ele><time>2026-04-04T15:17:56.446Z</time></trkpt><trkpt lat="43.3818083" lon="3.0678417"><ele>94.0</ele><time>2026-04-04T15:17:57.446Z</time></trkpt><trkpt lat="43.3817667" lon="3.068045"><ele>94.0</ele><time>2026-04-04T15:17:58.445Z</time></trkpt><trkpt lat="43.3817333" lon="3.068215"><ele>94.0</ele><time>2026-04-04T15:17:59.446Z</time></trkpt><trkpt lat="43.3817133" lon="3.06835"><ele>94.0</ele><time>2026-04-04T15:18:00.447Z</time></trkpt><trkpt lat="43.3817233" lon="3.0684667"><ele>94.0</ele><time>2026-04-04T15:18:01.445Z</time></trkpt><trkpt lat="43.3817633" lon="3.0685733"><ele>94.0</ele><time>2026-04-04T15:18:02.446Z</time></trkpt><trkpt lat="43.3818217" lon="3.0687017"><ele>93.75</ele><time>2026-04-04T15:18:03.442Z</time></trkpt><trkpt lat="43.3818883" lon="3.0688333"><ele>93.5</ele><time>2026-04-04T15:18:04.446Z</time></trkpt><trkpt lat="43.381975" lon="3.06898"><ele>93.25</ele><time>2026-04-04T15:18:05.447Z</time></trkpt><trkpt lat="43.38208" lon="3.069125"><ele>93.0</ele><time>2026-04-04T15:18:06.444Z</time></trkpt><trkpt lat="43.3821933" lon="3.0692667"><ele>94.0</ele><time>2026-04-04T15:18:07.443Z</time></trkpt><trkpt lat="43.3822967" lon="3.0693883"><ele>95.0</ele><time>2026-04-04T15:18:08.443Z</time></trkpt><trkpt lat="43.3823733" lon="3.0694783"><ele>96.0</ele><time>2026-04-04T15:18:09.445Z</time></trkpt><trkpt lat="43.3824283" lon="3.06956"><ele>97.0</ele><time>2026-04-04T15:18:10.447Z</time></trkpt><trkpt lat="43.3824617" lon="3.069635"><ele>98.0</ele><time>2026-04-04T15:18:11.446Z</time></trkpt><trkpt lat="43.3824167" lon="3.0697817"><ele>98.0</ele><time>2026-04-04T15:18:13.444Z</time></trkpt><trkpt lat="43.38237" lon="3.069875"><ele>98.0</ele><time>2026-04-04T15:18:14.442Z</time></trkpt><trkpt lat="43.3822983" lon="3.0699867"><ele>98.0</ele><time>2026-04-04T15:18:15.444Z</time></trkpt><trkpt lat="43.3821733" lon="3.07015"><ele>98.0</ele><time>2026-04-04T15:18:16.443Z</time></trkpt><trkpt lat="43.3820267" lon="3.070335"><ele>95.0</ele><time>2026-04-04T15:18:17.443Z</time></trkpt><trkpt lat="43.3818833" lon="3.0705217"><ele>92.0</ele><time>2026-04-04T15:18:18.444Z</time></trkpt><trkpt lat="43.3817367" lon="3.0707117"><ele>89.0</ele><time>2026-04-04T15:18:19.444Z</time></trkpt><trkpt lat="43.381625" lon="3.0708917"><ele>88.4</ele><time>2026-04-04T15:18:20.443Z</time></trkpt><trkpt lat="43.381535" lon="3.07105"><ele>87.80000000000001</ele><time>2026-04-04T15:18:21.446Z</time></trkpt><trkpt lat="43.3814583" lon="3.0711733"><ele>87.19999999999999</ele><time>2026-04-04T15:18:22.443Z</time></trkpt><trkpt lat="43.3813967" lon="3.07126"><ele>86.6</ele><time>2026-04-04T15:18:23.442Z</time></trkpt><trkpt lat="43.3813117" lon="3.0713083"><ele>86.0</ele><time>2026-04-04T15:18:25.446Z</time></trkpt><trkpt lat="43.3812517" lon="3.0712217"><ele>85.75</ele><time>2026-04-04T15:18:27.444Z</time></trkpt><trkpt lat="43.38123" lon="3.0710417"><ele>85.5</ele><time>2026-04-04T15:18:28.444Z</time></trkpt><trkpt lat="43.3811783" lon="3.070865"><ele>85.25</ele><time>2026-04-04T15:18:29.444Z</time></trkpt><trkpt lat="43.3811067" lon="3.0706633"><ele>85.0</ele><time>2026-04-04T15:18:30.444Z</time></trkpt><trkpt lat="43.3810117" lon="3.0704283"><ele>85.4</ele><time>2026-04-04T15:18:31.444Z</time></trkpt><trkpt lat="43.3809333" lon="3.0702617"><ele>85.8</ele><time>2026-04-04T15:18:32.446Z</time></trkpt><trkpt lat="43.38087" lon="3.0701433"><ele>86.19999999999999</ele><time>2026-04-04T15:18:33.446Z</time></trkpt><trkpt lat="43.3808233" lon="3.0700617"><ele>86.6</ele><time>2026-04-04T15:18:34.447Z</time></trkpt><trkpt lat="43.3807833" lon="3.0699233"><ele>87.0</ele><time>2026-04-04T15:18:36.444Z</time></trkpt><trkpt lat="43.3807717" lon="3.0697633"><ele>87.39999999999999</ele><time>2026-04-04T15:18:38.443Z</time></trkpt><trkpt lat="43.3807617" lon="3.0696533"><ele>87.8</ele><time>2026-04-04T15:18:39.443Z</time></trkpt><trkpt lat="43.38075" lon="3.06953"><ele>88.2</ele><time>2026-04-04T15:18:40.443Z</time></trkpt><trkpt lat="43.3807383" lon="3.0693867"><ele>88.6</ele><time>2026-04-04T15:18:41.444Z</time></trkpt><trkpt lat="43.3807267" lon="3.069235"><ele>89.0</ele><time>2026-04-04T15:18:42.445Z</time></trkpt><trkpt lat="43.38071" lon="3.0690917"><ele>88.6</ele><time>2026-04-04T15:18:43.446Z</time></trkpt><trkpt lat="43.38068" lon="3.0689683"><ele>88.2</ele><time>2026-04-04T15:18:44.443Z</time></trkpt><trkpt lat="43.3806267" lon="3.068865"><ele>87.8</ele><time>2026-04-04T15:18:45.443Z</time></trkpt><trkpt lat="43.3805633" lon="3.0687783"><ele>87.39999999999999</ele><time>2026-04-04T15:18:46.447Z</time></trkpt><trkpt lat="43.3804683" lon="3.0687033"><ele>87.0</ele><time>2026-04-04T15:18:47.443Z</time></trkpt><trkpt lat="43.3803817" lon="3.0686183"><ele>87.0</ele><time>2026-04-04T15:18:48.446Z</time></trkpt><trkpt lat="43.3803033" lon="3.068535"><ele>87.0</ele><time>2026-04-04T15:18:49.446Z</time></trkpt><trkpt lat="43.380235" lon="3.0684517"><ele>87.0</ele><time>2026-04-04T15:18:50.447Z</time></trkpt><trkpt lat="43.380165" lon="3.0683517"><ele>87.0</ele><time>2026-04-04T15:18:51.444Z</time></trkpt><trkpt lat="43.3800933" lon="3.0682267"><ele>87.0</ele><time>2026-04-04T15:18:52.444Z</time></trkpt><trkpt lat="43.380025" lon="3.0680767"><ele>87.0</ele><time>2026-04-04T15:18:53.446Z</time></trkpt><trkpt lat="43.3799483" lon="3.0679"><ele>87.0</ele><time>2026-04-04T15:18:54.444Z</time></trkpt><trkpt lat="43.379865" lon="3.0676933"><ele>87.0</ele><time>2026-04-04T15:18:55.447Z</time></trkpt><trkpt lat="43.37978" lon="3.0674867"><ele>84.66666666666667</ele><time>2026-04-04T15:18:56.444Z</time></trkpt><trkpt lat="43.3796833" lon="3.06727"><ele>82.33333333333334</ele><time>2026-04-04T15:18:57.445Z</time></trkpt><trkpt lat="43.3795833" lon="3.0670583"><ele>80.0</ele><time>2026-04-04T15:18:58.445Z</time></trkpt><trkpt lat="43.37948" lon="3.0668517"><ele>80.0</ele><time>2026-04-04T15:18:59.445Z</time></trkpt><trkpt lat="43.379385" lon="3.0666583"><ele>80.0</ele><time>2026-04-04T15:19:00.446Z</time></trkpt><trkpt lat="43.3793033" lon="3.06647"><ele>80.0</ele><time>2026-04-04T15:19:01.446Z</time></trkpt><trkpt lat="43.3792417" lon="3.0662917"><ele>80.4</ele><time>2026-04-04T15:19:02.447Z</time></trkpt><trkpt lat="43.3791967" lon="3.0661283"><ele>80.8</ele><time>2026-04-04T15:19:03.446Z</time></trkpt><trkpt lat="43.3791733" lon="3.0659883"><ele>81.19999999999999</ele><time>2026-04-04T15:19:04.446Z</time></trkpt><trkpt lat="43.3791517" lon="3.065865"><ele>81.6</ele><time>2026-04-04T15:19:05.446Z</time></trkpt><trkpt lat="43.37913" lon="3.0657417"><ele>82.0</ele><time>2026-04-04T15:19:06.446Z</time></trkpt><trkpt lat="43.3791083" lon="3.065615"><ele>82.19999999999999</ele><time>2026-04-04T15:19:07.443Z</time></trkpt><trkpt lat="43.379085" lon="3.0654883"><ele>82.4</ele><time>2026-04-04T15:19:08.443Z</time></trkpt><trkpt lat="43.3790533" lon="3.0653583"><ele>82.6</ele><time>2026-04-04T15:19:09.443Z</time></trkpt><trkpt lat="43.3790117" lon="3.0652133"><ele>82.80000000000001</ele><time>2026-04-04T15:19:10.443Z</time></trkpt><trkpt lat="43.37897" lon="3.0650617"><ele>83.0</ele><time>2026-04-04T15:19:11.444Z</time></trkpt><trkpt lat="43.378925" lon="3.064895"><ele>83.5</ele><time>2026-04-04T15:19:12.443Z</time></trkpt><trkpt lat="43.37887" lon="3.0647267"><ele>84.0</ele><time>2026-04-04T15:19:13.445Z</time></trkpt><trkpt lat="43.3788117" lon="3.06455"><ele>84.5</ele><time>2026-04-04T15:19:14.446Z</time></trkpt><trkpt lat="43.3787533" lon="3.064365"><ele>85.0</ele><time>2026-04-04T15:19:15.444Z</time></trkpt><trkpt lat="43.3787" lon="3.06417"><ele>86.0</ele><time>2026-04-04T15:19:16.443Z</time></trkpt><trkpt lat="43.37865" lon="3.06396"><ele>87.0</ele><time>2026-04-04T15:19:17.443Z</time></trkpt><trkpt lat="43.3785967" lon="3.06374"><ele>88.0</ele><time>2026-04-04T15:19:18.443Z</time></trkpt><trkpt lat="43.37854" lon="3.0635133"><ele>88.0</ele><time>2026-04-04T15:19:19.445Z</time></trkpt><trkpt lat="43.3784867" lon="3.06329"><ele>88.0</ele><time>2026-04-04T15:19:20.442Z</time></trkpt><trkpt lat="43.378435" lon="3.0630767"><ele>88.0</ele><time>2026-04-04T15:19:21.442Z</time></trkpt><trkpt lat="43.3783867" lon="3.0628817"><ele>88.2</ele><time>2026-04-04T15:19:22.444Z</time></trkpt><trkpt lat="43.37834" lon="3.0627117"><ele>88.4</ele><time>2026-04-04T15:19:23.443Z</time></trkpt><trkpt lat="43.3782917" lon="3.062575"><ele>88.60000000000001</ele><time>2026-04-04T15:19:24.443Z</time></trkpt><trkpt lat="43.3782283" lon="3.0624767"><ele>88.80000000000001</ele><time>2026-04-04T15:19:25.445Z</time></trkpt><trkpt lat="43.378155" lon="3.0623967"><ele>89.0</ele><time>2026-04-04T15:19:26.443Z</time></trkpt><trkpt lat="43.3780833" lon="3.062325"><ele>89.6</ele><time>2026-04-04T15:19:27.443Z</time></trkpt><trkpt lat="43.3780217" lon="3.0622583"><ele>90.2</ele><time>2026-04-04T15:19:28.442Z</time></trkpt><trkpt lat="43.3779733" lon="3.0621833"><ele>90.8</ele><time>2026-04-04T15:19:29.444Z</time></trkpt><trkpt lat="43.377945" lon="3.0620633"><ele>91.39999999999999</ele><time>2026-04-04T15:19:30.444Z</time></trkpt><trkpt lat="43.3779117" lon="3.0619167"><ele>92.0</ele><time>2026-04-04T15:19:31.443Z</time></trkpt><trkpt lat="43.3778867" lon="3.0617333"><ele>93.0</ele><time>2026-04-04T15:19:32.445Z</time></trkpt><trkpt lat="43.3778417" lon="3.0615617"><ele>94.0</ele><time>2026-04-04T15:19:33.443Z</time></trkpt><trkpt lat="43.3777933" lon="3.061385"><ele>95.0</ele><time>2026-04-04T15:19:34.442Z</time></trkpt><trkpt lat="43.3777433" lon="3.0612017"><ele>96.0</ele><time>2026-04-04T15:19:35.442Z</time></trkpt><trkpt lat="43.3776967" lon="3.0610367"><ele>96.0</ele><time>2026-04-04T15:19:36.445Z</time></trkpt><trkpt lat="43.377645" lon="3.060885"><ele>96.0</ele><time>2026-04-04T15:19:37.443Z</time></trkpt><trkpt lat="43.3775833" lon="3.0607333"><ele>96.0</ele><time>2026-04-04T15:19:38.443Z</time></trkpt><trkpt lat="43.377535" lon="3.0606133"><ele>96.0</ele><time>2026-04-04T15:19:39.445Z</time></trkpt><trkpt lat="43.3775033" lon="3.0605383"><ele>96.0</ele><time>2026-04-04T15:19:40.443Z</time></trkpt><trkpt lat="43.377495" lon="3.0606683"><ele>96.0</ele><time>2026-04-04T15:19:44.443Z</time></trkpt><trkpt lat="43.3775217" lon="3.0608383"><ele>96.0</ele><time>2026-04-04T15:19:45.443Z</time></trkpt><trkpt lat="43.3775567" lon="3.0610483"><ele>96.0</ele><time>2026-04-04T15:19:46.442Z</time></trkpt><trkpt lat="43.3775783" lon="3.0612883"><ele>96.0</ele><time>2026-04-04T15:19:47.444Z</time></trkpt><trkpt lat="43.3776083" lon="3.0615483"><ele>96.0</ele><time>2026-04-04T15:19:48.443Z</time></trkpt><trkpt lat="43.377645" lon="3.0618167"><ele>96.0</ele><time>2026-04-04T15:19:49.443Z</time></trkpt><trkpt lat="43.377665" lon="3.0620267"><ele>96.0</ele><time>2026-04-04T15:19:50.442Z</time></trkpt><trkpt lat="43.37767" lon="3.0622117"><ele>96.0</ele><time>2026-04-04T15:19:51.444Z</time></trkpt><trkpt lat="43.37765" lon="3.0623983"><ele>96.0</ele><time>2026-04-04T15:19:52.443Z</time></trkpt><trkpt lat="43.3776167" lon="3.06259"><ele>96.0</ele><time>2026-04-04T15:19:53.442Z</time></trkpt><trkpt lat="43.377575" lon="3.062795"><ele>95.66666666666667</ele><time>2026-04-04T15:19:54.442Z</time></trkpt><trkpt lat="43.3775383" lon="3.06301"><ele>95.33333333333334</ele><time>2026-04-04T15:19:55.443Z</time></trkpt><trkpt lat="43.3775083" lon="3.0632267"><ele>95.0</ele><time>2026-04-04T15:19:56.442Z</time></trkpt><trkpt lat="43.3774817" lon="3.063435"><ele>95.0</ele><time>2026-04-04T15:19:57.443Z</time></trkpt><trkpt lat="43.3774533" lon="3.0636433"><ele>95.0</ele><time>2026-04-04T15:19:58.442Z</time></trkpt><trkpt lat="43.3774233" lon="3.0638567"><ele>95.0</ele><time>2026-04-04T15:19:59.442Z</time></trkpt><trkpt lat="43.377395" lon="3.0640733"><ele>95.66666666666667</ele><time>2026-04-04T15:20:00.446Z</time></trkpt><trkpt lat="43.37737" lon="3.064295"><ele>96.33333333333334</ele><time>2026-04-04T15:20:01.443Z</time></trkpt><trkpt lat="43.377345" lon="3.064515"><ele>97.0</ele><time>2026-04-04T15:20:02.445Z</time></trkpt><trkpt lat="43.3773183" lon="3.064735"><ele>96.66666666666667</ele><time>2026-04-04T15:20:03.443Z</time></trkpt><trkpt lat="43.3772917" lon="3.0649667"><ele>96.33333333333334</ele><time>2026-04-04T15:20:04.443Z</time></trkpt><trkpt lat="43.3772683" lon="3.0652017"><ele>96.0</ele><time>2026-04-04T15:20:05.442Z</time></trkpt><trkpt lat="43.3772467" lon="3.065435"><ele>96.0</ele><time>2026-04-04T15:20:06.443Z</time></trkpt><trkpt lat="43.3772233" lon="3.065675"><ele>96.0</ele><time>2026-04-04T15:20:07.445Z</time></trkpt><trkpt lat="43.3772" lon="3.0659167"><ele>96.0</ele><time>2026-04-04T15:20:08.445Z</time></trkpt><trkpt lat="43.37718" lon="3.0661617"><ele>93.33333333333333</ele><time>2026-04-04T15:20:09.442Z</time></trkpt><trkpt lat="43.37716" lon="3.0664117"><ele>90.66666666666666</ele><time>2026-04-04T15:20:10.444Z</time></trkpt><trkpt lat="43.3771383" lon="3.066665"><ele>88.0</ele><time>2026-04-04T15:20:11.442Z</time></trkpt><trkpt lat="43.3771167" lon="3.0669133"><ele>87.66666666666666</ele><time>2026-04-04T15:20:12.442Z</time></trkpt><trkpt lat="43.3770917" lon="3.0671533"><ele>87.33333333333333</ele><time>2026-04-04T15:20:13.443Z</time></trkpt><trkpt lat="43.37706" lon="3.0673933"><ele>87.0</ele><time>2026-04-04T15:20:14.444Z</time></trkpt><trkpt lat="43.3770233" lon="3.0676283"><ele>86.33333333333333</ele><time>2026-04-04T15:20:15.442Z</time></trkpt><trkpt lat="43.376985" lon="3.0678667"><ele>85.66666666666666</ele><time>2026-04-04T15:20:16.443Z</time></trkpt><trkpt lat="43.3769433" lon="3.068105"><ele>85.0</ele><time>2026-04-04T15:20:17.442Z</time></trkpt><trkpt lat="43.376905" lon="3.068345"><ele>84.0</ele><time>2026-04-04T15:20:18.442Z</time></trkpt><trkpt lat="43.37687" lon="3.0685783"><ele>83.0</ele><time>2026-04-04T15:20:19.444Z</time></trkpt><trkpt lat="43.3768367" lon="3.0688033"><ele>82.0</ele><time>2026-04-04T15:20:20.442Z</time></trkpt><trkpt lat="43.37681" lon="3.0690217"><ele>81.33333333333333</ele><time>2026-04-04T15:20:21.445Z</time></trkpt><trkpt lat="43.37678" lon="3.0692233"><ele>80.66666666666667</ele><time>2026-04-04T15:20:22.442Z</time></trkpt><trkpt lat="43.3767433" lon="3.0694167"><ele>80.0</ele><time>2026-04-04T15:20:23.442Z</time></trkpt><trkpt lat="43.3766867" lon="3.0696183"><ele>80.0</ele><time>2026-04-04T15:20:24.442Z</time></trkpt><trkpt lat="43.3766117" lon="3.0698283"><ele>80.0</ele><time>2026-04-04T15:20:25.443Z</time></trkpt><trkpt lat="43.3765367" lon="3.0700483"><ele>80.0</ele><time>2026-04-04T15:20:26.442Z</time></trkpt><trkpt lat="43.3764583" lon="3.070275"><ele>79.0</ele><time>2026-04-04T15:20:27.443Z</time></trkpt><trkpt lat="43.3763817" lon="3.0705033"><ele>78.0</ele><time>2026-04-04T15:20:28.443Z</time></trkpt><trkpt lat="43.3763067" lon="3.0707283"><ele>77.0</ele><time>2026-04-04T15:20:29.442Z</time></trkpt><trkpt lat="43.37623" lon="3.0709533"><ele>76.66666666666667</ele><time>2026-04-04T15:20:30.445Z</time></trkpt><trkpt lat="43.37615" lon="3.0711833"><ele>76.33333333333333</ele><time>2026-04-04T15:20:31.443Z</time></trkpt><trkpt lat="43.3760683" lon="3.0714167"><ele>76.0</ele><time>2026-04-04T15:20:32.445Z</time></trkpt><trkpt lat="43.3759883" lon="3.07165"><ele>75.33333333333333</ele><time>2026-04-04T15:20:33.443Z</time></trkpt><trkpt lat="43.3759133" lon="3.0718717"><ele>74.66666666666667</ele><time>2026-04-04T15:20:34.443Z</time></trkpt><trkpt lat="43.3758483" lon="3.0720733"><ele>74.0</ele><time>2026-04-04T15:20:35.447Z</time></trkpt><trkpt lat="43.3757917" lon="3.0722533"><ele>74.0</ele><time>2026-04-04T15:20:36.442Z</time></trkpt><trkpt lat="43.3757433" lon="3.072405"><ele>74.0</ele><time>2026-04-04T15:20:37.447Z</time></trkpt><trkpt lat="43.3757033" lon="3.0725217"><ele>74.0</ele><time>2026-04-04T15:20:38.445Z</time></trkpt><trkpt lat="43.3756683" lon="3.0726083"><ele>74.0</ele><time>2026-04-04T15:20:39.442Z</time></trkpt><trkpt lat="43.3755983" lon="3.072695"><ele>74.0</ele><time>2026-04-04T15:20:41.442Z</time></trkpt><trkpt lat="43.3754783" lon="3.07266"><ele>73.25</ele><time>2026-04-04T15:20:43.445Z</time></trkpt><trkpt lat="43.3753933" lon="3.0726267"><ele>72.5</ele><time>2026-04-04T15:20:44.442Z</time></trkpt><trkpt lat="43.3752867" lon="3.0725883"><ele>71.75</ele><time>2026-04-04T15:20:45.446Z</time></trkpt><trkpt lat="43.3751417" lon="3.07254"><ele>71.0</ele><time>2026-04-04T15:20:46.442Z</time></trkpt><trkpt lat="43.3750067" lon="3.0724967"><ele>71.0</ele><time>2026-04-04T15:20:47.445Z</time></trkpt><trkpt lat="43.3748817" lon="3.0724533"><ele>71.0</ele><time>2026-04-04T15:20:48.442Z</time></trkpt><trkpt lat="43.3747933" lon="3.0724217"><ele>71.0</ele><time>2026-04-04T15:20:49.446Z</time></trkpt><trkpt lat="43.3746967" lon="3.0723683"><ele>71.0</ele><time>2026-04-04T15:20:51.445Z</time></trkpt><trkpt lat="43.3747467" lon="3.0724633"><ele>71.0</ele><time>2026-04-04T15:20:57.446Z</time></trkpt><trkpt lat="43.374785" lon="3.0725767"><ele>71.0</ele><time>2026-04-04T15:20:59.442Z</time></trkpt><trkpt lat="43.3747667" lon="3.0726617"><ele>71.0</ele><time>2026-04-04T15:21:00.446Z</time></trkpt><trkpt lat="43.3747167" lon="3.072755"><ele>71.0</ele><time>2026-04-04T15:21:01.446Z</time></trkpt><trkpt lat="43.3746233" lon="3.0728517"><ele>71.0</ele><time>2026-04-04T15:21:02.442Z</time></trkpt><trkpt lat="43.3745233" lon="3.07295"><ele>71.0</ele><time>2026-04-04T15:21:03.442Z</time></trkpt><trkpt lat="43.3743833" lon="3.0730533"><ele>70.75</ele><time>2026-04-04T15:21:04.443Z</time></trkpt><trkpt lat="43.3742483" lon="3.07316"><ele>70.5</ele><time>2026-04-04T15:21:05.443Z</time></trkpt><trkpt lat="43.3741267" lon="3.0732567"><ele>70.25</ele><time>2026-04-04T15:21:06.443Z</time></trkpt><trkpt lat="43.3740233" lon="3.0733483"><ele>70.0</ele><time>2026-04-04T15:21:07.443Z</time></trkpt><trkpt lat="43.3739233" lon="3.073445"><ele>69.5</ele><time>2026-04-04T15:21:08.442Z</time></trkpt><trkpt lat="43.3738233" lon="3.0735333"><ele>69.0</ele><time>2026-04-04T15:21:09.443Z</time></trkpt><trkpt lat="43.3737167" lon="3.0736017"><ele>68.5</ele><time>2026-04-04T15:21:10.443Z</time></trkpt><trkpt lat="43.3736017" lon="3.0736583"><ele>68.0</ele><time>2026-04-04T15:21:11.443Z</time></trkpt><trkpt lat="43.3734783" lon="3.0736983"><ele>68.0</ele><time>2026-04-04T15:21:12.445Z</time></trkpt><trkpt lat="43.373345" lon="3.0737183"><ele>68.0</ele><time>2026-04-04T15:21:13.443Z</time></trkpt><trkpt lat="43.3731967" lon="3.0737267"><ele>68.0</ele><time>2026-04-04T15:21:14.442Z</time></trkpt><trkpt lat="43.37303" lon="3.07373"><ele>68.0</ele><time>2026-04-04T15:21:15.443Z</time></trkpt><trkpt lat="43.37286" lon="3.0737333"><ele>68.0</ele><time>2026-04-04T15:21:16.444Z</time></trkpt><trkpt lat="43.372685" lon="3.0737367"><ele>68.0</ele><time>2026-04-04T15:21:17.443Z</time></trkpt><trkpt lat="43.37251" lon="3.0737383"><ele>68.0</ele><time>2026-04-04T15:21:18.447Z</time></trkpt><trkpt lat="43.3723367" lon="3.0737367"><ele>68.0</ele><time>2026-04-04T15:21:19.443Z</time></trkpt><trkpt lat="43.3721683" lon="3.07373"><ele>68.0</ele><time>2026-04-04T15:21:20.442Z</time></trkpt><trkpt lat="43.3720167" lon="3.07372"><ele>68.0</ele><time>2026-04-04T15:21:21.442Z</time></trkpt><trkpt lat="43.3718667" lon="3.073715"><ele>68.0</ele><time>2026-04-04T15:21:22.443Z</time></trkpt><trkpt lat="43.3717217" lon="3.0737133"><ele>68.0</ele><time>2026-04-04T15:21:23.442Z</time></trkpt><trkpt lat="43.3715867" lon="3.0737017"><ele>68.0</ele><time>2026-04-04T15:21:24.443Z</time></trkpt><trkpt lat="43.3714567" lon="3.073655"><ele>68.0</ele><time>2026-04-04T15:21:25.445Z</time></trkpt><trkpt lat="43.3713283" lon="3.0735883"><ele>68.4</ele><time>2026-04-04T15:21:26.442Z</time></trkpt><trkpt lat="43.3712067" lon="3.073515"><ele>68.8</ele><time>2026-04-04T15:21:27.442Z</time></trkpt><trkpt lat="43.37109" lon="3.0734433"><ele>69.2</ele><time>2026-04-04T15:21:28.443Z</time></trkpt><trkpt lat="43.370995" lon="3.0733883"><ele>69.6</ele><time>2026-04-04T15:21:29.442Z</time></trkpt><trkpt lat="43.37092" lon="3.0733433"><ele>70.0</ele><time>2026-04-04T15:21:30.446Z</time></trkpt><trkpt lat="43.3708367" lon="3.0733033"><ele>70.0</ele><time>2026-04-04T15:21:32.446Z</time></trkpt><trkpt lat="43.3709217" lon="3.0733567"><ele>70.0</ele><time>2026-04-04T15:21:36.444Z</time></trkpt><trkpt lat="43.3710433" lon="3.0734033"><ele>70.0</ele><time>2026-04-04T15:21:38.443Z</time></trkpt><trkpt lat="43.3711517" lon="3.0734683"><ele>70.0</ele><time>2026-04-04T15:21:39.443Z</time></trkpt><trkpt lat="43.37126" lon="3.0735317"><ele>69.5</ele><time>2026-04-04T15:21:40.443Z</time></trkpt><trkpt lat="43.371375" lon="3.0735967"><ele>69.0</ele><time>2026-04-04T15:21:41.443Z</time></trkpt><trkpt lat="43.3714983" lon="3.0736583"><ele>68.5</ele><time>2026-04-04T15:21:42.443Z</time></trkpt><trkpt lat="43.3716267" lon="3.0737"><ele>68.0</ele><time>2026-04-04T15:21:43.443Z</time></trkpt><trkpt lat="43.371765" lon="3.0737067"><ele>68.0</ele><time>2026-04-04T15:21:44.443Z</time></trkpt><trkpt lat="43.3719067" lon="3.0737083"><ele>68.0</ele><time>2026-04-04T15:21:45.443Z</time></trkpt><trkpt lat="43.3720533" lon="3.0737083"><ele>68.0</ele><time>2026-04-04T15:21:46.445Z</time></trkpt><trkpt lat="43.3722067" lon="3.0737133"><ele>68.0</ele><time>2026-04-04T15:21:47.444Z</time></trkpt><trkpt lat="43.372365" lon="3.0737233"><ele>68.0</ele><time>2026-04-04T15:21:48.444Z</time></trkpt><trkpt lat="43.372525" lon="3.073735"><ele>68.0</ele><time>2026-04-04T15:21:49.443Z</time></trkpt><trkpt lat="43.3726917" lon="3.07374"><ele>68.0</ele><time>2026-04-04T15:21:50.443Z</time></trkpt><trkpt lat="43.372855" lon="3.0737367"><ele>68.0</ele><time>2026-04-04T15:21:51.443Z</time></trkpt><trkpt lat="43.3730033" lon="3.0737283"><ele>68.0</ele><time>2026-04-04T15:21:52.443Z</time></trkpt><trkpt lat="43.37313" lon="3.0737283"><ele>68.0</ele><time>2026-04-04T15:21:53.446Z</time></trkpt><trkpt lat="43.37323" lon="3.07373"><ele>68.0</ele><time>2026-04-04T15:21:54.443Z</time></trkpt><trkpt lat="43.3733" lon="3.07374"><ele>68.0</ele><time>2026-04-04T15:21:55.446Z</time></trkpt><trkpt lat="43.3733633" lon="3.073795"><ele>68.0</ele><time>2026-04-04T15:21:57.443Z</time></trkpt><trkpt lat="43.3733033" lon="3.073925"><ele>68.0</ele><time>2026-04-04T15:21:59.442Z</time></trkpt><trkpt lat="43.3732383" lon="3.0740067"><ele>68.0</ele><time>2026-04-04T15:22:00.443Z</time></trkpt><trkpt lat="43.3731533" lon="3.07411"><ele>68.0</ele><time>2026-04-04T15:22:01.444Z</time></trkpt><trkpt lat="43.3730667" lon="3.07423"><ele>68.0</ele><time>2026-04-04T15:22:02.443Z</time></trkpt><trkpt lat="43.37297" lon="3.074355"><ele>69.66666666666667</ele><time>2026-04-04T15:22:03.442Z</time></trkpt><trkpt lat="43.3728583" lon="3.0744917"><ele>71.33333333333333</ele><time>2026-04-04T15:22:04.443Z</time></trkpt><trkpt lat="43.3727367" lon="3.0746383"><ele>73.0</ele><time>2026-04-04T15:22:05.443Z</time></trkpt><trkpt lat="43.3726083" lon="3.0747967"><ele>74.0</ele><time>2026-04-04T15:22:06.443Z</time></trkpt><trkpt lat="43.3724783" lon="3.0749583"><ele>75.0</ele><time>2026-04-04T15:22:07.443Z</time></trkpt><trkpt lat="43.3723483" lon="3.0751217"><ele>76.0</ele><time>2026-04-04T15:22:08.443Z</time></trkpt><trkpt lat="43.37222" lon="3.0752833"><ele>75.66666666666666</ele><time>2026-04-04T15:22:09.443Z</time></trkpt><trkpt lat="43.372095" lon="3.0754367"><ele>75.33333333333333</ele><time>2026-04-04T15:22:10.443Z</time></trkpt><trkpt lat="43.3719733" lon="3.0755817"><ele>75.0</ele><time>2026-04-04T15:22:11.443Z</time></trkpt><trkpt lat="43.3718667" lon="3.0757083"><ele>75.0</ele><time>2026-04-04T15:22:12.443Z</time></trkpt><trkpt lat="43.3717733" lon="3.07582"><ele>75.0</ele><time>2026-04-04T15:22:13.443Z</time></trkpt><trkpt lat="43.37168" lon="3.0759317"><ele>75.0</ele><time>2026-04-04T15:22:14.442Z</time></trkpt><trkpt lat="43.3715833" lon="3.0760533"><ele>75.0</ele><time>2026-04-04T15:22:15.443Z</time></trkpt><trkpt lat="43.3714717" lon="3.0761867"><ele>75.0</ele><time>2026-04-04T15:22:16.443Z</time></trkpt><trkpt lat="43.3713517" lon="3.0763233"><ele>75.0</ele><time>2026-04-04T15:22:17.442Z</time></trkpt><trkpt lat="43.3712283" lon="3.0764633"><ele>75.0</ele><time>2026-04-04T15:22:18.443Z</time></trkpt><trkpt lat="43.3711083" lon="3.0766"><ele>74.5</ele><time>2026-04-04T15:22:19.444Z</time></trkpt><trkpt lat="43.3709983" lon="3.0767317"><ele>74.0</ele><time>2026-04-04T15:22:20.443Z</time></trkpt><trkpt lat="43.3709" lon="3.0768533"><ele>73.5</ele><time>2026-04-04T15:22:21.443Z</time></trkpt><trkpt lat="43.3708" lon="3.0769683"><ele>73.0</ele><time>2026-04-04T15:22:22.443Z</time></trkpt><trkpt lat="43.3707" lon="3.0770917"><ele>73.0</ele><time>2026-04-04T15:22:23.442Z</time></trkpt><trkpt lat="43.370595" lon="3.0772317"><ele>73.0</ele><time>2026-04-04T15:22:24.443Z</time></trkpt><trkpt lat="43.3704867" lon="3.07738"><ele>73.0</ele><time>2026-04-04T15:22:25.445Z</time></trkpt><trkpt lat="43.370375" lon="3.0775333"><ele>72.0</ele><time>2026-04-04T15:22:26.442Z</time></trkpt><trkpt lat="43.3702567" lon="3.077695"><ele>71.0</ele><time>2026-04-04T15:22:27.442Z</time></trkpt><trkpt lat="43.3701467" lon="3.0778533"><ele>70.0</ele><time>2026-04-04T15:22:28.443Z</time></trkpt><trkpt lat="43.3700483" lon="3.0779917"><ele>70.0</ele><time>2026-04-04T15:22:29.444Z</time></trkpt><trkpt lat="43.36997" lon="3.0780967"><ele>70.0</ele><time>2026-04-04T15:22:30.445Z</time></trkpt><trkpt lat="43.3699067" lon="3.0781717"><ele>70.0</ele><time>2026-04-04T15:22:31.447Z</time></trkpt><trkpt lat="43.3698133" lon="3.07823"><ele>70.0</ele><time>2026-04-04T15:22:33.443Z</time></trkpt><trkpt lat="43.3697667" lon="3.078165"><ele>70.0</ele><time>2026-04-04T15:22:34.443Z</time></trkpt><trkpt lat="43.369705" lon="3.0780483"><ele>70.4</ele><time>2026-04-04T15:22:35.443Z</time></trkpt><trkpt lat="43.3696317" lon="3.0779217"><ele>70.8</ele><time>2026-04-04T15:22:36.443Z</time></trkpt><trkpt lat="43.369545" lon="3.07781"><ele>71.2</ele><time>2026-04-04T15:22:37.443Z</time></trkpt><trkpt lat="43.3694683" lon="3.0777033"><ele>71.6</ele><time>2026-04-04T15:22:38.442Z</time></trkpt><trkpt lat="43.3694017" lon="3.0776283"><ele>72.0</ele><time>2026-04-04T15:22:39.443Z</time></trkpt><trkpt lat="43.3693283" lon="3.0775683"><ele>72.0</ele><time>2026-04-04T15:22:40.443Z</time></trkpt><trkpt lat="43.3692533" lon="3.0774967"><ele>72.0</ele><time>2026-04-04T15:22:41.443Z</time></trkpt><trkpt lat="43.3691767" lon="3.0773917"><ele>72.0</ele><time>2026-04-04T15:22:42.443Z</time></trkpt><trkpt lat="43.36909" lon="3.0772517"><ele>72.0</ele><time>2026-04-04T15:22:43.444Z</time></trkpt><trkpt lat="43.3689917" lon="3.077095"><ele>72.25</ele><time>2026-04-04T15:22:44.444Z</time></trkpt><trkpt lat="43.3688883" lon="3.0769267"><ele>72.5</ele><time>2026-04-04T15:22:45.442Z</time></trkpt><trkpt lat="43.36879" lon="3.0767717"><ele>72.75</ele><time>2026-04-04T15:22:46.444Z</time></trkpt><trkpt lat="43.36871" lon="3.0766483"><ele>73.0</ele><time>2026-04-04T15:22:47.443Z</time></trkpt><trkpt lat="43.3686517" lon="3.0765667"><ele>73.2</ele><time>2026-04-04T15:22:48.444Z</time></trkpt><trkpt lat="43.3686" lon="3.0765133"><ele>73.4</ele><time>2026-04-04T15:22:49.447Z</time></trkpt><trkpt lat="43.368495" lon="3.0765433"><ele>73.60000000000001</ele><time>2026-04-04T15:22:51.445Z</time></trkpt><trkpt lat="43.3684317" lon="3.076635"><ele>73.8</ele><time>2026-04-04T15:22:52.443Z</time></trkpt><trkpt lat="43.3683417" lon="3.0767617"><ele>74.0</ele><time>2026-04-04T15:22:53.443Z</time></trkpt><trkpt lat="43.3682283" lon="3.07693"><ele>74.0</ele><time>2026-04-04T15:22:54.444Z</time></trkpt><trkpt lat="43.3681067" lon="3.077095"><ele>74.0</ele><time>2026-04-04T15:22:55.443Z</time></trkpt><trkpt lat="43.3679783" lon="3.0772617"><ele>74.0</ele><time>2026-04-04T15:22:56.443Z</time></trkpt><trkpt lat="43.367855" lon="3.07743"><ele>74.0</ele><time>2026-04-04T15:22:57.443Z</time></trkpt><trkpt lat="43.367745" lon="3.0775833"><ele>74.0</ele><time>2026-04-04T15:22:58.443Z</time></trkpt><trkpt lat="43.3676567" lon="3.0777067"><ele>74.0</ele><time>2026-04-04T15:22:59.444Z</time></trkpt><trkpt lat="43.3675917" lon="3.0777783"><ele>74.0</ele><time>2026-04-04T15:23:00.448Z</time></trkpt><trkpt lat="43.3675" lon="3.0778017"><ele>74.0</ele><time>2026-04-04T15:23:02.442Z</time></trkpt><trkpt lat="43.3674467" lon="3.0777333"><ele>74.0</ele><time>2026-04-04T15:23:03.442Z</time></trkpt><trkpt lat="43.3673817" lon="3.077615"><ele>74.0</ele><time>2026-04-04T15:23:04.444Z</time></trkpt><trkpt lat="43.3673133" lon="3.0775"><ele>74.0</ele><time>2026-04-04T15:23:05.443Z</time></trkpt><trkpt lat="43.36721" lon="3.0773067"><ele>73.66666666666667</ele><time>2026-04-04T15:23:06.443Z</time></trkpt><trkpt lat="43.3670867" lon="3.0771183"><ele>73.33333333333333</ele><time>2026-04-04T15:23:07.443Z</time></trkpt><trkpt lat="43.3669617" lon="3.0769367"><ele>73.0</ele><time>2026-04-04T15:23:08.443Z</time></trkpt><trkpt lat="43.3668367" lon="3.0767417"><ele>72.66666666666666</ele><time>2026-04-04T15:23:09.443Z</time></trkpt><trkpt lat="43.3667083" lon="3.0765383"><ele>72.33333333333333</ele><time>2026-04-04T15:23:10.444Z</time></trkpt><trkpt lat="43.3665783" lon="3.0763317"><ele>72.0</ele><time>2026-04-04T15:23:11.444Z</time></trkpt><trkpt lat="43.36645" lon="3.07613"><ele>72.33333333333333</ele><time>2026-04-04T15:23:12.443Z</time></trkpt><trkpt lat="43.3663283" lon="3.0759333"><ele>72.66666666666666</ele><time>2026-04-04T15:23:13.444Z</time></trkpt><trkpt lat="43.36621" lon="3.0757417"><ele>73.0</ele><time>2026-04-04T15:23:14.443Z</time></trkpt><trkpt lat="43.366095" lon="3.075555"><ele>72.33333333333333</ele><time>2026-04-04T15:23:15.443Z</time></trkpt><trkpt lat="43.3659867" lon="3.0753733"><ele>71.66666666666667</ele><time>2026-04-04T15:23:16.444Z</time></trkpt><trkpt lat="43.3658783" lon="3.0752"><ele>71.0</ele><time>2026-04-04T15:23:17.443Z</time></trkpt><trkpt lat="43.3657833" lon="3.07505"><ele>71.0</ele><time>2026-04-04T15:23:18.444Z</time></trkpt><trkpt lat="43.3657117" lon="3.0749333"><ele>71.0</ele><time>2026-04-04T15:23:19.443Z</time></trkpt><trkpt lat="43.365655" lon="3.0748533"><ele>71.0</ele><time>2026-04-04T15:23:20.443Z</time></trkpt><trkpt lat="43.3656033" lon="3.0747933"><ele>71.0</ele><time>2026-04-04T15:23:21.446Z</time></trkpt><trkpt lat="43.3655533" lon="3.0748633"><ele>71.0</ele><time>2026-04-04T15:23:24.445Z</time></trkpt><trkpt lat="43.3655617" lon="3.0749567"><ele>71.0</ele><time>2026-04-04T15:23:25.445Z</time></trkpt><trkpt lat="43.365575" lon="3.0750967"><ele>71.0</ele><time>2026-04-04T15:23:26.445Z</time></trkpt><trkpt lat="43.3655883" lon="3.075235"><ele>71.0</ele><time>2026-04-04T15:23:27.444Z</time></trkpt><trkpt lat="43.3656067" lon="3.0754133"><ele>71.0</ele><time>2026-04-04T15:23:28.444Z</time></trkpt><trkpt lat="43.3656283" lon="3.0756217"><ele>71.0</ele><time>2026-04-04T15:23:29.444Z</time></trkpt><trkpt lat="43.3656467" lon="3.0758533"><ele>71.66666666666667</ele><time>2026-04-04T15:23:30.446Z</time></trkpt><trkpt lat="43.365665" lon="3.076095"><ele>72.33333333333333</ele><time>2026-04-04T15:23:31.446Z</time></trkpt><trkpt lat="43.365685" lon="3.07635"><ele>73.0</ele><time>2026-04-04T15:23:32.446Z</time></trkpt><trkpt lat="43.3657033" lon="3.0766167"><ele>73.66666666666666</ele><time>2026-04-04T15:23:33.447Z</time></trkpt><trkpt lat="43.3657233" lon="3.0768917"><ele>74.33333333333333</ele><time>2026-04-04T15:23:34.446Z</time></trkpt><trkpt lat="43.3657433" lon="3.0771617"><ele>75.0</ele><time>2026-04-04T15:23:35.446Z</time></trkpt><trkpt lat="43.3657667" lon="3.07743"><ele>75.33333333333333</ele><time>2026-04-04T15:23:36.446Z</time></trkpt><trkpt lat="43.3657917" lon="3.0777017"><ele>75.66666666666666</ele><time>2026-04-04T15:23:37.446Z</time></trkpt><trkpt lat="43.3658133" lon="3.0779767"><ele>76.0</ele><time>2026-04-04T15:23:38.446Z</time></trkpt><trkpt lat="43.3658333" lon="3.0782533"><ele>77.0</ele><time>2026-04-04T15:23:39.446Z</time></trkpt><trkpt lat="43.3658467" lon="3.0785283"><ele>78.0</ele><time>2026-04-04T15:23:40.443Z</time></trkpt><trkpt lat="43.3658567" lon="3.078805"><ele>79.0</ele><time>2026-04-04T15:23:41.443Z</time></trkpt><trkpt lat="43.3658567" lon="3.0790833"><ele>79.0</ele><time>2026-04-04T15:23:42.444Z</time></trkpt><trkpt lat="43.3658467" lon="3.079355"><ele>79.0</ele><time>2026-04-04T15:23:43.443Z</time></trkpt><trkpt lat="43.3658283" lon="3.07962"><ele>79.0</ele><time>2026-04-04T15:23:44.444Z</time></trkpt><trkpt lat="43.3658033" lon="3.0798767"><ele>79.33333333333333</ele><time>2026-04-04T15:23:45.443Z</time></trkpt><trkpt lat="43.365785" lon="3.0801233"><ele>79.66666666666667</ele><time>2026-04-04T15:23:46.443Z</time></trkpt><trkpt lat="43.3657717" lon="3.0803683"><ele>80.0</ele><time>2026-04-04T15:23:47.443Z</time></trkpt><trkpt lat="43.3657583" lon="3.0806133"><ele>81.0</ele><time>2026-04-04T15:23:48.445Z</time></trkpt><trkpt lat="43.3657517" lon="3.080855"><ele>82.0</ele><time>2026-04-04T15:23:49.444Z</time></trkpt><trkpt lat="43.365755" lon="3.081085"><ele>83.0</ele><time>2026-04-04T15:23:50.443Z</time></trkpt><trkpt lat="43.3657533" lon="3.0813067"><ele>83.0</ele><time>2026-04-04T15:23:51.443Z</time></trkpt><trkpt lat="43.3657467" lon="3.08153"><ele>83.0</ele><time>2026-04-04T15:23:52.443Z</time></trkpt><trkpt lat="43.36573" lon="3.0817617"><ele>83.0</ele><time>2026-04-04T15:23:53.443Z</time></trkpt><trkpt lat="43.365705" lon="3.0820033"><ele>83.33333333333334</ele><time>2026-04-04T15:23:54.443Z</time></trkpt><trkpt lat="43.3656733" lon="3.0822467"><ele>83.66666666666667</ele><time>2026-04-04T15:23:55.444Z</time></trkpt><trkpt lat="43.3656367" lon="3.0825017"><ele>84.0</ele><time>2026-04-04T15:23:56.443Z</time></trkpt><trkpt lat="43.3656" lon="3.0827567"><ele>83.33333333333333</ele><time>2026-04-04T15:23:57.444Z</time></trkpt><trkpt lat="43.3655617" lon="3.0830067"><ele>82.66666666666666</ele><time>2026-04-04T15:23:58.444Z</time></trkpt><trkpt lat="43.3655283" lon="3.0832567"><ele>82.0</ele><time>2026-04-04T15:23:59.443Z</time></trkpt><trkpt lat="43.3655017" lon="3.08351"><ele>77.33333333333333</ele><time>2026-04-04T15:24:00.446Z</time></trkpt><trkpt lat="43.3654783" lon="3.0837633"><ele>72.66666666666667</ele><time>2026-04-04T15:24:01.447Z</time></trkpt><trkpt lat="43.3654583" lon="3.0840083"><ele>68.0</ele><time>2026-04-04T15:24:02.447Z</time></trkpt><trkpt lat="43.3654333" lon="3.0842517"><ele>67.0</ele><time>2026-04-04T15:24:03.446Z</time></trkpt><trkpt lat="43.365405" lon="3.0845067"><ele>66.0</ele><time>2026-04-04T15:24:04.446Z</time></trkpt><trkpt lat="43.36537" lon="3.0847633"><ele>65.0</ele><time>2026-04-04T15:24:05.446Z</time></trkpt><trkpt lat="43.36533" lon="3.0850183"><ele>64.0</ele><time>2026-04-04T15:24:06.446Z</time></trkpt><trkpt lat="43.36529" lon="3.0852733"><ele>63.0</ele><time>2026-04-04T15:24:07.446Z</time></trkpt><trkpt lat="43.3652483" lon="3.085525"><ele>62.0</ele><time>2026-04-04T15:24:08.446Z</time></trkpt><trkpt lat="43.3652033" lon="3.0857767"><ele>61.66666666666667</ele><time>2026-04-04T15:24:09.443Z</time></trkpt><trkpt lat="43.365145" lon="3.0860283"><ele>61.33333333333333</ele><time>2026-04-04T15:24:10.446Z</time></trkpt><trkpt lat="43.365085" lon="3.0862783"><ele>61.0</ele><time>2026-04-04T15:24:11.445Z</time></trkpt><trkpt lat="43.3650283" lon="3.08653"><ele>60.0</ele><time>2026-04-04T15:24:12.444Z</time></trkpt><trkpt lat="43.36497" lon="3.0867733"><ele>59.0</ele><time>2026-04-04T15:24:13.446Z</time></trkpt><trkpt lat="43.36491" lon="3.0870033"><ele>58.0</ele><time>2026-04-04T15:24:14.443Z</time></trkpt><trkpt lat="43.364855" lon="3.08722"><ele>58.0</ele><time>2026-04-04T15:24:15.446Z</time></trkpt><trkpt lat="43.364805" lon="3.0874067"><ele>58.0</ele><time>2026-04-04T15:24:16.444Z</time></trkpt><trkpt lat="43.364765" lon="3.0875617"><ele>58.0</ele><time>2026-04-04T15:24:17.445Z</time></trkpt><trkpt lat="43.3647383" lon="3.0876767"><ele>58.0</ele><time>2026-04-04T15:24:18.444Z</time></trkpt><trkpt lat="43.364725" lon="3.08777"><ele>58.0</ele><time>2026-04-04T15:24:19.443Z</time></trkpt><trkpt lat="43.364715" lon="3.0878617"><ele>57.8</ele><time>2026-04-04T15:24:20.442Z</time></trkpt><trkpt lat="43.3646933" lon="3.087955"><ele>57.599999999999994</ele><time>2026-04-04T15:24:21.443Z</time></trkpt><trkpt lat="43.364665" lon="3.08807"><ele>57.400000000000006</ele><time>2026-04-04T15:24:22.445Z</time></trkpt><trkpt lat="43.36463" lon="3.0882133"><ele>57.2</ele><time>2026-04-04T15:24:23.443Z</time></trkpt><trkpt lat="43.3645867" lon="3.088375"><ele>57.0</ele><time>2026-04-04T15:24:24.443Z</time></trkpt><trkpt lat="43.3645367" lon="3.0885433"><ele>56.75</ele><time>2026-04-04T15:24:25.443Z</time></trkpt><trkpt lat="43.3644783" lon="3.0887233"><ele>56.5</ele><time>2026-04-04T15:24:26.443Z</time></trkpt><trkpt lat="43.3644167" lon="3.08891"><ele>56.25</ele><time>2026-04-04T15:24:27.443Z</time></trkpt><trkpt lat="43.3643533" lon="3.089105"><ele>56.0</ele><time>2026-04-04T15:24:28.446Z</time></trkpt><trkpt lat="43.3642883" lon="3.0893067"><ele>55.66666666666667</ele><time>2026-04-04T15:24:29.442Z</time></trkpt><trkpt lat="43.3642233" lon="3.089515"><ele>55.33333333333333</ele><time>2026-04-04T15:24:30.445Z</time></trkpt><trkpt lat="43.3641617" lon="3.0897183"><ele>55.0</ele><time>2026-04-04T15:24:31.445Z</time></trkpt><trkpt lat="43.3641" lon="3.0899117"><ele>55.0</ele><time>2026-04-04T15:24:32.445Z</time></trkpt><trkpt lat="43.3640417" lon="3.0900883"><ele>55.0</ele><time>2026-04-04T15:24:33.446Z</time></trkpt><trkpt lat="43.3639983" lon="3.0902333"><ele>55.0</ele><time>2026-04-04T15:24:34.446Z</time></trkpt><trkpt lat="43.3639733" lon="3.0903383"><ele>55.0</ele><time>2026-04-04T15:24:35.445Z</time></trkpt><trkpt lat="43.3639967" lon="3.090475"><ele>55.0</ele><time>2026-04-04T15:24:37.447Z</time></trkpt><trkpt lat="43.3641117" lon="3.090575"><ele>55.0</ele><time>2026-04-04T15:24:39.443Z</time></trkpt><trkpt lat="43.3641817" lon="3.090635"><ele>55.0</ele><time>2026-04-04T15:24:40.442Z</time></trkpt><trkpt lat="43.3642683" lon="3.0907083"><ele>55.0</ele><time>2026-04-04T15:24:41.442Z</time></trkpt><trkpt lat="43.364405" lon="3.0908083"><ele>55.0</ele><time>2026-04-04T15:24:42.443Z</time></trkpt><trkpt lat="43.3645317" lon="3.0909117"><ele>55.0</ele><time>2026-04-04T15:24:43.444Z</time></trkpt><trkpt lat="43.3646517" lon="3.0910183"><ele>55.0</ele><time>2026-04-04T15:24:44.445Z</time></trkpt><trkpt lat="43.364765" lon="3.0911183"><ele>55.0</ele><time>2026-04-04T15:24:45.442Z</time></trkpt><trkpt lat="43.3648717" lon="3.091215"><ele>55.0</ele><time>2026-04-04T15:24:46.445Z</time></trkpt><trkpt lat="43.3649767" lon="3.0913033"><ele>55.0</ele><time>2026-04-04T15:24:47.442Z</time></trkpt><trkpt lat="43.3650733" lon="3.0913867"><ele>55.0</ele><time>2026-04-04T15:24:48.443Z</time></trkpt><trkpt lat="43.3651617" lon="3.0914733"><ele>55.0</ele><time>2026-04-04T15:24:49.443Z</time></trkpt><trkpt lat="43.3652517" lon="3.0915617"><ele>55.0</ele><time>2026-04-04T15:24:50.445Z</time></trkpt><trkpt lat="43.3653383" lon="3.0916467"><ele>55.0</ele><time>2026-04-04T15:24:51.445Z</time></trkpt><trkpt lat="43.365415" lon="3.0917217"><ele>55.4</ele><time>2026-04-04T15:24:52.539Z</time></trkpt><trkpt lat="43.36549" lon="3.091795"><ele>55.8</ele><time>2026-04-04T15:24:53.443Z</time></trkpt><trkpt lat="43.365565" lon="3.09187"><ele>56.2</ele><time>2026-04-04T15:24:54.443Z</time></trkpt><trkpt lat="43.365645" lon="3.0919517"><ele>56.6</ele><time>2026-04-04T15:24:55.443Z</time></trkpt><trkpt lat="43.3657267" lon="3.0920317"><ele>57.0</ele><time>2026-04-04T15:24:56.443Z</time></trkpt><trkpt lat="43.3658067" lon="3.0921083"><ele>57.0</ele><time>2026-04-04T15:24:57.443Z</time></trkpt><trkpt lat="43.3658817" lon="3.0921767"><ele>57.0</ele><time>2026-04-04T15:24:58.443Z</time></trkpt><trkpt lat="43.3659433" lon="3.0922317"><ele>57.0</ele><time>2026-04-04T15:24:59.443Z</time></trkpt><trkpt lat="43.366015" lon="3.09231"><ele>57.0</ele><time>2026-04-04T15:25:01.446Z</time></trkpt><trkpt lat="43.3660233" lon="3.0924033"><ele>57.0</ele><time>2026-04-04T15:25:03.445Z</time></trkpt><trkpt lat="43.36605" lon="3.0925483"><ele>57.0</ele><time>2026-04-04T15:25:05.445Z</time></trkpt><trkpt lat="43.366035" lon="3.0927233"><ele>57.0</ele><time>2026-04-04T15:25:07.446Z</time></trkpt><trkpt lat="43.36601" lon="3.09284"><ele>57.0</ele><time>2026-04-04T15:25:08.445Z</time></trkpt><trkpt lat="43.3659817" lon="3.0929633"><ele>57.0</ele><time>2026-04-04T15:25:09.445Z</time></trkpt><trkpt lat="43.3659517" lon="3.0931033"><ele>57.0</ele><time>2026-04-04T15:25:10.445Z</time></trkpt><trkpt lat="43.365925" lon="3.0932467"><ele>57.0</ele><time>2026-04-04T15:25:11.45Z</time></trkpt><trkpt lat="43.3658983" lon="3.0933967"><ele>56.400000000000006</ele><time>2026-04-04T15:25:12.443Z</time></trkpt><trkpt lat="43.36587" lon="3.093545"><ele>55.800000000000004</ele><time>2026-04-04T15:25:13.443Z</time></trkpt><trkpt lat="43.3658433" lon="3.0936833"><ele>55.2</ele><time>2026-04-04T15:25:14.444Z</time></trkpt><trkpt lat="43.36582" lon="3.0938083"><ele>54.6</ele><time>2026-04-04T15:25:15.445Z</time></trkpt><trkpt lat="43.3657983" lon="3.0939233"><ele>54.0</ele><time>2026-04-04T15:25:16.443Z</time></trkpt><trkpt lat="43.3657783" lon="3.0940167"><ele>53.833333333333336</ele><time>2026-04-04T15:25:17.442Z</time></trkpt><trkpt lat="43.36575" lon="3.0941667"><ele>53.66666666666667</ele><time>2026-04-04T15:25:19.443Z</time></trkpt><trkpt lat="43.3657367" lon="3.0942583"><ele>53.5</ele><time>2026-04-04T15:25:20.442Z</time></trkpt><trkpt lat="43.3657167" lon="3.0943533"><ele>53.333333333333336</ele><time>2026-04-04T15:25:21.442Z</time></trkpt><trkpt lat="43.3656983" lon="3.094455"><ele>53.16666666666667</ele><time>2026-04-04T15:25:22.443Z</time></trkpt><trkpt lat="43.3656767" lon="3.0945617"><ele>53.0</ele><time>2026-04-04T15:25:23.446Z</time></trkpt><trkpt lat="43.3656583" lon="3.0946683"><ele>53.00000000000001</ele><time>2026-04-04T15:25:24.445Z</time></trkpt><trkpt lat="43.36564" lon="3.0947717"><ele>53.0</ele><time>2026-04-04T15:25:25.445Z</time></trkpt><trkpt lat="43.365615" lon="3.0948767"><ele>53.0</ele><time>2026-04-04T15:25:26.442Z</time></trkpt><trkpt lat="43.3655933" lon="3.0949767"><ele>53.0</ele><time>2026-04-04T15:25:27.443Z</time></trkpt><trkpt lat="43.365575" lon="3.0950667"><ele>53.00000000000001</ele><time>2026-04-04T15:25:28.444Z</time></trkpt><trkpt lat="43.3655383" lon="3.0952167"><ele>53.0</ele><time>2026-04-04T15:25:30.445Z</time></trkpt><trkpt lat="43.365515" lon="3.0953017"><ele>53.00000000000001</ele><time>2026-04-04T15:25:32.445Z</time></trkpt><trkpt lat="43.36553" lon="3.0953867"><ele>53.0</ele><time>2026-04-04T15:25:36.445Z</time></trkpt><trkpt lat="43.3655083" lon="3.095515"><ele>53.0</ele><time>2026-04-04T15:25:39.442Z</time></trkpt><trkpt lat="43.36552" lon="3.0956267"><ele>53.0</ele><time>2026-04-04T15:27:08.446Z</time></trkpt><trkpt lat="43.3654983" lon="3.0957233"><ele>53.00000000000001</ele><time>2026-04-04T15:27:10.445Z</time></trkpt><trkpt lat="43.36549" lon="3.0958167"><ele>53.0</ele><time>2026-04-04T15:27:12.446Z</time></trkpt><trkpt lat="43.3655483" lon="3.095885"><ele>52.4</ele><time>2026-04-04T15:27:15.446Z</time></trkpt><trkpt lat="43.36565" lon="3.0959183"><ele>51.8</ele><time>2026-04-04T15:27:18.443Z</time></trkpt><trkpt lat="43.36576" lon="3.0959417"><ele>51.2</ele><time>2026-04-04T15:27:20.444Z</time></trkpt><trkpt lat="43.3658683" lon="3.0959633"><ele>50.6</ele><time>2026-04-04T15:27:22.443Z</time></trkpt><trkpt lat="43.3659783" lon="3.0959817"><ele>50.0</ele><time>2026-04-04T15:27:24.443Z</time></trkpt><trkpt lat="43.36607" lon="3.0960067"><ele>50.00000000000001</ele><time>2026-04-04T15:27:26.442Z</time></trkpt><trkpt lat="43.3661133" lon="3.0960883"><ele>50.0</ele><time>2026-04-04T15:27:28.444Z</time></trkpt><trkpt lat="43.366105" lon="3.096235"><ele>50.0</ele><time>2026-04-04T15:27:30.446Z</time></trkpt><trkpt lat="43.3660883" lon="3.0963383"><ele>50.0</ele><time>2026-04-04T15:27:31.446Z</time></trkpt><trkpt lat="43.3660717" lon="3.09645"><ele>50.00000000000001</ele><time>2026-04-04T15:27:32.446Z</time></trkpt><trkpt lat="43.3660517" lon="3.0965633"><ele>50.0</ele><time>2026-04-04T15:27:33.444Z</time></trkpt><trkpt lat="43.366025" lon="3.0966783"><ele>50.00000000000001</ele><time>2026-04-04T15:27:34.446Z</time></trkpt><trkpt lat="43.3659883" lon="3.0967933"><ele>50.0</ele><time>2026-04-04T15:27:35.446Z</time></trkpt><trkpt lat="43.3659483" lon="3.0969067"><ele>50.0</ele><time>2026-04-04T15:27:36.447Z</time></trkpt><trkpt lat="43.36591" lon="3.0970167"><ele>50.0</ele><time>2026-04-04T15:27:37.446Z</time></trkpt><trkpt lat="43.3658717" lon="3.0971233"><ele>50.00000000000001</ele><time>2026-04-04T15:27:38.443Z</time></trkpt><trkpt lat="43.3658333" lon="3.09723"><ele>50.0</ele><time>2026-04-04T15:27:39.444Z</time></trkpt><trkpt lat="43.365795" lon="3.0973433"><ele>49.6</ele><time>2026-04-04T15:27:40.443Z</time></trkpt><trkpt lat="43.36576" lon="3.0974667"><ele>49.2</ele><time>2026-04-04T15:27:41.444Z</time></trkpt><trkpt lat="43.3657233" lon="3.0976017"><ele>48.8</ele><time>2026-04-04T15:27:42.446Z</time></trkpt><trkpt lat="43.365685" lon="3.0977383"><ele>48.4</ele><time>2026-04-04T15:27:43.446Z</time></trkpt><trkpt lat="43.3656483" lon="3.0978733"><ele>48.0</ele><time>2026-04-04T15:27:44.446Z</time></trkpt><trkpt lat="43.365615" lon="3.0980033"><ele>48.0</ele><time>2026-04-04T15:27:45.445Z</time></trkpt><trkpt lat="43.3655833" lon="3.09813"><ele>48.0</ele><time>2026-04-04T15:27:46.444Z</time></trkpt><trkpt lat="43.3655517" lon="3.0982483"><ele>48.0</ele><time>2026-04-04T15:27:47.443Z</time></trkpt><trkpt lat="43.3655267" lon="3.0983567"><ele>48.0</ele><time>2026-04-04T15:27:48.444Z</time></trkpt><trkpt lat="43.3655017" lon="3.098465"><ele>48.0</ele><time>2026-04-04T15:27:49.445Z</time></trkpt><trkpt lat="43.3654733" lon="3.0985717"><ele>48.0</ele><time>2026-04-04T15:27:50.443Z</time></trkpt><trkpt lat="43.3654317" lon="3.0986783"><ele>48.0</ele><time>2026-04-04T15:27:51.442Z</time></trkpt><trkpt lat="43.3653733" lon="3.0987783"><ele>48.0</ele><time>2026-04-04T15:27:52.443Z</time></trkpt><trkpt lat="43.3653133" lon="3.0988717"><ele>48.0</ele><time>2026-04-04T15:27:53.443Z</time></trkpt><trkpt lat="43.3652533" lon="3.0989617"><ele>48.0</ele><time>2026-04-04T15:27:54.443Z</time></trkpt><trkpt lat="43.3651917" lon="3.099055"><ele>48.0</ele><time>2026-04-04T15:27:55.443Z</time></trkpt><trkpt lat="43.3651317" lon="3.09915"><ele>47.666666666666664</ele><time>2026-04-04T15:27:56.443Z</time></trkpt><trkpt lat="43.3650733" lon="3.099235"><ele>47.333333333333336</ele><time>2026-04-04T15:27:57.443Z</time></trkpt><trkpt lat="43.3650183" lon="3.0993183"><ele>47.0</ele><time>2026-04-04T15:27:58.446Z</time></trkpt><trkpt lat="43.3649767" lon="3.099395"><ele>46.66666666666667</ele><time>2026-04-04T15:27:59.443Z</time></trkpt><trkpt lat="43.364915" lon="3.0995117"><ele>46.333333333333336</ele><time>2026-04-04T15:28:01.446Z</time></trkpt><trkpt lat="43.364955" lon="3.09958"><ele>46.0</ele><time>2026-04-04T15:28:04.446Z</time></trkpt><trkpt lat="43.3650567" lon="3.0995933"><ele>46.0</ele><time>2026-04-04T15:28:06.446Z</time></trkpt><trkpt lat="43.365135" lon="3.0996"><ele>46.0</ele><time>2026-04-04T15:28:07.445Z</time></trkpt><trkpt lat="43.36522" lon="3.09961"><ele>46.0</ele><time>2026-04-04T15:28:08.444Z</time></trkpt><trkpt lat="43.3653133" lon="3.099625"><ele>46.0</ele><time>2026-04-04T15:28:09.446Z</time></trkpt><trkpt lat="43.36541" lon="3.0996417"><ele>46.0</ele><time>2026-04-04T15:28:10.443Z</time></trkpt><trkpt lat="43.3654883" lon="3.0996567"><ele>46.0</ele><time>2026-04-04T15:28:11.444Z</time></trkpt><trkpt lat="43.365575" lon="3.0996967"><ele>46.0</ele><time>2026-04-04T15:28:13.446Z</time></trkpt><trkpt lat="43.365525" lon="3.09985"><ele>46.0</ele><time>2026-04-04T15:28:16.447Z</time></trkpt><trkpt lat="43.365525" lon="3.09995"><ele>46.0</ele><time>2026-04-04T15:28:17.445Z</time></trkpt><trkpt lat="43.36554" lon="3.1000783"><ele>46.0</ele><time>2026-04-04T15:28:18.444Z</time></trkpt><trkpt lat="43.3655583" lon="3.1002233"><ele>46.0</ele><time>2026-04-04T15:28:19.444Z</time></trkpt><trkpt lat="43.3655783" lon="3.1003683"><ele>45.8</ele><time>2026-04-04T15:28:20.444Z</time></trkpt><trkpt lat="43.3655867" lon="3.100505"><ele>45.599999999999994</ele><time>2026-04-04T15:28:21.445Z</time></trkpt><trkpt lat="43.3655817" lon="3.1006233"><ele>45.4</ele><time>2026-04-04T15:28:22.445Z</time></trkpt><trkpt lat="43.3655583" lon="3.10073"><ele>45.2</ele><time>2026-04-04T15:28:23.444Z</time></trkpt><trkpt lat="43.3655067" lon="3.1008483"><ele>45.0</ele><time>2026-04-04T15:28:24.444Z</time></trkpt><trkpt lat="43.3654317" lon="3.1009867"><ele>44.5</ele><time>2026-04-04T15:28:25.444Z</time></trkpt><trkpt lat="43.36536" lon="3.10114"><ele>44.0</ele><time>2026-04-04T15:28:26.445Z</time></trkpt><trkpt lat="43.3652883" lon="3.1013083"><ele>43.5</ele><time>2026-04-04T15:28:27.444Z</time></trkpt><trkpt lat="43.3652133" lon="3.1014817"><ele>43.0</ele><time>2026-04-04T15:28:28.446Z</time></trkpt><trkpt lat="43.3651367" lon="3.1016533"><ele>43.0</ele><time>2026-04-04T15:28:29.446Z</time></trkpt><trkpt lat="43.3650517" lon="3.1018183"><ele>43.0</ele><time>2026-04-04T15:28:30.446Z</time></trkpt><trkpt lat="43.3649733" lon="3.101975"><ele>43.0</ele><time>2026-04-04T15:28:31.444Z</time></trkpt><trkpt lat="43.3649" lon="3.1021333"><ele>43.0</ele><time>2026-04-04T15:28:32.447Z</time></trkpt><trkpt lat="43.3648267" lon="3.1022967"><ele>43.0</ele><time>2026-04-04T15:28:33.443Z</time></trkpt><trkpt lat="43.3647517" lon="3.1024633"><ele>43.0</ele><time>2026-04-04T15:28:34.447Z</time></trkpt><trkpt lat="43.36468" lon="3.102635"><ele>43.0</ele><time>2026-04-04T15:28:35.447Z</time></trkpt><trkpt lat="43.3646067" lon="3.1028083"><ele>43.0</ele><time>2026-04-04T15:28:36.446Z</time></trkpt><trkpt lat="43.3645283" lon="3.1029817"><ele>43.0</ele><time>2026-04-04T15:28:37.447Z</time></trkpt><trkpt lat="43.3644517" lon="3.1031583"><ele>43.0</ele><time>2026-04-04T15:28:38.447Z</time></trkpt><trkpt lat="43.3643767" lon="3.1033333"><ele>43.0</ele><time>2026-04-04T15:28:39.446Z</time></trkpt><trkpt lat="43.3643033" lon="3.103505"><ele>43.0</ele><time>2026-04-04T15:28:40.444Z</time></trkpt><trkpt lat="43.3642317" lon="3.1036733"><ele>43.0</ele><time>2026-04-04T15:28:41.447Z</time></trkpt><trkpt lat="43.3641583" lon="3.1038367"><ele>43.0</ele><time>2026-04-04T15:28:42.446Z</time></trkpt><trkpt lat="43.364085" lon="3.103995"><ele>43.0</ele><time>2026-04-04T15:28:43.447Z</time></trkpt><trkpt lat="43.3640133" lon="3.1041517"><ele>43.0</ele><time>2026-04-04T15:28:44.446Z</time></trkpt><trkpt lat="43.3639433" lon="3.1043083"><ele>42.75</ele><time>2026-04-04T15:28:45.446Z</time></trkpt><trkpt lat="43.3638767" lon="3.1044617"><ele>42.5</ele><time>2026-04-04T15:28:46.446Z</time></trkpt><trkpt lat="43.3638133" lon="3.104605"><ele>42.25</ele><time>2026-04-04T15:28:47.442Z</time></trkpt><trkpt lat="43.3637567" lon="3.1047383"><ele>42.0</ele><time>2026-04-04T15:28:48.443Z</time></trkpt><trkpt lat="43.3637017" lon="3.1048667"><ele>41.6</ele><time>2026-04-04T15:28:49.444Z</time></trkpt><trkpt lat="43.3636467" lon="3.10499"><ele>41.2</ele><time>2026-04-04T15:28:50.443Z</time></trkpt><trkpt lat="43.36359" lon="3.1051083"><ele>40.8</ele><time>2026-04-04T15:28:51.444Z</time></trkpt><trkpt lat="43.363535" lon="3.10522"><ele>40.4</ele><time>2026-04-04T15:28:52.445Z</time></trkpt><trkpt lat="43.363485" lon="3.105335"><ele>40.0</ele><time>2026-04-04T15:28:53.443Z</time></trkpt><trkpt lat="43.3634383" lon="3.1054517"><ele>40.0</ele><time>2026-04-04T15:28:54.444Z</time></trkpt><trkpt lat="43.36339" lon="3.1055683"><ele>40.0</ele><time>2026-04-04T15:28:55.444Z</time></trkpt><trkpt lat="43.3633333" lon="3.1056933"><ele>40.0</ele><time>2026-04-04T15:28:56.443Z</time></trkpt><trkpt lat="43.3632767" lon="3.105825"><ele>40.0</ele><time>2026-04-04T15:28:57.444Z</time></trkpt><trkpt lat="43.36322" lon="3.1059517"><ele>40.0</ele><time>2026-04-04T15:28:58.446Z</time></trkpt><trkpt lat="43.3631633" lon="3.10607"><ele>40.0</ele><time>2026-04-04T15:28:59.444Z</time></trkpt><trkpt lat="43.3631133" lon="3.10618"><ele>40.0</ele><time>2026-04-04T15:29:00.444Z</time></trkpt><trkpt lat="43.3630717" lon="3.10627"><ele>40.0</ele><time>2026-04-04T15:29:01.444Z</time></trkpt><trkpt lat="43.363015" lon="3.1063733"><ele>40.0</ele><time>2026-04-04T15:29:03.444Z</time></trkpt><trkpt lat="43.3629133" lon="3.1063583"><ele>40.0</ele><time>2026-04-04T15:29:06.444Z</time></trkpt><trkpt lat="43.36279" lon="3.10628"><ele>40.0</ele><time>2026-04-04T15:29:08.445Z</time></trkpt><trkpt lat="43.362715" lon="3.1062317"><ele>40.0</ele><time>2026-04-04T15:29:09.443Z</time></trkpt><trkpt lat="43.3626283" lon="3.1061867"><ele>40.0</ele><time>2026-04-04T15:29:10.444Z</time></trkpt><trkpt lat="43.362535" lon="3.1061417"><ele>40.0</ele><time>2026-04-04T15:29:11.443Z</time></trkpt><trkpt lat="43.3624383" lon="3.10609"><ele>40.0</ele><time>2026-04-04T15:29:12.442Z</time></trkpt><trkpt lat="43.3623367" lon="3.1060367"><ele>40.0</ele><time>2026-04-04T15:29:13.443Z</time></trkpt><trkpt lat="43.3622333" lon="3.1059783"><ele>40.0</ele><time>2026-04-04T15:29:14.446Z</time></trkpt><trkpt lat="43.3621317" lon="3.1059167"><ele>40.0</ele><time>2026-04-04T15:29:15.445Z</time></trkpt><trkpt lat="43.3620367" lon="3.105865"><ele>40.0</ele><time>2026-04-04T15:29:16.443Z</time></trkpt><trkpt lat="43.3619417" lon="3.10582"><ele>40.0</ele><time>2026-04-04T15:29:17.443Z</time></trkpt><trkpt lat="43.3618483" lon="3.105775"><ele>40.16666666666667</ele><time>2026-04-04T15:29:18.446Z</time></trkpt><trkpt lat="43.3617583" lon="3.1057333"><ele>40.333333333333336</ele><time>2026-04-04T15:29:19.443Z</time></trkpt><trkpt lat="43.36167" lon="3.1056833"><ele>40.5</ele><time>2026-04-04T15:29:20.445Z</time></trkpt><trkpt lat="43.3615917" lon="3.1056383"><ele>40.666666666666664</ele><time>2026-04-04T15:29:21.442Z</time></trkpt><trkpt lat="43.3615283" lon="3.1056067"><ele>40.83333333333333</ele><time>2026-04-04T15:29:22.443Z</time></trkpt><trkpt lat="43.36144" lon="3.105595"><ele>41.0</ele><time>2026-04-04T15:29:24.443Z</time></trkpt><trkpt lat="43.3614117" lon="3.105715"><ele>41.0</ele><time>2026-04-04T15:29:27.446Z</time></trkpt><trkpt lat="43.361315" lon="3.1057567"><ele>41.0</ele><time>2026-04-04T15:29:30.445Z</time></trkpt><trkpt lat="43.3612417" lon="3.1057283"><ele>41.0</ele><time>2026-04-04T15:29:31.443Z</time></trkpt><trkpt lat="43.361155" lon="3.1056933"><ele>41.0</ele><time>2026-04-04T15:29:32.442Z</time></trkpt><trkpt lat="43.3610583" lon="3.10566"><ele>41.0</ele><time>2026-04-04T15:29:33.443Z</time></trkpt><trkpt lat="43.360955" lon="3.105635"><ele>40.75</ele><time>2026-04-04T15:29:34.442Z</time></trkpt><trkpt lat="43.3608417" lon="3.1056033"><ele>40.5</ele><time>2026-04-04T15:29:35.443Z</time></trkpt><trkpt lat="43.3607233" lon="3.1055683"><ele>40.25</ele><time>2026-04-04T15:29:36.443Z</time></trkpt><trkpt lat="43.36061" lon="3.105535"><ele>40.0</ele><time>2026-04-04T15:29:37.444Z</time></trkpt><trkpt lat="43.360515" lon="3.1055033"><ele>40.16666666666667</ele><time>2026-04-04T15:29:38.442Z</time></trkpt><trkpt lat="43.3604383" lon="3.1054783"><ele>40.333333333333336</ele><time>2026-04-04T15:29:39.443Z</time></trkpt><trkpt lat="43.3603467" lon="3.1054667"><ele>40.5</ele><time>2026-04-04T15:29:41.443Z</time></trkpt><trkpt lat="43.3602983" lon="3.105545"><ele>40.666666666666664</ele><time>2026-04-04T15:29:43.443Z</time></trkpt><trkpt lat="43.36029" lon="3.105635"><ele>40.83333333333333</ele><time>2026-04-04T15:29:44.446Z</time></trkpt><trkpt lat="43.3602867" lon="3.1057533"><ele>41.0</ele><time>2026-04-04T15:29:45.442Z</time></trkpt><trkpt lat="43.3602833" lon="3.10591"><ele>41.0</ele><time>2026-04-04T15:29:46.443Z</time></trkpt><trkpt lat="43.3602733" lon="3.1061317"><ele>41.0</ele><time>2026-04-04T15:29:47.442Z</time></trkpt><trkpt lat="43.3602633" lon="3.1063717"><ele>41.0</ele><time>2026-04-04T15:29:48.443Z</time></trkpt><trkpt lat="43.3602567" lon="3.1066333"><ele>40.666666666666664</ele><time>2026-04-04T15:29:49.444Z</time></trkpt><trkpt lat="43.36025" lon="3.106915"><ele>40.333333333333336</ele><time>2026-04-04T15:29:50.443Z</time></trkpt><trkpt lat="43.3602417" lon="3.1072117"><ele>40.0</ele><time>2026-04-04T15:29:51.443Z</time></trkpt><trkpt lat="43.3602317" lon="3.1075267"><ele>39.0</ele><time>2026-04-04T15:29:52.443Z</time></trkpt><trkpt lat="43.3602183" lon="3.1078517"><ele>38.0</ele><time>2026-04-04T15:29:53.446Z</time></trkpt><trkpt lat="43.3602083" lon="3.108185"><ele>38.0</ele><time>2026-04-04T15:29:54.445Z</time></trkpt><trkpt lat="43.360195" lon="3.108525"><ele>38.0</ele><time>2026-04-04T15:29:55.445Z</time></trkpt><trkpt lat="43.3601867" lon="3.108855"><ele>38.5</ele><time>2026-04-04T15:29:56.445Z</time></trkpt><trkpt lat="43.360175" lon="3.10918"><ele>39.0</ele><time>2026-04-04T15:29:57.442Z</time></trkpt><trkpt lat="43.3601617" lon="3.109505"><ele>39.0</ele><time>2026-04-04T15:29:58.443Z</time></trkpt><trkpt lat="43.36015" lon="3.1098267"><ele>39.0</ele><time>2026-04-04T15:29:59.442Z</time></trkpt><trkpt lat="43.3601317" lon="3.1101483"><ele>39.0</ele><time>2026-04-04T15:30:00.443Z</time></trkpt><trkpt lat="43.3601067" lon="3.1104633"><ele>39.0</ele><time>2026-04-04T15:30:01.444Z</time></trkpt><trkpt lat="43.3600717" lon="3.110775"><ele>39.0</ele><time>2026-04-04T15:30:02.442Z</time></trkpt><trkpt lat="43.36003" lon="3.111085"><ele>39.0</ele><time>2026-04-04T15:30:03.443Z</time></trkpt><trkpt lat="43.3599767" lon="3.1113917"><ele>39.5</ele><time>2026-04-04T15:30:04.443Z</time></trkpt><trkpt lat="43.3599167" lon="3.111695"><ele>40.0</ele><time>2026-04-04T15:30:05.442Z</time></trkpt><trkpt lat="43.3598517" lon="3.1119933"><ele>40.0</ele><time>2026-04-04T15:30:06.444Z</time></trkpt><trkpt lat="43.3597883" lon="3.11229"><ele>40.0</ele><time>2026-04-04T15:30:07.443Z</time></trkpt><trkpt lat="43.359725" lon="3.1125867"><ele>40.0</ele><time>2026-04-04T15:30:08.443Z</time></trkpt><trkpt lat="43.359665" lon="3.1128817"><ele>40.0</ele><time>2026-04-04T15:30:09.442Z</time></trkpt><trkpt lat="43.3596067" lon="3.1131717"><ele>40.0</ele><time>2026-04-04T15:30:10.446Z</time></trkpt><trkpt lat="43.3595483" lon="3.1134583"><ele>40.0</ele><time>2026-04-04T15:30:11.445Z</time></trkpt><trkpt lat="43.3594883" lon="3.113745"><ele>40.0</ele><time>2026-04-04T15:30:12.445Z</time></trkpt><trkpt lat="43.3594267" lon="3.1140283"><ele>40.0</ele><time>2026-04-04T15:30:13.446Z</time></trkpt><trkpt lat="43.3593667" lon="3.11431"><ele>40.0</ele><time>2026-04-04T15:30:14.442Z</time></trkpt><trkpt lat="43.3593083" lon="3.114585"><ele>40.0</ele><time>2026-04-04T15:30:15.445Z</time></trkpt><trkpt lat="43.35925" lon="3.1148583"><ele>40.0</ele><time>2026-04-04T15:30:16.445Z</time></trkpt><trkpt lat="43.3591933" lon="3.1151267"><ele>40.333333333333336</ele><time>2026-04-04T15:30:17.445Z</time></trkpt><trkpt lat="43.359135" lon="3.11539"><ele>40.666666666666664</ele><time>2026-04-04T15:30:18.444Z</time></trkpt><trkpt lat="43.3590733" lon="3.1156417"><ele>41.0</ele><time>2026-04-04T15:30:19.444Z</time></trkpt><trkpt lat="43.3590033" lon="3.1158883"><ele>41.33333333333333</ele><time>2026-04-04T15:30:20.443Z</time></trkpt><trkpt lat="43.3589317" lon="3.1161267"><ele>41.666666666666664</ele><time>2026-04-04T15:30:21.446Z</time></trkpt><trkpt lat="43.3588517" lon="3.1163683"><ele>42.0</ele><time>2026-04-04T15:30:22.443Z</time></trkpt><trkpt lat="43.3587717" lon="3.116605"><ele>42.0</ele><time>2026-04-04T15:30:23.443Z</time></trkpt><trkpt lat="43.3586933" lon="3.116845"><ele>42.0</ele><time>2026-04-04T15:30:24.444Z</time></trkpt><trkpt lat="43.3586167" lon="3.11708"><ele>42.0</ele><time>2026-04-04T15:30:25.443Z</time></trkpt><trkpt lat="43.3585383" lon="3.1173083"><ele>42.666666666666664</ele><time>2026-04-04T15:30:26.443Z</time></trkpt><trkpt lat="43.3584617" lon="3.1175317"><ele>43.33333333333333</ele><time>2026-04-04T15:30:27.443Z</time></trkpt><trkpt lat="43.358385" lon="3.1177583"><ele>44.0</ele><time>2026-04-04T15:30:28.443Z</time></trkpt><trkpt lat="43.3583133" lon="3.1179817"><ele>44.0</ele><time>2026-04-04T15:30:29.443Z</time></trkpt><trkpt lat="43.358245" lon="3.1182017"><ele>44.0</ele><time>2026-04-04T15:30:30.443Z</time></trkpt><trkpt lat="43.3581767" lon="3.1184167"><ele>44.0</ele><time>2026-04-04T15:30:31.444Z</time></trkpt><trkpt lat="43.35811" lon="3.118625"><ele>45.0</ele><time>2026-04-04T15:30:32.443Z</time></trkpt><trkpt lat="43.3580433" lon="3.1188217"><ele>46.0</ele><time>2026-04-04T15:30:33.443Z</time></trkpt><trkpt lat="43.3579767" lon="3.1190117"><ele>47.0</ele><time>2026-04-04T15:30:34.443Z</time></trkpt><trkpt lat="43.3579133" lon="3.1192017"><ele>48.25</ele><time>2026-04-04T15:30:35.443Z</time></trkpt><trkpt lat="43.357855" lon="3.1193933"><ele>49.5</ele><time>2026-04-04T15:30:36.443Z</time></trkpt><trkpt lat="43.357795" lon="3.1195783"><ele>50.75</ele><time>2026-04-04T15:30:37.444Z</time></trkpt><trkpt lat="43.3577383" lon="3.1197667"><ele>52.0</ele><time>2026-04-04T15:30:38.443Z</time></trkpt><trkpt lat="43.3576833" lon="3.11995"><ele>53.0</ele><time>2026-04-04T15:30:39.443Z</time></trkpt><trkpt lat="43.35763" lon="3.12013"><ele>54.0</ele><time>2026-04-04T15:30:40.443Z</time></trkpt><trkpt lat="43.357575" lon="3.1203083"><ele>55.0</ele><time>2026-04-04T15:30:41.443Z</time></trkpt><trkpt lat="43.3575183" lon="3.1204817"><ele>56.0</ele><time>2026-04-04T15:30:42.443Z</time></trkpt><trkpt lat="43.35746" lon="3.12065"><ele>57.0</ele><time>2026-04-04T15:30:43.445Z</time></trkpt><trkpt lat="43.357405" lon="3.12082"><ele>58.0</ele><time>2026-04-04T15:30:44.443Z</time></trkpt><trkpt lat="43.3573467" lon="3.1209867"><ele>59.0</ele><time>2026-04-04T15:30:45.443Z</time></trkpt><trkpt lat="43.35729" lon="3.12115"><ele>60.0</ele><time>2026-04-04T15:30:46.443Z</time></trkpt><trkpt lat="43.3572483" lon="3.121315"><ele>60.0</ele><time>2026-04-04T15:30:47.444Z</time></trkpt><trkpt lat="43.3572083" lon="3.1214683"><ele>60.0</ele><time>2026-04-04T15:30:48.443Z</time></trkpt><trkpt lat="43.3571767" lon="3.1216117"><ele>60.0</ele><time>2026-04-04T15:30:49.443Z</time></trkpt><trkpt lat="43.3571483" lon="3.121745"><ele>60.0</ele><time>2026-04-04T15:30:50.443Z</time></trkpt><trkpt lat="43.3571217" lon="3.1218683"><ele>60.0</ele><time>2026-04-04T15:30:51.444Z</time></trkpt><trkpt lat="43.3571017" lon="3.1219883"><ele>60.166666666666664</ele><time>2026-04-04T15:30:52.443Z</time></trkpt><trkpt lat="43.3570883" lon="3.1221"><ele>60.33333333333333</ele><time>2026-04-04T15:30:53.447Z</time></trkpt><trkpt lat="43.3570717" lon="3.1221883"><ele>60.5</ele><time>2026-04-04T15:30:54.445Z</time></trkpt><trkpt lat="43.3570533" lon="3.12232"><ele>60.666666666666664</ele><time>2026-04-04T15:30:56.445Z</time></trkpt><trkpt lat="43.3570233" lon="3.122415"><ele>60.83333333333333</ele><time>2026-04-04T15:30:58.443Z</time></trkpt><trkpt lat="43.3569983" lon="3.122515"><ele>61.0</ele><time>2026-04-04T15:31:00.446Z</time></trkpt><trkpt lat="43.3569817" lon="3.1226333"><ele>61.0</ele><time>2026-04-04T15:31:02.442Z</time></trkpt><trkpt lat="43.356965" lon="3.1227367"><ele>60.99999999999999</ele><time>2026-04-04T15:31:04.444Z</time></trkpt><trkpt lat="43.35693" lon="3.12284"><ele>60.99999999999999</ele><time>2026-04-04T15:31:51.443Z</time></trkpt><trkpt lat="43.3569067" lon="3.122945"><ele>61.0</ele><time>2026-04-04T15:31:53.447Z</time></trkpt><trkpt lat="43.35687" lon="3.123125"><ele>61.0</ele><time>2026-04-04T15:31:55.446Z</time></trkpt><trkpt lat="43.3568517" lon="3.1232283"><ele>61.0</ele><time>2026-04-04T15:31:56.446Z</time></trkpt><trkpt lat="43.35683" lon="3.12334"><ele>60.99999999999999</ele><time>2026-04-04T15:31:57.443Z</time></trkpt><trkpt lat="43.3568083" lon="3.123455"><ele>60.99999999999999</ele><time>2026-04-04T15:31:58.446Z</time></trkpt><trkpt lat="43.356785" lon="3.123585"><ele>61.0</ele><time>2026-04-04T15:31:59.442Z</time></trkpt><trkpt lat="43.3567567" lon="3.1237133"><ele>61.0</ele><time>2026-04-04T15:32:00.444Z</time></trkpt><trkpt lat="43.35673" lon="3.1238517"><ele>61.0</ele><time>2026-04-04T15:32:01.444Z</time></trkpt><trkpt lat="43.3567017" lon="3.1240017"><ele>61.0</ele><time>2026-04-04T15:32:02.442Z</time></trkpt><trkpt lat="43.35668" lon="3.124165"><ele>61.0</ele><time>2026-04-04T15:32:03.447Z</time></trkpt><trkpt lat="43.3566467" lon="3.1243267"><ele>61.0</ele><time>2026-04-04T15:32:04.445Z</time></trkpt><trkpt lat="43.35661" lon="3.12449"><ele>60.5</ele><time>2026-04-04T15:32:05.446Z</time></trkpt><trkpt lat="43.356575" lon="3.12466"><ele>60.0</ele><time>2026-04-04T15:32:06.444Z</time></trkpt><trkpt lat="43.3565383" lon="3.1248383"><ele>59.5</ele><time>2026-04-04T15:32:07.446Z</time></trkpt><trkpt lat="43.3565017" lon="3.12502"><ele>59.0</ele><time>2026-04-04T15:32:08.445Z</time></trkpt><trkpt lat="43.3564667" lon="3.1252033"><ele>58.5</ele><time>2026-04-04T15:32:09.446Z</time></trkpt><trkpt lat="43.3564267" lon="3.1253883"><ele>58.0</ele><time>2026-04-04T15:32:10.446Z</time></trkpt><trkpt lat="43.3563833" lon="3.1255733"><ele>57.5</ele><time>2026-04-04T15:32:11.444Z</time></trkpt><trkpt lat="43.3563383" lon="3.125755"><ele>57.0</ele><time>2026-04-04T15:32:12.446Z</time></trkpt><trkpt lat="43.3562867" lon="3.1259367"><ele>56.0</ele><time>2026-04-04T15:32:13.443Z</time></trkpt><trkpt lat="43.3562333" lon="3.1261217"><ele>55.0</ele><time>2026-04-04T15:32:14.446Z</time></trkpt><trkpt lat="43.3561767" lon="3.1263017"><ele>54.0</ele><time>2026-04-04T15:32:15.445Z</time></trkpt><trkpt lat="43.3561133" lon="3.1264717"><ele>53.0</ele><time>2026-04-04T15:32:16.443Z</time></trkpt><trkpt lat="43.356045" lon="3.1266333"><ele>53.0</ele><time>2026-04-04T15:32:17.443Z</time></trkpt><trkpt lat="43.355975" lon="3.126785"><ele>53.0</ele><time>2026-04-04T15:32:18.445Z</time></trkpt><trkpt lat="43.3559033" lon="3.1269217"><ele>53.0</ele><time>2026-04-04T15:32:19.448Z</time></trkpt><trkpt lat="43.3558317" lon="3.1270533"><ele>53.0</ele><time>2026-04-04T15:32:20.446Z</time></trkpt><trkpt lat="43.3557633" lon="3.1271817"><ele>53.0</ele><time>2026-04-04T15:32:21.447Z</time></trkpt><trkpt lat="43.3557033" lon="3.1272967"><ele>53.0</ele><time>2026-04-04T15:32:22.446Z</time></trkpt><trkpt lat="43.3556483" lon="3.1274017"><ele>53.0</ele><time>2026-04-04T15:32:23.446Z</time></trkpt><trkpt lat="43.3555883" lon="3.1274917"><ele>53.0</ele><time>2026-04-04T15:32:24.443Z</time></trkpt><trkpt lat="43.3555183" lon="3.12757"><ele>53.0</ele><time>2026-04-04T15:32:25.446Z</time></trkpt><trkpt lat="43.3554383" lon="3.127625"><ele>52.333333333333336</ele><time>2026-04-04T15:32:26.446Z</time></trkpt><trkpt lat="43.355365" lon="3.1276667"><ele>51.66666666666667</ele><time>2026-04-04T15:32:27.444Z</time></trkpt><trkpt lat="43.3552967" lon="3.12772"><ele>51.0</ele><time>2026-04-04T15:32:28.443Z</time></trkpt><trkpt lat="43.3552383" lon="3.1277867"><ele>50.33333333333333</ele><time>2026-04-04T15:32:29.444Z</time></trkpt><trkpt lat="43.3551867" lon="3.1278733"><ele>49.666666666666664</ele><time>2026-04-04T15:32:30.443Z</time></trkpt><trkpt lat="43.3551617" lon="3.1279833"><ele>49.0</ele><time>2026-04-04T15:32:31.444Z</time></trkpt><trkpt lat="43.3551633" lon="3.12812"><ele>48.75</ele><time>2026-04-04T15:32:32.446Z</time></trkpt><trkpt lat="43.355145" lon="3.128255"><ele>48.5</ele><time>2026-04-04T15:32:33.446Z</time></trkpt><trkpt lat="43.3551" lon="3.1284"><ele>48.25</ele><time>2026-04-04T15:32:34.446Z</time></trkpt><trkpt lat="43.35504" lon="3.1285533"><ele>48.0</ele><time>2026-04-04T15:32:35.446Z</time></trkpt><trkpt lat="43.3549717" lon="3.1287117"><ele>48.0</ele><time>2026-04-04T15:32:36.445Z</time></trkpt><trkpt lat="43.3548983" lon="3.1288767"><ele>48.0</ele><time>2026-04-04T15:32:37.446Z</time></trkpt><trkpt lat="43.3548217" lon="3.129045"><ele>48.0</ele><time>2026-04-04T15:32:38.443Z</time></trkpt><trkpt lat="43.35474" lon="3.129215"><ele>48.0</ele><time>2026-04-04T15:32:39.443Z</time></trkpt><trkpt lat="43.354655" lon="3.1293883"><ele>48.0</ele><time>2026-04-04T15:32:40.447Z</time></trkpt><trkpt lat="43.3545683" lon="3.129565"><ele>48.0</ele><time>2026-04-04T15:32:41.443Z</time></trkpt><trkpt lat="43.3544817" lon="3.129745"><ele>48.0</ele><time>2026-04-04T15:32:42.443Z</time></trkpt><trkpt lat="43.3543883" lon="3.1299233"><ele>48.66666666666667</ele><time>2026-04-04T15:32:43.444Z</time></trkpt><trkpt lat="43.354295" lon="3.1301033"><ele>49.333333333333336</ele><time>2026-04-04T15:32:44.446Z</time></trkpt><trkpt lat="43.3541983" lon="3.1302867"><ele>50.0</ele><time>2026-04-04T15:32:45.446Z</time></trkpt><trkpt lat="43.3541033" lon="3.1304733"><ele>50.0</ele><time>2026-04-04T15:32:46.446Z</time></trkpt><trkpt lat="43.35401" lon="3.1306567"><ele>50.0</ele><time>2026-04-04T15:32:47.446Z</time></trkpt><trkpt lat="43.3539183" lon="3.13084"><ele>50.0</ele><time>2026-04-04T15:32:48.446Z</time></trkpt><trkpt lat="43.3538233" lon="3.131025"><ele>49.333333333333336</ele><time>2026-04-04T15:32:49.446Z</time></trkpt><trkpt lat="43.3537267" lon="3.1312167"><ele>48.66666666666667</ele><time>2026-04-04T15:32:50.446Z</time></trkpt><trkpt lat="43.3536267" lon="3.131405"><ele>48.0</ele><time>2026-04-04T15:32:51.443Z</time></trkpt><trkpt lat="43.3535217" lon="3.1315967"><ele>48.0</ele><time>2026-04-04T15:32:52.444Z</time></trkpt><trkpt lat="43.3534133" lon="3.1317933"><ele>48.0</ele><time>2026-04-04T15:32:53.446Z</time></trkpt><trkpt lat="43.3533017" lon="3.1319933"><ele>48.0</ele><time>2026-04-04T15:32:54.443Z</time></trkpt><trkpt lat="43.35319" lon="3.1321983"><ele>48.0</ele><time>2026-04-04T15:32:55.443Z</time></trkpt><trkpt lat="43.353075" lon="3.1324"><ele>48.0</ele><time>2026-04-04T15:32:56.443Z</time></trkpt><trkpt lat="43.3529567" lon="3.1326083"><ele>48.0</ele><time>2026-04-04T15:32:57.443Z</time></trkpt><trkpt lat="43.352835" lon="3.1328317"><ele>48.0</ele><time>2026-04-04T15:32:58.446Z</time></trkpt><trkpt lat="43.352705" lon="3.1330567"><ele>48.0</ele><time>2026-04-04T15:32:59.443Z</time></trkpt><trkpt lat="43.3525717" lon="3.13328"><ele>48.0</ele><time>2026-04-04T15:33:00.446Z</time></trkpt><trkpt lat="43.3524267" lon="3.1335067"><ele>48.0</ele><time>2026-04-04T15:33:01.444Z</time></trkpt><trkpt lat="43.3522683" lon="3.13372"><ele>48.0</ele><time>2026-04-04T15:33:02.446Z</time></trkpt><trkpt lat="43.3521083" lon="3.1339283"><ele>48.0</ele><time>2026-04-04T15:33:03.444Z</time></trkpt><trkpt lat="43.3519433" lon="3.1341333"><ele>48.0</ele><time>2026-04-04T15:33:04.443Z</time></trkpt><trkpt lat="43.3517733" lon="3.134345"><ele>48.0</ele><time>2026-04-04T15:33:05.444Z</time></trkpt><trkpt lat="43.3516067" lon="3.13456"><ele>48.0</ele><time>2026-04-04T15:33:06.445Z</time></trkpt><trkpt lat="43.35144" lon="3.13478"><ele>48.0</ele><time>2026-04-04T15:33:07.444Z</time></trkpt><trkpt lat="43.3512783" lon="3.1350083"><ele>47.0</ele><time>2026-04-04T15:33:08.443Z</time></trkpt><trkpt lat="43.351125" lon="3.135255"><ele>46.0</ele><time>2026-04-04T15:33:09.445Z</time></trkpt><trkpt lat="43.350985" lon="3.1355183"><ele>46.5</ele><time>2026-04-04T15:33:10.447Z</time></trkpt><trkpt lat="43.350855" lon="3.1357933"><ele>47.0</ele><time>2026-04-04T15:33:11.448Z</time></trkpt><trkpt lat="43.3507283" lon="3.1360767"><ele>47.0</ele><time>2026-04-04T15:33:12.443Z</time></trkpt><trkpt lat="43.3506067" lon="3.136365"><ele>47.0</ele><time>2026-04-04T15:33:13.445Z</time></trkpt><trkpt lat="43.350485" lon="3.1366533"><ele>45.5</ele><time>2026-04-04T15:33:14.446Z</time></trkpt><trkpt lat="43.350365" lon="3.136935"><ele>44.0</ele><time>2026-04-04T15:33:15.443Z</time></trkpt><trkpt lat="43.3502467" lon="3.13722"><ele>44.0</ele><time>2026-04-04T15:33:16.443Z</time></trkpt><trkpt lat="43.3501367" lon="3.1375033"><ele>44.0</ele><time>2026-04-04T15:33:17.444Z</time></trkpt><trkpt lat="43.3500267" lon="3.1377867"><ele>44.0</ele><time>2026-04-04T15:33:18.445Z</time></trkpt><trkpt lat="43.34992" lon="3.1380683"><ele>44.0</ele><time>2026-04-04T15:33:19.444Z</time></trkpt><trkpt lat="43.3498167" lon="3.1383517"><ele>44.0</ele><time>2026-04-04T15:33:20.443Z</time></trkpt><trkpt lat="43.349715" lon="3.1386367"><ele>44.0</ele><time>2026-04-04T15:33:21.443Z</time></trkpt><trkpt lat="43.3496167" lon="3.1389233"><ele>42.5</ele><time>2026-04-04T15:33:22.444Z</time></trkpt><trkpt lat="43.3495267" lon="3.13921"><ele>41.0</ele><time>2026-04-04T15:33:23.444Z</time></trkpt><trkpt lat="43.3494383" lon="3.1395"><ele>41.0</ele><time>2026-04-04T15:33:24.444Z</time></trkpt><trkpt lat="43.3493517" lon="3.1397917"><ele>41.0</ele><time>2026-04-04T15:33:25.444Z</time></trkpt><trkpt lat="43.349265" lon="3.1400833"><ele>41.0</ele><time>2026-04-04T15:33:26.444Z</time></trkpt><trkpt lat="43.3491767" lon="3.1403733"><ele>41.0</ele><time>2026-04-04T15:33:27.443Z</time></trkpt><trkpt lat="43.3490883" lon="3.1406633"><ele>42.0</ele><time>2026-04-04T15:33:28.443Z</time></trkpt><trkpt lat="43.3490033" lon="3.1409567"><ele>43.0</ele><time>2026-04-04T15:33:29.444Z</time></trkpt><trkpt lat="43.348915" lon="3.1412467"><ele>42.5</ele><time>2026-04-04T15:33:30.446Z</time></trkpt><trkpt lat="43.3488283" lon="3.1415333"><ele>42.0</ele><time>2026-04-04T15:33:31.446Z</time></trkpt><trkpt lat="43.3487433" lon="3.1418233"><ele>42.0</ele><time>2026-04-04T15:33:32.446Z</time></trkpt><trkpt lat="43.34866" lon="3.142115"><ele>42.0</ele><time>2026-04-04T15:33:33.446Z</time></trkpt><trkpt lat="43.3485733" lon="3.1424083"><ele>42.5</ele><time>2026-04-04T15:33:34.446Z</time></trkpt><trkpt lat="43.3484817" lon="3.1427017"><ele>43.0</ele><time>2026-04-04T15:33:35.445Z</time></trkpt><trkpt lat="43.3483917" lon="3.142995"><ele>42.5</ele><time>2026-04-04T15:33:36.445Z</time></trkpt><trkpt lat="43.3483" lon="3.1432883"><ele>42.0</ele><time>2026-04-04T15:33:37.445Z</time></trkpt><trkpt lat="43.3482067" lon="3.1435817"><ele>42.0</ele><time>2026-04-04T15:33:38.444Z</time></trkpt><trkpt lat="43.348105" lon="3.14388"><ele>42.0</ele><time>2026-04-04T15:33:39.442Z</time></trkpt><trkpt lat="43.3479967" lon="3.1441783"><ele>41.0</ele><time>2026-04-04T15:33:40.443Z</time></trkpt><trkpt lat="43.347885" lon="3.1444783"><ele>40.0</ele><time>2026-04-04T15:33:41.446Z</time></trkpt><trkpt lat="43.34777" lon="3.14478"><ele>40.5</ele><time>2026-04-04T15:33:42.442Z</time></trkpt><trkpt lat="43.3476567" lon="3.1450733"><ele>41.0</ele><time>2026-04-04T15:33:43.443Z</time></trkpt><trkpt lat="43.34754" lon="3.145365"><ele>41.0</ele><time>2026-04-04T15:33:44.441Z</time></trkpt><trkpt lat="43.347425" lon="3.145655"><ele>41.0</ele><time>2026-04-04T15:33:45.446Z</time></trkpt><trkpt lat="43.34731" lon="3.1459467"><ele>39.0</ele><time>2026-04-04T15:33:46.443Z</time></trkpt><trkpt lat="43.3471967" lon="3.14624"><ele>37.0</ele><time>2026-04-04T15:33:47.442Z</time></trkpt><trkpt lat="43.3470833" lon="3.146535"><ele>36.5</ele><time>2026-04-04T15:33:48.444Z</time></trkpt><trkpt lat="43.34697" lon="3.1468317"><ele>36.0</ele><time>2026-04-04T15:33:49.444Z</time></trkpt><trkpt lat="43.3468583" lon="3.1471233"><ele>35.5</ele><time>2026-04-04T15:33:50.442Z</time></trkpt><trkpt lat="43.34675" lon="3.1474117"><ele>35.0</ele><time>2026-04-04T15:33:51.442Z</time></trkpt><trkpt lat="43.3466483" lon="3.1477017"><ele>35.0</ele><time>2026-04-04T15:33:52.442Z</time></trkpt><trkpt lat="43.3465583" lon="3.147995"><ele>35.0</ele><time>2026-04-04T15:33:53.442Z</time></trkpt><trkpt lat="43.3464767" lon="3.1482917"><ele>34.0</ele><time>2026-04-04T15:33:54.446Z</time></trkpt><trkpt lat="43.3464033" lon="3.148585"><ele>33.0</ele><time>2026-04-04T15:33:55.445Z</time></trkpt><trkpt lat="43.3463367" lon="3.1488783"><ele>32.0</ele><time>2026-04-04T15:33:56.445Z</time></trkpt><trkpt lat="43.3462783" lon="3.149175"><ele>31.0</ele><time>2026-04-04T15:33:57.442Z</time></trkpt><trkpt lat="43.3462417" lon="3.1494783"><ele>30.0</ele><time>2026-04-04T15:33:58.442Z</time></trkpt><trkpt lat="43.34622" lon="3.1497883"><ele>29.0</ele><time>2026-04-04T15:33:59.445Z</time></trkpt><trkpt lat="43.3462067" lon="3.1501017"><ele>28.0</ele><time>2026-04-04T15:34:00.442Z</time></trkpt><trkpt lat="43.3462017" lon="3.1504167"><ele>28.5</ele><time>2026-04-04T15:34:01.443Z</time></trkpt><trkpt lat="43.3462067" lon="3.15073"><ele>29.0</ele><time>2026-04-04T15:34:02.443Z</time></trkpt><trkpt lat="43.3462183" lon="3.1510417"><ele>29.0</ele><time>2026-04-04T15:34:03.443Z</time></trkpt><trkpt lat="43.3462367" lon="3.1513533"><ele>29.0</ele><time>2026-04-04T15:34:04.443Z</time></trkpt><trkpt lat="43.3462567" lon="3.1516633"><ele>29.0</ele><time>2026-04-04T15:34:05.445Z</time></trkpt><trkpt lat="43.3462733" lon="3.1519683"><ele>29.0</ele><time>2026-04-04T15:34:06.445Z</time></trkpt><trkpt lat="43.34629" lon="3.152275"><ele>29.0</ele><time>2026-04-04T15:34:07.446Z</time></trkpt><trkpt lat="43.3463017" lon="3.1525833"><ele>29.0</ele><time>2026-04-04T15:34:08.445Z</time></trkpt><trkpt lat="43.3463133" lon="3.1528933"><ele>29.0</ele><time>2026-04-04T15:34:09.444Z</time></trkpt><trkpt lat="43.346325" lon="3.1531967"><ele>29.0</ele><time>2026-04-04T15:34:10.447Z</time></trkpt><trkpt lat="43.3463383" lon="3.1534883"><ele>29.0</ele><time>2026-04-04T15:34:11.446Z</time></trkpt><trkpt lat="43.34635" lon="3.1537667"><ele>29.0</ele><time>2026-04-04T15:34:12.443Z</time></trkpt><trkpt lat="43.3463617" lon="3.154035"><ele>29.0</ele><time>2026-04-04T15:34:13.445Z</time></trkpt><trkpt lat="43.346375" lon="3.1543017"><ele>29.0</ele><time>2026-04-04T15:34:14.443Z</time></trkpt><trkpt lat="43.346385" lon="3.1545617"><ele>29.0</ele><time>2026-04-04T15:34:15.445Z</time></trkpt><trkpt lat="43.346395" lon="3.1548183"><ele>29.0</ele><time>2026-04-04T15:34:16.442Z</time></trkpt><trkpt lat="43.3464" lon="3.1550733"><ele>28.0</ele><time>2026-04-04T15:34:17.442Z</time></trkpt><trkpt lat="43.3464033" lon="3.1553283"><ele>27.0</ele><time>2026-04-04T15:34:18.443Z</time></trkpt><trkpt lat="43.3463983" lon="3.1555867"><ele>26.0</ele><time>2026-04-04T15:34:19.444Z</time></trkpt><trkpt lat="43.3463867" lon="3.155845"><ele>25.333333333333332</ele><time>2026-04-04T15:34:20.443Z</time></trkpt><trkpt lat="43.3463683" lon="3.1560983"><ele>24.666666666666664</ele><time>2026-04-04T15:34:21.443Z</time></trkpt><trkpt lat="43.3463433" lon="3.1563617"><ele>24.0</ele><time>2026-04-04T15:34:22.443Z</time></trkpt><trkpt lat="43.3463133" lon="3.1566333"><ele>24.0</ele><time>2026-04-04T15:34:23.447Z</time></trkpt><trkpt lat="43.3462817" lon="3.1569133"><ele>24.0</ele><time>2026-04-04T15:34:24.445Z</time></trkpt><trkpt lat="43.3462467" lon="3.1571983"><ele>24.0</ele><time>2026-04-04T15:34:25.445Z</time></trkpt><trkpt lat="43.3462117" lon="3.1574867"><ele>23.666666666666668</ele><time>2026-04-04T15:34:26.445Z</time></trkpt><trkpt lat="43.346175" lon="3.1577783"><ele>23.333333333333336</ele><time>2026-04-04T15:34:27.443Z</time></trkpt><trkpt lat="43.3461383" lon="3.1580733"><ele>23.0</ele><time>2026-04-04T15:34:28.443Z</time></trkpt><trkpt lat="43.346105" lon="3.1583683"><ele>23.333333333333336</ele><time>2026-04-04T15:34:29.444Z</time></trkpt><trkpt lat="43.34607" lon="3.158665"><ele>23.666666666666668</ele><time>2026-04-04T15:34:30.444Z</time></trkpt><trkpt lat="43.34603" lon="3.15896"><ele>24.0</ele><time>2026-04-04T15:34:31.444Z</time></trkpt><trkpt lat="43.34599" lon="3.1592567"><ele>24.0</ele><time>2026-04-04T15:34:32.442Z</time></trkpt><trkpt lat="43.345955" lon="3.15956"><ele>24.0</ele><time>2026-04-04T15:34:33.443Z</time></trkpt><trkpt lat="43.3459217" lon="3.15986"><ele>24.0</ele><time>2026-04-04T15:34:34.443Z</time></trkpt><trkpt lat="43.34589" lon="3.1601583"><ele>24.0</ele><time>2026-04-04T15:34:35.444Z</time></trkpt><trkpt lat="43.34586" lon="3.1604583"><ele>24.0</ele><time>2026-04-04T15:34:36.444Z</time></trkpt><trkpt lat="43.345835" lon="3.1607633"><ele>24.0</ele><time>2026-04-04T15:34:37.444Z</time></trkpt><trkpt lat="43.3458183" lon="3.1610733"><ele>24.0</ele><time>2026-04-04T15:34:38.443Z</time></trkpt><trkpt lat="43.345805" lon="3.1613817"><ele>24.0</ele><time>2026-04-04T15:34:39.444Z</time></trkpt><trkpt lat="43.3457933" lon="3.1616883"><ele>24.0</ele><time>2026-04-04T15:34:40.443Z</time></trkpt><trkpt lat="43.3457833" lon="3.1619917"><ele>24.0</ele><time>2026-04-04T15:34:41.443Z</time></trkpt><trkpt lat="43.345775" lon="3.162295"><ele>24.0</ele><time>2026-04-04T15:34:42.444Z</time></trkpt><trkpt lat="43.345765" lon="3.1625983"><ele>24.0</ele><time>2026-04-04T15:34:43.444Z</time></trkpt><trkpt lat="43.345755" lon="3.162895"><ele>24.0</ele><time>2026-04-04T15:34:44.446Z</time></trkpt><trkpt lat="43.3457533" lon="3.16319"><ele>24.0</ele><time>2026-04-04T15:34:45.446Z</time></trkpt><trkpt lat="43.3457633" lon="3.1634817"><ele>24.0</ele><time>2026-04-04T15:34:46.443Z</time></trkpt><trkpt lat="43.3457883" lon="3.16377"><ele>24.666666666666664</ele><time>2026-04-04T15:34:47.442Z</time></trkpt><trkpt lat="43.3458267" lon="3.1640567"><ele>25.333333333333332</ele><time>2026-04-04T15:34:48.443Z</time></trkpt><trkpt lat="43.3458717" lon="3.1643433"><ele>26.0</ele><time>2026-04-04T15:34:49.444Z</time></trkpt><trkpt lat="43.34592" lon="3.164625"><ele>25.666666666666664</ele><time>2026-04-04T15:34:50.443Z</time></trkpt><trkpt lat="43.3459717" lon="3.1648983"><ele>25.333333333333336</ele><time>2026-04-04T15:34:51.444Z</time></trkpt><trkpt lat="43.3460217" lon="3.1651667"><ele>25.0</ele><time>2026-04-04T15:34:52.445Z</time></trkpt><trkpt lat="43.3460733" lon="3.1654333"><ele>25.0</ele><time>2026-04-04T15:34:53.442Z</time></trkpt><trkpt lat="43.3461233" lon="3.1656933"><ele>25.0</ele><time>2026-04-04T15:34:54.443Z</time></trkpt><trkpt lat="43.34617" lon="3.1659517"><ele>25.0</ele><time>2026-04-04T15:34:55.446Z</time></trkpt><trkpt lat="43.3462167" lon="3.1662067"><ele>25.333333333333336</ele><time>2026-04-04T15:34:56.446Z</time></trkpt><trkpt lat="43.3462683" lon="3.1664683"><ele>25.666666666666664</ele><time>2026-04-04T15:34:57.446Z</time></trkpt><trkpt lat="43.3463167" lon="3.1667283"><ele>26.0</ele><time>2026-04-04T15:34:58.445Z</time></trkpt><trkpt lat="43.3463633" lon="3.1669833"><ele>25.666666666666664</ele><time>2026-04-04T15:34:59.442Z</time></trkpt><trkpt lat="43.34641" lon="3.1672317"><ele>25.333333333333336</ele><time>2026-04-04T15:35:00.442Z</time></trkpt><trkpt lat="43.3464483" lon="3.1674833"><ele>25.0</ele><time>2026-04-04T15:35:01.445Z</time></trkpt><trkpt lat="43.3464717" lon="3.1677317"><ele>25.0</ele><time>2026-04-04T15:35:02.446Z</time></trkpt><trkpt lat="43.3464817" lon="3.167985"><ele>25.0</ele><time>2026-04-04T15:35:03.446Z</time></trkpt><trkpt lat="43.3464767" lon="3.1682417"><ele>25.0</ele><time>2026-04-04T15:35:04.445Z</time></trkpt><trkpt lat="43.3464567" lon="3.1684983"><ele>25.0</ele><time>2026-04-04T15:35:05.445Z</time></trkpt><trkpt lat="43.34643" lon="3.1687483"><ele>25.0</ele><time>2026-04-04T15:35:06.445Z</time></trkpt><trkpt lat="43.3463917" lon="3.1689983"><ele>25.0</ele><time>2026-04-04T15:35:07.446Z</time></trkpt><trkpt lat="43.3463417" lon="3.169245"><ele>29.0</ele><time>2026-04-04T15:35:08.445Z</time></trkpt><trkpt lat="43.34628" lon="3.16949"><ele>33.0</ele><time>2026-04-04T15:35:09.444Z</time></trkpt><trkpt lat="43.34621" lon="3.169725"><ele>37.0</ele><time>2026-04-04T15:35:10.443Z</time></trkpt><trkpt lat="43.3461283" lon="3.169955"><ele>37.333333333333336</ele><time>2026-04-04T15:35:11.445Z</time></trkpt><trkpt lat="43.34604" lon="3.1701767"><ele>37.666666666666664</ele><time>2026-04-04T15:35:12.445Z</time></trkpt><trkpt lat="43.3459467" lon="3.1703967"><ele>38.0</ele><time>2026-04-04T15:35:13.444Z</time></trkpt><trkpt lat="43.345855" lon="3.1706117"><ele>38.33333333333333</ele><time>2026-04-04T15:35:14.446Z</time></trkpt><trkpt lat="43.3457617" lon="3.1708167"><ele>38.666666666666664</ele><time>2026-04-04T15:35:15.445Z</time></trkpt><trkpt lat="43.3456717" lon="3.1710117"><ele>39.0</ele><time>2026-04-04T15:35:16.443Z</time></trkpt><trkpt lat="43.3455767" lon="3.1711867"><ele>39.5</ele><time>2026-04-04T15:35:17.443Z</time></trkpt><trkpt lat="43.3454833" lon="3.1713533"><ele>40.0</ele><time>2026-04-04T15:35:18.444Z</time></trkpt><trkpt lat="43.3453833" lon="3.171505"><ele>40.5</ele><time>2026-04-04T15:35:19.444Z</time></trkpt><trkpt lat="43.34528" lon="3.1716433"><ele>41.0</ele><time>2026-04-04T15:35:20.443Z</time></trkpt><trkpt lat="43.3451767" lon="3.1717717"><ele>40.0</ele><time>2026-04-04T15:35:21.443Z</time></trkpt><trkpt lat="43.345075" lon="3.1718883"><ele>39.0</ele><time>2026-04-04T15:35:22.443Z</time></trkpt><trkpt lat="43.3449767" lon="3.1719933"><ele>38.0</ele><time>2026-04-04T15:35:23.446Z</time></trkpt><trkpt lat="43.34489" lon="3.1720883"><ele>37.0</ele><time>2026-04-04T15:35:24.445Z</time></trkpt><trkpt lat="43.34482" lon="3.1721767"><ele>37.0</ele><time>2026-04-04T15:35:25.446Z</time></trkpt><trkpt lat="43.3447633" lon="3.1722683"><ele>37.0</ele><time>2026-04-04T15:35:26.445Z</time></trkpt><trkpt lat="43.34472" lon="3.1723667"><ele>37.0</ele><time>2026-04-04T15:35:27.443Z</time></trkpt><trkpt lat="43.3446867" lon="3.1724583"><ele>37.0</ele><time>2026-04-04T15:35:28.443Z</time></trkpt><trkpt lat="43.344655" lon="3.1725483"><ele>37.0</ele><time>2026-04-04T15:35:29.443Z</time></trkpt><trkpt lat="43.34461" lon="3.1726283"><ele>37.0</ele><time>2026-04-04T15:35:30.443Z</time></trkpt><trkpt lat="43.3445517" lon="3.1726967"><ele>37.2</ele><time>2026-04-04T15:35:31.444Z</time></trkpt><trkpt lat="43.3444717" lon="3.1727567"><ele>37.400000000000006</ele><time>2026-04-04T15:35:32.445Z</time></trkpt><trkpt lat="43.3443967" lon="3.172835"><ele>37.599999999999994</ele><time>2026-04-04T15:35:33.442Z</time></trkpt><trkpt lat="43.3443383" lon="3.1729367"><ele>37.8</ele><time>2026-04-04T15:35:34.444Z</time></trkpt><trkpt lat="43.3442883" lon="3.1730533"><ele>38.0</ele><time>2026-04-04T15:35:35.446Z</time></trkpt><trkpt lat="43.344265" lon="3.1731867"><ele>37.6</ele><time>2026-04-04T15:35:36.445Z</time></trkpt><trkpt lat="43.3442667" lon="3.1733317"><ele>37.199999999999996</ele><time>2026-04-04T15:35:37.446Z</time></trkpt><trkpt lat="43.3442933" lon="3.1734733"><ele>36.8</ele><time>2026-04-04T15:35:38.443Z</time></trkpt><trkpt lat="43.3443483" lon="3.173595"><ele>36.4</ele><time>2026-04-04T15:35:39.443Z</time></trkpt><trkpt lat="43.3444183" lon="3.173715"><ele>36.0</ele><time>2026-04-04T15:35:40.446Z</time></trkpt><trkpt lat="43.3444783" lon="3.1738483"><ele>36.0</ele><time>2026-04-04T15:35:41.445Z</time></trkpt><trkpt lat="43.3445133" lon="3.1740017"><ele>36.0</ele><time>2026-04-04T15:35:42.445Z</time></trkpt><trkpt lat="43.3445067" lon="3.17418"><ele>36.0</ele><time>2026-04-04T15:35:43.447Z</time></trkpt><trkpt lat="43.3444783" lon="3.1743683"><ele>36.0</ele><time>2026-04-04T15:35:44.445Z</time></trkpt><trkpt lat="43.3444217" lon="3.1745533"><ele>36.0</ele><time>2026-04-04T15:35:45.443Z</time></trkpt><trkpt lat="43.3443317" lon="3.17473"><ele>36.0</ele><time>2026-04-04T15:35:46.444Z</time></trkpt><trkpt lat="43.3442067" lon="3.174885"><ele>36.0</ele><time>2026-04-04T15:35:47.446Z</time></trkpt><trkpt lat="43.3440783" lon="3.17504"><ele>36.0</ele><time>2026-04-04T15:35:48.445Z</time></trkpt><trkpt lat="43.3439467" lon="3.1751983"><ele>36.0</ele><time>2026-04-04T15:35:49.446Z</time></trkpt><trkpt lat="43.3438167" lon="3.1753717"><ele>36.0</ele><time>2026-04-04T15:35:50.445Z</time></trkpt><trkpt lat="43.3436917" lon="3.17556"><ele>36.0</ele><time>2026-04-04T15:35:51.446Z</time></trkpt><trkpt lat="43.3435767" lon="3.1757683"><ele>36.0</ele><time>2026-04-04T15:35:52.446Z</time></trkpt><trkpt lat="43.3434667" lon="3.1759883"><ele>36.0</ele><time>2026-04-04T15:35:53.442Z</time></trkpt><trkpt lat="43.343355" lon="3.1762133"><ele>36.0</ele><time>2026-04-04T15:35:54.446Z</time></trkpt><trkpt lat="43.3432433" lon="3.17644"><ele>36.0</ele><time>2026-04-04T15:35:55.443Z</time></trkpt><trkpt lat="43.34313" lon="3.1766717"><ele>36.0</ele><time>2026-04-04T15:35:56.446Z</time></trkpt><trkpt lat="43.34302" lon="3.1769033"><ele>35.333333333333336</ele><time>2026-04-04T15:35:57.444Z</time></trkpt><trkpt lat="43.34291" lon="3.1771367"><ele>34.66666666666667</ele><time>2026-04-04T15:35:58.443Z</time></trkpt><trkpt lat="43.3427983" lon="3.1773667"><ele>34.0</ele><time>2026-04-04T15:35:59.442Z</time></trkpt><trkpt lat="43.3426867" lon="3.1775917"><ele>33.66666666666667</ele><time>2026-04-04T15:36:00.447Z</time></trkpt><trkpt lat="43.342575" lon="3.1778067"><ele>33.333333333333336</ele><time>2026-04-04T15:36:01.443Z</time></trkpt><trkpt lat="43.342465" lon="3.1780217"><ele>33.0</ele><time>2026-04-04T15:36:02.445Z</time></trkpt><trkpt lat="43.34236" lon="3.1782383"><ele>33.0</ele><time>2026-04-04T15:36:03.443Z</time></trkpt><trkpt lat="43.3422583" lon="3.1784417"><ele>33.0</ele><time>2026-04-04T15:36:04.443Z</time></trkpt><trkpt lat="43.342155" lon="3.17863"><ele>33.0</ele><time>2026-04-04T15:36:05.444Z</time></trkpt><trkpt lat="43.3420517" lon="3.1787967"><ele>32.75</ele><time>2026-04-04T15:36:06.443Z</time></trkpt><trkpt lat="43.3419483" lon="3.178945"><ele>32.5</ele><time>2026-04-04T15:36:07.444Z</time></trkpt><trkpt lat="43.3418417" lon="3.1790667"><ele>32.25</ele><time>2026-04-04T15:36:08.444Z</time></trkpt><trkpt lat="43.3417317" lon="3.1791433"><ele>32.0</ele><time>2026-04-04T15:36:09.443Z</time></trkpt><trkpt lat="43.3416367" lon="3.1791867"><ele>32.0</ele><time>2026-04-04T15:36:10.443Z</time></trkpt><trkpt lat="43.3415683" lon="3.179235"><ele>32.0</ele><time>2026-04-04T15:36:11.444Z</time></trkpt><trkpt lat="43.34153" lon="3.179305"><ele>32.0</ele><time>2026-04-04T15:36:12.447Z</time></trkpt><trkpt lat="43.3415333" lon="3.179505"><ele>32.0</ele><time>2026-04-04T15:36:14.446Z</time></trkpt><trkpt lat="43.3415617" lon="3.1796467"><ele>32.0</ele><time>2026-04-04T15:36:15.445Z</time></trkpt><trkpt lat="43.3415633" lon="3.17981"><ele>31.666666666666664</ele><time>2026-04-04T15:36:16.446Z</time></trkpt><trkpt lat="43.34155" lon="3.1799983"><ele>31.333333333333336</ele><time>2026-04-04T15:36:17.447Z</time></trkpt><trkpt lat="43.3415317" lon="3.180205"><ele>31.0</ele><time>2026-04-04T15:36:18.445Z</time></trkpt><trkpt lat="43.341505" lon="3.1804233"><ele>31.0</ele><time>2026-04-04T15:36:19.446Z</time></trkpt><trkpt lat="43.341475" lon="3.1806483"><ele>31.0</ele><time>2026-04-04T15:36:20.446Z</time></trkpt><trkpt lat="43.3414433" lon="3.1808767"><ele>31.0</ele><time>2026-04-04T15:36:21.446Z</time></trkpt><trkpt lat="43.341415" lon="3.1811133"><ele>31.0</ele><time>2026-04-04T15:36:22.444Z</time></trkpt><trkpt lat="43.341385" lon="3.1813667"><ele>31.0</ele><time>2026-04-04T15:36:23.443Z</time></trkpt><trkpt lat="43.3413583" lon="3.1816283"><ele>31.0</ele><time>2026-04-04T15:36:24.443Z</time></trkpt><trkpt lat="43.34133" lon="3.181885"><ele>31.0</ele><time>2026-04-04T15:36:25.444Z</time></trkpt><trkpt lat="43.3413" lon="3.1821417"><ele>31.0</ele><time>2026-04-04T15:36:26.446Z</time></trkpt><trkpt lat="43.3412733" lon="3.1824017"><ele>31.0</ele><time>2026-04-04T15:36:27.445Z</time></trkpt><trkpt lat="43.3412517" lon="3.18266"><ele>31.333333333333336</ele><time>2026-04-04T15:36:28.443Z</time></trkpt><trkpt lat="43.3412367" lon="3.18292"><ele>31.666666666666664</ele><time>2026-04-04T15:36:29.444Z</time></trkpt><trkpt lat="43.3412267" lon="3.183175"><ele>32.0</ele><time>2026-04-04T15:36:30.443Z</time></trkpt><trkpt lat="43.3412167" lon="3.18342"><ele>30.666666666666664</ele><time>2026-04-04T15:36:31.445Z</time></trkpt><trkpt lat="43.3412083" lon="3.1836567"><ele>29.333333333333336</ele><time>2026-04-04T15:36:32.443Z</time></trkpt><trkpt lat="43.3412" lon="3.1838833"><ele>28.0</ele><time>2026-04-04T15:36:33.443Z</time></trkpt><trkpt lat="43.3411933" lon="3.1841067"><ele>27.333333333333336</ele><time>2026-04-04T15:36:34.444Z</time></trkpt><trkpt lat="43.341185" lon="3.1843333"><ele>26.666666666666664</ele><time>2026-04-04T15:36:35.443Z</time></trkpt><trkpt lat="43.3411767" lon="3.184565"><ele>26.0</ele><time>2026-04-04T15:36:36.447Z</time></trkpt><trkpt lat="43.3411617" lon="3.1848017"><ele>25.0</ele><time>2026-04-04T15:36:37.447Z</time></trkpt><trkpt lat="43.341145" lon="3.1850367"><ele>24.0</ele><time>2026-04-04T15:36:38.447Z</time></trkpt><trkpt lat="43.341125" lon="3.18527"><ele>23.0</ele><time>2026-04-04T15:36:39.444Z</time></trkpt><trkpt lat="43.3411017" lon="3.18549"><ele>22.0</ele><time>2026-04-04T15:36:40.447Z</time></trkpt><trkpt lat="43.34108" lon="3.1857033"><ele>21.0</ele><time>2026-04-04T15:36:41.445Z</time></trkpt><trkpt lat="43.3410617" lon="3.1859067"><ele>20.0</ele><time>2026-04-04T15:36:42.443Z</time></trkpt><trkpt lat="43.341045" lon="3.1861"><ele>19.0</ele><time>2026-04-04T15:36:43.444Z</time></trkpt><trkpt lat="43.341025" lon="3.18628"><ele>19.0</ele><time>2026-04-04T15:36:44.444Z</time></trkpt><trkpt lat="43.3410067" lon="3.18645"><ele>19.0</ele><time>2026-04-04T15:36:45.444Z</time></trkpt><trkpt lat="43.3409883" lon="3.1866167"><ele>19.0</ele><time>2026-04-04T15:36:46.443Z</time></trkpt><trkpt lat="43.3409717" lon="3.1867917"><ele>19.0</ele><time>2026-04-04T15:36:47.447Z</time></trkpt><trkpt lat="43.3409533" lon="3.18697"><ele>18.75</ele><time>2026-04-04T15:36:48.447Z</time></trkpt><trkpt lat="43.340935" lon="3.1871433"><ele>18.5</ele><time>2026-04-04T15:36:49.447Z</time></trkpt><trkpt lat="43.340915" lon="3.187315"><ele>18.25</ele><time>2026-04-04T15:36:50.446Z</time></trkpt><trkpt lat="43.3408983" lon="3.1874983"><ele>18.0</ele><time>2026-04-04T15:36:51.446Z</time></trkpt><trkpt lat="43.34088" lon="3.18769"><ele>17.666666666666668</ele><time>2026-04-04T15:36:52.446Z</time></trkpt><trkpt lat="43.3408617" lon="3.1878867"><ele>17.333333333333336</ele><time>2026-04-04T15:36:53.443Z</time></trkpt><trkpt lat="43.3408383" lon="3.188095"><ele>17.0</ele><time>2026-04-04T15:36:54.446Z</time></trkpt><trkpt lat="43.3408167" lon="3.1883117"><ele>17.0</ele><time>2026-04-04T15:36:55.446Z</time></trkpt><trkpt lat="43.3407933" lon="3.1885317"><ele>17.0</ele><time>2026-04-04T15:36:56.446Z</time></trkpt><trkpt lat="43.34077" lon="3.1887483"><ele>17.0</ele><time>2026-04-04T15:36:57.443Z</time></trkpt><trkpt lat="43.3407433" lon="3.1889683"><ele>17.666666666666668</ele><time>2026-04-04T15:36:58.446Z</time></trkpt><trkpt lat="43.3407117" lon="3.1891883"><ele>18.333333333333332</ele><time>2026-04-04T15:36:59.445Z</time></trkpt><trkpt lat="43.340675" lon="3.1893983"><ele>19.0</ele><time>2026-04-04T15:37:00.443Z</time></trkpt><trkpt lat="43.3406383" lon="3.1896017"><ele>19.0</ele><time>2026-04-04T15:37:01.444Z</time></trkpt><trkpt lat="43.3406133" lon="3.1897767"><ele>19.0</ele><time>2026-04-04T15:37:02.444Z</time></trkpt><trkpt lat="43.3405883" lon="3.1899183"><ele>19.0</ele><time>2026-04-04T15:37:03.443Z</time></trkpt><trkpt lat="43.3405617" lon="3.1900233"><ele>19.0</ele><time>2026-04-04T15:37:04.444Z</time></trkpt><trkpt lat="43.340525" lon="3.1901117"><ele>19.0</ele><time>2026-04-04T15:37:05.446Z</time></trkpt><trkpt lat="43.3404817" lon="3.1901783"><ele>18.666666666666664</ele><time>2026-04-04T15:37:06.444Z</time></trkpt><trkpt lat="43.3404283" lon="3.1902267"><ele>18.333333333333332</ele><time>2026-04-04T15:37:07.444Z</time></trkpt><trkpt lat="43.3403533" lon="3.1902417"><ele>18.0</ele><time>2026-04-04T15:37:08.443Z</time></trkpt><trkpt lat="43.340265" lon="3.1902567"><ele>17.666666666666668</ele><time>2026-04-04T15:37:09.444Z</time></trkpt><trkpt lat="43.3401583" lon="3.190255"><ele>17.333333333333336</ele><time>2026-04-04T15:37:10.443Z</time></trkpt><trkpt lat="43.340045" lon="3.190245"><ele>17.0</ele><time>2026-04-04T15:37:11.444Z</time></trkpt><trkpt lat="43.3399183" lon="3.1902417"><ele>17.0</ele><time>2026-04-04T15:37:12.444Z</time></trkpt><trkpt lat="43.3397783" lon="3.19024"><ele>17.0</ele><time>2026-04-04T15:37:13.444Z</time></trkpt><trkpt lat="43.339635" lon="3.1902417"><ele>17.0</ele><time>2026-04-04T15:37:14.444Z</time></trkpt><trkpt lat="43.3394917" lon="3.1902533"><ele>17.0</ele><time>2026-04-04T15:37:15.446Z</time></trkpt><trkpt lat="43.3393533" lon="3.190265"><ele>16.75</ele><time>2026-04-04T15:37:16.445Z</time></trkpt><trkpt lat="43.33922" lon="3.1902767"><ele>16.5</ele><time>2026-04-04T15:37:17.444Z</time></trkpt><trkpt lat="43.339085" lon="3.1902917"><ele>16.25</ele><time>2026-04-04T15:37:18.444Z</time></trkpt><trkpt lat="43.338945" lon="3.1903033"><ele>16.0</ele><time>2026-04-04T15:37:19.444Z</time></trkpt><trkpt lat="43.3388017" lon="3.190315"><ele>16.0</ele><time>2026-04-04T15:37:20.444Z</time></trkpt><trkpt lat="43.33866" lon="3.1903233"><ele>16.0</ele><time>2026-04-04T15:37:21.444Z</time></trkpt><trkpt lat="43.3385233" lon="3.1903267"><ele>16.0</ele><time>2026-04-04T15:37:22.444Z</time></trkpt><trkpt lat="43.3384017" lon="3.1903317"><ele>16.0</ele><time>2026-04-04T15:37:23.444Z</time></trkpt><trkpt lat="43.338295" lon="3.1903367"><ele>15.999999999999998</ele><time>2026-04-04T15:37:24.443Z</time></trkpt><trkpt lat="43.3382067" lon="3.1903483"><ele>16.0</ele><time>2026-04-04T15:37:25.444Z</time></trkpt><trkpt lat="43.33813" lon="3.1903683"><ele>16.0</ele><time>2026-04-04T15:37:26.443Z</time></trkpt><trkpt lat="43.338055" lon="3.19038"><ele>16.0</ele><time>2026-04-04T15:37:27.444Z</time></trkpt><trkpt lat="43.3379833" lon="3.1903883"><ele>15.999999999999998</ele><time>2026-04-04T15:37:28.445Z</time></trkpt><trkpt lat="43.337915" lon="3.1904067"><ele>16.0</ele><time>2026-04-04T15:37:29.444Z</time></trkpt><trkpt lat="43.3378317" lon="3.19051"><ele>16.2</ele><time>2026-04-04T15:37:31.447Z</time></trkpt><trkpt lat="43.3378683" lon="3.1907083"><ele>16.400000000000002</ele><time>2026-04-04T15:37:33.446Z</time></trkpt><trkpt lat="43.3378683" lon="3.1908217"><ele>16.6</ele><time>2026-04-04T15:37:34.446Z</time></trkpt><trkpt lat="43.337855" lon="3.1909383"><ele>16.8</ele><time>2026-04-04T15:37:35.444Z</time></trkpt><trkpt lat="43.3378117" lon="3.1910533"><ele>17.0</ele><time>2026-04-04T15:37:36.444Z</time></trkpt><trkpt lat="43.337775" lon="3.19118"><ele>17.0</ele><time>2026-04-04T15:37:37.445Z</time></trkpt><trkpt lat="43.337755" lon="3.1913067"><ele>17.0</ele><time>2026-04-04T15:37:38.446Z</time></trkpt><trkpt lat="43.337745" lon="3.1914267"><ele>17.0</ele><time>2026-04-04T15:37:39.447Z</time></trkpt><trkpt lat="43.3377383" lon="3.1915367"><ele>17.0</ele><time>2026-04-04T15:37:40.446Z</time></trkpt><trkpt lat="43.3377333" lon="3.1916267"><ele>17.0</ele><time>2026-04-04T15:37:41.447Z</time></trkpt><trkpt lat="43.337735" lon="3.1917667"><ele>17.0</ele><time>2026-04-04T15:37:43.447Z</time></trkpt><trkpt lat="43.3377367" lon="3.191905"><ele>17.0</ele><time>2026-04-04T15:37:45.444Z</time></trkpt><trkpt lat="43.3377217" lon="3.19205"><ele>17.0</ele><time>2026-04-04T15:37:47.443Z</time></trkpt><trkpt lat="43.3377133" lon="3.1922083"><ele>17.0</ele><time>2026-04-04T15:37:49.445Z</time></trkpt><trkpt lat="43.33771" lon="3.1922983"><ele>17.0</ele><time>2026-04-04T15:37:50.444Z</time></trkpt><trkpt lat="43.337705" lon="3.1924083"><ele>17.0</ele><time>2026-04-04T15:37:51.444Z</time></trkpt><trkpt lat="43.3376983" lon="3.1925233"><ele>16.6</ele><time>2026-04-04T15:37:52.444Z</time></trkpt><trkpt lat="43.337695" lon="3.192645"><ele>16.2</ele><time>2026-04-04T15:37:53.447Z</time></trkpt><trkpt lat="43.3376917" lon="3.192775"><ele>15.8</ele><time>2026-04-04T15:37:54.444Z</time></trkpt><trkpt lat="43.33769" lon="3.1929083"><ele>15.4</ele><time>2026-04-04T15:37:55.444Z</time></trkpt><trkpt lat="43.3376883" lon="3.19305"><ele>15.0</ele><time>2026-04-04T15:37:56.443Z</time></trkpt><trkpt lat="43.3376883" lon="3.1932033"><ele>15.0</ele><time>2026-04-04T15:37:57.447Z</time></trkpt><trkpt lat="43.33769" lon="3.1933583"><ele>15.0</ele><time>2026-04-04T15:37:58.445Z</time></trkpt><trkpt lat="43.33769" lon="3.193525"><ele>15.0</ele><time>2026-04-04T15:37:59.444Z</time></trkpt><trkpt lat="43.3376883" lon="3.1937"><ele>15.0</ele><time>2026-04-04T15:38:00.444Z</time></trkpt><trkpt lat="43.3376833" lon="3.1938833"><ele>15.25</ele><time>2026-04-04T15:38:01.446Z</time></trkpt><trkpt lat="43.3376767" lon="3.1940667"><ele>15.5</ele><time>2026-04-04T15:38:02.446Z</time></trkpt><trkpt lat="43.33767" lon="3.1942533"><ele>15.75</ele><time>2026-04-04T15:38:03.447Z</time></trkpt><trkpt lat="43.3376667" lon="3.1944367"><ele>16.0</ele><time>2026-04-04T15:38:04.443Z</time></trkpt><trkpt lat="43.337665" lon="3.1946167"><ele>16.0</ele><time>2026-04-04T15:38:05.447Z</time></trkpt><trkpt lat="43.3376633" lon="3.1947917"><ele>16.0</ele><time>2026-04-04T15:38:06.445Z</time></trkpt><trkpt lat="43.3376683" lon="3.1949567"><ele>16.0</ele><time>2026-04-04T15:38:07.444Z</time></trkpt><trkpt lat="43.3376717" lon="3.1951233"><ele>16.0</ele><time>2026-04-04T15:38:08.445Z</time></trkpt><trkpt lat="43.3376733" lon="3.1952867"><ele>16.0</ele><time>2026-04-04T15:38:09.445Z</time></trkpt><trkpt lat="43.33767" lon="3.1954417"><ele>16.0</ele><time>2026-04-04T15:38:10.445Z</time></trkpt><trkpt lat="43.3376683" lon="3.1955883"><ele>16.0</ele><time>2026-04-04T15:38:11.443Z</time></trkpt><trkpt lat="43.3376683" lon="3.195735"><ele>16.0</ele><time>2026-04-04T15:38:12.442Z</time></trkpt><trkpt lat="43.3376767" lon="3.1958733"><ele>16.0</ele><time>2026-04-04T15:38:13.445Z</time></trkpt><trkpt lat="43.3376817" lon="3.1960067"><ele>15.999999999999998</ele><time>2026-04-04T15:38:14.442Z</time></trkpt><trkpt lat="43.337685" lon="3.1961333"><ele>16.0</ele><time>2026-04-04T15:38:15.443Z</time></trkpt><trkpt lat="43.337685" lon="3.196255"><ele>16.0</ele><time>2026-04-04T15:38:16.445Z</time></trkpt><trkpt lat="43.337685" lon="3.1963717"><ele>16.0</ele><time>2026-04-04T15:38:17.443Z</time></trkpt><trkpt lat="43.337685" lon="3.1964833"><ele>15.999999999999998</ele><time>2026-04-04T15:38:18.443Z</time></trkpt><trkpt lat="43.3376833" lon="3.1965817"><ele>16.0</ele><time>2026-04-04T15:38:19.443Z</time></trkpt><trkpt lat="43.3376783" lon="3.1967217"><ele>15.833333333333332</ele><time>2026-04-04T15:38:21.443Z</time></trkpt><trkpt lat="43.3376783" lon="3.1968133"><ele>15.666666666666666</ele><time>2026-04-04T15:38:24.443Z</time></trkpt><trkpt lat="43.3376883" lon="3.1969233"><ele>15.5</ele><time>2026-04-04T15:38:29.442Z</time></trkpt><trkpt lat="43.3377" lon="3.197035"><ele>15.333333333333332</ele><time>2026-04-04T15:38:31.446Z</time></trkpt><trkpt lat="43.33771" lon="3.1971967"><ele>15.166666666666666</ele><time>2026-04-04T15:38:33.445Z</time></trkpt><trkpt lat="43.33771" lon="3.19729"><ele>15.0</ele><time>2026-04-04T15:38:34.446Z</time></trkpt><trkpt lat="43.3377083" lon="3.1974017"><ele>14.8</ele><time>2026-04-04T15:38:35.445Z</time></trkpt><trkpt lat="43.3377067" lon="3.1975233"><ele>14.6</ele><time>2026-04-04T15:38:36.445Z</time></trkpt><trkpt lat="43.3377083" lon="3.1976483"><ele>14.399999999999999</ele><time>2026-04-04T15:38:37.444Z</time></trkpt><trkpt lat="43.3377033" lon="3.19779"><ele>14.2</ele><time>2026-04-04T15:38:38.442Z</time></trkpt><trkpt lat="43.3377033" lon="3.1979333"><ele>14.0</ele><time>2026-04-04T15:38:39.442Z</time></trkpt><trkpt lat="43.3377083" lon="3.1980683"><ele>14.0</ele><time>2026-04-04T15:38:40.443Z</time></trkpt><trkpt lat="43.3377117" lon="3.1982"><ele>13.999999999999998</ele><time>2026-04-04T15:38:41.442Z</time></trkpt><trkpt lat="43.3377067" lon="3.1983317"><ele>13.999999999999998</ele><time>2026-04-04T15:38:42.446Z</time></trkpt><trkpt lat="43.3377033" lon="3.1984667"><ele>14.0</ele><time>2026-04-04T15:38:43.442Z</time></trkpt><trkpt lat="43.3377033" lon="3.1986033"><ele>14.0</ele><time>2026-04-04T15:38:44.443Z</time></trkpt><trkpt lat="43.3377083" lon="3.198745"><ele>14.0</ele><time>2026-04-04T15:38:45.445Z</time></trkpt><trkpt lat="43.3377083" lon="3.1989"><ele>14.0</ele><time>2026-04-04T15:38:46.445Z</time></trkpt><trkpt lat="43.33771" lon="3.199055"><ele>14.0</ele><time>2026-04-04T15:38:47.442Z</time></trkpt><trkpt lat="43.33771" lon="3.1992117"><ele>14.0</ele><time>2026-04-04T15:38:48.443Z</time></trkpt><trkpt lat="43.3377117" lon="3.19937"><ele>14.25</ele><time>2026-04-04T15:38:49.444Z</time></trkpt><trkpt lat="43.3377117" lon="3.1995317"><ele>14.5</ele><time>2026-04-04T15:38:50.442Z</time></trkpt><trkpt lat="43.3377133" lon="3.1996883"><ele>14.75</ele><time>2026-04-04T15:38:51.443Z</time></trkpt><trkpt lat="43.3377167" lon="3.1998467"><ele>15.0</ele><time>2026-04-04T15:38:52.443Z</time></trkpt><trkpt lat="43.33772" lon="3.2000033"><ele>15.0</ele><time>2026-04-04T15:38:53.445Z</time></trkpt><trkpt lat="43.3377217" lon="3.2001617"><ele>15.0</ele><time>2026-04-04T15:38:54.443Z</time></trkpt><trkpt lat="43.3377217" lon="3.2003217"><ele>15.0</ele><time>2026-04-04T15:38:55.443Z</time></trkpt><trkpt lat="43.3377233" lon="3.2004817"><ele>15.0</ele><time>2026-04-04T15:38:56.442Z</time></trkpt><trkpt lat="43.3377283" lon="3.2006417"><ele>15.2</ele><time>2026-04-04T15:38:57.443Z</time></trkpt><trkpt lat="43.33773" lon="3.2008017"><ele>15.4</ele><time>2026-04-04T15:38:58.443Z</time></trkpt><trkpt lat="43.3377317" lon="3.2009567"><ele>15.600000000000001</ele><time>2026-04-04T15:38:59.442Z</time></trkpt><trkpt lat="43.337735" lon="3.2011067"><ele>15.8</ele><time>2026-04-04T15:39:00.443Z</time></trkpt><trkpt lat="43.3377367" lon="3.201245"><ele>16.0</ele><time>2026-04-04T15:39:01.445Z</time></trkpt><trkpt lat="43.33774" lon="3.20137"><ele>15.999999999999998</ele><time>2026-04-04T15:39:02.442Z</time></trkpt><trkpt lat="43.3377483" lon="3.201485"><ele>16.0</ele><time>2026-04-04T15:39:03.444Z</time></trkpt><trkpt lat="43.3377483" lon="3.2016"><ele>16.0</ele><time>2026-04-04T15:39:04.444Z</time></trkpt><trkpt lat="43.3377383" lon="3.2017167"><ele>16.0</ele><time>2026-04-04T15:39:05.444Z</time></trkpt><trkpt lat="43.3377083" lon="3.2018183"><ele>15.999999999999998</ele><time>2026-04-04T15:39:06.445Z</time></trkpt><trkpt lat="43.33764" lon="3.2018967"><ele>16.0</ele><time>2026-04-04T15:39:07.443Z</time></trkpt><trkpt lat="43.3375417" lon="3.20196"><ele>15.8</ele><time>2026-04-04T15:39:08.445Z</time></trkpt><trkpt lat="43.337445" lon="3.20204"><ele>15.600000000000001</ele><time>2026-04-04T15:39:09.443Z</time></trkpt><trkpt lat="43.33735" lon="3.20212"><ele>15.4</ele><time>2026-04-04T15:39:10.446Z</time></trkpt><trkpt lat="43.3372633" lon="3.2021917"><ele>15.2</ele><time>2026-04-04T15:39:11.447Z</time></trkpt><trkpt lat="43.33718" lon="3.2022617"><ele>15.0</ele><time>2026-04-04T15:39:12.445Z</time></trkpt><trkpt lat="43.3371" lon="3.20233"><ele>15.0</ele><time>2026-04-04T15:39:13.445Z</time></trkpt><trkpt lat="43.3370267" lon="3.2023967"><ele>15.0</ele><time>2026-04-04T15:39:14.445Z</time></trkpt><trkpt lat="43.336965" lon="3.2024717"><ele>15.0</ele><time>2026-04-04T15:39:15.445Z</time></trkpt><trkpt lat="43.3369217" lon="3.20256"><ele>15.0</ele><time>2026-04-04T15:39:16.445Z</time></trkpt><trkpt lat="43.33691" lon="3.2026733"><ele>15.0</ele><time>2026-04-04T15:39:17.442Z</time></trkpt><trkpt lat="43.3369417" lon="3.2027983"><ele>15.0</ele><time>2026-04-04T15:39:18.443Z</time></trkpt><trkpt lat="43.336995" lon="3.2029217"><ele>15.0</ele><time>2026-04-04T15:39:19.445Z</time></trkpt><trkpt lat="43.3370717" lon="3.2030517"><ele>15.0</ele><time>2026-04-04T15:39:20.442Z</time></trkpt><trkpt lat="43.3371417" lon="3.2031883"><ele>15.0</ele><time>2026-04-04T15:39:21.442Z</time></trkpt><trkpt lat="43.3372083" lon="3.2033283"><ele>15.0</ele><time>2026-04-04T15:39:22.444Z</time></trkpt><trkpt lat="43.3372767" lon="3.20347"><ele>15.0</ele><time>2026-04-04T15:39:23.442Z</time></trkpt><trkpt lat="43.337345" lon="3.2036133"><ele>15.0</ele><time>2026-04-04T15:39:24.444Z</time></trkpt><trkpt lat="43.3374167" lon="3.2037517"><ele>15.0</ele><time>2026-04-04T15:39:25.442Z</time></trkpt><trkpt lat="43.3374867" lon="3.2038883"><ele>15.0</ele><time>2026-04-04T15:39:26.442Z</time></trkpt><trkpt lat="43.3375567" lon="3.2040167"><ele>15.0</ele><time>2026-04-04T15:39:27.442Z</time></trkpt><trkpt lat="43.3376317" lon="3.2041317"><ele>15.0</ele><time>2026-04-04T15:39:28.443Z</time></trkpt><trkpt lat="43.3377067" lon="3.20424"><ele>15.0</ele><time>2026-04-04T15:39:29.443Z</time></trkpt><trkpt lat="43.3377833" lon="3.2043433"><ele>15.0</ele><time>2026-04-04T15:39:30.443Z</time></trkpt><trkpt lat="43.3378633" lon="3.2044417"><ele>15.0</ele><time>2026-04-04T15:39:31.443Z</time></trkpt><trkpt lat="43.3379433" lon="3.20454"><ele>15.0</ele><time>2026-04-04T15:39:32.442Z</time></trkpt><trkpt lat="43.338025" lon="3.20464"><ele>15.0</ele><time>2026-04-04T15:39:33.442Z</time></trkpt><trkpt lat="43.338105" lon="3.2047467"><ele>15.0</ele><time>2026-04-04T15:39:34.443Z</time></trkpt><trkpt lat="43.33818" lon="3.2048533"><ele>15.0</ele><time>2026-04-04T15:39:35.442Z</time></trkpt><trkpt lat="43.33825" lon="3.2049667"><ele>15.0</ele><time>2026-04-04T15:39:36.442Z</time></trkpt><trkpt lat="43.3383083" lon="3.2050917"><ele>15.2</ele><time>2026-04-04T15:39:37.443Z</time></trkpt><trkpt lat="43.3383517" lon="3.20523"><ele>15.4</ele><time>2026-04-04T15:39:38.442Z</time></trkpt><trkpt lat="43.3383833" lon="3.2053633"><ele>15.600000000000001</ele><time>2026-04-04T15:39:39.443Z</time></trkpt><trkpt lat="43.3383617" lon="3.20552"><ele>15.8</ele><time>2026-04-04T15:39:40.443Z</time></trkpt><trkpt lat="43.3383267" lon="3.2056617"><ele>16.0</ele><time>2026-04-04T15:39:41.442Z</time></trkpt><trkpt lat="43.3382867" lon="3.2058"><ele>15.999999999999998</ele><time>2026-04-04T15:39:42.443Z</time></trkpt><trkpt lat="43.3382483" lon="3.2059217"><ele>16.0</ele><time>2026-04-04T15:39:43.444Z</time></trkpt><trkpt lat="43.3382133" lon="3.2060367"><ele>16.0</ele><time>2026-04-04T15:39:44.442Z</time></trkpt><trkpt lat="43.3381833" lon="3.2061467"><ele>16.0</ele><time>2026-04-04T15:39:45.442Z</time></trkpt><trkpt lat="43.3381533" lon="3.206245"><ele>15.999999999999998</ele><time>2026-04-04T15:39:46.443Z</time></trkpt><trkpt lat="43.338115" lon="3.2063283"><ele>16.0</ele><time>2026-04-04T15:39:47.442Z</time></trkpt><trkpt lat="43.33806" lon="3.2063933"><ele>15.999999999999998</ele><time>2026-04-04T15:39:48.444Z</time></trkpt><trkpt lat="43.3379883" lon="3.2064267"><ele>16.0</ele><time>2026-04-04T15:39:49.444Z</time></trkpt><trkpt lat="43.337905" lon="3.2064417"><ele>16.0</ele><time>2026-04-04T15:39:50.442Z</time></trkpt><trkpt lat="43.3378233" lon="3.2064567"><ele>16.0</ele><time>2026-04-04T15:39:51.443Z</time></trkpt><trkpt lat="43.337755" lon="3.2064683"><ele>15.999999999999998</ele><time>2026-04-04T15:39:52.443Z</time></trkpt><trkpt lat="43.3376483" lon="3.206505"><ele>16.0</ele><time>2026-04-04T15:39:54.444Z</time></trkpt><trkpt lat="43.3375217" lon="3.2065283"><ele>15.999999999999998</ele><time>2026-04-04T15:39:56.444Z</time></trkpt><trkpt lat="43.3374467" lon="3.2065417"><ele>16.0</ele><time>2026-04-04T15:39:57.443Z</time></trkpt><trkpt lat="43.3373583" lon="3.2065517"><ele>16.0</ele><time>2026-04-04T15:39:58.443Z</time></trkpt><trkpt lat="43.3372683" lon="3.2065633"><ele>16.0</ele><time>2026-04-04T15:39:59.443Z</time></trkpt><trkpt lat="43.33719" lon="3.2065783"><ele>15.999999999999998</ele><time>2026-04-04T15:40:00.444Z</time></trkpt><trkpt lat="43.3371267" lon="3.2065917"><ele>16.0</ele><time>2026-04-04T15:40:01.444Z</time></trkpt><trkpt lat="43.33703" lon="3.20661"><ele>15.600000000000001</ele><time>2026-04-04T15:40:03.443Z</time></trkpt><trkpt lat="43.336945" lon="3.2066233"><ele>15.200000000000001</ele><time>2026-04-04T15:40:05.443Z</time></trkpt><trkpt lat="43.33687" lon="3.2066467"><ele>14.799999999999999</ele><time>2026-04-04T15:40:09.444Z</time></trkpt><trkpt lat="43.33679" lon="3.20667"><ele>14.399999999999999</ele><time>2026-04-04T15:40:11.444Z</time></trkpt><trkpt lat="43.336655" lon="3.2067017"><ele>14.0</ele><time>2026-04-04T15:40:13.443Z</time></trkpt><trkpt lat="43.3365717" lon="3.2067167"><ele>14.000000000000002</ele><time>2026-04-04T15:40:14.447Z</time></trkpt><trkpt lat="43.33649" lon="3.2067417"><ele>14.0</ele><time>2026-04-04T15:40:15.444Z</time></trkpt><trkpt lat="43.3364083" lon="3.2067733"><ele>14.0</ele><time>2026-04-04T15:40:16.446Z</time></trkpt><trkpt lat="43.33634" lon="3.2068217"><ele>14.0</ele><time>2026-04-04T15:40:17.442Z</time></trkpt><trkpt lat="43.3362783" lon="3.2068833"><ele>14.000000000000002</ele><time>2026-04-04T15:40:18.444Z</time></trkpt><trkpt lat="43.3362383" lon="3.20698"><ele>14.0</ele><time>2026-04-04T15:40:19.443Z</time></trkpt><trkpt lat="43.3362317" lon="3.2071183"><ele>14.0</ele><time>2026-04-04T15:40:20.442Z</time></trkpt><trkpt lat="43.3362567" lon="3.207275"><ele>13.999999999999998</ele><time>2026-04-04T15:40:21.443Z</time></trkpt><trkpt lat="43.3362867" lon="3.2074183"><ele>13.999999999999998</ele><time>2026-04-04T15:40:22.443Z</time></trkpt><trkpt lat="43.3363217" lon="3.2075483"><ele>14.0</ele><time>2026-04-04T15:40:23.442Z</time></trkpt><trkpt lat="43.3363517" lon="3.2076633"><ele>14.0</ele><time>2026-04-04T15:40:24.444Z</time></trkpt><trkpt lat="43.3363833" lon="3.2077583"><ele>14.500000000000002</ele><time>2026-04-04T15:40:25.443Z</time></trkpt><trkpt lat="43.33643" lon="3.2078317"><ele>15.0</ele><time>2026-04-04T15:40:26.447Z</time></trkpt><trkpt lat="43.3364883" lon="3.2078717"><ele>15.5</ele><time>2026-04-04T15:40:27.444Z</time></trkpt><trkpt lat="43.3365583" lon="3.2078933"><ele>16.0</ele><time>2026-04-04T15:40:28.447Z</time></trkpt><trkpt lat="43.336625" lon="3.20791"><ele>16.5</ele><time>2026-04-04T15:40:29.442Z</time></trkpt><trkpt lat="43.3367283" lon="3.20783"><ele>17.0</ele><time>2026-04-04T15:40:30.443Z</time></trkpt><trkpt lat="43.336825" lon="3.2077517"><ele>17.0</ele><time>2026-04-04T15:40:31.444Z</time></trkpt><trkpt lat="43.3369283" lon="3.2076483"><ele>17.0</ele><time>2026-04-04T15:40:32.444Z</time></trkpt><trkpt lat="43.3370183" lon="3.207555"><ele>17.0</ele><time>2026-04-04T15:40:33.446Z</time></trkpt><trkpt lat="43.3370983" lon="3.207425"><ele>17.0</ele><time>2026-04-04T15:40:34.446Z</time></trkpt><trkpt lat="43.3371667" lon="3.2073033"><ele>16.833333333333336</ele><time>2026-04-04T15:40:35.446Z</time></trkpt><trkpt lat="43.3372333" lon="3.2072017"><ele>16.666666666666668</ele><time>2026-04-04T15:40:36.443Z</time></trkpt><trkpt lat="43.3373117" lon="3.20713"><ele>16.5</ele><time>2026-04-04T15:40:37.446Z</time></trkpt><trkpt lat="43.3373983" lon="3.2071017"><ele>16.333333333333332</ele><time>2026-04-04T15:40:38.446Z</time></trkpt><trkpt lat="43.33748" lon="3.2071033"><ele>16.166666666666664</ele><time>2026-04-04T15:40:39.443Z</time></trkpt><trkpt lat="43.3375617" lon="3.20712"><ele>16.0</ele><time>2026-04-04T15:40:40.443Z</time></trkpt><trkpt lat="43.3376433" lon="3.2071483"><ele>15.999999999999998</ele><time>2026-04-04T15:40:41.445Z</time></trkpt><trkpt lat="43.3377217" lon="3.207185"><ele>16.0</ele><time>2026-04-04T15:40:42.443Z</time></trkpt><trkpt lat="43.3377967" lon="3.2072483"><ele>16.0</ele><time>2026-04-04T15:40:43.446Z</time></trkpt><trkpt lat="43.337865" lon="3.2073267"><ele>16.0</ele><time>2026-04-04T15:40:44.444Z</time></trkpt><trkpt lat="43.3379383" lon="3.2074067"><ele>15.999999999999998</ele><time>2026-04-04T15:40:45.447Z</time></trkpt><trkpt lat="43.3379933" lon="3.2075017"><ele>16.0</ele><time>2026-04-04T15:40:46.443Z</time></trkpt><trkpt lat="43.3380383" lon="3.207605"><ele>16.333333333333332</ele><time>2026-04-04T15:40:47.444Z</time></trkpt><trkpt lat="43.33808" lon="3.207705"><ele>16.666666666666664</ele><time>2026-04-04T15:40:48.444Z</time></trkpt><trkpt lat="43.338115" lon="3.2078133"><ele>17.0</ele><time>2026-04-04T15:40:49.443Z</time></trkpt><trkpt lat="43.338155" lon="3.2079233"><ele>17.333333333333332</ele><time>2026-04-04T15:40:50.444Z</time></trkpt><trkpt lat="43.3382" lon="3.2080333"><ele>17.666666666666668</ele><time>2026-04-04T15:40:51.444Z</time></trkpt><trkpt lat="43.3382433" lon="3.2081533"><ele>18.0</ele><time>2026-04-04T15:40:52.443Z</time></trkpt><trkpt lat="43.3382867" lon="3.20828"><ele>16.8</ele><time>2026-04-04T15:40:53.445Z</time></trkpt><trkpt lat="43.338325" lon="3.208405"><ele>15.600000000000001</ele><time>2026-04-04T15:40:54.444Z</time></trkpt><trkpt lat="43.33836" lon="3.20852"><ele>14.399999999999999</ele><time>2026-04-04T15:40:55.444Z</time></trkpt><trkpt lat="43.3383967" lon="3.2086333"><ele>13.2</ele><time>2026-04-04T15:40:56.444Z</time></trkpt><trkpt lat="43.33843" lon="3.208745"><ele>12.0</ele><time>2026-04-04T15:40:57.444Z</time></trkpt><trkpt lat="43.3384633" lon="3.2088517"><ele>12.0</ele><time>2026-04-04T15:40:58.446Z</time></trkpt><trkpt lat="43.3385" lon="3.20896"><ele>12.0</ele><time>2026-04-04T15:40:59.443Z</time></trkpt><trkpt lat="43.3385367" lon="3.2090717"><ele>12.0</ele><time>2026-04-04T15:41:00.443Z</time></trkpt><trkpt lat="43.338575" lon="3.2091817"><ele>12.0</ele><time>2026-04-04T15:41:01.446Z</time></trkpt><trkpt lat="43.338615" lon="3.209295"><ele>12.0</ele><time>2026-04-04T15:41:02.447Z</time></trkpt><trkpt lat="43.3386583" lon="3.2094067"><ele>12.0</ele><time>2026-04-04T15:41:03.442Z</time></trkpt><trkpt lat="43.3386983" lon="3.2095167"><ele>12.166666666666666</ele><time>2026-04-04T15:41:04.443Z</time></trkpt><trkpt lat="43.3387383" lon="3.2096283"><ele>12.333333333333332</ele><time>2026-04-04T15:41:05.442Z</time></trkpt><trkpt lat="43.3387767" lon="3.2097367"><ele>12.5</ele><time>2026-04-04T15:41:06.444Z</time></trkpt><trkpt lat="43.3388167" lon="3.2098517"><ele>12.666666666666666</ele><time>2026-04-04T15:41:07.445Z</time></trkpt><trkpt lat="43.3388533" lon="3.2099633"><ele>12.833333333333332</ele><time>2026-04-04T15:41:08.442Z</time></trkpt><trkpt lat="43.3388917" lon="3.21007"><ele>13.0</ele><time>2026-04-04T15:41:09.446Z</time></trkpt><trkpt lat="43.3389283" lon="3.210175"><ele>13.999999999999998</ele><time>2026-04-04T15:41:10.445Z</time></trkpt><trkpt lat="43.3389633" lon="3.2102733"><ele>15.0</ele><time>2026-04-04T15:41:11.445Z</time></trkpt><trkpt lat="43.33901" lon="3.21037"><ele>16.0</ele><time>2026-04-04T15:41:12.443Z</time></trkpt><trkpt lat="43.3390417" lon="3.2104733"><ele>17.0</ele><time>2026-04-04T15:41:13.447Z</time></trkpt><trkpt lat="43.3390683" lon="3.2105683"><ele>18.0</ele><time>2026-04-04T15:41:14.446Z</time></trkpt><trkpt lat="43.33911" lon="3.2107033"><ele>19.0</ele><time>2026-04-04T15:41:16.446Z</time></trkpt><trkpt lat="43.339175" lon="3.210785"><ele>19.833333333333332</ele><time>2026-04-04T15:41:18.444Z</time></trkpt><trkpt lat="43.3392733" lon="3.2107883"><ele>20.666666666666664</ele><time>2026-04-04T15:41:20.442Z</time></trkpt><trkpt lat="43.33939" lon="3.2108333"><ele>21.5</ele><time>2026-04-04T15:41:22.443Z</time></trkpt><trkpt lat="43.339455" lon="3.2108667"><ele>22.333333333333332</ele><time>2026-04-04T15:41:23.443Z</time></trkpt><trkpt lat="43.3395183" lon="3.210905"><ele>23.166666666666668</ele><time>2026-04-04T15:41:24.443Z</time></trkpt><trkpt lat="43.3395783" lon="3.2109433"><ele>24.0</ele><time>2026-04-04T15:41:25.444Z</time></trkpt><trkpt lat="43.3396867" lon="3.2110033"><ele>25.0</ele><time>2026-04-04T15:41:27.444Z</time></trkpt><trkpt lat="43.339755" lon="3.21102"><ele>26.0</ele><time>2026-04-04T15:41:29.447Z</time></trkpt><trkpt lat="43.3398183" lon="3.21098"><ele>27.0</ele><time>2026-04-04T15:41:32.444Z</time></trkpt><trkpt lat="43.3398833" lon="3.2109517"><ele>28.0</ele><time>2026-04-04T15:41:52.445Z</time></trkpt><trkpt lat="43.3399417" lon="3.2109167"><ele>29.000000000000004</ele><time>2026-04-04T15:41:53.444Z</time></trkpt><trkpt lat="43.3400067" lon="3.2108667"><ele>30.0</ele><time>2026-04-04T15:41:54.443Z</time></trkpt><trkpt lat="43.3400767" lon="3.2107917"><ele>31.0</ele><time>2026-04-04T15:41:55.444Z</time></trkpt><trkpt lat="43.3401517" lon="3.2106917"><ele>29.25</ele><time>2026-04-04T15:41:56.443Z</time></trkpt><trkpt lat="43.3402233" lon="3.21055"><ele>27.5</ele><time>2026-04-04T15:41:57.444Z</time></trkpt><trkpt lat="43.340295" lon="3.2104217"><ele>25.75</ele><time>2026-04-04T15:41:58.443Z</time></trkpt><trkpt lat="43.34036" lon="3.2102767"><ele>24.0</ele><time>2026-04-04T15:41:59.444Z</time></trkpt><trkpt lat="43.3404217" lon="3.21011"><ele>24.0</ele><time>2026-04-04T15:42:00.443Z</time></trkpt><trkpt lat="43.34048" lon="3.20993"><ele>24.0</ele><time>2026-04-04T15:42:01.444Z</time></trkpt><trkpt lat="43.3405417" lon="3.2097417"><ele>24.0</ele><time>2026-04-04T15:42:02.444Z</time></trkpt><trkpt lat="43.34061" lon="3.2095517"><ele>24.0</ele><time>2026-04-04T15:42:03.444Z</time></trkpt><trkpt lat="43.3406817" lon="3.2093767"><ele>22.75</ele><time>2026-04-04T15:42:04.446Z</time></trkpt><trkpt lat="43.3407583" lon="3.2092083"><ele>21.5</ele><time>2026-04-04T15:42:05.443Z</time></trkpt><trkpt lat="43.3408517" lon="3.2090583"><ele>20.25</ele><time>2026-04-04T15:42:06.446Z</time></trkpt><trkpt lat="43.3409683" lon="3.20895"><ele>19.0</ele><time>2026-04-04T15:42:07.446Z</time></trkpt><trkpt lat="43.3411067" lon="3.2088867"><ele>19.0</ele><time>2026-04-04T15:42:08.443Z</time></trkpt><trkpt lat="43.3412517" lon="3.2088467"><ele>19.0</ele><time>2026-04-04T15:42:09.444Z</time></trkpt><trkpt lat="43.3414067" lon="3.2088367"><ele>19.0</ele><time>2026-04-04T15:42:10.446Z</time></trkpt><trkpt lat="43.3415683" lon="3.2088417"><ele>20.0</ele><time>2026-04-04T15:42:11.443Z</time></trkpt><trkpt lat="43.341725" lon="3.2088433"><ele>21.0</ele><time>2026-04-04T15:42:12.444Z</time></trkpt><trkpt lat="43.3418717" lon="3.2088533"><ele>22.0</ele><time>2026-04-04T15:42:13.445Z</time></trkpt><trkpt lat="43.3420083" lon="3.20888"><ele>23.0</ele><time>2026-04-04T15:42:14.444Z</time></trkpt><trkpt lat="43.3421283" lon="3.2088983"><ele>23.599999999999998</ele><time>2026-04-04T15:42:15.444Z</time></trkpt><trkpt lat="43.34222" lon="3.208915"><ele>24.2</ele><time>2026-04-04T15:42:16.444Z</time></trkpt><trkpt lat="43.34229" lon="3.2089383"><ele>24.8</ele><time>2026-04-04T15:42:17.444Z</time></trkpt><trkpt lat="43.3423683" lon="3.2089633"><ele>25.4</ele><time>2026-04-04T15:42:19.445Z</time></trkpt><trkpt lat="43.3424533" lon="3.2089933"><ele>26.0</ele><time>2026-04-04T15:42:21.444Z</time></trkpt><trkpt lat="43.3425817" lon="3.209035"><ele>31.8</ele><time>2026-04-04T15:42:23.444Z</time></trkpt><trkpt lat="43.3426683" lon="3.209065"><ele>37.6</ele><time>2026-04-04T15:42:24.445Z</time></trkpt><trkpt lat="43.3427667" lon="3.2090983"><ele>43.4</ele><time>2026-04-04T15:42:25.445Z</time></trkpt><trkpt lat="43.3428633" lon="3.2091267"><ele>49.2</ele><time>2026-04-04T15:42:26.446Z</time></trkpt><trkpt lat="43.3429567" lon="3.2091517"><ele>55.0</ele><time>2026-04-04T15:42:27.444Z</time></trkpt><trkpt lat="43.343055" lon="3.209175"><ele>55.0</ele><time>2026-04-04T15:42:28.444Z</time></trkpt><trkpt lat="43.3431567" lon="3.2092033"><ele>55.0</ele><time>2026-04-04T15:42:29.444Z</time></trkpt><trkpt lat="43.3432667" lon="3.20923"><ele>55.0</ele><time>2026-04-04T15:42:30.444Z</time></trkpt><trkpt lat="43.343375" lon="3.2092567"><ele>55.0</ele><time>2026-04-04T15:42:31.444Z</time></trkpt><trkpt lat="43.3434817" lon="3.2092733"><ele>55.0</ele><time>2026-04-04T15:42:32.447Z</time></trkpt><trkpt lat="43.3435783" lon="3.209275"><ele>55.0</ele><time>2026-04-04T15:42:33.444Z</time></trkpt><trkpt lat="43.3436733" lon="3.2092633"><ele>55.0</ele><time>2026-04-04T15:42:34.446Z</time></trkpt><trkpt lat="43.343765" lon="3.2092517"><ele>55.0</ele><time>2026-04-04T15:42:35.447Z</time></trkpt><trkpt lat="43.34386" lon="3.20924"><ele>55.0</ele><time>2026-04-04T15:42:36.448Z</time></trkpt><trkpt lat="43.3439583" lon="3.2092317"><ele>55.0</ele><time>2026-04-04T15:42:37.446Z</time></trkpt><trkpt lat="43.344055" lon="3.20924"><ele>55.0</ele><time>2026-04-04T15:42:38.447Z</time></trkpt><trkpt lat="43.3441467" lon="3.2092567"><ele>55.0</ele><time>2026-04-04T15:42:39.444Z</time></trkpt><trkpt lat="43.3442367" lon="3.2092883"><ele>55.0</ele><time>2026-04-04T15:42:40.445Z</time></trkpt><trkpt lat="43.3443333" lon="3.2093417"><ele>55.0</ele><time>2026-04-04T15:42:41.442Z</time></trkpt><trkpt lat="43.3444317" lon="3.2093983"><ele>55.0</ele><time>2026-04-04T15:42:42.442Z</time></trkpt><trkpt lat="43.3445233" lon="3.2094567"><ele>55.0</ele><time>2026-04-04T15:42:43.446Z</time></trkpt><trkpt lat="43.344605" lon="3.2095"><ele>55.0</ele><time>2026-04-04T15:42:44.443Z</time></trkpt><trkpt lat="43.3446733" lon="3.2095417"><ele>55.0</ele><time>2026-04-04T15:42:45.442Z</time></trkpt><trkpt lat="43.3447683" lon="3.2096317"><ele>55.0</ele><time>2026-04-04T15:42:47.443Z</time></trkpt><trkpt lat="43.3448483" lon="3.2097733"><ele>55.0</ele><time>2026-04-04T15:42:49.445Z</time></trkpt><trkpt lat="43.34489" lon="3.2098667"><ele>55.2</ele><time>2026-04-04T15:42:50.444Z</time></trkpt><trkpt lat="43.3449433" lon="3.2099867"><ele>55.4</ele><time>2026-04-04T15:42:51.444Z</time></trkpt><trkpt lat="43.345005" lon="3.210115"><ele>55.599999999999994</ele><time>2026-04-04T15:42:52.443Z</time></trkpt><trkpt lat="43.34507" lon="3.2102233"><ele>55.8</ele><time>2026-04-04T15:42:53.443Z</time></trkpt><trkpt lat="43.3451233" lon="3.2103267"><ele>56.0</ele><time>2026-04-04T15:42:54.446Z</time></trkpt><trkpt lat="43.34516" lon="3.2104283"><ele>56.00000000000001</ele><time>2026-04-04T15:42:55.443Z</time></trkpt><trkpt lat="43.34518" lon="3.2105317"><ele>56.0</ele><time>2026-04-04T15:42:56.446Z</time></trkpt><trkpt lat="43.3452" lon="3.2106167"><ele>56.0</ele><time>2026-04-04T15:42:57.442Z</time></trkpt><trkpt lat="43.3452917" lon="3.210715"><ele>56.0</ele><time>2026-04-04T15:42:59.443Z</time></trkpt><trkpt lat="43.3453617" lon="3.210725"><ele>56.00000000000001</ele><time>2026-04-04T15:43:00.443Z</time></trkpt><trkpt lat="43.3454483" lon="3.2107417"><ele>56.0</ele><time>2026-04-04T15:43:01.446Z</time></trkpt><trkpt lat="43.3455383" lon="3.2107717"><ele>55.75</ele><time>2026-04-04T15:43:02.444Z</time></trkpt><trkpt lat="43.3456317" lon="3.2108167"><ele>55.5</ele><time>2026-04-04T15:43:03.443Z</time></trkpt><trkpt lat="43.345735" lon="3.2108617"><ele>55.25</ele><time>2026-04-04T15:43:04.443Z</time></trkpt><trkpt lat="43.34585" lon="3.210925"><ele>55.0</ele><time>2026-04-04T15:43:05.444Z</time></trkpt><trkpt lat="43.3459683" lon="3.211005"><ele>55.0</ele><time>2026-04-04T15:43:06.443Z</time></trkpt><trkpt lat="43.3460817" lon="3.2110917"><ele>55.0</ele><time>2026-04-04T15:43:07.445Z</time></trkpt><trkpt lat="43.3461967" lon="3.211195"><ele>55.0</ele><time>2026-04-04T15:43:08.443Z</time></trkpt><trkpt lat="43.3463167" lon="3.211295"><ele>55.0</ele><time>2026-04-04T15:43:09.444Z</time></trkpt><trkpt lat="43.3464433" lon="3.2114033"><ele>57.5</ele><time>2026-04-04T15:43:10.444Z</time></trkpt><trkpt lat="43.3465717" lon="3.2115083"><ele>60.0</ele><time>2026-04-04T15:43:11.446Z</time></trkpt><trkpt lat="43.3466917" lon="3.21161"><ele>62.5</ele><time>2026-04-04T15:43:12.444Z</time></trkpt><trkpt lat="43.3468" lon="3.2117083"><ele>65.0</ele><time>2026-04-04T15:43:13.444Z</time></trkpt><trkpt lat="43.34689" lon="3.2118267"><ele>65.0</ele><time>2026-04-04T15:43:14.444Z</time></trkpt><trkpt lat="43.3469683" lon="3.2119617"><ele>65.0</ele><time>2026-04-04T15:43:15.444Z</time></trkpt><trkpt lat="43.3470333" lon="3.212095"><ele>65.0</ele><time>2026-04-04T15:43:16.443Z</time></trkpt><trkpt lat="43.34709" lon="3.2122367"><ele>65.0</ele><time>2026-04-04T15:43:17.442Z</time></trkpt><trkpt lat="43.3471417" lon="3.21238"><ele>66.0</ele><time>2026-04-04T15:43:18.443Z</time></trkpt><trkpt lat="43.347195" lon="3.2125267"><ele>67.0</ele><time>2026-04-04T15:43:19.444Z</time></trkpt><trkpt lat="43.3472433" lon="3.2126683"><ele>68.0</ele><time>2026-04-04T15:43:20.444Z</time></trkpt><trkpt lat="43.3472983" lon="3.2128167"><ele>69.0</ele><time>2026-04-04T15:43:21.443Z</time></trkpt><trkpt lat="43.3473717" lon="3.2129383"><ele>68.0</ele><time>2026-04-04T15:43:22.444Z</time></trkpt><trkpt lat="43.3474617" lon="3.2130433"><ele>67.0</ele><time>2026-04-04T15:43:23.442Z</time></trkpt><trkpt lat="43.3475683" lon="3.213125"><ele>66.0</ele><time>2026-04-04T15:43:24.442Z</time></trkpt><trkpt lat="43.3476783" lon="3.21319"><ele>65.0</ele><time>2026-04-04T15:43:25.444Z</time></trkpt><trkpt lat="43.3477967" lon="3.2132433"><ele>65.0</ele><time>2026-04-04T15:43:26.443Z</time></trkpt><trkpt lat="43.3479217" lon="3.2132883"><ele>65.0</ele><time>2026-04-04T15:43:27.442Z</time></trkpt><trkpt lat="43.34804" lon="3.21332"><ele>65.0</ele><time>2026-04-04T15:43:28.445Z</time></trkpt><trkpt lat="43.34816" lon="3.21333"><ele>65.0</ele><time>2026-04-04T15:43:29.443Z</time></trkpt><trkpt lat="43.3482667" lon="3.2133483"><ele>65.2</ele><time>2026-04-04T15:43:30.443Z</time></trkpt><trkpt lat="43.3483667" lon="3.2133767"><ele>65.4</ele><time>2026-04-04T15:43:31.443Z</time></trkpt><trkpt lat="43.34845" lon="3.2134317"><ele>65.6</ele><time>2026-04-04T15:43:32.442Z</time></trkpt><trkpt lat="43.34852" lon="3.2135133"><ele>65.8</ele><time>2026-04-04T15:43:33.442Z</time></trkpt><trkpt lat="43.3485517" lon="3.213635"><ele>66.0</ele><time>2026-04-04T15:43:34.442Z</time></trkpt><trkpt lat="43.34855" lon="3.2137583"><ele>66.0</ele><time>2026-04-04T15:43:35.445Z</time></trkpt><trkpt lat="43.3485367" lon="3.2138933"><ele>66.0</ele><time>2026-04-04T15:43:36.443Z</time></trkpt><trkpt lat="43.3485167" lon="3.214035"><ele>66.0</ele><time>2026-04-04T15:43:37.443Z</time></trkpt><trkpt lat="43.3484917" lon="3.2141733"><ele>66.0</ele><time>2026-04-04T15:43:38.443Z</time></trkpt><trkpt lat="43.3484817" lon="3.214305"><ele>66.0</ele><time>2026-04-04T15:43:39.443Z</time></trkpt><trkpt lat="43.348465" lon="3.2144383"><ele>67.0</ele><time>2026-04-04T15:43:40.447Z</time></trkpt><trkpt lat="43.3484533" lon="3.2145667"><ele>68.0</ele><time>2026-04-04T15:43:41.443Z</time></trkpt><trkpt lat="43.3484417" lon="3.2146967"><ele>69.0</ele><time>2026-04-04T15:43:42.444Z</time></trkpt><trkpt lat="43.3484317" lon="3.2148233"><ele>70.0</ele><time>2026-04-04T15:43:43.444Z</time></trkpt><trkpt lat="43.3484167" lon="3.2149533"><ele>71.0</ele><time>2026-04-04T15:43:44.442Z</time></trkpt><trkpt lat="43.3484017" lon="3.2150733"><ele>71.0</ele><time>2026-04-04T15:43:45.443Z</time></trkpt><trkpt lat="43.348375" lon="3.2151933"><ele>71.0</ele><time>2026-04-04T15:43:46.443Z</time></trkpt><trkpt lat="43.348335" lon="3.2153067"><ele>71.0</ele><time>2026-04-04T15:43:47.446Z</time></trkpt><trkpt lat="43.34829" lon="3.2154017"><ele>71.0</ele><time>2026-04-04T15:43:48.447Z</time></trkpt><trkpt lat="43.3482517" lon="3.2154933"><ele>71.0</ele><time>2026-04-04T15:43:49.446Z</time></trkpt><trkpt lat="43.3482217" lon="3.2155767"><ele>71.0</ele><time>2026-04-04T15:43:50.442Z</time></trkpt><trkpt lat="43.348185" lon="3.2156933"><ele>70.8</ele><time>2026-04-04T15:43:52.443Z</time></trkpt><trkpt lat="43.3481483" lon="3.2158233"><ele>70.6</ele><time>2026-04-04T15:43:55.444Z</time></trkpt><trkpt lat="43.3481167" lon="3.21595"><ele>70.4</ele><time>2026-04-04T15:43:57.444Z</time></trkpt><trkpt lat="43.34807" lon="3.2160967"><ele>70.2</ele><time>2026-04-04T15:43:59.444Z</time></trkpt><trkpt lat="43.3480433" lon="3.21618"><ele>70.0</ele><time>2026-04-04T15:44:00.445Z</time></trkpt><trkpt lat="43.3480133" lon="3.216265"><ele>70.0</ele><time>2026-04-04T15:44:01.444Z</time></trkpt><trkpt lat="43.3479817" lon="3.2163583"><ele>70.0</ele><time>2026-04-04T15:44:02.443Z</time></trkpt><trkpt lat="43.3479483" lon="3.2164617"><ele>70.0</ele><time>2026-04-04T15:44:03.446Z</time></trkpt><trkpt lat="43.3479133" lon="3.2165717"><ele>70.0</ele><time>2026-04-04T15:44:04.444Z</time></trkpt><trkpt lat="43.34788" lon="3.2166833"><ele>70.0</ele><time>2026-04-04T15:44:05.443Z</time></trkpt><trkpt lat="43.3478483" lon="3.2168033"><ele>70.0</ele><time>2026-04-04T15:44:06.446Z</time></trkpt><trkpt lat="43.3478117" lon="3.2169217"><ele>70.0</ele><time>2026-04-04T15:44:07.444Z</time></trkpt><trkpt lat="43.3477733" lon="3.2170417"><ele>70.0</ele><time>2026-04-04T15:44:08.444Z</time></trkpt><trkpt lat="43.3477333" lon="3.21716"><ele>70.0</ele><time>2026-04-04T15:44:09.443Z</time></trkpt><trkpt lat="43.347695" lon="3.2172767"><ele>70.0</ele><time>2026-04-04T15:44:10.443Z</time></trkpt><trkpt lat="43.34766" lon="3.2173967"><ele>70.0</ele><time>2026-04-04T15:44:11.442Z</time></trkpt><trkpt lat="43.3476283" lon="3.21751"><ele>70.0</ele><time>2026-04-04T15:44:12.446Z</time></trkpt><trkpt lat="43.3475917" lon="3.2176233"><ele>70.0</ele><time>2026-04-04T15:44:13.444Z</time></trkpt><trkpt lat="43.3475517" lon="3.21772"><ele>70.0</ele><time>2026-04-04T15:44:14.443Z</time></trkpt><trkpt lat="43.3475117" lon="3.2178217"><ele>70.0</ele><time>2026-04-04T15:44:15.445Z</time></trkpt><trkpt lat="43.3474817" lon="3.2179267"><ele>70.0</ele><time>2026-04-04T15:44:16.443Z</time></trkpt><trkpt lat="43.3474517" lon="3.218015"><ele>70.0</ele><time>2026-04-04T15:44:17.443Z</time></trkpt><trkpt lat="43.3474083" lon="3.2181533"><ele>70.0</ele><time>2026-04-04T15:44:19.443Z</time></trkpt><trkpt lat="43.3473883" lon="3.21827"><ele>70.0</ele><time>2026-04-04T15:44:21.448Z</time></trkpt><trkpt lat="43.34736" lon="3.2183633"><ele>70.0</ele><time>2026-04-04T15:44:24.443Z</time></trkpt><trkpt lat="43.3473133" lon="3.218485"><ele>70.0</ele><time>2026-04-04T15:44:42.445Z</time></trkpt><trkpt lat="43.347325" lon="3.21863"><ele>70.0</ele><time>2026-04-04T15:44:44.443Z</time></trkpt><trkpt lat="43.3473933" lon="3.2187717"><ele>70.0</ele><time>2026-04-04T15:44:46.443Z</time></trkpt><trkpt lat="43.34746" lon="3.218865"><ele>70.0</ele><time>2026-04-04T15:44:47.443Z</time></trkpt><trkpt lat="43.3475383" lon="3.2189583"><ele>70.0</ele><time>2026-04-04T15:44:48.447Z</time></trkpt><trkpt lat="43.3476333" lon="3.2190667"><ele>70.0</ele><time>2026-04-04T15:44:49.446Z</time></trkpt><trkpt lat="43.347725" lon="3.21918"><ele>70.0</ele><time>2026-04-04T15:44:50.443Z</time></trkpt><trkpt lat="43.3478183" lon="3.219295"><ele>70.25</ele><time>2026-04-04T15:44:51.444Z</time></trkpt><trkpt lat="43.347915" lon="3.2194067"><ele>70.5</ele><time>2026-04-04T15:44:52.446Z</time></trkpt><trkpt lat="43.34801" lon="3.219525"><ele>70.75</ele><time>2026-04-04T15:44:53.442Z</time></trkpt><trkpt lat="43.3481067" lon="3.21965"><ele>71.0</ele><time>2026-04-04T15:44:54.446Z</time></trkpt><trkpt lat="43.3481983" lon="3.2197733"><ele>71.0</ele><time>2026-04-04T15:44:55.444Z</time></trkpt><trkpt lat="43.3482817" lon="3.219895"><ele>71.0</ele><time>2026-04-04T15:44:56.443Z</time></trkpt><trkpt lat="43.348365" lon="3.2200067"><ele>71.0</ele><time>2026-04-04T15:44:57.444Z</time></trkpt><trkpt lat="43.3484417" lon="3.2201083"><ele>71.0</ele><time>2026-04-04T15:44:58.444Z</time></trkpt><trkpt lat="43.3485117" lon="3.2202017"><ele>71.0</ele><time>2026-04-04T15:44:59.443Z</time></trkpt><trkpt lat="43.3485733" lon="3.2202817"><ele>71.0</ele><time>2026-04-04T15:45:00.446Z</time></trkpt><trkpt lat="43.348625" lon="3.2203483"><ele>71.0</ele><time>2026-04-04T15:45:01.447Z</time></trkpt><trkpt lat="43.3487033" lon="3.2204367"><ele>71.0</ele><time>2026-04-04T15:45:03.445Z</time></trkpt><trkpt lat="43.3487767" lon="3.2205383"><ele>71.0</ele><time>2026-04-04T15:45:06.443Z</time></trkpt><trkpt lat="43.3488233" lon="3.2206017"><ele>71.0</ele><time>2026-04-04T15:45:07.447Z</time></trkpt><trkpt lat="43.3488817" lon="3.2206817"><ele>71.0</ele><time>2026-04-04T15:45:08.446Z</time></trkpt><trkpt lat="43.3489533" lon="3.2207783"><ele>71.0</ele><time>2026-04-04T15:45:09.445Z</time></trkpt><trkpt lat="43.3490267" lon="3.2208883"><ele>71.0</ele><time>2026-04-04T15:45:10.446Z</time></trkpt><trkpt lat="43.3490967" lon="3.2209917"><ele>71.0</ele><time>2026-04-04T15:45:11.447Z</time></trkpt><trkpt lat="43.349165" lon="3.2210817"><ele>71.0</ele><time>2026-04-04T15:45:12.446Z</time></trkpt><trkpt lat="43.34923" lon="3.221165"><ele>71.0</ele><time>2026-04-04T15:45:13.446Z</time></trkpt><trkpt lat="43.349295" lon="3.22125"><ele>71.0</ele><time>2026-04-04T15:45:14.446Z</time></trkpt><trkpt lat="43.3493567" lon="3.22134"><ele>71.0</ele><time>2026-04-04T15:45:15.444Z</time></trkpt><trkpt lat="43.3494167" lon="3.2214267"><ele>71.0</ele><time>2026-04-04T15:45:16.444Z</time></trkpt><trkpt lat="43.349475" lon="3.221525"><ele>71.0</ele><time>2026-04-04T15:45:17.444Z</time></trkpt><trkpt lat="43.3495433" lon="3.22161"><ele>71.0</ele><time>2026-04-04T15:45:18.444Z</time></trkpt><trkpt lat="43.34962" lon="3.2217067"><ele>71.0</ele><time>2026-04-04T15:45:19.446Z</time></trkpt><trkpt lat="43.3496983" lon="3.2218183"><ele>71.0</ele><time>2026-04-04T15:45:20.444Z</time></trkpt><trkpt lat="43.34979" lon="3.2219383"><ele>71.0</ele><time>2026-04-04T15:45:21.443Z</time></trkpt><trkpt lat="43.3498883" lon="3.22206"><ele>71.0</ele><time>2026-04-04T15:45:22.447Z</time></trkpt><trkpt lat="43.3499883" lon="3.222185"><ele>72.5</ele><time>2026-04-04T15:45:23.444Z</time></trkpt><trkpt lat="43.3500917" lon="3.222315"><ele>74.0</ele><time>2026-04-04T15:45:24.444Z</time></trkpt><trkpt lat="43.3501983" lon="3.222445"><ele>75.5</ele><time>2026-04-04T15:45:25.444Z</time></trkpt><trkpt lat="43.3503083" lon="3.22257"><ele>77.0</ele><time>2026-04-04T15:45:26.443Z</time></trkpt><trkpt lat="43.35042" lon="3.2227017"><ele>77.0</ele><time>2026-04-04T15:45:27.443Z</time></trkpt><trkpt lat="43.35053" lon="3.2228383"><ele>77.0</ele><time>2026-04-04T15:45:28.443Z</time></trkpt><trkpt lat="43.3506417" lon="3.22298"><ele>77.0</ele><time>2026-04-04T15:45:29.443Z</time></trkpt><trkpt lat="43.3507567" lon="3.22312"><ele>76.66666666666667</ele><time>2026-04-04T15:45:30.443Z</time></trkpt><trkpt lat="43.3508783" lon="3.223255"><ele>76.33333333333333</ele><time>2026-04-04T15:45:31.447Z</time></trkpt><trkpt lat="43.3510083" lon="3.2233733"><ele>76.0</ele><time>2026-04-04T15:45:32.446Z</time></trkpt><trkpt lat="43.3511467" lon="3.22349"><ele>76.0</ele><time>2026-04-04T15:45:33.445Z</time></trkpt><trkpt lat="43.3512867" lon="3.2236017"><ele>76.0</ele><time>2026-04-04T15:45:34.446Z</time></trkpt><trkpt lat="43.351425" lon="3.2237133"><ele>76.0</ele><time>2026-04-04T15:45:35.445Z</time></trkpt><trkpt lat="43.3515683" lon="3.2238233"><ele>76.0</ele><time>2026-04-04T15:45:36.443Z</time></trkpt><trkpt lat="43.3517167" lon="3.2239267"><ele>76.0</ele><time>2026-04-04T15:45:37.444Z</time></trkpt><trkpt lat="43.3518583" lon="3.224015"><ele>76.0</ele><time>2026-04-04T15:45:38.446Z</time></trkpt><trkpt lat="43.3519867" lon="3.2241083"><ele>76.0</ele><time>2026-04-04T15:45:39.443Z</time></trkpt><trkpt lat="43.3521067" lon="3.2242067"><ele>76.0</ele><time>2026-04-04T15:45:40.444Z</time></trkpt><trkpt lat="43.3522067" lon="3.2243033"><ele>76.0</ele><time>2026-04-04T15:45:41.443Z</time></trkpt><trkpt lat="43.352285" lon="3.2243967"><ele>76.0</ele><time>2026-04-04T15:45:42.444Z</time></trkpt><trkpt lat="43.3523417" lon="3.2244833"><ele>76.0</ele><time>2026-04-04T15:45:43.444Z</time></trkpt><trkpt lat="43.3524067" lon="3.2245933"><ele>76.0</ele><time>2026-04-04T15:45:45.443Z</time></trkpt><trkpt lat="43.3524367" lon="3.2247317"><ele>76.0</ele><time>2026-04-04T15:45:47.442Z</time></trkpt><trkpt lat="43.3524567" lon="3.2248283"><ele>76.0</ele><time>2026-04-04T15:45:48.444Z</time></trkpt><trkpt lat="43.3524933" lon="3.22494"><ele>76.0</ele><time>2026-04-04T15:45:49.444Z</time></trkpt><trkpt lat="43.3525583" lon="3.2250433"><ele>76.0</ele><time>2026-04-04T15:45:50.442Z</time></trkpt><trkpt lat="43.3526383" lon="3.2251467"><ele>76.0</ele><time>2026-04-04T15:45:51.442Z</time></trkpt><trkpt lat="43.3527433" lon="3.2252267"><ele>76.0</ele><time>2026-04-04T15:45:52.446Z</time></trkpt><trkpt lat="43.3528633" lon="3.2253067"><ele>76.0</ele><time>2026-04-04T15:45:53.447Z</time></trkpt><trkpt lat="43.3529917" lon="3.2253833"><ele>76.75</ele><time>2026-04-04T15:45:54.444Z</time></trkpt><trkpt lat="43.3531233" lon="3.2254617"><ele>77.5</ele><time>2026-04-04T15:45:55.446Z</time></trkpt><trkpt lat="43.3532533" lon="3.2255533"><ele>78.25</ele><time>2026-04-04T15:45:56.443Z</time></trkpt><trkpt lat="43.3533817" lon="3.22566"><ele>79.0</ele><time>2026-04-04T15:45:57.444Z</time></trkpt><trkpt lat="43.3535" lon="3.225785"><ele>80.0</ele><time>2026-04-04T15:45:58.443Z</time></trkpt><trkpt lat="43.3536083" lon="3.22593"><ele>81.0</ele><time>2026-04-04T15:45:59.442Z</time></trkpt><trkpt lat="43.3536983" lon="3.22609"><ele>82.0</ele><time>2026-04-04T15:46:00.445Z</time></trkpt><trkpt lat="43.3537717" lon="3.2262633"><ele>83.0</ele><time>2026-04-04T15:46:01.444Z</time></trkpt><trkpt lat="43.3538367" lon="3.22645"><ele>82.5</ele><time>2026-04-04T15:46:02.446Z</time></trkpt><trkpt lat="43.3538883" lon="3.22664"><ele>82.0</ele><time>2026-04-04T15:46:03.447Z</time></trkpt><trkpt lat="43.35393" lon="3.22683"><ele>81.5</ele><time>2026-04-04T15:46:04.445Z</time></trkpt><trkpt lat="43.3539633" lon="3.2270217"><ele>81.0</ele><time>2026-04-04T15:46:05.446Z</time></trkpt><trkpt lat="43.353985" lon="3.2272033"><ele>81.25</ele><time>2026-04-04T15:46:06.446Z</time></trkpt><trkpt lat="43.3539967" lon="3.2273767"><ele>81.5</ele><time>2026-04-04T15:46:07.447Z</time></trkpt><trkpt lat="43.3540067" lon="3.2275467"><ele>81.75</ele><time>2026-04-04T15:46:08.444Z</time></trkpt><trkpt lat="43.354015" lon="3.2277017"><ele>82.0</ele><time>2026-04-04T15:46:09.445Z</time></trkpt><trkpt lat="43.3540233" lon="3.2278367"><ele>82.0</ele><time>2026-04-04T15:46:10.446Z</time></trkpt><trkpt lat="43.35403" lon="3.2279433"><ele>82.0</ele><time>2026-04-04T15:46:11.446Z</time></trkpt><trkpt lat="43.3540367" lon="3.2280317"><ele>82.0</ele><time>2026-04-04T15:46:12.444Z</time></trkpt><trkpt lat="43.354045" lon="3.2282133"><ele>82.0</ele><time>2026-04-04T15:46:14.443Z</time></trkpt><trkpt lat="43.35405" lon="3.228315"><ele>82.0</ele><time>2026-04-04T15:46:15.445Z</time></trkpt><trkpt lat="43.35405" lon="3.2284183"><ele>82.0</ele><time>2026-04-04T15:46:16.443Z</time></trkpt><trkpt lat="43.354045" lon="3.2285283"><ele>82.0</ele><time>2026-04-04T15:46:17.444Z</time></trkpt><trkpt lat="43.354045" lon="3.2286433"><ele>82.0</ele><time>2026-04-04T15:46:18.445Z</time></trkpt><trkpt lat="43.3540483" lon="3.2287617"><ele>82.0</ele><time>2026-04-04T15:46:19.444Z</time></trkpt><trkpt lat="43.3540533" lon="3.22888"><ele>82.0</ele><time>2026-04-04T15:46:20.444Z</time></trkpt><trkpt lat="43.354055" lon="3.2289967"><ele>82.0</ele><time>2026-04-04T15:46:21.444Z</time></trkpt><trkpt lat="43.35406" lon="3.2291"><ele>82.0</ele><time>2026-04-04T15:46:22.444Z</time></trkpt><trkpt lat="43.35406" lon="3.229205"><ele>81.83333333333333</ele><time>2026-04-04T15:46:23.446Z</time></trkpt><trkpt lat="43.35406" lon="3.2293083"><ele>81.66666666666666</ele><time>2026-04-04T15:46:24.444Z</time></trkpt><trkpt lat="43.35406" lon="3.2294167"><ele>81.5</ele><time>2026-04-04T15:46:25.444Z</time></trkpt><trkpt lat="43.3540583" lon="3.2295367"><ele>81.33333333333333</ele><time>2026-04-04T15:46:26.442Z</time></trkpt><trkpt lat="43.35406" lon="3.229665"><ele>81.16666666666667</ele><time>2026-04-04T15:46:27.446Z</time></trkpt><trkpt lat="43.3540633" lon="3.2298"><ele>81.0</ele><time>2026-04-04T15:46:28.443Z</time></trkpt><trkpt lat="43.354065" lon="3.22994"><ele>80.8</ele><time>2026-04-04T15:46:29.444Z</time></trkpt><trkpt lat="43.3540667" lon="3.2300783"><ele>80.6</ele><time>2026-04-04T15:46:30.446Z</time></trkpt><trkpt lat="43.35407" lon="3.2302217"><ele>80.4</ele><time>2026-04-04T15:46:31.444Z</time></trkpt><trkpt lat="43.354075" lon="3.2303733"><ele>80.2</ele><time>2026-04-04T15:46:32.446Z</time></trkpt><trkpt lat="43.35408" lon="3.2305317"><ele>80.0</ele><time>2026-04-04T15:46:33.444Z</time></trkpt><trkpt lat="43.3540933" lon="3.2306917"><ele>80.4</ele><time>2026-04-04T15:46:34.444Z</time></trkpt><trkpt lat="43.35411" lon="3.2308533"><ele>80.8</ele><time>2026-04-04T15:46:35.446Z</time></trkpt><trkpt lat="43.35413" lon="3.2310083"><ele>81.19999999999999</ele><time>2026-04-04T15:46:36.444Z</time></trkpt><trkpt lat="43.3541533" lon="3.2311467"><ele>81.6</ele><time>2026-04-04T15:46:37.445Z</time></trkpt><trkpt lat="43.3541733" lon="3.2312817"><ele>82.0</ele><time>2026-04-04T15:46:38.446Z</time></trkpt><trkpt lat="43.3541967" lon="3.231415"><ele>82.19999999999999</ele><time>2026-04-04T15:46:39.447Z</time></trkpt><trkpt lat="43.3542183" lon="3.2315467"><ele>82.4</ele><time>2026-04-04T15:46:40.447Z</time></trkpt><trkpt lat="43.3542383" lon="3.231685"><ele>82.6</ele><time>2026-04-04T15:46:41.446Z</time></trkpt><trkpt lat="43.3542617" lon="3.2318267"><ele>82.80000000000001</ele><time>2026-04-04T15:46:42.443Z</time></trkpt><trkpt lat="43.3542833" lon="3.2319733"><ele>83.0</ele><time>2026-04-04T15:46:43.444Z</time></trkpt><trkpt lat="43.354305" lon="3.232125"><ele>83.0</ele><time>2026-04-04T15:46:44.446Z</time></trkpt><trkpt lat="43.3543333" lon="3.2322767"><ele>83.0</ele><time>2026-04-04T15:46:45.443Z</time></trkpt><trkpt lat="43.354365" lon="3.232435"><ele>83.0</ele><time>2026-04-04T15:46:46.444Z</time></trkpt><trkpt lat="43.354395" lon="3.2325917"><ele>83.0</ele><time>2026-04-04T15:46:47.443Z</time></trkpt><trkpt lat="43.35442" lon="3.2327567"><ele>83.0</ele><time>2026-04-04T15:46:48.443Z</time></trkpt><trkpt lat="43.35444" lon="3.2329317"><ele>83.0</ele><time>2026-04-04T15:46:49.444Z</time></trkpt><trkpt lat="43.3544633" lon="3.2330917"><ele>83.0</ele><time>2026-04-04T15:46:50.443Z</time></trkpt><trkpt lat="43.35449" lon="3.2332517"><ele>83.0</ele><time>2026-04-04T15:46:51.443Z</time></trkpt><trkpt lat="43.35451" lon="3.2334167"><ele>83.0</ele><time>2026-04-04T15:46:52.444Z</time></trkpt><trkpt lat="43.3545267" lon="3.2335783"><ele>83.0</ele><time>2026-04-04T15:46:53.445Z</time></trkpt><trkpt lat="43.3545467" lon="3.2337333"><ele>83.0</ele><time>2026-04-04T15:46:54.447Z</time></trkpt><trkpt lat="43.3545633" lon="3.23386"><ele>83.0</ele><time>2026-04-04T15:46:55.447Z</time></trkpt><trkpt lat="43.3545767" lon="3.2339583"><ele>83.0</ele><time>2026-04-04T15:46:56.443Z</time></trkpt><trkpt lat="43.3545967" lon="3.234085"><ele>83.0</ele><time>2026-04-04T15:46:58.444Z</time></trkpt><trkpt lat="43.3546283" lon="3.2342383"><ele>83.0</ele><time>2026-04-04T15:47:22.443Z</time></trkpt><trkpt lat="43.354645" lon="3.234345"><ele>83.0</ele><time>2026-04-04T15:47:23.442Z</time></trkpt><trkpt lat="43.354665" lon="3.2344733"><ele>83.0</ele><time>2026-04-04T15:47:24.443Z</time></trkpt><trkpt lat="43.3546867" lon="3.2346217"><ele>83.0</ele><time>2026-04-04T15:47:25.444Z</time></trkpt><trkpt lat="43.3547133" lon="3.234785"><ele>83.0</ele><time>2026-04-04T15:47:26.442Z</time></trkpt><trkpt lat="43.3547417" lon="3.2349583"><ele>83.0</ele><time>2026-04-04T15:47:27.442Z</time></trkpt><trkpt lat="43.3547717" lon="3.235145"><ele>83.0</ele><time>2026-04-04T15:47:28.442Z</time></trkpt><trkpt lat="43.3548" lon="3.2353433"><ele>83.0</ele><time>2026-04-04T15:47:29.442Z</time></trkpt><trkpt lat="43.35483" lon="3.2355533"><ele>83.25</ele><time>2026-04-04T15:47:30.444Z</time></trkpt><trkpt lat="43.3548617" lon="3.2357633"><ele>83.5</ele><time>2026-04-04T15:47:31.444Z</time></trkpt><trkpt lat="43.3548917" lon="3.2359617"><ele>83.75</ele><time>2026-04-04T15:47:32.442Z</time></trkpt><trkpt lat="43.35492" lon="3.2361517"><ele>84.0</ele><time>2026-04-04T15:47:33.446Z</time></trkpt><trkpt lat="43.3549483" lon="3.2363267"><ele>83.83333333333333</ele><time>2026-04-04T15:47:34.444Z</time></trkpt><trkpt lat="43.3549817" lon="3.2364733"><ele>83.66666666666667</ele><time>2026-04-04T15:47:35.443Z</time></trkpt><trkpt lat="43.3550083" lon="3.236605"><ele>83.5</ele><time>2026-04-04T15:47:36.443Z</time></trkpt><trkpt lat="43.355035" lon="3.2367233"><ele>83.33333333333334</ele><time>2026-04-04T15:47:37.447Z</time></trkpt><trkpt lat="43.3550567" lon="3.23683"><ele>83.16666666666667</ele><time>2026-04-04T15:47:38.445Z</time></trkpt><trkpt lat="43.355085" lon="3.23691"><ele>83.0</ele><time>2026-04-04T15:47:39.443Z</time></trkpt><trkpt lat="43.3551567" lon="3.236975"><ele>83.0</ele><time>2026-04-04T15:47:41.445Z</time></trkpt><trkpt lat="43.3552517" lon="3.2369267"><ele>83.0</ele><time>2026-04-04T15:47:43.446Z</time></trkpt><trkpt lat="43.3553417" lon="3.2369217"><ele>83.0</ele><time>2026-04-04T15:47:45.446Z</time></trkpt><trkpt lat="43.3554067" lon="3.2369683"><ele>83.0</ele><time>2026-04-04T15:47:48.442Z</time></trkpt><trkpt lat="43.3554183" lon="3.23678"><ele>83.0</ele><time>2026-04-04T16:00:19.446Z</time></trkpt><trkpt lat="43.3553517" lon="3.2367117"><ele>83.0</ele><time>2026-04-04T16:00:22.446Z</time></trkpt><trkpt lat="43.3554617" lon="3.2364917"><ele>83.0</ele><time>2026-04-04T16:00:41.446Z</time></trkpt><trkpt lat="43.3555167" lon="3.23643"><ele>83.0</ele><time>2026-04-04T16:00:42.443Z</time></trkpt><trkpt lat="43.35558" lon="3.2363617"><ele>83.0</ele><time>2026-04-04T16:00:43.444Z</time></trkpt><trkpt lat="43.3557683" lon="3.2361183"><ele>83.33333333333334</ele><time>2026-04-04T16:00:46.443Z</time></trkpt><trkpt lat="43.3558283" lon="3.2360483"><ele>83.66666666666667</ele><time>2026-04-04T16:00:47.443Z</time></trkpt><trkpt lat="43.3558767" lon="3.2359833"><ele>84.0</ele><time>2026-04-04T16:00:48.443Z</time></trkpt><trkpt lat="43.35596" lon="3.235945"><ele>84.33333333333333</ele><time>2026-04-04T16:00:50.446Z</time></trkpt><trkpt lat="43.3560233" lon="3.2360783"><ele>84.66666666666666</ele><time>2026-04-04T16:00:52.447Z</time></trkpt><trkpt lat="43.3560683" lon="3.236195"><ele>85.0</ele><time>2026-04-04T16:00:53.446Z</time></trkpt><trkpt lat="43.35611" lon="3.236315"><ele>85.0</ele><time>2026-04-04T16:00:54.446Z</time></trkpt><trkpt lat="43.35615" lon="3.236405"><ele>85.0</ele><time>2026-04-04T16:00:55.446Z</time></trkpt><trkpt lat="43.35619" lon="3.23648"><ele>85.0</ele><time>2026-04-04T16:00:56.445Z</time></trkpt><trkpt lat="43.3562767" lon="3.236565"><ele>85.0</ele><time>2026-04-04T16:00:58.443Z</time></trkpt><trkpt lat="43.3563733" lon="3.2365367"><ele>85.0</ele><time>2026-04-04T16:01:00.444Z</time></trkpt><trkpt lat="43.35643" lon="3.236485"><ele>85.0</ele><time>2026-04-04T16:01:01.444Z</time></trkpt><trkpt lat="43.3564917" lon="3.2364183"><ele>85.33333333333333</ele><time>2026-04-04T16:01:02.446Z</time></trkpt><trkpt lat="43.3565467" lon="3.236355"><ele>85.66666666666666</ele><time>2026-04-04T16:01:03.443Z</time></trkpt><trkpt lat="43.3566317" lon="3.23628"><ele>86.0</ele><time>2026-04-04T16:01:05.443Z</time></trkpt><trkpt lat="43.3567017" lon="3.2362767"><ele>86.33333333333333</ele><time>2026-04-04T16:01:07.444Z</time></trkpt><trkpt lat="43.35678" lon="3.2363617"><ele>86.66666666666667</ele><time>2026-04-04T16:01:09.443Z</time></trkpt><trkpt lat="43.3568233" lon="3.23643"><ele>87.0</ele><time>2026-04-04T16:01:10.447Z</time></trkpt><trkpt lat="43.356875" lon="3.2365117"><ele>87.0</ele><time>2026-04-04T16:01:11.446Z</time></trkpt><trkpt lat="43.35694" lon="3.2366067"><ele>87.0</ele><time>2026-04-04T16:01:12.447Z</time></trkpt><trkpt lat="43.3570133" lon="3.2367117"><ele>87.0</ele><time>2026-04-04T16:01:13.446Z</time></trkpt><trkpt lat="43.3570933" lon="3.2368083"><ele>87.0</ele><time>2026-04-04T16:01:14.446Z</time></trkpt><trkpt lat="43.3571783" lon="3.23691"><ele>87.0</ele><time>2026-04-04T16:01:15.446Z</time></trkpt><trkpt lat="43.3572567" lon="3.2370083"><ele>87.0</ele><time>2026-04-04T16:01:16.443Z</time></trkpt><trkpt lat="43.3573333" lon="3.23709"><ele>87.0</ele><time>2026-04-04T16:01:17.444Z</time></trkpt><trkpt lat="43.357405" lon="3.23716"><ele>87.0</ele><time>2026-04-04T16:01:18.443Z</time></trkpt><trkpt lat="43.357475" lon="3.237225"><ele>87.0</ele><time>2026-04-04T16:01:19.444Z</time></trkpt><trkpt lat="43.357535" lon="3.23729"><ele>87.0</ele><time>2026-04-04T16:01:20.442Z</time></trkpt><trkpt lat="43.3575867" lon="3.23734"><ele>87.0</ele><time>2026-04-04T16:01:21.444Z</time></trkpt><trkpt lat="43.3576567" lon="3.2373483"><ele>87.0</ele><time>2026-04-04T16:01:23.446Z</time></trkpt><trkpt lat="43.3577267" lon="3.2372667"><ele>89.0</ele><time>2026-04-04T16:03:45.444Z</time></trkpt></trkseg></trk></gpx>